<?xml version='1.0' encoding='UTF-8'?><gpx version="1.1" creator="JPX - https://github.com/jenetics/jpx" xmlns="http://www.topografix.com/GPX/1/1"><trk><trkseg><trkpt lat="45.96001553469266" lon="12.607348403243956"><ele>29.25</ele><time>2026-04-27T07:26:52Z</time></trkpt><trkpt lat="45.9601498015769" lon="12.607363268504994"><ele>29.5</ele><time>2026-04-27T07:27:07.999Z</time></trkpt><trkpt lat="45.96021611741019" lon="12.607434437496833"><ele>29.75</ele><time>2026-04-27T07:27:25.999Z</time></trkpt><trkpt lat="45.96012273723646" lon="12.607245940289205"><ele>30.0</ele><time>2026-04-27T07:28:10.998Z</time></trkpt><trkpt lat="45.96006645175684" lon="12.60714385828312"><ele>30.0</ele><time>2026-04-27T07:28:12.998Z</time></trkpt><trkpt lat="45.96001164544511" lon="12.60709265170163"><ele>30.0</ele><time>2026-04-27T07:28:14.998Z</time></trkpt><trkpt lat="45.96005016174852" lon="12.606986876498228"><ele>30.0</ele><time>2026-04-27T07:28:20.998Z</time></trkpt><trkpt lat="45.96012669715735" lon="12.60695173409116"><ele>30.0</ele><time>2026-04-27T07:28:21.998Z</time></trkpt><trkpt lat="45.960199260891656" lon="12.606914252611649"><ele>30.0</ele><time>2026-04-27T07:28:22.998Z</time></trkpt><trkpt lat="45.9602918303117" lon="12.606896320872615"><ele>30.0</ele><time>2026-04-27T07:28:23.998Z</time></trkpt><trkpt lat="45.96038041948411" lon="12.606841320589089"><ele>30.0</ele><time>2026-04-27T07:28:24.998Z</time></trkpt><trkpt lat="45.96046379152317" lon="12.60676898328766"><ele>30.0</ele><time>2026-04-27T07:28:25.998Z</time></trkpt><trkpt lat="45.960529781738124" lon="12.606668120507239"><ele>30.0</ele><time>2026-04-27T07:28:26.998Z</time></trkpt><trkpt lat="45.96059132813975" lon="12.60662171881997"><ele>30.0</ele><time>2026-04-27T07:28:27.998Z</time></trkpt><trkpt lat="45.96067568659959" lon="12.606679155059586"><ele>30.0</ele><time>2026-04-27T07:28:28.998Z</time></trkpt><trkpt lat="45.96075166777261" lon="12.606737937874081"><ele>30.0</ele><time>2026-04-27T07:28:29.998Z</time></trkpt><trkpt lat="45.9608397484363" lon="12.606806707904338"><ele>30.0</ele><time>2026-04-27T07:28:30.998Z</time></trkpt><trkpt lat="45.96095201739655" lon="12.606895381588988"><ele>30.0</ele><time>2026-04-27T07:28:31.999Z</time></trkpt><trkpt lat="45.961083055432546" lon="12.606998968190783"><ele>30.0</ele><time>2026-04-27T07:28:32.999Z</time></trkpt><trkpt lat="45.96120525774745" lon="12.607150059970571"><ele>30.0</ele><time>2026-04-27T07:28:33.999Z</time></trkpt><trkpt lat="45.961297288128236" lon="12.607294036324449"><ele>30.0</ele><time>2026-04-27T07:28:34.999Z</time></trkpt><trkpt lat="45.961343029728376" lon="12.607463149787868"><ele>30.0</ele><time>2026-04-27T07:28:35.999Z</time></trkpt><trkpt lat="45.96139231313136" lon="12.607635376382394"><ele>30.0</ele><time>2026-04-27T07:28:36.999Z</time></trkpt><trkpt lat="45.961424824264675" lon="12.607810569771338"><ele>30.0</ele><time>2026-04-27T07:28:37.999Z</time></trkpt><trkpt lat="45.96146656565492" lon="12.607980737189296"><ele>30.0</ele><time>2026-04-27T07:28:38.999Z</time></trkpt><trkpt lat="45.96149992921278" lon="12.608164476134535"><ele>30.0</ele><time>2026-04-27T07:28:39.999Z</time></trkpt><trkpt lat="45.96152743121726" lon="12.608392956744625"><ele>30.0</ele><time>2026-04-27T07:28:40.999Z</time></trkpt><trkpt lat="45.96157346844966" lon="12.608644720026932"><ele>30.666666666666664</ele><time>2026-04-27T07:28:41.999Z</time></trkpt><trkpt lat="45.96161917905909" lon="12.608921844792793"><ele>31.333333333333332</ele><time>2026-04-27T07:28:43Z</time></trkpt><trkpt lat="45.96166568430208" lon="12.609163561505955"><ele>32.0</ele><time>2026-04-27T07:28:44Z</time></trkpt><trkpt lat="45.96170640276124" lon="12.609370670616435"><ele>32.75</ele><time>2026-04-27T07:28:45Z</time></trkpt><trkpt lat="45.96173973429479" lon="12.609559676323792"><ele>33.5</ele><time>2026-04-27T07:28:46Z</time></trkpt><trkpt lat="45.961770014969524" lon="12.609732342026819"><ele>34.25</ele><time>2026-04-27T07:28:47Z</time></trkpt><trkpt lat="45.961795098384684" lon="12.609885507009654"><ele>35.0</ele><time>2026-04-27T07:28:48Z</time></trkpt><trkpt lat="45.96182381889869" lon="12.610025475805637"><ele>35.0</ele><time>2026-04-27T07:28:49Z</time></trkpt><trkpt lat="45.961844663392284" lon="12.610129975508137"><ele>35.0</ele><time>2026-04-27T07:28:50Z</time></trkpt><trkpt lat="45.961848771289425" lon="12.610319568107771"><ele>35.0</ele><time>2026-04-27T07:28:52Z</time></trkpt><trkpt lat="45.961828862821086" lon="12.610444218305714"><ele>35.0</ele><time>2026-04-27T07:28:53Z</time></trkpt><trkpt lat="45.961803535461144" lon="12.610581965048752"><ele>35.0</ele><time>2026-04-27T07:28:54Z</time></trkpt><trkpt lat="45.96176656833439" lon="12.610726068773273"><ele>35.0</ele><time>2026-04-27T07:28:55Z</time></trkpt><trkpt lat="45.961713968233795" lon="12.610868922099183"><ele>35.0</ele><time>2026-04-27T07:28:56Z</time></trkpt><trkpt lat="45.961653342415474" lon="12.611013299527254"><ele>35.0</ele><time>2026-04-27T07:28:57Z</time></trkpt><trkpt lat="45.961588038536" lon="12.61116153763087"><ele>35.0</ele><time>2026-04-27T07:28:58Z</time></trkpt><trkpt lat="45.9615216768128" lon="12.611316033841199"><ele>35.0</ele><time>2026-04-27T07:28:59Z</time></trkpt><trkpt lat="45.961448000034025" lon="12.611470954177198"><ele>35.0</ele><time>2026-04-27T07:29:00Z</time></trkpt><trkpt lat="45.96137836206435" lon="12.611607750189268"><ele>35.0</ele><time>2026-04-27T07:29:01Z</time></trkpt><trkpt lat="45.96130444074621" lon="12.611720429640066"><ele>35.0</ele><time>2026-04-27T07:29:02Z</time></trkpt><trkpt lat="45.96123387593047" lon="12.611812433901807"><ele>35.0</ele><time>2026-04-27T07:29:03Z</time></trkpt><trkpt lat="45.96115873475328" lon="12.611892575130724"><ele>35.0</ele><time>2026-04-27T07:29:04Z</time></trkpt><trkpt lat="45.961101895630925" lon="12.611988789405359"><ele>35.0</ele><time>2026-04-27T07:29:05Z</time></trkpt><trkpt lat="45.96105915719138" lon="12.612082144631962"><ele>35.0</ele><time>2026-04-27T07:29:06Z</time></trkpt><trkpt lat="45.96103379822469" lon="12.61219518696357"><ele>35.0</ele><time>2026-04-27T07:29:07Z</time></trkpt><trkpt lat="45.96102405001235" lon="12.61231864892702"><ele>35.0</ele><time>2026-04-27T07:29:08Z</time></trkpt><trkpt lat="45.96101738241748" lon="12.612431403359317"><ele>34.666666666666664</ele><time>2026-04-27T07:29:09Z</time></trkpt><trkpt lat="45.96102526182328" lon="12.61258074042514"><ele>34.333333333333336</ele><time>2026-04-27T07:29:11Z</time></trkpt><trkpt lat="45.961259674207135" lon="12.612582258888164"><ele>34.0</ele><time>2026-04-27T07:29:14Z</time></trkpt><trkpt lat="45.96142477705188" lon="12.612538499365545"><ele>34.0</ele><time>2026-04-27T07:29:15Z</time></trkpt><trkpt lat="45.961606576169025" lon="12.612514059117032"><ele>34.0</ele><time>2026-04-27T07:29:16Z</time></trkpt><trkpt lat="45.961765511014775" lon="12.612483108183703"><ele>34.0</ele><time>2026-04-27T07:29:17Z</time></trkpt><trkpt lat="45.96192252824687" lon="12.61242524815409"><ele>33.66666666666667</ele><time>2026-04-27T07:29:18Z</time></trkpt><trkpt lat="45.96208585649316" lon="12.612357385730983"><ele>33.333333333333336</ele><time>2026-04-27T07:29:19Z</time></trkpt><trkpt lat="45.96225276286526" lon="12.61227924835374"><ele>33.0</ele><time>2026-04-27T07:29:20Z</time></trkpt><trkpt lat="45.962412432025594" lon="12.612192810386711"><ele>33.0</ele><time>2026-04-27T07:29:21Z</time></trkpt><trkpt lat="45.962575784397366" lon="12.61211832566036"><ele>33.0</ele><time>2026-04-27T07:29:22Z</time></trkpt><trkpt lat="45.962739255062" lon="12.612033242597782"><ele>33.0</ele><time>2026-04-27T07:29:23Z</time></trkpt><trkpt lat="45.962895953332456" lon="12.611922864078137"><ele>33.0</ele><time>2026-04-27T07:29:24Z</time></trkpt><trkpt lat="45.963044190744945" lon="12.611797179125178"><ele>33.0</ele><time>2026-04-27T07:29:25Z</time></trkpt><trkpt lat="45.96319830502726" lon="12.611716607382975"><ele>33.0</ele><time>2026-04-27T07:29:26Z</time></trkpt><trkpt lat="45.96335222058839" lon="12.611632012514455"><ele>33.666666666666664</ele><time>2026-04-27T07:29:26.999Z</time></trkpt><trkpt lat="45.963512071403" lon="12.611615144357062"><ele>34.33333333333333</ele><time>2026-04-27T07:29:27.999Z</time></trkpt><trkpt lat="45.963667307244876" lon="12.611569997784443"><ele>35.0</ele><time>2026-04-27T07:29:28.999Z</time></trkpt><trkpt lat="45.963821434119815" lon="12.611541290290564"><ele>35.0</ele><time>2026-04-27T07:29:29.999Z</time></trkpt><trkpt lat="45.96397742484517" lon="12.611525268711958"><ele>35.0</ele><time>2026-04-27T07:29:30.999Z</time></trkpt><trkpt lat="45.96412339474555" lon="12.611499968495295"><ele>35.0</ele><time>2026-04-27T07:29:31.999Z</time></trkpt><trkpt lat="45.96425843282549" lon="12.611482130158185"><ele>35.0</ele><time>2026-04-27T07:29:32.999Z</time></trkpt><trkpt lat="45.96437909803328" lon="12.61146349265887"><ele>35.33333333333333</ele><time>2026-04-27T07:29:33.999Z</time></trkpt><trkpt lat="45.96448986255121" lon="12.6114550355691"><ele>35.666666666666664</ele><time>2026-04-27T07:29:34.999Z</time></trkpt><trkpt lat="45.964577219329186" lon="12.611460208267864"><ele>36.0</ele><time>2026-04-27T07:29:35.999Z</time></trkpt><trkpt lat="45.964652819781854" lon="12.611478752044611"><ele>36.333333333333336</ele><time>2026-04-27T07:29:36.999Z</time></trkpt><trkpt lat="45.964723161810824" lon="12.611497852318697"><ele>36.66666666666667</ele><time>2026-04-27T07:29:37.999Z</time></trkpt><trkpt lat="45.96481426929456" lon="12.611479736178886"><ele>37.0</ele><time>2026-04-27T07:29:38.999Z</time></trkpt><trkpt lat="45.96493099481246" lon="12.611442872555513"><ele>37.333333333333336</ele><time>2026-04-27T07:29:39.999Z</time></trkpt><trkpt lat="45.96507253139334" lon="12.611422155445307"><ele>37.666666666666664</ele><time>2026-04-27T07:29:40.999Z</time></trkpt><trkpt lat="45.96523097536411" lon="12.611417755308347"><ele>38.0</ele><time>2026-04-27T07:29:41.999Z</time></trkpt><trkpt lat="45.96541879160214" lon="12.611405988679358"><ele>38.0</ele><time>2026-04-27T07:29:42.999Z</time></trkpt><trkpt lat="45.96558664365602" lon="12.611394207300732"><ele>38.0</ele><time>2026-04-27T07:29:43.999Z</time></trkpt><trkpt lat="45.96572904183213" lon="12.611384177570203"><ele>38.0</ele><time>2026-04-27T07:29:44.999Z</time></trkpt><trkpt lat="45.965860939284376" lon="12.611377104669042"><ele>38.0</ele><time>2026-04-27T07:29:45.999Z</time></trkpt><trkpt lat="45.96597562310756" lon="12.611370526131813"><ele>38.199999999999996</ele><time>2026-04-27T07:29:46.999Z</time></trkpt><trkpt lat="45.966084864453435" lon="12.611375958209214"><ele>38.4</ele><time>2026-04-27T07:29:47.999Z</time></trkpt><trkpt lat="45.966178998431815" lon="12.611369420553244"><ele>38.599999999999994</ele><time>2026-04-27T07:29:48.999Z</time></trkpt><trkpt lat="45.96627543886584" lon="12.611366274926894"><ele>38.8</ele><time>2026-04-27T07:29:49.999Z</time></trkpt><trkpt lat="45.96636772569973" lon="12.611360205357299"><ele>39.0</ele><time>2026-04-27T07:29:50.999Z</time></trkpt><trkpt lat="45.96646226342475" lon="12.611363402391497"><ele>39.0</ele><time>2026-04-27T07:29:51.999Z</time></trkpt><trkpt lat="45.96655796721957" lon="12.611371946722446"><ele>39.0</ele><time>2026-04-27T07:29:52.999Z</time></trkpt><trkpt lat="45.96665934567566" lon="12.61137599668732"><ele>39.0</ele><time>2026-04-27T07:29:53.999Z</time></trkpt><trkpt lat="45.96676482290449" lon="12.61136984992395"><ele>39.0</ele><time>2026-04-27T07:29:54.999Z</time></trkpt><trkpt lat="45.966880681024186" lon="12.61136334502196"><ele>39.0</ele><time>2026-04-27T07:29:55.999Z</time></trkpt><trkpt lat="45.967006763763834" lon="12.611354228928477"><ele>39.25</ele><time>2026-04-27T07:29:56.999Z</time></trkpt><trkpt lat="45.967140074877726" lon="12.611342604961191"><ele>39.5</ele><time>2026-04-27T07:29:57.999Z</time></trkpt><trkpt lat="45.967273489151616" lon="12.611330319234247"><ele>39.75</ele><time>2026-04-27T07:29:58.999Z</time></trkpt><trkpt lat="45.96739899410956" lon="12.611320937682914"><ele>40.0</ele><time>2026-04-27T07:29:59.999Z</time></trkpt><trkpt lat="45.96752335804781" lon="12.611310952228061"><ele>40.4</ele><time>2026-04-27T07:30:00.999Z</time></trkpt><trkpt lat="45.96764427907493" lon="12.611305113170825"><ele>40.8</ele><time>2026-04-27T07:30:01.999Z</time></trkpt><trkpt lat="45.96772010442962" lon="12.611299308257673"><ele>41.2</ele><time>2026-04-27T07:30:02.999Z</time></trkpt><trkpt lat="45.9678316884383" lon="12.611301010144519"><ele>41.6</ele><time>2026-04-27T07:30:03.999Z</time></trkpt><trkpt lat="45.967927653826884" lon="12.611294425435343"><ele>42.0</ele><time>2026-04-27T07:30:04.999Z</time></trkpt><trkpt lat="45.96800704513836" lon="12.611286880760641"><ele>42.0</ele><time>2026-04-27T07:30:05.999Z</time></trkpt><trkpt lat="45.96807836049283" lon="12.611279027865024"><ele>42.0</ele><time>2026-04-27T07:30:06.999Z</time></trkpt><trkpt lat="45.96815472055109" lon="12.611271309203971"><ele>42.0</ele><time>2026-04-27T07:30:07.999Z</time></trkpt><trkpt lat="45.968242994822894" lon="12.611263594712916"><ele>42.0</ele><time>2026-04-27T07:30:08.999Z</time></trkpt><trkpt lat="45.968322139585915" lon="12.611255345233683"><ele>42.0</ele><time>2026-04-27T07:30:09.999Z</time></trkpt><trkpt lat="45.96839696277009" lon="12.611254973617802"><ele>42.0</ele><time>2026-04-27T07:30:10.999Z</time></trkpt><trkpt lat="45.96851292580582" lon="12.61127403909061"><ele>42.2</ele><time>2026-04-27T07:30:12.999Z</time></trkpt><trkpt lat="45.96859847014707" lon="12.611328344450222"><ele>42.400000000000006</ele><time>2026-04-27T07:30:14.999Z</time></trkpt><trkpt lat="45.96870065286137" lon="12.611474118453739"><ele>42.599999999999994</ele><time>2026-04-27T07:30:16.999Z</time></trkpt><trkpt lat="45.968744659264225" lon="12.61156755640728"><ele>42.8</ele><time>2026-04-27T07:30:17.999Z</time></trkpt><trkpt lat="45.96879467759881" lon="12.611703984644615"><ele>43.0</ele><time>2026-04-27T07:30:19.999Z</time></trkpt><trkpt lat="45.968841189625" lon="12.611864068895414"><ele>43.0</ele><time>2026-04-27T07:30:21.999Z</time></trkpt><trkpt lat="45.96885158420588" lon="12.611983565275565"><ele>43.0</ele><time>2026-04-27T07:30:22.999Z</time></trkpt><trkpt lat="45.968795885809456" lon="12.612121905390353"><ele>43.0</ele><time>2026-04-27T07:30:23.999Z</time></trkpt><trkpt lat="45.968786374092566" lon="12.612264969020996"><ele>43.0</ele><time>2026-04-27T07:30:24.999Z</time></trkpt><trkpt lat="45.968771750023066" lon="12.612409984586938"><ele>43.0</ele><time>2026-04-27T07:30:25.999Z</time></trkpt><trkpt lat="45.96875802224756" lon="12.612558520867296"><ele>42.833333333333336</ele><time>2026-04-27T07:30:26.999Z</time></trkpt><trkpt lat="45.96874378636063" lon="12.61270803719284"><ele>42.66666666666667</ele><time>2026-04-27T07:30:27.999Z</time></trkpt><trkpt lat="45.96873271312495" lon="12.612834160150538"><ele>42.5</ele><time>2026-04-27T07:30:28.999Z</time></trkpt><trkpt lat="45.96872227519808" lon="12.612955376371849"><ele>42.333333333333336</ele><time>2026-04-27T07:30:29.999Z</time></trkpt><trkpt lat="45.96871292111454" lon="12.613055642209597"><ele>42.166666666666664</ele><time>2026-04-27T07:30:30.999Z</time></trkpt><trkpt lat="45.96870499013784" lon="12.613149253517422"><ele>42.0</ele><time>2026-04-27T07:30:31.999Z</time></trkpt><trkpt lat="45.96870085851842" lon="12.613248966036288"><ele>42.0</ele><time>2026-04-27T07:30:32.999Z</time></trkpt><trkpt lat="45.96869212083296" lon="12.613356559121467"><ele>42.0</ele><time>2026-04-27T07:30:33.999Z</time></trkpt><trkpt lat="45.96867602789137" lon="12.613484842424924"><ele>42.0</ele><time>2026-04-27T07:30:34.999Z</time></trkpt><trkpt lat="45.96865998378852" lon="12.613623814474309"><ele>42.0</ele><time>2026-04-27T07:30:35.999Z</time></trkpt><trkpt lat="45.96865360116803" lon="12.613813279653556"><ele>42.0</ele><time>2026-04-27T07:30:36.999Z</time></trkpt><trkpt lat="45.96865342396031" lon="12.614039038859955"><ele>42.0</ele><time>2026-04-27T07:30:38Z</time></trkpt><trkpt lat="45.96864054892867" lon="12.614291145728565"><ele>42.0</ele><time>2026-04-27T07:30:39Z</time></trkpt><trkpt lat="45.968621296224114" lon="12.614562114557591"><ele>42.0</ele><time>2026-04-27T07:30:40Z</time></trkpt><trkpt lat="45.96859957981179" lon="12.614809144707168"><ele>41.666666666666664</ele><time>2026-04-27T07:30:41Z</time></trkpt><trkpt lat="45.96857715100021" lon="12.615028882488971"><ele>41.33333333333333</ele><time>2026-04-27T07:30:42Z</time></trkpt><trkpt lat="45.968553034696384" lon="12.615242967176407"><ele>41.0</ele><time>2026-04-27T07:30:43Z</time></trkpt><trkpt lat="45.968532972351284" lon="12.61546736751979"><ele>41.0</ele><time>2026-04-27T07:30:44Z</time></trkpt><trkpt lat="45.96851463345686" lon="12.615686147252758"><ele>41.0</ele><time>2026-04-27T07:30:45Z</time></trkpt><trkpt lat="45.96849650964906" lon="12.615895293458198"><ele>41.0</ele><time>2026-04-27T07:30:46Z</time></trkpt><trkpt lat="45.96847980483228" lon="12.616103604486623"><ele>41.0</ele><time>2026-04-27T07:30:47Z</time></trkpt><trkpt lat="45.96846275043311" lon="12.616315220236812"><ele>41.0</ele><time>2026-04-27T07:30:48Z</time></trkpt><trkpt lat="45.96844487529679" lon="12.61653442803996"><ele>41.0</ele><time>2026-04-27T07:30:49Z</time></trkpt><trkpt lat="45.96842748179767" lon="12.616760460722109"><ele>41.0</ele><time>2026-04-27T07:30:50Z</time></trkpt><trkpt lat="45.968409044181136" lon="12.616987613014786"><ele>41.0</ele><time>2026-04-27T07:30:51Z</time></trkpt><trkpt lat="45.96839194611651" lon="12.617222353366587"><ele>41.0</ele><time>2026-04-27T07:30:52Z</time></trkpt><trkpt lat="45.96837704863171" lon="12.617466055142538"><ele>41.0</ele><time>2026-04-27T07:30:53Z</time></trkpt><trkpt lat="45.968357868331786" lon="12.617685235905281"><ele>40.5</ele><time>2026-04-27T07:30:54Z</time></trkpt><trkpt lat="45.96833791762689" lon="12.617887420423166"><ele>40.0</ele><time>2026-04-27T07:30:55Z</time></trkpt><trkpt lat="45.96831952712315" lon="12.618094518390292"><ele>39.5</ele><time>2026-04-27T07:30:56Z</time></trkpt><trkpt lat="45.96830756243549" lon="12.618313245049825"><ele>39.0</ele><time>2026-04-27T07:30:57Z</time></trkpt><trkpt lat="45.968295645419595" lon="12.618549848390316"><ele>38.666666666666664</ele><time>2026-04-27T07:30:58Z</time></trkpt><trkpt lat="45.96828099129356" lon="12.618801748177628"><ele>38.33333333333333</ele><time>2026-04-27T07:30:59Z</time></trkpt><trkpt lat="45.968260454474354" lon="12.619068861119084"><ele>38.0</ele><time>2026-04-27T07:31:00Z</time></trkpt><trkpt lat="45.9682370512839" lon="12.619365750654918"><ele>39.0</ele><time>2026-04-27T07:31:01Z</time></trkpt><trkpt lat="45.96821288641492" lon="12.61968543386292"><ele>40.0</ele><time>2026-04-27T07:31:02Z</time></trkpt><trkpt lat="45.96819068773985" lon="12.619979136176099"><ele>41.0</ele><time>2026-04-27T07:31:03Z</time></trkpt><trkpt lat="45.968170691067215" lon="12.620245547616662"><ele>41.0</ele><time>2026-04-27T07:31:04Z</time></trkpt><trkpt lat="45.96815338359574" lon="12.620514816032289"><ele>41.0</ele><time>2026-04-27T07:31:05Z</time></trkpt><trkpt lat="45.96813396079028" lon="12.620781471807428"><ele>41.0</ele><time>2026-04-27T07:31:06Z</time></trkpt><trkpt lat="45.96811574122366" lon="12.621042326444996"><ele>40.666666666666664</ele><time>2026-04-27T07:31:07Z</time></trkpt><trkpt lat="45.96809745544108" lon="12.62130389543955"><ele>40.333333333333336</ele><time>2026-04-27T07:31:08Z</time></trkpt><trkpt lat="45.96807851683984" lon="12.621555211314625"><ele>40.0</ele><time>2026-04-27T07:31:09Z</time></trkpt><trkpt lat="45.96806070345643" lon="12.621800859785282"><ele>40.0</ele><time>2026-04-27T07:31:10Z</time></trkpt><trkpt lat="45.9680414774974" lon="12.622040007142063"><ele>40.0</ele><time>2026-04-27T07:31:11Z</time></trkpt><trkpt lat="45.96802047229716" lon="12.622271977345617"><ele>40.0</ele><time>2026-04-27T07:31:12Z</time></trkpt><trkpt lat="45.96800259501295" lon="12.622500251043043"><ele>40.0</ele><time>2026-04-27T07:31:13Z</time></trkpt><trkpt lat="45.96798554943528" lon="12.62272696292879"><ele>40.0</ele><time>2026-04-27T07:31:14Z</time></trkpt><trkpt lat="45.96796898099338" lon="12.622942515763757"><ele>40.0</ele><time>2026-04-27T07:31:15Z</time></trkpt><trkpt lat="45.967953454664915" lon="12.62314617180059"><ele>40.0</ele><time>2026-04-27T07:31:16Z</time></trkpt><trkpt lat="45.96793511565661" lon="12.623347671524495"><ele>40.0</ele><time>2026-04-27T07:31:17Z</time></trkpt><trkpt lat="45.96792029910312" lon="12.623529946442895"><ele>40.0</ele><time>2026-04-27T07:31:18Z</time></trkpt><trkpt lat="45.9679059140807" lon="12.623702884891019"><ele>40.0</ele><time>2026-04-27T07:31:19Z</time></trkpt><trkpt lat="45.967894038193414" lon="12.623874552669411"><ele>39.75</ele><time>2026-04-27T07:31:20Z</time></trkpt><trkpt lat="45.96788041829863" lon="12.624057807865098"><ele>39.5</ele><time>2026-04-27T07:31:21Z</time></trkpt><trkpt lat="45.96786561458838" lon="12.624240386271918"><ele>39.25</ele><time>2026-04-27T07:31:22Z</time></trkpt><trkpt lat="45.96785663846363" lon="12.624408837025504"><ele>39.0</ele><time>2026-04-27T07:31:23Z</time></trkpt><trkpt lat="45.96784890355288" lon="12.624570481030597"><ele>39.0</ele><time>2026-04-27T07:31:24Z</time></trkpt><trkpt lat="45.9678421793043" lon="12.624735779877394"><ele>39.0</ele><time>2026-04-27T07:31:25Z</time></trkpt><trkpt lat="45.967835839714574" lon="12.624907613604055"><ele>39.0</ele><time>2026-04-27T07:31:26Z</time></trkpt><trkpt lat="45.96783457928647" lon="12.625066995511512"><ele>39.0</ele><time>2026-04-27T07:31:27Z</time></trkpt><trkpt lat="45.967832135323796" lon="12.625229561092121"><ele>39.0</ele><time>2026-04-27T07:31:28Z</time></trkpt><trkpt lat="45.9678228234085" lon="12.625406950171577"><ele>39.0</ele><time>2026-04-27T07:31:29Z</time></trkpt><trkpt lat="45.96781642520566" lon="12.625581555082968"><ele>39.0</ele><time>2026-04-27T07:31:30Z</time></trkpt><trkpt lat="45.96780916860052" lon="12.62573840348467"><ele>39.0</ele><time>2026-04-27T07:31:31Z</time></trkpt><trkpt lat="45.96780143432183" lon="12.625883746582462"><ele>39.0</ele><time>2026-04-27T07:31:32Z</time></trkpt><trkpt lat="45.96778890118151" lon="12.626019548797505"><ele>39.0</ele><time>2026-04-27T07:31:33Z</time></trkpt><trkpt lat="45.967765652208186" lon="12.626126564560883"><ele>39.0</ele><time>2026-04-27T07:31:34Z</time></trkpt><trkpt lat="45.96771960663255" lon="12.6262258414604"><ele>39.0</ele><time>2026-04-27T07:31:36Z</time></trkpt><trkpt lat="45.96766422130287" lon="12.626356853554755"><ele>39.0</ele><time>2026-04-27T07:31:37.999Z</time></trkpt><trkpt lat="45.967653036814276" lon="12.62650686246519"><ele>39.0</ele><time>2026-04-27T07:31:39.999Z</time></trkpt><trkpt lat="45.9676833056839" lon="12.626599865218873"><ele>39.0</ele><time>2026-04-27T07:31:40.999Z</time></trkpt><trkpt lat="45.96774180580636" lon="12.626679493699069"><ele>39.0</ele><time>2026-04-27T07:31:41.999Z</time></trkpt><trkpt lat="45.967819457001916" lon="12.626741720987285"><ele>39.0</ele><time>2026-04-27T07:31:42.999Z</time></trkpt><trkpt lat="45.96790589003801" lon="12.626805314043509"><ele>39.0</ele><time>2026-04-27T07:31:43.999Z</time></trkpt><trkpt lat="45.967987145324706" lon="12.626887203843944"><ele>39.0</ele><time>2026-04-27T07:31:44.999Z</time></trkpt><trkpt lat="45.96804776991569" lon="12.626996457857219"><ele>39.0</ele><time>2026-04-27T07:31:45.999Z</time></trkpt><trkpt lat="45.968091598800825" lon="12.627129303987173"><ele>39.0</ele><time>2026-04-27T07:31:46.999Z</time></trkpt><trkpt lat="45.968126517827926" lon="12.62727753036984"><ele>39.0</ele><time>2026-04-27T07:31:47.999Z</time></trkpt><trkpt lat="45.96815890454425" lon="12.627465908918161"><ele>39.0</ele><time>2026-04-27T07:31:48.999Z</time></trkpt><trkpt lat="45.96821496549297" lon="12.62771242293767"><ele>38.666666666666664</ele><time>2026-04-27T07:31:49.999Z</time></trkpt><trkpt lat="45.968284254271396" lon="12.627948562967077"><ele>38.33333333333333</ele><time>2026-04-27T07:31:50.999Z</time></trkpt><trkpt lat="45.968339685212975" lon="12.628149487834765"><ele>38.0</ele><time>2026-04-27T07:31:51.999Z</time></trkpt><trkpt lat="45.9683919366508" lon="12.628340108456374"><ele>38.5</ele><time>2026-04-27T07:31:52.999Z</time></trkpt><trkpt lat="45.96844168302068" lon="12.628527292403794"><ele>39.0</ele><time>2026-04-27T07:31:53.999Z</time></trkpt><trkpt lat="45.96848962256282" lon="12.628708596287318"><ele>39.5</ele><time>2026-04-27T07:31:54.999Z</time></trkpt><trkpt lat="45.96853798650513" lon="12.628890293928942"><ele>40.0</ele><time>2026-04-27T07:31:55.999Z</time></trkpt><trkpt lat="45.96858503073219" lon="12.629064708429619"><ele>40.0</ele><time>2026-04-27T07:31:56.999Z</time></trkpt><trkpt lat="45.968626566824284" lon="12.62922883850786"><ele>40.0</ele><time>2026-04-27T07:31:57.999Z</time></trkpt><trkpt lat="45.96866557102205" lon="12.629379507996802"><ele>40.0</ele><time>2026-04-27T07:31:58.999Z</time></trkpt><trkpt lat="45.96870229020188" lon="12.629520357193048"><ele>40.0</ele><time>2026-04-27T07:31:59.999Z</time></trkpt><trkpt lat="45.96873550494132" lon="12.629650707396335"><ele>40.0</ele><time>2026-04-27T07:32:00.999Z</time></trkpt><trkpt lat="45.968765234781195" lon="12.629774714706997"><ele>39.833333333333336</ele><time>2026-04-27T07:32:01.999Z</time></trkpt><trkpt lat="45.96879456278136" lon="12.629882175820601"><ele>39.66666666666667</ele><time>2026-04-27T07:32:02.999Z</time></trkpt><trkpt lat="45.96881685584402" lon="12.629969211029039"><ele>39.5</ele><time>2026-04-27T07:32:03.999Z</time></trkpt><trkpt lat="45.96884844671464" lon="12.630109574429119"><ele>39.333333333333336</ele><time>2026-04-27T07:32:05.999Z</time></trkpt><trkpt lat="45.96888671873094" lon="12.630227274903152"><ele>39.166666666666664</ele><time>2026-04-27T07:32:32.999Z</time></trkpt><trkpt lat="45.96891711995608" lon="12.630318267160094"><ele>39.0</ele><time>2026-04-27T07:32:33.999Z</time></trkpt><trkpt lat="45.96894699165584" lon="12.630420322842884"><ele>39.0</ele><time>2026-04-27T07:32:34.999Z</time></trkpt><trkpt lat="45.96898547592241" lon="12.630551126362587"><ele>39.0</ele><time>2026-04-27T07:32:35.999Z</time></trkpt><trkpt lat="45.96902520246897" lon="12.630691684349134"><ele>39.0</ele><time>2026-04-27T07:32:36.999Z</time></trkpt><trkpt lat="45.96906936569637" lon="12.630847048967741"><ele>39.0</ele><time>2026-04-27T07:32:37.999Z</time></trkpt><trkpt lat="45.969111286815775" lon="12.630998032692782"><ele>39.0</ele><time>2026-04-27T07:32:38.999Z</time></trkpt><trkpt lat="45.96915487226069" lon="12.63115864015764"><ele>39.0</ele><time>2026-04-27T07:32:39.999Z</time></trkpt><trkpt lat="45.96919919513125" lon="12.631323227980475"><ele>39.0</ele><time>2026-04-27T07:32:40.999Z</time></trkpt><trkpt lat="45.96924359294743" lon="12.631492711420512"><ele>39.0</ele><time>2026-04-27T07:32:41.999Z</time></trkpt><trkpt lat="45.96928977698924" lon="12.631662876159051"><ele>39.0</ele><time>2026-04-27T07:32:42.999Z</time></trkpt><trkpt lat="45.9693336026223" lon="12.631830332105496"><ele>39.0</ele><time>2026-04-27T07:32:43.999Z</time></trkpt><trkpt lat="45.96937870741938" lon="12.631997132120597"><ele>39.0</ele><time>2026-04-27T07:32:44.999Z</time></trkpt><trkpt lat="45.969423639842454" lon="12.632164136551458"><ele>39.0</ele><time>2026-04-27T07:32:45.999Z</time></trkpt><trkpt lat="45.96946600364718" lon="12.632326130276855"><ele>39.0</ele><time>2026-04-27T07:32:46.999Z</time></trkpt><trkpt lat="45.96950719352904" lon="12.632479908512373"><ele>39.0</ele><time>2026-04-27T07:32:47.999Z</time></trkpt><trkpt lat="45.96954709130798" lon="12.632625949038784"><ele>39.0</ele><time>2026-04-27T07:32:48.999Z</time></trkpt><trkpt lat="45.96958685278187" lon="12.632764050057286"><ele>39.0</ele><time>2026-04-27T07:32:50Z</time></trkpt><trkpt lat="45.96962496943913" lon="12.63288688105951"><ele>39.0</ele><time>2026-04-27T07:32:51Z</time></trkpt><trkpt lat="45.96965477259878" lon="12.632994790738719"><ele>39.0</ele><time>2026-04-27T07:32:52Z</time></trkpt><trkpt lat="45.96968768998804" lon="12.633093948132242"><ele>38.833333333333336</ele><time>2026-04-27T07:32:53Z</time></trkpt><trkpt lat="45.96972036061565" lon="12.633188374048672"><ele>38.666666666666664</ele><time>2026-04-27T07:32:54Z</time></trkpt><trkpt lat="45.9697528784503" lon="12.63328921453696"><ele>38.5</ele><time>2026-04-27T07:32:55Z</time></trkpt><trkpt lat="45.969783493226736" lon="12.633393649686536"><ele>38.33333333333333</ele><time>2026-04-27T07:32:56Z</time></trkpt><trkpt lat="45.96981675944517" lon="12.633502766450285"><ele>38.166666666666664</ele><time>2026-04-27T07:32:57Z</time></trkpt><trkpt lat="45.9698565796619" lon="12.63362479891265"><ele>38.0</ele><time>2026-04-27T07:32:58Z</time></trkpt><trkpt lat="45.96988886292814" lon="12.633737389418155"><ele>37.83333333333333</ele><time>2026-04-27T07:32:59Z</time></trkpt><trkpt lat="45.96991627979102" lon="12.633840764750236"><ele>37.666666666666664</ele><time>2026-04-27T07:33:00Z</time></trkpt><trkpt lat="45.96994085086676" lon="12.633935702706836"><ele>37.5</ele><time>2026-04-27T07:33:01Z</time></trkpt><trkpt lat="45.96997707392245" lon="12.634085641217128"><ele>37.333333333333336</ele><time>2026-04-27T07:33:03Z</time></trkpt><trkpt lat="45.970011896384996" lon="12.634193653081947"><ele>37.16666666666667</ele><time>2026-04-27T07:33:05Z</time></trkpt><trkpt lat="45.97004765933645" lon="12.634336417932392"><ele>37.0</ele><time>2026-04-27T07:33:07Z</time></trkpt><trkpt lat="45.97007117770204" lon="12.634427427297908"><ele>37.8</ele><time>2026-04-27T07:33:08Z</time></trkpt><trkpt lat="45.970098432053895" lon="12.634528146363547"><ele>38.6</ele><time>2026-04-27T07:33:09Z</time></trkpt><trkpt lat="45.97012902224038" lon="12.634648312740588"><ele>39.4</ele><time>2026-04-27T07:33:10Z</time></trkpt><trkpt lat="45.97016665182737" lon="12.634795237637963"><ele>40.199999999999996</ele><time>2026-04-27T07:33:11Z</time></trkpt><trkpt lat="45.9702089461323" lon="12.634944012083475"><ele>41.0</ele><time>2026-04-27T07:33:12Z</time></trkpt><trkpt lat="45.97025522546608" lon="12.63510078885452"><ele>41.0</ele><time>2026-04-27T07:33:13Z</time></trkpt><trkpt lat="45.97030056082081" lon="12.635264672888908"><ele>41.0</ele><time>2026-04-27T07:33:14Z</time></trkpt><trkpt lat="45.97034797922656" lon="12.635431039192262"><ele>41.0</ele><time>2026-04-27T07:33:15Z</time></trkpt><trkpt lat="45.97040164531018" lon="12.635620827496489"><ele>41.0</ele><time>2026-04-27T07:33:16Z</time></trkpt><trkpt lat="45.970465887900325" lon="12.635851333711276"><ele>41.0</ele><time>2026-04-27T07:33:17Z</time></trkpt><trkpt lat="45.970518751229854" lon="12.63605837211106"><ele>41.0</ele><time>2026-04-27T07:33:18Z</time></trkpt><trkpt lat="45.97056945481893" lon="12.636239172355634"><ele>41.0</ele><time>2026-04-27T07:33:19Z</time></trkpt><trkpt lat="45.97062221104169" lon="12.636422270784205"><ele>41.0</ele><time>2026-04-27T07:33:20Z</time></trkpt><trkpt lat="45.970675836517124" lon="12.636615169325788"><ele>41.666666666666664</ele><time>2026-04-27T07:33:21Z</time></trkpt><trkpt lat="45.970731232635615" lon="12.636814911327106"><ele>42.333333333333336</ele><time>2026-04-27T07:33:22Z</time></trkpt><trkpt lat="45.97079274121363" lon="12.637035357232602"><ele>43.0</ele><time>2026-04-27T07:33:23Z</time></trkpt><trkpt lat="45.970862997425556" lon="12.637292110876771"><ele>43.0</ele><time>2026-04-27T07:33:24Z</time></trkpt><trkpt lat="45.97092904523918" lon="12.63753894550382"><ele>43.0</ele><time>2026-04-27T07:33:25Z</time></trkpt><trkpt lat="45.97099435679655" lon="12.63779357181158"><ele>43.0</ele><time>2026-04-27T07:33:26Z</time></trkpt><trkpt lat="45.971066174681404" lon="12.638077243973033"><ele>42.333333333333336</ele><time>2026-04-27T07:33:27Z</time></trkpt><trkpt lat="45.97113754124187" lon="12.63836073171703"><ele>41.666666666666664</ele><time>2026-04-27T07:33:28Z</time></trkpt><trkpt lat="45.97120454998296" lon="12.638619141380154"><ele>41.0</ele><time>2026-04-27T07:33:29Z</time></trkpt><trkpt lat="45.971268349984854" lon="12.638852217486548"><ele>41.0</ele><time>2026-04-27T07:33:30Z</time></trkpt><trkpt lat="45.971328703336546" lon="12.639069427254698"><ele>41.0</ele><time>2026-04-27T07:33:31Z</time></trkpt><trkpt lat="45.971381131566844" lon="12.639263748529343"><ele>41.0</ele><time>2026-04-27T07:33:32Z</time></trkpt><trkpt lat="45.971425050553975" lon="12.639444447968657"><ele>41.0</ele><time>2026-04-27T07:33:33Z</time></trkpt><trkpt lat="45.97146670613138" lon="12.63961046089827"><ele>41.166666666666664</ele><time>2026-04-27T07:33:34Z</time></trkpt><trkpt lat="45.97151008582436" lon="12.63976405724708"><ele>41.33333333333333</ele><time>2026-04-27T07:33:35Z</time></trkpt><trkpt lat="45.97154642738206" lon="12.639902907818064"><ele>41.5</ele><time>2026-04-27T07:33:36Z</time></trkpt><trkpt lat="45.97156535194506" lon="12.640012408240619"><ele>41.666666666666664</ele><time>2026-04-27T07:33:37Z</time></trkpt><trkpt lat="45.97157415208949" lon="12.640120166864065"><ele>41.833333333333336</ele><time>2026-04-27T07:33:38Z</time></trkpt><trkpt lat="45.971564856384404" lon="12.640218135349926"><ele>42.0</ele><time>2026-04-27T07:33:39Z</time></trkpt><trkpt lat="45.97156525324777" lon="12.640397317751498"><ele>42.0</ele><time>2026-04-27T07:33:41Z</time></trkpt><trkpt lat="45.971614502460504" lon="12.640482294754836"><ele>42.0</ele><time>2026-04-27T07:33:42Z</time></trkpt><trkpt lat="45.971689055913636" lon="12.640560006295187"><ele>42.0</ele><time>2026-04-27T07:33:43Z</time></trkpt><trkpt lat="45.971751953401" lon="12.64065227445771"><ele>42.0</ele><time>2026-04-27T07:33:44Z</time></trkpt><trkpt lat="45.97179610512837" lon="12.640775390003453"><ele>42.0</ele><time>2026-04-27T07:33:45Z</time></trkpt><trkpt lat="45.97184357574078" lon="12.640933936342547"><ele>42.0</ele><time>2026-04-27T07:33:46Z</time></trkpt><trkpt lat="45.97188212960232" lon="12.641080178414366"><ele>42.0</ele><time>2026-04-27T07:33:47Z</time></trkpt><trkpt lat="45.97192245311347" lon="12.641230031642072"><ele>42.0</ele><time>2026-04-27T07:33:48Z</time></trkpt><trkpt lat="45.97196528157397" lon="12.641389246098987"><ele>42.0</ele><time>2026-04-27T07:33:48.999Z</time></trkpt><trkpt lat="45.972004394424395" lon="12.641546941996506"><ele>42.2</ele><time>2026-04-27T07:33:49.999Z</time></trkpt><trkpt lat="45.972037677343536" lon="12.64168981386095"><ele>42.400000000000006</ele><time>2026-04-27T07:33:50.999Z</time></trkpt><trkpt lat="45.97207154004612" lon="12.641820837591982"><ele>42.599999999999994</ele><time>2026-04-27T07:33:51.999Z</time></trkpt><trkpt lat="45.97210741775222" lon="12.64194195134349"><ele>42.8</ele><time>2026-04-27T07:33:52.999Z</time></trkpt><trkpt lat="45.97214697838135" lon="12.642070291282518"><ele>43.0</ele><time>2026-04-27T07:33:53.999Z</time></trkpt><trkpt lat="45.972187510969924" lon="12.642203482749311"><ele>43.0</ele><time>2026-04-27T07:33:54.999Z</time></trkpt><trkpt lat="45.97222343888833" lon="12.642335194312938"><ele>43.0</ele><time>2026-04-27T07:33:55.999Z</time></trkpt><trkpt lat="45.972259302967565" lon="12.642462341539145"><ele>43.0</ele><time>2026-04-27T07:33:56.999Z</time></trkpt><trkpt lat="45.9722904027634" lon="12.642578946435332"><ele>43.0</ele><time>2026-04-27T07:33:57.999Z</time></trkpt><trkpt lat="45.97231326099015" lon="12.64267586643673"><ele>43.0</ele><time>2026-04-27T07:33:58.999Z</time></trkpt><trkpt lat="45.972344502577904" lon="12.642809580183444"><ele>42.833333333333336</ele><time>2026-04-27T07:34:00.999Z</time></trkpt><trkpt lat="45.97238047235311" lon="12.642951507197163"><ele>42.66666666666667</ele><time>2026-04-27T07:34:02.999Z</time></trkpt><trkpt lat="45.97240662661827" lon="12.643038513160759"><ele>42.5</ele><time>2026-04-27T07:34:03.999Z</time></trkpt><trkpt lat="45.97243485093809" lon="12.643133230613431"><ele>42.333333333333336</ele><time>2026-04-27T07:34:04.999Z</time></trkpt><trkpt lat="45.97246216117497" lon="12.643237544370738"><ele>42.166666666666664</ele><time>2026-04-27T07:34:05.999Z</time></trkpt><trkpt lat="45.97249496207852" lon="12.643358526276057"><ele>42.0</ele><time>2026-04-27T07:34:06.999Z</time></trkpt><trkpt lat="45.97253571831744" lon="12.643495927978522"><ele>42.75</ele><time>2026-04-27T07:34:07.999Z</time></trkpt><trkpt lat="45.9725811682365" lon="12.643653511156646"><ele>43.5</ele><time>2026-04-27T07:34:08.999Z</time></trkpt><trkpt lat="45.972627747811465" lon="12.643824080795117"><ele>44.25</ele><time>2026-04-27T07:34:09.999Z</time></trkpt><trkpt lat="45.97267605248672" lon="12.643999855587646"><ele>45.0</ele><time>2026-04-27T07:34:10.999Z</time></trkpt><trkpt lat="45.97272715952811" lon="12.64419566172783"><ele>45.0</ele><time>2026-04-27T07:34:11.999Z</time></trkpt><trkpt lat="45.972772868321925" lon="12.644371837559055"><ele>45.0</ele><time>2026-04-27T07:34:12.999Z</time></trkpt><trkpt lat="45.97281787698906" lon="12.644555278377593"><ele>45.0</ele><time>2026-04-27T07:34:13.999Z</time></trkpt><trkpt lat="45.97286890032842" lon="12.644748025571173"><ele>45.0</ele><time>2026-04-27T07:34:14.999Z</time></trkpt><trkpt lat="45.97292195800245" lon="12.644940243737746"><ele>45.0</ele><time>2026-04-27T07:34:15.999Z</time></trkpt><trkpt lat="45.972975988282656" lon="12.645143682860157"><ele>45.0</ele><time>2026-04-27T07:34:16.999Z</time></trkpt><trkpt lat="45.973038322942365" lon="12.645359520040516"><ele>45.0</ele><time>2026-04-27T07:34:17.999Z</time></trkpt><trkpt lat="45.97310864773429" lon="12.64559744881113"><ele>45.0</ele><time>2026-04-27T07:34:18.999Z</time></trkpt><trkpt lat="45.973171111160276" lon="12.645817823821519"><ele>45.0</ele><time>2026-04-27T07:34:19.999Z</time></trkpt><trkpt lat="45.97323396139349" lon="12.646037957509025"><ele>45.0</ele><time>2026-04-27T07:34:20.999Z</time></trkpt><trkpt lat="45.97329533226666" lon="12.646264957084085"><ele>44.666666666666664</ele><time>2026-04-27T07:34:21.999Z</time></trkpt><trkpt lat="45.973350188684115" lon="12.64647443243199"><ele>44.33333333333333</ele><time>2026-04-27T07:34:22.999Z</time></trkpt><trkpt lat="45.97340494086509" lon="12.64667317641188"><ele>44.0</ele><time>2026-04-27T07:34:23.999Z</time></trkpt><trkpt lat="45.973459283020894" lon="12.646873453315862"><ele>44.25</ele><time>2026-04-27T07:34:24.999Z</time></trkpt><trkpt lat="45.973513207241226" lon="12.647074735524669"><ele>44.5</ele><time>2026-04-27T07:34:25.999Z</time></trkpt><trkpt lat="45.973563201764605" lon="12.647262366088164"><ele>44.75</ele><time>2026-04-27T07:34:26.999Z</time></trkpt><trkpt lat="45.97361117514724" lon="12.647439567597937"><ele>45.0</ele><time>2026-04-27T07:34:27.999Z</time></trkpt><trkpt lat="45.9736583456058" lon="12.647611200396776"><ele>45.0</ele><time>2026-04-27T07:34:28.999Z</time></trkpt><trkpt lat="45.97370869431296" lon="12.647786849967993"><ele>45.0</ele><time>2026-04-27T07:34:29.999Z</time></trkpt><trkpt lat="45.97375989323438" lon="12.647962415061667"><ele>45.0</ele><time>2026-04-27T07:34:30.999Z</time></trkpt><trkpt lat="45.97381014889528" lon="12.648126647394896"><ele>45.0</ele><time>2026-04-27T07:34:31.999Z</time></trkpt><trkpt lat="45.9738571387546" lon="12.648281995612468"><ele>45.0</ele><time>2026-04-27T07:34:32.999Z</time></trkpt><trkpt lat="45.97389914303214" lon="12.648434665783514"><ele>45.0</ele><time>2026-04-27T07:34:33.999Z</time></trkpt><trkpt lat="45.973934646312095" lon="12.648580582320909"><ele>45.0</ele><time>2026-04-27T07:34:34.999Z</time></trkpt><trkpt lat="45.97396120234535" lon="12.648706385834906"><ele>45.0</ele><time>2026-04-27T07:34:35.999Z</time></trkpt><trkpt lat="45.97397774457171" lon="12.64882048320036"><ele>45.0</ele><time>2026-04-27T07:34:36.999Z</time></trkpt><trkpt lat="45.97397167539212" lon="12.648999645989463"><ele>44.8</ele><time>2026-04-27T07:34:38.999Z</time></trkpt><trkpt lat="45.97398766220523" lon="12.64915158016964"><ele>44.6</ele><time>2026-04-27T07:34:40.999Z</time></trkpt><trkpt lat="45.97407268165858" lon="12.64929037694897"><ele>44.400000000000006</ele><time>2026-04-27T07:34:42.999Z</time></trkpt><trkpt lat="45.974123633123035" lon="12.649370869325713"><ele>44.2</ele><time>2026-04-27T07:34:43.999Z</time></trkpt><trkpt lat="45.97417283561351" lon="12.649489406472249"><ele>44.0</ele><time>2026-04-27T07:34:44.999Z</time></trkpt><trkpt lat="45.97421670969454" lon="12.649630957876504"><ele>44.0</ele><time>2026-04-27T07:34:45.999Z</time></trkpt><trkpt lat="45.97426406117901" lon="12.649789236456078"><ele>44.0</ele><time>2026-04-27T07:34:46.999Z</time></trkpt><trkpt lat="45.97431981295864" lon="12.649975829335064"><ele>44.0</ele><time>2026-04-27T07:34:47.999Z</time></trkpt><trkpt lat="45.97436626716784" lon="12.650141221607985"><ele>44.0</ele><time>2026-04-27T07:34:48.999Z</time></trkpt><trkpt lat="45.97440840931944" lon="12.65030247543739"><ele>43.75</ele><time>2026-04-27T07:34:49.999Z</time></trkpt><trkpt lat="45.974451976700834" lon="12.65046840054366"><ele>43.5</ele><time>2026-04-27T07:34:50.999Z</time></trkpt><trkpt lat="45.97449954706144" lon="12.650637704028991"><ele>43.25</ele><time>2026-04-27T07:34:51.999Z</time></trkpt><trkpt lat="45.97455530907442" lon="12.650831694528721"><ele>43.0</ele><time>2026-04-27T07:34:52.999Z</time></trkpt><trkpt lat="45.97462675162796" lon="12.651066040165048"><ele>42.66666666666667</ele><time>2026-04-27T07:34:53.999Z</time></trkpt><trkpt lat="45.97469270011887" lon="12.651300082955652"><ele>42.333333333333336</ele><time>2026-04-27T07:34:54.999Z</time></trkpt><trkpt lat="45.97476331953128" lon="12.651563324283599"><ele>42.0</ele><time>2026-04-27T07:34:55.999Z</time></trkpt><trkpt lat="45.97482860961147" lon="12.651826828988881"><ele>41.666666666666664</ele><time>2026-04-27T07:34:56.999Z</time></trkpt><trkpt lat="45.97489282276965" lon="12.652094664021087"><ele>41.33333333333333</ele><time>2026-04-27T07:34:57.999Z</time></trkpt><trkpt lat="45.97495668243448" lon="12.652362447172331"><ele>41.0</ele><time>2026-04-27T07:34:58.999Z</time></trkpt><trkpt lat="45.97502331210808" lon="12.652631084080543"><ele>41.33333333333333</ele><time>2026-04-27T07:34:59.999Z</time></trkpt><trkpt lat="45.97508174006822" lon="12.65289041406429"><ele>41.666666666666664</ele><time>2026-04-27T07:35:00.999Z</time></trkpt><trkpt lat="45.97512924025592" lon="12.653124380576365"><ele>42.0</ele><time>2026-04-27T07:35:01.999Z</time></trkpt><trkpt lat="45.97517233849279" lon="12.65335935460183"><ele>42.0</ele><time>2026-04-27T07:35:02.999Z</time></trkpt><trkpt lat="45.975206233033994" lon="12.653580793752791"><ele>42.0</ele><time>2026-04-27T07:35:03.999Z</time></trkpt><trkpt lat="45.975238173365504" lon="12.653804078711763"><ele>42.0</ele><time>2026-04-27T07:35:04.999Z</time></trkpt><trkpt lat="45.9752656549531" lon="12.654018551217474"><ele>41.0</ele><time>2026-04-27T07:35:06Z</time></trkpt><trkpt lat="45.97529051209096" lon="12.654221593381854"><ele>40.0</ele><time>2026-04-27T07:35:07Z</time></trkpt><trkpt lat="45.9753090280527" lon="12.654414405066417"><ele>39.0</ele><time>2026-04-27T07:35:08Z</time></trkpt><trkpt lat="45.975324291722586" lon="12.654599468632105"><ele>38.0</ele><time>2026-04-27T07:35:09Z</time></trkpt><trkpt lat="45.9753347114742" lon="12.654781503641557"><ele>37.75</ele><time>2026-04-27T07:35:10Z</time></trkpt><trkpt lat="45.97534234585415" lon="12.654965852061384"><ele>37.5</ele><time>2026-04-27T07:35:11Z</time></trkpt><trkpt lat="45.975347446327355" lon="12.655152081482772"><ele>37.25</ele><time>2026-04-27T07:35:12Z</time></trkpt><trkpt lat="45.975355467635815" lon="12.65534207307978"><ele>37.0</ele><time>2026-04-27T07:35:13Z</time></trkpt><trkpt lat="45.975363361972306" lon="12.655544104845893"><ele>38.333333333333336</ele><time>2026-04-27T07:35:14Z</time></trkpt><trkpt lat="45.97536556281785" lon="12.655763657519612"><ele>39.666666666666664</ele><time>2026-04-27T07:35:15Z</time></trkpt><trkpt lat="45.975362283931744" lon="12.655984237932065"><ele>41.0</ele><time>2026-04-27T07:35:16Z</time></trkpt><trkpt lat="45.97535489363714" lon="12.656194382657521"><ele>41.25</ele><time>2026-04-27T07:35:17Z</time></trkpt><trkpt lat="45.97534985005178" lon="12.656399406806802"><ele>41.5</ele><time>2026-04-27T07:35:18Z</time></trkpt><trkpt lat="45.97534365800974" lon="12.656614779149244"><ele>41.75</ele><time>2026-04-27T07:35:19Z</time></trkpt><trkpt lat="45.97533068025063" lon="12.656820046640615"><ele>42.0</ele><time>2026-04-27T07:35:20Z</time></trkpt><trkpt lat="45.97531669360467" lon="12.657006543200449"><ele>41.4</ele><time>2026-04-27T07:35:21Z</time></trkpt><trkpt lat="45.975285315490694" lon="12.657160638480066"><ele>40.800000000000004</ele><time>2026-04-27T07:35:22Z</time></trkpt><trkpt lat="45.975269574293115" lon="12.657278686883757"><ele>40.2</ele><time>2026-04-27T07:35:23Z</time></trkpt><trkpt lat="45.97527097595644" lon="12.657395266591074"><ele>39.6</ele><time>2026-04-27T07:35:25Z</time></trkpt><trkpt lat="45.9752372384971" lon="12.657520708584268"><ele>39.0</ele><time>2026-04-27T07:35:49Z</time></trkpt><trkpt lat="45.97521973410869" lon="12.657645600999825"><ele>39.0</ele><time>2026-04-27T07:35:50.999Z</time></trkpt><trkpt lat="45.97520465731821" lon="12.65774657340459"><ele>39.0</ele><time>2026-04-27T07:35:52.999Z</time></trkpt><trkpt lat="45.975387785968984" lon="12.657840646033025"><ele>39.0</ele><time>2026-04-27T07:35:54.999Z</time></trkpt><trkpt lat="45.97548083275016" lon="12.657831870532624"><ele>39.0</ele><time>2026-04-27T07:35:55.999Z</time></trkpt><trkpt lat="45.97556577017974" lon="12.657811738359683"><ele>39.0</ele><time>2026-04-27T07:35:56.999Z</time></trkpt><trkpt lat="45.97562887470401" lon="12.657795694344465"><ele>39.0</ele><time>2026-04-27T07:35:57.999Z</time></trkpt><trkpt lat="45.97576091802255" lon="12.657771607763891"><ele>39.0</ele><time>2026-04-27T07:35:59.999Z</time></trkpt><trkpt lat="45.97588349280603" lon="12.657760934128222"><ele>39.0</ele><time>2026-04-27T07:36:01.999Z</time></trkpt><trkpt lat="45.975986805704" lon="12.657803008725882"><ele>39.0</ele><time>2026-04-27T07:36:03.999Z</time></trkpt><trkpt lat="45.976040515880925" lon="12.657884579409112"><ele>39.0</ele><time>2026-04-27T07:36:04.999Z</time></trkpt><trkpt lat="45.976086499502465" lon="12.658000907268256"><ele>39.0</ele><time>2026-04-27T07:36:05.999Z</time></trkpt><trkpt lat="45.97612482405069" lon="12.658143441950193"><ele>39.0</ele><time>2026-04-27T07:36:06.999Z</time></trkpt><trkpt lat="45.97617642853168" lon="12.658339403047059"><ele>39.0</ele><time>2026-04-27T07:36:07.999Z</time></trkpt><trkpt lat="45.976238590807135" lon="12.658587872256716"><ele>39.0</ele><time>2026-04-27T07:36:08.999Z</time></trkpt><trkpt lat="45.97629269308647" lon="12.65884295291958"><ele>39.666666666666664</ele><time>2026-04-27T07:36:09.999Z</time></trkpt><trkpt lat="45.976347133307506" lon="12.65913850756601"><ele>40.33333333333333</ele><time>2026-04-27T07:36:10.999Z</time></trkpt><trkpt lat="45.97641117000292" lon="12.65946474000979"><ele>41.0</ele><time>2026-04-27T07:36:11.999Z</time></trkpt><trkpt lat="45.97649269351699" lon="12.659812389020916"><ele>41.5</ele><time>2026-04-27T07:36:12.999Z</time></trkpt><trkpt lat="45.97657884499314" lon="12.660144690374956"><ele>42.0</ele><time>2026-04-27T07:36:13.999Z</time></trkpt><trkpt lat="45.97665761998346" lon="12.660461966609697"><ele>42.0</ele><time>2026-04-27T07:36:14.999Z</time></trkpt><trkpt lat="45.97672732225176" lon="12.660754332955866"><ele>42.0</ele><time>2026-04-27T07:36:15.999Z</time></trkpt><trkpt lat="45.97679368661645" lon="12.661043964321467"><ele>42.0</ele><time>2026-04-27T07:36:16.999Z</time></trkpt><trkpt lat="45.97685079048583" lon="12.661330637430238"><ele>42.0</ele><time>2026-04-27T07:36:17.999Z</time></trkpt><trkpt lat="45.976899792025115" lon="12.661618786653374"><ele>42.0</ele><time>2026-04-27T07:36:18.999Z</time></trkpt><trkpt lat="45.97693572613047" lon="12.661898051135184"><ele>42.0</ele><time>2026-04-27T07:36:19.999Z</time></trkpt><trkpt lat="45.97696441809751" lon="12.662168589616302"><ele>42.0</ele><time>2026-04-27T07:36:20.999Z</time></trkpt><trkpt lat="45.97699183357539" lon="12.662432430020331"><ele>42.0</ele><time>2026-04-27T07:36:21.999Z</time></trkpt><trkpt lat="45.9770194795904" lon="12.662687205993674"><ele>42.0</ele><time>2026-04-27T07:36:22.999Z</time></trkpt><trkpt lat="45.977053907133694" lon="12.662933713186304"><ele>42.0</ele><time>2026-04-27T07:36:23.999Z</time></trkpt><trkpt lat="45.977092412113485" lon="12.663181423899003"><ele>42.0</ele><time>2026-04-27T07:36:24.999Z</time></trkpt><trkpt lat="45.97714258420221" lon="12.663438277889432"><ele>42.0</ele><time>2026-04-27T07:36:25.999Z</time></trkpt><trkpt lat="45.97721300688878" lon="12.663713922506037"><ele>42.0</ele><time>2026-04-27T07:36:26.999Z</time></trkpt><trkpt lat="45.97728270756334" lon="12.66398200460849"><ele>42.0</ele><time>2026-04-27T07:36:27.999Z</time></trkpt><trkpt lat="45.97734980459559" lon="12.664212077681976"><ele>42.0</ele><time>2026-04-27T07:36:28.999Z</time></trkpt><trkpt lat="45.97740657261646" lon="12.664430251596634"><ele>42.0</ele><time>2026-04-27T07:36:29.999Z</time></trkpt><trkpt lat="45.97746167112323" lon="12.664640036115122"><ele>42.0</ele><time>2026-04-27T07:36:30.999Z</time></trkpt><trkpt lat="45.97752147214565" lon="12.664850830982948"><ele>42.0</ele><time>2026-04-27T07:36:31.999Z</time></trkpt><trkpt lat="45.97758739068652" lon="12.665068715173101"><ele>43.0</ele><time>2026-04-27T07:36:32.999Z</time></trkpt><trkpt lat="45.97765811867039" lon="12.665288380058968"><ele>44.0</ele><time>2026-04-27T07:36:33.999Z</time></trkpt><trkpt lat="45.977738757225275" lon="12.66553564517446"><ele>45.0</ele><time>2026-04-27T07:36:34.999Z</time></trkpt><trkpt lat="45.97782811037485" lon="12.66577880899879"><ele>45.0</ele><time>2026-04-27T07:36:35.999Z</time></trkpt><trkpt lat="45.97791326681817" lon="12.666004440195538"><ele>45.0</ele><time>2026-04-27T07:36:36.999Z</time></trkpt><trkpt lat="45.97800191405032" lon="12.666218307446824"><ele>45.0</ele><time>2026-04-27T07:36:37.999Z</time></trkpt><trkpt lat="45.9780898024593" lon="12.666438667088716"><ele>44.666666666666664</ele><time>2026-04-27T07:36:38.999Z</time></trkpt><trkpt lat="45.97817550993607" lon="12.666660864113387"><ele>44.33333333333333</ele><time>2026-04-27T07:36:39.999Z</time></trkpt><trkpt lat="45.97825158842283" lon="12.666890861749053"><ele>44.0</ele><time>2026-04-27T07:36:40.999Z</time></trkpt><trkpt lat="45.97831784668764" lon="12.667132893920787"><ele>43.666666666666664</ele><time>2026-04-27T07:36:41.999Z</time></trkpt><trkpt lat="45.97837470433274" lon="12.667375213441431"><ele>43.333333333333336</ele><time>2026-04-27T07:36:42.999Z</time></trkpt><trkpt lat="45.978422552376735" lon="12.667617517000457"><ele>43.0</ele><time>2026-04-27T07:36:43.999Z</time></trkpt><trkpt lat="45.97846591039258" lon="12.667866054511219"><ele>43.0</ele><time>2026-04-27T07:36:44.999Z</time></trkpt><trkpt lat="45.978499955079286" lon="12.668111738540343"><ele>43.0</ele><time>2026-04-27T07:36:45.999Z</time></trkpt><trkpt lat="45.97853018581798" lon="12.668349511352499"><ele>43.0</ele><time>2026-04-27T07:36:46.999Z</time></trkpt><trkpt lat="45.97856025931656" lon="12.6685844131781"><ele>42.66666666666667</ele><time>2026-04-27T07:36:47.999Z</time></trkpt><trkpt lat="45.97859208888977" lon="12.668823469649691"><ele>42.333333333333336</ele><time>2026-04-27T07:36:48.999Z</time></trkpt><trkpt lat="45.97862716769798" lon="12.669043565421196"><ele>42.0</ele><time>2026-04-27T07:36:49.999Z</time></trkpt><trkpt lat="45.97866589723127" lon="12.669240139230665"><ele>42.0</ele><time>2026-04-27T07:36:50.999Z</time></trkpt><trkpt lat="45.978701706468684" lon="12.669410492447028"><ele>42.0</ele><time>2026-04-27T07:36:51.999Z</time></trkpt><trkpt lat="45.978737403954916" lon="12.669537023103643"><ele>42.0</ele><time>2026-04-27T07:36:52.999Z</time></trkpt><trkpt lat="45.97875361233961" lon="12.669630784081745"><ele>42.0</ele><time>2026-04-27T07:36:53.999Z</time></trkpt><trkpt lat="45.97890902927147" lon="12.669635918145694"><ele>42.0</ele><time>2026-04-27T07:36:56.999Z</time></trkpt><trkpt lat="45.978993924365994" lon="12.669556430557616"><ele>42.333333333333336</ele><time>2026-04-27T07:36:57.999Z</time></trkpt><trkpt lat="45.979138718107386" lon="12.669460629649093"><ele>42.66666666666667</ele><time>2026-04-27T07:36:58.999Z</time></trkpt><trkpt lat="45.97930525945649" lon="12.669332529825478"><ele>43.0</ele><time>2026-04-27T07:36:59.999Z</time></trkpt><trkpt lat="45.979501719641" lon="12.669213172203314"><ele>44.5</ele><time>2026-04-27T07:37:00.999Z</time></trkpt><trkpt lat="45.97971906496169" lon="12.669089070146102"><ele>46.0</ele><time>2026-04-27T07:37:01.999Z</time></trkpt><trkpt lat="45.97994061985777" lon="12.668961996778853"><ele>45.333333333333336</ele><time>2026-04-27T07:37:02.999Z</time></trkpt><trkpt lat="45.9801312846856" lon="12.668845510573053"><ele>44.666666666666664</ele><time>2026-04-27T07:37:03.999Z</time></trkpt><trkpt lat="45.980308958991245" lon="12.6687640784361"><ele>44.0</ele><time>2026-04-27T07:37:04.999Z</time></trkpt><trkpt lat="45.98045859447772" lon="12.66866155802315"><ele>44.5</ele><time>2026-04-27T07:37:05.999Z</time></trkpt><trkpt lat="45.98058982914184" lon="12.668568512722736"><ele>45.0</ele><time>2026-04-27T07:37:06.999Z</time></trkpt><trkpt lat="45.980709468670796" lon="12.668460220691378"><ele>45.5</ele><time>2026-04-27T07:37:07.999Z</time></trkpt><trkpt lat="45.98083543578379" lon="12.668339757771392"><ele>46.0</ele><time>2026-04-27T07:37:08.999Z</time></trkpt><trkpt lat="45.98097704690611" lon="12.668211378588571"><ele>46.333333333333336</ele><time>2026-04-27T07:37:09.999Z</time></trkpt><trkpt lat="45.981128753552326" lon="12.668088257355969"><ele>46.666666666666664</ele><time>2026-04-27T07:37:10.999Z</time></trkpt><trkpt lat="45.98126798158004" lon="12.66794040913652"><ele>47.0</ele><time>2026-04-27T07:37:11.999Z</time></trkpt><trkpt lat="45.98141222098871" lon="12.667769065550502"><ele>47.33333333333333</ele><time>2026-04-27T07:37:12.999Z</time></trkpt><trkpt lat="45.98156589308469" lon="12.667564968041416"><ele>47.666666666666664</ele><time>2026-04-27T07:37:14Z</time></trkpt><trkpt lat="45.98169063785062" lon="12.667385209056713"><ele>48.0</ele><time>2026-04-27T07:37:15Z</time></trkpt><trkpt lat="45.981802762768" lon="12.667224785478309"><ele>48.25</ele><time>2026-04-27T07:37:16Z</time></trkpt><trkpt lat="45.9819123950021" lon="12.66708637857406"><ele>48.5</ele><time>2026-04-27T07:37:17Z</time></trkpt><trkpt lat="45.982025313341886" lon="12.666968184219686"><ele>48.75</ele><time>2026-04-27T07:37:18Z</time></trkpt><trkpt lat="45.98214159566797" lon="12.666863372282984"><ele>49.0</ele><time>2026-04-27T07:37:19Z</time></trkpt><trkpt lat="45.98225202564757" lon="12.666773589581291"><ele>49.0</ele><time>2026-04-27T07:37:20Z</time></trkpt><trkpt lat="45.982357861165674" lon="12.666690349243073"><ele>49.0</ele><time>2026-04-27T07:37:21Z</time></trkpt><trkpt lat="45.982460390850925" lon="12.666613332713293"><ele>49.0</ele><time>2026-04-27T07:37:22Z</time></trkpt><trkpt lat="45.98255770689338" lon="12.666547328078488"><ele>49.0</ele><time>2026-04-27T07:37:23Z</time></trkpt><trkpt lat="45.98264925740745" lon="12.666484923659652"><ele>49.0</ele><time>2026-04-27T07:37:24Z</time></trkpt><trkpt lat="45.98273536066019" lon="12.666417938298503"><ele>49.5</ele><time>2026-04-27T07:37:25Z</time></trkpt><trkpt lat="45.98282328508037" lon="12.666340991186464"><ele>50.0</ele><time>2026-04-27T07:37:26Z</time></trkpt><trkpt lat="45.98292314407166" lon="12.666254595594527"><ele>50.5</ele><time>2026-04-27T07:37:27Z</time></trkpt><trkpt lat="45.983035734697125" lon="12.666164323227868"><ele>51.0</ele><time>2026-04-27T07:37:28Z</time></trkpt><trkpt lat="45.98315053703879" lon="12.666078288190464"><ele>51.0</ele><time>2026-04-27T07:37:29Z</time></trkpt><trkpt lat="45.98326539448052" lon="12.66599984648156"><ele>51.0</ele><time>2026-04-27T07:37:30Z</time></trkpt><trkpt lat="45.98339288742015" lon="12.665914732686215"><ele>51.0</ele><time>2026-04-27T07:37:31Z</time></trkpt><trkpt lat="45.983535920429766" lon="12.665828327071152"><ele>51.0</ele><time>2026-04-27T07:37:32Z</time></trkpt><trkpt lat="45.98368840795982" lon="12.665741508549917"><ele>51.0</ele><time>2026-04-27T07:37:33Z</time></trkpt><trkpt lat="45.983838090532046" lon="12.665656423325714"><ele>51.0</ele><time>2026-04-27T07:37:34Z</time></trkpt><trkpt lat="45.98397314222866" lon="12.665577466193241"><ele>51.0</ele><time>2026-04-27T07:37:35Z</time></trkpt><trkpt lat="45.984120781448645" lon="12.665500358722623"><ele>51.0</ele><time>2026-04-27T07:37:36Z</time></trkpt><trkpt lat="45.98427786354885" lon="12.665432955309791"><ele>51.0</ele><time>2026-04-27T07:37:37Z</time></trkpt><trkpt lat="45.98443372192346" lon="12.665370998991369"><ele>51.0</ele><time>2026-04-27T07:37:38Z</time></trkpt><trkpt lat="45.98459894572306" lon="12.665307608261658"><ele>51.33333333333333</ele><time>2026-04-27T07:37:39Z</time></trkpt><trkpt lat="45.984745053460415" lon="12.665249080539313"><ele>51.666666666666664</ele><time>2026-04-27T07:37:40Z</time></trkpt><trkpt lat="45.98489728557895" lon="12.66520010024703"><ele>52.0</ele><time>2026-04-27T07:37:41Z</time></trkpt><trkpt lat="45.9850713628299" lon="12.66513139512795"><ele>52.666666666666664</ele><time>2026-04-27T07:37:42Z</time></trkpt><trkpt lat="45.98525603517123" lon="12.665056894587776"><ele>53.33333333333333</ele><time>2026-04-27T07:37:43Z</time></trkpt><trkpt lat="45.98543748603156" lon="12.665001738905534"><ele>54.0</ele><time>2026-04-27T07:37:44Z</time></trkpt><trkpt lat="45.98563961995255" lon="12.664911177288069"><ele>54.0</ele><time>2026-04-27T07:37:45Z</time></trkpt><trkpt lat="45.985823523267925" lon="12.664822180204183"><ele>54.0</ele><time>2026-04-27T07:37:46Z</time></trkpt><trkpt lat="45.98597726530077" lon="12.664726995620061"><ele>54.0</ele><time>2026-04-27T07:37:47Z</time></trkpt><trkpt lat="45.9861318605982" lon="12.664650247469192"><ele>54.33333333333333</ele><time>2026-04-27T07:37:48Z</time></trkpt><trkpt lat="45.98628642541264" lon="12.664598865608145"><ele>54.666666666666664</ele><time>2026-04-27T07:37:49Z</time></trkpt><trkpt lat="45.9864319761321" lon="12.664536768692885"><ele>55.0</ele><time>2026-04-27T07:37:50Z</time></trkpt><trkpt lat="45.98657430026066" lon="12.664482116633081"><ele>55.25</ele><time>2026-04-27T07:37:51Z</time></trkpt><trkpt lat="45.986701100315685" lon="12.664443721994076"><ele>55.5</ele><time>2026-04-27T07:37:52Z</time></trkpt><trkpt lat="45.98682287664146" lon="12.664419092990341"><ele>55.75</ele><time>2026-04-27T07:37:53Z</time></trkpt><trkpt lat="45.9869592054339" lon="12.664403224412073"><ele>56.0</ele><time>2026-04-27T07:37:54Z</time></trkpt><trkpt lat="45.98709794872885" lon="12.664396989074545"><ele>56.0</ele><time>2026-04-27T07:37:55Z</time></trkpt><trkpt lat="45.987258952565654" lon="12.66436639065229"><ele>56.0</ele><time>2026-04-27T07:37:56Z</time></trkpt><trkpt lat="45.98743473427518" lon="12.664362772765415"><ele>56.0</ele><time>2026-04-27T07:37:57Z</time></trkpt><trkpt lat="45.98762218723457" lon="12.664354744134801"><ele>56.0</ele><time>2026-04-27T07:37:58Z</time></trkpt><trkpt lat="45.98778039335327" lon="12.664344132006887"><ele>56.0</ele><time>2026-04-27T07:37:59Z</time></trkpt><trkpt lat="45.98792315914519" lon="12.664315973156466"><ele>56.0</ele><time>2026-04-27T07:38:00Z</time></trkpt><trkpt lat="45.98807741615489" lon="12.664277711666223"><ele>56.0</ele><time>2026-04-27T07:38:01Z</time></trkpt><trkpt lat="45.98823354950457" lon="12.664225626779212"><ele>56.0</ele><time>2026-04-27T07:38:02Z</time></trkpt><trkpt lat="45.98837571971975" lon="12.664169974047695"><ele>56.0</ele><time>2026-04-27T07:38:03Z</time></trkpt><trkpt lat="45.98854040137402" lon="12.664086063397374"><ele>56.0</ele><time>2026-04-27T07:38:04Z</time></trkpt><trkpt lat="45.98873680464997" lon="12.663970975111033"><ele>56.0</ele><time>2026-04-27T07:38:05Z</time></trkpt><trkpt lat="45.98892331175881" lon="12.663879749784941"><ele>56.0</ele><time>2026-04-27T07:38:06Z</time></trkpt><trkpt lat="45.98908984732943" lon="12.663796405122733"><ele>56.66666666666667</ele><time>2026-04-27T07:38:07Z</time></trkpt><trkpt lat="45.98925176063856" lon="12.663709011089985"><ele>57.33333333333333</ele><time>2026-04-27T07:38:08Z</time></trkpt><trkpt lat="45.98939421301636" lon="12.663635625832915"><ele>58.0</ele><time>2026-04-27T07:38:09Z</time></trkpt><trkpt lat="45.989524041200774" lon="12.663569052164954"><ele>58.0</ele><time>2026-04-27T07:38:10Z</time></trkpt><trkpt lat="45.98963234904739" lon="12.663511791038657"><ele>58.0</ele><time>2026-04-27T07:38:11Z</time></trkpt><trkpt lat="45.98973620599506" lon="12.663460013807928"><ele>58.0</ele><time>2026-04-27T07:38:12Z</time></trkpt><trkpt lat="45.989817538243464" lon="12.663421063503858"><ele>58.0</ele><time>2026-04-27T07:38:13Z</time></trkpt><trkpt lat="45.98988639557472" lon="12.663431001991368"><ele>58.0</ele><time>2026-04-27T07:38:16Z</time></trkpt><trkpt lat="45.99000870705422" lon="12.663588159698065"><ele>58.5</ele><time>2026-04-27T07:38:18Z</time></trkpt><trkpt lat="45.990091636215105" lon="12.663737251915665"><ele>59.0</ele><time>2026-04-27T07:38:19Z</time></trkpt><trkpt lat="45.99019917470929" lon="12.663913584836008"><ele>59.5</ele><time>2026-04-27T07:38:20Z</time></trkpt><trkpt lat="45.99029465403969" lon="12.664071638686824"><ele>60.0</ele><time>2026-04-27T07:38:21Z</time></trkpt><trkpt lat="45.990361122603304" lon="12.664184158491878"><ele>60.0</ele><time>2026-04-27T07:38:22Z</time></trkpt><trkpt lat="45.990405635704775" lon="12.664249572783186"><ele>60.0</ele><time>2026-04-27T07:38:23Z</time></trkpt><trkpt lat="45.990494875530935" lon="12.664301584098139"><ele>60.0</ele><time>2026-04-27T07:38:24.999Z</time></trkpt><trkpt lat="45.990602323014" lon="12.664275026628387"><ele>60.0</ele><time>2026-04-27T07:38:25.999Z</time></trkpt><trkpt lat="45.99073934804428" lon="12.66424244085739"><ele>60.0</ele><time>2026-04-27T07:38:26.999Z</time></trkpt><trkpt lat="45.99087036289288" lon="12.664180221983957"><ele>60.33333333333333</ele><time>2026-04-27T07:38:27.999Z</time></trkpt><trkpt lat="45.99098800803671" lon="12.664212030031198"><ele>60.666666666666664</ele><time>2026-04-27T07:38:28.999Z</time></trkpt><trkpt lat="45.99113135882232" lon="12.66422133841025"><ele>61.0</ele><time>2026-04-27T07:38:29.999Z</time></trkpt><trkpt lat="45.991320810818436" lon="12.66421421247409"><ele>61.0</ele><time>2026-04-27T07:38:30.999Z</time></trkpt><trkpt lat="45.991515731279705" lon="12.664213838520057"><ele>61.0</ele><time>2026-04-27T07:38:31.999Z</time></trkpt><trkpt lat="45.99169338897103" lon="12.66423102615605"><ele>61.0</ele><time>2026-04-27T07:38:32.999Z</time></trkpt><trkpt lat="45.99184883100111" lon="12.664257152071464"><ele>61.0</ele><time>2026-04-27T07:38:33.999Z</time></trkpt><trkpt lat="45.992014258503666" lon="12.664290436057273"><ele>61.0</ele><time>2026-04-27T07:38:34.999Z</time></trkpt><trkpt lat="45.99216917824872" lon="12.664326673044435"><ele>61.0</ele><time>2026-04-27T07:38:35.999Z</time></trkpt><trkpt lat="45.99233039870177" lon="12.664340185036995"><ele>61.0</ele><time>2026-04-27T07:38:36.999Z</time></trkpt><trkpt lat="45.99249546905848" lon="12.66432606045921"><ele>61.0</ele><time>2026-04-27T07:38:37.999Z</time></trkpt><trkpt lat="45.992688895917084" lon="12.66429110406349"><ele>61.0</ele><time>2026-04-27T07:38:38.999Z</time></trkpt><trkpt lat="45.99288735799583" lon="12.664246744919161"><ele>62.0</ele><time>2026-04-27T07:38:39.999Z</time></trkpt><trkpt lat="45.99306476140582" lon="12.664205992982154"><ele>63.0</ele><time>2026-04-27T07:38:40.999Z</time></trkpt><trkpt lat="45.99325054244087" lon="12.664175874602392"><ele>64.0</ele><time>2026-04-27T07:38:41.999Z</time></trkpt><trkpt lat="45.99340968822212" lon="12.664161963580472"><ele>64.4</ele><time>2026-04-27T07:38:42.999Z</time></trkpt><trkpt lat="45.99352416608559" lon="12.664146439380405"><ele>64.80000000000001</ele><time>2026-04-27T07:38:43.999Z</time></trkpt><trkpt lat="45.993609855983976" lon="12.664169351710873"><ele>65.19999999999999</ele><time>2026-04-27T07:38:44.999Z</time></trkpt><trkpt lat="45.99371409358867" lon="12.664175830779426"><ele>65.6</ele><time>2026-04-27T07:38:53.999Z</time></trkpt><trkpt lat="45.99381806838171" lon="12.664169204660501"><ele>66.0</ele><time>2026-04-27T07:38:54.999Z</time></trkpt><trkpt lat="45.99395148576019" lon="12.664163063097297"><ele>66.0</ele><time>2026-04-27T07:38:55.999Z</time></trkpt><trkpt lat="45.99408499823669" lon="12.664160373392281"><ele>66.0</ele><time>2026-04-27T07:38:56.999Z</time></trkpt><trkpt lat="45.994223296366194" lon="12.664160295530301"><ele>66.0</ele><time>2026-04-27T07:38:57.999Z</time></trkpt><trkpt lat="45.99437055527643" lon="12.66415768010133"><ele>66.0</ele><time>2026-04-27T07:38:58.999Z</time></trkpt><trkpt lat="45.99452636530185" lon="12.6641528359274"><ele>66.0</ele><time>2026-04-27T07:38:59.999Z</time></trkpt><trkpt lat="45.994680886001674" lon="12.664154603265661"><ele>66.0</ele><time>2026-04-27T07:39:00.999Z</time></trkpt><trkpt lat="45.994833106266306" lon="12.66415641195391"><ele>66.0</ele><time>2026-04-27T07:39:01.999Z</time></trkpt><trkpt lat="45.99498810147127" lon="12.664158280098185"><ele>66.0</ele><time>2026-04-27T07:39:02.999Z</time></trkpt><trkpt lat="45.99513977697074" lon="12.664157887565349"><ele>66.0</ele><time>2026-04-27T07:39:03.999Z</time></trkpt><trkpt lat="45.995281502694525" lon="12.664160958918982"><ele>66.0</ele><time>2026-04-27T07:39:04.999Z</time></trkpt><trkpt lat="45.99541827633478" lon="12.664158844618878"><ele>66.0</ele><time>2026-04-27T07:39:05.999Z</time></trkpt><trkpt lat="45.99555149002862" lon="12.664160763248757"><ele>66.0</ele><time>2026-04-27T07:39:06.999Z</time></trkpt><trkpt lat="45.995680618009544" lon="12.664166474180417"><ele>66.0</ele><time>2026-04-27T07:39:07.999Z</time></trkpt><trkpt lat="45.9958006763215" lon="12.66417288113019"><ele>66.0</ele><time>2026-04-27T07:39:08.999Z</time></trkpt><trkpt lat="45.99591291001473" lon="12.664194845931057"><ele>66.0</ele><time>2026-04-27T07:39:09.999Z</time></trkpt><trkpt lat="45.996027700166934" lon="12.664233015484076"><ele>66.25</ele><time>2026-04-27T07:39:10.999Z</time></trkpt><trkpt lat="45.996138768029084" lon="12.664277311004371"><ele>66.5</ele><time>2026-04-27T07:39:11.999Z</time></trkpt><trkpt lat="45.99625213885892" lon="12.664327993935474"><ele>66.75</ele><time>2026-04-27T07:39:12.999Z</time></trkpt><trkpt lat="45.99636942293882" lon="12.664382761226967"><ele>67.0</ele><time>2026-04-27T07:39:13.999Z</time></trkpt><trkpt lat="45.99648914425581" lon="12.664432891529072"><ele>67.25</ele><time>2026-04-27T07:39:14.999Z</time></trkpt><trkpt lat="45.99661210925242" lon="12.664473558393471"><ele>67.5</ele><time>2026-04-27T07:39:15.999Z</time></trkpt><trkpt lat="45.996735926102154" lon="12.66451016951642"><ele>67.75</ele><time>2026-04-27T07:39:16.999Z</time></trkpt><trkpt lat="45.996866773057945" lon="12.664541044315898"><ele>68.0</ele><time>2026-04-27T07:39:17.999Z</time></trkpt><trkpt lat="45.99701832482111" lon="12.664561295966172"><ele>69.33333333333334</ele><time>2026-04-27T07:39:18.999Z</time></trkpt><trkpt lat="45.997193493266145" lon="12.66458502381937"><ele>70.66666666666667</ele><time>2026-04-27T07:39:19.999Z</time></trkpt><trkpt lat="45.99738554346177" lon="12.664613138486985"><ele>72.0</ele><time>2026-04-27T07:39:20.999Z</time></trkpt><trkpt lat="45.99757536544231" lon="12.664640132072302"><ele>72.0</ele><time>2026-04-27T07:39:21.999Z</time></trkpt><trkpt lat="45.997771768664364" lon="12.66466769790429"><ele>72.0</ele><time>2026-04-27T07:39:22.999Z</time></trkpt><trkpt lat="45.997970815892096" lon="12.664690822523426"><ele>72.0</ele><time>2026-04-27T07:39:23.999Z</time></trkpt><trkpt lat="45.99819193272349" lon="12.664707998619328"><ele>71.5</ele><time>2026-04-27T07:39:24.999Z</time></trkpt><trkpt lat="45.998418565438314" lon="12.664722953067258"><ele>71.0</ele><time>2026-04-27T07:39:25.999Z</time></trkpt><trkpt lat="45.99866622567327" lon="12.664738471484625"><ele>71.0</ele><time>2026-04-27T07:39:27Z</time></trkpt><trkpt lat="45.99891211053261" lon="12.664750401958461"><ele>71.0</ele><time>2026-04-27T07:39:28Z</time></trkpt><trkpt lat="45.99914124028992" lon="12.66476091389621"><ele>71.66666666666667</ele><time>2026-04-27T07:39:29Z</time></trkpt><trkpt lat="45.99934901424828" lon="12.66477561676057"><ele>72.33333333333333</ele><time>2026-04-27T07:39:30Z</time></trkpt><trkpt lat="45.99953401277165" lon="12.664782206780755"><ele>73.0</ele><time>2026-04-27T07:39:31Z</time></trkpt><trkpt lat="45.99969954328145" lon="12.664787992166147"><ele>73.0</ele><time>2026-04-27T07:39:32Z</time></trkpt><trkpt lat="45.99985397866114" lon="12.664796784320426"><ele>73.0</ele><time>2026-04-27T07:39:33Z</time></trkpt><trkpt lat="46.00000794887861" lon="12.664810107164337"><ele>73.0</ele><time>2026-04-27T07:39:34Z</time></trkpt><trkpt lat="46.000154395623184" lon="12.664825383726065"><ele>73.0</ele><time>2026-04-27T07:39:35Z</time></trkpt><trkpt lat="46.000295428750945" lon="12.66483415450767"><ele>73.0</ele><time>2026-04-27T07:39:36Z</time></trkpt><trkpt lat="46.00045168592989" lon="12.66483271245434"><ele>73.0</ele><time>2026-04-27T07:39:37Z</time></trkpt><trkpt lat="46.00061471558251" lon="12.66482837490239"><ele>73.0</ele><time>2026-04-27T07:39:38Z</time></trkpt><trkpt lat="46.00077645334273" lon="12.664835542499752"><ele>73.0</ele><time>2026-04-27T07:39:39Z</time></trkpt><trkpt lat="46.000941574298665" lon="12.664855552825028"><ele>73.0</ele><time>2026-04-27T07:39:40Z</time></trkpt><trkpt lat="46.001104133521416" lon="12.66486687473074"><ele>73.66666666666666</ele><time>2026-04-27T07:39:41Z</time></trkpt><trkpt lat="46.0012625955676" lon="12.664882184025364"><ele>74.33333333333333</ele><time>2026-04-27T07:39:42Z</time></trkpt><trkpt lat="46.00142055752642" lon="12.664906561812662"><ele>75.0</ele><time>2026-04-27T07:39:43Z</time></trkpt><trkpt lat="46.00159162601078" lon="12.664924815815198"><ele>75.66666666666667</ele><time>2026-04-27T07:39:44Z</time></trkpt><trkpt lat="46.001764404291045" lon="12.664954209083524"><ele>76.33333333333334</ele><time>2026-04-27T07:39:45Z</time></trkpt><trkpt lat="46.001923496340375" lon="12.664987296396435"><ele>77.0</ele><time>2026-04-27T07:39:46Z</time></trkpt><trkpt lat="46.00207901539154" lon="12.665015713062315"><ele>77.0</ele><time>2026-04-27T07:39:47Z</time></trkpt><trkpt lat="46.00221610872357" lon="12.665050570145679"><ele>77.0</ele><time>2026-04-27T07:39:48Z</time></trkpt><trkpt lat="46.00235524765739" lon="12.66511060347699"><ele>77.0</ele><time>2026-04-27T07:39:49Z</time></trkpt><trkpt lat="46.00248154185945" lon="12.665184731547816"><ele>77.0</ele><time>2026-04-27T07:39:50Z</time></trkpt><trkpt lat="46.002591575105704" lon="12.665273566615284"><ele>77.0</ele><time>2026-04-27T07:39:51Z</time></trkpt><trkpt lat="46.00271610604354" lon="12.665386196325281"><ele>77.0</ele><time>2026-04-27T07:39:52Z</time></trkpt><trkpt lat="46.00283726033831" lon="12.665491460117353"><ele>77.0</ele><time>2026-04-27T07:39:53Z</time></trkpt><trkpt lat="46.002964271653084" lon="12.66558623569071"><ele>77.0</ele><time>2026-04-27T07:39:54Z</time></trkpt><trkpt lat="46.00307809097466" lon="12.6656510037672"><ele>77.0</ele><time>2026-04-27T07:39:55Z</time></trkpt><trkpt lat="46.003208237039395" lon="12.665701747832115"><ele>77.0</ele><time>2026-04-27T07:39:56Z</time></trkpt><trkpt lat="46.00334701400425" lon="12.66575607711624"><ele>77.0</ele><time>2026-04-27T07:39:57Z</time></trkpt><trkpt lat="46.003484318505784" lon="12.665814132280072"><ele>77.0</ele><time>2026-04-27T07:39:58Z</time></trkpt><trkpt lat="46.00363524484" lon="12.665878678637007"><ele>77.33333333333334</ele><time>2026-04-27T07:39:59Z</time></trkpt><trkpt lat="46.00379449436604" lon="12.665943339862144"><ele>77.66666666666667</ele><time>2026-04-27T07:40:00Z</time></trkpt><trkpt lat="46.00395590212225" lon="12.666015070792913"><ele>78.0</ele><time>2026-04-27T07:40:01Z</time></trkpt><trkpt lat="46.00410014430521" lon="12.66609040107518"><ele>78.0</ele><time>2026-04-27T07:40:02Z</time></trkpt><trkpt lat="46.00423283040544" lon="12.66616848601152"><ele>78.0</ele><time>2026-04-27T07:40:03Z</time></trkpt><trkpt lat="46.00435327396102" lon="12.666276318969894"><ele>78.0</ele><time>2026-04-27T07:40:04Z</time></trkpt><trkpt lat="46.004479255257365" lon="12.666345315716788"><ele>78.0</ele><time>2026-04-27T07:40:05Z</time></trkpt><trkpt lat="46.00458154679719" lon="12.666437416830554"><ele>78.0</ele><time>2026-04-27T07:40:06Z</time></trkpt><trkpt lat="46.00467779649351" lon="12.666531180489114"><ele>78.0</ele><time>2026-04-27T07:40:07Z</time></trkpt><trkpt lat="46.004764581252715" lon="12.666631452049433"><ele>78.0</ele><time>2026-04-27T07:40:08Z</time></trkpt><trkpt lat="46.004851160262795" lon="12.666749838648423"><ele>78.0</ele><time>2026-04-27T07:40:09Z</time></trkpt><trkpt lat="46.00494071992588" lon="12.666881907685575"><ele>78.25</ele><time>2026-04-27T07:40:10Z</time></trkpt><trkpt lat="46.00503434072172" lon="12.667036019178443"><ele>78.5</ele><time>2026-04-27T07:40:11Z</time></trkpt><trkpt lat="46.0051201908634" lon="12.66716521969672"><ele>78.75</ele><time>2026-04-27T07:40:12Z</time></trkpt><trkpt lat="46.00521790654193" lon="12.667262541429409"><ele>79.0</ele><time>2026-04-27T07:40:13Z</time></trkpt><trkpt lat="46.00533526909401" lon="12.667326115565642"><ele>79.0</ele><time>2026-04-27T07:40:14Z</time></trkpt><trkpt lat="46.00545875406581" lon="12.667411178546663"><ele>79.0</ele><time>2026-04-27T07:40:15Z</time></trkpt><trkpt lat="46.00558747567424" lon="12.667486292251922"><ele>79.0</ele><time>2026-04-27T07:40:16Z</time></trkpt><trkpt lat="46.00573695997218" lon="12.667567478654131"><ele>79.0</ele><time>2026-04-27T07:40:17Z</time></trkpt><trkpt lat="46.00587494267659" lon="12.667668307676768"><ele>79.5</ele><time>2026-04-27T07:40:18Z</time></trkpt><trkpt lat="46.006005378515006" lon="12.66775125234973"><ele>80.0</ele><time>2026-04-27T07:40:19Z</time></trkpt><trkpt lat="46.00613040422409" lon="12.667818436530466"><ele>80.5</ele><time>2026-04-27T07:40:20Z</time></trkpt><trkpt lat="46.00625910603766" lon="12.66787992071093"><ele>81.0</ele><time>2026-04-27T07:40:21Z</time></trkpt><trkpt lat="46.006393816229334" lon="12.667932267136203"><ele>81.0</ele><time>2026-04-27T07:40:22Z</time></trkpt><trkpt lat="46.006518848906644" lon="12.667986558706183"><ele>81.0</ele><time>2026-04-27T07:40:23Z</time></trkpt><trkpt lat="46.00662643273118" lon="12.668027935372617"><ele>81.0</ele><time>2026-04-27T07:40:24Z</time></trkpt><trkpt lat="46.006712357138994" lon="12.66807955176466"><ele>81.0</ele><time>2026-04-27T07:40:25Z</time></trkpt><trkpt lat="46.00678322889028" lon="12.668106544804289"><ele>81.0</ele><time>2026-04-27T07:40:26Z</time></trkpt><trkpt lat="46.0068634735015" lon="12.667990299525313"><ele>81.0</ele><time>2026-04-27T07:40:27Z</time></trkpt><trkpt lat="46.00694757448165" lon="12.667929746520901"><ele>81.0</ele><time>2026-04-27T07:40:28Z</time></trkpt><trkpt lat="46.0070826316034" lon="12.667833159803168"><ele>81.0</ele><time>2026-04-27T07:40:29Z</time></trkpt><trkpt lat="46.00726395056537" lon="12.667725553497487"><ele>81.0</ele><time>2026-04-27T07:40:30Z</time></trkpt><trkpt lat="46.00744426957772" lon="12.667610986748361"><ele>81.0</ele><time>2026-04-27T07:40:31Z</time></trkpt><trkpt lat="46.00760592572984" lon="12.667519343114495"><ele>81.0</ele><time>2026-04-27T07:40:32Z</time></trkpt><trkpt lat="46.007745956707815" lon="12.667434952916636"><ele>81.0</ele><time>2026-04-27T07:40:33Z</time></trkpt><trkpt lat="46.007885800203454" lon="12.667389391424456"><ele>81.0</ele><time>2026-04-27T07:40:34Z</time></trkpt><trkpt lat="46.00805258714602" lon="12.667339531255417"><ele>81.0</ele><time>2026-04-27T07:40:35Z</time></trkpt><trkpt lat="46.008221989245925" lon="12.667268384976019"><ele>81.0</ele><time>2026-04-27T07:40:36Z</time></trkpt><trkpt lat="46.008357882396375" lon="12.667194222277308"><ele>81.5</ele><time>2026-04-27T07:40:37Z</time></trkpt><trkpt lat="46.00846644155926" lon="12.667127428424312"><ele>82.0</ele><time>2026-04-27T07:40:38Z</time></trkpt><trkpt lat="46.00855990798762" lon="12.667065416010429"><ele>82.5</ele><time>2026-04-27T07:40:39Z</time></trkpt><trkpt lat="46.00866339218888" lon="12.666992166490743"><ele>83.0</ele><time>2026-04-27T07:40:40Z</time></trkpt><trkpt lat="46.00877351035159" lon="12.66690592082978"><ele>83.0</ele><time>2026-04-27T07:40:41Z</time></trkpt><trkpt lat="46.00887970319776" lon="12.666810893083866"><ele>83.0</ele><time>2026-04-27T07:40:42Z</time></trkpt><trkpt lat="46.00900351005809" lon="12.666674388336375"><ele>83.0</ele><time>2026-04-27T07:40:43Z</time></trkpt><trkpt lat="46.009136433236364" lon="12.66654402819313"><ele>83.0</ele><time>2026-04-27T07:40:44Z</time></trkpt><trkpt lat="46.009254832350706" lon="12.66644708304375"><ele>83.25</ele><time>2026-04-27T07:40:45Z</time></trkpt><trkpt lat="46.00936972564706" lon="12.666370622407282"><ele>83.5</ele><time>2026-04-27T07:40:46Z</time></trkpt><trkpt lat="46.009482161353986" lon="12.666290869497566"><ele>83.75</ele><time>2026-04-27T07:40:47Z</time></trkpt><trkpt lat="46.009597017450254" lon="12.666204681811326"><ele>84.0</ele><time>2026-04-27T07:40:48Z</time></trkpt><trkpt lat="46.00972793568112" lon="12.666093648772478"><ele>84.0</ele><time>2026-04-27T07:40:49Z</time></trkpt><trkpt lat="46.00986226048815" lon="12.665985555629755"><ele>84.0</ele><time>2026-04-27T07:40:50Z</time></trkpt><trkpt lat="46.009990440222495" lon="12.665877804670428"><ele>84.0</ele><time>2026-04-27T07:40:51Z</time></trkpt><trkpt lat="46.01010766846163" lon="12.665791761311299"><ele>84.0</ele><time>2026-04-27T07:40:52Z</time></trkpt><trkpt lat="46.01021504147536" lon="12.665690915777095"><ele>84.0</ele><time>2026-04-27T07:40:53Z</time></trkpt><trkpt lat="46.01033956665254" lon="12.665604289739466"><ele>84.0</ele><time>2026-04-27T07:40:54Z</time></trkpt><trkpt lat="46.010480682200985" lon="12.66551264177873"><ele>84.0</ele><time>2026-04-27T07:40:55Z</time></trkpt><trkpt lat="46.010604008813615" lon="12.665425151815516"><ele>84.0</ele><time>2026-04-27T07:40:56Z</time></trkpt><trkpt lat="46.01070771864473" lon="12.66535132625928"><ele>84.0</ele><time>2026-04-27T07:40:57Z</time></trkpt><trkpt lat="46.010785943226004" lon="12.665289985984906"><ele>84.0</ele><time>2026-04-27T07:40:58Z</time></trkpt><trkpt lat="46.01087883191297" lon="12.66522241436349"><ele>84.0</ele><time>2026-04-27T07:41:00Z</time></trkpt><trkpt lat="46.01098043984749" lon="12.665424136697851"><ele>84.0</ele><time>2026-04-27T07:41:06.999Z</time></trkpt><trkpt lat="46.01104066899455" lon="12.66563468713546"><ele>85.33333333333333</ele><time>2026-04-27T07:41:07.999Z</time></trkpt><trkpt lat="46.01111213464881" lon="12.665838194163767"><ele>86.66666666666666</ele><time>2026-04-27T07:41:08.999Z</time></trkpt><trkpt lat="46.01118896070272" lon="12.666057976689302"><ele>88.0</ele><time>2026-04-27T07:41:09.999Z</time></trkpt><trkpt lat="46.01128168738438" lon="12.666322636502883"><ele>88.0</ele><time>2026-04-27T07:41:10.999Z</time></trkpt><trkpt lat="46.01137347269218" lon="12.666588204944635"><ele>88.0</ele><time>2026-04-27T07:41:11.999Z</time></trkpt><trkpt lat="46.0114475150631" lon="12.66681154108796"><ele>88.0</ele><time>2026-04-27T07:41:12.999Z</time></trkpt><trkpt lat="46.011516025743475" lon="12.667016082772424"><ele>87.80000000000001</ele><time>2026-04-27T07:41:13.999Z</time></trkpt><trkpt lat="46.01157284039461" lon="12.667191568473903"><ele>87.6</ele><time>2026-04-27T07:41:14.999Z</time></trkpt><trkpt lat="46.01161727061426" lon="12.667350337872294"><ele>87.4</ele><time>2026-04-27T07:41:15.999Z</time></trkpt><trkpt lat="46.01165204625883" lon="12.66746482913841"><ele>87.19999999999999</ele><time>2026-04-27T07:41:16.999Z</time></trkpt><trkpt lat="46.011670332189375" lon="12.667587799381808"><ele>87.0</ele><time>2026-04-27T07:41:18.999Z</time></trkpt><trkpt lat="46.0117510988122" lon="12.667609939637327"><ele>87.19999999999999</ele><time>2026-04-27T07:41:20.999Z</time></trkpt><trkpt lat="46.01167856907788" lon="12.667628818382465"><ele>87.4</ele><time>2026-04-27T07:41:21.999Z</time></trkpt><trkpt lat="46.01167143431809" lon="12.667730275052751"><ele>87.6</ele><time>2026-04-27T07:41:37.999Z</time></trkpt><trkpt lat="46.011664142590575" lon="12.667852326073433"><ele>87.80000000000001</ele><time>2026-04-27T07:41:38.999Z</time></trkpt><trkpt lat="46.011668867610666" lon="12.668031725715071"><ele>88.0</ele><time>2026-04-27T07:41:39.999Z</time></trkpt><trkpt lat="46.01168327229973" lon="12.668220596732345"><ele>88.0</ele><time>2026-04-27T07:41:41Z</time></trkpt><trkpt lat="46.011693560726755" lon="12.668421428872861"><ele>88.0</ele><time>2026-04-27T07:41:42Z</time></trkpt><trkpt lat="46.0117000110112" lon="12.668638667117532"><ele>88.0</ele><time>2026-04-27T07:41:43Z</time></trkpt><trkpt lat="46.011705186459544" lon="12.66885289372927"><ele>88.0</ele><time>2026-04-27T07:41:44Z</time></trkpt><trkpt lat="46.01171232857935" lon="12.669085801484332"><ele>87.66666666666666</ele><time>2026-04-27T07:41:45Z</time></trkpt><trkpt lat="46.01171958256289" lon="12.669328453483747"><ele>87.33333333333333</ele><time>2026-04-27T07:41:46Z</time></trkpt><trkpt lat="46.01172660839344" lon="12.66956118147539"><ele>87.0</ele><time>2026-04-27T07:41:47Z</time></trkpt><trkpt lat="46.01173353632893" lon="12.669775446985216"><ele>87.0</ele><time>2026-04-27T07:41:48Z</time></trkpt><trkpt lat="46.01174377093026" lon="12.669969594493736"><ele>87.0</ele><time>2026-04-27T07:41:49Z</time></trkpt><trkpt lat="46.01176029853658" lon="12.670149812730317"><ele>87.0</ele><time>2026-04-27T07:41:50Z</time></trkpt><trkpt lat="46.01178690172171" lon="12.670317711773928"><ele>87.0</ele><time>2026-04-27T07:41:51Z</time></trkpt><trkpt lat="46.0118254812275" lon="12.670479132243997"><ele>86.75</ele><time>2026-04-27T07:41:52Z</time></trkpt><trkpt lat="46.011879495570916" lon="12.670641774515254"><ele>86.5</ele><time>2026-04-27T07:41:53Z</time></trkpt><trkpt lat="46.01194946794394" lon="12.67079983232941"><ele>86.25</ele><time>2026-04-27T07:41:54Z</time></trkpt><trkpt lat="46.012035745111504" lon="12.670943193775349"><ele>86.0</ele><time>2026-04-27T07:41:55Z</time></trkpt><trkpt lat="46.01213619223142" lon="12.671064686888723"><ele>86.0</ele><time>2026-04-27T07:41:56Z</time></trkpt><trkpt lat="46.0122414583294" lon="12.671171625725393"><ele>86.0</ele><time>2026-04-27T07:41:57Z</time></trkpt><trkpt lat="46.01235185114595" lon="12.671276029886426"><ele>86.0</ele><time>2026-04-27T07:41:58Z</time></trkpt><trkpt lat="46.01246088728177" lon="12.67137792421726"><ele>86.0</ele><time>2026-04-27T07:41:59Z</time></trkpt><trkpt lat="46.012564151099205" lon="12.671466804428745"><ele>86.5</ele><time>2026-04-27T07:42:00Z</time></trkpt><trkpt lat="46.01266509426866" lon="12.671560546892348"><ele>87.0</ele><time>2026-04-27T07:42:01Z</time></trkpt><trkpt lat="46.01277114165315" lon="12.671665623406911"><ele>87.5</ele><time>2026-04-27T07:42:02Z</time></trkpt><trkpt lat="46.01287854225757" lon="12.671770564868446"><ele>88.0</ele><time>2026-04-27T07:42:03Z</time></trkpt><trkpt lat="46.012974059786515" lon="12.671863242436894"><ele>88.0</ele><time>2026-04-27T07:42:04Z</time></trkpt><trkpt lat="46.01306099487306" lon="12.671947711295266"><ele>88.0</ele><time>2026-04-27T07:42:05Z</time></trkpt><trkpt lat="46.01313108419521" lon="12.672012537676709"><ele>88.0</ele><time>2026-04-27T07:42:06Z</time></trkpt><trkpt lat="46.013193304345464" lon="12.67206750278484"><ele>88.0</ele><time>2026-04-27T07:42:07Z</time></trkpt><trkpt lat="46.01327920044188" lon="12.67215981095888"><ele>88.0</ele><time>2026-04-27T07:42:09Z</time></trkpt><trkpt lat="46.01338495171119" lon="12.672054793561353"><ele>88.0</ele><time>2026-04-27T07:42:10Z</time></trkpt><trkpt lat="46.013503273777495" lon="12.672003339749986"><ele>88.0</ele><time>2026-04-27T07:42:11Z</time></trkpt><trkpt lat="46.01361234165877" lon="12.671921180085867"><ele>88.0</ele><time>2026-04-27T07:42:12Z</time></trkpt><trkpt lat="46.01375010334562" lon="12.671831988402529"><ele>88.0</ele><time>2026-04-27T07:42:13Z</time></trkpt><trkpt lat="46.01392277974714" lon="12.671733436831282"><ele>88.0</ele><time>2026-04-27T07:42:14Z</time></trkpt><trkpt lat="46.01408728002293" lon="12.671638265685612"><ele>88.0</ele><time>2026-04-27T07:42:15Z</time></trkpt><trkpt lat="46.014238796023974" lon="12.671550881951973"><ele>88.0</ele><time>2026-04-27T07:42:16Z</time></trkpt><trkpt lat="46.01439671792513" lon="12.671462361666373"><ele>88.0</ele><time>2026-04-27T07:42:17Z</time></trkpt><trkpt lat="46.01455938293546" lon="12.671376786539795"><ele>88.0</ele><time>2026-04-27T07:42:18Z</time></trkpt><trkpt lat="46.014729932992644" lon="12.67128560498194"><ele>88.0</ele><time>2026-04-27T07:42:19Z</time></trkpt><trkpt lat="46.014895540209956" lon="12.671188469697093"><ele>88.66666666666666</ele><time>2026-04-27T07:42:20Z</time></trkpt><trkpt lat="46.015062034084465" lon="12.671088552626543"><ele>89.33333333333333</ele><time>2026-04-27T07:42:21Z</time></trkpt><trkpt lat="46.015239808884836" lon="12.671010624881257"><ele>90.0</ele><time>2026-04-27T07:42:22Z</time></trkpt><trkpt lat="46.01540069679555" lon="12.670918228219232"><ele>90.0</ele><time>2026-04-27T07:42:23Z</time></trkpt><trkpt lat="46.01554769924368" lon="12.670806852402599"><ele>90.0</ele><time>2026-04-27T07:42:24Z</time></trkpt><trkpt lat="46.01568659644646" lon="12.67074563321861"><ele>90.0</ele><time>2026-04-27T07:42:25Z</time></trkpt><trkpt lat="46.015807880001745" lon="12.670668794222603"><ele>90.0</ele><time>2026-04-27T07:42:26Z</time></trkpt><trkpt lat="46.01590975646013" lon="12.67058085866395"><ele>90.6</ele><time>2026-04-27T07:42:27Z</time></trkpt><trkpt lat="46.016002633993246" lon="12.670546895524165"><ele>91.2</ele><time>2026-04-27T07:42:28Z</time></trkpt><trkpt lat="46.0160740469078" lon="12.670531473985166"><ele>91.80000000000001</ele><time>2026-04-27T07:42:29Z</time></trkpt><trkpt lat="46.01617040935611" lon="12.670636499532172"><ele>92.4</ele><time>2026-04-27T07:42:31Z</time></trkpt><trkpt lat="46.016185920381005" lon="12.670764711889372"><ele>93.0</ele><time>2026-04-27T07:42:32Z</time></trkpt><trkpt lat="46.01623661555538" lon="12.670921258141377"><ele>93.0</ele><time>2026-04-27T07:42:33Z</time></trkpt><trkpt lat="46.0162914939155" lon="12.671019842198264"><ele>93.0</ele><time>2026-04-27T07:42:34Z</time></trkpt><trkpt lat="46.01636711975989" lon="12.671041672783824"><ele>93.0</ele><time>2026-04-27T07:42:35Z</time></trkpt><trkpt lat="46.016449411211546" lon="12.671037672208024"><ele>93.0</ele><time>2026-04-27T07:42:36Z</time></trkpt><trkpt lat="46.01656643097356" lon="12.671002110883624"><ele>93.0</ele><time>2026-04-27T07:42:37Z</time></trkpt><trkpt lat="46.0167305202681" lon="12.670997420102518"><ele>93.66666666666667</ele><time>2026-04-27T07:42:38Z</time></trkpt><trkpt lat="46.01691615218749" lon="12.670973609241434"><ele>94.33333333333334</ele><time>2026-04-27T07:42:39Z</time></trkpt><trkpt lat="46.017073742806346" lon="12.670956530205844"><ele>95.0</ele><time>2026-04-27T07:42:40Z</time></trkpt><trkpt lat="46.01720042946884" lon="12.670923272281195"><ele>95.0</ele><time>2026-04-27T07:42:41Z</time></trkpt><trkpt lat="46.0173151161022" lon="12.670909499014456"><ele>95.0</ele><time>2026-04-27T07:42:42Z</time></trkpt><trkpt lat="46.01742424828233" lon="12.670897846412899"><ele>95.0</ele><time>2026-04-27T07:42:43Z</time></trkpt><trkpt lat="46.01752868537548" lon="12.670897467777733"><ele>95.0</ele><time>2026-04-27T07:42:44Z</time></trkpt><trkpt lat="46.01761001489099" lon="12.670893564922533"><ele>95.0</ele><time>2026-04-27T07:42:45Z</time></trkpt><trkpt lat="46.01767451202971" lon="12.670915868556621"><ele>95.2</ele><time>2026-04-27T07:42:46Z</time></trkpt><trkpt lat="46.01775057327423" lon="12.671030414977093"><ele>95.4</ele><time>2026-04-27T07:42:49Z</time></trkpt><trkpt lat="46.01779095289726" lon="12.671117531838972"><ele>95.6</ele><time>2026-04-27T07:42:50Z</time></trkpt><trkpt lat="46.017839964321084" lon="12.67120908896915"><ele>95.8</ele><time>2026-04-27T07:42:51Z</time></trkpt><trkpt lat="46.01788224188582" lon="12.671326840614205"><ele>96.0</ele><time>2026-04-27T07:42:52Z</time></trkpt><trkpt lat="46.01793157319499" lon="12.671449092059092"><ele>96.0</ele><time>2026-04-27T07:42:53Z</time></trkpt><trkpt lat="46.01798824312205" lon="12.67157371273028"><ele>96.0</ele><time>2026-04-27T07:42:54Z</time></trkpt><trkpt lat="46.018042961345664" lon="12.671698158793843"><ele>96.0</ele><time>2026-04-27T07:42:55Z</time></trkpt><trkpt lat="46.018091823399224" lon="12.67182007633649"><ele>96.0</ele><time>2026-04-27T07:42:56Z</time></trkpt><trkpt lat="46.01814138611131" lon="12.671953457817935"><ele>96.0</ele><time>2026-04-27T07:42:57Z</time></trkpt><trkpt lat="46.01818344397985" lon="12.672098154716908"><ele>96.25</ele><time>2026-04-27T07:42:58Z</time></trkpt><trkpt lat="46.01822579250576" lon="12.672256583279923"><ele>96.5</ele><time>2026-04-27T07:42:59Z</time></trkpt><trkpt lat="46.01826483238767" lon="12.67241925960979"><ele>96.75</ele><time>2026-04-27T07:43:00Z</time></trkpt><trkpt lat="46.018315243397915" lon="12.672609590464011"><ele>97.0</ele><time>2026-04-27T07:43:01Z</time></trkpt><trkpt lat="46.018359891794255" lon="12.672782537378719"><ele>97.0</ele><time>2026-04-27T07:43:02Z</time></trkpt><trkpt lat="46.01840545668083" lon="12.672949997286606"><ele>97.0</ele><time>2026-04-27T07:43:03Z</time></trkpt><trkpt lat="46.01844913020941" lon="12.673129791305714"><ele>97.0</ele><time>2026-04-27T07:43:04Z</time></trkpt><trkpt lat="46.01850259101554" lon="12.67332229498432"><ele>97.0</ele><time>2026-04-27T07:43:05Z</time></trkpt><trkpt lat="46.01855861816687" lon="12.673551703394116"><ele>96.75</ele><time>2026-04-27T07:43:06Z</time></trkpt><trkpt lat="46.018605218314406" lon="12.6737511785816"><ele>96.5</ele><time>2026-04-27T07:43:07Z</time></trkpt><trkpt lat="46.01864461136394" lon="12.673929526355456"><ele>96.25</ele><time>2026-04-27T07:43:08Z</time></trkpt><trkpt lat="46.01867891679278" lon="12.674088772117287"><ele>96.0</ele><time>2026-04-27T07:43:09Z</time></trkpt><trkpt lat="46.01871306208903" lon="12.674220050630689"><ele>96.0</ele><time>2026-04-27T07:43:10Z</time></trkpt><trkpt lat="46.01872861941155" lon="12.674324651078066"><ele>96.0</ele><time>2026-04-27T07:43:11Z</time></trkpt><trkpt lat="46.01882655935599" lon="12.674392599478082"><ele>96.0</ele><time>2026-04-27T07:43:12.998Z</time></trkpt><trkpt lat="46.01890443710883" lon="12.674365351853632"><ele>96.0</ele><time>2026-04-27T07:43:13.998Z</time></trkpt><trkpt lat="46.01899204786933" lon="12.674330200509475"><ele>96.0</ele><time>2026-04-27T07:43:14.998Z</time></trkpt><trkpt lat="46.019115145881564" lon="12.674260884348115"><ele>95.66666666666667</ele><time>2026-04-27T07:43:15.998Z</time></trkpt><trkpt lat="46.01927819749982" lon="12.674181708583129"><ele>95.33333333333334</ele><time>2026-04-27T07:43:16.998Z</time></trkpt><trkpt lat="46.01945259298944" lon="12.67411575305453"><ele>95.0</ele><time>2026-04-27T07:43:17.998Z</time></trkpt><trkpt lat="46.01963511677727" lon="12.674079775478848"><ele>95.0</ele><time>2026-04-27T07:43:18.998Z</time></trkpt><trkpt lat="46.01982611920989" lon="12.674006788703208"><ele>95.0</ele><time>2026-04-27T07:43:19.998Z</time></trkpt><trkpt lat="46.0200212727447" lon="12.67389392877754"><ele>95.0</ele><time>2026-04-27T07:43:20.998Z</time></trkpt><trkpt lat="46.020208761399665" lon="12.673811042895181"><ele>96.0</ele><time>2026-04-27T07:43:21.998Z</time></trkpt><trkpt lat="46.02039211121011" lon="12.673757858932534"><ele>97.0</ele><time>2026-04-27T07:43:22.998Z</time></trkpt><trkpt lat="46.02055704087316" lon="12.673664281584417"><ele>98.0</ele><time>2026-04-27T07:43:23.998Z</time></trkpt><trkpt lat="46.02072138636845" lon="12.673592079350179"><ele>98.5</ele><time>2026-04-27T07:43:24.998Z</time></trkpt><trkpt lat="46.0208782896452" lon="12.673522344967692"><ele>99.0</ele><time>2026-04-27T07:43:25.998Z</time></trkpt><trkpt lat="46.021020521335274" lon="12.673468046867296"><ele>99.5</ele><time>2026-04-27T07:43:26.998Z</time></trkpt><trkpt lat="46.02114872000599" lon="12.673426527961809"><ele>100.0</ele><time>2026-04-27T07:43:27.998Z</time></trkpt><trkpt lat="46.02128540060982" lon="12.673382865101296"><ele>100.0</ele><time>2026-04-27T07:43:28.998Z</time></trkpt><trkpt lat="46.021408498012796" lon="12.673357072230516"><ele>100.0</ele><time>2026-04-27T07:43:29.999Z</time></trkpt><trkpt lat="46.02153842095651" lon="12.67337081910644"><ele>100.0</ele><time>2026-04-27T07:43:30.999Z</time></trkpt><trkpt lat="46.02169427685111" lon="12.673368659024277"><ele>100.0</ele><time>2026-04-27T07:43:31.999Z</time></trkpt><trkpt lat="46.021861137399284" lon="12.673386308919804"><ele>100.0</ele><time>2026-04-27T07:43:32.999Z</time></trkpt><trkpt lat="46.02200996563553" lon="12.673406329241306"><ele>100.0</ele><time>2026-04-27T07:43:33.999Z</time></trkpt><trkpt lat="46.022137094211075" lon="12.673420282261567"><ele>100.0</ele><time>2026-04-27T07:43:34.999Z</time></trkpt><trkpt lat="46.022247221732414" lon="12.67342745506791"><ele>100.0</ele><time>2026-04-27T07:43:35.999Z</time></trkpt><trkpt lat="46.02235554887044" lon="12.673415553829013"><ele>100.0</ele><time>2026-04-27T07:43:36.999Z</time></trkpt><trkpt lat="46.02245552116811" lon="12.673398007931679"><ele>100.0</ele><time>2026-04-27T07:43:37.999Z</time></trkpt><trkpt lat="46.022535838732466" lon="12.673379673594516"><ele>100.0</ele><time>2026-04-27T07:43:38.999Z</time></trkpt><trkpt lat="46.02262042177982" lon="12.673358998630992"><ele>100.0</ele><time>2026-04-27T07:43:40.999Z</time></trkpt><trkpt lat="46.0225289680309" lon="12.673359200878"><ele>100.0</ele><time>2026-04-27T07:43:47.999Z</time></trkpt><trkpt lat="46.02244047343234" lon="12.673397862040186"><ele>100.0</ele><time>2026-04-27T07:43:48.999Z</time></trkpt><trkpt lat="46.02233896608022" lon="12.67342163188121"><ele>100.0</ele><time>2026-04-27T07:43:49.999Z</time></trkpt><trkpt lat="46.02221119747734" lon="12.673425514014047"><ele>100.0</ele><time>2026-04-27T07:43:50.999Z</time></trkpt><trkpt lat="46.022061272862594" lon="12.673416556214724"><ele>100.0</ele><time>2026-04-27T07:43:51.999Z</time></trkpt><trkpt lat="46.02191622477149" lon="12.67335319387246"><ele>100.0</ele><time>2026-04-27T07:43:52.999Z</time></trkpt><trkpt lat="46.02178769518767" lon="12.673338859516193"><ele>100.0</ele><time>2026-04-27T07:43:53.999Z</time></trkpt><trkpt lat="46.02166076148962" lon="12.67334747508122"><ele>100.0</ele><time>2026-04-27T07:43:54.999Z</time></trkpt><trkpt lat="46.02150919283347" lon="12.67333471889116"><ele>100.0</ele><time>2026-04-27T07:43:55.999Z</time></trkpt><trkpt lat="46.0213437784304" lon="12.6733391846679"><ele>100.0</ele><time>2026-04-27T07:43:56.999Z</time></trkpt><trkpt lat="46.02120734996495" lon="12.673366440921424"><ele>100.0</ele><time>2026-04-27T07:43:57.999Z</time></trkpt><trkpt lat="46.02106087114023" lon="12.67342330046012"><ele>100.0</ele><time>2026-04-27T07:43:58.999Z</time></trkpt><trkpt lat="46.0208948374387" lon="12.673505133482465"><ele>100.0</ele><time>2026-04-27T07:43:59.999Z</time></trkpt><trkpt lat="46.020690378477035" lon="12.673601618479823"><ele>100.0</ele><time>2026-04-27T07:44:00.999Z</time></trkpt><trkpt lat="46.02047738632461" lon="12.673691466111062"><ele>100.0</ele><time>2026-04-27T07:44:01.999Z</time></trkpt><trkpt lat="46.02029966625384" lon="12.673766805460675"><ele>99.33333333333334</ele><time>2026-04-27T07:44:02.999Z</time></trkpt><trkpt lat="46.020129619721054" lon="12.673839321516457"><ele>98.66666666666666</ele><time>2026-04-27T07:44:03.999Z</time></trkpt><trkpt lat="46.01995338129521" lon="12.67391098758117"><ele>98.0</ele><time>2026-04-27T07:44:04.999Z</time></trkpt><trkpt lat="46.019769998551475" lon="12.673989505448638"><ele>97.0</ele><time>2026-04-27T07:44:05.999Z</time></trkpt><trkpt lat="46.01959395694564" lon="12.674062265998058"><ele>96.0</ele><time>2026-04-27T07:44:06.999Z</time></trkpt><trkpt lat="46.01943506350145" lon="12.674095908680885"><ele>95.0</ele><time>2026-04-27T07:44:07.999Z</time></trkpt><trkpt lat="46.019287580897796" lon="12.674146705937142"><ele>95.0</ele><time>2026-04-27T07:44:08.999Z</time></trkpt><trkpt lat="46.019155705387604" lon="12.674220286581454"><ele>95.0</ele><time>2026-04-27T07:44:09.999Z</time></trkpt><trkpt lat="46.01903491988888" lon="12.674267215774455"><ele>95.0</ele><time>2026-04-27T07:44:10.999Z</time></trkpt><trkpt lat="46.0189304274811" lon="12.674286947220345"><ele>95.0</ele><time>2026-04-27T07:44:11.999Z</time></trkpt><trkpt lat="46.01885597122687" lon="12.674319036744015"><ele>95.2</ele><time>2026-04-27T07:44:13Z</time></trkpt><trkpt lat="46.01876729571432" lon="12.674324266343865"><ele>95.4</ele><time>2026-04-27T07:44:15Z</time></trkpt><trkpt lat="46.01872331613199" lon="12.674391764261873"><ele>95.6</ele><time>2026-04-27T07:44:17Z</time></trkpt><trkpt lat="46.01876658745069" lon="12.674621594586705"><ele>95.8</ele><time>2026-04-27T07:44:18Z</time></trkpt><trkpt lat="46.01880885667427" lon="12.67478146034523"><ele>96.0</ele><time>2026-04-27T07:44:19Z</time></trkpt><trkpt lat="46.01885007546233" lon="12.674970901608814"><ele>95.75</ele><time>2026-04-27T07:44:20Z</time></trkpt><trkpt lat="46.01888526760931" lon="12.675133452075473"><ele>95.5</ele><time>2026-04-27T07:44:21Z</time></trkpt><trkpt lat="46.01891873230508" lon="12.675267601387228"><ele>95.25</ele><time>2026-04-27T07:44:22Z</time></trkpt><trkpt lat="46.01896072477129" lon="12.675430392810295"><ele>95.0</ele><time>2026-04-27T07:44:23Z</time></trkpt><trkpt lat="46.01900506338578" lon="12.67561610954592"><ele>95.0</ele><time>2026-04-27T07:44:24Z</time></trkpt><trkpt lat="46.01904358919285" lon="12.675773863901531"><ele>95.0</ele><time>2026-04-27T07:44:25Z</time></trkpt><trkpt lat="46.01906699879635" lon="12.675919519450494"><ele>95.0</ele><time>2026-04-27T07:44:26Z</time></trkpt><trkpt lat="46.0190808844814" lon="12.676045917339614"><ele>95.0</ele><time>2026-04-27T07:44:27Z</time></trkpt><trkpt lat="46.01909840493544" lon="12.676161888799593"><ele>95.0</ele><time>2026-04-27T07:44:28Z</time></trkpt><trkpt lat="46.01913603400637" lon="12.676262068178437"><ele>95.25</ele><time>2026-04-27T07:44:29Z</time></trkpt><trkpt lat="46.01919183768388" lon="12.676334412145955"><ele>95.5</ele><time>2026-04-27T07:44:30Z</time></trkpt><trkpt lat="46.019290267703475" lon="12.676423165009297"><ele>95.75</ele><time>2026-04-27T07:44:31Z</time></trkpt><trkpt lat="46.01940965510256" lon="12.676534279141267"><ele>96.0</ele><time>2026-04-27T07:44:32Z</time></trkpt><trkpt lat="46.019533167717555" lon="12.676662284328971"><ele>96.0</ele><time>2026-04-27T07:44:33Z</time></trkpt><trkpt lat="46.019656223209644" lon="12.676798592043301"><ele>96.0</ele><time>2026-04-27T07:44:34Z</time></trkpt><trkpt lat="46.01976916492005" lon="12.67692427865726"><ele>96.0</ele><time>2026-04-27T07:44:35Z</time></trkpt><trkpt lat="46.01986953909161" lon="12.67703719767243"><ele>96.0</ele><time>2026-04-27T07:44:36Z</time></trkpt><trkpt lat="46.019960480285924" lon="12.677145348333585"><ele>95.75</ele><time>2026-04-27T07:44:37Z</time></trkpt><trkpt lat="46.02004803584339" lon="12.67726327883212"><ele>95.5</ele><time>2026-04-27T07:44:38Z</time></trkpt><trkpt lat="46.02015517624732" lon="12.677392552358556"><ele>95.25</ele><time>2026-04-27T07:44:39Z</time></trkpt><trkpt lat="46.02026338371056" lon="12.677523993362911"><ele>95.0</ele><time>2026-04-27T07:44:40Z</time></trkpt><trkpt lat="46.02037503168135" lon="12.677655133375564"><ele>94.33333333333334</ele><time>2026-04-27T07:44:41Z</time></trkpt><trkpt lat="46.02049460298423" lon="12.67779407265404"><ele>93.66666666666667</ele><time>2026-04-27T07:44:42Z</time></trkpt><trkpt lat="46.02061150259357" lon="12.677932572009132"><ele>93.0</ele><time>2026-04-27T07:44:43Z</time></trkpt><trkpt lat="46.02072558522687" lon="12.678066126562637"><ele>94.0</ele><time>2026-04-27T07:44:44Z</time></trkpt><trkpt lat="46.02083841592899" lon="12.678187091604105"><ele>95.0</ele><time>2026-04-27T07:44:45Z</time></trkpt><trkpt lat="46.02096744557179" lon="12.678288051774926"><ele>96.0</ele><time>2026-04-27T07:44:46Z</time></trkpt><trkpt lat="46.02112479087973" lon="12.678393018399632"><ele>96.0</ele><time>2026-04-27T07:44:47Z</time></trkpt><trkpt lat="46.02129950227187" lon="12.678504515428234"><ele>96.0</ele><time>2026-04-27T07:44:48Z</time></trkpt><trkpt lat="46.0214387911996" lon="12.678597974364472"><ele>96.0</ele><time>2026-04-27T07:44:49Z</time></trkpt><trkpt lat="46.0215633548386" lon="12.678687286250396"><ele>96.6</ele><time>2026-04-27T07:44:50Z</time></trkpt><trkpt lat="46.02167639625773" lon="12.67876085334963"><ele>97.19999999999999</ele><time>2026-04-27T07:44:51Z</time></trkpt><trkpt lat="46.02177649445586" lon="12.678823578281428"><ele>97.80000000000001</ele><time>2026-04-27T07:44:52Z</time></trkpt><trkpt lat="46.02187080707181" lon="12.678887071663276"><ele>98.4</ele><time>2026-04-27T07:44:53Z</time></trkpt><trkpt lat="46.021954468558214" lon="12.67894567072156"><ele>99.0</ele><time>2026-04-27T07:44:54Z</time></trkpt><trkpt lat="46.02202977489763" lon="12.678999195743973"><ele>99.0</ele><time>2026-04-27T07:44:55Z</time></trkpt><trkpt lat="46.022093400714056" lon="12.679045307837317"><ele>99.0</ele><time>2026-04-27T07:44:56Z</time></trkpt><trkpt lat="46.022131506808854" lon="12.679143641967237"><ele>99.0</ele><time>2026-04-27T07:44:57Z</time></trkpt><trkpt lat="46.022071826919806" lon="12.679225558053586"><ele>99.0</ele><time>2026-04-27T07:45:02Z</time></trkpt><trkpt lat="46.02197803197324" lon="12.679220564435488"><ele>99.0</ele><time>2026-04-27T07:45:03Z</time></trkpt><trkpt lat="46.021858601722954" lon="12.679223665730268"><ele>99.0</ele><time>2026-04-27T07:45:04Z</time></trkpt><trkpt lat="46.021715968238" lon="12.679261815359807"><ele>98.33333333333334</ele><time>2026-04-27T07:45:05Z</time></trkpt><trkpt lat="46.021540612428986" lon="12.679310866495094"><ele>97.66666666666667</ele><time>2026-04-27T07:45:06Z</time></trkpt><trkpt lat="46.021350609782125" lon="12.679352243317734"><ele>97.0</ele><time>2026-04-27T07:45:07Z</time></trkpt><trkpt lat="46.021183125306685" lon="12.679393184356528"><ele>97.0</ele><time>2026-04-27T07:45:08Z</time></trkpt><trkpt lat="46.02103894457851" lon="12.67942132696226"><ele>97.0</ele><time>2026-04-27T07:45:09Z</time></trkpt><trkpt lat="46.02091072476646" lon="12.679469956827903"><ele>97.0</ele><time>2026-04-27T07:45:10Z</time></trkpt><trkpt lat="46.020789937406356" lon="12.679497988075363"><ele>97.0</ele><time>2026-04-27T07:45:11Z</time></trkpt><trkpt lat="46.0206786321046" lon="12.679507303646586"><ele>96.0</ele><time>2026-04-27T07:45:12Z</time></trkpt><trkpt lat="46.02057538123119" lon="12.679528206913302"><ele>95.0</ele><time>2026-04-27T07:45:13Z</time></trkpt><trkpt lat="46.02047553462901" lon="12.679544891971075"><ele>94.0</ele><time>2026-04-27T07:45:14Z</time></trkpt><trkpt lat="46.02036047287617" lon="12.679551670840654"><ele>93.0</ele><time>2026-04-27T07:45:15Z</time></trkpt><trkpt lat="46.020219999183496" lon="12.67944188154759"><ele>93.0</ele><time>2026-04-27T07:45:16Z</time></trkpt><trkpt lat="46.02009695245743" lon="12.679424291920247"><ele>93.0</ele><time>2026-04-27T07:45:17Z</time></trkpt><trkpt lat="46.01996214410725" lon="12.679421568299793"><ele>93.0</ele><time>2026-04-27T07:45:18Z</time></trkpt><trkpt lat="46.01981473891243" lon="12.679433670214324"><ele>93.0</ele><time>2026-04-27T07:45:18.998Z</time></trkpt><trkpt lat="46.01967603145367" lon="12.679469441661663"><ele>92.80000000000001</ele><time>2026-04-27T07:45:19.998Z</time></trkpt><trkpt lat="46.01955493021147" lon="12.679522009211306"><ele>92.6</ele><time>2026-04-27T07:45:20.998Z</time></trkpt><trkpt lat="46.01945041812026" lon="12.679580256395829"><ele>92.4</ele><time>2026-04-27T07:45:21.998Z</time></trkpt><trkpt lat="46.01936443840442" lon="12.679654256779155"><ele>92.19999999999999</ele><time>2026-04-27T07:45:22.998Z</time></trkpt><trkpt lat="46.01928367130004" lon="12.67974324284082"><ele>92.0</ele><time>2026-04-27T07:45:23.998Z</time></trkpt><trkpt lat="46.01918097737178" lon="12.679862257474136"><ele>91.66666666666667</ele><time>2026-04-27T07:45:24.998Z</time></trkpt><trkpt lat="46.019062896475894" lon="12.680006188564516"><ele>91.33333333333333</ele><time>2026-04-27T07:45:25.998Z</time></trkpt><trkpt lat="46.01891910273292" lon="12.680127539037207"><ele>91.0</ele><time>2026-04-27T07:45:26.998Z</time></trkpt><trkpt lat="46.0187792132627" lon="12.680287810654464"><ele>90.33333333333333</ele><time>2026-04-27T07:45:27.998Z</time></trkpt><trkpt lat="46.01862467673148" lon="12.680441302140023"><ele>89.66666666666667</ele><time>2026-04-27T07:45:28.998Z</time></trkpt><trkpt lat="46.018468545528705" lon="12.680596602525439"><ele>89.0</ele><time>2026-04-27T07:45:29.998Z</time></trkpt><trkpt lat="46.018299628376425" lon="12.680763641128243"><ele>89.0</ele><time>2026-04-27T07:45:30.998Z</time></trkpt><trkpt lat="46.01813183658789" lon="12.680936416441744"><ele>89.0</ele><time>2026-04-27T07:45:31.998Z</time></trkpt><trkpt lat="46.017978894870865" lon="12.681090778242007"><ele>89.0</ele><time>2026-04-27T07:45:32.999Z</time></trkpt><trkpt lat="46.017841637816254" lon="12.681237516309567"><ele>89.0</ele><time>2026-04-27T07:45:33.999Z</time></trkpt><trkpt lat="46.0177109788255" lon="12.68136388477623"><ele>89.0</ele><time>2026-04-27T07:45:34.999Z</time></trkpt><trkpt lat="46.01760089386231" lon="12.681469384438792"><ele>89.0</ele><time>2026-04-27T07:45:35.999Z</time></trkpt><trkpt lat="46.0175176510714" lon="12.68154388471319"><ele>89.0</ele><time>2026-04-27T07:45:36.999Z</time></trkpt><trkpt lat="46.01742871885583" lon="12.68161886477165"><ele>89.0</ele><time>2026-04-27T07:45:38.999Z</time></trkpt><trkpt lat="46.01736962660753" lon="12.681688766900072"><ele>89.0</ele><time>2026-04-27T07:45:42.999Z</time></trkpt><trkpt lat="46.01731459834866" lon="12.681760186647761"><ele>89.0</ele><time>2026-04-27T07:45:43.999Z</time></trkpt><trkpt lat="46.017200231008424" lon="12.68185349895506"><ele>89.0</ele><time>2026-04-27T07:45:44.999Z</time></trkpt><trkpt lat="46.01710582307747" lon="12.681944723874983"><ele>89.0</ele><time>2026-04-27T07:45:45.999Z</time></trkpt><trkpt lat="46.01700384125271" lon="12.682047746473732"><ele>88.33333333333334</ele><time>2026-04-27T07:45:46.999Z</time></trkpt><trkpt lat="46.0168719551588" lon="12.682190106508372"><ele>87.66666666666667</ele><time>2026-04-27T07:45:47.999Z</time></trkpt><trkpt lat="46.0167129925725" lon="12.682349460753038"><ele>87.0</ele><time>2026-04-27T07:45:48.999Z</time></trkpt><trkpt lat="46.016553560703024" lon="12.682504664560184"><ele>86.66666666666667</ele><time>2026-04-27T07:45:49.999Z</time></trkpt><trkpt lat="46.01641655320314" lon="12.682636543946462"><ele>86.33333333333334</ele><time>2026-04-27T07:45:50.999Z</time></trkpt><trkpt lat="46.01629166300438" lon="12.6827574433314"><ele>86.0</ele><time>2026-04-27T07:45:51.999Z</time></trkpt><trkpt lat="46.01617556208612" lon="12.68286454428701"><ele>86.0</ele><time>2026-04-27T07:45:52.999Z</time></trkpt><trkpt lat="46.01606083949447" lon="12.682967766350089"><ele>86.0</ele><time>2026-04-27T07:45:53.999Z</time></trkpt><trkpt lat="46.01594600684589" lon="12.683078753508816"><ele>86.0</ele><time>2026-04-27T07:45:54.999Z</time></trkpt><trkpt lat="46.015825341191785" lon="12.68319379420924"><ele>86.0</ele><time>2026-04-27T07:45:55.999Z</time></trkpt><trkpt lat="46.015703141791256" lon="12.68331852352801"><ele>85.75</ele><time>2026-04-27T07:45:56.999Z</time></trkpt><trkpt lat="46.01558929764212" lon="12.683424683381025"><ele>85.5</ele><time>2026-04-27T07:45:57.999Z</time></trkpt><trkpt lat="46.01548074161104" lon="12.683536908493101"><ele>85.25</ele><time>2026-04-27T07:45:58.999Z</time></trkpt><trkpt lat="46.01536956631666" lon="12.683654675873282"><ele>85.0</ele><time>2026-04-27T07:45:59.999Z</time></trkpt><trkpt lat="46.015265940613645" lon="12.683760374612456"><ele>84.75</ele><time>2026-04-27T07:46:00.999Z</time></trkpt><trkpt lat="46.015159873225514" lon="12.683818196592092"><ele>84.5</ele><time>2026-04-27T07:46:01.999Z</time></trkpt><trkpt lat="46.015069737062866" lon="12.683951632026437"><ele>84.25</ele><time>2026-04-27T07:46:02.999Z</time></trkpt><trkpt lat="46.01493619815353" lon="12.684043923704811"><ele>84.0</ele><time>2026-04-27T07:46:04Z</time></trkpt><trkpt lat="46.01482493065318" lon="12.68416345260587"><ele>83.5</ele><time>2026-04-27T07:46:05Z</time></trkpt><trkpt lat="46.01471403416256" lon="12.68424349313731"><ele>83.0</ele><time>2026-04-27T07:46:06Z</time></trkpt><trkpt lat="46.014607427212916" lon="12.68433487286497"><ele>82.5</ele><time>2026-04-27T07:46:07Z</time></trkpt><trkpt lat="46.01451457878953" lon="12.684432668613665"><ele>82.0</ele><time>2026-04-27T07:46:08Z</time></trkpt><trkpt lat="46.01441112173287" lon="12.68444885020163"><ele>82.0</ele><time>2026-04-27T07:46:09Z</time></trkpt><trkpt lat="46.014332000872365" lon="12.684515855096853"><ele>82.0</ele><time>2026-04-27T07:46:10Z</time></trkpt><trkpt lat="46.014273553213854" lon="12.684656623685864"><ele>82.0</ele><time>2026-04-27T07:46:11Z</time></trkpt><trkpt lat="46.01417835863843" lon="12.684798999821064"><ele>82.0</ele><time>2026-04-27T07:46:12Z</time></trkpt><trkpt lat="46.0140414300923" lon="12.684927016386636"><ele>82.0</ele><time>2026-04-27T07:46:13Z</time></trkpt><trkpt lat="46.013934179763474" lon="12.685081141653042"><ele>82.0</ele><time>2026-04-27T07:46:14Z</time></trkpt><trkpt lat="46.01385129673177" lon="12.685167128504428"><ele>82.0</ele><time>2026-04-27T07:46:15Z</time></trkpt><trkpt lat="46.0137752319025" lon="12.68519294425768"><ele>82.0</ele><time>2026-04-27T07:46:17Z</time></trkpt><trkpt lat="46.01373563209757" lon="12.685075440701674"><ele>82.0</ele><time>2026-04-27T07:46:19Z</time></trkpt><trkpt lat="46.013688839736396" lon="12.684899557040358"><ele>82.0</ele><time>2026-04-27T07:46:21Z</time></trkpt><trkpt lat="46.01353984371671" lon="12.684965986286027"><ele>82.0</ele><time>2026-04-27T07:46:23Z</time></trkpt><trkpt lat="46.0134924910855" lon="12.685071998798085"><ele>82.0</ele><time>2026-04-27T07:46:24Z</time></trkpt><trkpt lat="46.01338203240576" lon="12.685162395845087"><ele>82.0</ele><time>2026-04-27T07:46:25Z</time></trkpt><trkpt lat="46.01326953646996" lon="12.6852628740228"><ele>82.5</ele><time>2026-04-27T07:46:26Z</time></trkpt><trkpt lat="46.01315066400144" lon="12.685369047946542"><ele>83.0</ele><time>2026-04-27T07:46:27Z</time></trkpt><trkpt lat="46.013025018371856" lon="12.685480393140589"><ele>83.5</ele><time>2026-04-27T07:46:28Z</time></trkpt><trkpt lat="46.01290375354779" lon="12.68558114043631"><ele>84.0</ele><time>2026-04-27T07:46:29Z</time></trkpt><trkpt lat="46.01279410803635" lon="12.68568000731974"><ele>84.0</ele><time>2026-04-27T07:46:30Z</time></trkpt><trkpt lat="46.01268265380529" lon="12.68580977966802"><ele>84.0</ele><time>2026-04-27T07:46:31Z</time></trkpt><trkpt lat="46.0125580626289" lon="12.685902545786202"><ele>84.0</ele><time>2026-04-27T07:46:32Z</time></trkpt><trkpt lat="46.01245741360606" lon="12.685995254224935"><ele>84.0</ele><time>2026-04-27T07:46:33Z</time></trkpt><trkpt lat="46.012393646676244" lon="12.686088414927635"><ele>83.2</ele><time>2026-04-27T07:46:34Z</time></trkpt><trkpt lat="46.0123418468552" lon="12.686199438389641"><ele>82.4</ele><time>2026-04-27T07:46:36Z</time></trkpt><trkpt lat="46.01238506849022" lon="12.68637138223325"><ele>81.6</ele><time>2026-04-27T07:46:38Z</time></trkpt><trkpt lat="46.012417431578676" lon="12.686469261989178"><ele>80.8</ele><time>2026-04-27T07:46:39Z</time></trkpt><trkpt lat="46.012405074908884" lon="12.686608694326745"><ele>80.0</ele><time>2026-04-27T07:46:41Z</time></trkpt><trkpt lat="46.01233484286627" lon="12.686636079530832"><ele>80.0</ele><time>2026-04-27T07:46:42Z</time></trkpt><trkpt lat="46.012267920480774" lon="12.686717145310903"><ele>80.0</ele><time>2026-04-27T07:46:43Z</time></trkpt><trkpt lat="46.012184835583426" lon="12.686824251427705"><ele>80.0</ele><time>2026-04-27T07:46:44Z</time></trkpt><trkpt lat="46.01209872293253" lon="12.686951771357553"><ele>80.0</ele><time>2026-04-27T07:46:45Z</time></trkpt><trkpt lat="46.012026007415514" lon="12.687098787166423"><ele>80.0</ele><time>2026-04-27T07:46:46Z</time></trkpt><trkpt lat="46.01195515590689" lon="12.687235634922917"><ele>79.75</ele><time>2026-04-27T07:46:47Z</time></trkpt><trkpt lat="46.011861392876504" lon="12.687324510523109"><ele>79.5</ele><time>2026-04-27T07:46:48Z</time></trkpt><trkpt lat="46.01178002385631" lon="12.687449256990643"><ele>79.25</ele><time>2026-04-27T07:46:49Z</time></trkpt><trkpt lat="46.011668039924125" lon="12.687539507012742"><ele>79.0</ele><time>2026-04-27T07:46:50Z</time></trkpt><trkpt lat="46.01157878403813" lon="12.687657832030634"><ele>78.75</ele><time>2026-04-27T07:46:51Z</time></trkpt><trkpt lat="46.01148426468559" lon="12.687747671130946"><ele>78.5</ele><time>2026-04-27T07:46:52Z</time></trkpt><trkpt lat="46.01139245612462" lon="12.687860231394163"><ele>78.25</ele><time>2026-04-27T07:46:53Z</time></trkpt><trkpt lat="46.011296763917464" lon="12.688005260533492"><ele>78.0</ele><time>2026-04-27T07:46:54Z</time></trkpt><trkpt lat="46.01119336099512" lon="12.688150924747674"><ele>78.0</ele><time>2026-04-27T07:46:55Z</time></trkpt><trkpt lat="46.0110856008485" lon="12.688262715652055"><ele>78.0</ele><time>2026-04-27T07:46:56Z</time></trkpt><trkpt lat="46.011015031151146" lon="12.688389229187507"><ele>78.0</ele><time>2026-04-27T07:46:57Z</time></trkpt><trkpt lat="46.01094579370922" lon="12.688488362756063"><ele>78.0</ele><time>2026-04-27T07:46:58Z</time></trkpt><trkpt lat="46.01087936119063" lon="12.688574712509045"><ele>78.0</ele><time>2026-04-27T07:46:59Z</time></trkpt><trkpt lat="46.01086560450623" lon="12.688688055779325"><ele>78.0</ele><time>2026-04-27T07:47:00Z</time></trkpt><trkpt lat="46.0108347161451" lon="12.68885667960058"><ele>78.0</ele><time>2026-04-27T07:47:01Z</time></trkpt><trkpt lat="46.0108114502822" lon="12.689042544276077"><ele>78.0</ele><time>2026-04-27T07:47:02Z</time></trkpt><trkpt lat="46.010799217371115" lon="12.68921571219042"><ele>78.0</ele><time>2026-04-27T07:47:03Z</time></trkpt><trkpt lat="46.01077290054455" lon="12.689368317850716"><ele>77.25</ele><time>2026-04-27T07:47:04Z</time></trkpt><trkpt lat="46.010727020885255" lon="12.689535712031654"><ele>76.5</ele><time>2026-04-27T07:47:05Z</time></trkpt><trkpt lat="46.01066117595084" lon="12.689700717910602"><ele>75.75</ele><time>2026-04-27T07:47:06Z</time></trkpt><trkpt lat="46.01061437061898" lon="12.689889515680386"><ele>75.0</ele><time>2026-04-27T07:47:07Z</time></trkpt><trkpt lat="46.01054506216112" lon="12.690037855786592"><ele>75.0</ele><time>2026-04-27T07:47:08Z</time></trkpt><trkpt lat="46.01051221968245" lon="12.690161342774761"><ele>75.0</ele><time>2026-04-27T07:47:09Z</time></trkpt><trkpt lat="46.01047972794718" lon="12.690243788422089"><ele>75.0</ele><time>2026-04-27T07:47:11Z</time></trkpt><trkpt lat="46.010690996654375" lon="12.690180660673043"><ele>75.0</ele><time>2026-04-27T07:47:15Z</time></trkpt><trkpt lat="46.01077892534142" lon="12.690102742253087"><ele>75.4</ele><time>2026-04-27T07:47:16Z</time></trkpt><trkpt lat="46.01084076602539" lon="12.690065033890564"><ele>75.8</ele><time>2026-04-27T07:47:17Z</time></trkpt><trkpt lat="46.0109186089738" lon="12.689999376893619"><ele>76.2</ele><time>2026-04-27T07:47:18.001Z</time></trkpt><trkpt lat="46.01100518198702" lon="12.689918693079065"><ele>76.6</ele><time>2026-04-27T07:47:19.001Z</time></trkpt><trkpt lat="46.01109256218458" lon="12.689834101314549"><ele>77.0</ele><time>2026-04-27T07:47:20.001Z</time></trkpt><trkpt lat="46.01117442571602" lon="12.68975796701379"><ele>77.0</ele><time>2026-04-27T07:47:21.001Z</time></trkpt><trkpt lat="46.01126186612357" lon="12.689708569151257"><ele>77.0</ele><time>2026-04-27T07:47:22.001Z</time></trkpt><trkpt lat="46.01135101244518" lon="12.689696430637962"><ele>77.0</ele><time>2026-04-27T07:47:23.001Z</time></trkpt><trkpt lat="46.011458817746934" lon="12.689697071786236"><ele>77.0</ele><time>2026-04-27T07:47:24.001Z</time></trkpt><trkpt lat="46.01158414889015" lon="12.689719733411065"><ele>77.0</ele><time>2026-04-27T07:47:24.999Z</time></trkpt><trkpt lat="46.01172554707755" lon="12.689756914565153"><ele>77.0</ele><time>2026-04-27T07:47:25.999Z</time></trkpt><trkpt lat="46.01187017620193" lon="12.689797332696637"><ele>77.0</ele><time>2026-04-27T07:47:26.999Z</time></trkpt><trkpt lat="46.01200524035799" lon="12.689831560914143"><ele>77.0</ele><time>2026-04-27T07:47:27.999Z</time></trkpt><trkpt lat="46.0121217572905" lon="12.689845728906576"><ele>77.0</ele><time>2026-04-27T07:47:28.999Z</time></trkpt><trkpt lat="46.01220578232758" lon="12.689858594008783"><ele>77.0</ele><time>2026-04-27T07:47:29.999Z</time></trkpt><trkpt lat="46.012273553028955" lon="12.689851611138486"><ele>77.0</ele><time>2026-04-27T07:47:30.999Z</time></trkpt><trkpt lat="46.01236574557561" lon="12.689814397559237"><ele>77.0</ele><time>2026-04-27T07:47:31.999Z</time></trkpt><trkpt lat="46.01246500507431" lon="12.689775068200817"><ele>77.0</ele><time>2026-04-27T07:47:32.999Z</time></trkpt><trkpt lat="46.0125473043062" lon="12.689757666785441"><ele>77.0</ele><time>2026-04-27T07:47:33.999Z</time></trkpt><trkpt lat="46.01262978166866" lon="12.689774840271262"><ele>77.0</ele><time>2026-04-27T07:47:34.999Z</time></trkpt><trkpt lat="46.012708414482276" lon="12.68981647371367"><ele>77.0</ele><time>2026-04-27T07:47:35.999Z</time></trkpt><trkpt lat="46.012783652059234" lon="12.689878067932636"><ele>77.0</ele><time>2026-04-27T07:47:36.999Z</time></trkpt><trkpt lat="46.012850991062415" lon="12.689978017764474"><ele>77.0</ele><time>2026-04-27T07:47:37.999Z</time></trkpt><trkpt lat="46.01289831477376" lon="12.690100837179099"><ele>77.0</ele><time>2026-04-27T07:47:38.999Z</time></trkpt><trkpt lat="46.012922900405904" lon="12.690257613283224"><ele>77.0</ele><time>2026-04-27T07:47:39.999Z</time></trkpt><trkpt lat="46.01294546610402" lon="12.69046197990516"><ele>77.0</ele><time>2026-04-27T07:47:40.999Z</time></trkpt><trkpt lat="46.01295805199108" lon="12.69070223969142"><ele>77.0</ele><time>2026-04-27T07:47:41.999Z</time></trkpt><trkpt lat="46.01296773396792" lon="12.690931255752476"><ele>77.0</ele><time>2026-04-27T07:47:42.999Z</time></trkpt><trkpt lat="46.0129772982559" lon="12.691159599793389"><ele>76.66666666666667</ele><time>2026-04-27T07:47:43.999Z</time></trkpt><trkpt lat="46.01299250935154" lon="12.691383689722668"><ele>76.33333333333333</ele><time>2026-04-27T07:47:44.999Z</time></trkpt><trkpt lat="46.013009470187754" lon="12.691607154352"><ele>76.0</ele><time>2026-04-27T07:47:45.999Z</time></trkpt><trkpt lat="46.0130182609438" lon="12.691826373559763"><ele>76.33333333333333</ele><time>2026-04-27T07:47:46.999Z</time></trkpt><trkpt lat="46.01302628394132" lon="12.692065295450686"><ele>76.66666666666667</ele><time>2026-04-27T07:47:48Z</time></trkpt><trkpt lat="46.013033128630425" lon="12.692297577074601"><ele>77.0</ele><time>2026-04-27T07:47:49Z</time></trkpt><trkpt lat="46.01304007218214" lon="12.692520326347024"><ele>77.0</ele><time>2026-04-27T07:47:50Z</time></trkpt><trkpt lat="46.013058136737705" lon="12.692742217070261"><ele>77.0</ele><time>2026-04-27T07:47:51Z</time></trkpt><trkpt lat="46.01308313857297" lon="12.692954946320574"><ele>77.0</ele><time>2026-04-27T07:47:52Z</time></trkpt><trkpt lat="46.01310422814221" lon="12.693167849691065"><ele>76.5</ele><time>2026-04-27T07:47:53Z</time></trkpt><trkpt lat="46.01311485824616" lon="12.693394761107122"><ele>76.0</ele><time>2026-04-27T07:47:54Z</time></trkpt><trkpt lat="46.013105038362696" lon="12.69358577149187"><ele>75.5</ele><time>2026-04-27T07:47:55Z</time></trkpt><trkpt lat="46.01310074554388" lon="12.693757873262049"><ele>75.0</ele><time>2026-04-27T07:47:56Z</time></trkpt><trkpt lat="46.01310028095349" lon="12.693903039920087"><ele>75.0</ele><time>2026-04-27T07:47:57Z</time></trkpt><trkpt lat="46.01310670021408" lon="12.694039859283295"><ele>75.0</ele><time>2026-04-27T07:47:58Z</time></trkpt><trkpt lat="46.01313776478951" lon="12.694163362781689"><ele>75.0</ele><time>2026-04-27T07:47:59Z</time></trkpt><trkpt lat="46.013185846899916" lon="12.694311143396357"><ele>75.0</ele><time>2026-04-27T07:48:00Z</time></trkpt><trkpt lat="46.01325338453661" lon="12.694474145052649"><ele>75.0</ele><time>2026-04-27T07:48:01Z</time></trkpt><trkpt lat="46.01335478843801" lon="12.694673922326393"><ele>74.66666666666667</ele><time>2026-04-27T07:48:02Z</time></trkpt><trkpt lat="46.013451096797965" lon="12.69488514601577"><ele>74.33333333333334</ele><time>2026-04-27T07:48:03Z</time></trkpt><trkpt lat="46.01352853026957" lon="12.695069866788117"><ele>74.0</ele><time>2026-04-27T07:48:04Z</time></trkpt><trkpt lat="46.013597059850724" lon="12.69523752288465"><ele>74.25</ele><time>2026-04-27T07:48:05Z</time></trkpt><trkpt lat="46.01367995390318" lon="12.695416923173761"><ele>74.5</ele><time>2026-04-27T07:48:06Z</time></trkpt><trkpt lat="46.01376850787072" lon="12.695602003890192"><ele>74.75</ele><time>2026-04-27T07:48:07Z</time></trkpt><trkpt lat="46.01384541174141" lon="12.695771131463982"><ele>75.0</ele><time>2026-04-27T07:48:08Z</time></trkpt><trkpt lat="46.01391557603662" lon="12.69591240117586"><ele>75.0</ele><time>2026-04-27T07:48:09Z</time></trkpt><trkpt lat="46.013968491220574" lon="12.6960226522455"><ele>75.0</ele><time>2026-04-27T07:48:10Z</time></trkpt><trkpt lat="46.01400511922804" lon="12.696101779975335"><ele>75.0</ele><time>2026-04-27T07:48:11Z</time></trkpt><trkpt lat="46.0140662752427" lon="12.696234647281766"><ele>75.0</ele><time>2026-04-27T07:48:13Z</time></trkpt><trkpt lat="46.01409735201386" lon="12.696369665274267"><ele>75.0</ele><time>2026-04-27T07:48:15Z</time></trkpt><trkpt lat="46.014053577378874" lon="12.696463424334544"><ele>75.0</ele><time>2026-04-27T07:48:17Z</time></trkpt><trkpt lat="46.01399679337228" lon="12.696524453491891"><ele>75.5</ele><time>2026-04-27T07:48:18Z</time></trkpt><trkpt lat="46.01391370966114" lon="12.696602421109153"><ele>76.0</ele><time>2026-04-27T07:48:19Z</time></trkpt><trkpt lat="46.013805498458126" lon="12.696709443441959"><ele>76.5</ele><time>2026-04-27T07:48:20Z</time></trkpt><trkpt lat="46.013669293192144" lon="12.696845103802213"><ele>77.0</ele><time>2026-04-27T07:48:21Z</time></trkpt><trkpt lat="46.01351126029008" lon="12.696982879259952"><ele>77.0</ele><time>2026-04-27T07:48:22Z</time></trkpt><trkpt lat="46.013326854588904" lon="12.697120129366757"><ele>77.0</ele><time>2026-04-27T07:48:23Z</time></trkpt><trkpt lat="46.01313187170981" lon="12.697262320867557"><ele>77.0</ele><time>2026-04-27T07:48:24Z</time></trkpt><trkpt lat="46.01297296844043" lon="12.6973687797281"><ele>77.0</ele><time>2026-04-27T07:48:25Z</time></trkpt><trkpt lat="46.01287036462812" lon="12.697444039495647"><ele>77.0</ele><time>2026-04-27T07:48:26Z</time></trkpt><trkpt lat="46.01280672698458" lon="12.697488337413377"><ele>77.0</ele><time>2026-04-27T07:48:27Z</time></trkpt><trkpt lat="46.012746103498635" lon="12.69753728906811"><ele>77.0</ele><time>2026-04-27T07:48:31Z</time></trkpt><trkpt lat="46.0128142112477" lon="12.697741049269904"><ele>77.0</ele><time>2026-04-27T07:48:34Z</time></trkpt><trkpt lat="46.0128744033182" lon="12.697855794378137"><ele>77.0</ele><time>2026-04-27T07:48:35Z</time></trkpt><trkpt lat="46.01292276161478" lon="12.697989027500581"><ele>77.0</ele><time>2026-04-27T07:48:36.001Z</time></trkpt><trkpt lat="46.012979005681814" lon="12.698178098409866"><ele>77.0</ele><time>2026-04-27T07:48:37.001Z</time></trkpt><trkpt lat="46.01302795543002" lon="12.698366671290463"><ele>77.0</ele><time>2026-04-27T07:48:38.001Z</time></trkpt><trkpt lat="46.0130680865991" lon="12.698520429730609"><ele>76.66666666666667</ele><time>2026-04-27T07:48:39.001Z</time></trkpt><trkpt lat="46.01311440828171" lon="12.698650682488129"><ele>76.33333333333334</ele><time>2026-04-27T07:48:40.001Z</time></trkpt><trkpt lat="46.01315906859904" lon="12.6987656667623"><ele>76.0</ele><time>2026-04-27T07:48:41.001Z</time></trkpt><trkpt lat="46.01320084741298" lon="12.698870140202946"><ele>75.66666666666667</ele><time>2026-04-27T07:48:42.001Z</time></trkpt><trkpt lat="46.01323989038815" lon="12.698967380551336"><ele>75.33333333333333</ele><time>2026-04-27T07:48:43.001Z</time></trkpt><trkpt lat="46.01328495073275" lon="12.699080610436514"><ele>75.0</ele><time>2026-04-27T07:48:44.001Z</time></trkpt><trkpt lat="46.01333756503316" lon="12.699224302048707"><ele>75.0</ele><time>2026-04-27T07:48:45.001Z</time></trkpt><trkpt lat="46.01340689867901" lon="12.699409794289314"><ele>75.0</ele><time>2026-04-27T07:48:46.001Z</time></trkpt><trkpt lat="46.01348142003262" lon="12.699617347520796"><ele>75.0</ele><time>2026-04-27T07:48:47.001Z</time></trkpt><trkpt lat="46.013550963021295" lon="12.699815229781684"><ele>74.0</ele><time>2026-04-27T07:48:48.001Z</time></trkpt><trkpt lat="46.013616255617364" lon="12.700017281544582"><ele>73.0</ele><time>2026-04-27T07:48:49.001Z</time></trkpt><trkpt lat="46.01368212729847" lon="12.700218143214244"><ele>72.0</ele><time>2026-04-27T07:48:50.001Z</time></trkpt><trkpt lat="46.01376322619578" lon="12.700433772220983"><ele>71.66666666666667</ele><time>2026-04-27T07:48:51.001Z</time></trkpt><trkpt lat="46.01384188718308" lon="12.700644907937775"><ele>71.33333333333334</ele><time>2026-04-27T07:48:52.001Z</time></trkpt><trkpt lat="46.013932401593216" lon="12.700892051944182"><ele>71.0</ele><time>2026-04-27T07:48:53.001Z</time></trkpt><trkpt lat="46.01402303518468" lon="12.701140159183012"><ele>71.0</ele><time>2026-04-27T07:48:54.001Z</time></trkpt><trkpt lat="46.01411673513002" lon="12.701408471792368"><ele>71.0</ele><time>2026-04-27T07:48:55.001Z</time></trkpt><trkpt lat="46.01418104260674" lon="12.701623723540541"><ele>71.0</ele><time>2026-04-27T07:48:56.001Z</time></trkpt><trkpt lat="46.01424884735666" lon="12.701849094726931"><ele>70.66666666666667</ele><time>2026-04-27T07:48:57.001Z</time></trkpt><trkpt lat="46.014318858674365" lon="12.702075550297312"><ele>70.33333333333333</ele><time>2026-04-27T07:48:58.001Z</time></trkpt><trkpt lat="46.014382502299725" lon="12.702276789679233"><ele>70.0</ele><time>2026-04-27T07:48:59.001Z</time></trkpt><trkpt lat="46.014441507772545" lon="12.702481612137197"><ele>70.0</ele><time>2026-04-27T07:49:00.001Z</time></trkpt><trkpt lat="46.014484910910866" lon="12.702687868655909"><ele>70.0</ele><time>2026-04-27T07:49:01.001Z</time></trkpt><trkpt lat="46.014515704222724" lon="12.702903953030482"><ele>70.0</ele><time>2026-04-27T07:49:02.001Z</time></trkpt><trkpt lat="46.01453707204562" lon="12.703121163196856"><ele>70.25</ele><time>2026-04-27T07:49:03.001Z</time></trkpt><trkpt lat="46.01455998676131" lon="12.703344153908464"><ele>70.5</ele><time>2026-04-27T07:49:04.001Z</time></trkpt><trkpt lat="46.01457574450054" lon="12.703542501973741"><ele>70.75</ele><time>2026-04-27T07:49:05.001Z</time></trkpt><trkpt lat="46.01458942026033" lon="12.703717062445211"><ele>71.0</ele><time>2026-04-27T07:49:06.001Z</time></trkpt><trkpt lat="46.01459655536172" lon="12.703869398392674"><ele>71.25</ele><time>2026-04-27T07:49:07.001Z</time></trkpt><trkpt lat="46.01461956969997" lon="12.704065884403764"><ele>71.5</ele><time>2026-04-27T07:49:08.001Z</time></trkpt><trkpt lat="46.014660670134056" lon="12.70426085971429"><ele>71.75</ele><time>2026-04-27T07:49:09.001Z</time></trkpt><trkpt lat="46.01471193651057" lon="12.70445672647938"><ele>72.0</ele><time>2026-04-27T07:49:10.001Z</time></trkpt><trkpt lat="46.014774973831344" lon="12.70465409164763"><ele>72.0</ele><time>2026-04-27T07:49:11.001Z</time></trkpt><trkpt lat="46.01483858793111" lon="12.70485172147003"><ele>72.0</ele><time>2026-04-27T07:49:12.001Z</time></trkpt><trkpt lat="46.01491547113288" lon="12.705058870835153"><ele>72.0</ele><time>2026-04-27T07:49:13.001Z</time></trkpt><trkpt lat="46.014984109529536" lon="12.705268616167778"><ele>72.25</ele><time>2026-04-27T07:49:14.001Z</time></trkpt><trkpt lat="46.01504931178778" lon="12.705459537158346"><ele>72.5</ele><time>2026-04-27T07:49:15.001Z</time></trkpt><trkpt lat="46.01510583013411" lon="12.705649847063352"><ele>72.75</ele><time>2026-04-27T07:49:16.001Z</time></trkpt><trkpt lat="46.01515686447584" lon="12.705823749661477"><ele>73.0</ele><time>2026-04-27T07:49:17.001Z</time></trkpt><trkpt lat="46.0152009907571" lon="12.70597689146494"><ele>72.5</ele><time>2026-04-27T07:49:18.001Z</time></trkpt><trkpt lat="46.015240471740945" lon="12.706115380964228"><ele>72.0</ele><time>2026-04-27T07:49:19.001Z</time></trkpt><trkpt lat="46.01526530233888" lon="12.706265024824345"><ele>71.5</ele><time>2026-04-27T07:49:20.001Z</time></trkpt><trkpt lat="46.01527551940111" lon="12.706431923952195"><ele>71.0</ele><time>2026-04-27T07:49:21.001Z</time></trkpt><trkpt lat="46.015264946570724" lon="12.706618847413974"><ele>71.0</ele><time>2026-04-27T07:49:22.001Z</time></trkpt><trkpt lat="46.01523117793942" lon="12.706856542831968"><ele>71.0</ele><time>2026-04-27T07:49:23.001Z</time></trkpt><trkpt lat="46.01519357458006" lon="12.707126825487224"><ele>71.0</ele><time>2026-04-27T07:49:24.001Z</time></trkpt><trkpt lat="46.0151636778835" lon="12.707352669308891"><ele>71.0</ele><time>2026-04-27T07:49:25.001Z</time></trkpt><trkpt lat="46.01515250605858" lon="12.707587238220688"><ele>71.0</ele><time>2026-04-27T07:49:26.001Z</time></trkpt><trkpt lat="46.01513579487971" lon="12.70784254671057"><ele>71.0</ele><time>2026-04-27T07:49:27.001Z</time></trkpt><trkpt lat="46.01510398903439" lon="12.708094029443396"><ele>71.0</ele><time>2026-04-27T07:49:28.001Z</time></trkpt><trkpt lat="46.01507108021207" lon="12.708303339691815"><ele>71.0</ele><time>2026-04-27T07:49:29.001Z</time></trkpt><trkpt lat="46.015043949494384" lon="12.708493067553897"><ele>71.0</ele><time>2026-04-27T07:49:30.001Z</time></trkpt><trkpt lat="46.015025609004965" lon="12.708665077469409"><ele>71.0</ele><time>2026-04-27T07:49:31Z</time></trkpt><trkpt lat="46.014994647896444" lon="12.708805527254667"><ele>70.25</ele><time>2026-04-27T07:49:32Z</time></trkpt><trkpt lat="46.01494132863953" lon="12.708924781468195"><ele>69.5</ele><time>2026-04-27T07:49:33Z</time></trkpt><trkpt lat="46.01485964721044" lon="12.709057620215198"><ele>68.75</ele><time>2026-04-27T07:49:34Z</time></trkpt><trkpt lat="46.014778216582634" lon="12.70920052347811"><ele>68.0</ele><time>2026-04-27T07:49:35Z</time></trkpt><trkpt lat="46.01472917855452" lon="12.70935939039174"><ele>68.0</ele><time>2026-04-27T07:49:36Z</time></trkpt><trkpt lat="46.01470732678202" lon="12.70950110022377"><ele>68.0</ele><time>2026-04-27T07:49:37Z</time></trkpt><trkpt lat="46.0146983956788" lon="12.709678695037486"><ele>68.0</ele><time>2026-04-27T07:49:38Z</time></trkpt><trkpt lat="46.01469694129483" lon="12.709897551334013"><ele>68.0</ele><time>2026-04-27T07:49:39Z</time></trkpt><trkpt lat="46.014694720334354" lon="12.710142855964511"><ele>68.0</ele><time>2026-04-27T07:49:40Z</time></trkpt><trkpt lat="46.01467863910862" lon="12.710365156513172"><ele>68.0</ele><time>2026-04-27T07:49:41Z</time></trkpt><trkpt lat="46.014658201634184" lon="12.710540724479456"><ele>68.0</ele><time>2026-04-27T07:49:42Z</time></trkpt><trkpt lat="46.01464401895959" lon="12.710704574317921"><ele>68.0</ele><time>2026-04-27T07:49:43Z</time></trkpt><trkpt lat="46.01463757120598" lon="12.710857618546965"><ele>68.0</ele><time>2026-04-27T07:49:44Z</time></trkpt><trkpt lat="46.01463492086897" lon="12.710955999408679"><ele>68.0</ele><time>2026-04-27T07:49:45Z</time></trkpt><trkpt lat="46.01470756029319" lon="12.711066926840958"><ele>68.0</ele><time>2026-04-27T07:49:48Z</time></trkpt><trkpt lat="46.01480342717943" lon="12.711091517164467"><ele>68.0</ele><time>2026-04-27T07:49:49Z</time></trkpt><trkpt lat="46.01493309204973" lon="12.711142405283056"><ele>68.0</ele><time>2026-04-27T07:49:50Z</time></trkpt><trkpt lat="46.01506311473714" lon="12.71122561669704"><ele>68.25</ele><time>2026-04-27T07:49:51Z</time></trkpt><trkpt lat="46.01518850012167" lon="12.711301622406197"><ele>68.5</ele><time>2026-04-27T07:49:52Z</time></trkpt><trkpt lat="46.01530367278382" lon="12.711339045960786"><ele>68.75</ele><time>2026-04-27T07:49:53Z</time></trkpt><trkpt lat="46.015410931931804" lon="12.711359063846073"><ele>69.0</ele><time>2026-04-27T07:49:54Z</time></trkpt><trkpt lat="46.01553658741648" lon="12.711360752137612"><ele>69.0</ele><time>2026-04-27T07:49:55Z</time></trkpt><trkpt lat="46.01567705750059" lon="12.711343198332527"><ele>69.0</ele><time>2026-04-27T07:49:56Z</time></trkpt><trkpt lat="46.015810489063036" lon="12.711324001029787"><ele>69.0</ele><time>2026-04-27T07:49:57Z</time></trkpt><trkpt lat="46.01592440527364" lon="12.711307473938819"><ele>69.0</ele><time>2026-04-27T07:49:58Z</time></trkpt><trkpt lat="46.01602025859839" lon="12.711297521470353"><ele>69.2</ele><time>2026-04-27T07:49:59Z</time></trkpt><trkpt lat="46.016116397034914" lon="12.711296678605875"><ele>69.4</ele><time>2026-04-27T07:50:00Z</time></trkpt><trkpt lat="46.01622747115036" lon="12.711291556758122"><ele>69.6</ele><time>2026-04-27T07:50:01Z</time></trkpt><trkpt lat="46.016347095667655" lon="12.71128948010793"><ele>69.8</ele><time>2026-04-27T07:50:02Z</time></trkpt><trkpt lat="46.01646863777227" lon="12.711290849323932"><ele>70.0</ele><time>2026-04-27T07:50:03Z</time></trkpt><trkpt lat="46.01657911725374" lon="12.711282895143245"><ele>70.2</ele><time>2026-04-27T07:50:04Z</time></trkpt><trkpt lat="46.01668608864885" lon="12.711281309881018"><ele>70.4</ele><time>2026-04-27T07:50:05Z</time></trkpt><trkpt lat="46.01678438323063" lon="12.711284311220314"><ele>70.6</ele><time>2026-04-27T07:50:06Z</time></trkpt><trkpt lat="46.0168875362466" lon="12.711286431673601"><ele>70.8</ele><time>2026-04-27T07:50:07Z</time></trkpt><trkpt lat="46.01698873392861" lon="12.711287367343823"><ele>71.0</ele><time>2026-04-27T07:50:08Z</time></trkpt><trkpt lat="46.01709114327717" lon="12.711284221041888"><ele>71.0</ele><time>2026-04-27T07:50:09Z</time></trkpt><trkpt lat="46.0172152629722" lon="12.711276709058753"><ele>71.0</ele><time>2026-04-27T07:50:10Z</time></trkpt><trkpt lat="46.01733364920423" lon="12.711273671071702"><ele>71.0</ele><time>2026-04-27T07:50:11Z</time></trkpt><trkpt lat="46.0174681799397" lon="12.711265346855676"><ele>71.0</ele><time>2026-04-27T07:50:12Z</time></trkpt><trkpt lat="46.01760625947459" lon="12.711256874660174"><ele>71.33333333333334</ele><time>2026-04-27T07:50:13Z</time></trkpt><trkpt lat="46.01775092051606" lon="12.711253066300374"><ele>71.66666666666667</ele><time>2026-04-27T07:50:14Z</time></trkpt><trkpt lat="46.01791033803962" lon="12.71126053033179"><ele>72.0</ele><time>2026-04-27T07:50:15Z</time></trkpt><trkpt lat="46.018088229906624" lon="12.711264628628888"><ele>72.0</ele><time>2026-04-27T07:50:16Z</time></trkpt><trkpt lat="46.01827245224469" lon="12.711256829163839"><ele>72.0</ele><time>2026-04-27T07:50:17Z</time></trkpt><trkpt lat="46.01845555194674" lon="12.711248086135813"><ele>72.0</ele><time>2026-04-27T07:50:18Z</time></trkpt><trkpt lat="46.01864010173993" lon="12.711244241478429"><ele>72.66666666666667</ele><time>2026-04-27T07:50:19Z</time></trkpt><trkpt lat="46.01881789773846" lon="12.71123926091626"><ele>73.33333333333334</ele><time>2026-04-27T07:50:20.001Z</time></trkpt><trkpt lat="46.01900041241911" lon="12.711235826445987"><ele>74.0</ele><time>2026-04-27T07:50:21.001Z</time></trkpt><trkpt lat="46.01917922175055" lon="12.711223901323324"><ele>74.66666666666667</ele><time>2026-04-27T07:50:22.001Z</time></trkpt><trkpt lat="46.01940366853541" lon="12.711215289458982"><ele>75.33333333333333</ele><time>2026-04-27T07:50:23.001Z</time></trkpt><trkpt lat="46.01959031075984" lon="12.71120105673965"><ele>76.0</ele><time>2026-04-27T07:50:24.001Z</time></trkpt><trkpt lat="46.01974544334532" lon="12.711194399372733"><ele>76.0</ele><time>2026-04-27T07:50:25.001Z</time></trkpt><trkpt lat="46.01990393717289" lon="12.711187986627"><ele>76.0</ele><time>2026-04-27T07:50:26.001Z</time></trkpt><trkpt lat="46.02005364042529" lon="12.711184025526347"><ele>76.0</ele><time>2026-04-27T07:50:27.001Z</time></trkpt><trkpt lat="46.02019213375672" lon="12.71118114511192"><ele>76.0</ele><time>2026-04-27T07:50:28.001Z</time></trkpt><trkpt lat="46.020312091475205" lon="12.711198370194321"><ele>76.0</ele><time>2026-04-27T07:50:29.001Z</time></trkpt><trkpt lat="46.020432386904226" lon="12.711238941120323"><ele>76.0</ele><time>2026-04-27T07:50:30.001Z</time></trkpt><trkpt lat="46.0205364187427" lon="12.711324535670132"><ele>76.0</ele><time>2026-04-27T07:50:31.001Z</time></trkpt><trkpt lat="46.02064797514123" lon="12.711421335641854"><ele>76.0</ele><time>2026-04-27T07:50:32.001Z</time></trkpt><trkpt lat="46.020770449393716" lon="12.711531939231685"><ele>76.66666666666666</ele><time>2026-04-27T07:50:33.001Z</time></trkpt><trkpt lat="46.0209203186258" lon="12.71166480763367"><ele>77.33333333333333</ele><time>2026-04-27T07:50:34.001Z</time></trkpt><trkpt lat="46.021072571577086" lon="12.711811814427897"><ele>78.0</ele><time>2026-04-27T07:50:35.001Z</time></trkpt><trkpt lat="46.02123401347704" lon="12.711958503364903"><ele>78.33333333333333</ele><time>2026-04-27T07:50:36.001Z</time></trkpt><trkpt lat="46.021414040355815" lon="12.712100296188535"><ele>78.66666666666666</ele><time>2026-04-27T07:50:37.001Z</time></trkpt><trkpt lat="46.02162450763522" lon="12.71227841825929"><ele>79.0</ele><time>2026-04-27T07:50:38.001Z</time></trkpt><trkpt lat="46.02181684210902" lon="12.712449817862494"><ele>79.33333333333333</ele><time>2026-04-27T07:50:39.001Z</time></trkpt><trkpt lat="46.02198743328974" lon="12.712600577599973"><ele>79.66666666666667</ele><time>2026-04-27T07:50:40.001Z</time></trkpt><trkpt lat="46.022152847087575" lon="12.71275492436957"><ele>80.0</ele><time>2026-04-27T07:50:41.001Z</time></trkpt><trkpt lat="46.02231546027275" lon="12.712907012877254"><ele>81.0</ele><time>2026-04-27T07:50:42.001Z</time></trkpt><trkpt lat="46.02251005986192" lon="12.71307396837283"><ele>82.0</ele><time>2026-04-27T07:50:43.001Z</time></trkpt><trkpt lat="46.02269612383622" lon="12.71323837271305"><ele>83.0</ele><time>2026-04-27T07:50:44.001Z</time></trkpt><trkpt lat="46.022866889177955" lon="12.713376415172824"><ele>83.0</ele><time>2026-04-27T07:50:45.001Z</time></trkpt><trkpt lat="46.0230200526332" lon="12.713502578703777"><ele>83.0</ele><time>2026-04-27T07:50:46.001Z</time></trkpt><trkpt lat="46.0231279044149" lon="12.713590306315172"><ele>83.0</ele><time>2026-04-27T07:50:47.001Z</time></trkpt><trkpt lat="46.02321718279826" lon="12.713663415713285"><ele>83.0</ele><time>2026-04-27T07:50:48.001Z</time></trkpt><trkpt lat="46.023280010745346" lon="12.713718461407367"><ele>83.16666666666667</ele><time>2026-04-27T07:50:49.001Z</time></trkpt><trkpt lat="46.02333753708719" lon="12.713768529564135"><ele>83.33333333333334</ele><time>2026-04-27T07:50:51.001Z</time></trkpt><trkpt lat="46.02340309038037" lon="12.713813197944651"><ele>83.5</ele><time>2026-04-27T07:51:46Z</time></trkpt><trkpt lat="46.02347799342165" lon="12.713885954610113"><ele>83.66666666666667</ele><time>2026-04-27T07:51:47Z</time></trkpt><trkpt lat="46.0235597817557" lon="12.713969637113232"><ele>83.83333333333333</ele><time>2026-04-27T07:51:48Z</time></trkpt><trkpt lat="46.023635011028745" lon="12.714028351422686"><ele>84.0</ele><time>2026-04-27T07:51:49Z</time></trkpt><trkpt lat="46.02369405648972" lon="12.714067311693729"><ele>84.0</ele><time>2026-04-27T07:51:50Z</time></trkpt><trkpt lat="46.02377560924318" lon="12.714123271309825"><ele>84.0</ele><time>2026-04-27T07:51:52Z</time></trkpt><trkpt lat="46.02383373075313" lon="12.714182490296945"><ele>84.0</ele><time>2026-04-27T07:51:54Z</time></trkpt><trkpt lat="46.02377612692012" lon="12.714292639467368"><ele>84.0</ele><time>2026-04-27T07:51:55Z</time></trkpt><trkpt lat="46.0237420137836" lon="12.71439539051152"><ele>84.0</ele><time>2026-04-27T07:51:56Z</time></trkpt><trkpt lat="46.02369964516464" lon="12.714549827425731"><ele>84.33333333333333</ele><time>2026-04-27T07:51:57Z</time></trkpt><trkpt lat="46.02362176695036" lon="12.714738885086103"><ele>84.66666666666666</ele><time>2026-04-27T07:51:58Z</time></trkpt><trkpt lat="46.023543081249265" lon="12.714961818060459"><ele>85.0</ele><time>2026-04-27T07:51:59Z</time></trkpt><trkpt lat="46.023454221220284" lon="12.715169430346844"><ele>85.33333333333333</ele><time>2026-04-27T07:52:00Z</time></trkpt><trkpt lat="46.02337515574369" lon="12.715367883715702"><ele>85.66666666666667</ele><time>2026-04-27T07:52:01Z</time></trkpt><trkpt lat="46.02330033512159" lon="12.715579214567247"><ele>86.0</ele><time>2026-04-27T07:52:02Z</time></trkpt><trkpt lat="46.023234199353965" lon="12.715844898744953"><ele>84.33333333333334</ele><time>2026-04-27T07:52:03Z</time></trkpt><trkpt lat="46.023137798631076" lon="12.716131966948774"><ele>82.66666666666667</ele><time>2026-04-27T07:52:04Z</time></trkpt><trkpt lat="46.023065690724174" lon="12.716355970732206"><ele>81.0</ele><time>2026-04-27T07:52:05Z</time></trkpt><trkpt lat="46.022969307201016" lon="12.716637079517671"><ele>81.33333333333333</ele><time>2026-04-27T07:52:06Z</time></trkpt><trkpt lat="46.02287284879603" lon="12.716934639568432"><ele>81.66666666666666</ele><time>2026-04-27T07:52:07Z</time></trkpt><trkpt lat="46.0227839903693" lon="12.717203734916922"><ele>82.0</ele><time>2026-04-27T07:52:08Z</time></trkpt><trkpt lat="46.022698672170144" lon="12.717451788159213"><ele>82.0</ele><time>2026-04-27T07:52:09Z</time></trkpt><trkpt lat="46.022616094136204" lon="12.717700143319476"><ele>82.0</ele><time>2026-04-27T07:52:10Z</time></trkpt><trkpt lat="46.02253269763611" lon="12.717945597041492"><ele>82.0</ele><time>2026-04-27T07:52:11Z</time></trkpt><trkpt lat="46.02245399359444" lon="12.71817929352895"><ele>82.0</ele><time>2026-04-27T07:52:12Z</time></trkpt><trkpt lat="46.022372628563716" lon="12.718415152490456"><ele>82.0</ele><time>2026-04-27T07:52:13Z</time></trkpt><trkpt lat="46.02229705498474" lon="12.718650616409167"><ele>82.0</ele><time>2026-04-27T07:52:14Z</time></trkpt><trkpt lat="46.02222073146265" lon="12.718881118865692"><ele>82.0</ele><time>2026-04-27T07:52:15.001Z</time></trkpt><trkpt lat="46.022131191951324" lon="12.719098755542987"><ele>82.0</ele><time>2026-04-27T07:52:16.001Z</time></trkpt><trkpt lat="46.0220705156083" lon="12.719331956625135"><ele>82.0</ele><time>2026-04-27T07:52:17.001Z</time></trkpt><trkpt lat="46.021998465852356" lon="12.71955405589387"><ele>82.0</ele><time>2026-04-27T07:52:18.001Z</time></trkpt><trkpt lat="46.02192259969066" lon="12.719774841349624"><ele>82.0</ele><time>2026-04-27T07:52:19.001Z</time></trkpt><trkpt lat="46.021848242205216" lon="12.719999245331929"><ele>82.0</ele><time>2026-04-27T07:52:20.001Z</time></trkpt><trkpt lat="46.02177710854617" lon="12.720215761086022"><ele>82.0</ele><time>2026-04-27T07:52:21.001Z</time></trkpt><trkpt lat="46.02170486037216" lon="12.72043426066269"><ele>82.0</ele><time>2026-04-27T07:52:22.001Z</time></trkpt><trkpt lat="46.02163436277664" lon="12.720655447473229"><ele>82.0</ele><time>2026-04-27T07:52:23.001Z</time></trkpt><trkpt lat="46.02156738661114" lon="12.720875983293302"><ele>82.0</ele><time>2026-04-27T07:52:24.001Z</time></trkpt><trkpt lat="46.02149796752959" lon="12.721090638770251"><ele>82.0</ele><time>2026-04-27T07:52:25.001Z</time></trkpt><trkpt lat="46.02143679861148" lon="12.721271898827299"><ele>82.0</ele><time>2026-04-27T07:52:26.001Z</time></trkpt><trkpt lat="46.02137998022739" lon="12.721431397148539"><ele>82.0</ele><time>2026-04-27T07:52:27.001Z</time></trkpt><trkpt lat="46.02133800216909" lon="12.721554971540815"><ele>82.0</ele><time>2026-04-27T07:52:28.001Z</time></trkpt><trkpt lat="46.02128315521782" lon="12.721608627618545"><ele>82.0</ele><time>2026-04-27T07:52:29.001Z</time></trkpt><trkpt lat="46.02121978144091" lon="12.721639144633798"><ele>82.0</ele><time>2026-04-27T07:52:32.001Z</time></trkpt><trkpt lat="46.02109577398759" lon="12.721649264329237"><ele>82.0</ele><time>2026-04-27T07:52:42.001Z</time></trkpt><trkpt lat="46.02101475934048" lon="12.721646112455531"><ele>82.0</ele><time>2026-04-27T07:52:43.001Z</time></trkpt><trkpt lat="46.020898993955505" lon="12.721638208467594"><ele>81.6</ele><time>2026-04-27T07:52:44.001Z</time></trkpt><trkpt lat="46.020776766895985" lon="12.721653576332033"><ele>81.19999999999999</ele><time>2026-04-27T07:52:45.001Z</time></trkpt><trkpt lat="46.02066737940299" lon="12.721645802865758"><ele>80.8</ele><time>2026-04-27T07:52:46.001Z</time></trkpt><trkpt lat="46.02057367345424" lon="12.721685922613363"><ele>80.4</ele><time>2026-04-27T07:52:47.001Z</time></trkpt><trkpt lat="46.02050809525053" lon="12.721726462668748"><ele>80.0</ele><time>2026-04-27T07:52:48.001Z</time></trkpt><trkpt lat="46.02045587193535" lon="12.721896501179057"><ele>79.8</ele><time>2026-04-27T07:52:50.001Z</time></trkpt><trkpt lat="46.020454739415634" lon="12.722047830100026"><ele>79.6</ele><time>2026-04-27T07:52:51.001Z</time></trkpt><trkpt lat="46.02044996774912" lon="12.722207842865949"><ele>79.4</ele><time>2026-04-27T07:52:52.001Z</time></trkpt><trkpt lat="46.02044592905584" lon="12.722317654613667"><ele>79.2</ele><time>2026-04-27T07:52:53.001Z</time></trkpt><trkpt lat="46.02044108226325" lon="12.722449443035298"><ele>79.0</ele><time>2026-04-27T07:52:55.001Z</time></trkpt><trkpt lat="46.02068961601422" lon="12.722507974300813"><ele>79.0</ele><time>2026-04-27T07:52:57.001Z</time></trkpt><trkpt lat="46.020804133884226" lon="12.722501076194558"><ele>79.0</ele><time>2026-04-27T07:52:58.001Z</time></trkpt><trkpt lat="46.02093011164079" lon="12.722498144888341"><ele>79.0</ele><time>2026-04-27T07:52:59.001Z</time></trkpt><trkpt lat="46.02103348440427" lon="12.722515781964782"><ele>79.0</ele><time>2026-04-27T07:53:00.001Z</time></trkpt><trkpt lat="46.02109660898415" lon="12.72254345309924"><ele>79.0</ele><time>2026-04-27T07:53:01.001Z</time></trkpt><trkpt lat="46.02113219972958" lon="12.722664347299132"><ele>79.66666666666666</ele><time>2026-04-27T07:53:03.001Z</time></trkpt><trkpt lat="46.02114001804197" lon="12.722756027519095"><ele>80.33333333333333</ele><time>2026-04-27T07:53:04.001Z</time></trkpt><trkpt lat="46.02113813050836" lon="12.722852167480715"><ele>81.0</ele><time>2026-04-27T07:53:05.001Z</time></trkpt><trkpt lat="46.02112719440754" lon="12.722975223940878"><ele>81.66666666666667</ele><time>2026-04-27T07:53:06.001Z</time></trkpt><trkpt lat="46.02113600594835" lon="12.723121341872504"><ele>82.33333333333334</ele><time>2026-04-27T07:53:07.001Z</time></trkpt><trkpt lat="46.02113718472557" lon="12.723224991333506"><ele>83.0</ele><time>2026-04-27T07:53:08.001Z</time></trkpt><trkpt lat="46.0211258454985" lon="12.723317378386987"><ele>83.0</ele><time>2026-04-27T07:53:09.001Z</time></trkpt><trkpt lat="46.02112324121646" lon="12.723496584755287"><ele>83.0</ele><time>2026-04-27T07:53:11.001Z</time></trkpt><trkpt lat="46.02110043237801" lon="12.723584320765866"><ele>83.0</ele><time>2026-04-27T07:53:12.001Z</time></trkpt><trkpt lat="46.02104368853959" lon="12.723691038846095"><ele>83.0</ele><time>2026-04-27T07:53:14.001Z</time></trkpt><trkpt lat="46.0210389331269" lon="12.723792435514218"><ele>83.0</ele><time>2026-04-27T07:53:16.002Z</time></trkpt><trkpt lat="46.02103321786158" lon="12.723885852370875"><ele>83.0</ele><time>2026-04-27T07:53:18.002Z</time></trkpt><trkpt lat="46.02101829744433" lon="12.72398762993946"><ele>83.0</ele><time>2026-04-27T07:53:20.002Z</time></trkpt><trkpt lat="46.02098956974449" lon="12.724092724485716"><ele>83.0</ele><time>2026-04-27T07:53:22.002Z</time></trkpt><trkpt lat="46.020959051853154" lon="12.724213058844857"><ele>83.0</ele><time>2026-04-27T07:53:24.002Z</time></trkpt><trkpt lat="46.020931500659024" lon="12.724350361902058"><ele>83.0</ele><time>2026-04-27T07:53:26.002Z</time></trkpt><trkpt lat="46.0209110110955" lon="12.724467640454208"><ele>83.0</ele><time>2026-04-27T07:53:28.002Z</time></trkpt><trkpt lat="46.02089174595448" lon="12.724599595652165"><ele>83.0</ele><time>2026-04-27T07:53:30.002Z</time></trkpt><trkpt lat="46.02086903262977" lon="12.724697457415486"><ele>83.0</ele><time>2026-04-27T07:53:32.002Z</time></trkpt><trkpt lat="46.02082395318566" lon="12.724843489137479"><ele>83.0</ele><time>2026-04-27T07:53:34.002Z</time></trkpt><trkpt lat="46.02077062695679" lon="12.724980401630676"><ele>83.0</ele><time>2026-04-27T07:53:36.002Z</time></trkpt><trkpt lat="46.02072014332935" lon="12.725141500014209"><ele>83.0</ele><time>2026-04-27T07:53:38.002Z</time></trkpt><trkpt lat="46.02069516874428" lon="12.725233566642892"><ele>83.0</ele><time>2026-04-27T07:53:39.002Z</time></trkpt><trkpt lat="46.020667380842866" lon="12.725328556039115"><ele>82.66666666666667</ele><time>2026-04-27T07:53:41.002Z</time></trkpt><trkpt lat="46.02063451643668" lon="12.725476312357635"><ele>82.33333333333334</ele><time>2026-04-27T07:53:43Z</time></trkpt><trkpt lat="46.020605613070636" lon="12.725568898226596"><ele>82.0</ele><time>2026-04-27T07:53:44Z</time></trkpt><trkpt lat="46.0205600420976" lon="12.725673814628582"><ele>81.66666666666667</ele><time>2026-04-27T07:53:46Z</time></trkpt><trkpt lat="46.02048099966755" lon="12.725682439715943"><ele>81.33333333333333</ele><time>2026-04-27T07:53:48Z</time></trkpt><trkpt lat="46.02038504163173" lon="12.725736540871306"><ele>81.0</ele><time>2026-04-27T07:53:50Z</time></trkpt><trkpt lat="46.020309663523214" lon="12.72577359039172"><ele>81.0</ele><time>2026-04-27T07:53:51Z</time></trkpt><trkpt lat="46.02019135856823" lon="12.725640078230118"><ele>81.0</ele><time>2026-04-27T07:53:52Z</time></trkpt><trkpt lat="46.020085255623634" lon="12.72559495665284"><ele>81.0</ele><time>2026-04-27T07:53:53Z</time></trkpt><trkpt lat="46.01999427841449" lon="12.725568854083654"><ele>81.0</ele><time>2026-04-27T07:53:54Z</time></trkpt><trkpt lat="46.01991565200943" lon="12.725545385578156"><ele>81.0</ele><time>2026-04-27T07:53:55Z</time></trkpt><trkpt lat="46.01982915720805" lon="12.72551563343235"><ele>80.5</ele><time>2026-04-27T07:53:56Z</time></trkpt><trkpt lat="46.01972708929255" lon="12.725490668155931"><ele>80.0</ele><time>2026-04-27T07:53:57Z</time></trkpt><trkpt lat="46.019613559259305" lon="12.72544473967192"><ele>79.5</ele><time>2026-04-27T07:53:58Z</time></trkpt><trkpt lat="46.0194691843194" lon="12.725431645915252"><ele>79.0</ele><time>2026-04-27T07:53:59Z</time></trkpt><trkpt lat="46.01934126048179" lon="12.725415514030258"><ele>79.0</ele><time>2026-04-27T07:54:00Z</time></trkpt><trkpt lat="46.01923648056878" lon="12.725388374234415"><ele>79.0</ele><time>2026-04-27T07:54:01Z</time></trkpt><trkpt lat="46.019135917439655" lon="12.725361910279501"><ele>79.0</ele><time>2026-04-27T07:54:02Z</time></trkpt><trkpt lat="46.01903632952319" lon="12.725328740528612"><ele>79.0</ele><time>2026-04-27T07:54:03Z</time></trkpt><trkpt lat="46.01895039075787" lon="12.725307671300001"><ele>79.0</ele><time>2026-04-27T07:54:04Z</time></trkpt><trkpt lat="46.01888522923886" lon="12.725302269639903"><ele>78.4</ele><time>2026-04-27T07:54:05Z</time></trkpt><trkpt lat="46.01881037742748" lon="12.7253355842143"><ele>77.80000000000001</ele><time>2026-04-27T07:54:06Z</time></trkpt><trkpt lat="46.0187411422885" lon="12.72540559390431"><ele>77.19999999999999</ele><time>2026-04-27T07:54:07Z</time></trkpt><trkpt lat="46.018681239457386" lon="12.72550263262735"><ele>76.6</ele><time>2026-04-27T07:54:08Z</time></trkpt><trkpt lat="46.018637898492" lon="12.725622521433733"><ele>76.0</ele><time>2026-04-27T07:54:09Z</time></trkpt><trkpt lat="46.01860081361971" lon="12.725791238333763"><ele>76.0</ele><time>2026-04-27T07:54:10Z</time></trkpt><trkpt lat="46.0185586550446" lon="12.725954991718842"><ele>76.0</ele><time>2026-04-27T07:54:11Z</time></trkpt><trkpt lat="46.0185009457127" lon="12.726103730143222"><ele>76.0</ele><time>2026-04-27T07:54:12Z</time></trkpt><trkpt lat="46.0184323642041" lon="12.726265083681078"><ele>76.0</ele><time>2026-04-27T07:54:13Z</time></trkpt><trkpt lat="46.01836978062298" lon="12.726425078304858"><ele>75.75</ele><time>2026-04-27T07:54:14Z</time></trkpt><trkpt lat="46.01830854742368" lon="12.726597652077501"><ele>75.5</ele><time>2026-04-27T07:54:15Z</time></trkpt><trkpt lat="46.018260833565954" lon="12.72677496686714"><ele>75.25</ele><time>2026-04-27T07:54:16Z</time></trkpt><trkpt lat="46.018209141141" lon="12.72691727944711"><ele>75.0</ele><time>2026-04-27T07:54:17Z</time></trkpt><trkpt lat="46.018136650048156" lon="12.727062472868292"><ele>75.0</ele><time>2026-04-27T07:54:18Z</time></trkpt><trkpt lat="46.01805501418286" lon="12.727200756219695"><ele>75.0</ele><time>2026-04-27T07:54:19Z</time></trkpt><trkpt lat="46.01798903610079" lon="12.727329924124996"><ele>75.0</ele><time>2026-04-27T07:54:20Z</time></trkpt><trkpt lat="46.0179297513592" lon="12.727482211438431"><ele>75.0</ele><time>2026-04-27T07:54:21Z</time></trkpt><trkpt lat="46.01787979763513" lon="12.727646413228754"><ele>74.75</ele><time>2026-04-27T07:54:22Z</time></trkpt><trkpt lat="46.01782439570242" lon="12.727815971558526"><ele>74.5</ele><time>2026-04-27T07:54:23Z</time></trkpt><trkpt lat="46.017764967048876" lon="12.727985662715657"><ele>74.25</ele><time>2026-04-27T07:54:24Z</time></trkpt><trkpt lat="46.01770884128668" lon="12.72812477438033"><ele>74.0</ele><time>2026-04-27T07:54:25Z</time></trkpt><trkpt lat="46.017643236305744" lon="12.728246893044735"><ele>74.0</ele><time>2026-04-27T07:54:26Z</time></trkpt><trkpt lat="46.01756674989601" lon="12.728391493763603"><ele>74.0</ele><time>2026-04-27T07:54:27Z</time></trkpt><trkpt lat="46.01750451689501" lon="12.72853943379381"><ele>74.0</ele><time>2026-04-27T07:54:28.001Z</time></trkpt><trkpt lat="46.01744406512248" lon="12.728722588991197"><ele>74.0</ele><time>2026-04-27T07:54:29.001Z</time></trkpt><trkpt lat="46.01738736877737" lon="12.728912094129004"><ele>73.75</ele><time>2026-04-27T07:54:30.001Z</time></trkpt><trkpt lat="46.01732898646101" lon="12.72907682656773"><ele>73.5</ele><time>2026-04-27T07:54:31.001Z</time></trkpt><trkpt lat="46.01726877014197" lon="12.729239275345172"><ele>73.25</ele><time>2026-04-27T07:54:32.001Z</time></trkpt><trkpt lat="46.01722337993311" lon="12.729384736095938"><ele>73.0</ele><time>2026-04-27T07:54:33.001Z</time></trkpt><trkpt lat="46.01717111662676" lon="12.729532490828916"><ele>73.0</ele><time>2026-04-27T07:54:34.001Z</time></trkpt><trkpt lat="46.01709752440326" lon="12.729696019519247"><ele>73.0</ele><time>2026-04-27T07:54:35.001Z</time></trkpt><trkpt lat="46.01702494293446" lon="12.729829580050579"><ele>73.0</ele><time>2026-04-27T07:54:36.001Z</time></trkpt><trkpt lat="46.01696538720094" lon="12.729965498933701"><ele>73.0</ele><time>2026-04-27T07:54:37.001Z</time></trkpt><trkpt lat="46.01692136935574" lon="12.730151758085924"><ele>73.25</ele><time>2026-04-27T07:54:38.001Z</time></trkpt><trkpt lat="46.016876794792815" lon="12.730316938152317"><ele>73.5</ele><time>2026-04-27T07:54:39.001Z</time></trkpt><trkpt lat="46.016807571163675" lon="12.73046478479236"><ele>73.75</ele><time>2026-04-27T07:54:40.001Z</time></trkpt><trkpt lat="46.016730985592396" lon="12.730597080439862"><ele>74.0</ele><time>2026-04-27T07:54:41.001Z</time></trkpt><trkpt lat="46.0166792093243" lon="12.73072060610303"><ele>74.0</ele><time>2026-04-27T07:54:42.001Z</time></trkpt><trkpt lat="46.01665147059868" lon="12.730887159705288"><ele>74.0</ele><time>2026-04-27T07:54:44.001Z</time></trkpt><trkpt lat="46.01671494058117" lon="12.731016212584365"><ele>74.0</ele><time>2026-04-27T07:54:46.001Z</time></trkpt><trkpt lat="46.01679323593623" lon="12.731058764500448"><ele>74.0</ele><time>2026-04-27T07:54:47.001Z</time></trkpt><trkpt lat="46.016892062491436" lon="12.731077669574546"><ele>74.0</ele><time>2026-04-27T07:54:48.001Z</time></trkpt><trkpt lat="46.01702161197093" lon="12.73107256933231"><ele>74.4</ele><time>2026-04-27T07:54:49.001Z</time></trkpt><trkpt lat="46.01713091935923" lon="12.731065842373065"><ele>74.80000000000001</ele><time>2026-04-27T07:54:50.001Z</time></trkpt><trkpt lat="46.017233771733395" lon="12.731090077319354"><ele>75.19999999999999</ele><time>2026-04-27T07:54:51.001Z</time></trkpt><trkpt lat="46.01733365661152" lon="12.73109845207217"><ele>75.6</ele><time>2026-04-27T07:54:52.001Z</time></trkpt><trkpt lat="46.01745428612531" lon="12.731151064960345"><ele>76.0</ele><time>2026-04-27T07:54:53.001Z</time></trkpt><trkpt lat="46.01758535224141" lon="12.731219873276167"><ele>76.33333333333333</ele><time>2026-04-27T07:54:54.001Z</time></trkpt><trkpt lat="46.01772268439215" lon="12.731281399470696"><ele>76.66666666666667</ele><time>2026-04-27T07:54:55.001Z</time></trkpt><trkpt lat="46.01786836148342" lon="12.731359808547518"><ele>77.0</ele><time>2026-04-27T07:54:56.001Z</time></trkpt><trkpt lat="46.01802352150417" lon="12.73144589861384"><ele>77.0</ele><time>2026-04-27T07:54:57.001Z</time></trkpt><trkpt lat="46.018177195281844" lon="12.731522048078626"><ele>77.0</ele><time>2026-04-27T07:54:58.001Z</time></trkpt><trkpt lat="46.01830867728191" lon="12.731601318079203"><ele>77.0</ele><time>2026-04-27T07:54:59.001Z</time></trkpt><trkpt lat="46.01844233308567" lon="12.731628575096098"><ele>77.0</ele><time>2026-04-27T07:55:00.001Z</time></trkpt><trkpt lat="46.01857215678553" lon="12.731681987360133"><ele>77.25</ele><time>2026-04-27T07:55:01.001Z</time></trkpt><trkpt lat="46.018699374261004" lon="12.731725872518016"><ele>77.5</ele><time>2026-04-27T07:55:02.001Z</time></trkpt><trkpt lat="46.0188163055484" lon="12.731771440982564"><ele>77.75</ele><time>2026-04-27T07:55:03.001Z</time></trkpt><trkpt lat="46.01891430594777" lon="12.731833665577973"><ele>78.0</ele><time>2026-04-27T07:55:04.001Z</time></trkpt><trkpt lat="46.01901515418907" lon="12.731866128870411"><ele>78.2</ele><time>2026-04-27T07:55:05.001Z</time></trkpt><trkpt lat="46.019100755135646" lon="12.73190933831819"><ele>78.4</ele><time>2026-04-27T07:55:06.001Z</time></trkpt><trkpt lat="46.019182856884704" lon="12.732010724821148"><ele>78.60000000000001</ele><time>2026-04-27T07:55:07.001Z</time></trkpt><trkpt lat="46.01927912290077" lon="12.732084075622357"><ele>78.8</ele><time>2026-04-27T07:55:08.001Z</time></trkpt><trkpt lat="46.01934937841505" lon="12.732164170952343"><ele>79.0</ele><time>2026-04-27T07:55:09.001Z</time></trkpt><trkpt lat="46.01941802925262" lon="12.732297393913363"><ele>79.2</ele><time>2026-04-27T07:55:11.001Z</time></trkpt><trkpt lat="46.01942686678317" lon="12.732475825759522"><ele>79.4</ele><time>2026-04-27T07:55:13.001Z</time></trkpt><trkpt lat="46.01943315401842" lon="12.73260333843449"><ele>79.6</ele><time>2026-04-27T07:55:14.001Z</time></trkpt><trkpt lat="46.01941946421352" lon="12.732724076681794"><ele>79.8</ele><time>2026-04-27T07:55:15.001Z</time></trkpt><trkpt lat="46.019391517784946" lon="12.732874928379662"><ele>80.0</ele><time>2026-04-27T07:55:16.001Z</time></trkpt><trkpt lat="46.01935416223558" lon="12.733067783952047"><ele>80.0</ele><time>2026-04-27T07:55:17.001Z</time></trkpt><trkpt lat="46.01931808784039" lon="12.733289132851894"><ele>80.0</ele><time>2026-04-27T07:55:18.001Z</time></trkpt><trkpt lat="46.01928655110251" lon="12.733493375779029"><ele>80.0</ele><time>2026-04-27T07:55:19.001Z</time></trkpt><trkpt lat="46.01926017373382" lon="12.73368986835472"><ele>80.0</ele><time>2026-04-27T07:55:20.001Z</time></trkpt><trkpt lat="46.01923683750532" lon="12.733867304265218"><ele>80.0</ele><time>2026-04-27T07:55:21.001Z</time></trkpt><trkpt lat="46.01921911140726" lon="12.734029750662033"><ele>80.0</ele><time>2026-04-27T07:55:22.001Z</time></trkpt><trkpt lat="46.01920030899399" lon="12.734209988358439"><ele>80.0</ele><time>2026-04-27T07:55:23.001Z</time></trkpt><trkpt lat="46.019178588534444" lon="12.734429851568734"><ele>80.0</ele><time>2026-04-27T07:55:24.001Z</time></trkpt><trkpt lat="46.01915532300595" lon="12.734664524881017"><ele>79.66666666666667</ele><time>2026-04-27T07:55:25.001Z</time></trkpt><trkpt lat="46.01914061342816" lon="12.734868678272303"><ele>79.33333333333333</ele><time>2026-04-27T07:55:26.001Z</time></trkpt><trkpt lat="46.019126501320905" lon="12.735090311067633"><ele>79.0</ele><time>2026-04-27T07:55:27.001Z</time></trkpt><trkpt lat="46.01910742238453" lon="12.735328114078277"><ele>79.0</ele><time>2026-04-27T07:55:28.001Z</time></trkpt><trkpt lat="46.01909906169086" lon="12.735574176455884"><ele>79.0</ele><time>2026-04-27T07:55:29.001Z</time></trkpt><trkpt lat="46.019059656828716" lon="12.735842432678274"><ele>79.0</ele><time>2026-04-27T07:55:30.002Z</time></trkpt><trkpt lat="46.019042369880545" lon="12.73608754162462"><ele>77.66666666666666</ele><time>2026-04-27T07:55:31.002Z</time></trkpt><trkpt lat="46.01902986815145" lon="12.736323660498563"><ele>76.33333333333333</ele><time>2026-04-27T07:55:32.002Z</time></trkpt><trkpt lat="46.01901994460566" lon="12.736547133242045"><ele>75.0</ele><time>2026-04-27T07:55:33.002Z</time></trkpt><trkpt lat="46.01901074582119" lon="12.736783909125746"><ele>75.66666666666667</ele><time>2026-04-27T07:55:34.002Z</time></trkpt><trkpt lat="46.01900070512542" lon="12.737042355733761"><ele>76.33333333333334</ele><time>2026-04-27T07:55:35.002Z</time></trkpt><trkpt lat="46.01899335421882" lon="12.737303170842681"><ele>77.0</ele><time>2026-04-27T07:55:36.002Z</time></trkpt><trkpt lat="46.01899021828784" lon="12.737533045479156"><ele>77.25</ele><time>2026-04-27T07:55:37.002Z</time></trkpt><trkpt lat="46.01898621749741" lon="12.737745438470991"><ele>77.5</ele><time>2026-04-27T07:55:38.002Z</time></trkpt><trkpt lat="46.0189785520251" lon="12.737944940313723"><ele>77.75</ele><time>2026-04-27T07:55:39.002Z</time></trkpt><trkpt lat="46.018978223275596" lon="12.738168078832778"><ele>78.0</ele><time>2026-04-27T07:55:40.002Z</time></trkpt><trkpt lat="46.018956332358265" lon="12.73840355330701"><ele>77.66666666666667</ele><time>2026-04-27T07:55:41.002Z</time></trkpt><trkpt lat="46.01895011113218" lon="12.73863942738487"><ele>77.33333333333334</ele><time>2026-04-27T07:55:42.002Z</time></trkpt><trkpt lat="46.01894951430222" lon="12.738871892518628"><ele>77.0</ele><time>2026-04-27T07:55:43.002Z</time></trkpt><trkpt lat="46.01894738755676" lon="12.739110301232609"><ele>77.0</ele><time>2026-04-27T07:55:44.002Z</time></trkpt><trkpt lat="46.018943285879324" lon="12.739352259394913"><ele>77.0</ele><time>2026-04-27T07:55:45.002Z</time></trkpt><trkpt lat="46.018937107753956" lon="12.73961558848104"><ele>77.0</ele><time>2026-04-27T07:55:46.002Z</time></trkpt><trkpt lat="46.01892582210848" lon="12.739892468306781"><ele>77.0</ele><time>2026-04-27T07:55:47.002Z</time></trkpt><trkpt lat="46.01889877141294" lon="12.740146379285083"><ele>77.0</ele><time>2026-04-27T07:55:48.002Z</time></trkpt><trkpt lat="46.01888653290604" lon="12.740370483883085"><ele>77.0</ele><time>2026-04-27T07:55:49Z</time></trkpt><trkpt lat="46.01887354162536" lon="12.740578923391022"><ele>77.0</ele><time>2026-04-27T07:55:50Z</time></trkpt><trkpt lat="46.01885689093359" lon="12.740805880200089"><ele>77.0</ele><time>2026-04-27T07:55:51Z</time></trkpt><trkpt lat="46.0188347671597" lon="12.741058045639148"><ele>77.0</ele><time>2026-04-27T07:55:52Z</time></trkpt><trkpt lat="46.01881346956143" lon="12.741310133535116"><ele>77.0</ele><time>2026-04-27T07:55:53Z</time></trkpt><trkpt lat="46.018796787305455" lon="12.741549137194863"><ele>77.0</ele><time>2026-04-27T07:55:54Z</time></trkpt><trkpt lat="46.01878146462728" lon="12.741790091923066"><ele>77.0</ele><time>2026-04-27T07:55:55Z</time></trkpt><trkpt lat="46.01876890619042" lon="12.742009835949"><ele>77.0</ele><time>2026-04-27T07:55:56Z</time></trkpt><trkpt lat="46.018757353796786" lon="12.742223165996942"><ele>77.0</ele><time>2026-04-27T07:55:57Z</time></trkpt><trkpt lat="46.018746836193145" lon="12.742434253628518"><ele>77.0</ele><time>2026-04-27T07:55:58Z</time></trkpt><trkpt lat="46.018735665423065" lon="12.742665116286204"><ele>77.33333333333334</ele><time>2026-04-27T07:55:59Z</time></trkpt><trkpt lat="46.01872429981128" lon="12.742900005501445"><ele>77.66666666666667</ele><time>2026-04-27T07:56:00Z</time></trkpt><trkpt lat="46.018712801749835" lon="12.743137631457232"><ele>78.0</ele><time>2026-04-27T07:56:01Z</time></trkpt><trkpt lat="46.01870071501192" lon="12.74336299570185"><ele>77.33333333333333</ele><time>2026-04-27T07:56:02Z</time></trkpt><trkpt lat="46.01868738867905" lon="12.743608501998082"><ele>76.66666666666666</ele><time>2026-04-27T07:56:03Z</time></trkpt><trkpt lat="46.01867467203308" lon="12.743842776739188"><ele>76.0</ele><time>2026-04-27T07:56:04Z</time></trkpt><trkpt lat="46.01866345629251" lon="12.74404940002727"><ele>76.0</ele><time>2026-04-27T07:56:05Z</time></trkpt><trkpt lat="46.01865260227652" lon="12.744244532141566"><ele>76.0</ele><time>2026-04-27T07:56:06Z</time></trkpt><trkpt lat="46.01864137996916" lon="12.74444225877474"><ele>76.0</ele><time>2026-04-27T07:56:07Z</time></trkpt><trkpt lat="46.018628944724426" lon="12.744665023022527"><ele>76.0</ele><time>2026-04-27T07:56:08Z</time></trkpt><trkpt lat="46.018618654663946" lon="12.744854776369069"><ele>76.0</ele><time>2026-04-27T07:56:09Z</time></trkpt><trkpt lat="46.01860907076242" lon="12.745057788419418"><ele>76.0</ele><time>2026-04-27T07:56:10Z</time></trkpt><trkpt lat="46.01859944406758" lon="12.745268917633641"><ele>76.0</ele><time>2026-04-27T07:56:11Z</time></trkpt><trkpt lat="46.01858990651088" lon="12.745478091520104"><ele>76.0</ele><time>2026-04-27T07:56:12Z</time></trkpt><trkpt lat="46.01858082073163" lon="12.745665185984256"><ele>76.0</ele><time>2026-04-27T07:56:13Z</time></trkpt><trkpt lat="46.01857011524587" lon="12.74587430241043"><ele>76.0</ele><time>2026-04-27T07:56:14Z</time></trkpt><trkpt lat="46.018572434519655" lon="12.746053695906276"><ele>76.0</ele><time>2026-04-27T07:56:15Z</time></trkpt><trkpt lat="46.018552531833386" lon="12.746230572184384"><ele>76.0</ele><time>2026-04-27T07:56:16Z</time></trkpt><trkpt lat="46.01854819933476" lon="12.746387431821287"><ele>76.2</ele><time>2026-04-27T07:56:17Z</time></trkpt><trkpt lat="46.018546327578804" lon="12.746549000573236"><ele>76.39999999999999</ele><time>2026-04-27T07:56:18Z</time></trkpt><trkpt lat="46.01855047299461" lon="12.74671893406986"><ele>76.6</ele><time>2026-04-27T07:56:19Z</time></trkpt><trkpt lat="46.018560970680326" lon="12.746847554846655"><ele>76.8</ele><time>2026-04-27T07:56:20Z</time></trkpt><trkpt lat="46.01858385906861" lon="12.746975310835966"><ele>77.0</ele><time>2026-04-27T07:56:21Z</time></trkpt><trkpt lat="46.01859454195255" lon="12.74711035953252"><ele>77.0</ele><time>2026-04-27T07:56:22Z</time></trkpt><trkpt lat="46.01859487101816" lon="12.747282452248232"><ele>77.0</ele><time>2026-04-27T07:56:23Z</time></trkpt><trkpt lat="46.01857497063777" lon="12.747464077405269"><ele>77.0</ele><time>2026-04-27T07:56:24Z</time></trkpt><trkpt lat="46.018576979987444" lon="12.747653932728669"><ele>77.0</ele><time>2026-04-27T07:56:25Z</time></trkpt><trkpt lat="46.01857084979156" lon="12.747851294363826"><ele>76.66666666666667</ele><time>2026-04-27T07:56:26Z</time></trkpt><trkpt lat="46.018564716852815" lon="12.748084135315455"><ele>76.33333333333333</ele><time>2026-04-27T07:56:27Z</time></trkpt><trkpt lat="46.018567050071255" lon="12.74833005386885"><ele>76.0</ele><time>2026-04-27T07:56:28Z</time></trkpt><trkpt lat="46.01856637721181" lon="12.748543136753332"><ele>75.75</ele><time>2026-04-27T07:56:29Z</time></trkpt><trkpt lat="46.01856384388308" lon="12.748733512265938"><ele>75.5</ele><time>2026-04-27T07:56:30Z</time></trkpt><trkpt lat="46.01854774563347" lon="12.748921469057064"><ele>75.25</ele><time>2026-04-27T07:56:31Z</time></trkpt><trkpt lat="46.01854541713056" lon="12.749123072914351"><ele>75.0</ele><time>2026-04-27T07:56:32Z</time></trkpt><trkpt lat="46.01854302741252" lon="12.749329977062667"><ele>75.33333333333333</ele><time>2026-04-27T07:56:33Z</time></trkpt><trkpt lat="46.01855705262413" lon="12.749538101609845"><ele>75.66666666666666</ele><time>2026-04-27T07:56:34Z</time></trkpt><trkpt lat="46.01854139683142" lon="12.749753236122467"><ele>76.0</ele><time>2026-04-27T07:56:35Z</time></trkpt><trkpt lat="46.01853366403795" lon="12.749987379515838"><ele>75.75</ele><time>2026-04-27T07:56:36Z</time></trkpt><trkpt lat="46.0185296149318" lon="12.750221398438109"><ele>75.5</ele><time>2026-04-27T07:56:37Z</time></trkpt><trkpt lat="46.018524059133476" lon="12.750431999731212"><ele>75.25</ele><time>2026-04-27T07:56:38Z</time></trkpt><trkpt lat="46.018542556645606" lon="12.750630109616727"><ele>75.0</ele><time>2026-04-27T07:56:39.001Z</time></trkpt><trkpt lat="46.018547411369184" lon="12.750838329774131"><ele>74.66666666666667</ele><time>2026-04-27T07:56:40.001Z</time></trkpt><trkpt lat="46.018541537401795" lon="12.751063380697477"><ele>74.33333333333334</ele><time>2026-04-27T07:56:41.001Z</time></trkpt><trkpt lat="46.01855097705677" lon="12.751316392615209"><ele>74.0</ele><time>2026-04-27T07:56:42.001Z</time></trkpt><trkpt lat="46.018570202105046" lon="12.751572524042338"><ele>74.0</ele><time>2026-04-27T07:56:43.001Z</time></trkpt><trkpt lat="46.01859163360406" lon="12.75181422173409"><ele>74.0</ele><time>2026-04-27T07:56:44.001Z</time></trkpt><trkpt lat="46.018591464004935" lon="12.752043301184864"><ele>74.0</ele><time>2026-04-27T07:56:45.001Z</time></trkpt><trkpt lat="46.0186039958879" lon="12.752280681026212"><ele>74.0</ele><time>2026-04-27T07:56:46.001Z</time></trkpt><trkpt lat="46.018617289427745" lon="12.752532488387873"><ele>74.0</ele><time>2026-04-27T07:56:47.001Z</time></trkpt><trkpt lat="46.018643761683215" lon="12.752759237027385"><ele>74.0</ele><time>2026-04-27T07:56:48.001Z</time></trkpt><trkpt lat="46.01865463936108" lon="12.752957973427268"><ele>74.0</ele><time>2026-04-27T07:56:49.001Z</time></trkpt><trkpt lat="46.01866494148186" lon="12.753177438036985"><ele>74.0</ele><time>2026-04-27T07:56:50.001Z</time></trkpt><trkpt lat="46.01865444322878" lon="12.753396724128917"><ele>74.0</ele><time>2026-04-27T07:56:51.001Z</time></trkpt><trkpt lat="46.01865484873202" lon="12.753603700531217"><ele>74.0</ele><time>2026-04-27T07:56:52.001Z</time></trkpt><trkpt lat="46.01865305482113" lon="12.753819630184104"><ele>74.25</ele><time>2026-04-27T07:56:53.001Z</time></trkpt><trkpt lat="46.0186611059314" lon="12.75401469646519"><ele>74.5</ele><time>2026-04-27T07:56:54.001Z</time></trkpt><trkpt lat="46.01864855188413" lon="12.754180311442926"><ele>74.75</ele><time>2026-04-27T07:56:55.001Z</time></trkpt><trkpt lat="46.01866561952841" lon="12.754333562529387"><ele>75.0</ele><time>2026-04-27T07:56:56.001Z</time></trkpt><trkpt lat="46.01867414395381" lon="12.754497774720559"><ele>75.0</ele><time>2026-04-27T07:56:57.001Z</time></trkpt><trkpt lat="46.01866383699297" lon="12.75463613686621"><ele>75.0</ele><time>2026-04-27T07:56:58.001Z</time></trkpt><trkpt lat="46.01866668804078" lon="12.754760027857703"><ele>75.0</ele><time>2026-04-27T07:56:59.001Z</time></trkpt><trkpt lat="46.01866860899295" lon="12.754895659229298"><ele>75.0</ele><time>2026-04-27T07:57:00.001Z</time></trkpt><trkpt lat="46.01868648044142" lon="12.755047718718107"><ele>75.0</ele><time>2026-04-27T07:57:01.001Z</time></trkpt><trkpt lat="46.01867990130556" lon="12.755235505442533"><ele>74.75</ele><time>2026-04-27T07:57:02.001Z</time></trkpt><trkpt lat="46.0186826909991" lon="12.755438861760744"><ele>74.5</ele><time>2026-04-27T07:57:03.001Z</time></trkpt><trkpt lat="46.0186815005116" lon="12.755647942855877"><ele>74.25</ele><time>2026-04-27T07:57:04.001Z</time></trkpt><trkpt lat="46.01868157528349" lon="12.755845915319144"><ele>74.0</ele><time>2026-04-27T07:57:05.001Z</time></trkpt><trkpt lat="46.01868314914094" lon="12.756068172973123"><ele>74.0</ele><time>2026-04-27T07:57:06.001Z</time></trkpt><trkpt lat="46.01869455836707" lon="12.756316131451099"><ele>74.0</ele><time>2026-04-27T07:57:07.001Z</time></trkpt><trkpt lat="46.01868743394227" lon="12.756560006087993"><ele>74.0</ele><time>2026-04-27T07:57:08.001Z</time></trkpt><trkpt lat="46.01870117812536" lon="12.75678305757203"><ele>74.0</ele><time>2026-04-27T07:57:09.001Z</time></trkpt><trkpt lat="46.01870045629479" lon="12.75701606850258"><ele>74.0</ele><time>2026-04-27T07:57:10.001Z</time></trkpt><trkpt lat="46.018700629411796" lon="12.757256524132469"><ele>74.0</ele><time>2026-04-27T07:57:11.001Z</time></trkpt><trkpt lat="46.01867338496397" lon="12.75749876357507"><ele>73.75</ele><time>2026-04-27T07:57:12.001Z</time></trkpt><trkpt lat="46.01864752516434" lon="12.757733765127933"><ele>73.5</ele><time>2026-04-27T07:57:13.001Z</time></trkpt><trkpt lat="46.018618374531535" lon="12.757937712960508"><ele>73.25</ele><time>2026-04-27T07:57:14.001Z</time></trkpt><trkpt lat="46.01857992331023" lon="12.758124929985454"><ele>73.0</ele><time>2026-04-27T07:57:15.001Z</time></trkpt><trkpt lat="46.01853434859031" lon="12.758321036071163"><ele>73.0</ele><time>2026-04-27T07:57:16.001Z</time></trkpt><trkpt lat="46.01847908697876" lon="12.75849426593439"><ele>73.0</ele><time>2026-04-27T07:57:17.001Z</time></trkpt><trkpt lat="46.01840884461169" lon="12.758641929427293"><ele>73.0</ele><time>2026-04-27T07:57:18.001Z</time></trkpt><trkpt lat="46.01833350663259" lon="12.758787673042647"><ele>73.0</ele><time>2026-04-27T07:57:19.001Z</time></trkpt><trkpt lat="46.01825098365344" lon="12.7588906746525"><ele>72.6</ele><time>2026-04-27T07:57:20.001Z</time></trkpt><trkpt lat="46.01816636171891" lon="12.758976892499309"><ele>72.19999999999999</ele><time>2026-04-27T07:57:21.001Z</time></trkpt><trkpt lat="46.01808362496782" lon="12.759037410322602"><ele>71.8</ele><time>2026-04-27T07:57:22.001Z</time></trkpt><trkpt lat="46.01798502435865" lon="12.759124907258663"><ele>71.39999999999999</ele><time>2026-04-27T07:57:23.001Z</time></trkpt><trkpt lat="46.0178794497172" lon="12.759233562382903"><ele>71.0</ele><time>2026-04-27T07:57:24.001Z</time></trkpt><trkpt lat="46.017770253403114" lon="12.759354428316447"><ele>71.0</ele><time>2026-04-27T07:57:25.001Z</time></trkpt><trkpt lat="46.01795875515491" lon="12.76017878604246"><ele>71.5</ele><time>2026-04-27T07:57:26.001Z</time></trkpt><trkpt lat="46.01790876335683" lon="12.760382048447452"><ele>72.0</ele><time>2026-04-27T07:57:27.001Z</time></trkpt><trkpt lat="46.01786439989042" lon="12.760567586122203"><ele>72.5</ele><time>2026-04-27T07:57:28.001Z</time></trkpt><trkpt lat="46.017828448759026" lon="12.760751837384731"><ele>73.0</ele><time>2026-04-27T07:57:29.001Z</time></trkpt><trkpt lat="46.017799855485485" lon="12.760950944965959"><ele>72.75</ele><time>2026-04-27T07:57:30.001Z</time></trkpt><trkpt lat="46.0177800070109" lon="12.761148646544234"><ele>72.5</ele><time>2026-04-27T07:57:31.001Z</time></trkpt><trkpt lat="46.017760895689726" lon="12.76134444419866"><ele>72.25</ele><time>2026-04-27T07:57:32.001Z</time></trkpt><trkpt lat="46.01774527153691" lon="12.761523149966038"><ele>72.0</ele><time>2026-04-27T07:57:33.001Z</time></trkpt><trkpt lat="46.017733742732595" lon="12.761683220907214"><ele>72.0</ele><time>2026-04-27T07:57:34.001Z</time></trkpt><trkpt lat="46.01772646796132" lon="12.76180505798994"><ele>72.0</ele><time>2026-04-27T07:57:35.001Z</time></trkpt><trkpt lat="46.01769444412156" lon="12.761925273052995"><ele>72.0</ele><time>2026-04-27T07:57:37.002Z</time></trkpt><trkpt lat="46.01759045686242" lon="12.762009913921817"><ele>72.0</ele><time>2026-04-27T07:57:39.002Z</time></trkpt><trkpt lat="46.01750070431257" lon="12.762055753010895"><ele>72.0</ele><time>2026-04-27T07:57:40.002Z</time></trkpt><trkpt lat="46.01739941557215" lon="12.762073760905423"><ele>71.5</ele><time>2026-04-27T07:57:41.002Z</time></trkpt><trkpt lat="46.01730077742719" lon="12.762081048608554"><ele>71.0</ele><time>2026-04-27T07:57:42.002Z</time></trkpt><trkpt lat="46.01718655279909" lon="12.762095314933353"><ele>70.5</ele><time>2026-04-27T07:57:43.002Z</time></trkpt><trkpt lat="46.01706528137067" lon="12.762136239624192"><ele>70.0</ele><time>2026-04-27T07:57:44.002Z</time></trkpt><trkpt lat="46.01693916541023" lon="12.762212683032109"><ele>70.0</ele><time>2026-04-27T07:57:45.002Z</time></trkpt><trkpt lat="46.016844661304155" lon="12.76229481911031"><ele>70.0</ele><time>2026-04-27T07:57:46.002Z</time></trkpt><trkpt lat="46.016771959396294" lon="12.762344535177954"><ele>70.0</ele><time>2026-04-27T07:57:47.002Z</time></trkpt><trkpt lat="46.01671409722222" lon="12.762383792665934"><ele>70.0</ele><time>2026-04-27T07:57:48.002Z</time></trkpt><trkpt lat="46.016640714079884" lon="12.762453256490058"><ele>70.0</ele><time>2026-04-27T07:57:49.002Z</time></trkpt><trkpt lat="46.01653712911749" lon="12.762554237967791"><ele>69.75</ele><time>2026-04-27T07:57:50.002Z</time></trkpt><trkpt lat="46.016401975596985" lon="12.762659140620332"><ele>69.5</ele><time>2026-04-27T07:57:51.002Z</time></trkpt><trkpt lat="46.016280008692775" lon="12.762712969964316"><ele>69.25</ele><time>2026-04-27T07:57:52.002Z</time></trkpt><trkpt lat="46.01616853096969" lon="12.762771341739143"><ele>69.0</ele><time>2026-04-27T07:57:53.002Z</time></trkpt><trkpt lat="46.01607341096095" lon="12.762834621991372"><ele>68.8</ele><time>2026-04-27T07:57:54.002Z</time></trkpt><trkpt lat="46.01598547851546" lon="12.762888606530234"><ele>68.60000000000001</ele><time>2026-04-27T07:57:54.999Z</time></trkpt><trkpt lat="46.01589379367572" lon="12.762920394987638"><ele>68.4</ele><time>2026-04-27T07:57:55.999Z</time></trkpt><trkpt lat="46.01579553991321" lon="12.762931723899149"><ele>68.2</ele><time>2026-04-27T07:57:56.999Z</time></trkpt><trkpt lat="46.0156688443948" lon="12.762930862650983"><ele>68.0</ele><time>2026-04-27T07:57:57.999Z</time></trkpt><trkpt lat="46.01555450460525" lon="12.762941611817798"><ele>67.8</ele><time>2026-04-27T07:57:58.999Z</time></trkpt><trkpt lat="46.01543982002401" lon="12.762976069663498"><ele>67.6</ele><time>2026-04-27T07:57:59.999Z</time></trkpt><trkpt lat="46.01534892698664" lon="12.763030566054548"><ele>67.4</ele><time>2026-04-27T07:58:00.999Z</time></trkpt><trkpt lat="46.01527143746788" lon="12.763095508766314"><ele>67.2</ele><time>2026-04-27T07:58:01.999Z</time></trkpt><trkpt lat="46.01518187595688" lon="12.763169769350885"><ele>67.0</ele><time>2026-04-27T07:58:02.999Z</time></trkpt><trkpt lat="46.015058160712385" lon="12.76328632556814"><ele>66.66666666666666</ele><time>2026-04-27T07:58:03.999Z</time></trkpt><trkpt lat="46.01493476286031" lon="12.763410775019583"><ele>66.33333333333333</ele><time>2026-04-27T07:58:04.999Z</time></trkpt><trkpt lat="46.01480580255386" lon="12.763526607882895"><ele>66.0</ele><time>2026-04-27T07:58:05.999Z</time></trkpt><trkpt lat="46.01466432673847" lon="12.763635439461318"><ele>66.0</ele><time>2026-04-27T07:58:06.999Z</time></trkpt><trkpt lat="46.01452810001954" lon="12.763745042751173"><ele>66.0</ele><time>2026-04-27T07:58:07.999Z</time></trkpt><trkpt lat="46.01440470512615" lon="12.76384674880125"><ele>66.0</ele><time>2026-04-27T07:58:08.999Z</time></trkpt><trkpt lat="46.01428242544146" lon="12.763952330532849"><ele>66.0</ele><time>2026-04-27T07:58:09.999Z</time></trkpt><trkpt lat="46.014149677289" lon="12.764065098768313"><ele>65.75</ele><time>2026-04-27T07:58:11Z</time></trkpt><trkpt lat="46.014014504757554" lon="12.764171614937327"><ele>65.5</ele><time>2026-04-27T07:58:12Z</time></trkpt><trkpt lat="46.013873815932634" lon="12.764263817555364"><ele>65.25</ele><time>2026-04-27T07:58:13Z</time></trkpt><trkpt lat="46.013753473105766" lon="12.764344173586824"><ele>65.0</ele><time>2026-04-27T07:58:14Z</time></trkpt><trkpt lat="46.01363452390421" lon="12.76440581235664"><ele>65.0</ele><time>2026-04-27T07:58:15Z</time></trkpt><trkpt lat="46.01350676607824" lon="12.764485153023267"><ele>65.0</ele><time>2026-04-27T07:58:16Z</time></trkpt><trkpt lat="46.01337569229505" lon="12.764570436551654"><ele>65.0</ele><time>2026-04-27T07:58:17Z</time></trkpt><trkpt lat="46.01324335584976" lon="12.76465860078976"><ele>65.0</ele><time>2026-04-27T07:58:18Z</time></trkpt><trkpt lat="46.013118284068746" lon="12.764726205869824"><ele>64.6</ele><time>2026-04-27T07:58:19Z</time></trkpt><trkpt lat="46.013006851105835" lon="12.764787495135407"><ele>64.2</ele><time>2026-04-27T07:58:20Z</time></trkpt><trkpt lat="46.012914910276656" lon="12.764834165519492"><ele>63.8</ele><time>2026-04-27T07:58:21Z</time></trkpt><trkpt lat="46.012830194657305" lon="12.764879049836479"><ele>63.4</ele><time>2026-04-27T07:58:22Z</time></trkpt><trkpt lat="46.012739482096045" lon="12.764943032822126"><ele>63.0</ele><time>2026-04-27T07:58:23Z</time></trkpt><trkpt lat="46.0126837397134" lon="12.765015473356078"><ele>63.0</ele><time>2026-04-27T07:58:24Z</time></trkpt><trkpt lat="46.01260362423118" lon="12.765130342071592"><ele>63.0</ele><time>2026-04-27T07:58:25Z</time></trkpt><trkpt lat="46.012515775597265" lon="12.765246731267634"><ele>63.0</ele><time>2026-04-27T07:58:26Z</time></trkpt><trkpt lat="46.012416242337515" lon="12.765385492312763"><ele>63.0</ele><time>2026-04-27T07:58:27Z</time></trkpt><trkpt lat="46.01233225112865" lon="12.765498422030046"><ele>62.8</ele><time>2026-04-27T07:58:28Z</time></trkpt><trkpt lat="46.01226087583863" lon="12.765609768322811"><ele>62.599999999999994</ele><time>2026-04-27T07:58:29Z</time></trkpt><trkpt lat="46.01218993858468" lon="12.76570111097336"><ele>62.400000000000006</ele><time>2026-04-27T07:58:30Z</time></trkpt><trkpt lat="46.01209907560711" lon="12.765807855139354"><ele>62.2</ele><time>2026-04-27T07:58:31Z</time></trkpt><trkpt lat="46.01199404152225" lon="12.765888277571339"><ele>62.0</ele><time>2026-04-27T07:58:32Z</time></trkpt><trkpt lat="46.01185739043625" lon="12.765971752474154"><ele>62.25</ele><time>2026-04-27T07:58:33Z</time></trkpt><trkpt lat="46.01172589832597" lon="12.76604937151605"><ele>62.5</ele><time>2026-04-27T07:58:34Z</time></trkpt><trkpt lat="46.01160928295536" lon="12.766118497485913"><ele>62.75</ele><time>2026-04-27T07:58:35Z</time></trkpt><trkpt lat="46.01148948235037" lon="12.766202173111783"><ele>63.0</ele><time>2026-04-27T07:58:36Z</time></trkpt><trkpt lat="46.011375954544015" lon="12.76628490291044"><ele>62.5</ele><time>2026-04-27T07:58:37Z</time></trkpt><trkpt lat="46.01130035490264" lon="12.766336465712097"><ele>62.0</ele><time>2026-04-27T07:58:38Z</time></trkpt><trkpt lat="46.011158473550694" lon="12.766435108354175"><ele>61.5</ele><time>2026-04-27T07:58:40Z</time></trkpt><trkpt lat="46.011043427633304" lon="12.766506274178996"><ele>61.0</ele><time>2026-04-27T07:58:41Z</time></trkpt><trkpt lat="46.0109459494026" lon="12.766580123028671"><ele>60.99999999999999</ele><time>2026-04-27T07:58:42Z</time></trkpt><trkpt lat="46.010865192013156" lon="12.76664988114851"><ele>61.0</ele><time>2026-04-27T07:58:43Z</time></trkpt><trkpt lat="46.01078783660118" lon="12.766713396966821"><ele>61.0</ele><time>2026-04-27T07:58:44Z</time></trkpt><trkpt lat="46.010726829079566" lon="12.766757472886793"><ele>61.0</ele><time>2026-04-27T07:58:45Z</time></trkpt><trkpt lat="46.010643622428425" lon="12.76681342741156"><ele>60.99999999999999</ele><time>2026-04-27T07:58:46Z</time></trkpt><trkpt lat="46.010543571610654" lon="12.766853299084767"><ele>61.0</ele><time>2026-04-27T07:58:47Z</time></trkpt><trkpt lat="46.01043139271071" lon="12.766897044320805"><ele>61.0</ele><time>2026-04-27T07:58:48Z</time></trkpt><trkpt lat="46.01032352853872" lon="12.766952396644658"><ele>61.0</ele><time>2026-04-27T07:58:49Z</time></trkpt><trkpt lat="46.01018354103984" lon="12.767048409920175"><ele>61.0</ele><time>2026-04-27T07:58:50Z</time></trkpt><trkpt lat="46.010043704087174" lon="12.767127317728269"><ele>61.0</ele><time>2026-04-27T07:58:51.001Z</time></trkpt><trkpt lat="46.00992578567845" lon="12.767208920977408"><ele>61.0</ele><time>2026-04-27T07:58:52.001Z</time></trkpt><trkpt lat="46.00981882132842" lon="12.76727992956488"><ele>60.99999999999999</ele><time>2026-04-27T07:58:53.001Z</time></trkpt><trkpt lat="46.00972406093733" lon="12.767329969334963"><ele>60.99999999999999</ele><time>2026-04-27T07:58:54.001Z</time></trkpt><trkpt lat="46.0096341492133" lon="12.767388244824494"><ele>61.0</ele><time>2026-04-27T07:58:55.001Z</time></trkpt><trkpt lat="46.00955558667952" lon="12.767451392655385"><ele>61.0</ele><time>2026-04-27T07:58:56.001Z</time></trkpt><trkpt lat="46.00947427385358" lon="12.767529875531924"><ele>60.99999999999999</ele><time>2026-04-27T07:58:57.001Z</time></trkpt><trkpt lat="46.009380557969095" lon="12.767591654591971"><ele>61.0</ele><time>2026-04-27T07:58:58.001Z</time></trkpt><trkpt lat="46.00927638384766" lon="12.767637060881407"><ele>61.0</ele><time>2026-04-27T07:58:59.001Z</time></trkpt><trkpt lat="46.00919618381663" lon="12.767683016909102"><ele>61.0</ele><time>2026-04-27T07:59:00.001Z</time></trkpt><trkpt lat="46.00912241655738" lon="12.767710326275019"><ele>60.99999999999999</ele><time>2026-04-27T07:59:01.001Z</time></trkpt><trkpt lat="46.00905134114007" lon="12.767718836946987"><ele>61.0</ele><time>2026-04-27T07:59:02.001Z</time></trkpt><trkpt lat="46.008976473247905" lon="12.767710361779722"><ele>60.83333333333333</ele><time>2026-04-27T07:59:03.001Z</time></trkpt><trkpt lat="46.00888927576039" lon="12.767706899645246"><ele>60.666666666666664</ele><time>2026-04-27T07:59:04.001Z</time></trkpt><trkpt lat="46.008809839340344" lon="12.767736971127649"><ele>60.5</ele><time>2026-04-27T07:59:05.001Z</time></trkpt><trkpt lat="46.008750732762756" lon="12.767776682481017"><ele>60.33333333333333</ele><time>2026-04-27T07:59:06.001Z</time></trkpt><trkpt lat="46.008699817086274" lon="12.767851460358406"><ele>60.166666666666664</ele><time>2026-04-27T07:59:08.001Z</time></trkpt><trkpt lat="46.00869717121211" lon="12.767945187016775"><ele>60.0</ele><time>2026-04-27T07:59:09.001Z</time></trkpt><trkpt lat="46.00870741328446" lon="12.768057017690374"><ele>60.0</ele><time>2026-04-27T07:59:10.001Z</time></trkpt><trkpt lat="46.00873303483633" lon="12.768179996523441"><ele>60.0</ele><time>2026-04-27T07:59:11.001Z</time></trkpt><trkpt lat="46.008746022740134" lon="12.768291497750083"><ele>60.0</ele><time>2026-04-27T07:59:12.001Z</time></trkpt><trkpt lat="46.008739288361014" lon="12.76841896039259"><ele>60.0</ele><time>2026-04-27T07:59:13.001Z</time></trkpt><trkpt lat="46.00872162107236" lon="12.768579251106742"><ele>60.0</ele><time>2026-04-27T07:59:14.001Z</time></trkpt><trkpt lat="46.00868959593266" lon="12.768727557444647"><ele>60.0</ele><time>2026-04-27T07:59:15.001Z</time></trkpt><trkpt lat="46.008672175172734" lon="12.768866905388442"><ele>60.0</ele><time>2026-04-27T07:59:16.001Z</time></trkpt><trkpt lat="46.00867175904416" lon="12.768993712275426"><ele>60.0</ele><time>2026-04-27T07:59:17.001Z</time></trkpt><trkpt lat="46.00869116865737" lon="12.769113219164097"><ele>60.0</ele><time>2026-04-27T07:59:18.001Z</time></trkpt><trkpt lat="46.00873445219049" lon="12.769227849772928"><ele>60.0</ele><time>2026-04-27T07:59:19.001Z</time></trkpt><trkpt lat="46.00881217660845" lon="12.769340462249337"><ele>60.2</ele><time>2026-04-27T07:59:20.001Z</time></trkpt><trkpt lat="46.00889629360758" lon="12.76942931251026"><ele>60.4</ele><time>2026-04-27T07:59:21.001Z</time></trkpt><trkpt lat="46.0089836885775" lon="12.769529016801426"><ele>60.599999999999994</ele><time>2026-04-27T07:59:22.001Z</time></trkpt><trkpt lat="46.009058591646884" lon="12.769647144707221"><ele>60.8</ele><time>2026-04-27T07:59:23.001Z</time></trkpt><trkpt lat="46.00912294027332" lon="12.769769869769531"><ele>61.0</ele><time>2026-04-27T07:59:24.001Z</time></trkpt><trkpt lat="46.009182738713534" lon="12.769889619109117"><ele>60.666666666666664</ele><time>2026-04-27T07:59:25.001Z</time></trkpt><trkpt lat="46.009241582583115" lon="12.769993250732874"><ele>60.33333333333333</ele><time>2026-04-27T07:59:26.001Z</time></trkpt><trkpt lat="46.009294222441" lon="12.770100003231104"><ele>60.0</ele><time>2026-04-27T07:59:27.001Z</time></trkpt><trkpt lat="46.00933426163463" lon="12.770203980147564"><ele>59.66666666666667</ele><time>2026-04-27T07:59:28.001Z</time></trkpt><trkpt lat="46.00936851557648" lon="12.770312149106216"><ele>59.333333333333336</ele><time>2026-04-27T07:59:29.001Z</time></trkpt><trkpt lat="46.00938879412547" lon="12.770404741703183"><ele>59.0</ele><time>2026-04-27T07:59:30.001Z</time></trkpt><trkpt lat="46.00939329952752" lon="12.77055865864457"><ele>58.833333333333336</ele><time>2026-04-27T07:59:32.001Z</time></trkpt><trkpt lat="46.0093990725043" lon="12.770686447432638"><ele>58.66666666666667</ele><time>2026-04-27T07:59:33.001Z</time></trkpt><trkpt lat="46.009399241447305" lon="12.77078439064622"><ele>58.5</ele><time>2026-04-27T07:59:34.001Z</time></trkpt><trkpt lat="46.00940223459723" lon="12.770885451289486"><ele>58.33333333333333</ele><time>2026-04-27T07:59:35.001Z</time></trkpt><trkpt lat="46.00945187915819" lon="12.771042620686993"><ele>58.166666666666664</ele><time>2026-04-27T07:59:37.001Z</time></trkpt><trkpt lat="46.009514107655164" lon="12.771145462821467"><ele>58.0</ele><time>2026-04-27T07:59:38.001Z</time></trkpt><trkpt lat="46.009571066525126" lon="12.771240455937457"><ele>57.599999999999994</ele><time>2026-04-27T07:59:39.001Z</time></trkpt><trkpt lat="46.00962811084157" lon="12.771364535468267"><ele>57.199999999999996</ele><time>2026-04-27T07:59:40.001Z</time></trkpt><trkpt lat="46.00965516866058" lon="12.771471774992666"><ele>56.8</ele><time>2026-04-27T07:59:41.001Z</time></trkpt><trkpt lat="46.00969925949824" lon="12.771598685781663"><ele>56.4</ele><time>2026-04-27T07:59:42.001Z</time></trkpt><trkpt lat="46.00972937377801" lon="12.771728995120638"><ele>56.0</ele><time>2026-04-27T07:59:43.001Z</time></trkpt><trkpt lat="46.009759557545834" lon="12.7718446712018"><ele>56.00000000000001</ele><time>2026-04-27T07:59:44.002Z</time></trkpt><trkpt lat="46.00979521317618" lon="12.771937573199239"><ele>56.0</ele><time>2026-04-27T07:59:45.002Z</time></trkpt><trkpt lat="46.009833749863134" lon="12.77201713323751"><ele>56.0</ele><time>2026-04-27T07:59:46.002Z</time></trkpt><trkpt lat="46.00989025238366" lon="12.77209260127628"><ele>56.0</ele><time>2026-04-27T07:59:47.002Z</time></trkpt><trkpt lat="46.00996565989013" lon="12.772207610288737"><ele>56.00000000000001</ele><time>2026-04-27T07:59:48.002Z</time></trkpt><trkpt lat="46.01002472556761" lon="12.7722969561109"><ele>56.0</ele><time>2026-04-27T07:59:49.002Z</time></trkpt><trkpt lat="46.01008776453526" lon="12.772397521735007"><ele>56.199999999999996</ele><time>2026-04-27T07:59:50.002Z</time></trkpt><trkpt lat="46.01014250479349" lon="12.772468738277365"><ele>56.39999999999999</ele><time>2026-04-27T07:59:51.002Z</time></trkpt><trkpt lat="46.010232900708495" lon="12.772559304250002"><ele>56.6</ele><time>2026-04-27T07:59:53.002Z</time></trkpt><trkpt lat="46.010339967980656" lon="12.772625500942356"><ele>56.8</ele><time>2026-04-27T07:59:55.002Z</time></trkpt><trkpt lat="46.01040155523055" lon="12.77269967507322"><ele>57.0</ele><time>2026-04-27T07:59:56.002Z</time></trkpt><trkpt lat="46.01047207916959" lon="12.772791492551368"><ele>57.0</ele><time>2026-04-27T07:59:57.002Z</time></trkpt><trkpt lat="46.01051812711465" lon="12.772855061327375"><ele>57.0</ele><time>2026-04-27T07:59:58.002Z</time></trkpt><trkpt lat="46.0105748060837" lon="12.77291258830247"><ele>57.0</ele><time>2026-04-27T07:59:59.002Z</time></trkpt><trkpt lat="46.01063085569579" lon="12.772961501537676"><ele>57.0</ele><time>2026-04-27T08:00:00.002Z</time></trkpt><trkpt lat="46.010702911313956" lon="12.773052162530531"><ele>57.0</ele><time>2026-04-27T08:00:01.999Z</time></trkpt><trkpt lat="46.010791138078936" lon="12.773130326409174"><ele>57.0</ele><time>2026-04-27T08:00:03.999Z</time></trkpt><trkpt lat="46.010852013216265" lon="12.773189061366429"><ele>57.166666666666664</ele><time>2026-04-27T08:00:05.999Z</time></trkpt><trkpt lat="46.0109119108831" lon="12.773245405920997"><ele>57.33333333333333</ele><time>2026-04-27T08:00:07.999Z</time></trkpt><trkpt lat="46.01098084405305" lon="12.773360139927163"><ele>57.5</ele><time>2026-04-27T08:00:09.999Z</time></trkpt><trkpt lat="46.01101416364451" lon="12.773442597187577"><ele>57.666666666666664</ele><time>2026-04-27T08:00:10.999Z</time></trkpt><trkpt lat="46.01105644212047" lon="12.773524805220193"><ele>57.83333333333333</ele><time>2026-04-27T08:00:11.999Z</time></trkpt><trkpt lat="46.01113838675364" lon="12.773638633165733"><ele>58.0</ele><time>2026-04-27T08:00:13.999Z</time></trkpt><trkpt lat="46.01119378853394" lon="12.773698836939616"><ele>58.0</ele><time>2026-04-27T08:00:14.999Z</time></trkpt><trkpt lat="46.01125241290421" lon="12.773816540113936"><ele>58.0</ele><time>2026-04-27T08:00:16.999Z</time></trkpt><trkpt lat="46.0112937681468" lon="12.773907685076468"><ele>58.0</ele><time>2026-04-27T08:00:17.999Z</time></trkpt><trkpt lat="46.01133785662927" lon="12.774041797469998"><ele>58.0</ele><time>2026-04-27T08:00:18.999Z</time></trkpt><trkpt lat="46.01139291510582" lon="12.774200050444858"><ele>58.0</ele><time>2026-04-27T08:00:20.999Z</time></trkpt><trkpt lat="46.01143260694717" lon="12.774280512840754"><ele>58.0</ele><time>2026-04-27T08:00:21.999Z</time></trkpt><trkpt lat="46.01150238596772" lon="12.774375430605824"><ele>58.0</ele><time>2026-04-27T08:00:23Z</time></trkpt><trkpt lat="46.011602107730276" lon="12.774491574930527"><ele>58.0</ele><time>2026-04-27T08:00:24Z</time></trkpt><trkpt lat="46.011667162653936" lon="12.774604825833686"><ele>58.0</ele><time>2026-04-27T08:00:25Z</time></trkpt><trkpt lat="46.011720007648094" lon="12.7746976215717"><ele>58.0</ele><time>2026-04-27T08:00:26Z</time></trkpt><trkpt lat="46.011767122925235" lon="12.77477685609568"><ele>58.0</ele><time>2026-04-27T08:00:27Z</time></trkpt><trkpt lat="46.011823490646975" lon="12.774878773077848"><ele>58.0</ele><time>2026-04-27T08:00:28Z</time></trkpt><trkpt lat="46.01187632211212" lon="12.775011109261731"><ele>58.0</ele><time>2026-04-27T08:00:29Z</time></trkpt><trkpt lat="46.01191665899137" lon="12.7751269517815"><ele>58.0</ele><time>2026-04-27T08:00:30Z</time></trkpt><trkpt lat="46.011965498523764" lon="12.775226230098795"><ele>58.0</ele><time>2026-04-27T08:00:31Z</time></trkpt><trkpt lat="46.01204653691287" lon="12.775316481407001"><ele>57.8</ele><time>2026-04-27T08:00:32Z</time></trkpt><trkpt lat="46.012157927762495" lon="12.775405339530632"><ele>57.599999999999994</ele><time>2026-04-27T08:00:33Z</time></trkpt><trkpt lat="46.01227470313962" lon="12.775490058545053"><ele>57.400000000000006</ele><time>2026-04-27T08:00:34Z</time></trkpt><trkpt lat="46.01235887352568" lon="12.77557505260592"><ele>57.2</ele><time>2026-04-27T08:00:35Z</time></trkpt><trkpt lat="46.01240940609793" lon="12.775663846152424"><ele>57.0</ele><time>2026-04-27T08:00:36Z</time></trkpt><trkpt lat="46.01244387498767" lon="12.775792602325781"><ele>57.0</ele><time>2026-04-27T08:00:37Z</time></trkpt><trkpt lat="46.01247241995184" lon="12.77594716853006"><ele>57.0</ele><time>2026-04-27T08:00:38Z</time></trkpt><trkpt lat="46.012493805845594" lon="12.77613133818117"><ele>57.0</ele><time>2026-04-27T08:00:39Z</time></trkpt><trkpt lat="46.01251684438277" lon="12.776340723374767"><ele>57.0</ele><time>2026-04-27T08:00:40Z</time></trkpt><trkpt lat="46.01253730366663" lon="12.776522132460975"><ele>57.400000000000006</ele><time>2026-04-27T08:00:41Z</time></trkpt><trkpt lat="46.01257473074479" lon="12.776675069578362"><ele>57.800000000000004</ele><time>2026-04-27T08:00:42Z</time></trkpt><trkpt lat="46.01261959636608" lon="12.776828404065222"><ele>58.2</ele><time>2026-04-27T08:00:43Z</time></trkpt><trkpt lat="46.0126489661168" lon="12.776967499127547"><ele>58.6</ele><time>2026-04-27T08:00:44Z</time></trkpt><trkpt lat="46.01266486584105" lon="12.777110074419872"><ele>59.0</ele><time>2026-04-27T08:00:45Z</time></trkpt><trkpt lat="46.01271710775043" lon="12.777256602424284"><ele>59.0</ele><time>2026-04-27T08:00:46Z</time></trkpt><trkpt lat="46.01280947931443" lon="12.777405868285562"><ele>59.0</ele><time>2026-04-27T08:00:47Z</time></trkpt><trkpt lat="46.012910991167224" lon="12.777553524066812"><ele>59.0</ele><time>2026-04-27T08:00:48Z</time></trkpt><trkpt lat="46.012983250294134" lon="12.777679220951704"><ele>59.0</ele><time>2026-04-27T08:00:49Z</time></trkpt><trkpt lat="46.01304851956606" lon="12.777793522788555"><ele>59.0</ele><time>2026-04-27T08:00:50Z</time></trkpt><trkpt lat="46.01310758826148" lon="12.777900416578039"><ele>59.0</ele><time>2026-04-27T08:00:51Z</time></trkpt><trkpt lat="46.01317140658036" lon="12.77803641610223"><ele>59.0</ele><time>2026-04-27T08:00:52Z</time></trkpt><trkpt lat="46.0132462830973" lon="12.778188943975096"><ele>59.0</ele><time>2026-04-27T08:00:53Z</time></trkpt><trkpt lat="46.01333564227607" lon="12.778340338215916"><ele>59.25</ele><time>2026-04-27T08:00:54Z</time></trkpt><trkpt lat="46.013434500194506" lon="12.778492556689741"><ele>59.5</ele><time>2026-04-27T08:00:55Z</time></trkpt><trkpt lat="46.0135259670607" lon="12.778640849298073"><ele>59.75</ele><time>2026-04-27T08:00:56Z</time></trkpt><trkpt lat="46.01361072403927" lon="12.778780977260757"><ele>60.0</ele><time>2026-04-27T08:00:57.001Z</time></trkpt><trkpt lat="46.01370517683359" lon="12.778950121113667"><ele>60.0</ele><time>2026-04-27T08:00:58.001Z</time></trkpt><trkpt lat="46.013787977988606" lon="12.7791167937407"><ele>60.0</ele><time>2026-04-27T08:00:59.001Z</time></trkpt><trkpt lat="46.01386873493839" lon="12.779282560388491"><ele>60.0</ele><time>2026-04-27T08:01:00.001Z</time></trkpt><trkpt lat="46.013936761120576" lon="12.779429185226649"><ele>60.0</ele><time>2026-04-27T08:01:01.001Z</time></trkpt><trkpt lat="46.014027806066686" lon="12.779579276360845"><ele>60.0</ele><time>2026-04-27T08:01:02.001Z</time></trkpt><trkpt lat="46.01411943185206" lon="12.779709213718805"><ele>60.0</ele><time>2026-04-27T08:01:03.001Z</time></trkpt><trkpt lat="46.01420980965339" lon="12.779836970235843"><ele>60.0</ele><time>2026-04-27T08:01:04.001Z</time></trkpt><trkpt lat="46.01429291193037" lon="12.779949390695188"><ele>60.0</ele><time>2026-04-27T08:01:05.001Z</time></trkpt><trkpt lat="46.014367427006476" lon="12.78004474197188"><ele>60.25</ele><time>2026-04-27T08:01:06.001Z</time></trkpt><trkpt lat="46.01446013010944" lon="12.780151902902666"><ele>60.5</ele><time>2026-04-27T08:01:07.001Z</time></trkpt><trkpt lat="46.01457003394513" lon="12.78025744119773"><ele>60.75</ele><time>2026-04-27T08:01:08.001Z</time></trkpt><trkpt lat="46.014693646028036" lon="12.78036409517042"><ele>61.0</ele><time>2026-04-27T08:01:09.001Z</time></trkpt><trkpt lat="46.0148059784008" lon="12.780469273239865"><ele>61.0</ele><time>2026-04-27T08:01:10.001Z</time></trkpt><trkpt lat="46.0149086012591" lon="12.780599324059168"><ele>61.0</ele><time>2026-04-27T08:01:11.001Z</time></trkpt><trkpt lat="46.01498419639375" lon="12.780751018069484"><ele>61.0</ele><time>2026-04-27T08:01:12.001Z</time></trkpt><trkpt lat="46.01505810540732" lon="12.780930753325995"><ele>61.0</ele><time>2026-04-27T08:01:13.001Z</time></trkpt><trkpt lat="46.015106208529886" lon="12.781113008780386"><ele>60.75</ele><time>2026-04-27T08:01:14.001Z</time></trkpt><trkpt lat="46.015129490829494" lon="12.781282008416186"><ele>60.5</ele><time>2026-04-27T08:01:15.001Z</time></trkpt><trkpt lat="46.01516245777139" lon="12.781494278465074"><ele>60.25</ele><time>2026-04-27T08:01:16.001Z</time></trkpt><trkpt lat="46.01518029781261" lon="12.781667925494512"><ele>60.0</ele><time>2026-04-27T08:01:17.001Z</time></trkpt><trkpt lat="46.015209333426185" lon="12.78184863802636"><ele>59.5</ele><time>2026-04-27T08:01:18.001Z</time></trkpt><trkpt lat="46.015239633565386" lon="12.782038501977528"><ele>59.0</ele><time>2026-04-27T08:01:19.001Z</time></trkpt><trkpt lat="46.01526671171777" lon="12.782248233032071"><ele>58.5</ele><time>2026-04-27T08:01:20.001Z</time></trkpt><trkpt lat="46.015295910325804" lon="12.782441425192093"><ele>58.0</ele><time>2026-04-27T08:01:21.001Z</time></trkpt><trkpt lat="46.01532801596521" lon="12.78264202648153"><ele>57.666666666666664</ele><time>2026-04-27T08:01:22.001Z</time></trkpt><trkpt lat="46.015364720580386" lon="12.782847204264977"><ele>57.33333333333333</ele><time>2026-04-27T08:01:23.001Z</time></trkpt><trkpt lat="46.0154087890669" lon="12.783057193553166"><ele>57.0</ele><time>2026-04-27T08:01:24.001Z</time></trkpt><trkpt lat="46.015453535155224" lon="12.783272036726391"><ele>57.0</ele><time>2026-04-27T08:01:25.001Z</time></trkpt><trkpt lat="46.01550489587724" lon="12.783508736247287"><ele>57.0</ele><time>2026-04-27T08:01:26.001Z</time></trkpt><trkpt lat="46.015557977909225" lon="12.783726837720573"><ele>57.0</ele><time>2026-04-27T08:01:27.001Z</time></trkpt><trkpt lat="46.01560969031158" lon="12.783923837332575"><ele>57.0</ele><time>2026-04-27T08:01:28.001Z</time></trkpt><trkpt lat="46.015653210183906" lon="12.784118999387916"><ele>57.0</ele><time>2026-04-27T08:01:29.001Z</time></trkpt><trkpt lat="46.015702718970516" lon="12.784317915378097"><ele>57.0</ele><time>2026-04-27T08:01:30.001Z</time></trkpt><trkpt lat="46.01575505438179" lon="12.784528521357306"><ele>57.0</ele><time>2026-04-27T08:01:31.001Z</time></trkpt><trkpt lat="46.01581174581417" lon="12.784743885738452"><ele>57.33333333333333</ele><time>2026-04-27T08:01:32.001Z</time></trkpt><trkpt lat="46.01586633633397" lon="12.784972046103892"><ele>57.666666666666664</ele><time>2026-04-27T08:01:33.001Z</time></trkpt><trkpt lat="46.0159364326243" lon="12.785247523174311"><ele>58.0</ele><time>2026-04-27T08:01:34.001Z</time></trkpt><trkpt lat="46.01599848606005" lon="12.785506907824326"><ele>58.0</ele><time>2026-04-27T08:01:35.001Z</time></trkpt><trkpt lat="46.0160538251286" lon="12.78572629538294"><ele>58.0</ele><time>2026-04-27T08:01:36.001Z</time></trkpt><trkpt lat="46.0161004600575" lon="12.785931959478836"><ele>58.0</ele><time>2026-04-27T08:01:37.001Z</time></trkpt><trkpt lat="46.01613801894546" lon="12.786139387832232"><ele>58.0</ele><time>2026-04-27T08:01:38.001Z</time></trkpt><trkpt lat="46.016181932041846" lon="12.786343040130692"><ele>58.0</ele><time>2026-04-27T08:01:39.001Z</time></trkpt><trkpt lat="46.016226348330214" lon="12.7865421753398"><ele>58.0</ele><time>2026-04-27T08:01:40.001Z</time></trkpt><trkpt lat="46.01626591131812" lon="12.786732942473815"><ele>58.0</ele><time>2026-04-27T08:01:41.001Z</time></trkpt><trkpt lat="46.0163122243723" lon="12.78693154950459"><ele>58.33333333333333</ele><time>2026-04-27T08:01:42.002Z</time></trkpt><trkpt lat="46.01636160532193" lon="12.787133499136168"><ele>58.66666666666667</ele><time>2026-04-27T08:01:43.002Z</time></trkpt><trkpt lat="46.01642977862412" lon="12.787342679308143"><ele>59.0</ele><time>2026-04-27T08:01:44.002Z</time></trkpt><trkpt lat="46.01647631201636" lon="12.787550806854451"><ele>58.66666666666667</ele><time>2026-04-27T08:01:45.002Z</time></trkpt><trkpt lat="46.016535148940584" lon="12.787765266724902"><ele>58.33333333333333</ele><time>2026-04-27T08:01:46.002Z</time></trkpt><trkpt lat="46.01658342836116" lon="12.787973646837711"><ele>58.0</ele><time>2026-04-27T08:01:47.002Z</time></trkpt><trkpt lat="46.016631190718286" lon="12.788178567749059"><ele>58.25</ele><time>2026-04-27T08:01:48.002Z</time></trkpt><trkpt lat="46.01666628280354" lon="12.788353771768174"><ele>58.5</ele><time>2026-04-27T08:01:49.002Z</time></trkpt><trkpt lat="46.01670143747279" lon="12.78853768252483"><ele>58.75</ele><time>2026-04-27T08:01:50.002Z</time></trkpt><trkpt lat="46.016748626477415" lon="12.788733879590426"><ele>59.0</ele><time>2026-04-27T08:01:51.002Z</time></trkpt><trkpt lat="46.01680426872968" lon="12.788962055045687"><ele>59.25</ele><time>2026-04-27T08:01:52.002Z</time></trkpt><trkpt lat="46.01684181430798" lon="12.789149910295402"><ele>59.5</ele><time>2026-04-27T08:01:53.002Z</time></trkpt><trkpt lat="46.016889981850014" lon="12.789344602835305"><ele>59.75</ele><time>2026-04-27T08:01:54.002Z</time></trkpt><trkpt lat="46.016933096368135" lon="12.789535477081944"><ele>60.0</ele><time>2026-04-27T08:01:55.002Z</time></trkpt><trkpt lat="46.016966724750404" lon="12.789741367501682"><ele>60.5</ele><time>2026-04-27T08:01:56.002Z</time></trkpt><trkpt lat="46.01699731571786" lon="12.789949625173099"><ele>61.0</ele><time>2026-04-27T08:01:57.002Z</time></trkpt><trkpt lat="46.017015589922494" lon="12.79015974282306"><ele>61.5</ele><time>2026-04-27T08:01:58.002Z</time></trkpt><trkpt lat="46.017047616226655" lon="12.790375880849531"><ele>62.0</ele><time>2026-04-27T08:01:59.002Z</time></trkpt><trkpt lat="46.0171028633348" lon="12.790586749796315"><ele>62.0</ele><time>2026-04-27T08:02:00.002Z</time></trkpt><trkpt lat="46.0171736752631" lon="12.790810859621883"><ele>62.0</ele><time>2026-04-27T08:02:01.002Z</time></trkpt><trkpt lat="46.017235421520176" lon="12.791033731019683"><ele>62.0</ele><time>2026-04-27T08:02:02.002Z</time></trkpt><trkpt lat="46.017280538379374" lon="12.791231040888738"><ele>62.0</ele><time>2026-04-27T08:02:03.002Z</time></trkpt><trkpt lat="46.017321971828274" lon="12.791409155960036"><ele>62.0</ele><time>2026-04-27T08:02:04.002Z</time></trkpt><trkpt lat="46.017355674439045" lon="12.79156743434461"><ele>62.0</ele><time>2026-04-27T08:02:05.002Z</time></trkpt><trkpt lat="46.01739991088257" lon="12.791738147663919"><ele>62.0</ele><time>2026-04-27T08:02:06.002Z</time></trkpt><trkpt lat="46.01745642115461" lon="12.791935217195425"><ele>62.333333333333336</ele><time>2026-04-27T08:02:06.999Z</time></trkpt><trkpt lat="46.01750734876846" lon="12.792144454037823"><ele>62.66666666666667</ele><time>2026-04-27T08:02:07.999Z</time></trkpt><trkpt lat="46.017546716450404" lon="12.79235432030249"><ele>63.0</ele><time>2026-04-27T08:02:09Z</time></trkpt><trkpt lat="46.01759621243467" lon="12.792599824562856"><ele>63.0</ele><time>2026-04-27T08:02:10Z</time></trkpt><trkpt lat="46.017645535559254" lon="12.792838638922884"><ele>63.0</ele><time>2026-04-27T08:02:11Z</time></trkpt><trkpt lat="46.0176735321314" lon="12.793036476821872"><ele>63.0</ele><time>2026-04-27T08:02:12Z</time></trkpt><trkpt lat="46.017702290285335" lon="12.793216674216971"><ele>63.0</ele><time>2026-04-27T08:02:13Z</time></trkpt><trkpt lat="46.01773889007813" lon="12.793422743732767"><ele>63.0</ele><time>2026-04-27T08:02:14Z</time></trkpt><trkpt lat="46.017769898591595" lon="12.79361284065271"><ele>63.0</ele><time>2026-04-27T08:02:15Z</time></trkpt><trkpt lat="46.017803220807174" lon="12.793778416888257"><ele>63.0</ele><time>2026-04-27T08:02:16Z</time></trkpt><trkpt lat="46.01783873766146" lon="12.793938439733216"><ele>63.0</ele><time>2026-04-27T08:02:17Z</time></trkpt><trkpt lat="46.01786748179425" lon="12.79407013913987"><ele>63.0</ele><time>2026-04-27T08:02:18Z</time></trkpt><trkpt lat="46.01790850906283" lon="12.794185201320255"><ele>63.0</ele><time>2026-04-27T08:02:19Z</time></trkpt><trkpt lat="46.017951672287715" lon="12.794262421489416"><ele>63.0</ele><time>2026-04-27T08:02:20Z</time></trkpt><trkpt lat="46.01802747399033" lon="12.79435685655982"><ele>63.0</ele><time>2026-04-27T08:02:22Z</time></trkpt><trkpt lat="46.01809651503674" lon="12.794407269347904"><ele>63.0</ele><time>2026-04-27T08:02:23Z</time></trkpt><trkpt lat="46.01815949554207" lon="12.794710781981255"><ele>63.0</ele><time>2026-04-27T08:02:24Z</time></trkpt><trkpt lat="46.018305763911926" lon="12.794774737149488"><ele>63.0</ele><time>2026-04-27T08:02:25Z</time></trkpt><trkpt lat="46.018441877871695" lon="12.794835953469226"><ele>63.0</ele><time>2026-04-27T08:02:26Z</time></trkpt><trkpt lat="46.018602081042125" lon="12.794909662304267"><ele>63.25</ele><time>2026-04-27T08:02:27Z</time></trkpt><trkpt lat="46.01876065342146" lon="12.794985475798514"><ele>63.5</ele><time>2026-04-27T08:02:28Z</time></trkpt><trkpt lat="46.01888455922304" lon="12.795044961343198"><ele>63.75</ele><time>2026-04-27T08:02:29Z</time></trkpt><trkpt lat="46.01901543238314" lon="12.79510823836629"><ele>64.0</ele><time>2026-04-27T08:02:30Z</time></trkpt><trkpt lat="46.01914545945327" lon="12.79517287877994"><ele>64.0</ele><time>2026-04-27T08:02:31Z</time></trkpt><trkpt lat="46.01928625132514" lon="12.795242870760477"><ele>64.0</ele><time>2026-04-27T08:02:32Z</time></trkpt><trkpt lat="46.01943348137923" lon="12.795316197478483"><ele>64.0</ele><time>2026-04-27T08:02:33Z</time></trkpt><trkpt lat="46.019586737642875" lon="12.79539317358224"><ele>64.0</ele><time>2026-04-27T08:02:34Z</time></trkpt><trkpt lat="46.01973957076871" lon="12.795469937078279"><ele>64.0</ele><time>2026-04-27T08:02:35Z</time></trkpt><trkpt lat="46.01989898454311" lon="12.79554866021781"><ele>64.0</ele><time>2026-04-27T08:02:36Z</time></trkpt><trkpt lat="46.0200543611237" lon="12.795622598000653"><ele>64.25</ele><time>2026-04-27T08:02:37Z</time></trkpt><trkpt lat="46.02020211437435" lon="12.79569191722093"><ele>64.5</ele><time>2026-04-27T08:02:38Z</time></trkpt><trkpt lat="46.02032074537123" lon="12.795745045618846"><ele>64.75</ele><time>2026-04-27T08:02:39Z</time></trkpt><trkpt lat="46.02044222207253" lon="12.795795920498925"><ele>65.0</ele><time>2026-04-27T08:02:40Z</time></trkpt><trkpt lat="46.02055178522344" lon="12.79583993494284"><ele>65.0</ele><time>2026-04-27T08:02:41Z</time></trkpt><trkpt lat="46.020647091703694" lon="12.795876307422441"><ele>65.0</ele><time>2026-04-27T08:02:42Z</time></trkpt><trkpt lat="46.02072388173802" lon="12.795905613335455"><ele>65.0</ele><time>2026-04-27T08:02:43Z</time></trkpt><trkpt lat="46.020840791134624" lon="12.795950230271403"><ele>65.0</ele><time>2026-04-27T08:02:45Z</time></trkpt><trkpt lat="46.02090756513235" lon="12.79576438800267"><ele>65.0</ele><time>2026-04-27T08:02:47Z</time></trkpt><trkpt lat="46.02087438648133" lon="12.795937890105803"><ele>65.0</ele><time>2026-04-27T08:02:48Z</time></trkpt><trkpt lat="46.02083476611178" lon="12.796087423590993"><ele>65.0</ele><time>2026-04-27T08:02:49Z</time></trkpt><trkpt lat="46.02081577265541" lon="12.796213557678483"><ele>65.0</ele><time>2026-04-27T08:02:50Z</time></trkpt><trkpt lat="46.020778796734746" lon="12.796305135679564"><ele>65.0</ele><time>2026-04-27T08:02:51Z</time></trkpt><trkpt lat="46.020776325704546" lon="12.796442093164403"><ele>65.0</ele><time>2026-04-27T08:02:53.001Z</time></trkpt><trkpt lat="46.02087316110851" lon="12.796531919313214"><ele>65.25</ele><time>2026-04-27T08:02:55.001Z</time></trkpt><trkpt lat="46.02098061318901" lon="12.796548535037285"><ele>65.5</ele><time>2026-04-27T08:02:56.001Z</time></trkpt><trkpt lat="46.02109300901838" lon="12.796557834291598"><ele>65.75</ele><time>2026-04-27T08:02:57.001Z</time></trkpt><trkpt lat="46.02120923872356" lon="12.796524058687556"><ele>66.0</ele><time>2026-04-27T08:02:58.001Z</time></trkpt><trkpt lat="46.02132709719929" lon="12.796456829825662"><ele>66.0</ele><time>2026-04-27T08:02:59.001Z</time></trkpt><trkpt lat="46.02142737908559" lon="12.796412632042337"><ele>66.0</ele><time>2026-04-27T08:03:00.001Z</time></trkpt><trkpt lat="46.0215330753397" lon="12.796440344766607"><ele>66.0</ele><time>2026-04-27T08:03:01.001Z</time></trkpt><trkpt lat="46.021691044548405" lon="12.796388846768359"><ele>66.0</ele><time>2026-04-27T08:03:02.001Z</time></trkpt><trkpt lat="46.02187269457408" lon="12.796443719077363"><ele>66.66666666666667</ele><time>2026-04-27T08:03:03.001Z</time></trkpt><trkpt lat="46.022047894880025" lon="12.796493302850003"><ele>67.33333333333334</ele><time>2026-04-27T08:03:04.001Z</time></trkpt><trkpt lat="46.02218937392583" lon="12.796532993599046"><ele>68.0</ele><time>2026-04-27T08:03:05.001Z</time></trkpt><trkpt lat="46.022314419522615" lon="12.796566305913448"><ele>68.0</ele><time>2026-04-27T08:03:06.001Z</time></trkpt><trkpt lat="46.02243187714114" lon="12.796597334010267"><ele>68.0</ele><time>2026-04-27T08:03:07.001Z</time></trkpt><trkpt lat="46.02255063591715" lon="12.796625840913139"><ele>68.0</ele><time>2026-04-27T08:03:08.001Z</time></trkpt><trkpt lat="46.02267169202852" lon="12.796654899290132"><ele>68.0</ele><time>2026-04-27T08:03:09.001Z</time></trkpt><trkpt lat="46.02280050385715" lon="12.796683814111816"><ele>67.75</ele><time>2026-04-27T08:03:10.001Z</time></trkpt><trkpt lat="46.022941631745674" lon="12.796714176957897"><ele>67.5</ele><time>2026-04-27T08:03:11.001Z</time></trkpt><trkpt lat="46.02308149798755" lon="12.796741807213749"><ele>67.25</ele><time>2026-04-27T08:03:12.001Z</time></trkpt><trkpt lat="46.023213596924045" lon="12.796767277807746"><ele>67.0</ele><time>2026-04-27T08:03:13.001Z</time></trkpt><trkpt lat="46.02332943484257" lon="12.796787986655836"><ele>67.0</ele><time>2026-04-27T08:03:14.001Z</time></trkpt><trkpt lat="46.023456297545586" lon="12.796809415924033"><ele>67.0</ele><time>2026-04-27T08:03:15.001Z</time></trkpt><trkpt lat="46.023594131157616" lon="12.796831206157938"><ele>67.0</ele><time>2026-04-27T08:03:16.001Z</time></trkpt><trkpt lat="46.023729270570854" lon="12.796850869250237"><ele>67.0</ele><time>2026-04-27T08:03:17.001Z</time></trkpt><trkpt lat="46.02383669646376" lon="12.796866499978913"><ele>67.2</ele><time>2026-04-27T08:03:18.001Z</time></trkpt><trkpt lat="46.0239395634333" lon="12.796881467337684"><ele>67.4</ele><time>2026-04-27T08:03:19.001Z</time></trkpt><trkpt lat="46.02403755762731" lon="12.796895725730003"><ele>67.6</ele><time>2026-04-27T08:03:20.001Z</time></trkpt><trkpt lat="46.024132515100206" lon="12.796909542275902"><ele>67.8</ele><time>2026-04-27T08:03:21.001Z</time></trkpt><trkpt lat="46.02425232125551" lon="12.796926974362275"><ele>68.0</ele><time>2026-04-27T08:03:22.001Z</time></trkpt><trkpt lat="46.024371140151636" lon="12.7969442627897"><ele>68.25</ele><time>2026-04-27T08:03:23.001Z</time></trkpt><trkpt lat="46.024494106709746" lon="12.796962334694014"><ele>68.5</ele><time>2026-04-27T08:03:24.001Z</time></trkpt><trkpt lat="46.024614627705844" lon="12.796980774748814"><ele>68.75</ele><time>2026-04-27T08:03:25.001Z</time></trkpt><trkpt lat="46.02473086321223" lon="12.796999300343813"><ele>69.0</ele><time>2026-04-27T08:03:26.001Z</time></trkpt><trkpt lat="46.024876367417555" lon="12.797024895460003"><ele>68.5</ele><time>2026-04-27T08:03:27.001Z</time></trkpt><trkpt lat="46.02502593461843" lon="12.797052779720115"><ele>68.0</ele><time>2026-04-27T08:03:28.001Z</time></trkpt><trkpt lat="46.02516318674314" lon="12.797079927355341"><ele>67.5</ele><time>2026-04-27T08:03:29.001Z</time></trkpt><trkpt lat="46.0253024472337" lon="12.7971087006711"><ele>67.0</ele><time>2026-04-27T08:03:30.001Z</time></trkpt><trkpt lat="46.025450688570785" lon="12.797141313164383"><ele>67.0</ele><time>2026-04-27T08:03:31.001Z</time></trkpt><trkpt lat="46.02559636704544" lon="12.797174484657766"><ele>67.0</ele><time>2026-04-27T08:03:32.001Z</time></trkpt><trkpt lat="46.025726860319686" lon="12.797205468408578"><ele>67.0</ele><time>2026-04-27T08:03:33.001Z</time></trkpt><trkpt lat="46.02584417474688" lon="12.79723371148813"><ele>67.0</ele><time>2026-04-27T08:03:34.001Z</time></trkpt><trkpt lat="46.02596060463314" lon="12.797262543408063"><ele>68.0</ele><time>2026-04-27T08:03:35.001Z</time></trkpt><trkpt lat="46.026103041795785" lon="12.797298869672158"><ele>69.0</ele><time>2026-04-27T08:03:36.002Z</time></trkpt><trkpt lat="46.026250278840614" lon="12.797337974408272"><ele>70.0</ele><time>2026-04-27T08:03:37.002Z</time></trkpt><trkpt lat="46.02640485190129" lon="12.797380759525115"><ele>70.0</ele><time>2026-04-27T08:03:38.002Z</time></trkpt><trkpt lat="46.02654556311805" lon="12.797421689516142"><ele>70.0</ele><time>2026-04-27T08:03:39.002Z</time></trkpt><trkpt lat="46.02668012538935" lon="12.797462601417344"><ele>70.0</ele><time>2026-04-27T08:03:40.002Z</time></trkpt><trkpt lat="46.026832114395546" lon="12.797510064264369"><ele>70.0</ele><time>2026-04-27T08:03:41.002Z</time></trkpt><trkpt lat="46.02700250080052" lon="12.797564703449854"><ele>70.33333333333333</ele><time>2026-04-27T08:03:42.002Z</time></trkpt><trkpt lat="46.027194789082735" lon="12.797626366117772"><ele>70.66666666666667</ele><time>2026-04-27T08:03:43.002Z</time></trkpt><trkpt lat="46.027381771212745" lon="12.797686327194524"><ele>71.0</ele><time>2026-04-27T08:03:44.002Z</time></trkpt><trkpt lat="46.02758101977719" lon="12.79774968212305"><ele>71.66666666666667</ele><time>2026-04-27T08:03:45.002Z</time></trkpt><trkpt lat="46.027733674401155" lon="12.797797962727941"><ele>72.33333333333333</ele><time>2026-04-27T08:03:46.002Z</time></trkpt><trkpt lat="46.027877818408456" lon="12.79784355163477"><ele>73.0</ele><time>2026-04-27T08:03:47.002Z</time></trkpt><trkpt lat="46.02803127253527" lon="12.797892085149872"><ele>73.0</ele><time>2026-04-27T08:03:48.002Z</time></trkpt><trkpt lat="46.02818741178615" lon="12.797941467871246"><ele>73.0</ele><time>2026-04-27T08:03:49.002Z</time></trkpt><trkpt lat="46.02834335674299" lon="12.797990789206292"><ele>73.0</ele><time>2026-04-27T08:03:50.002Z</time></trkpt><trkpt lat="46.02849109701042" lon="12.79803751555507"><ele>73.0</ele><time>2026-04-27T08:03:51.002Z</time></trkpt><trkpt lat="46.02863399948863" lon="12.798082711787682"><ele>73.0</ele><time>2026-04-27T08:03:52.002Z</time></trkpt><trkpt lat="46.028785627217566" lon="12.798130667609206"><ele>73.0</ele><time>2026-04-27T08:03:53.002Z</time></trkpt><trkpt lat="46.02894144187345" lon="12.798179947754813"><ele>73.0</ele><time>2026-04-27T08:03:54.002Z</time></trkpt><trkpt lat="46.02910001037039" lon="12.798230098770123"><ele>73.0</ele><time>2026-04-27T08:03:55.002Z</time></trkpt><trkpt lat="46.02925606025623" lon="12.79827945326621"><ele>73.0</ele><time>2026-04-27T08:03:56.002Z</time></trkpt><trkpt lat="46.02940994268673" lon="12.798328122135437"><ele>73.0</ele><time>2026-04-27T08:03:57.002Z</time></trkpt><trkpt lat="46.029570231360275" lon="12.79837932186325"><ele>73.0</ele><time>2026-04-27T08:03:58.002Z</time></trkpt><trkpt lat="46.029731969776684" lon="12.798431140828463"><ele>73.0</ele><time>2026-04-27T08:03:59.002Z</time></trkpt><trkpt lat="46.02988571590331" lon="12.798480399144918"><ele>73.25</ele><time>2026-04-27T08:04:00.002Z</time></trkpt><trkpt lat="46.03003837399146" lon="12.798529308850336"><ele>73.5</ele><time>2026-04-27T08:04:01.002Z</time></trkpt><trkpt lat="46.030171703014425" lon="12.798572025832716"><ele>73.75</ele><time>2026-04-27T08:04:02.002Z</time></trkpt><trkpt lat="46.03029205382289" lon="12.798610584683562"><ele>74.0</ele><time>2026-04-27T08:04:03.002Z</time></trkpt><trkpt lat="46.03038522343751" lon="12.79864043512215"><ele>74.0</ele><time>2026-04-27T08:04:04.002Z</time></trkpt><trkpt lat="46.03047245027072" lon="12.798668381411145"><ele>74.0</ele><time>2026-04-27T08:04:06.002Z</time></trkpt><trkpt lat="46.030426300019485" lon="12.798948824676675"><ele>74.0</ele><time>2026-04-27T08:04:08.002Z</time></trkpt><trkpt lat="46.03038040941826" lon="12.799089579667614"><ele>74.0</ele><time>2026-04-27T08:04:09.002Z</time></trkpt><trkpt lat="46.03033172264801" lon="12.799269929183241"><ele>74.5</ele><time>2026-04-27T08:04:10.002Z</time></trkpt><trkpt lat="46.03029972522668" lon="12.799469097818955"><ele>75.0</ele><time>2026-04-27T08:04:11.002Z</time></trkpt><trkpt lat="46.03026494976152" lon="12.799681034499308"><ele>75.5</ele><time>2026-04-27T08:04:12.002Z</time></trkpt><trkpt lat="46.03023897618922" lon="12.79982811887967"><ele>76.0</ele><time>2026-04-27T08:04:13Z</time></trkpt><trkpt lat="46.0302317843258" lon="12.799919359492835"><ele>76.0</ele><time>2026-04-27T08:04:14Z</time></trkpt><trkpt lat="46.030267793129575" lon="12.800020208320891"><ele>76.0</ele><time>2026-04-27T08:04:16Z</time></trkpt><trkpt lat="46.0304073246894" lon="12.800074668892004"><ele>76.0</ele><time>2026-04-27T08:04:18Z</time></trkpt><trkpt lat="46.03050604050696" lon="12.800099488510625"><ele>76.0</ele><time>2026-04-27T08:04:19Z</time></trkpt><trkpt lat="46.03057919528112" lon="12.80016783046748"><ele>76.0</ele><time>2026-04-27T08:04:20Z</time></trkpt><trkpt lat="46.03063888181247" lon="12.800265235853145"><ele>76.0</ele><time>2026-04-27T08:04:21Z</time></trkpt><trkpt lat="46.0306850355305" lon="12.800399291216932"><ele>76.0</ele><time>2026-04-27T08:04:22Z</time></trkpt><trkpt lat="46.03071521909483" lon="12.800555387185977"><ele>76.0</ele><time>2026-04-27T08:04:23Z</time></trkpt><trkpt lat="46.03075887657237" lon="12.800726086394732"><ele>76.0</ele><time>2026-04-27T08:04:24Z</time></trkpt><trkpt lat="46.0308451313092" lon="12.800916615195154"><ele>76.0</ele><time>2026-04-27T08:04:25Z</time></trkpt><trkpt lat="46.03094365380805" lon="12.801118216093538"><ele>76.0</ele><time>2026-04-27T08:04:26Z</time></trkpt><trkpt lat="46.03106174749967" lon="12.801315719236836"><ele>76.0</ele><time>2026-04-27T08:04:27Z</time></trkpt><trkpt lat="46.031171393981765" lon="12.801492710196749"><ele>76.0</ele><time>2026-04-27T08:04:28Z</time></trkpt><trkpt lat="46.031272311018505" lon="12.801653447879938"><ele>76.0</ele><time>2026-04-27T08:04:29Z</time></trkpt><trkpt lat="46.031367189039756" lon="12.801793749686768"><ele>76.0</ele><time>2026-04-27T08:04:30Z</time></trkpt><trkpt lat="46.031488314230806" lon="12.801952540583002"><ele>75.66666666666666</ele><time>2026-04-27T08:04:31Z</time></trkpt><trkpt lat="46.03161245773461" lon="12.802103482379271"><ele>75.33333333333333</ele><time>2026-04-27T08:04:32Z</time></trkpt><trkpt lat="46.031730922798005" lon="12.802266345550173"><ele>75.0</ele><time>2026-04-27T08:04:33Z</time></trkpt><trkpt lat="46.031860358854374" lon="12.802450068028586"><ele>75.0</ele><time>2026-04-27T08:04:34Z</time></trkpt><trkpt lat="46.031996059072206" lon="12.802635086551478"><ele>75.0</ele><time>2026-04-27T08:04:35Z</time></trkpt><trkpt lat="46.03213105645528" lon="12.8028088127789"><ele>75.0</ele><time>2026-04-27T08:04:36Z</time></trkpt><trkpt lat="46.03227727595205" lon="12.802977042198632"><ele>75.33333333333333</ele><time>2026-04-27T08:04:37Z</time></trkpt><trkpt lat="46.03243389067973" lon="12.803154596004134"><ele>75.66666666666666</ele><time>2026-04-27T08:04:38Z</time></trkpt><trkpt lat="46.0325657816205" lon="12.803295581472586"><ele>76.0</ele><time>2026-04-27T08:04:39Z</time></trkpt><trkpt lat="46.03266902342675" lon="12.803394829842171"><ele>76.75</ele><time>2026-04-27T08:04:40.001Z</time></trkpt><trkpt lat="46.03272928337074" lon="12.803521898792143"><ele>77.5</ele><time>2026-04-27T08:04:41.001Z</time></trkpt><trkpt lat="46.032804568351516" lon="12.803563105557199"><ele>78.25</ele><time>2026-04-27T08:04:42.001Z</time></trkpt><trkpt lat="46.03288686898717" lon="12.80370075599444"><ele>79.0</ele><time>2026-04-27T08:04:43.001Z</time></trkpt><trkpt lat="46.032970623922594" lon="12.803862135844692"><ele>79.0</ele><time>2026-04-27T08:04:44.001Z</time></trkpt><trkpt lat="46.03306737233809" lon="12.804053186953018"><ele>79.0</ele><time>2026-04-27T08:04:45.001Z</time></trkpt><trkpt lat="46.033184525068826" lon="12.804254186456268"><ele>79.0</ele><time>2026-04-27T08:04:46.001Z</time></trkpt><trkpt lat="46.03331291033446" lon="12.804464825487676"><ele>79.0</ele><time>2026-04-27T08:04:47.001Z</time></trkpt><trkpt lat="46.03344455578048" lon="12.804686463428622"><ele>79.0</ele><time>2026-04-27T08:04:48.001Z</time></trkpt><trkpt lat="46.03357209818932" lon="12.804907228148958"><ele>79.0</ele><time>2026-04-27T08:04:49.001Z</time></trkpt><trkpt lat="46.033686842716655" lon="12.805107365570832"><ele>79.0</ele><time>2026-04-27T08:04:50.001Z</time></trkpt><trkpt lat="46.03379039477448" lon="12.805290792386193"><ele>79.0</ele><time>2026-04-27T08:04:51.001Z</time></trkpt><trkpt lat="46.033883256301536" lon="12.805466078986653"><ele>79.0</ele><time>2026-04-27T08:04:52.001Z</time></trkpt><trkpt lat="46.03396460272704" lon="12.805613820968793"><ele>79.0</ele><time>2026-04-27T08:04:53.001Z</time></trkpt><trkpt lat="46.03401878388703" lon="12.805747839081782"><ele>79.0</ele><time>2026-04-27T08:04:54.001Z</time></trkpt><trkpt lat="46.03405728160847" lon="12.805882235879034"><ele>79.0</ele><time>2026-04-27T08:04:55.001Z</time></trkpt><trkpt lat="46.03408603115608" lon="12.806027779877134"><ele>79.0</ele><time>2026-04-27T08:04:56.001Z</time></trkpt><trkpt lat="46.03411315434031" lon="12.806203492596111"><ele>79.0</ele><time>2026-04-27T08:04:57.001Z</time></trkpt><trkpt lat="46.034152427741816" lon="12.806404917748107"><ele>78.66666666666666</ele><time>2026-04-27T08:04:58.001Z</time></trkpt><trkpt lat="46.03418908450832" lon="12.806628689173925"><ele>78.33333333333333</ele><time>2026-04-27T08:04:59.001Z</time></trkpt><trkpt lat="46.034234886485386" lon="12.806865109769006"><ele>78.0</ele><time>2026-04-27T08:05:00.001Z</time></trkpt><trkpt lat="46.03428558225478" lon="12.807111070099529"><ele>78.0</ele><time>2026-04-27T08:05:01.001Z</time></trkpt><trkpt lat="46.03432221157568" lon="12.807330966778302"><ele>78.0</ele><time>2026-04-27T08:05:02.001Z</time></trkpt><trkpt lat="46.034357514207194" lon="12.807533592480395"><ele>78.0</ele><time>2026-04-27T08:05:03.001Z</time></trkpt><trkpt lat="46.03439087933756" lon="12.807721192254487"><ele>78.0</ele><time>2026-04-27T08:05:04.001Z</time></trkpt><trkpt lat="46.03442040678423" lon="12.80789669620664"><ele>78.2</ele><time>2026-04-27T08:05:05.001Z</time></trkpt><trkpt lat="46.034447515228486" lon="12.808050814330944"><ele>78.4</ele><time>2026-04-27T08:05:06.001Z</time></trkpt><trkpt lat="46.034477698129784" lon="12.808200291085654"><ele>78.60000000000001</ele><time>2026-04-27T08:05:07.001Z</time></trkpt><trkpt lat="46.03448645934838" lon="12.80834220114433"><ele>78.8</ele><time>2026-04-27T08:05:08.001Z</time></trkpt><trkpt lat="46.034505109150075" lon="12.808448095180388"><ele>79.0</ele><time>2026-04-27T08:05:09.001Z</time></trkpt><trkpt lat="46.034667230628884" lon="12.808458939020845"><ele>79.0</ele><time>2026-04-27T08:05:13.001Z</time></trkpt><trkpt lat="46.03475113687131" lon="12.808402073157945"><ele>79.0</ele><time>2026-04-27T08:05:14.001Z</time></trkpt><trkpt lat="46.03486821266407" lon="12.808352171616125"><ele>79.0</ele><time>2026-04-27T08:05:15.001Z</time></trkpt><trkpt lat="46.035006611547" lon="12.808277364079743"><ele>79.0</ele><time>2026-04-27T08:05:16.001Z</time></trkpt><trkpt lat="46.03514096139418" lon="12.80820488943038"><ele>79.25</ele><time>2026-04-27T08:05:17.001Z</time></trkpt><trkpt lat="46.035248933054035" lon="12.808147311147536"><ele>79.5</ele><time>2026-04-27T08:05:18.001Z</time></trkpt><trkpt lat="46.03536444849593" lon="12.808091421344063"><ele>79.75</ele><time>2026-04-27T08:05:19.001Z</time></trkpt><trkpt lat="46.03549896617662" lon="12.808026339806412"><ele>80.0</ele><time>2026-04-27T08:05:20.001Z</time></trkpt><trkpt lat="46.03564592141389" lon="12.807955240691047"><ele>80.0</ele><time>2026-04-27T08:05:21.001Z</time></trkpt><trkpt lat="46.03580184285806" lon="12.807879803727756"><ele>80.0</ele><time>2026-04-27T08:05:22.001Z</time></trkpt><trkpt lat="46.03594447871118" lon="12.80771051905022"><ele>80.0</ele><time>2026-04-27T08:05:23.001Z</time></trkpt><trkpt lat="46.03610706937435" lon="12.807618658370126"><ele>80.0</ele><time>2026-04-27T08:05:24.001Z</time></trkpt><trkpt lat="46.03627452014077" lon="12.807522014913262"><ele>80.0</ele><time>2026-04-27T08:05:25.001Z</time></trkpt><trkpt lat="46.036443734651755" lon="12.807421954292828"><ele>80.0</ele><time>2026-04-27T08:05:26.002Z</time></trkpt><trkpt lat="46.03661012776015" lon="12.807325215632986"><ele>80.66666666666667</ele><time>2026-04-27T08:05:27.002Z</time></trkpt><trkpt lat="46.03676462263527" lon="12.807234561764803"><ele>81.33333333333333</ele><time>2026-04-27T08:05:28.002Z</time></trkpt><trkpt lat="46.03691082079495" lon="12.807156912546263"><ele>82.0</ele><time>2026-04-27T08:05:29.002Z</time></trkpt><trkpt lat="46.03704138989141" lon="12.807078221527819"><ele>82.0</ele><time>2026-04-27T08:05:30.002Z</time></trkpt><trkpt lat="46.037160309005515" lon="12.807010122251011"><ele>82.0</ele><time>2026-04-27T08:05:31.002Z</time></trkpt><trkpt lat="46.03726945118533" lon="12.806948907183843"><ele>82.0</ele><time>2026-04-27T08:05:32.002Z</time></trkpt><trkpt lat="46.03738446929252" lon="12.80688965450138"><ele>82.0</ele><time>2026-04-27T08:05:33.002Z</time></trkpt><trkpt lat="46.03751067654416" lon="12.806813187770166"><ele>81.75</ele><time>2026-04-27T08:05:34.002Z</time></trkpt><trkpt lat="46.037643044123264" lon="12.806732257327331"><ele>81.5</ele><time>2026-04-27T08:05:35.002Z</time></trkpt><trkpt lat="46.03777612309937" lon="12.806656584281182"><ele>81.25</ele><time>2026-04-27T08:05:36.002Z</time></trkpt><trkpt lat="46.037914084709094" lon="12.806577186581094"><ele>81.0</ele><time>2026-04-27T08:05:37.002Z</time></trkpt><trkpt lat="46.038047731103035" lon="12.80650135459145"><ele>81.0</ele><time>2026-04-27T08:05:38.002Z</time></trkpt><trkpt lat="46.03816952012251" lon="12.806431765819912"><ele>81.0</ele><time>2026-04-27T08:05:39.002Z</time></trkpt><trkpt lat="46.03829669470525" lon="12.806359497771941"><ele>81.0</ele><time>2026-04-27T08:05:40.002Z</time></trkpt><trkpt lat="46.0384205555945" lon="12.806286641808992"><ele>81.0</ele><time>2026-04-27T08:05:41.002Z</time></trkpt><trkpt lat="46.038526563923035" lon="12.806222956514594"><ele>81.5</ele><time>2026-04-27T08:05:42.002Z</time></trkpt><trkpt lat="46.038604045499284" lon="12.80617730037308"><ele>82.0</ele><time>2026-04-27T08:05:43.002Z</time></trkpt><trkpt lat="46.03868129955613" lon="12.80612415994385"><ele>82.5</ele><time>2026-04-27T08:05:45.002Z</time></trkpt><trkpt lat="46.038723952667624" lon="12.805985086984716"><ele>83.0</ele><time>2026-04-27T08:05:48.002Z</time></trkpt><trkpt lat="46.0387131415442" lon="12.805883492567752"><ele>83.5</ele><time>2026-04-27T08:05:49.002Z</time></trkpt><trkpt lat="46.038671994550825" lon="12.805749185759128"><ele>84.0</ele><time>2026-04-27T08:05:50.002Z</time></trkpt><trkpt lat="46.038646955608385" lon="12.805589128008528"><ele>84.0</ele><time>2026-04-27T08:05:51.002Z</time></trkpt><trkpt lat="46.03862984035874" lon="12.805408582549553"><ele>84.0</ele><time>2026-04-27T08:05:52.002Z</time></trkpt><trkpt lat="46.03860220393323" lon="12.805204093641988"><ele>84.0</ele><time>2026-04-27T08:05:53.002Z</time></trkpt><trkpt lat="46.038589440379795" lon="12.805029861300286"><ele>84.0</ele><time>2026-04-27T08:05:54.002Z</time></trkpt><trkpt lat="46.03857637928988" lon="12.80484470807163"><ele>83.75</ele><time>2026-04-27T08:05:55.002Z</time></trkpt><trkpt lat="46.03856367013863" lon="12.804642042851771"><ele>83.5</ele><time>2026-04-27T08:05:56.002Z</time></trkpt><trkpt lat="46.03855863133725" lon="12.804443815986438"><ele>83.25</ele><time>2026-04-27T08:05:57.002Z</time></trkpt><trkpt lat="46.03855341109981" lon="12.804250115430193"><ele>83.0</ele><time>2026-04-27T08:05:58.002Z</time></trkpt><trkpt lat="46.038554637911254" lon="12.804058516954807"><ele>82.75</ele><time>2026-04-27T08:05:59.002Z</time></trkpt><trkpt lat="46.03856252999236" lon="12.80388370135827"><ele>82.5</ele><time>2026-04-27T08:06:00.002Z</time></trkpt><trkpt lat="46.0385699151908" lon="12.803696546895395"><ele>82.25</ele><time>2026-04-27T08:06:01.002Z</time></trkpt><trkpt lat="46.03857908896268" lon="12.80349814619208"><ele>82.0</ele><time>2026-04-27T08:06:02.002Z</time></trkpt><trkpt lat="46.03858713887087" lon="12.803309924568875"><ele>82.25</ele><time>2026-04-27T08:06:03.002Z</time></trkpt><trkpt lat="46.03859631801486" lon="12.803130201203677"><ele>82.5</ele><time>2026-04-27T08:06:04.002Z</time></trkpt><trkpt lat="46.038609933758885" lon="12.802943882475168"><ele>82.75</ele><time>2026-04-27T08:06:05.002Z</time></trkpt><trkpt lat="46.03863578230557" lon="12.802748906840682"><ele>83.0</ele><time>2026-04-27T08:06:06.002Z</time></trkpt><trkpt lat="46.03866727496014" lon="12.802572864894723"><ele>83.0</ele><time>2026-04-27T08:06:07.002Z</time></trkpt><trkpt lat="46.03870190058828" lon="12.802427681076063"><ele>83.0</ele><time>2026-04-27T08:06:08.002Z</time></trkpt><trkpt lat="46.038719596754724" lon="12.802330063939753"><ele>83.0</ele><time>2026-04-27T08:06:09.002Z</time></trkpt><trkpt lat="46.03864108038232" lon="12.802184144756499"><ele>83.0</ele><time>2026-04-27T08:06:11.003Z</time></trkpt><trkpt lat="46.03855036465421" lon="12.802121910507083"><ele>83.0</ele><time>2026-04-27T08:06:12.003Z</time></trkpt><trkpt lat="46.03856150654235" lon="12.801848427695147"><ele>83.0</ele><time>2026-04-27T08:06:13.003Z</time></trkpt><trkpt lat="46.03862482069524" lon="12.801730465102976"><ele>83.0</ele><time>2026-04-27T08:06:17.003Z</time></trkpt><trkpt lat="46.038733413769016" lon="12.801837199433548"><ele>83.0</ele><time>2026-04-27T08:06:19Z</time></trkpt><trkpt lat="46.038802987976794" lon="12.801897072687508"><ele>83.0</ele><time>2026-04-27T08:06:20Z</time></trkpt><trkpt lat="46.03886416396133" lon="12.80194918456509"><ele>83.0</ele><time>2026-04-27T08:06:21Z</time></trkpt><trkpt lat="46.03891985655575" lon="12.801996625289796"><ele>83.0</ele><time>2026-04-27T08:06:22Z</time></trkpt><trkpt lat="46.039023173733625" lon="12.80189656780922"><ele>83.0</ele><time>2026-04-27T08:06:25Z</time></trkpt><trkpt lat="46.03910256689225" lon="12.801921164221971"><ele>83.0</ele><time>2026-04-27T08:06:27Z</time></trkpt><trkpt lat="46.03918322308204" lon="12.802039277245596"><ele>83.0</ele><time>2026-04-27T08:06:30Z</time></trkpt><trkpt lat="46.03921457000902" lon="12.802147825129655"><ele>83.0</ele><time>2026-04-27T08:06:31Z</time></trkpt><trkpt lat="46.039261611360956" lon="12.802249219172625"><ele>83.5</ele><time>2026-04-27T08:06:32Z</time></trkpt><trkpt lat="46.03933972338674" lon="12.802346026622104"><ele>84.0</ele><time>2026-04-27T08:06:33Z</time></trkpt><trkpt lat="46.03944814924961" lon="12.802451278205346"><ele>84.5</ele><time>2026-04-27T08:06:34Z</time></trkpt><trkpt lat="46.03950128629273" lon="12.802714317518024"><ele>85.0</ele><time>2026-04-27T08:06:35Z</time></trkpt><trkpt lat="46.039640785204405" lon="12.802835887474194"><ele>85.0</ele><time>2026-04-27T08:06:36Z</time></trkpt><trkpt lat="46.039769912873666" lon="12.802948259611089"><ele>85.0</ele><time>2026-04-27T08:06:37Z</time></trkpt><trkpt lat="46.039894473238235" lon="12.803056656959791"><ele>85.0</ele><time>2026-04-27T08:06:38Z</time></trkpt><trkpt lat="46.040007949304346" lon="12.803155408308157"><ele>85.0</ele><time>2026-04-27T08:06:39Z</time></trkpt><trkpt lat="46.0401413586426" lon="12.80327150645848"><ele>85.0</ele><time>2026-04-27T08:06:40Z</time></trkpt><trkpt lat="46.04028118639416" lon="12.803393190032521"><ele>85.0</ele><time>2026-04-27T08:06:41Z</time></trkpt><trkpt lat="46.040405049199705" lon="12.803501044047373"><ele>85.0</ele><time>2026-04-27T08:06:42Z</time></trkpt><trkpt lat="46.04052771717122" lon="12.803608555047754"><ele>84.75</ele><time>2026-04-27T08:06:43Z</time></trkpt><trkpt lat="46.04066165766859" lon="12.803725945626669"><ele>84.5</ele><time>2026-04-27T08:06:44Z</time></trkpt><trkpt lat="46.04078955580846" lon="12.803838040341413"><ele>84.25</ele><time>2026-04-27T08:06:45Z</time></trkpt><trkpt lat="46.04091088084812" lon="12.803944374401599"><ele>84.0</ele><time>2026-04-27T08:06:46Z</time></trkpt><trkpt lat="46.04102576855915" lon="12.804045066383658"><ele>84.0</ele><time>2026-04-27T08:06:47Z</time></trkpt><trkpt lat="46.041140154201315" lon="12.804145249062492"><ele>84.0</ele><time>2026-04-27T08:06:48.001Z</time></trkpt><trkpt lat="46.0412501505772" lon="12.804241159429559"><ele>84.0</ele><time>2026-04-27T08:06:49.001Z</time></trkpt><trkpt lat="46.04138410596623" lon="12.80435796059029"><ele>84.0</ele><time>2026-04-27T08:06:50.001Z</time></trkpt><trkpt lat="46.04151575209184" lon="12.804472748227399"><ele>84.33333333333333</ele><time>2026-04-27T08:06:51.001Z</time></trkpt><trkpt lat="46.04167061887058" lon="12.804607782968175"><ele>84.66666666666666</ele><time>2026-04-27T08:06:52.001Z</time></trkpt><trkpt lat="46.04180740875928" lon="12.804727055676727"><ele>85.0</ele><time>2026-04-27T08:06:53.001Z</time></trkpt><trkpt lat="46.04191749324425" lon="12.80482304279421"><ele>85.0</ele><time>2026-04-27T08:06:54.001Z</time></trkpt><trkpt lat="46.04203242370277" lon="12.804923255389332"><ele>85.0</ele><time>2026-04-27T08:06:55.001Z</time></trkpt><trkpt lat="46.0421594949316" lon="12.805034054104421"><ele>85.0</ele><time>2026-04-27T08:06:56.001Z</time></trkpt><trkpt lat="46.042286180019644" lon="12.80514483860497"><ele>85.0</ele><time>2026-04-27T08:06:57.001Z</time></trkpt><trkpt lat="46.04240886866277" lon="12.805252251771428"><ele>85.5</ele><time>2026-04-27T08:06:58.001Z</time></trkpt><trkpt lat="46.04251686770759" lon="12.805346804242028"><ele>86.0</ele><time>2026-04-27T08:06:59.001Z</time></trkpt><trkpt lat="46.04263370831856" lon="12.8054490974424"><ele>86.5</ele><time>2026-04-27T08:07:00.001Z</time></trkpt><trkpt lat="46.042768304785874" lon="12.805566697892372"><ele>87.0</ele><time>2026-04-27T08:07:01.001Z</time></trkpt><trkpt lat="46.04290545838402" lon="12.805685984078764"><ele>87.0</ele><time>2026-04-27T08:07:02.001Z</time></trkpt><trkpt lat="46.04303233959098" lon="12.805796337661322"><ele>87.0</ele><time>2026-04-27T08:07:03.001Z</time></trkpt><trkpt lat="46.04314396474341" lon="12.805893421101532"><ele>87.0</ele><time>2026-04-27T08:07:04.001Z</time></trkpt><trkpt lat="46.0432576537203" lon="12.805992478284042"><ele>87.0</ele><time>2026-04-27T08:07:05.001Z</time></trkpt><trkpt lat="46.04336877026394" lon="12.80609018720565"><ele>87.0</ele><time>2026-04-27T08:07:06.001Z</time></trkpt><trkpt lat="46.04348136527752" lon="12.806189195813984"><ele>87.0</ele><time>2026-04-27T08:07:07.001Z</time></trkpt><trkpt lat="46.043611038692816" lon="12.806303222869586"><ele>87.0</ele><time>2026-04-27T08:07:08.001Z</time></trkpt><trkpt lat="46.04375770617367" lon="12.806432193069636"><ele>87.0</ele><time>2026-04-27T08:07:09.001Z</time></trkpt><trkpt lat="46.04390222329072" lon="12.80655741498488"><ele>87.0</ele><time>2026-04-27T08:07:10.001Z</time></trkpt><trkpt lat="46.04402074109703" lon="12.806659176274303"><ele>87.0</ele><time>2026-04-27T08:07:11.001Z</time></trkpt><trkpt lat="46.04414496118105" lon="12.80676527779652"><ele>87.33333333333333</ele><time>2026-04-27T08:07:12.001Z</time></trkpt><trkpt lat="46.044265746726346" lon="12.80686831182081"><ele>87.66666666666666</ele><time>2026-04-27T08:07:13.001Z</time></trkpt><trkpt lat="46.04439848664431" lon="12.806981543491839"><ele>88.0</ele><time>2026-04-27T08:07:14.001Z</time></trkpt><trkpt lat="46.04454019348959" lon="12.807101560583607"><ele>88.0</ele><time>2026-04-27T08:07:15.001Z</time></trkpt><trkpt lat="46.04463490186364" lon="12.807180704262384"><ele>88.0</ele><time>2026-04-27T08:07:16.001Z</time></trkpt><trkpt lat="46.04474683098806" lon="12.807274239044066"><ele>88.0</ele><time>2026-04-27T08:07:17.001Z</time></trkpt><trkpt lat="46.04488584929868" lon="12.807389878975155"><ele>88.0</ele><time>2026-04-27T08:07:18.001Z</time></trkpt><trkpt lat="46.04503953325721" lon="12.8075147242752"><ele>88.5</ele><time>2026-04-27T08:07:19.001Z</time></trkpt><trkpt lat="46.045169365500556" lon="12.80762019356907"><ele>89.0</ele><time>2026-04-27T08:07:20.001Z</time></trkpt><trkpt lat="46.0452877573155" lon="12.807712659247963"><ele>89.5</ele><time>2026-04-27T08:07:21.001Z</time></trkpt><trkpt lat="46.0453926785617" lon="12.807793532810937"><ele>90.0</ele><time>2026-04-27T08:07:22.001Z</time></trkpt><trkpt lat="46.0455203078801" lon="12.807889708873242"><ele>90.25</ele><time>2026-04-27T08:07:23.001Z</time></trkpt><trkpt lat="46.045667504003525" lon="12.807997497205914"><ele>90.5</ele><time>2026-04-27T08:07:24.001Z</time></trkpt><trkpt lat="46.04580064471091" lon="12.808092061807"><ele>90.75</ele><time>2026-04-27T08:07:25.001Z</time></trkpt><trkpt lat="46.04590885488873" lon="12.80816842054936"><ele>91.0</ele><time>2026-04-27T08:07:26.001Z</time></trkpt><trkpt lat="46.04605316603527" lon="12.808268648202924"><ele>91.0</ele><time>2026-04-27T08:07:27.001Z</time></trkpt><trkpt lat="46.04620217462932" lon="12.808371578753034"><ele>91.0</ele><time>2026-04-27T08:07:28.001Z</time></trkpt><trkpt lat="46.046355853247746" lon="12.808475702303696"><ele>91.0</ele><time>2026-04-27T08:07:29.001Z</time></trkpt><trkpt lat="46.046519120590354" lon="12.808585337886093"><ele>91.0</ele><time>2026-04-27T08:07:30.001Z</time></trkpt><trkpt lat="46.04668578939348" lon="12.808697123551875"><ele>91.0</ele><time>2026-04-27T08:07:31.001Z</time></trkpt><trkpt lat="46.04686460432212" lon="12.808814745696814"><ele>91.0</ele><time>2026-04-27T08:07:32.001Z</time></trkpt><trkpt lat="46.047018364340026" lon="12.808915887417626"><ele>91.0</ele><time>2026-04-27T08:07:33.001Z</time></trkpt><trkpt lat="46.04715701186325" lon="12.809007088109913"><ele>91.0</ele><time>2026-04-27T08:07:34.001Z</time></trkpt><trkpt lat="46.04728212018167" lon="12.8090890429274"><ele>91.0</ele><time>2026-04-27T08:07:35.001Z</time></trkpt><trkpt lat="46.04741091716621" lon="12.809172644842947"><ele>91.0</ele><time>2026-04-27T08:07:36.001Z</time></trkpt><trkpt lat="46.0475443175663" lon="12.809259234776812"><ele>91.0</ele><time>2026-04-27T08:07:37.002Z</time></trkpt><trkpt lat="46.04768125421417" lon="12.809348120161289"><ele>91.0</ele><time>2026-04-27T08:07:38.002Z</time></trkpt><trkpt lat="46.04781648097119" lon="12.809435897554904"><ele>91.0</ele><time>2026-04-27T08:07:39.002Z</time></trkpt><trkpt lat="46.04794791205383" lon="12.809521034367163"><ele>91.0</ele><time>2026-04-27T08:07:40.002Z</time></trkpt><trkpt lat="46.04806872186665" lon="12.809599074357825"><ele>91.0</ele><time>2026-04-27T08:07:41.002Z</time></trkpt><trkpt lat="46.04817501313159" lon="12.809667735748652"><ele>91.0</ele><time>2026-04-27T08:07:42.002Z</time></trkpt><trkpt lat="46.04827409108054" lon="12.809731737582124"><ele>91.0</ele><time>2026-04-27T08:07:43.002Z</time></trkpt><trkpt lat="46.04837600655008" lon="12.809797572102719"><ele>91.0</ele><time>2026-04-27T08:07:44.002Z</time></trkpt><trkpt lat="46.04849092856785" lon="12.809871808699109"><ele>91.0</ele><time>2026-04-27T08:07:45.002Z</time></trkpt><trkpt lat="46.048622663585334" lon="12.809957376612388"><ele>91.0</ele><time>2026-04-27T08:07:46.002Z</time></trkpt><trkpt lat="46.04874200984222" lon="12.810036771308802"><ele>91.0</ele><time>2026-04-27T08:07:47.002Z</time></trkpt><trkpt lat="46.048851433611084" lon="12.810110502236768"><ele>91.0</ele><time>2026-04-27T08:07:48.002Z</time></trkpt><trkpt lat="46.04896840235573" lon="12.810188122885725"><ele>91.0</ele><time>2026-04-27T08:07:49.002Z</time></trkpt><trkpt lat="46.04909184421097" lon="12.810270039803243"><ele>91.0</ele><time>2026-04-27T08:07:50.002Z</time></trkpt><trkpt lat="46.049218123413056" lon="12.81035187607676"><ele>91.0</ele><time>2026-04-27T08:07:51.002Z</time></trkpt><trkpt lat="46.04931164520828" lon="12.8104125159981"><ele>91.0</ele><time>2026-04-27T08:07:52.002Z</time></trkpt><trkpt lat="46.04939678079656" lon="12.810467718251758"><ele>91.75</ele><time>2026-04-27T08:07:53.002Z</time></trkpt><trkpt lat="46.04948550852548" lon="12.81052524966808"><ele>92.5</ele><time>2026-04-27T08:07:54.002Z</time></trkpt><trkpt lat="46.04959671649229" lon="12.810597000942863"><ele>93.25</ele><time>2026-04-27T08:07:55.002Z</time></trkpt><trkpt lat="46.04971175993361" lon="12.810671991635655"><ele>94.0</ele><time>2026-04-27T08:07:56.002Z</time></trkpt><trkpt lat="46.049839011303945" lon="12.810756444267309"><ele>94.0</ele><time>2026-04-27T08:07:57.002Z</time></trkpt><trkpt lat="46.049986176228735" lon="12.810853116352382"><ele>94.0</ele><time>2026-04-27T08:07:58.002Z</time></trkpt><trkpt lat="46.050144161672044" lon="12.810956171403419"><ele>94.0</ele><time>2026-04-27T08:07:59.002Z</time></trkpt><trkpt lat="46.05031712575384" lon="12.811068500675834"><ele>94.0</ele><time>2026-04-27T08:08:00.002Z</time></trkpt><trkpt lat="46.05046347496219" lon="12.811166103427533"><ele>94.0</ele><time>2026-04-27T08:08:01.002Z</time></trkpt><trkpt lat="46.05057223610138" lon="12.811239493377697"><ele>94.0</ele><time>2026-04-27T08:08:02.002Z</time></trkpt><trkpt lat="46.050663959670175" lon="12.811301386827584"><ele>94.0</ele><time>2026-04-27T08:08:03.002Z</time></trkpt><trkpt lat="46.05074674528391" lon="12.811357248937457"><ele>94.5</ele><time>2026-04-27T08:08:04.002Z</time></trkpt><trkpt lat="46.05084119340236" lon="12.811420980706691"><ele>95.0</ele><time>2026-04-27T08:08:05.002Z</time></trkpt><trkpt lat="46.05094430156911" lon="12.811490556192817"><ele>95.5</ele><time>2026-04-27T08:08:06.002Z</time></trkpt><trkpt lat="46.05105809271123" lon="12.811569709080672"><ele>96.0</ele><time>2026-04-27T08:08:07.002Z</time></trkpt><trkpt lat="46.051152269655674" lon="12.811636969076224"><ele>96.0</ele><time>2026-04-27T08:08:08.002Z</time></trkpt><trkpt lat="46.05122070543804" lon="12.811687918369659"><ele>96.0</ele><time>2026-04-27T08:08:09.002Z</time></trkpt><trkpt lat="46.05130806321685" lon="12.811513258464316"><ele>96.0</ele><time>2026-04-27T08:09:18.001Z</time></trkpt><trkpt lat="46.051421788416334" lon="12.811579074923955"><ele>96.0</ele><time>2026-04-27T08:10:02.002Z</time></trkpt><trkpt lat="46.05153523446534" lon="12.81163552541953"><ele>96.66666666666666</ele><time>2026-04-27T08:10:03.002Z</time></trkpt><trkpt lat="46.05154789595093" lon="12.811942891348593"><ele>97.33333333333333</ele><time>2026-04-27T08:10:04.002Z</time></trkpt><trkpt lat="46.05166901464122" lon="12.812046901659032"><ele>98.0</ele><time>2026-04-27T08:10:05.002Z</time></trkpt><trkpt lat="46.05180442560627" lon="12.812170250615688"><ele>96.66666666666666</ele><time>2026-04-27T08:10:06.002Z</time></trkpt><trkpt lat="46.05195347940386" lon="12.812304291642759"><ele>95.33333333333333</ele><time>2026-04-27T08:10:07.002Z</time></trkpt><trkpt lat="46.05210524113739" lon="12.812436155613247"><ele>94.0</ele><time>2026-04-27T08:10:08.002Z</time></trkpt><trkpt lat="46.05224243896838" lon="12.812555477129967"><ele>94.0</ele><time>2026-04-27T08:10:09.002Z</time></trkpt><trkpt lat="46.05237078441348" lon="12.812665384361022"><ele>94.0</ele><time>2026-04-27T08:10:10.002Z</time></trkpt><trkpt lat="46.05249768813493" lon="12.812773269246218"><ele>94.0</ele><time>2026-04-27T08:10:11.002Z</time></trkpt><trkpt lat="46.052603212118655" lon="12.812857821750676"><ele>94.0</ele><time>2026-04-27T08:10:12.002Z</time></trkpt><trkpt lat="46.0527230156904" lon="12.812952515965716"><ele>94.5</ele><time>2026-04-27T08:10:13.002Z</time></trkpt><trkpt lat="46.05284648439625" lon="12.813043436674612"><ele>95.0</ele><time>2026-04-27T08:10:14.002Z</time></trkpt><trkpt lat="46.052974702216545" lon="12.813134777657252"><ele>95.5</ele><time>2026-04-27T08:10:15.002Z</time></trkpt><trkpt lat="46.05311587070514" lon="12.813233640157508"><ele>96.0</ele><time>2026-04-27T08:10:16.002Z</time></trkpt><trkpt lat="46.05328742851663" lon="12.813289092405572"><ele>97.0</ele><time>2026-04-27T08:10:17.002Z</time></trkpt><trkpt lat="46.05347292716848" lon="12.813329503253428"><ele>98.0</ele><time>2026-04-27T08:10:18.002Z</time></trkpt><trkpt lat="46.05365456551174" lon="12.813348334431346"><ele>99.0</ele><time>2026-04-27T08:10:19.002Z</time></trkpt><trkpt lat="46.05421545656009" lon="12.812308054035594"><ele>99.0</ele><time>2026-04-27T08:10:21.002Z</time></trkpt><trkpt lat="46.05435174742229" lon="12.81228780010142"><ele>99.0</ele><time>2026-04-27T08:10:22.002Z</time></trkpt><trkpt lat="46.054484000543" lon="12.81226754810461"><ele>99.0</ele><time>2026-04-27T08:10:23.002Z</time></trkpt><trkpt lat="46.054606062585194" lon="12.812248995786465"><ele>99.0</ele><time>2026-04-27T08:10:24.002Z</time></trkpt><trkpt lat="46.054714670848604" lon="12.8122238264536"><ele>99.0</ele><time>2026-04-27T08:10:25.002Z</time></trkpt><trkpt lat="46.05480155713521" lon="12.812204132543483"><ele>99.0</ele><time>2026-04-27T08:10:26.002Z</time></trkpt><trkpt lat="46.054875777026396" lon="12.812184772744166"><ele>99.0</ele><time>2026-04-27T08:10:27.002Z</time></trkpt><trkpt lat="46.0549748879787" lon="12.812177914300026"><ele>99.0</ele><time>2026-04-27T08:10:29.002Z</time></trkpt><trkpt lat="46.054964681926876" lon="12.812343892982572"><ele>99.0</ele><time>2026-04-27T08:10:33Z</time></trkpt><trkpt lat="46.05488509783282" lon="12.812497073180294"><ele>99.0</ele><time>2026-04-27T08:10:34Z</time></trkpt><trkpt lat="46.054799102118366" lon="12.812671372941946"><ele>99.0</ele><time>2026-04-27T08:10:35Z</time></trkpt><trkpt lat="46.054713799433024" lon="12.812871443564553"><ele>99.0</ele><time>2026-04-27T08:10:36Z</time></trkpt><trkpt lat="46.05462328910095" lon="12.813082188550784"><ele>99.0</ele><time>2026-04-27T08:10:37Z</time></trkpt><trkpt lat="46.05452578937761" lon="12.813311278567735"><ele>99.0</ele><time>2026-04-27T08:10:38Z</time></trkpt><trkpt lat="46.05442875384363" lon="12.813548646086664"><ele>99.0</ele><time>2026-04-27T08:10:39Z</time></trkpt><trkpt lat="46.05432602394818" lon="12.813801897278873"><ele>98.66666666666666</ele><time>2026-04-27T08:10:40Z</time></trkpt><trkpt lat="46.0542210495216" lon="12.814056050260868"><ele>98.33333333333333</ele><time>2026-04-27T08:10:41Z</time></trkpt><trkpt lat="46.05411482510833" lon="12.81429700492873"><ele>98.0</ele><time>2026-04-27T08:10:42Z</time></trkpt><trkpt lat="46.05400607576935" lon="12.81455423216051"><ele>97.0</ele><time>2026-04-27T08:10:43Z</time></trkpt><trkpt lat="46.05390176622864" lon="12.8148130678436"><ele>96.0</ele><time>2026-04-27T08:10:44Z</time></trkpt><trkpt lat="46.05379639305097" lon="12.815067687462744"><ele>95.0</ele><time>2026-04-27T08:10:45Z</time></trkpt><trkpt lat="46.053690315909165" lon="12.815322944285082"><ele>94.66666666666667</ele><time>2026-04-27T08:10:46Z</time></trkpt><trkpt lat="46.05358425989462" lon="12.815577141085692"><ele>94.33333333333333</ele><time>2026-04-27T08:10:47Z</time></trkpt><trkpt lat="46.053477921039175" lon="12.815832537750252"><ele>94.0</ele><time>2026-04-27T08:10:48Z</time></trkpt><trkpt lat="46.053369987105434" lon="12.816091251444243"><ele>94.0</ele><time>2026-04-27T08:10:49Z</time></trkpt><trkpt lat="46.053262310540376" lon="12.81635224573748"><ele>94.0</ele><time>2026-04-27T08:10:50Z</time></trkpt><trkpt lat="46.05316060255433" lon="12.816603729488412"><ele>94.0</ele><time>2026-04-27T08:10:51Z</time></trkpt><trkpt lat="46.05306725965552" lon="12.816838377041663"><ele>93.66666666666666</ele><time>2026-04-27T08:10:52Z</time></trkpt><trkpt lat="46.052974880682655" lon="12.81706332536726"><ele>93.33333333333333</ele><time>2026-04-27T08:10:53Z</time></trkpt><trkpt lat="46.05288827763523" lon="12.817278363501602"><ele>93.0</ele><time>2026-04-27T08:10:54Z</time></trkpt><trkpt lat="46.052811982058095" lon="12.817460683183507"><ele>93.0</ele><time>2026-04-27T08:10:55Z</time></trkpt><trkpt lat="46.052741175429645" lon="12.817621993792564"><ele>93.0</ele><time>2026-04-27T08:10:56.001Z</time></trkpt><trkpt lat="46.052686258965885" lon="12.817753997042601"><ele>93.0</ele><time>2026-04-27T08:10:57.001Z</time></trkpt><trkpt lat="46.05264867481386" lon="12.817858157888944"><ele>93.0</ele><time>2026-04-27T08:10:58.001Z</time></trkpt><trkpt lat="46.05258744607423" lon="12.817993515677129"><ele>93.0</ele><time>2026-04-27T08:11:00.001Z</time></trkpt><trkpt lat="46.05256489806372" lon="12.818111558398012"><ele>93.2</ele><time>2026-04-27T08:11:02.001Z</time></trkpt><trkpt lat="46.05260331918542" lon="12.81827130172201"><ele>93.4</ele><time>2026-04-27T08:11:04.001Z</time></trkpt><trkpt lat="46.05263704937886" lon="12.818390464705221"><ele>93.60000000000001</ele><time>2026-04-27T08:11:05.001Z</time></trkpt><trkpt lat="46.05266967243201" lon="12.81852391462223"><ele>93.80000000000001</ele><time>2026-04-27T08:11:06.001Z</time></trkpt><trkpt lat="46.052700424009984" lon="12.818668494714103"><ele>94.0</ele><time>2026-04-27T08:11:07.001Z</time></trkpt><trkpt lat="46.052734594362924" lon="12.818837841848138"><ele>93.5</ele><time>2026-04-27T08:11:08.001Z</time></trkpt><trkpt lat="46.052765574419624" lon="12.819023115053277"><ele>93.0</ele><time>2026-04-27T08:11:09.001Z</time></trkpt><trkpt lat="46.05280356038098" lon="12.819223442760137"><ele>92.5</ele><time>2026-04-27T08:11:10.001Z</time></trkpt><trkpt lat="46.05284042852067" lon="12.819429866649536"><ele>92.0</ele><time>2026-04-27T08:11:11.001Z</time></trkpt><trkpt lat="46.052882610728496" lon="12.819653875326274"><ele>92.0</ele><time>2026-04-27T08:11:12.001Z</time></trkpt><trkpt lat="46.05292206667807" lon="12.819859778879309"><ele>92.0</ele><time>2026-04-27T08:11:13.001Z</time></trkpt><trkpt lat="46.05295845139397" lon="12.820097460360037"><ele>92.0</ele><time>2026-04-27T08:11:14.001Z</time></trkpt><trkpt lat="46.05302287417014" lon="12.820342827383993"><ele>92.0</ele><time>2026-04-27T08:11:15.001Z</time></trkpt><trkpt lat="46.053079187366954" lon="12.820599298464934"><ele>92.0</ele><time>2026-04-27T08:11:16.001Z</time></trkpt><trkpt lat="46.05313703851941" lon="12.820857915657554"><ele>92.0</ele><time>2026-04-27T08:11:17.001Z</time></trkpt><trkpt lat="46.05318365175065" lon="12.821091479632868"><ele>92.0</ele><time>2026-04-27T08:11:18.001Z</time></trkpt><trkpt lat="46.053226661467846" lon="12.821309901061452"><ele>92.0</ele><time>2026-04-27T08:11:19.001Z</time></trkpt><trkpt lat="46.05327456683144" lon="12.821538653513935"><ele>92.0</ele><time>2026-04-27T08:11:20.001Z</time></trkpt><trkpt lat="46.05332621565891" lon="12.821778553389455"><ele>92.33333333333334</ele><time>2026-04-27T08:11:21.001Z</time></trkpt><trkpt lat="46.053378076521284" lon="12.822041211779764"><ele>92.66666666666667</ele><time>2026-04-27T08:11:22.001Z</time></trkpt><trkpt lat="46.05342149605559" lon="12.822286174505026"><ele>93.0</ele><time>2026-04-27T08:11:23.001Z</time></trkpt><trkpt lat="46.05345925680709" lon="12.822498166088117"><ele>93.33333333333333</ele><time>2026-04-27T08:11:24.001Z</time></trkpt><trkpt lat="46.05349901810162" lon="12.822723756049305"><ele>93.66666666666666</ele><time>2026-04-27T08:11:25.001Z</time></trkpt><trkpt lat="46.05353649674633" lon="12.822935530834913"><ele>94.0</ele><time>2026-04-27T08:11:26.001Z</time></trkpt><trkpt lat="46.053574845962274" lon="12.823151602538722"><ele>94.0</ele><time>2026-04-27T08:11:27.001Z</time></trkpt><trkpt lat="46.053617722053225" lon="12.823366612235988"><ele>94.0</ele><time>2026-04-27T08:11:28.001Z</time></trkpt><trkpt lat="46.05365977892596" lon="12.823577276181668"><ele>94.0</ele><time>2026-04-27T08:11:29.001Z</time></trkpt><trkpt lat="46.05369587469161" lon="12.823783301465394"><ele>94.25</ele><time>2026-04-27T08:11:30.001Z</time></trkpt><trkpt lat="46.05373593915895" lon="12.823990573848898"><ele>94.5</ele><time>2026-04-27T08:11:31.001Z</time></trkpt><trkpt lat="46.053773430949136" lon="12.824182182012112"><ele>94.75</ele><time>2026-04-27T08:11:32.001Z</time></trkpt><trkpt lat="46.053816585126214" lon="12.824389541809325"><ele>95.0</ele><time>2026-04-27T08:11:33.001Z</time></trkpt><trkpt lat="46.053854116810335" lon="12.824569784408114"><ele>94.33333333333334</ele><time>2026-04-27T08:11:34.001Z</time></trkpt><trkpt lat="46.05389818489556" lon="12.82477750280744"><ele>93.66666666666667</ele><time>2026-04-27T08:11:35.001Z</time></trkpt><trkpt lat="46.05394717027871" lon="12.825017083995187"><ele>93.0</ele><time>2026-04-27T08:11:36.001Z</time></trkpt><trkpt lat="46.05400401350927" lon="12.825285846829559"><ele>93.0</ele><time>2026-04-27T08:11:37.001Z</time></trkpt><trkpt lat="46.05405655724245" lon="12.825534450623273"><ele>93.0</ele><time>2026-04-27T08:11:38.001Z</time></trkpt><trkpt lat="46.05410393020453" lon="12.825764231612487"><ele>93.0</ele><time>2026-04-27T08:11:39.001Z</time></trkpt><trkpt lat="46.0541559827349" lon="12.826000571536142"><ele>93.33333333333333</ele><time>2026-04-27T08:11:40.001Z</time></trkpt><trkpt lat="46.054197418183" lon="12.82623734401862"><ele>93.66666666666666</ele><time>2026-04-27T08:11:41.001Z</time></trkpt><trkpt lat="46.05423894713619" lon="12.826451333230146"><ele>94.0</ele><time>2026-04-27T08:11:42.001Z</time></trkpt><trkpt lat="46.05428688294249" lon="12.826663254211546"><ele>93.66666666666666</ele><time>2026-04-27T08:11:43.001Z</time></trkpt><trkpt lat="46.05433067285465" lon="12.826878184603327"><ele>93.33333333333333</ele><time>2026-04-27T08:11:44.002Z</time></trkpt><trkpt lat="46.05437789887057" lon="12.82710114624216"><ele>93.0</ele><time>2026-04-27T08:11:45.002Z</time></trkpt><trkpt lat="46.05442564222409" lon="12.82731884107809"><ele>93.0</ele><time>2026-04-27T08:11:46.002Z</time></trkpt><trkpt lat="46.05446016692092" lon="12.827515017686936"><ele>93.0</ele><time>2026-04-27T08:11:47.002Z</time></trkpt><trkpt lat="46.05449490138296" lon="12.827694143176661"><ele>93.0</ele><time>2026-04-27T08:11:48.002Z</time></trkpt><trkpt lat="46.05453655432357" lon="12.827889560710002"><ele>93.0</ele><time>2026-04-27T08:11:49.002Z</time></trkpt><trkpt lat="46.054580571646476" lon="12.828084729592742"><ele>93.5</ele><time>2026-04-27T08:11:50.002Z</time></trkpt><trkpt lat="46.05461633503238" lon="12.828276241857557"><ele>94.0</ele><time>2026-04-27T08:11:51.002Z</time></trkpt><trkpt lat="46.05464902651627" lon="12.828480445043143"><ele>94.5</ele><time>2026-04-27T08:11:52.002Z</time></trkpt><trkpt lat="46.05468979303984" lon="12.828701693149648"><ele>95.0</ele><time>2026-04-27T08:11:53.002Z</time></trkpt><trkpt lat="46.054743310791004" lon="12.82896424292779"><ele>95.0</ele><time>2026-04-27T08:11:54.002Z</time></trkpt><trkpt lat="46.054775999360494" lon="12.829174711400036"><ele>95.0</ele><time>2026-04-27T08:11:55.002Z</time></trkpt><trkpt lat="46.05481339446412" lon="12.829376889633185"><ele>95.0</ele><time>2026-04-27T08:11:56.002Z</time></trkpt><trkpt lat="46.05486002105891" lon="12.829603578128033"><ele>95.25</ele><time>2026-04-27T08:11:57.002Z</time></trkpt><trkpt lat="46.054901306696216" lon="12.829804469336386"><ele>95.5</ele><time>2026-04-27T08:11:58.002Z</time></trkpt><trkpt lat="46.054932477032544" lon="12.829979138875055"><ele>95.75</ele><time>2026-04-27T08:11:59.002Z</time></trkpt><trkpt lat="46.05496851390078" lon="12.830146694215621"><ele>96.0</ele><time>2026-04-27T08:12:00.002Z</time></trkpt><trkpt lat="46.05500181534363" lon="12.830327737884229"><ele>96.25</ele><time>2026-04-27T08:12:01.002Z</time></trkpt><trkpt lat="46.055037712178674" lon="12.830515855509097"><ele>96.5</ele><time>2026-04-27T08:12:02.002Z</time></trkpt><trkpt lat="46.05507861229462" lon="12.830718628276319"><ele>96.75</ele><time>2026-04-27T08:12:03.002Z</time></trkpt><trkpt lat="46.0551218121034" lon="12.830936223963864"><ele>97.0</ele><time>2026-04-27T08:12:04.002Z</time></trkpt><trkpt lat="46.05517894058186" lon="12.831194121779616"><ele>97.0</ele><time>2026-04-27T08:12:05.002Z</time></trkpt><trkpt lat="46.055235628153945" lon="12.83146730831952"><ele>97.0</ele><time>2026-04-27T08:12:06.002Z</time></trkpt><trkpt lat="46.05529283909657" lon="12.831765830310083"><ele>97.0</ele><time>2026-04-27T08:12:07.002Z</time></trkpt><trkpt lat="46.05535306545" lon="12.832074697958912"><ele>97.0</ele><time>2026-04-27T08:12:08.002Z</time></trkpt><trkpt lat="46.05540949310717" lon="12.832352703672395"><ele>97.0</ele><time>2026-04-27T08:12:09.002Z</time></trkpt><trkpt lat="46.05545335473204" lon="12.832591493127373"><ele>97.0</ele><time>2026-04-27T08:12:10.002Z</time></trkpt><trkpt lat="46.05549850211266" lon="12.832807022115196"><ele>96.5</ele><time>2026-04-27T08:12:11.002Z</time></trkpt><trkpt lat="46.055535242210745" lon="12.832995010155086"><ele>96.0</ele><time>2026-04-27T08:12:12.002Z</time></trkpt><trkpt lat="46.0555636885734" lon="12.83315052487553"><ele>95.5</ele><time>2026-04-27T08:12:13.002Z</time></trkpt><trkpt lat="46.05559119246528" lon="12.833306602573657"><ele>95.0</ele><time>2026-04-27T08:12:14.002Z</time></trkpt><trkpt lat="46.05562390214956" lon="12.833482415312144"><ele>95.0</ele><time>2026-04-27T08:12:15.002Z</time></trkpt><trkpt lat="46.0556645054168" lon="12.833680707339052"><ele>95.0</ele><time>2026-04-27T08:12:16.002Z</time></trkpt><trkpt lat="46.05572529612766" lon="12.833934336863624"><ele>95.0</ele><time>2026-04-27T08:12:17.002Z</time></trkpt><trkpt lat="46.05578174424524" lon="12.834204152784869"><ele>96.0</ele><time>2026-04-27T08:12:18.002Z</time></trkpt><trkpt lat="46.055836237674484" lon="12.834486715651817"><ele>97.0</ele><time>2026-04-27T08:12:19.002Z</time></trkpt><trkpt lat="46.05589354254271" lon="12.83477786158983"><ele>98.0</ele><time>2026-04-27T08:12:20.002Z</time></trkpt><trkpt lat="46.05595075188443" lon="12.83506658488636"><ele>98.0</ele><time>2026-04-27T08:12:21.002Z</time></trkpt><trkpt lat="46.056009071354076" lon="12.835353380690027"><ele>98.0</ele><time>2026-04-27T08:12:22.002Z</time></trkpt><trkpt lat="46.05606272663961" lon="12.835623280574271"><ele>98.0</ele><time>2026-04-27T08:12:23.002Z</time></trkpt><trkpt lat="46.05611277775982" lon="12.835886483049435"><ele>97.66666666666666</ele><time>2026-04-27T08:12:24.002Z</time></trkpt><trkpt lat="46.056167222819504" lon="12.836151322159063"><ele>97.33333333333334</ele><time>2026-04-27T08:12:25.002Z</time></trkpt><trkpt lat="46.05622346353598" lon="12.836426570451406"><ele>97.0</ele><time>2026-04-27T08:12:26.002Z</time></trkpt><trkpt lat="46.05627724673625" lon="12.83670402166569"><ele>96.66666666666667</ele><time>2026-04-27T08:12:27.002Z</time></trkpt><trkpt lat="46.056332286888114" lon="12.836988318786634"><ele>96.33333333333334</ele><time>2026-04-27T08:12:28.003Z</time></trkpt><trkpt lat="46.05638785405346" lon="12.83726898648326"><ele>96.0</ele><time>2026-04-27T08:12:29.003Z</time></trkpt><trkpt lat="46.05644444790879" lon="12.837549132145496"><ele>96.0</ele><time>2026-04-27T08:12:30.003Z</time></trkpt><trkpt lat="46.056496016740596" lon="12.837801623015695"><ele>96.0</ele><time>2026-04-27T08:12:31.003Z</time></trkpt><trkpt lat="46.056542541631984" lon="12.838036850359577"><ele>96.0</ele><time>2026-04-27T08:12:32.003Z</time></trkpt><trkpt lat="46.05658477298266" lon="12.83825356588138"><ele>96.5</ele><time>2026-04-27T08:12:33.003Z</time></trkpt><trkpt lat="46.05662571347474" lon="12.83845871663097"><ele>97.0</ele><time>2026-04-27T08:12:34.003Z</time></trkpt><trkpt lat="46.05666561278324" lon="12.838660877318581"><ele>97.5</ele><time>2026-04-27T08:12:35.003Z</time></trkpt><trkpt lat="46.056702485936135" lon="12.83884386341795"><ele>98.0</ele><time>2026-04-27T08:12:36.003Z</time></trkpt><trkpt lat="46.05673561773838" lon="12.839012773501587"><ele>98.0</ele><time>2026-04-27T08:12:37.001Z</time></trkpt><trkpt lat="46.056765612369205" lon="12.839174665774577"><ele>98.0</ele><time>2026-04-27T08:12:38.001Z</time></trkpt><trkpt lat="46.05679008031605" lon="12.839329195410095"><ele>98.0</ele><time>2026-04-27T08:12:39.001Z</time></trkpt><trkpt lat="46.05681326097572" lon="12.839475898221258"><ele>98.0</ele><time>2026-04-27T08:12:40.001Z</time></trkpt><trkpt lat="46.05684233480278" lon="12.839622870045808"><ele>98.0</ele><time>2026-04-27T08:12:41.001Z</time></trkpt><trkpt lat="46.0568687756365" lon="12.839783837238507"><ele>98.0</ele><time>2026-04-27T08:12:42.001Z</time></trkpt><trkpt lat="46.05689761633931" lon="12.83995382306362"><ele>98.0</ele><time>2026-04-27T08:12:43.001Z</time></trkpt><trkpt lat="46.05693072346195" lon="12.84013400015163"><ele>98.0</ele><time>2026-04-27T08:12:44.001Z</time></trkpt><trkpt lat="46.056983698950766" lon="12.840329191240844"><ele>98.0</ele><time>2026-04-27T08:12:45.001Z</time></trkpt><trkpt lat="46.05704555998948" lon="12.840516042811197"><ele>98.25</ele><time>2026-04-27T08:12:46.001Z</time></trkpt><trkpt lat="46.057107637092294" lon="12.840676771840855"><ele>98.5</ele><time>2026-04-27T08:12:47.001Z</time></trkpt><trkpt lat="46.057173891859" lon="12.84081368747463"><ele>98.75</ele><time>2026-04-27T08:12:48.001Z</time></trkpt><trkpt lat="46.057245840652605" lon="12.84093024017773"><ele>99.0</ele><time>2026-04-27T08:12:49.001Z</time></trkpt><trkpt lat="46.057325918628585" lon="12.84102935140741"><ele>99.25</ele><time>2026-04-27T08:12:50.001Z</time></trkpt><trkpt lat="46.05741638677698" lon="12.841147345164417"><ele>99.5</ele><time>2026-04-27T08:12:51.001Z</time></trkpt><trkpt lat="46.05752796876616" lon="12.841295010835369"><ele>99.75</ele><time>2026-04-27T08:12:52.001Z</time></trkpt><trkpt lat="46.057653173435924" lon="12.841460748763465"><ele>100.0</ele><time>2026-04-27T08:12:53.001Z</time></trkpt><trkpt lat="46.0577680692318" lon="12.841612066606036"><ele>100.0</ele><time>2026-04-27T08:12:54.001Z</time></trkpt><trkpt lat="46.057887125516416" lon="12.841774419132179"><ele>100.0</ele><time>2026-04-27T08:12:55.001Z</time></trkpt><trkpt lat="46.058027556282816" lon="12.841958190761234"><ele>100.0</ele><time>2026-04-27T08:12:56.001Z</time></trkpt><trkpt lat="46.05817126731115" lon="12.842141708066244"><ele>100.33333333333334</ele><time>2026-04-27T08:12:57.001Z</time></trkpt><trkpt lat="46.058313410678814" lon="12.842321288807018"><ele>100.66666666666666</ele><time>2026-04-27T08:12:58.001Z</time></trkpt><trkpt lat="46.05843541162492" lon="12.842488034317778"><ele>101.0</ele><time>2026-04-27T08:12:59.001Z</time></trkpt><trkpt lat="46.05858382900793" lon="12.842682149866167"><ele>100.0</ele><time>2026-04-27T08:13:00.001Z</time></trkpt><trkpt lat="46.05871272473664" lon="12.842886090726262"><ele>99.0</ele><time>2026-04-27T08:13:01.001Z</time></trkpt><trkpt lat="46.05884777562861" lon="12.843072900397003"><ele>98.0</ele><time>2026-04-27T08:13:02.001Z</time></trkpt><trkpt lat="46.05898303266177" lon="12.843256711208497"><ele>98.66666666666666</ele><time>2026-04-27T08:13:03.001Z</time></trkpt><trkpt lat="46.05913268845151" lon="12.843425541569433"><ele>99.33333333333334</ele><time>2026-04-27T08:13:04.001Z</time></trkpt><trkpt lat="46.05928085164519" lon="12.843622165400102"><ele>100.0</ele><time>2026-04-27T08:13:05.001Z</time></trkpt><trkpt lat="46.05943406175021" lon="12.84382543396737"><ele>100.0</ele><time>2026-04-27T08:13:06.001Z</time></trkpt><trkpt lat="46.05958069000012" lon="12.844025434019184"><ele>100.0</ele><time>2026-04-27T08:13:07.001Z</time></trkpt><trkpt lat="46.05972262563869" lon="12.84421893130023"><ele>100.0</ele><time>2026-04-27T08:13:08.001Z</time></trkpt><trkpt lat="46.05986357573582" lon="12.84440579388874"><ele>100.0</ele><time>2026-04-27T08:13:09.001Z</time></trkpt><trkpt lat="46.06000572468063" lon="12.844601759455385"><ele>100.0</ele><time>2026-04-27T08:13:10.001Z</time></trkpt><trkpt lat="46.06013861319566" lon="12.84478395087238"><ele>100.0</ele><time>2026-04-27T08:13:11.001Z</time></trkpt><trkpt lat="46.06027399599442" lon="12.844968116445555"><ele>100.0</ele><time>2026-04-27T08:13:12.001Z</time></trkpt><trkpt lat="46.06041190422927" lon="12.845153782701315"><ele>100.0</ele><time>2026-04-27T08:13:13.001Z</time></trkpt><trkpt lat="46.06055283750166" lon="12.845343656682608"><ele>100.0</ele><time>2026-04-27T08:13:14.001Z</time></trkpt><trkpt lat="46.06069427617465" lon="12.845529157882115"><ele>100.0</ele><time>2026-04-27T08:13:15.001Z</time></trkpt><trkpt lat="46.060835173148895" lon="12.845714895507918"><ele>100.0</ele><time>2026-04-27T08:13:16.001Z</time></trkpt><trkpt lat="46.06097609709609" lon="12.845900796423471"><ele>100.0</ele><time>2026-04-27T08:13:17.001Z</time></trkpt><trkpt lat="46.061116233109814" lon="12.846088902128146"><ele>100.0</ele><time>2026-04-27T08:13:18.001Z</time></trkpt><trkpt lat="46.061248713243046" lon="12.846266861043267"><ele>100.0</ele><time>2026-04-27T08:13:19.001Z</time></trkpt><trkpt lat="46.06138530862151" lon="12.846445749628867"><ele>100.0</ele><time>2026-04-27T08:13:20.001Z</time></trkpt><trkpt lat="46.06151689865909" lon="12.846616920956198"><ele>100.33333333333334</ele><time>2026-04-27T08:13:21.001Z</time></trkpt><trkpt lat="46.06163549942818" lon="12.846803725853508"><ele>100.66666666666666</ele><time>2026-04-27T08:13:22.001Z</time></trkpt><trkpt lat="46.06177375993787" lon="12.846954218256496"><ele>101.0</ele><time>2026-04-27T08:13:23.001Z</time></trkpt><trkpt lat="46.061904460384646" lon="12.847114169248243"><ele>101.0</ele><time>2026-04-27T08:13:24.001Z</time></trkpt><trkpt lat="46.062042924647784" lon="12.847266010482373"><ele>101.0</ele><time>2026-04-27T08:13:25.001Z</time></trkpt><trkpt lat="46.06218474933117" lon="12.847416522632992"><ele>101.0</ele><time>2026-04-27T08:13:26.001Z</time></trkpt><trkpt lat="46.06233068625499" lon="12.847561034353687"><ele>101.33333333333333</ele><time>2026-04-27T08:13:27.001Z</time></trkpt><trkpt lat="46.0625014287698" lon="12.847721228108977"><ele>101.66666666666666</ele><time>2026-04-27T08:13:28.001Z</time></trkpt><trkpt lat="46.06268844236657" lon="12.847894330145467"><ele>102.0</ele><time>2026-04-27T08:13:29.001Z</time></trkpt><trkpt lat="46.062858873564124" lon="12.848086409233353"><ele>102.0</ele><time>2026-04-27T08:13:30.001Z</time></trkpt><trkpt lat="46.06302777963234" lon="12.84824812780294"><ele>102.0</ele><time>2026-04-27T08:13:31.001Z</time></trkpt><trkpt lat="46.06318983327278" lon="12.848404686082661"><ele>102.0</ele><time>2026-04-27T08:13:32.001Z</time></trkpt><trkpt lat="46.06335228415152" lon="12.848536057872623"><ele>101.5</ele><time>2026-04-27T08:13:33.001Z</time></trkpt><trkpt lat="46.063484161333754" lon="12.848692808629956"><ele>101.0</ele><time>2026-04-27T08:13:34.001Z</time></trkpt><trkpt lat="46.063608186160984" lon="12.848813396858624"><ele>100.5</ele><time>2026-04-27T08:13:35.001Z</time></trkpt><trkpt lat="46.0637055760687" lon="12.848906849516814"><ele>100.0</ele><time>2026-04-27T08:13:36.001Z</time></trkpt><trkpt lat="46.06379417973575" lon="12.848975029211454"><ele>100.0</ele><time>2026-04-27T08:13:37.001Z</time></trkpt><trkpt lat="46.06385380496507" lon="12.84906577317167"><ele>100.0</ele><time>2026-04-27T08:13:38.001Z</time></trkpt><trkpt lat="46.06390619628157" lon="12.849128111602653"><ele>100.0</ele><time>2026-04-27T08:13:39.001Z</time></trkpt><trkpt lat="46.06385304092031" lon="12.849309551244103"><ele>100.0</ele><time>2026-04-27T08:13:41.001Z</time></trkpt><trkpt lat="46.06380118377942" lon="12.8494314581131"><ele>100.0</ele><time>2026-04-27T08:13:42.001Z</time></trkpt><trkpt lat="46.06373145347957" lon="12.849589795448939"><ele>100.0</ele><time>2026-04-27T08:13:43.001Z</time></trkpt><trkpt lat="46.06368591536038" lon="12.849755359314054"><ele>100.0</ele><time>2026-04-27T08:13:44.001Z</time></trkpt><trkpt lat="46.06367512958554" lon="12.849930004416494"><ele>100.0</ele><time>2026-04-27T08:13:45.001Z</time></trkpt><trkpt lat="46.06367997606019" lon="12.850098686971087"><ele>100.0</ele><time>2026-04-27T08:13:46.001Z</time></trkpt><trkpt lat="46.06369918606313" lon="12.850282188565902"><ele>100.0</ele><time>2026-04-27T08:13:47.001Z</time></trkpt><trkpt lat="46.06374222684322" lon="12.850528029828562"><ele>100.0</ele><time>2026-04-27T08:13:48.002Z</time></trkpt><trkpt lat="46.06378745462464" lon="12.850804625109143"><ele>100.0</ele><time>2026-04-27T08:13:49.002Z</time></trkpt><trkpt lat="46.063847443733906" lon="12.851106334041244"><ele>100.0</ele><time>2026-04-27T08:13:50.002Z</time></trkpt><trkpt lat="46.06390605195235" lon="12.851442886184223"><ele>100.0</ele><time>2026-04-27T08:13:51.002Z</time></trkpt><trkpt lat="46.063954820931855" lon="12.851736831177435"><ele>100.33333333333334</ele><time>2026-04-27T08:13:52.002Z</time></trkpt><trkpt lat="46.06400392630922" lon="12.852026772177023"><ele>100.66666666666666</ele><time>2026-04-27T08:13:53.002Z</time></trkpt><trkpt lat="46.06404959965149" lon="12.852304509215841"><ele>101.0</ele><time>2026-04-27T08:13:54.002Z</time></trkpt><trkpt lat="46.06409226432638" lon="12.852571506039531"><ele>101.33333333333333</ele><time>2026-04-27T08:13:55.002Z</time></trkpt><trkpt lat="46.064128936788336" lon="12.85281287953764"><ele>101.66666666666666</ele><time>2026-04-27T08:13:56.002Z</time></trkpt><trkpt lat="46.064161484779795" lon="12.85303843899797"><ele>102.0</ele><time>2026-04-27T08:13:57.002Z</time></trkpt><trkpt lat="46.06419199576197" lon="12.853272571563087"><ele>101.33333333333334</ele><time>2026-04-27T08:13:58.002Z</time></trkpt><trkpt lat="46.06422155445375" lon="12.853513743965008"><ele>100.66666666666667</ele><time>2026-04-27T08:13:59.002Z</time></trkpt><trkpt lat="46.06424655942079" lon="12.853755880287128"><ele>100.0</ele><time>2026-04-27T08:14:00.002Z</time></trkpt><trkpt lat="46.064264033011156" lon="12.854021598527762"><ele>100.0</ele><time>2026-04-27T08:14:01.002Z</time></trkpt><trkpt lat="46.06425871291185" lon="12.8542858544178"><ele>100.0</ele><time>2026-04-27T08:14:02.002Z</time></trkpt><trkpt lat="46.064267422888015" lon="12.854562615347316"><ele>100.0</ele><time>2026-04-27T08:14:03.002Z</time></trkpt><trkpt lat="46.06427620470181" lon="12.854841658988096"><ele>99.66666666666667</ele><time>2026-04-27T08:14:04.002Z</time></trkpt><trkpt lat="46.06428701494085" lon="12.855126123288407"><ele>99.33333333333334</ele><time>2026-04-27T08:14:05.002Z</time></trkpt><trkpt lat="46.06429874632726" lon="12.855404483870219"><ele>99.0</ele><time>2026-04-27T08:14:06.002Z</time></trkpt><trkpt lat="46.06432602391897" lon="12.855686163340495"><ele>98.33333333333334</ele><time>2026-04-27T08:14:07.002Z</time></trkpt><trkpt lat="46.064337273124" lon="12.855973119005439"><ele>97.66666666666667</ele><time>2026-04-27T08:14:08.002Z</time></trkpt><trkpt lat="46.064348431958045" lon="12.856254456133117"><ele>97.0</ele><time>2026-04-27T08:14:09.002Z</time></trkpt><trkpt lat="46.06436052783663" lon="12.856537078370065"><ele>96.66666666666667</ele><time>2026-04-27T08:14:10.002Z</time></trkpt><trkpt lat="46.06435413811205" lon="12.85682847089928"><ele>96.33333333333334</ele><time>2026-04-27T08:14:11.002Z</time></trkpt><trkpt lat="46.06436364219681" lon="12.857115448821652"><ele>96.0</ele><time>2026-04-27T08:14:12.002Z</time></trkpt><trkpt lat="46.06437462434296" lon="12.85739383823782"><ele>96.66666666666666</ele><time>2026-04-27T08:14:13.002Z</time></trkpt><trkpt lat="46.06438523847709" lon="12.857647438767485"><ele>97.33333333333333</ele><time>2026-04-27T08:14:14.002Z</time></trkpt><trkpt lat="46.064411147950274" lon="12.857893210187344"><ele>98.0</ele><time>2026-04-27T08:14:15.002Z</time></trkpt><trkpt lat="46.06441837669854" lon="12.858141249572217"><ele>98.0</ele><time>2026-04-27T08:14:16.002Z</time></trkpt><trkpt lat="46.064409818858934" lon="12.858390500040672"><ele>98.0</ele><time>2026-04-27T08:14:17.002Z</time></trkpt><trkpt lat="46.06441729881178" lon="12.85865301457222"><ele>98.0</ele><time>2026-04-27T08:14:18.002Z</time></trkpt><trkpt lat="46.064425844491154" lon="12.858911181933147"><ele>98.0</ele><time>2026-04-27T08:14:19.002Z</time></trkpt><trkpt lat="46.064449693674106" lon="12.859151943352709"><ele>98.0</ele><time>2026-04-27T08:14:20.002Z</time></trkpt><trkpt lat="46.06443925347718" lon="12.859359332037332"><ele>98.0</ele><time>2026-04-27T08:14:21.002Z</time></trkpt><trkpt lat="46.06444275281853" lon="12.859538624876336"><ele>98.0</ele><time>2026-04-27T08:14:22.002Z</time></trkpt><trkpt lat="46.06444394920185" lon="12.859703347998867"><ele>98.0</ele><time>2026-04-27T08:14:23.002Z</time></trkpt><trkpt lat="46.064446095360665" lon="12.859861240579718"><ele>98.0</ele><time>2026-04-27T08:14:24.002Z</time></trkpt><trkpt lat="46.06445624781672" lon="12.860010007195179"><ele>98.0</ele><time>2026-04-27T08:14:25.002Z</time></trkpt><trkpt lat="46.064463855875395" lon="12.860159873954549"><ele>98.0</ele><time>2026-04-27T08:14:26.002Z</time></trkpt><trkpt lat="46.064447708783945" lon="12.86030429973552"><ele>98.0</ele><time>2026-04-27T08:14:27.002Z</time></trkpt><trkpt lat="46.06442064444376" lon="12.860442146205852"><ele>97.5</ele><time>2026-04-27T08:14:28.002Z</time></trkpt><trkpt lat="46.064351839254535" lon="12.860548691534246"><ele>97.0</ele><time>2026-04-27T08:14:29.002Z</time></trkpt><trkpt lat="46.064273962156705" lon="12.860690414636736"><ele>96.5</ele><time>2026-04-27T08:14:30.002Z</time></trkpt><trkpt lat="46.06417967286719" lon="12.860853391439917"><ele>96.0</ele><time>2026-04-27T08:14:31.002Z</time></trkpt><trkpt lat="46.06406556266093" lon="12.861051602426906"><ele>95.66666666666667</ele><time>2026-04-27T08:14:32.002Z</time></trkpt><trkpt lat="46.063959918271436" lon="12.861272309910971"><ele>95.33333333333334</ele><time>2026-04-27T08:14:33.002Z</time></trkpt><trkpt lat="46.06385742351261" lon="12.861446357094032"><ele>95.0</ele><time>2026-04-27T08:14:34.002Z</time></trkpt><trkpt lat="46.0637705269384" lon="12.861585984407938"><ele>95.0</ele><time>2026-04-27T08:14:35.002Z</time></trkpt><trkpt lat="46.06369633945338" lon="12.861721570008577"><ele>95.0</ele><time>2026-04-27T08:14:36.003Z</time></trkpt><trkpt lat="46.06363297367619" lon="12.861865280604961"><ele>95.0</ele><time>2026-04-27T08:14:37.003Z</time></trkpt><trkpt lat="46.06358759345888" lon="12.86202333712393"><ele>95.0</ele><time>2026-04-27T08:14:38.003Z</time></trkpt><trkpt lat="46.063551388547396" lon="12.862208226524931"><ele>95.0</ele><time>2026-04-27T08:14:39.003Z</time></trkpt><trkpt lat="46.06352870210788" lon="12.86241322245023"><ele>95.0</ele><time>2026-04-27T08:14:40.003Z</time></trkpt><trkpt lat="46.06351143366762" lon="12.862655010931736"><ele>95.0</ele><time>2026-04-27T08:14:41.003Z</time></trkpt><trkpt lat="46.06349686582975" lon="12.862935962999833"><ele>95.0</ele><time>2026-04-27T08:14:42.003Z</time></trkpt><trkpt lat="46.06348336262383" lon="12.863227791891186"><ele>95.0</ele><time>2026-04-27T08:14:43Z</time></trkpt><trkpt lat="46.06347197045097" lon="12.863475338635183"><ele>95.0</ele><time>2026-04-27T08:14:44Z</time></trkpt><trkpt lat="46.06346589209626" lon="12.86369589642058"><ele>95.0</ele><time>2026-04-27T08:14:45Z</time></trkpt><trkpt lat="46.063458717487414" lon="12.863933916482726"><ele>95.0</ele><time>2026-04-27T08:14:46Z</time></trkpt><trkpt lat="46.06345366131582" lon="12.864200497051495"><ele>95.0</ele><time>2026-04-27T08:14:47Z</time></trkpt><trkpt lat="46.06343939047171" lon="12.864485138472526"><ele>94.33333333333334</ele><time>2026-04-27T08:14:48Z</time></trkpt><trkpt lat="46.06340915999989" lon="12.864799272875157"><ele>93.66666666666667</ele><time>2026-04-27T08:14:49Z</time></trkpt><trkpt lat="46.06340462756415" lon="12.865072655900093"><ele>93.0</ele><time>2026-04-27T08:14:50Z</time></trkpt><trkpt lat="46.06338528582393" lon="12.865313957032312"><ele>92.75</ele><time>2026-04-27T08:14:51Z</time></trkpt><trkpt lat="46.063364342592166" lon="12.865524601210382"><ele>92.5</ele><time>2026-04-27T08:14:52Z</time></trkpt><trkpt lat="46.06335227000928" lon="12.86572135595492"><ele>92.25</ele><time>2026-04-27T08:14:53Z</time></trkpt><trkpt lat="46.06335650908324" lon="12.865897401684423"><ele>92.0</ele><time>2026-04-27T08:14:54Z</time></trkpt><trkpt lat="46.063377110907616" lon="12.866062834878631"><ele>92.66666666666667</ele><time>2026-04-27T08:14:55Z</time></trkpt><trkpt lat="46.06342544632217" lon="12.866257061226982"><ele>93.33333333333333</ele><time>2026-04-27T08:14:56Z</time></trkpt><trkpt lat="46.06348401533386" lon="12.86646543094177"><ele>94.0</ele><time>2026-04-27T08:14:57Z</time></trkpt><trkpt lat="46.063596361421695" lon="12.866667418065314"><ele>93.5</ele><time>2026-04-27T08:14:58Z</time></trkpt><trkpt lat="46.06367639916809" lon="12.866835431652564"><ele>93.0</ele><time>2026-04-27T08:14:59Z</time></trkpt><trkpt lat="46.06371659894153" lon="12.867018621003032"><ele>92.5</ele><time>2026-04-27T08:15:00Z</time></trkpt><trkpt lat="46.06377361825227" lon="12.867195058964455"><ele>92.0</ele><time>2026-04-27T08:15:01Z</time></trkpt><trkpt lat="46.06380322210569" lon="12.867409940984016"><ele>92.0</ele><time>2026-04-27T08:15:02Z</time></trkpt><trkpt lat="46.063805272418065" lon="12.867618105110695"><ele>92.0</ele><time>2026-04-27T08:15:03Z</time></trkpt><trkpt lat="46.06380247949333" lon="12.86781883687705"><ele>92.0</ele><time>2026-04-27T08:15:04Z</time></trkpt><trkpt lat="46.06380254877769" lon="12.868054240412956"><ele>92.0</ele><time>2026-04-27T08:15:05Z</time></trkpt><trkpt lat="46.06376725592773" lon="12.868316670945154"><ele>92.33333333333334</ele><time>2026-04-27T08:15:06Z</time></trkpt><trkpt lat="46.063724702192474" lon="12.868624035455083"><ele>92.66666666666667</ele><time>2026-04-27T08:15:07Z</time></trkpt><trkpt lat="46.063678687476184" lon="12.868917551678056"><ele>93.0</ele><time>2026-04-27T08:15:08Z</time></trkpt><trkpt lat="46.06364273526629" lon="12.869201578315362"><ele>92.66666666666667</ele><time>2026-04-27T08:15:09.001Z</time></trkpt><trkpt lat="46.063611415897014" lon="12.869469986250175"><ele>92.33333333333334</ele><time>2026-04-27T08:15:10.001Z</time></trkpt><trkpt lat="46.06358222614477" lon="12.869720779364128"><ele>92.0</ele><time>2026-04-27T08:15:11.001Z</time></trkpt><trkpt lat="46.06355672060975" lon="12.869972398364887"><ele>92.33333333333334</ele><time>2026-04-27T08:15:12.001Z</time></trkpt><trkpt lat="46.06354328700344" lon="12.870241534560837"><ele>92.66666666666667</ele><time>2026-04-27T08:15:13.001Z</time></trkpt><trkpt lat="46.063536251559725" lon="12.870535311089329"><ele>93.0</ele><time>2026-04-27T08:15:14.001Z</time></trkpt><trkpt lat="46.06353670248704" lon="12.870824055242052"><ele>93.0</ele><time>2026-04-27T08:15:15.001Z</time></trkpt><trkpt lat="46.06353705305919" lon="12.871081820216764"><ele>93.0</ele><time>2026-04-27T08:15:16.001Z</time></trkpt><trkpt lat="46.063515503046155" lon="12.871327171869552"><ele>93.0</ele><time>2026-04-27T08:15:17.001Z</time></trkpt><trkpt lat="46.06350933600543" lon="12.871563710980446"><ele>92.75</ele><time>2026-04-27T08:15:18.001Z</time></trkpt><trkpt lat="46.063519533993315" lon="12.871787760845367"><ele>92.5</ele><time>2026-04-27T08:15:19.001Z</time></trkpt><trkpt lat="46.06350910003459" lon="12.87199453457239"><ele>92.25</ele><time>2026-04-27T08:15:20.001Z</time></trkpt><trkpt lat="46.06351307946238" lon="12.8722025865151"><ele>92.0</ele><time>2026-04-27T08:15:21.001Z</time></trkpt><trkpt lat="46.06352192528751" lon="12.87243455050871"><ele>92.0</ele><time>2026-04-27T08:15:22.001Z</time></trkpt><trkpt lat="46.06355054366799" lon="12.872724585257664"><ele>92.0</ele><time>2026-04-27T08:15:23.001Z</time></trkpt><trkpt lat="46.06355911931196" lon="12.87298559281456"><ele>92.0</ele><time>2026-04-27T08:15:24.001Z</time></trkpt><trkpt lat="46.06357717877987" lon="12.873227296584506"><ele>92.66666666666667</ele><time>2026-04-27T08:15:25.001Z</time></trkpt><trkpt lat="46.06359365516365" lon="12.873469168522591"><ele>93.33333333333333</ele><time>2026-04-27T08:15:26.001Z</time></trkpt><trkpt lat="46.0636086343331" lon="12.873734876054845"><ele>94.0</ele><time>2026-04-27T08:15:27.001Z</time></trkpt><trkpt lat="46.06362083936935" lon="12.874040197524831"><ele>94.0</ele><time>2026-04-27T08:15:28.001Z</time></trkpt><trkpt lat="46.06362729750324" lon="12.874338009539803"><ele>94.0</ele><time>2026-04-27T08:15:29.001Z</time></trkpt><trkpt lat="46.063632231364586" lon="12.874599202860399"><ele>94.0</ele><time>2026-04-27T08:15:30.001Z</time></trkpt><trkpt lat="46.06363753470756" lon="12.874840357928099"><ele>94.0</ele><time>2026-04-27T08:15:31.001Z</time></trkpt><trkpt lat="46.06364479192659" lon="12.875070709332315"><ele>94.0</ele><time>2026-04-27T08:15:32.001Z</time></trkpt><trkpt lat="46.06365238000051" lon="12.87529379327525"><ele>94.0</ele><time>2026-04-27T08:15:33.001Z</time></trkpt><trkpt lat="46.06366341750558" lon="12.87552795933311"><ele>93.33333333333333</ele><time>2026-04-27T08:15:34.001Z</time></trkpt><trkpt lat="46.06367945496254" lon="12.875779654269367"><ele>92.66666666666667</ele><time>2026-04-27T08:15:35.001Z</time></trkpt><trkpt lat="46.063708370164136" lon="12.876042827141115"><ele>92.0</ele><time>2026-04-27T08:15:36.001Z</time></trkpt><trkpt lat="46.063729379755266" lon="12.876294851709456"><ele>91.66666666666667</ele><time>2026-04-27T08:15:37.001Z</time></trkpt><trkpt lat="46.063749931167706" lon="12.876514228477095"><ele>91.33333333333333</ele><time>2026-04-27T08:15:38.001Z</time></trkpt><trkpt lat="46.0637757194175" lon="12.876727311757053"><ele>91.0</ele><time>2026-04-27T08:15:39.001Z</time></trkpt><trkpt lat="46.06381913131311" lon="12.876964385225195"><ele>91.0</ele><time>2026-04-27T08:15:40.001Z</time></trkpt><trkpt lat="46.06386479403007" lon="12.877211521674349"><ele>91.0</ele><time>2026-04-27T08:15:41.001Z</time></trkpt><trkpt lat="46.06390630148005" lon="12.877446607446737"><ele>91.0</ele><time>2026-04-27T08:15:42.001Z</time></trkpt><trkpt lat="46.063942429448595" lon="12.877688918147369"><ele>91.33333333333333</ele><time>2026-04-27T08:15:43.001Z</time></trkpt><trkpt lat="46.0639703862795" lon="12.877927089867184"><ele>91.66666666666667</ele><time>2026-04-27T08:15:44.001Z</time></trkpt><trkpt lat="46.06399248697742" lon="12.878151944550877"><ele>92.0</ele><time>2026-04-27T08:15:45.001Z</time></trkpt><trkpt lat="46.06399191995946" lon="12.878378746596796"><ele>91.66666666666667</ele><time>2026-04-27T08:15:46.001Z</time></trkpt><trkpt lat="46.064003554725815" lon="12.878600245066838"><ele>91.33333333333333</ele><time>2026-04-27T08:15:47.001Z</time></trkpt><trkpt lat="46.06402789253466" lon="12.878817756575105"><ele>91.0</ele><time>2026-04-27T08:15:48.001Z</time></trkpt><trkpt lat="46.0640353634354" lon="12.879048892194918"><ele>91.0</ele><time>2026-04-27T08:15:49.001Z</time></trkpt><trkpt lat="46.06403368067195" lon="12.879279889510848"><ele>91.0</ele><time>2026-04-27T08:15:50.001Z</time></trkpt><trkpt lat="46.06401690809675" lon="12.879483426973131"><ele>91.0</ele><time>2026-04-27T08:15:51.001Z</time></trkpt><trkpt lat="46.064009023822635" lon="12.879666068520946"><ele>91.0</ele><time>2026-04-27T08:15:52.001Z</time></trkpt><trkpt lat="46.06400379211068" lon="12.87983832529271"><ele>91.0</ele><time>2026-04-27T08:15:53.001Z</time></trkpt><trkpt lat="46.06400717745302" lon="12.879996224298441"><ele>91.0</ele><time>2026-04-27T08:15:54.001Z</time></trkpt><trkpt lat="46.06401708055743" lon="12.880143091595341"><ele>91.0</ele><time>2026-04-27T08:15:55.001Z</time></trkpt><trkpt lat="46.0640410207583" lon="12.880273133368513"><ele>91.0</ele><time>2026-04-27T08:15:56.001Z</time></trkpt><trkpt lat="46.064046912393415" lon="12.880396540815774"><ele>91.0</ele><time>2026-04-27T08:15:57.001Z</time></trkpt><trkpt lat="46.06406217988639" lon="12.880508327255383"><ele>91.0</ele><time>2026-04-27T08:15:58.001Z</time></trkpt><trkpt lat="46.06407794239385" lon="12.880637581444581"><ele>91.0</ele><time>2026-04-27T08:15:59.001Z</time></trkpt><trkpt lat="46.064090595761186" lon="12.880785759441263"><ele>91.0</ele><time>2026-04-27T08:16:00.001Z</time></trkpt><trkpt lat="46.06411004739751" lon="12.880939537722229"><ele>91.0</ele><time>2026-04-27T08:16:01.002Z</time></trkpt><trkpt lat="46.06413958069646" lon="12.881105597091898"><ele>91.0</ele><time>2026-04-27T08:16:02.002Z</time></trkpt><trkpt lat="46.0641815865575" lon="12.881300179448132"><ele>91.0</ele><time>2026-04-27T08:16:03.002Z</time></trkpt><trkpt lat="46.0642378840435" lon="12.881528065143808"><ele>91.0</ele><time>2026-04-27T08:16:04.002Z</time></trkpt><trkpt lat="46.06429510265196" lon="12.881750784491555"><ele>91.0</ele><time>2026-04-27T08:16:05.002Z</time></trkpt><trkpt lat="46.064343756596394" lon="12.8819419455721"><ele>90.8</ele><time>2026-04-27T08:16:06.002Z</time></trkpt><trkpt lat="46.064388259760186" lon="12.882109964704297"><ele>90.6</ele><time>2026-04-27T08:16:07.002Z</time></trkpt><trkpt lat="46.06442750055965" lon="12.882257212429113"><ele>90.4</ele><time>2026-04-27T08:16:08.002Z</time></trkpt><trkpt lat="46.06445335341319" lon="12.882358928450426"><ele>90.2</ele><time>2026-04-27T08:16:09.002Z</time></trkpt><trkpt lat="46.06446324504679" lon="12.882460036129306"><ele>90.0</ele><time>2026-04-27T08:16:11.002Z</time></trkpt><trkpt lat="46.06450005620774" lon="12.88258890400727"><ele>90.5</ele><time>2026-04-27T08:16:17.002Z</time></trkpt><trkpt lat="46.064532558321645" lon="12.882736192499667"><ele>91.0</ele><time>2026-04-27T08:16:18.002Z</time></trkpt><trkpt lat="46.064597839323746" lon="12.882925623375087"><ele>91.5</ele><time>2026-04-27T08:16:19.002Z</time></trkpt><trkpt lat="46.06466278376582" lon="12.883146453668644"><ele>92.0</ele><time>2026-04-27T08:16:20.002Z</time></trkpt><trkpt lat="46.06473162790734" lon="12.883453820304213"><ele>92.0</ele><time>2026-04-27T08:16:21.002Z</time></trkpt><trkpt lat="46.06479597530688" lon="12.883744270473757"><ele>92.0</ele><time>2026-04-27T08:16:22.002Z</time></trkpt><trkpt lat="46.06482600473118" lon="12.883970741746255"><ele>92.0</ele><time>2026-04-27T08:16:23.002Z</time></trkpt><trkpt lat="46.06487767803948" lon="12.884219097733881"><ele>92.0</ele><time>2026-04-27T08:16:24.002Z</time></trkpt><trkpt lat="46.06492642299234" lon="12.884451513931277"><ele>92.0</ele><time>2026-04-27T08:16:25.002Z</time></trkpt><trkpt lat="46.064968549859174" lon="12.8846677433567"><ele>92.0</ele><time>2026-04-27T08:16:26.002Z</time></trkpt><trkpt lat="46.065009950074085" lon="12.884865340954725"><ele>91.66666666666667</ele><time>2026-04-27T08:16:27.002Z</time></trkpt><trkpt lat="46.06506065098375" lon="12.885064426126252"><ele>91.33333333333333</ele><time>2026-04-27T08:16:28.002Z</time></trkpt><trkpt lat="46.06514504308368" lon="12.885299129369578"><ele>91.0</ele><time>2026-04-27T08:16:29.002Z</time></trkpt><trkpt lat="46.0652273298917" lon="12.885533612842893"><ele>91.0</ele><time>2026-04-27T08:16:30.002Z</time></trkpt><trkpt lat="46.065304957082816" lon="12.885734351745109"><ele>91.0</ele><time>2026-04-27T08:16:31.002Z</time></trkpt><trkpt lat="46.06537546155026" lon="12.885925643810822"><ele>91.0</ele><time>2026-04-27T08:16:32.002Z</time></trkpt><trkpt lat="46.06544204061768" lon="12.886108221960955"><ele>91.25</ele><time>2026-04-27T08:16:33.002Z</time></trkpt><trkpt lat="46.065508253245" lon="12.886278367112208"><ele>91.5</ele><time>2026-04-27T08:16:34.002Z</time></trkpt><trkpt lat="46.06556974602895" lon="12.886434457174973"><ele>91.75</ele><time>2026-04-27T08:16:35.002Z</time></trkpt><trkpt lat="46.065620729527545" lon="12.886584566757016"><ele>92.0</ele><time>2026-04-27T08:16:36.002Z</time></trkpt><trkpt lat="46.065665115157515" lon="12.886724386123817"><ele>92.0</ele><time>2026-04-27T08:16:37.002Z</time></trkpt><trkpt lat="46.065695706695095" lon="12.886860461077372"><ele>92.0</ele><time>2026-04-27T08:16:38.002Z</time></trkpt><trkpt lat="46.06571873067486" lon="12.886977848865714"><ele>92.0</ele><time>2026-04-27T08:16:39.002Z</time></trkpt><trkpt lat="46.06573022134574" lon="12.887068756856033"><ele>92.0</ele><time>2026-04-27T08:16:40.002Z</time></trkpt><trkpt lat="46.065691495322696" lon="12.88720135429945"><ele>92.0</ele><time>2026-04-27T08:16:43.002Z</time></trkpt><trkpt lat="46.06561267875965" lon="12.887276673318105"><ele>92.0</ele><time>2026-04-27T08:16:44.002Z</time></trkpt><trkpt lat="46.06549842290373" lon="12.88735253484472"><ele>92.0</ele><time>2026-04-27T08:16:45.002Z</time></trkpt><trkpt lat="46.06536424835923" lon="12.88745390739378"><ele>92.0</ele><time>2026-04-27T08:16:46.002Z</time></trkpt><trkpt lat="46.06521937004081" lon="12.887589883821795"><ele>92.0</ele><time>2026-04-27T08:16:47.002Z</time></trkpt><trkpt lat="46.065047221277425" lon="12.887738486493744"><ele>91.33333333333334</ele><time>2026-04-27T08:16:48.002Z</time></trkpt><trkpt lat="46.06489230227036" lon="12.887874636101156"><ele>90.66666666666667</ele><time>2026-04-27T08:16:49Z</time></trkpt><trkpt lat="46.06475329107493" lon="12.88799796266457"><ele>90.0</ele><time>2026-04-27T08:16:50Z</time></trkpt><trkpt lat="46.06462223288239" lon="12.888121440141727"><ele>90.0</ele><time>2026-04-27T08:16:51Z</time></trkpt><trkpt lat="46.064497861036386" lon="12.888255886553358"><ele>90.0</ele><time>2026-04-27T08:16:52Z</time></trkpt><trkpt lat="46.064378843224546" lon="12.88839668436292"><ele>90.0</ele><time>2026-04-27T08:16:53Z</time></trkpt><trkpt lat="46.06425165583602" lon="12.888568603543723"><ele>89.33333333333333</ele><time>2026-04-27T08:16:54Z</time></trkpt><trkpt lat="46.06411783627247" lon="12.888755174319213"><ele>88.66666666666666</ele><time>2026-04-27T08:16:55Z</time></trkpt><trkpt lat="46.06399538947135" lon="12.888933620808189"><ele>88.0</ele><time>2026-04-27T08:16:56Z</time></trkpt><trkpt lat="46.06387710770624" lon="12.889111327402686"><ele>87.66666666666666</ele><time>2026-04-27T08:16:57Z</time></trkpt><trkpt lat="46.063759249791524" lon="12.889289750866812"><ele>87.33333333333333</ele><time>2026-04-27T08:16:58Z</time></trkpt><trkpt lat="46.063641232032815" lon="12.889475443412437"><ele>87.0</ele><time>2026-04-27T08:16:59Z</time></trkpt><trkpt lat="46.06351440663187" lon="12.889645684401358"><ele>87.0</ele><time>2026-04-27T08:17:00Z</time></trkpt><trkpt lat="46.06339827308751" lon="12.889851335918577"><ele>87.0</ele><time>2026-04-27T08:17:01Z</time></trkpt><trkpt lat="46.06323847784448" lon="12.89006540013665"><ele>87.0</ele><time>2026-04-27T08:17:02Z</time></trkpt><trkpt lat="46.06305972664878" lon="12.890312916715809"><ele>87.5</ele><time>2026-04-27T08:17:03Z</time></trkpt><trkpt lat="46.06288383043458" lon="12.890575345061908"><ele>88.0</ele><time>2026-04-27T08:17:04Z</time></trkpt><trkpt lat="46.06271907293182" lon="12.890811431525288"><ele>87.66666666666666</ele><time>2026-04-27T08:17:05Z</time></trkpt><trkpt lat="46.06256803159254" lon="12.891036103254722"><ele>87.33333333333333</ele><time>2026-04-27T08:17:06Z</time></trkpt><trkpt lat="46.06242914217327" lon="12.89124320037479"><ele>87.0</ele><time>2026-04-27T08:17:07Z</time></trkpt><trkpt lat="46.062295600185664" lon="12.89143675563833"><ele>87.0</ele><time>2026-04-27T08:17:08Z</time></trkpt><trkpt lat="46.0621650774655" lon="12.891627739980501"><ele>87.0</ele><time>2026-04-27T08:17:09Z</time></trkpt><trkpt lat="46.06202651220796" lon="12.891830676346622"><ele>87.0</ele><time>2026-04-27T08:17:10Z</time></trkpt><trkpt lat="46.06189101148803" lon="12.89203150549459"><ele>87.0</ele><time>2026-04-27T08:17:11Z</time></trkpt><trkpt lat="46.06175303693238" lon="12.892235186815158"><ele>87.0</ele><time>2026-04-27T08:17:12Z</time></trkpt><trkpt lat="46.06161125792838" lon="12.892445841883161"><ele>87.0</ele><time>2026-04-27T08:17:13Z</time></trkpt><trkpt lat="46.06146787660781" lon="12.892659083550207"><ele>86.66666666666667</ele><time>2026-04-27T08:17:14Z</time></trkpt><trkpt lat="46.061319796722714" lon="12.892872378904244"><ele>86.33333333333334</ele><time>2026-04-27T08:17:15Z</time></trkpt><trkpt lat="46.06117195829978" lon="12.89309166325019"><ele>86.0</ele><time>2026-04-27T08:17:16.001Z</time></trkpt><trkpt lat="46.06102142323755" lon="12.89331436782751"><ele>85.66666666666667</ele><time>2026-04-27T08:17:17.001Z</time></trkpt><trkpt lat="46.060874733259126" lon="12.89353140269341"><ele>85.33333333333333</ele><time>2026-04-27T08:17:18.001Z</time></trkpt><trkpt lat="46.060740244267286" lon="12.89372937182392"><ele>85.0</ele><time>2026-04-27T08:17:19.001Z</time></trkpt><trkpt lat="46.06061649481143" lon="12.893911026119474"><ele>85.0</ele><time>2026-04-27T08:17:20.001Z</time></trkpt><trkpt lat="46.06049696635279" lon="12.894084209083521"><ele>85.0</ele><time>2026-04-27T08:17:21.001Z</time></trkpt><trkpt lat="46.06038193016386" lon="12.894252470339262"><ele>85.0</ele><time>2026-04-27T08:17:22.001Z</time></trkpt><trkpt lat="46.06026872000777" lon="12.894420813550408"><ele>84.75</ele><time>2026-04-27T08:17:23.001Z</time></trkpt><trkpt lat="46.06015797771718" lon="12.89458333275777"><ele>84.5</ele><time>2026-04-27T08:17:24.001Z</time></trkpt><trkpt lat="46.0600515901535" lon="12.894725143660775"><ele>84.25</ele><time>2026-04-27T08:17:25.001Z</time></trkpt><trkpt lat="46.0599437335448" lon="12.89485935571357"><ele>84.0</ele><time>2026-04-27T08:17:26.001Z</time></trkpt><trkpt lat="46.059832625019816" lon="12.894983125992596"><ele>84.0</ele><time>2026-04-27T08:17:27.001Z</time></trkpt><trkpt lat="46.05971950822434" lon="12.895079358538577"><ele>84.0</ele><time>2026-04-27T08:17:28.001Z</time></trkpt><trkpt lat="46.05961518115415" lon="12.8951341148953"><ele>84.0</ele><time>2026-04-27T08:17:29.001Z</time></trkpt><trkpt lat="46.059531474818954" lon="12.895177462001211"><ele>84.0</ele><time>2026-04-27T08:17:30.001Z</time></trkpt><trkpt lat="46.05947229413395" lon="12.895214365798028"><ele>84.0</ele><time>2026-04-27T08:17:31.001Z</time></trkpt><trkpt lat="46.059391069946486" lon="12.895230246784235"><ele>83.66666666666667</ele><time>2026-04-27T08:17:33.001Z</time></trkpt><trkpt lat="46.05951571178009" lon="12.895475954507718"><ele>83.33333333333334</ele><time>2026-04-27T08:17:36.001Z</time></trkpt><trkpt lat="46.05966822543604" lon="12.895551744316787"><ele>83.0</ele><time>2026-04-27T08:17:37.001Z</time></trkpt><trkpt lat="46.05981416397545" lon="12.895655560483593"><ele>82.66666666666667</ele><time>2026-04-27T08:17:38.001Z</time></trkpt><trkpt lat="46.05999858153289" lon="12.895803207370477"><ele>82.33333333333333</ele><time>2026-04-27T08:17:39.001Z</time></trkpt><trkpt lat="46.060161851251564" lon="12.895935305008875"><ele>82.0</ele><time>2026-04-27T08:17:40.001Z</time></trkpt><trkpt lat="46.06030241999417" lon="12.896044924801382"><ele>82.0</ele><time>2026-04-27T08:17:41.001Z</time></trkpt><trkpt lat="46.060435990224796" lon="12.896138573904384"><ele>82.0</ele><time>2026-04-27T08:17:42.001Z</time></trkpt><trkpt lat="46.06058272618401" lon="12.896215969498517"><ele>82.0</ele><time>2026-04-27T08:17:43.001Z</time></trkpt><trkpt lat="46.06076700196396" lon="12.896279091925448"><ele>82.66666666666666</ele><time>2026-04-27T08:17:44.001Z</time></trkpt><trkpt lat="46.060976587326536" lon="12.896331762762832"><ele>83.33333333333333</ele><time>2026-04-27T08:17:45.001Z</time></trkpt><trkpt lat="46.061201359546985" lon="12.896387763200211"><ele>84.0</ele><time>2026-04-27T08:17:46.001Z</time></trkpt><trkpt lat="46.0614104255008" lon="12.89646470250798"><ele>84.0</ele><time>2026-04-27T08:17:47.001Z</time></trkpt><trkpt lat="46.061602820582706" lon="12.896492687404304"><ele>84.0</ele><time>2026-04-27T08:17:48.001Z</time></trkpt><trkpt lat="46.061775765720206" lon="12.896538213820689"><ele>84.0</ele><time>2026-04-27T08:17:49.001Z</time></trkpt><trkpt lat="46.0619334183247" lon="12.896579986102427"><ele>84.0</ele><time>2026-04-27T08:17:50.001Z</time></trkpt><trkpt lat="46.06207346443124" lon="12.896615099450479"><ele>84.0</ele><time>2026-04-27T08:17:51.001Z</time></trkpt><trkpt lat="46.0622038411715" lon="12.896646245504662"><ele>84.0</ele><time>2026-04-27T08:17:52.001Z</time></trkpt><trkpt lat="46.06231986561498" lon="12.896671471387357"><ele>84.0</ele><time>2026-04-27T08:17:53.001Z</time></trkpt><trkpt lat="46.062421789520585" lon="12.89670302896281"><ele>84.0</ele><time>2026-04-27T08:17:54.001Z</time></trkpt><trkpt lat="46.06251275703137" lon="12.89673240175466"><ele>84.0</ele><time>2026-04-27T08:17:55.001Z</time></trkpt><trkpt lat="46.0625950333467" lon="12.896768854005858"><ele>84.0</ele><time>2026-04-27T08:17:56.001Z</time></trkpt><trkpt lat="46.062661072252865" lon="12.896801003671708"><ele>84.0</ele><time>2026-04-27T08:17:57.001Z</time></trkpt><trkpt lat="46.06271202354304" lon="12.896881832642114"><ele>84.0</ele><time>2026-04-27T08:17:58.001Z</time></trkpt><trkpt lat="46.06281505432174" lon="12.896972345990964"><ele>84.0</ele><time>2026-04-27T08:18:00.001Z</time></trkpt><trkpt lat="46.06280422871314" lon="12.897095076904565"><ele>84.0</ele><time>2026-04-27T08:18:01.001Z</time></trkpt><trkpt lat="46.06300503018844" lon="12.896984570972865"><ele>84.0</ele><time>2026-04-27T08:18:02.001Z</time></trkpt><trkpt lat="46.06311661699692" lon="12.896995904019407"><ele>84.0</ele><time>2026-04-27T08:18:03.001Z</time></trkpt><trkpt lat="46.06324107626103" lon="12.896964952542048"><ele>84.0</ele><time>2026-04-27T08:18:04.001Z</time></trkpt><trkpt lat="46.06336496062511" lon="12.896923662518056"><ele>84.0</ele><time>2026-04-27T08:18:05.001Z</time></trkpt><trkpt lat="46.063467480587086" lon="12.896890655658629"><ele>84.0</ele><time>2026-04-27T08:18:06.001Z</time></trkpt><trkpt lat="46.063554833482605" lon="12.896896967288672"><ele>84.0</ele><time>2026-04-27T08:18:07.001Z</time></trkpt><trkpt lat="46.063671355922956" lon="12.896927708266533"><ele>84.0</ele><time>2026-04-27T08:18:08.001Z</time></trkpt><trkpt lat="46.06380124506008" lon="12.896973696463377"><ele>84.0</ele><time>2026-04-27T08:18:09.002Z</time></trkpt><trkpt lat="46.06396665051077" lon="12.897020467176915"><ele>84.0</ele><time>2026-04-27T08:18:10.002Z</time></trkpt><trkpt lat="46.06414381205872" lon="12.897073939510085"><ele>84.0</ele><time>2026-04-27T08:18:11.002Z</time></trkpt><trkpt lat="46.06429916720809" lon="12.897117851734764"><ele>84.5</ele><time>2026-04-27T08:18:12.002Z</time></trkpt><trkpt lat="46.064449666117845" lon="12.897163759428361"><ele>85.0</ele><time>2026-04-27T08:18:13.002Z</time></trkpt><trkpt lat="46.0645891332748" lon="12.897219816011225"><ele>85.5</ele><time>2026-04-27T08:18:14.002Z</time></trkpt><trkpt lat="46.064730657591824" lon="12.897277339297933"><ele>86.0</ele><time>2026-04-27T08:18:15.002Z</time></trkpt><trkpt lat="46.064887701953076" lon="12.897327217732894"><ele>86.0</ele><time>2026-04-27T08:18:16.002Z</time></trkpt><trkpt lat="46.0650228707686" lon="12.897391040330012"><ele>86.0</ele><time>2026-04-27T08:18:17.002Z</time></trkpt><trkpt lat="46.06515044429542" lon="12.897465281062397"><ele>86.0</ele><time>2026-04-27T08:18:18.002Z</time></trkpt><trkpt lat="46.06530703437718" lon="12.897569019909525"><ele>86.0</ele><time>2026-04-27T08:18:19.002Z</time></trkpt><trkpt lat="46.06548394488264" lon="12.897682203507486"><ele>86.0</ele><time>2026-04-27T08:18:20.002Z</time></trkpt><trkpt lat="46.06566244510646" lon="12.897785659009664"><ele>86.0</ele><time>2026-04-27T08:18:21.002Z</time></trkpt><trkpt lat="46.065814442739814" lon="12.897863771367387"><ele>86.0</ele><time>2026-04-27T08:18:22.002Z</time></trkpt><trkpt lat="46.065943990186476" lon="12.8979279445798"><ele>86.0</ele><time>2026-04-27T08:18:23.002Z</time></trkpt><trkpt lat="46.066038115101165" lon="12.897971852131434"><ele>86.0</ele><time>2026-04-27T08:18:24.002Z</time></trkpt><trkpt lat="46.066115707802815" lon="12.898016174928637"><ele>86.0</ele><time>2026-04-27T08:18:25.002Z</time></trkpt><trkpt lat="46.066182679212524" lon="12.898128669555538"><ele>86.0</ele><time>2026-04-27T08:18:27.002Z</time></trkpt><trkpt lat="46.06617402614585" lon="12.898323766151865"><ele>86.16666666666667</ele><time>2026-04-27T08:18:29.002Z</time></trkpt><trkpt lat="46.066149834271535" lon="12.898440401424665"><ele>86.33333333333334</ele><time>2026-04-27T08:18:30.002Z</time></trkpt><trkpt lat="46.0661332047219" lon="12.898547569770805"><ele>86.5</ele><time>2026-04-27T08:18:31.002Z</time></trkpt><trkpt lat="46.066116061790126" lon="12.89867325052125"><ele>86.66666666666667</ele><time>2026-04-27T08:18:32.002Z</time></trkpt><trkpt lat="46.06609522690464" lon="12.898807830909666"><ele>86.83333333333333</ele><time>2026-04-27T08:18:33.002Z</time></trkpt><trkpt lat="46.0660610456191" lon="12.898919989141978"><ele>87.0</ele><time>2026-04-27T08:18:34.002Z</time></trkpt><trkpt lat="46.06602952303432" lon="12.8990084410538"><ele>87.0</ele><time>2026-04-27T08:18:35.002Z</time></trkpt><trkpt lat="46.0660101141116" lon="12.899131182410736"><ele>87.0</ele><time>2026-04-27T08:18:37.002Z</time></trkpt><trkpt lat="46.06593859248775" lon="12.899175939807506"><ele>87.0</ele><time>2026-04-27T08:18:40.002Z</time></trkpt><trkpt lat="46.065847535991466" lon="12.89929268749538"><ele>87.0</ele><time>2026-04-27T08:18:42.002Z</time></trkpt><trkpt lat="46.06580191071407" lon="12.899453352030724"><ele>87.0</ele><time>2026-04-27T08:18:43.002Z</time></trkpt><trkpt lat="46.06575864698516" lon="12.899628452938774"><ele>86.8</ele><time>2026-04-27T08:18:44.002Z</time></trkpt><trkpt lat="46.06570972938608" lon="12.89977858210498"><ele>86.6</ele><time>2026-04-27T08:18:45.002Z</time></trkpt><trkpt lat="46.065663846774434" lon="12.89993117879633"><ele>86.39999999999999</ele><time>2026-04-27T08:18:46.002Z</time></trkpt><trkpt lat="46.06562608248702" lon="12.900057379628166"><ele>86.19999999999999</ele><time>2026-04-27T08:18:47.002Z</time></trkpt><trkpt lat="46.065587288893994" lon="12.900191817049631"><ele>86.0</ele><time>2026-04-27T08:18:48.002Z</time></trkpt><trkpt lat="46.06555301415929" lon="12.900324109141982"><ele>85.8</ele><time>2026-04-27T08:18:49.002Z</time></trkpt><trkpt lat="46.06551517671765" lon="12.9004540378717"><ele>85.6</ele><time>2026-04-27T08:18:50.002Z</time></trkpt><trkpt lat="46.06547661152339" lon="12.90061357629174"><ele>85.4</ele><time>2026-04-27T08:18:51.002Z</time></trkpt><trkpt lat="46.0654421444848" lon="12.900765202005005"><ele>85.2</ele><time>2026-04-27T08:18:52.002Z</time></trkpt><trkpt lat="46.06541061067015" lon="12.900904233928427"><ele>85.0</ele><time>2026-04-27T08:18:53.002Z</time></trkpt><trkpt lat="46.06538041368901" lon="12.901042118908846"><ele>85.5</ele><time>2026-04-27T08:18:54.002Z</time></trkpt><trkpt lat="46.0653474905246" lon="12.901191522257712"><ele>86.0</ele><time>2026-04-27T08:18:55Z</time></trkpt><trkpt lat="46.06531514859063" lon="12.901352077944905"><ele>86.5</ele><time>2026-04-27T08:18:56Z</time></trkpt><trkpt lat="46.06527943223465" lon="12.901507238294071"><ele>87.0</ele><time>2026-04-27T08:18:57Z</time></trkpt><trkpt lat="46.065248211462595" lon="12.901665666452804"><ele>87.19999999999999</ele><time>2026-04-27T08:18:58Z</time></trkpt><trkpt lat="46.06521028703882" lon="12.901801271976339"><ele>87.4</ele><time>2026-04-27T08:18:59Z</time></trkpt><trkpt lat="46.06518029666352" lon="12.901949702493644"><ele>87.6</ele><time>2026-04-27T08:19:00Z</time></trkpt><trkpt lat="46.0651482060823" lon="12.902096590612633"><ele>87.80000000000001</ele><time>2026-04-27T08:19:01Z</time></trkpt><trkpt lat="46.065116522128115" lon="12.902253399184742"><ele>88.0</ele><time>2026-04-27T08:19:02Z</time></trkpt><trkpt lat="46.06508517686569" lon="12.90239265673115"><ele>88.0</ele><time>2026-04-27T08:19:03Z</time></trkpt><trkpt lat="46.06505254062743" lon="12.902536209894503"><ele>88.0</ele><time>2026-04-27T08:19:04Z</time></trkpt><trkpt lat="46.06502445121662" lon="12.902681915764495"><ele>88.0</ele><time>2026-04-27T08:19:05Z</time></trkpt><trkpt lat="46.064992646597275" lon="12.90282337540456"><ele>88.0</ele><time>2026-04-27T08:19:06Z</time></trkpt><trkpt lat="46.06495847342189" lon="12.902972277397115"><ele>88.0</ele><time>2026-04-27T08:19:07Z</time></trkpt><trkpt lat="46.064927301096894" lon="12.903133783207355"><ele>87.5</ele><time>2026-04-27T08:19:08Z</time></trkpt><trkpt lat="46.06489584536153" lon="12.903294192670774"><ele>87.0</ele><time>2026-04-27T08:19:09Z</time></trkpt><trkpt lat="46.06485562524702" lon="12.903452227954933"><ele>86.5</ele><time>2026-04-27T08:19:10Z</time></trkpt><trkpt lat="46.06481573313033" lon="12.903619829339037"><ele>86.0</ele><time>2026-04-27T08:19:11Z</time></trkpt><trkpt lat="46.06477639445903" lon="12.903795498444588"><ele>86.0</ele><time>2026-04-27T08:19:12Z</time></trkpt><trkpt lat="46.06473242334172" lon="12.903961915728875"><ele>86.0</ele><time>2026-04-27T08:19:13Z</time></trkpt><trkpt lat="46.064683837746024" lon="12.904135891006854"><ele>86.0</ele><time>2026-04-27T08:19:14Z</time></trkpt><trkpt lat="46.06463431125151" lon="12.904303346705683"><ele>86.0</ele><time>2026-04-27T08:19:15Z</time></trkpt><trkpt lat="46.064601035844035" lon="12.904421352512697"><ele>86.0</ele><time>2026-04-27T08:19:16Z</time></trkpt><trkpt lat="46.0645647849193" lon="12.904555344611774"><ele>86.0</ele><time>2026-04-27T08:19:17Z</time></trkpt><trkpt lat="46.064540559814965" lon="12.904645141545686"><ele>86.0</ele><time>2026-04-27T08:19:18Z</time></trkpt><trkpt lat="46.06451110444278" lon="12.90476250131013"><ele>86.0</ele><time>2026-04-27T08:19:19Z</time></trkpt><trkpt lat="46.064467768823114" lon="12.904845160872945"><ele>86.0</ele><time>2026-04-27T08:19:20Z</time></trkpt><trkpt lat="46.06439885205489" lon="12.904937237256876"><ele>86.0</ele><time>2026-04-27T08:19:22Z</time></trkpt><trkpt lat="46.06445865770952" lon="12.904983281947118"><ele>86.00000000000001</ele><time>2026-04-27T08:19:29.001Z</time></trkpt><trkpt lat="46.06452700271328" lon="12.90502576336112"><ele>86.0</ele><time>2026-04-27T08:19:30.001Z</time></trkpt><trkpt lat="46.06458044290693" lon="12.905097105319001"><ele>86.0</ele><time>2026-04-27T08:19:31.001Z</time></trkpt><trkpt lat="46.0646082848436" lon="12.905188719776868"><ele>86.0</ele><time>2026-04-27T08:19:32.001Z</time></trkpt><trkpt lat="46.0646349206762" lon="12.905282782510637"><ele>86.0</ele><time>2026-04-27T08:19:33.001Z</time></trkpt><trkpt lat="46.06466818106571" lon="12.90537653452517"><ele>86.00000000000001</ele><time>2026-04-27T08:19:34.001Z</time></trkpt><trkpt lat="46.064702138950075" lon="12.905477121407351"><ele>86.0</ele><time>2026-04-27T08:19:35.001Z</time></trkpt><trkpt lat="46.064756061029684" lon="12.90559768536811"><ele>85.8</ele><time>2026-04-27T08:19:36.001Z</time></trkpt><trkpt lat="46.06480602210537" lon="12.905720098681387"><ele>85.6</ele><time>2026-04-27T08:19:37.001Z</time></trkpt><trkpt lat="46.06484070456535" lon="12.905819270640825"><ele>85.4</ele><time>2026-04-27T08:19:38.001Z</time></trkpt><trkpt lat="46.06492038538657" lon="12.905984300391221"><ele>85.2</ele><time>2026-04-27T08:19:40.001Z</time></trkpt><trkpt lat="46.0649602655115" lon="12.906061457137627"><ele>85.0</ele><time>2026-04-27T08:19:41.001Z</time></trkpt><trkpt lat="46.0650118378434" lon="12.906189114440021"><ele>84.66666666666666</ele><time>2026-04-27T08:19:43.001Z</time></trkpt><trkpt lat="46.06506390852302" lon="12.90632144882615"><ele>84.33333333333333</ele><time>2026-04-27T08:19:45.001Z</time></trkpt><trkpt lat="46.06511570510233" lon="12.90643703150264"><ele>84.0</ele><time>2026-04-27T08:19:47.001Z</time></trkpt><trkpt lat="46.06512182577418" lon="12.9065391521591"><ele>83.66666666666667</ele><time>2026-04-27T08:19:49.001Z</time></trkpt><trkpt lat="46.06506751136406" lon="12.906629989038224"><ele>83.33333333333334</ele><time>2026-04-27T08:19:51.001Z</time></trkpt><trkpt lat="46.06504303206343" lon="12.906719275493263"><ele>83.0</ele><time>2026-04-27T08:19:53.001Z</time></trkpt><trkpt lat="46.06506825315163" lon="12.906828917537272"><ele>83.0</ele><time>2026-04-27T08:19:55.001Z</time></trkpt><trkpt lat="46.06514762202889" lon="12.906892936528171"><ele>83.0</ele><time>2026-04-27T08:19:57.001Z</time></trkpt><trkpt lat="46.06522684289835" lon="12.906891294774766"><ele>83.0</ele><time>2026-04-27T08:19:59.001Z</time></trkpt><trkpt lat="46.06531115488349" lon="12.906794127411496"><ele>83.0</ele><time>2026-04-27T08:20:01.001Z</time></trkpt><trkpt lat="46.06539213193485" lon="12.90664086902586"><ele>83.0</ele><time>2026-04-27T08:20:02.001Z</time></trkpt><trkpt lat="46.06546011276476" lon="12.906521879972217"><ele>83.0</ele><time>2026-04-27T08:20:03.001Z</time></trkpt><trkpt lat="46.06550676353782" lon="12.906438517197394"><ele>83.0</ele><time>2026-04-27T08:20:04.001Z</time></trkpt><trkpt lat="46.06558193520178" lon="12.906429877695505"><ele>83.0</ele><time>2026-04-27T08:20:07.001Z</time></trkpt><trkpt lat="46.06556060127361" lon="12.906531813670965"><ele>83.0</ele><time>2026-04-27T08:20:10.001Z</time></trkpt><trkpt lat="46.065478384822654" lon="12.906650019732055"><ele>83.0</ele><time>2026-04-27T08:20:12.001Z</time></trkpt><trkpt lat="46.065534657331035" lon="12.906737074390346"><ele>83.0</ele><time>2026-04-27T08:20:14.001Z</time></trkpt><trkpt lat="46.0656021468222" lon="12.906746859132301"><ele>82.75</ele><time>2026-04-27T08:20:15.001Z</time></trkpt><trkpt lat="46.06570363128742" lon="12.906763058263877"><ele>82.5</ele><time>2026-04-27T08:20:16.001Z</time></trkpt><trkpt lat="46.065818627179226" lon="12.90676567658017"><ele>82.25</ele><time>2026-04-27T08:20:17.001Z</time></trkpt><trkpt lat="46.065939437952274" lon="12.906768392432584"><ele>82.0</ele><time>2026-04-27T08:20:18.001Z</time></trkpt><trkpt lat="46.06607558677406" lon="12.906778818868485"><ele>82.6</ele><time>2026-04-27T08:20:19.001Z</time></trkpt><trkpt lat="46.06617440859182" lon="12.906794377263676"><ele>83.19999999999999</ele><time>2026-04-27T08:20:20.001Z</time></trkpt><trkpt lat="46.066272777487065" lon="12.906802216633086"><ele>83.8</ele><time>2026-04-27T08:20:21.001Z</time></trkpt><trkpt lat="46.06636865912821" lon="12.906813140748772"><ele>84.4</ele><time>2026-04-27T08:20:22.001Z</time></trkpt><trkpt lat="46.06645439562024" lon="12.906811418331724"><ele>85.0</ele><time>2026-04-27T08:20:23.001Z</time></trkpt><trkpt lat="46.06656471901029" lon="12.906827506258887"><ele>85.33333333333333</ele><time>2026-04-27T08:20:24.001Z</time></trkpt><trkpt lat="46.066656551350825" lon="12.906826878967532"><ele>85.66666666666666</ele><time>2026-04-27T08:20:25.001Z</time></trkpt><trkpt lat="46.066740859017195" lon="12.906850311028863"><ele>86.0</ele><time>2026-04-27T08:20:26.001Z</time></trkpt><trkpt lat="46.06683364713933" lon="12.906853384464373"><ele>86.33333333333333</ele><time>2026-04-27T08:20:27.002Z</time></trkpt><trkpt lat="46.0669219640262" lon="12.906871972170421"><ele>86.66666666666667</ele><time>2026-04-27T08:20:28.002Z</time></trkpt><trkpt lat="46.06700908369777" lon="12.906889127713336"><ele>87.0</ele><time>2026-04-27T08:20:29.002Z</time></trkpt><trkpt lat="46.06709981430692" lon="12.906890789391728"><ele>87.0</ele><time>2026-04-27T08:20:30.002Z</time></trkpt><trkpt lat="46.06719534026733" lon="12.906890548944327"><ele>87.0</ele><time>2026-04-27T08:20:31.002Z</time></trkpt><trkpt lat="46.06728510301239" lon="12.90689238613442"><ele>87.0</ele><time>2026-04-27T08:20:32.002Z</time></trkpt><trkpt lat="46.067369537275205" lon="12.906891382925128"><ele>87.0</ele><time>2026-04-27T08:20:33.002Z</time></trkpt><trkpt lat="46.067470555421195" lon="12.90690091653627"><ele>87.0</ele><time>2026-04-27T08:20:34.002Z</time></trkpt><trkpt lat="46.06757420319621" lon="12.906912123817273"><ele>87.0</ele><time>2026-04-27T08:20:35.002Z</time></trkpt><trkpt lat="46.06767249942977" lon="12.906918111227176"><ele>87.0</ele><time>2026-04-27T08:20:36.002Z</time></trkpt><trkpt lat="46.067761373070645" lon="12.90692560054175"><ele>87.0</ele><time>2026-04-27T08:20:37.002Z</time></trkpt><trkpt lat="46.06784261617203" lon="12.906922403801214"><ele>87.0</ele><time>2026-04-27T08:20:38.002Z</time></trkpt><trkpt lat="46.06792575302564" lon="12.906926855861103"><ele>87.0</ele><time>2026-04-27T08:20:39.002Z</time></trkpt><trkpt lat="46.0680137123913" lon="12.906934236916484"><ele>87.0</ele><time>2026-04-27T08:20:40.002Z</time></trkpt><trkpt lat="46.068136026069006" lon="12.906945586515779"><ele>87.0</ele><time>2026-04-27T08:20:41.002Z</time></trkpt><trkpt lat="46.068269727124914" lon="12.906949697872228"><ele>87.0</ele><time>2026-04-27T08:20:42.002Z</time></trkpt><trkpt lat="46.06839505532687" lon="12.906951004133079"><ele>87.0</ele><time>2026-04-27T08:20:43.002Z</time></trkpt><trkpt lat="46.06852300565231" lon="12.906963180260377"><ele>87.0</ele><time>2026-04-27T08:20:44.002Z</time></trkpt><trkpt lat="46.06865446055866" lon="12.906979302358332"><ele>86.75</ele><time>2026-04-27T08:20:45.002Z</time></trkpt><trkpt lat="46.06881523366063" lon="12.90698733548186"><ele>86.5</ele><time>2026-04-27T08:20:46.002Z</time></trkpt><trkpt lat="46.068937965940194" lon="12.907008347316985"><ele>86.25</ele><time>2026-04-27T08:20:47.002Z</time></trkpt><trkpt lat="46.06905430046846" lon="12.90702845566411"><ele>86.0</ele><time>2026-04-27T08:20:48.002Z</time></trkpt><trkpt lat="46.06921441862912" lon="12.906996404278244"><ele>85.5</ele><time>2026-04-27T08:20:49.002Z</time></trkpt><trkpt lat="46.069341475825155" lon="12.906999984328998"><ele>85.0</ele><time>2026-04-27T08:20:50.002Z</time></trkpt><trkpt lat="46.06947587001551" lon="12.907011575587328"><ele>84.5</ele><time>2026-04-27T08:20:51.002Z</time></trkpt><trkpt lat="46.0696104118462" lon="12.907020102139526"><ele>84.0</ele><time>2026-04-27T08:20:52.002Z</time></trkpt><trkpt lat="46.06973322198069" lon="12.907020815084156"><ele>84.0</ele><time>2026-04-27T08:20:53.002Z</time></trkpt><trkpt lat="46.069863002102" lon="12.907019876302467"><ele>84.0</ele><time>2026-04-27T08:20:54.002Z</time></trkpt><trkpt lat="46.07000458877931" lon="12.907017290602662"><ele>84.0</ele><time>2026-04-27T08:20:55.002Z</time></trkpt><trkpt lat="46.07015962125821" lon="12.907020070396767"><ele>84.0</ele><time>2026-04-27T08:20:56.002Z</time></trkpt><trkpt lat="46.0703262075625" lon="12.907026831279708"><ele>84.66666666666667</ele><time>2026-04-27T08:20:57.002Z</time></trkpt><trkpt lat="46.07049256011831" lon="12.907035216846428"><ele>85.33333333333334</ele><time>2026-04-27T08:20:58.002Z</time></trkpt><trkpt lat="46.07067140821761" lon="12.907039685173169"><ele>86.0</ele><time>2026-04-27T08:20:59.002Z</time></trkpt><trkpt lat="46.07084198595099" lon="12.907048905330493"><ele>86.33333333333334</ele><time>2026-04-27T08:21:00.002Z</time></trkpt><trkpt lat="46.07101054223615" lon="12.907057785580578"><ele>86.66666666666667</ele><time>2026-04-27T08:21:01Z</time></trkpt><trkpt lat="46.07117723204086" lon="12.907065586156218"><ele>87.0</ele><time>2026-04-27T08:21:02Z</time></trkpt><trkpt lat="46.07135491306807" lon="12.907071703647633"><ele>87.0</ele><time>2026-04-27T08:21:03Z</time></trkpt><trkpt lat="46.071533821369115" lon="12.907081704201"><ele>87.0</ele><time>2026-04-27T08:21:04Z</time></trkpt><trkpt lat="46.07172820798635" lon="12.90708967221481"><ele>87.0</ele><time>2026-04-27T08:21:05Z</time></trkpt><trkpt lat="46.07190237324313" lon="12.907103935914247"><ele>86.66666666666667</ele><time>2026-04-27T08:21:06Z</time></trkpt><trkpt lat="46.07207382956315" lon="12.907122650348033"><ele>86.33333333333334</ele><time>2026-04-27T08:21:07Z</time></trkpt><trkpt lat="46.072246850467124" lon="12.90713386740681"><ele>86.0</ele><time>2026-04-27T08:21:08Z</time></trkpt><trkpt lat="46.07242201754676" lon="12.90712970003414"><ele>86.33333333333334</ele><time>2026-04-27T08:21:09Z</time></trkpt><trkpt lat="46.0725718201089" lon="12.907133233638714"><ele>86.66666666666667</ele><time>2026-04-27T08:21:10Z</time></trkpt><trkpt lat="46.07272098176549" lon="12.907140441662284"><ele>87.0</ele><time>2026-04-27T08:21:11Z</time></trkpt><trkpt lat="46.072882578577" lon="12.907146819171366"><ele>87.0</ele><time>2026-04-27T08:21:12Z</time></trkpt><trkpt lat="46.07303587237466" lon="12.907154137903461"><ele>87.0</ele><time>2026-04-27T08:21:13Z</time></trkpt><trkpt lat="46.07320302568872" lon="12.90715970740102"><ele>87.0</ele><time>2026-04-27T08:21:14Z</time></trkpt><trkpt lat="46.073367871085885" lon="12.907177165972774"><ele>87.25</ele><time>2026-04-27T08:21:15Z</time></trkpt><trkpt lat="46.07351831257211" lon="12.907199710809188"><ele>87.5</ele><time>2026-04-27T08:21:16Z</time></trkpt><trkpt lat="46.07365721463204" lon="12.907233852016041"><ele>87.75</ele><time>2026-04-27T08:21:17Z</time></trkpt><trkpt lat="46.073787969508246" lon="12.907273737712346"><ele>88.0</ele><time>2026-04-27T08:21:18Z</time></trkpt><trkpt lat="46.07391313988905" lon="12.907320000804457"><ele>88.0</ele><time>2026-04-27T08:21:19Z</time></trkpt><trkpt lat="46.07403582087807" lon="12.907363653713386"><ele>88.0</ele><time>2026-04-27T08:21:20Z</time></trkpt><trkpt lat="46.07418641374634" lon="12.9073956856506"><ele>88.0</ele><time>2026-04-27T08:21:21Z</time></trkpt><trkpt lat="46.0743372279891" lon="12.907431786636307"><ele>88.0</ele><time>2026-04-27T08:21:22Z</time></trkpt><trkpt lat="46.07446481509592" lon="12.907469632593582"><ele>88.25</ele><time>2026-04-27T08:21:23Z</time></trkpt><trkpt lat="46.07458410857197" lon="12.907503055198038"><ele>88.5</ele><time>2026-04-27T08:21:24Z</time></trkpt><trkpt lat="46.07470379783066" lon="12.90753116395702"><ele>88.75</ele><time>2026-04-27T08:21:25Z</time></trkpt><trkpt lat="46.07485234307807" lon="12.907578954802222"><ele>89.0</ele><time>2026-04-27T08:21:26Z</time></trkpt><trkpt lat="46.0750237967946" lon="12.907634841011028"><ele>89.0</ele><time>2026-04-27T08:21:27Z</time></trkpt><trkpt lat="46.0751787517674" lon="12.907680764566972"><ele>89.0</ele><time>2026-04-27T08:21:28Z</time></trkpt><trkpt lat="46.075340810498346" lon="12.907737534171257"><ele>89.0</ele><time>2026-04-27T08:21:29Z</time></trkpt><trkpt lat="46.07553314554859" lon="12.907819803591238"><ele>89.0</ele><time>2026-04-27T08:21:30Z</time></trkpt><trkpt lat="46.07571463661476" lon="12.907862502320944"><ele>89.0</ele><time>2026-04-27T08:21:31Z</time></trkpt><trkpt lat="46.07590224516361" lon="12.907917698077673"><ele>89.0</ele><time>2026-04-27T08:21:32Z</time></trkpt><trkpt lat="46.07605372845681" lon="12.90796981454545"><ele>88.33333333333334</ele><time>2026-04-27T08:21:33Z</time></trkpt><trkpt lat="46.07621835485523" lon="12.90804287077127"><ele>87.66666666666667</ele><time>2026-04-27T08:21:34Z</time></trkpt><trkpt lat="46.0763621382169" lon="12.908091232760837"><ele>87.0</ele><time>2026-04-27T08:21:35.001Z</time></trkpt><trkpt lat="46.07653874226836" lon="12.908115673033253"><ele>87.33333333333333</ele><time>2026-04-27T08:21:36.001Z</time></trkpt><trkpt lat="46.07669901667457" lon="12.908162870428121"><ele>87.66666666666666</ele><time>2026-04-27T08:21:37.001Z</time></trkpt><trkpt lat="46.07686058581098" lon="12.90814918155084"><ele>88.0</ele><time>2026-04-27T08:21:38.001Z</time></trkpt><trkpt lat="46.07704120638396" lon="12.908145627400737"><ele>88.0</ele><time>2026-04-27T08:21:39.001Z</time></trkpt><trkpt lat="46.07722531606693" lon="12.908133868088624"><ele>88.0</ele><time>2026-04-27T08:21:40.001Z</time></trkpt><trkpt lat="46.07743735949658" lon="12.908108326677215"><ele>88.0</ele><time>2026-04-27T08:21:41.001Z</time></trkpt><trkpt lat="46.077612163950306" lon="12.908097092076403"><ele>88.0</ele><time>2026-04-27T08:21:42.001Z</time></trkpt><trkpt lat="46.077758462929694" lon="12.908081315121409"><ele>88.0</ele><time>2026-04-27T08:21:43.001Z</time></trkpt><trkpt lat="46.07789011752155" lon="12.908067117425947"><ele>88.0</ele><time>2026-04-27T08:21:44.001Z</time></trkpt><trkpt lat="46.078134162187546" lon="12.90804080156211"><ele>88.33333333333333</ele><time>2026-04-27T08:21:45.001Z</time></trkpt><trkpt lat="46.07828572228856" lon="12.908024057216599"><ele>88.66666666666667</ele><time>2026-04-27T08:21:46.001Z</time></trkpt><trkpt lat="46.07844714401215" lon="12.907987158326803"><ele>89.0</ele><time>2026-04-27T08:21:47.001Z</time></trkpt><trkpt lat="46.07860786556055" lon="12.907965906800175"><ele>89.0</ele><time>2026-04-27T08:21:48.001Z</time></trkpt><trkpt lat="46.078774787172975" lon="12.907947757627174"><ele>89.0</ele><time>2026-04-27T08:21:49.001Z</time></trkpt><trkpt lat="46.07894744659836" lon="12.907931731188594"><ele>89.0</ele><time>2026-04-27T08:21:50.001Z</time></trkpt><trkpt lat="46.079127333191856" lon="12.907911505642348"><ele>89.0</ele><time>2026-04-27T08:21:51.001Z</time></trkpt><trkpt lat="46.07929036530449" lon="12.907895039594278"><ele>89.0</ele><time>2026-04-27T08:21:52.001Z</time></trkpt><trkpt lat="46.07943422571256" lon="12.907881675782647"><ele>89.0</ele><time>2026-04-27T08:21:53.001Z</time></trkpt><trkpt lat="46.07956723159688" lon="12.907852802239805"><ele>89.0</ele><time>2026-04-27T08:21:54.001Z</time></trkpt><trkpt lat="46.0797096716867" lon="12.90783385229155"><ele>89.0</ele><time>2026-04-27T08:21:55.001Z</time></trkpt><trkpt lat="46.079857907410485" lon="12.90781223527212"><ele>89.0</ele><time>2026-04-27T08:21:56.001Z</time></trkpt><trkpt lat="46.080009356245405" lon="12.90780413362348"><ele>89.0</ele><time>2026-04-27T08:21:57.001Z</time></trkpt><trkpt lat="46.080141236402824" lon="12.907812395052032"><ele>89.0</ele><time>2026-04-27T08:21:58.001Z</time></trkpt><trkpt lat="46.080275559771515" lon="12.907826429110267"><ele>89.0</ele><time>2026-04-27T08:21:59.001Z</time></trkpt><trkpt lat="46.08041386965446" lon="12.90782958280946"><ele>89.0</ele><time>2026-04-27T08:22:00.001Z</time></trkpt><trkpt lat="46.08056472691669" lon="12.907750900119277"><ele>89.0</ele><time>2026-04-27T08:22:01.001Z</time></trkpt><trkpt lat="46.0806700326858" lon="12.907601290645035"><ele>89.0</ele><time>2026-04-27T08:22:02.001Z</time></trkpt><trkpt lat="46.080823978480566" lon="12.907479753992753"><ele>89.0</ele><time>2026-04-27T08:22:03.001Z</time></trkpt><trkpt lat="46.08096492783489" lon="12.907376489961948"><ele>89.0</ele><time>2026-04-27T08:22:04.001Z</time></trkpt><trkpt lat="46.08130758699665" lon="12.90775833077549"><ele>89.33333333333334</ele><time>2026-04-27T08:22:05.001Z</time></trkpt><trkpt lat="46.081502235606315" lon="12.907753018654303"><ele>89.66666666666667</ele><time>2026-04-27T08:22:06.001Z</time></trkpt><trkpt lat="46.081679167249014" lon="12.907749311403817"><ele>90.0</ele><time>2026-04-27T08:22:07.001Z</time></trkpt><trkpt lat="46.08184216506635" lon="12.907749419525153"><ele>90.33333333333333</ele><time>2026-04-27T08:22:08.001Z</time></trkpt><trkpt lat="46.08200552534883" lon="12.90774071728432"><ele>90.66666666666666</ele><time>2026-04-27T08:22:09.001Z</time></trkpt><trkpt lat="46.08217692210826" lon="12.907729536453777"><ele>91.0</ele><time>2026-04-27T08:22:10.001Z</time></trkpt><trkpt lat="46.082358592818835" lon="12.9077233525657"><ele>91.0</ele><time>2026-04-27T08:22:11.001Z</time></trkpt><trkpt lat="46.082523980350395" lon="12.907706430503774"><ele>91.0</ele><time>2026-04-27T08:22:12.001Z</time></trkpt><trkpt lat="46.08267535811942" lon="12.907700519383736"><ele>91.0</ele><time>2026-04-27T08:22:13.001Z</time></trkpt><trkpt lat="46.082822176346255" lon="12.907705015312427"><ele>91.0</ele><time>2026-04-27T08:22:14.001Z</time></trkpt><trkpt lat="46.0829759953474" lon="12.907704371226362"><ele>91.0</ele><time>2026-04-27T08:22:15.001Z</time></trkpt><trkpt lat="46.08314166778222" lon="12.90770324221605"><ele>91.0</ele><time>2026-04-27T08:22:16.001Z</time></trkpt><trkpt lat="46.083295660996164" lon="12.907694602292402"><ele>91.19999999999999</ele><time>2026-04-27T08:22:17.001Z</time></trkpt><trkpt lat="46.083425080104384" lon="12.907684007949946"><ele>91.39999999999999</ele><time>2026-04-27T08:22:18.001Z</time></trkpt><trkpt lat="46.08352879818825" lon="12.90766545214361"><ele>91.6</ele><time>2026-04-27T08:22:19.001Z</time></trkpt><trkpt lat="46.083592370800595" lon="12.907638465653724"><ele>91.8</ele><time>2026-04-27T08:22:20.001Z</time></trkpt><trkpt lat="46.08366481505091" lon="12.90753634280636"><ele>92.0</ele><time>2026-04-27T08:22:22.001Z</time></trkpt><trkpt lat="46.08368317345131" lon="12.907426523508306"><ele>92.0</ele><time>2026-04-27T08:22:23.001Z</time></trkpt><trkpt lat="46.083689743005884" lon="12.907269438030477"><ele>92.0</ele><time>2026-04-27T08:22:24.001Z</time></trkpt><trkpt lat="46.08369101537747" lon="12.907042038986429"><ele>92.0</ele><time>2026-04-27T08:22:25.001Z</time></trkpt><trkpt lat="46.083698199351204" lon="12.906789102108519"><ele>92.0</ele><time>2026-04-27T08:22:26.001Z</time></trkpt><trkpt lat="46.083719356494754" lon="12.906556746707906"><ele>91.75</ele><time>2026-04-27T08:22:27.001Z</time></trkpt><trkpt lat="46.08373093124878" lon="12.906357502091565"><ele>91.5</ele><time>2026-04-27T08:22:28.001Z</time></trkpt><trkpt lat="46.08374144741664" lon="12.90618062880561"><ele>91.25</ele><time>2026-04-27T08:22:29.001Z</time></trkpt><trkpt lat="46.083752310450805" lon="12.9060249332029"><ele>91.0</ele><time>2026-04-27T08:22:30.001Z</time></trkpt><trkpt lat="46.08375932311496" lon="12.905876250877634"><ele>91.6</ele><time>2026-04-27T08:22:31.001Z</time></trkpt><trkpt lat="46.083764298533815" lon="12.905756820347058"><ele>92.19999999999999</ele><time>2026-04-27T08:22:32.001Z</time></trkpt><trkpt lat="46.08382025373794" lon="12.905621055834107"><ele>92.80000000000001</ele><time>2026-04-27T08:22:34.001Z</time></trkpt><trkpt lat="46.08392231761377" lon="12.905612993128695"><ele>93.4</ele><time>2026-04-27T08:22:36.002Z</time></trkpt><trkpt lat="46.08398603418585" lon="12.905622607634015"><ele>94.0</ele><time>2026-04-27T08:22:37.002Z</time></trkpt><trkpt lat="46.0840817300889" lon="12.90550072928414"><ele>93.75</ele><time>2026-04-27T08:22:39.002Z</time></trkpt><trkpt lat="46.08413483759102" lon="12.90535908123842"><ele>93.5</ele><time>2026-04-27T08:22:40.002Z</time></trkpt><trkpt lat="46.08420594232888" lon="12.905176253309184"><ele>93.25</ele><time>2026-04-27T08:22:41.002Z</time></trkpt><trkpt lat="46.08428669581776" lon="12.905001441584451"><ele>93.0</ele><time>2026-04-27T08:22:42.002Z</time></trkpt><trkpt lat="46.08435621274266" lon="12.904848767884742"><ele>93.4</ele><time>2026-04-27T08:22:43.002Z</time></trkpt><trkpt lat="46.08441547064905" lon="12.904715976221958"><ele>93.80000000000001</ele><time>2026-04-27T08:22:44.002Z</time></trkpt><trkpt lat="46.08447344420742" lon="12.904595592773"><ele>94.2</ele><time>2026-04-27T08:22:45.002Z</time></trkpt><trkpt lat="46.08452680888322" lon="12.904495808512307"><ele>94.6</ele><time>2026-04-27T08:22:46.002Z</time></trkpt><trkpt lat="46.08459718474773" lon="12.904402709692913"><ele>95.0</ele><time>2026-04-27T08:22:48.002Z</time></trkpt><trkpt lat="46.084722603983" lon="12.904448942018403"><ele>95.0</ele><time>2026-04-27T08:22:52.002Z</time></trkpt><trkpt lat="46.08478476814965" lon="12.90456272908791"><ele>95.0</ele><time>2026-04-27T08:22:53.002Z</time></trkpt><trkpt lat="46.08486224580536" lon="12.904725763061512"><ele>95.0</ele><time>2026-04-27T08:22:54.002Z</time></trkpt><trkpt lat="46.08494080537304" lon="12.90487574187737"><ele>95.0</ele><time>2026-04-27T08:22:55.002Z</time></trkpt><trkpt lat="46.08501495587406" lon="12.904983835743952"><ele>95.6</ele><time>2026-04-27T08:22:56.002Z</time></trkpt><trkpt lat="46.0850848068415" lon="12.905059906037396"><ele>96.2</ele><time>2026-04-27T08:22:57.002Z</time></trkpt><trkpt lat="46.0851434546812" lon="12.905103497485163"><ele>96.80000000000001</ele><time>2026-04-27T08:22:58.002Z</time></trkpt><trkpt lat="46.08521930451176" lon="12.905083517129773"><ele>97.4</ele><time>2026-04-27T08:23:00.002Z</time></trkpt><trkpt lat="46.08530187087814" lon="12.904987653962515"><ele>98.0</ele><time>2026-04-27T08:23:51.001Z</time></trkpt><trkpt lat="46.0854468872003" lon="12.905028458622965"><ele>96.75</ele><time>2026-04-27T08:23:54.001Z</time></trkpt><trkpt lat="46.08553919774677" lon="12.905108821551417"><ele>95.5</ele><time>2026-04-27T08:23:55.001Z</time></trkpt><trkpt lat="46.085665029660234" lon="12.905217990440637"><ele>94.25</ele><time>2026-04-27T08:23:56.001Z</time></trkpt><trkpt lat="46.08583017802871" lon="12.905348697098853"><ele>93.0</ele><time>2026-04-27T08:23:57.001Z</time></trkpt><trkpt lat="46.0860163750251" lon="12.905489142224159"><ele>93.0</ele><time>2026-04-27T08:23:58.001Z</time></trkpt><trkpt lat="46.08619890903575" lon="12.905632288489473"><ele>93.0</ele><time>2026-04-27T08:23:59.001Z</time></trkpt><trkpt lat="46.08638573615093" lon="12.905784601241367"><ele>93.0</ele><time>2026-04-27T08:24:00.001Z</time></trkpt><trkpt lat="46.08658680609462" lon="12.905948582886943"><ele>93.0</ele><time>2026-04-27T08:24:01.001Z</time></trkpt><trkpt lat="46.0867904494718" lon="12.906113554535318"><ele>93.0</ele><time>2026-04-27T08:24:02.001Z</time></trkpt><trkpt lat="46.08700499228733" lon="12.906281972472689"><ele>93.0</ele><time>2026-04-27T08:24:03.001Z</time></trkpt><trkpt lat="46.087231563949125" lon="12.906458220795512"><ele>93.0</ele><time>2026-04-27T08:24:04.001Z</time></trkpt><trkpt lat="46.08745761545433" lon="12.906633057141345"><ele>92.66666666666667</ele><time>2026-04-27T08:24:05.001Z</time></trkpt><trkpt lat="46.08766360387437" lon="12.906796462296324"><ele>92.33333333333334</ele><time>2026-04-27T08:24:06.001Z</time></trkpt><trkpt lat="46.08784963741751" lon="12.906944080136718"><ele>92.0</ele><time>2026-04-27T08:24:07.001Z</time></trkpt><trkpt lat="46.08802205409955" lon="12.907082257450906"><ele>92.0</ele><time>2026-04-27T08:24:08.001Z</time></trkpt><trkpt lat="46.088185328101716" lon="12.907214875591436"><ele>92.0</ele><time>2026-04-27T08:24:09.001Z</time></trkpt><trkpt lat="46.088350656686046" lon="12.907350783601109"><ele>92.0</ele><time>2026-04-27T08:24:10.001Z</time></trkpt><trkpt lat="46.08851643591191" lon="12.907485945492471"><ele>92.66666666666667</ele><time>2026-04-27T08:24:11.001Z</time></trkpt><trkpt lat="46.08868118122152" lon="12.907617890707714"><ele>93.33333333333333</ele><time>2026-04-27T08:24:12.001Z</time></trkpt><trkpt lat="46.0888461351829" lon="12.907747820032629"><ele>94.0</ele><time>2026-04-27T08:24:13.001Z</time></trkpt><trkpt lat="46.089006906896685" lon="12.90787641264246"><ele>94.33333333333333</ele><time>2026-04-27T08:24:14.001Z</time></trkpt><trkpt lat="46.089157692236334" lon="12.908001746811182"><ele>94.66666666666667</ele><time>2026-04-27T08:24:15.001Z</time></trkpt><trkpt lat="46.08929607280306" lon="12.90812097576079"><ele>95.0</ele><time>2026-04-27T08:24:16.001Z</time></trkpt><trkpt lat="46.08942368544089" lon="12.908246728108239"><ele>95.0</ele><time>2026-04-27T08:24:17.001Z</time></trkpt><trkpt lat="46.08954269999925" lon="12.90839294307233"><ele>95.0</ele><time>2026-04-27T08:24:18.001Z</time></trkpt><trkpt lat="46.08965271052785" lon="12.908558988786229"><ele>95.0</ele><time>2026-04-27T08:24:19.001Z</time></trkpt><trkpt lat="46.089753368544" lon="12.908731703022195"><ele>95.0</ele><time>2026-04-27T08:24:20.001Z</time></trkpt><trkpt lat="46.08984319071473" lon="12.90890642909778"><ele>95.0</ele><time>2026-04-27T08:24:21.001Z</time></trkpt><trkpt lat="46.089914497564735" lon="12.909102205091047"><ele>95.0</ele><time>2026-04-27T08:24:22.001Z</time></trkpt><trkpt lat="46.089982478223995" lon="12.909295045360363"><ele>95.0</ele><time>2026-04-27T08:24:23.001Z</time></trkpt><trkpt lat="46.090042345953464" lon="12.909500365257378"><ele>95.0</ele><time>2026-04-27T08:24:24.001Z</time></trkpt><trkpt lat="46.09009094356724" lon="12.909714467696375"><ele>95.0</ele><time>2026-04-27T08:24:25.001Z</time></trkpt><trkpt lat="46.09013690103043" lon="12.90992588431629"><ele>94.25</ele><time>2026-04-27T08:24:26.001Z</time></trkpt><trkpt lat="46.09016331270961" lon="12.910113628366517"><ele>93.5</ele><time>2026-04-27T08:24:27.001Z</time></trkpt><trkpt lat="46.09018476735578" lon="12.91029159555588"><ele>92.75</ele><time>2026-04-27T08:24:28.001Z</time></trkpt><trkpt lat="46.0901978365181" lon="12.910455002705856"><ele>92.0</ele><time>2026-04-27T08:24:29.001Z</time></trkpt><trkpt lat="46.09020570901804" lon="12.910595815984834"><ele>92.0</ele><time>2026-04-27T08:24:30.001Z</time></trkpt><trkpt lat="46.090203145664496" lon="12.910702025489572"><ele>92.0</ele><time>2026-04-27T08:24:31.001Z</time></trkpt><trkpt lat="46.090220141517435" lon="12.910828661787985"><ele>92.0</ele><time>2026-04-27T08:24:32.001Z</time></trkpt><trkpt lat="46.090102745229686" lon="12.911204248864061"><ele>92.0</ele><time>2026-04-27T08:24:34.001Z</time></trkpt><trkpt lat="46.09002208401413" lon="12.911493756166717"><ele>93.0</ele><time>2026-04-27T08:24:35.001Z</time></trkpt><trkpt lat="46.08993052126061" lon="12.91180938019514"><ele>94.0</ele><time>2026-04-27T08:24:36.001Z</time></trkpt><trkpt lat="46.08984326169787" lon="12.912134773542286"><ele>94.0</ele><time>2026-04-27T08:24:37.001Z</time></trkpt><trkpt lat="46.08976063487332" lon="12.912478170948372"><ele>94.0</ele><time>2026-04-27T08:24:38.001Z</time></trkpt><trkpt lat="46.08966782781896" lon="12.912840215483017"><ele>94.5</ele><time>2026-04-27T08:24:39.001Z</time></trkpt><trkpt lat="46.089567855385816" lon="12.913200335673142"><ele>95.0</ele><time>2026-04-27T08:24:40.001Z</time></trkpt><trkpt lat="46.089466273852544" lon="12.91355227734111"><ele>95.0</ele><time>2026-04-27T08:24:41.001Z</time></trkpt><trkpt lat="46.08936442180479" lon="12.91389680032461"><ele>95.0</ele><time>2026-04-27T08:24:42.001Z</time></trkpt><trkpt lat="46.089267857689066" lon="12.914231619303164"><ele>95.0</ele><time>2026-04-27T08:24:43.001Z</time></trkpt><trkpt lat="46.0891751880768" lon="12.91456249407866"><ele>95.0</ele><time>2026-04-27T08:24:44.001Z</time></trkpt><trkpt lat="46.08908025381956" lon="12.91489285732459"><ele>94.0</ele><time>2026-04-27T08:24:45.002Z</time></trkpt><trkpt lat="46.08898547059606" lon="12.915224616743554"><ele>93.0</ele><time>2026-04-27T08:24:46.002Z</time></trkpt><trkpt lat="46.088895028544" lon="12.91554401152097"><ele>93.0</ele><time>2026-04-27T08:24:47.002Z</time></trkpt><trkpt lat="46.088810783170075" lon="12.915843542675363"><ele>93.0</ele><time>2026-04-27T08:24:48.002Z</time></trkpt><trkpt lat="46.088731399295355" lon="12.916126506897136"><ele>93.0</ele><time>2026-04-27T08:24:49.002Z</time></trkpt><trkpt lat="46.08865720682544" lon="12.916383851580651"><ele>93.0</ele><time>2026-04-27T08:24:50.002Z</time></trkpt><trkpt lat="46.088586298455354" lon="12.91663040196077"><ele>93.0</ele><time>2026-04-27T08:24:51.002Z</time></trkpt><trkpt lat="46.0885189938375" lon="12.916866729086577"><ele>93.0</ele><time>2026-04-27T08:24:52.002Z</time></trkpt><trkpt lat="46.08845125707524" lon="12.917101207703164"><ele>93.66666666666667</ele><time>2026-04-27T08:24:53.002Z</time></trkpt><trkpt lat="46.08838201679173" lon="12.917341245839905"><ele>94.33333333333334</ele><time>2026-04-27T08:24:54.002Z</time></trkpt><trkpt lat="46.0883111746588" lon="12.917584561725942"><ele>95.0</ele><time>2026-04-27T08:24:55.002Z</time></trkpt><trkpt lat="46.08824244920031" lon="12.917825607832668"><ele>95.0</ele><time>2026-04-27T08:24:56.002Z</time></trkpt><trkpt lat="46.08817331555484" lon="12.918068182613155"><ele>95.0</ele><time>2026-04-27T08:24:57.002Z</time></trkpt><trkpt lat="46.08810230359695" lon="12.918314235504074"><ele>95.0</ele><time>2026-04-27T08:24:58.002Z</time></trkpt><trkpt lat="46.088031252702955" lon="12.918552387804834"><ele>94.66666666666667</ele><time>2026-04-27T08:24:59.002Z</time></trkpt><trkpt lat="46.08795989327739" lon="12.918798202722364"><ele>94.33333333333333</ele><time>2026-04-27T08:25:00.002Z</time></trkpt><trkpt lat="46.087889541894846" lon="12.919042206723054"><ele>94.0</ele><time>2026-04-27T08:25:01.002Z</time></trkpt><trkpt lat="46.087821355409595" lon="12.91928479576192"><ele>93.33333333333333</ele><time>2026-04-27T08:25:02.002Z</time></trkpt><trkpt lat="46.087753523787136" lon="12.919528805721013"><ele>92.66666666666667</ele><time>2026-04-27T08:25:03.002Z</time></trkpt><trkpt lat="46.08768330370079" lon="12.919773009250019"><ele>92.0</ele><time>2026-04-27T08:25:04.002Z</time></trkpt><trkpt lat="46.087617679248005" lon="12.920002048766237"><ele>92.0</ele><time>2026-04-27T08:25:05.002Z</time></trkpt><trkpt lat="46.08755393869566" lon="12.920217147250288"><ele>92.0</ele><time>2026-04-27T08:25:06.002Z</time></trkpt><trkpt lat="46.08749534981492" lon="12.920421316098578"><ele>92.0</ele><time>2026-04-27T08:25:07.002Z</time></trkpt><trkpt lat="46.087439623074275" lon="12.920613928783295"><ele>92.0</ele><time>2026-04-27T08:25:08.002Z</time></trkpt><trkpt lat="46.08738549296154" lon="12.920804440137328"><ele>92.0</ele><time>2026-04-27T08:25:09.002Z</time></trkpt><trkpt lat="46.08732955303206" lon="12.920997084271171"><ele>92.0</ele><time>2026-04-27T08:25:10.002Z</time></trkpt><trkpt lat="46.08727486750672" lon="12.921195719291447"><ele>92.0</ele><time>2026-04-27T08:25:11.002Z</time></trkpt><trkpt lat="46.08721737931042" lon="12.921392472065016"><ele>92.33333333333334</ele><time>2026-04-27T08:25:12.002Z</time></trkpt><trkpt lat="46.0871619287654" lon="12.921596141308282"><ele>92.66666666666667</ele><time>2026-04-27T08:25:12.999Z</time></trkpt><trkpt lat="46.08710223049286" lon="12.921801762556322"><ele>93.0</ele><time>2026-04-27T08:25:13.999Z</time></trkpt><trkpt lat="46.08704181917049" lon="12.92201063175176"><ele>93.33333333333333</ele><time>2026-04-27T08:25:14.999Z</time></trkpt><trkpt lat="46.08698049021592" lon="12.922228357652079"><ele>93.66666666666666</ele><time>2026-04-27T08:25:15.999Z</time></trkpt><trkpt lat="46.086920698953925" lon="12.922447082020785"><ele>94.0</ele><time>2026-04-27T08:25:16.999Z</time></trkpt><trkpt lat="46.08685700436832" lon="12.922667340111182"><ele>93.33333333333333</ele><time>2026-04-27T08:25:18Z</time></trkpt><trkpt lat="46.086795727207814" lon="12.922883375930478"><ele>92.66666666666667</ele><time>2026-04-27T08:25:19Z</time></trkpt><trkpt lat="46.08673500849495" lon="12.92309347641721"><ele>92.0</ele><time>2026-04-27T08:25:20Z</time></trkpt><trkpt lat="46.08667489086439" lon="12.923298075301513"><ele>92.33333333333334</ele><time>2026-04-27T08:25:21Z</time></trkpt><trkpt lat="46.08661371890448" lon="12.923503498299182"><ele>92.66666666666667</ele><time>2026-04-27T08:25:22Z</time></trkpt><trkpt lat="46.08655881838065" lon="12.923713577208606"><ele>93.0</ele><time>2026-04-27T08:25:23Z</time></trkpt><trkpt lat="46.086497872028474" lon="12.923923039651648"><ele>93.0</ele><time>2026-04-27T08:25:24Z</time></trkpt><trkpt lat="46.086437155091645" lon="12.924136234281349"><ele>93.0</ele><time>2026-04-27T08:25:25Z</time></trkpt><trkpt lat="46.086374766995576" lon="12.924353042042497"><ele>93.0</ele><time>2026-04-27T08:25:26Z</time></trkpt><trkpt lat="46.08631192337008" lon="12.92457018968463"><ele>93.0</ele><time>2026-04-27T08:25:27Z</time></trkpt><trkpt lat="46.086248052424985" lon="12.924793076037545"><ele>93.0</ele><time>2026-04-27T08:25:28Z</time></trkpt><trkpt lat="46.08618259393653" lon="12.92502637357011"><ele>93.0</ele><time>2026-04-27T08:25:29Z</time></trkpt><trkpt lat="46.08611411123304" lon="12.925266918941173"><ele>92.0</ele><time>2026-04-27T08:25:30Z</time></trkpt><trkpt lat="46.086045005598045" lon="12.925512254481715"><ele>91.0</ele><time>2026-04-27T08:25:31Z</time></trkpt><trkpt lat="46.08597464130124" lon="12.92576154822086"><ele>90.0</ele><time>2026-04-27T08:25:32Z</time></trkpt><trkpt lat="46.08590230676074" lon="12.926017163845394"><ele>90.0</ele><time>2026-04-27T08:25:33Z</time></trkpt><trkpt lat="46.085828724584935" lon="12.926270570392965"><ele>90.0</ele><time>2026-04-27T08:25:34Z</time></trkpt><trkpt lat="46.08575487727" lon="12.926526251708403"><ele>90.0</ele><time>2026-04-27T08:25:35Z</time></trkpt><trkpt lat="46.0856845337283" lon="12.926769495648797"><ele>90.33333333333333</ele><time>2026-04-27T08:25:36Z</time></trkpt><trkpt lat="46.085621734456126" lon="12.927000207561562"><ele>90.66666666666666</ele><time>2026-04-27T08:25:37Z</time></trkpt><trkpt lat="46.08555906691542" lon="12.92721747130195"><ele>91.0</ele><time>2026-04-27T08:25:38Z</time></trkpt><trkpt lat="46.085497655610915" lon="12.927428226351857"><ele>90.66666666666666</ele><time>2026-04-27T08:25:39Z</time></trkpt><trkpt lat="46.085433613915896" lon="12.927634905928917"><ele>90.33333333333333</ele><time>2026-04-27T08:25:40Z</time></trkpt><trkpt lat="46.085372537688386" lon="12.927842492667686"><ele>90.0</ele><time>2026-04-27T08:25:41Z</time></trkpt><trkpt lat="46.085315730694155" lon="12.92804725972116"><ele>90.0</ele><time>2026-04-27T08:25:42Z</time></trkpt><trkpt lat="46.08525839997587" lon="12.928254083144619"><ele>90.0</ele><time>2026-04-27T08:25:43Z</time></trkpt><trkpt lat="46.08520164017205" lon="12.928457181292506"><ele>90.0</ele><time>2026-04-27T08:25:44Z</time></trkpt><trkpt lat="46.08514365337488" lon="12.92866076269798"><ele>90.33333333333333</ele><time>2026-04-27T08:25:45Z</time></trkpt><trkpt lat="46.085084541857974" lon="12.928869578025605"><ele>90.66666666666666</ele><time>2026-04-27T08:25:46Z</time></trkpt><trkpt lat="46.0850253768479" lon="12.929080226400439"><ele>91.0</ele><time>2026-04-27T08:25:47Z</time></trkpt><trkpt lat="46.08496607618874" lon="12.929296190926317"><ele>92.0</ele><time>2026-04-27T08:25:48Z</time></trkpt><trkpt lat="46.0849047267203" lon="12.92951414099834"><ele>93.0</ele><time>2026-04-27T08:25:49Z</time></trkpt><trkpt lat="46.08484469078663" lon="12.929734947274351"><ele>94.0</ele><time>2026-04-27T08:25:50Z</time></trkpt><trkpt lat="46.084784225953825" lon="12.929957149905059"><ele>94.33333333333333</ele><time>2026-04-27T08:25:51Z</time></trkpt><trkpt lat="46.08472291323047" lon="12.930168841753034"><ele>94.66666666666667</ele><time>2026-04-27T08:25:52Z</time></trkpt><trkpt lat="46.08466019323807" lon="12.930382235353003"><ele>95.0</ele><time>2026-04-27T08:25:53Z</time></trkpt><trkpt lat="46.08459569176994" lon="12.930595608922935"><ele>95.0</ele><time>2026-04-27T08:25:54Z</time></trkpt><trkpt lat="46.084530548564274" lon="12.930805603099355"><ele>95.0</ele><time>2026-04-27T08:25:55Z</time></trkpt><trkpt lat="46.08446174020624" lon="12.931015135094434"><ele>95.0</ele><time>2026-04-27T08:25:56Z</time></trkpt><trkpt lat="46.084388517623324" lon="12.931215145262227"><ele>95.0</ele><time>2026-04-27T08:25:57Z</time></trkpt><trkpt lat="46.084318557947874" lon="12.931395961163364"><ele>95.0</ele><time>2026-04-27T08:25:58Z</time></trkpt><trkpt lat="46.08424724222245" lon="12.931564611959642"><ele>95.0</ele><time>2026-04-27T08:25:59Z</time></trkpt><trkpt lat="46.08417497130563" lon="12.9317202928969"><ele>95.0</ele><time>2026-04-27T08:26:00Z</time></trkpt><trkpt lat="46.08410235726111" lon="12.931858811621623"><ele>95.2</ele><time>2026-04-27T08:26:01Z</time></trkpt><trkpt lat="46.084024073436794" lon="12.93197545400622"><ele>95.4</ele><time>2026-04-27T08:26:02Z</time></trkpt><trkpt lat="46.083944429248724" lon="12.932073470352265"><ele>95.6</ele><time>2026-04-27T08:26:03Z</time></trkpt><trkpt lat="46.083877639961" lon="12.932164268377816"><ele>95.8</ele><time>2026-04-27T08:26:04Z</time></trkpt><trkpt lat="46.0838401346656" lon="12.932266353313645"><ele>96.0</ele><time>2026-04-27T08:26:05.001Z</time></trkpt><trkpt lat="46.08382907115466" lon="12.932378598486707"><ele>96.0</ele><time>2026-04-27T08:26:06.001Z</time></trkpt><trkpt lat="46.0838489275464" lon="12.932513368876657"><ele>96.0</ele><time>2026-04-27T08:26:07.001Z</time></trkpt><trkpt lat="46.083902426493104" lon="12.932724664060274"><ele>96.0</ele><time>2026-04-27T08:26:08.001Z</time></trkpt><trkpt lat="46.083876099295836" lon="12.932989068930974"><ele>96.0</ele><time>2026-04-27T08:26:09.001Z</time></trkpt><trkpt lat="46.08386817075789" lon="12.933278023386459"><ele>95.66666666666667</ele><time>2026-04-27T08:26:10.001Z</time></trkpt><trkpt lat="46.08384393087555" lon="12.933567244471732"><ele>95.33333333333334</ele><time>2026-04-27T08:26:11.001Z</time></trkpt><trkpt lat="46.08381997218694" lon="12.93384229846003"><ele>95.0</ele><time>2026-04-27T08:26:12.001Z</time></trkpt><trkpt lat="46.083821002467296" lon="12.934118977795446"><ele>96.33333333333334</ele><time>2026-04-27T08:26:13.001Z</time></trkpt><trkpt lat="46.08384948224931" lon="12.93438302921168"><ele>97.66666666666667</ele><time>2026-04-27T08:26:14.001Z</time></trkpt><trkpt lat="46.08389960956684" lon="12.934636433418884"><ele>99.0</ele><time>2026-04-27T08:26:15.001Z</time></trkpt><trkpt lat="46.08397775874094" lon="12.934896958163355"><ele>100.66666666666666</ele><time>2026-04-27T08:26:16.001Z</time></trkpt><trkpt lat="46.0840754073582" lon="12.935158886427466"><ele>102.33333333333333</ele><time>2026-04-27T08:26:17.001Z</time></trkpt><trkpt lat="46.08419569877292" lon="12.93541081824373"><ele>104.0</ele><time>2026-04-27T08:26:18.001Z</time></trkpt><trkpt lat="46.08430705448912" lon="12.935629802614905"><ele>104.0</ele><time>2026-04-27T08:26:19.001Z</time></trkpt><trkpt lat="46.08440830625899" lon="12.935825678833027"><ele>104.0</ele><time>2026-04-27T08:26:20.001Z</time></trkpt><trkpt lat="46.08450084935991" lon="12.936001800083075"><ele>104.0</ele><time>2026-04-27T08:26:21.001Z</time></trkpt><trkpt lat="46.08458789546011" lon="12.93616913665284"><ele>105.5</ele><time>2026-04-27T08:26:22.001Z</time></trkpt><trkpt lat="46.08466552315372" lon="12.936321937308124"><ele>107.0</ele><time>2026-04-27T08:26:23.001Z</time></trkpt><trkpt lat="46.08473810192104" lon="12.93646279355238"><ele>108.5</ele><time>2026-04-27T08:26:24.001Z</time></trkpt><trkpt lat="46.084804618794706" lon="12.936591703751036"><ele>110.0</ele><time>2026-04-27T08:26:25.001Z</time></trkpt><trkpt lat="46.08486466590949" lon="12.93670860699507"><ele>110.16666666666666</ele><time>2026-04-27T08:26:26.001Z</time></trkpt><trkpt lat="46.08491675761791" lon="12.936819114507898"><ele>110.33333333333333</ele><time>2026-04-27T08:26:27.001Z</time></trkpt><trkpt lat="46.08495281213311" lon="12.936929872894252"><ele>110.5</ele><time>2026-04-27T08:26:28.001Z</time></trkpt><trkpt lat="46.08497326750334" lon="12.93703867534591"><ele>110.66666666666666</ele><time>2026-04-27T08:26:29.001Z</time></trkpt><trkpt lat="46.08498452304344" lon="12.937143604594352"><ele>110.83333333333333</ele><time>2026-04-27T08:26:30.001Z</time></trkpt><trkpt lat="46.08498475622669" lon="12.937260379746478"><ele>111.0</ele><time>2026-04-27T08:26:31.001Z</time></trkpt><trkpt lat="46.08498384914308" lon="12.937383196780308"><ele>111.4</ele><time>2026-04-27T08:26:32.001Z</time></trkpt><trkpt lat="46.08498587809087" lon="12.937510920124323"><ele>111.8</ele><time>2026-04-27T08:26:33.001Z</time></trkpt><trkpt lat="46.08498492189904" lon="12.937655424260074"><ele>112.20000000000002</ele><time>2026-04-27T08:26:34.001Z</time></trkpt><trkpt lat="46.08498914643371" lon="12.93779783170845"><ele>112.60000000000001</ele><time>2026-04-27T08:26:35.001Z</time></trkpt><trkpt lat="46.0849894848899" lon="12.937935069593888"><ele>113.0</ele><time>2026-04-27T08:26:36.001Z</time></trkpt><trkpt lat="46.08497645531281" lon="12.938061167307186"><ele>113.0</ele><time>2026-04-27T08:26:37.001Z</time></trkpt><trkpt lat="46.084941255169966" lon="12.938178891953829"><ele>113.00000000000001</ele><time>2026-04-27T08:26:38.001Z</time></trkpt><trkpt lat="46.084906792463606" lon="12.938297642077007"><ele>113.00000000000001</ele><time>2026-04-27T08:26:39.001Z</time></trkpt><trkpt lat="46.08487320912913" lon="12.938421847147954"><ele>113.0</ele><time>2026-04-27T08:26:40.001Z</time></trkpt><trkpt lat="46.084849540725656" lon="12.938549635728274"><ele>113.0</ele><time>2026-04-27T08:26:41.001Z</time></trkpt><trkpt lat="46.08482644140797" lon="12.938689368586784"><ele>112.60000000000001</ele><time>2026-04-27T08:26:42.001Z</time></trkpt><trkpt lat="46.084799784008545" lon="12.938833179525869"><ele>112.20000000000002</ele><time>2026-04-27T08:26:43.001Z</time></trkpt><trkpt lat="46.08477422682098" lon="12.938974521873018"><ele>111.8</ele><time>2026-04-27T08:26:44.001Z</time></trkpt><trkpt lat="46.08477363990195" lon="12.939128967599036"><ele>111.4</ele><time>2026-04-27T08:26:45.001Z</time></trkpt><trkpt lat="46.08477278610082" lon="12.939292710950063"><ele>111.0</ele><time>2026-04-27T08:26:46.001Z</time></trkpt><trkpt lat="46.084773650043644" lon="12.939467555110655"><ele>110.8</ele><time>2026-04-27T08:26:47.001Z</time></trkpt><trkpt lat="46.08477807556714" lon="12.939625441348069"><ele>110.6</ele><time>2026-04-27T08:26:48.001Z</time></trkpt><trkpt lat="46.08478934740451" lon="12.939772468810057"><ele>110.4</ele><time>2026-04-27T08:26:49.001Z</time></trkpt><trkpt lat="46.08481185979701" lon="12.939925188198858"><ele>110.2</ele><time>2026-04-27T08:26:50.001Z</time></trkpt><trkpt lat="46.08482794157395" lon="12.94007346479556"><ele>110.0</ele><time>2026-04-27T08:26:51.001Z</time></trkpt><trkpt lat="46.084851814900716" lon="12.940223326579385"><ele>110.0</ele><time>2026-04-27T08:26:52.001Z</time></trkpt><trkpt lat="46.08487027415902" lon="12.9403632556677"><ele>110.0</ele><time>2026-04-27T08:26:53.001Z</time></trkpt><trkpt lat="46.08492113496635" lon="12.940484088933166"><ele>110.0</ele><time>2026-04-27T08:26:54.001Z</time></trkpt><trkpt lat="46.084988294913686" lon="12.940595872940992"><ele>110.0</ele><time>2026-04-27T08:26:55.002Z</time></trkpt><trkpt lat="46.085075110268484" lon="12.940711542032954"><ele>110.0</ele><time>2026-04-27T08:26:56.002Z</time></trkpt><trkpt lat="46.08515559761008" lon="12.940845838601042"><ele>110.5</ele><time>2026-04-27T08:26:57.002Z</time></trkpt><trkpt lat="46.0852218668353" lon="12.941002479091631"><ele>111.0</ele><time>2026-04-27T08:26:58.002Z</time></trkpt><trkpt lat="46.08529464553942" lon="12.941174373137779"><ele>111.5</ele><time>2026-04-27T08:26:59.002Z</time></trkpt><trkpt lat="46.08536051245128" lon="12.94136638487834"><ele>112.0</ele><time>2026-04-27T08:27:00.002Z</time></trkpt><trkpt lat="46.08541523282039" lon="12.941571874443351"><ele>112.0</ele><time>2026-04-27T08:27:01.002Z</time></trkpt><trkpt lat="46.08545794417258" lon="12.941779680829343"><ele>112.0</ele><time>2026-04-27T08:27:02.002Z</time></trkpt><trkpt lat="46.08548554656834" lon="12.941993323938657"><ele>112.0</ele><time>2026-04-27T08:27:03.002Z</time></trkpt><trkpt lat="46.08551355873824" lon="12.942200471320575"><ele>112.0</ele><time>2026-04-27T08:27:04.002Z</time></trkpt><trkpt lat="46.08554296146511" lon="12.942388086395612"><ele>112.0</ele><time>2026-04-27T08:27:05.002Z</time></trkpt><trkpt lat="46.0855717174939" lon="12.942571855027376"><ele>112.0</ele><time>2026-04-27T08:27:06.002Z</time></trkpt><trkpt lat="46.08559226010819" lon="12.942750837612623"><ele>112.0</ele><time>2026-04-27T08:27:07.002Z</time></trkpt><trkpt lat="46.0856114980646" lon="12.942915400769152"><ele>112.0</ele><time>2026-04-27T08:27:08.002Z</time></trkpt><trkpt lat="46.08562762800947" lon="12.943076763346832"><ele>112.0</ele><time>2026-04-27T08:27:09.002Z</time></trkpt><trkpt lat="46.08564380291316" lon="12.943221315038132"><ele>111.99999999999999</ele><time>2026-04-27T08:27:10.002Z</time></trkpt><trkpt lat="46.085651202807746" lon="12.943349623062257"><ele>111.99999999999999</ele><time>2026-04-27T08:27:11.002Z</time></trkpt><trkpt lat="46.0856597094899" lon="12.94348816036452"><ele>112.0</ele><time>2026-04-27T08:27:12.002Z</time></trkpt><trkpt lat="46.08566637170392" lon="12.94361759607274"><ele>112.0</ele><time>2026-04-27T08:27:13.002Z</time></trkpt><trkpt lat="46.085674461341554" lon="12.94373626086677"><ele>112.0</ele><time>2026-04-27T08:27:14.002Z</time></trkpt><trkpt lat="46.085681677532385" lon="12.943860770986692"><ele>112.0</ele><time>2026-04-27T08:27:15.002Z</time></trkpt><trkpt lat="46.08569125070493" lon="12.944012775257612"><ele>112.0</ele><time>2026-04-27T08:27:16.002Z</time></trkpt><trkpt lat="46.08569717163883" lon="12.944187353312051"><ele>112.0</ele><time>2026-04-27T08:27:17.002Z</time></trkpt><trkpt lat="46.085709064289794" lon="12.944382453991219"><ele>112.25</ele><time>2026-04-27T08:27:18.002Z</time></trkpt><trkpt lat="46.08571989025314" lon="12.944593701577062"><ele>112.5</ele><time>2026-04-27T08:27:19Z</time></trkpt><trkpt lat="46.08573016516143" lon="12.944791171293934"><ele>112.75</ele><time>2026-04-27T08:27:20Z</time></trkpt><trkpt lat="46.0857453748664" lon="12.945009174288145"><ele>113.0</ele><time>2026-04-27T08:27:21Z</time></trkpt><trkpt lat="46.08576568391959" lon="12.945285330941863"><ele>112.33333333333333</ele><time>2026-04-27T08:27:22Z</time></trkpt><trkpt lat="46.08578288551981" lon="12.94559280128329"><ele>111.66666666666666</ele><time>2026-04-27T08:27:23Z</time></trkpt><trkpt lat="46.08578911433026" lon="12.945886633033586"><ele>111.0</ele><time>2026-04-27T08:27:24Z</time></trkpt><trkpt lat="46.08579307705857" lon="12.94617406957199"><ele>110.66666666666666</ele><time>2026-04-27T08:27:25Z</time></trkpt><trkpt lat="46.08578652946225" lon="12.946446573256084"><ele>110.33333333333333</ele><time>2026-04-27T08:27:26Z</time></trkpt><trkpt lat="46.08577494289808" lon="12.946693441807763"><ele>110.0</ele><time>2026-04-27T08:27:27Z</time></trkpt><trkpt lat="46.08576141417289" lon="12.946926748598246"><ele>110.0</ele><time>2026-04-27T08:27:28Z</time></trkpt><trkpt lat="46.08574791887707" lon="12.947142205510689"><ele>110.0</ele><time>2026-04-27T08:27:29Z</time></trkpt><trkpt lat="46.085740395675806" lon="12.94734414377978"><ele>110.0</ele><time>2026-04-27T08:27:30Z</time></trkpt><trkpt lat="46.08573295795181" lon="12.947537130721276"><ele>110.0</ele><time>2026-04-27T08:27:31Z</time></trkpt><trkpt lat="46.085725959356864" lon="12.947712342218056"><ele>109.83333333333333</ele><time>2026-04-27T08:27:32Z</time></trkpt><trkpt lat="46.08572027098921" lon="12.947869418060526"><ele>109.66666666666666</ele><time>2026-04-27T08:27:33Z</time></trkpt><trkpt lat="46.0857147291319" lon="12.948011788868424"><ele>109.5</ele><time>2026-04-27T08:27:34Z</time></trkpt><trkpt lat="46.08571259173771" lon="12.948141914831906"><ele>109.33333333333334</ele><time>2026-04-27T08:27:35Z</time></trkpt><trkpt lat="46.08569679452682" lon="12.948249047182232"><ele>109.16666666666667</ele><time>2026-04-27T08:27:36Z</time></trkpt><trkpt lat="46.08566958442473" lon="12.948335365646347"><ele>109.0</ele><time>2026-04-27T08:27:37Z</time></trkpt><trkpt lat="46.08562830711333" lon="12.948414729861765"><ele>109.4</ele><time>2026-04-27T08:27:39Z</time></trkpt><trkpt lat="46.08556725768258" lon="12.94851368020253"><ele>109.80000000000001</ele><time>2026-04-27T08:27:44Z</time></trkpt><trkpt lat="46.08545640076239" lon="12.948641380920742"><ele>110.19999999999999</ele><time>2026-04-27T08:27:46Z</time></trkpt><trkpt lat="46.08539190681196" lon="12.948747555727328"><ele>110.6</ele><time>2026-04-27T08:27:47Z</time></trkpt><trkpt lat="46.08533986044774" lon="12.948876923522905"><ele>111.0</ele><time>2026-04-27T08:27:48Z</time></trkpt><trkpt lat="46.085308226491726" lon="12.949024025182917"><ele>111.0</ele><time>2026-04-27T08:27:49Z</time></trkpt><trkpt lat="46.085303150157" lon="12.949173097179703"><ele>111.0</ele><time>2026-04-27T08:27:50Z</time></trkpt><trkpt lat="46.085314455139475" lon="12.949323026434683"><ele>111.0</ele><time>2026-04-27T08:27:51Z</time></trkpt><trkpt lat="46.085361586421584" lon="12.949471023665195"><ele>111.0</ele><time>2026-04-27T08:27:52Z</time></trkpt><trkpt lat="46.085426681169935" lon="12.94960795365125"><ele>111.0</ele><time>2026-04-27T08:27:53.001Z</time></trkpt><trkpt lat="46.08551158725647" lon="12.949727842711779"><ele>110.75</ele><time>2026-04-27T08:27:54.001Z</time></trkpt><trkpt lat="46.085584491054696" lon="12.949854105201494"><ele>110.5</ele><time>2026-04-27T08:27:55.001Z</time></trkpt><trkpt lat="46.085624421263724" lon="12.950000036784788"><ele>110.25</ele><time>2026-04-27T08:27:56.001Z</time></trkpt><trkpt lat="46.085648149512146" lon="12.950173977286614"><ele>110.0</ele><time>2026-04-27T08:27:57.001Z</time></trkpt><trkpt lat="46.085692933775796" lon="12.950374757712893"><ele>109.66666666666666</ele><time>2026-04-27T08:27:58.001Z</time></trkpt><trkpt lat="46.085645513154994" lon="12.950638279289024"><ele>109.33333333333334</ele><time>2026-04-27T08:27:59.001Z</time></trkpt><trkpt lat="46.08562558832261" lon="12.950940679282072"><ele>109.0</ele><time>2026-04-27T08:28:00.001Z</time></trkpt><trkpt lat="46.08559548346002" lon="12.951276061846297"><ele>109.0</ele><time>2026-04-27T08:28:01.001Z</time></trkpt><trkpt lat="46.0855588173722" lon="12.95160237990191"><ele>109.0</ele><time>2026-04-27T08:28:02.001Z</time></trkpt><trkpt lat="46.08552716836355" lon="12.951887442808031"><ele>109.0</ele><time>2026-04-27T08:28:03.001Z</time></trkpt><trkpt lat="46.08550443438966" lon="12.95213109213386"><ele>109.0</ele><time>2026-04-27T08:28:04.001Z</time></trkpt><trkpt lat="46.08548412846674" lon="12.952351996131426"><ele>109.0</ele><time>2026-04-27T08:28:05.001Z</time></trkpt><trkpt lat="46.085466381477026" lon="12.952564491325862"><ele>109.0</ele><time>2026-04-27T08:28:06.001Z</time></trkpt><trkpt lat="46.085451507140924" lon="12.952783204582168"><ele>109.66666666666667</ele><time>2026-04-27T08:28:07.001Z</time></trkpt><trkpt lat="46.085439645355684" lon="12.953035026929216"><ele>110.33333333333334</ele><time>2026-04-27T08:28:08.001Z</time></trkpt><trkpt lat="46.085423768835305" lon="12.953329628945397"><ele>111.0</ele><time>2026-04-27T08:28:09.001Z</time></trkpt><trkpt lat="46.08539922481406" lon="12.953595143931121"><ele>111.33333333333334</ele><time>2026-04-27T08:28:10.001Z</time></trkpt><trkpt lat="46.08537829874916" lon="12.953831770211474"><ele>111.66666666666667</ele><time>2026-04-27T08:28:11.001Z</time></trkpt><trkpt lat="46.08536535151629" lon="12.954050762780161"><ele>112.0</ele><time>2026-04-27T08:28:12.001Z</time></trkpt><trkpt lat="46.08536012288555" lon="12.9542644240623"><ele>112.25</ele><time>2026-04-27T08:28:13.001Z</time></trkpt><trkpt lat="46.08535548293122" lon="12.954487269636125"><ele>112.5</ele><time>2026-04-27T08:28:14.001Z</time></trkpt><trkpt lat="46.08535402920053" lon="12.954696170224597"><ele>112.75</ele><time>2026-04-27T08:28:15.001Z</time></trkpt><trkpt lat="46.08535424733241" lon="12.954882716148504"><ele>113.0</ele><time>2026-04-27T08:28:16.001Z</time></trkpt><trkpt lat="46.0853554040424" lon="12.95506310712043"><ele>113.0</ele><time>2026-04-27T08:28:17.001Z</time></trkpt><trkpt lat="46.085357172185105" lon="12.955244983103805"><ele>113.0</ele><time>2026-04-27T08:28:18.001Z</time></trkpt><trkpt lat="46.08535516965618" lon="12.95542588734884"><ele>113.0</ele><time>2026-04-27T08:28:19.001Z</time></trkpt><trkpt lat="46.08535639192736" lon="12.955595983903128"><ele>113.0</ele><time>2026-04-27T08:28:20.001Z</time></trkpt><trkpt lat="46.08535602550872" lon="12.955760397766634"><ele>113.0</ele><time>2026-04-27T08:28:21.001Z</time></trkpt><trkpt lat="46.08535299827036" lon="12.955928200258708"><ele>113.00000000000001</ele><time>2026-04-27T08:28:22.001Z</time></trkpt><trkpt lat="46.08535126730035" lon="12.95609569516309"><ele>113.00000000000001</ele><time>2026-04-27T08:28:23.001Z</time></trkpt><trkpt lat="46.085353590510444" lon="12.956250934100726"><ele>113.0</ele><time>2026-04-27T08:28:24.001Z</time></trkpt><trkpt lat="46.08535553529267" lon="12.956378102960088"><ele>113.0</ele><time>2026-04-27T08:28:25.001Z</time></trkpt><trkpt lat="46.085353660027984" lon="12.956489458607425"><ele>113.0</ele><time>2026-04-27T08:28:26.001Z</time></trkpt><trkpt lat="46.08535293453255" lon="12.956594221895713"><ele>113.00000000000001</ele><time>2026-04-27T08:28:27.001Z</time></trkpt><trkpt lat="46.08535216336462" lon="12.956755849266717"><ele>113.00000000000001</ele><time>2026-04-27T08:28:29.001Z</time></trkpt><trkpt lat="46.08535715107391" lon="12.956852442790524"><ele>113.0</ele><time>2026-04-27T08:28:30.001Z</time></trkpt><trkpt lat="46.08536804889874" lon="12.95701050508891"><ele>113.0</ele><time>2026-04-27T08:28:31.001Z</time></trkpt><trkpt lat="46.085374569541415" lon="12.957217443603303"><ele>113.0</ele><time>2026-04-27T08:28:32.001Z</time></trkpt><trkpt lat="46.08538010707986" lon="12.957457920451908"><ele>113.0</ele><time>2026-04-27T08:28:33.001Z</time></trkpt><trkpt lat="46.08537929256581" lon="12.957730615121449"><ele>113.0</ele><time>2026-04-27T08:28:34.001Z</time></trkpt><trkpt lat="46.08537790731519" lon="12.957992064867497"><ele>113.33333333333333</ele><time>2026-04-27T08:28:35.001Z</time></trkpt><trkpt lat="46.085377552332375" lon="12.95824427435442"><ele>113.66666666666666</ele><time>2026-04-27T08:28:36.001Z</time></trkpt><trkpt lat="46.08537639830992" lon="12.958489000298266"><ele>114.0</ele><time>2026-04-27T08:28:37.001Z</time></trkpt><trkpt lat="46.08537054329353" lon="12.958721287538847"><ele>114.0</ele><time>2026-04-27T08:28:38.001Z</time></trkpt><trkpt lat="46.08536180081554" lon="12.958946100875545"><ele>114.0</ele><time>2026-04-27T08:28:39.001Z</time></trkpt><trkpt lat="46.085351273555546" lon="12.959164752833058"><ele>114.0</ele><time>2026-04-27T08:28:40.001Z</time></trkpt><trkpt lat="46.08533872868091" lon="12.95938422945332"><ele>114.0</ele><time>2026-04-27T08:28:41.001Z</time></trkpt><trkpt lat="46.085323739332274" lon="12.959601127676335"><ele>114.0</ele><time>2026-04-27T08:28:42.001Z</time></trkpt><trkpt lat="46.08531060971732" lon="12.959816735188406"><ele>114.0</ele><time>2026-04-27T08:28:43.001Z</time></trkpt><trkpt lat="46.085296369655495" lon="12.960032975365714"><ele>113.75</ele><time>2026-04-27T08:28:44.001Z</time></trkpt><trkpt lat="46.08528024441015" lon="12.960249222263117"><ele>113.5</ele><time>2026-04-27T08:28:45.001Z</time></trkpt><trkpt lat="46.085263989745236" lon="12.960459673966733"><ele>113.25</ele><time>2026-04-27T08:28:46.002Z</time></trkpt><trkpt lat="46.085250964983224" lon="12.960654893179203"><ele>113.0</ele><time>2026-04-27T08:28:47.002Z</time></trkpt><trkpt lat="46.08523705366616" lon="12.960842963211897"><ele>113.25</ele><time>2026-04-27T08:28:48.002Z</time></trkpt><trkpt lat="46.08522270976451" lon="12.961028763263764"><ele>113.5</ele><time>2026-04-27T08:28:49.002Z</time></trkpt><trkpt lat="46.085209921363415" lon="12.96120273245338"><ele>113.75</ele><time>2026-04-27T08:28:50.002Z</time></trkpt><trkpt lat="46.085198155118064" lon="12.961381283887947"><ele>114.0</ele><time>2026-04-27T08:28:51.002Z</time></trkpt><trkpt lat="46.08518702443992" lon="12.96156272317791"><ele>114.25</ele><time>2026-04-27T08:28:52.002Z</time></trkpt><trkpt lat="46.085175404157084" lon="12.96174541561287"><ele>114.5</ele><time>2026-04-27T08:28:53.002Z</time></trkpt><trkpt lat="46.085162559329454" lon="12.961929029219958"><ele>114.75</ele><time>2026-04-27T08:28:54.002Z</time></trkpt><trkpt lat="46.085149992956275" lon="12.962114928034996"><ele>115.0</ele><time>2026-04-27T08:28:55.002Z</time></trkpt><trkpt lat="46.08513658224199" lon="12.962302048296872"><ele>115.0</ele><time>2026-04-27T08:28:56.002Z</time></trkpt><trkpt lat="46.085123200881846" lon="12.96249221414723"><ele>115.0</ele><time>2026-04-27T08:28:57.002Z</time></trkpt><trkpt lat="46.085109848724386" lon="12.962680608272775"><ele>115.0</ele><time>2026-04-27T08:28:58.002Z</time></trkpt><trkpt lat="46.08509682324794" lon="12.962872403749765"><ele>115.0</ele><time>2026-04-27T08:28:59.002Z</time></trkpt><trkpt lat="46.08508345529573" lon="12.963064123380951"><ele>114.75</ele><time>2026-04-27T08:29:00.002Z</time></trkpt><trkpt lat="46.08506997596466" lon="12.963253799534101"><ele>114.5</ele><time>2026-04-27T08:29:01.002Z</time></trkpt><trkpt lat="46.08505547965465" lon="12.963445114751488"><ele>114.25</ele><time>2026-04-27T08:29:02.002Z</time></trkpt><trkpt lat="46.08504152354998" lon="12.963631946124194"><ele>114.0</ele><time>2026-04-27T08:29:03.002Z</time></trkpt><trkpt lat="46.08502974898991" lon="12.963815349068058"><ele>114.0</ele><time>2026-04-27T08:29:04.002Z</time></trkpt><trkpt lat="46.08501717751913" lon="12.963997298875043"><ele>114.0</ele><time>2026-04-27T08:29:05.002Z</time></trkpt><trkpt lat="46.0850044466871" lon="12.964182994682936"><ele>114.0</ele><time>2026-04-27T08:29:06.002Z</time></trkpt><trkpt lat="46.084991815444035" lon="12.964376476054374"><ele>114.0</ele><time>2026-04-27T08:29:07.002Z</time></trkpt><trkpt lat="46.08497831118093" lon="12.964573748091784"><ele>114.0</ele><time>2026-04-27T08:29:08.002Z</time></trkpt><trkpt lat="46.08496609114753" lon="12.964777073363365"><ele>114.0</ele><time>2026-04-27T08:29:09.002Z</time></trkpt><trkpt lat="46.08495270362838" lon="12.964979830957253"><ele>114.0</ele><time>2026-04-27T08:29:10.002Z</time></trkpt><trkpt lat="46.08493689569676" lon="12.965180789605157"><ele>114.0</ele><time>2026-04-27T08:29:11.002Z</time></trkpt><trkpt lat="46.08492284749423" lon="12.96538112260943"><ele>113.75</ele><time>2026-04-27T08:29:12.002Z</time></trkpt><trkpt lat="46.084910655321444" lon="12.96558180303821"><ele>113.5</ele><time>2026-04-27T08:29:13.002Z</time></trkpt><trkpt lat="46.084895888112754" lon="12.965781324519286"><ele>113.25</ele><time>2026-04-27T08:29:14.002Z</time></trkpt><trkpt lat="46.08488127040489" lon="12.965976636734908"><ele>113.0</ele><time>2026-04-27T08:29:15.002Z</time></trkpt><trkpt lat="46.08486594389119" lon="12.96617309029138"><ele>113.25</ele><time>2026-04-27T08:29:16.002Z</time></trkpt><trkpt lat="46.08485037390037" lon="12.966368492825794"><ele>113.5</ele><time>2026-04-27T08:29:17.002Z</time></trkpt><trkpt lat="46.08483244653777" lon="12.966568307113457"><ele>113.75</ele><time>2026-04-27T08:29:18.002Z</time></trkpt><trkpt lat="46.084812140767426" lon="12.966763183234896"><ele>114.0</ele><time>2026-04-27T08:29:19.002Z</time></trkpt><trkpt lat="46.08478886077575" lon="12.966962226440831"><ele>114.0</ele><time>2026-04-27T08:29:20.002Z</time></trkpt><trkpt lat="46.08476532884032" lon="12.967162338699286"><ele>114.0</ele><time>2026-04-27T08:29:21.002Z</time></trkpt><trkpt lat="46.08474166843518" lon="12.967357207241745"><ele>114.0</ele><time>2026-04-27T08:29:22.002Z</time></trkpt><trkpt lat="46.08471698379344" lon="12.967547674308342"><ele>114.0</ele><time>2026-04-27T08:29:23.002Z</time></trkpt><trkpt lat="46.084693607745436" lon="12.967743229752255"><ele>114.0</ele><time>2026-04-27T08:29:24.002Z</time></trkpt><trkpt lat="46.084668057207885" lon="12.96794081438935"><ele>114.0</ele><time>2026-04-27T08:29:25.001Z</time></trkpt><trkpt lat="46.08464253701144" lon="12.968153146270227"><ele>114.0</ele><time>2026-04-27T08:29:26.001Z</time></trkpt><trkpt lat="46.08461552814131" lon="12.968381267047757"><ele>114.0</ele><time>2026-04-27T08:29:27.001Z</time></trkpt><trkpt lat="46.08458437568364" lon="12.968622837815143"><ele>114.66666666666666</ele><time>2026-04-27T08:29:28.001Z</time></trkpt><trkpt lat="46.08455347285499" lon="12.968894301398057"><ele>115.33333333333333</ele><time>2026-04-27T08:29:29.001Z</time></trkpt><trkpt lat="46.08451929773666" lon="12.96917574810721"><ele>116.0</ele><time>2026-04-27T08:29:30.001Z</time></trkpt><trkpt lat="46.08448317344779" lon="12.96946865400418"><ele>116.0</ele><time>2026-04-27T08:29:31.001Z</time></trkpt><trkpt lat="46.08444610793629" lon="12.9697708360908"><ele>116.0</ele><time>2026-04-27T08:29:32.001Z</time></trkpt><trkpt lat="46.084408942307114" lon="12.970081162819056"><ele>116.0</ele><time>2026-04-27T08:29:33.001Z</time></trkpt><trkpt lat="46.08437180296829" lon="12.970391936956485"><ele>115.66666666666666</ele><time>2026-04-27T08:29:34.001Z</time></trkpt><trkpt lat="46.08433552485549" lon="12.9707013240303"><ele>115.33333333333334</ele><time>2026-04-27T08:29:35.001Z</time></trkpt><trkpt lat="46.084296831355005" lon="12.971015716932254"><ele>115.0</ele><time>2026-04-27T08:29:36.001Z</time></trkpt><trkpt lat="46.084261095497475" lon="12.971316731185624"><ele>115.0</ele><time>2026-04-27T08:29:37.001Z</time></trkpt><trkpt lat="46.08422679298826" lon="12.971600748984052"><ele>115.0</ele><time>2026-04-27T08:29:38Z</time></trkpt><trkpt lat="46.0841953322246" lon="12.971870322523362"><ele>115.0</ele><time>2026-04-27T08:29:39.001Z</time></trkpt><trkpt lat="46.084163334962994" lon="12.97212644484428"><ele>115.33333333333334</ele><time>2026-04-27T08:29:40.001Z</time></trkpt><trkpt lat="46.08413354361563" lon="12.972378556139551"><ele>115.66666666666666</ele><time>2026-04-27T08:29:41.001Z</time></trkpt><trkpt lat="46.08410679291738" lon="12.972627568459716"><ele>116.0</ele><time>2026-04-27T08:29:42.001Z</time></trkpt><trkpt lat="46.08407459031097" lon="12.972870387108308"><ele>116.33333333333333</ele><time>2026-04-27T08:29:43.001Z</time></trkpt><trkpt lat="46.08404707988352" lon="12.97311515526982"><ele>116.66666666666666</ele><time>2026-04-27T08:29:44.001Z</time></trkpt><trkpt lat="46.08401923266218" lon="12.973362471182718"><ele>117.0</ele><time>2026-04-27T08:29:45.001Z</time></trkpt><trkpt lat="46.08398966069368" lon="12.97361723259388"><ele>117.0</ele><time>2026-04-27T08:29:46.001Z</time></trkpt><trkpt lat="46.083956218476885" lon="12.973878029062604"><ele>117.0</ele><time>2026-04-27T08:29:47.001Z</time></trkpt><trkpt lat="46.08391983449706" lon="12.97416355447963"><ele>117.0</ele><time>2026-04-27T08:29:48.001Z</time></trkpt><trkpt lat="46.083881182076055" lon="12.974455007825219"><ele>117.0</ele><time>2026-04-27T08:29:49.001Z</time></trkpt><trkpt lat="46.08384168924901" lon="12.97474860750601"><ele>117.0</ele><time>2026-04-27T08:29:50.001Z</time></trkpt><trkpt lat="46.083797654146444" lon="12.975071754435653"><ele>117.0</ele><time>2026-04-27T08:29:51.001Z</time></trkpt><trkpt lat="46.08374335786983" lon="12.97542298538102"><ele>117.5</ele><time>2026-04-27T08:29:52.001Z</time></trkpt><trkpt lat="46.08368645524662" lon="12.975793481778318"><ele>118.0</ele><time>2026-04-27T08:29:53.001Z</time></trkpt><trkpt lat="46.083625422468295" lon="12.976178775190592"><ele>118.0</ele><time>2026-04-27T08:29:54.001Z</time></trkpt><trkpt lat="46.083566223851385" lon="12.976567526136233"><ele>118.0</ele><time>2026-04-27T08:29:55.001Z</time></trkpt><trkpt lat="46.08350740338468" lon="12.976959158315694"><ele>118.5</ele><time>2026-04-27T08:29:56.001Z</time></trkpt><trkpt lat="46.08344760573462" lon="12.97734948203207"><ele>119.0</ele><time>2026-04-27T08:29:57.001Z</time></trkpt><trkpt lat="46.083388669454756" lon="12.977731946019365"><ele>119.0</ele><time>2026-04-27T08:29:58.001Z</time></trkpt><trkpt lat="46.08333002893486" lon="12.978119343706947"><ele>119.0</ele><time>2026-04-27T08:29:59.001Z</time></trkpt><trkpt lat="46.08327058197799" lon="12.978507459390206"><ele>118.5</ele><time>2026-04-27T08:30:00.001Z</time></trkpt><trkpt lat="46.083213144956865" lon="12.978893543930605"><ele>118.0</ele><time>2026-04-27T08:30:01.001Z</time></trkpt><trkpt lat="46.083148694241586" lon="12.979289443899463"><ele>117.5</ele><time>2026-04-27T08:30:02.001Z</time></trkpt><trkpt lat="46.08308698033776" lon="12.979693867189246"><ele>117.0</ele><time>2026-04-27T08:30:03.001Z</time></trkpt><trkpt lat="46.08302438608006" lon="12.98009598144379"><ele>118.0</ele><time>2026-04-27T08:30:04.001Z</time></trkpt><trkpt lat="46.08296617807167" lon="12.980498936902155"><ele>119.0</ele><time>2026-04-27T08:30:05.001Z</time></trkpt><trkpt lat="46.08290873281025" lon="12.980890201567073"><ele>119.0</ele><time>2026-04-27T08:30:06.001Z</time></trkpt><trkpt lat="46.082851574672915" lon="12.981278232890718"><ele>119.0</ele><time>2026-04-27T08:30:07.001Z</time></trkpt><trkpt lat="46.08278813819683" lon="12.981667886339592"><ele>118.0</ele><time>2026-04-27T08:30:08.001Z</time></trkpt><trkpt lat="46.08272871933944" lon="12.982044290281284"><ele>117.0</ele><time>2026-04-27T08:30:09.001Z</time></trkpt><trkpt lat="46.082672288973896" lon="12.982390553967159"><ele>117.33333333333334</ele><time>2026-04-27T08:30:10.001Z</time></trkpt><trkpt lat="46.08262377347913" lon="12.982710038954718"><ele>117.66666666666667</ele><time>2026-04-27T08:30:11.001Z</time></trkpt><trkpt lat="46.08257489687307" lon="12.983011182018087"><ele>118.0</ele><time>2026-04-27T08:30:12.001Z</time></trkpt><trkpt lat="46.08253070078644" lon="12.983293173335108"><ele>118.33333333333334</ele><time>2026-04-27T08:30:13.001Z</time></trkpt><trkpt lat="46.08248859987253" lon="12.98357146155053"><ele>118.66666666666666</ele><time>2026-04-27T08:30:14.001Z</time></trkpt><trkpt lat="46.082448151433425" lon="12.983840298536858"><ele>119.0</ele><time>2026-04-27T08:30:15.001Z</time></trkpt><trkpt lat="46.082406206268026" lon="12.984105578832601"><ele>119.33333333333333</ele><time>2026-04-27T08:30:16.001Z</time></trkpt><trkpt lat="46.08236534577754" lon="12.984358239597626"><ele>119.66666666666666</ele><time>2026-04-27T08:30:17.001Z</time></trkpt><trkpt lat="46.08232493074998" lon="12.984607878916302"><ele>120.0</ele><time>2026-04-27T08:30:18.001Z</time></trkpt><trkpt lat="46.08228829667892" lon="12.984861039522748"><ele>119.66666666666666</ele><time>2026-04-27T08:30:19.001Z</time></trkpt><trkpt lat="46.0822496389628" lon="12.985107798745718"><ele>119.33333333333333</ele><time>2026-04-27T08:30:20.001Z</time></trkpt><trkpt lat="46.0822107701639" lon="12.985358529868233"><ele>119.0</ele><time>2026-04-27T08:30:21.001Z</time></trkpt><trkpt lat="46.08217342228547" lon="12.985617969511432"><ele>118.66666666666666</ele><time>2026-04-27T08:30:22.001Z</time></trkpt><trkpt lat="46.08214033986276" lon="12.985884821281982"><ele>118.33333333333334</ele><time>2026-04-27T08:30:23.001Z</time></trkpt><trkpt lat="46.08209884345225" lon="12.986137362238052"><ele>118.0</ele><time>2026-04-27T08:30:24.001Z</time></trkpt><trkpt lat="46.08206138961328" lon="12.986397552978113"><ele>118.0</ele><time>2026-04-27T08:30:25.001Z</time></trkpt><trkpt lat="46.08202513896957" lon="12.986660095324602"><ele>118.0</ele><time>2026-04-27T08:30:26.001Z</time></trkpt><trkpt lat="46.081996805441776" lon="12.986904218687643"><ele>118.0</ele><time>2026-04-27T08:30:27.001Z</time></trkpt><trkpt lat="46.08197230072726" lon="12.987133167666189"><ele>118.33333333333334</ele><time>2026-04-27T08:30:28.001Z</time></trkpt><trkpt lat="46.08194582661827" lon="12.987377113521626"><ele>118.66666666666666</ele><time>2026-04-27T08:30:29.001Z</time></trkpt><trkpt lat="46.08191731024877" lon="12.98762433757576"><ele>119.0</ele><time>2026-04-27T08:30:30.001Z</time></trkpt><trkpt lat="46.08189090172094" lon="12.987846039651686"><ele>119.0</ele><time>2026-04-27T08:30:31.001Z</time></trkpt><trkpt lat="46.081861151667496" lon="12.98806581772446"><ele>119.0</ele><time>2026-04-27T08:30:32.001Z</time></trkpt><trkpt lat="46.081833960501044" lon="12.988279710216029"><ele>119.0</ele><time>2026-04-27T08:30:33.001Z</time></trkpt><trkpt lat="46.081809707127285" lon="12.98846675143981"><ele>119.0</ele><time>2026-04-27T08:30:34.001Z</time></trkpt><trkpt lat="46.08178150529947" lon="12.988634769659878"><ele>119.0</ele><time>2026-04-27T08:30:35.001Z</time></trkpt><trkpt lat="46.08175006037037" lon="12.988764113505951"><ele>119.0</ele><time>2026-04-27T08:30:36.001Z</time></trkpt><trkpt lat="46.081704071574784" lon="12.988865979208093"><ele>119.0</ele><time>2026-04-27T08:30:37.001Z</time></trkpt><trkpt lat="46.08165056228379" lon="12.988972222539855"><ele>119.0</ele><time>2026-04-27T08:30:38.001Z</time></trkpt><trkpt lat="46.08162923799188" lon="12.989090082297247"><ele>119.0</ele><time>2026-04-27T08:30:39.001Z</time></trkpt><trkpt lat="46.08163148156137" lon="12.989258562790477"><ele>119.0</ele><time>2026-04-27T08:30:40.001Z</time></trkpt><trkpt lat="46.08165045922712" lon="12.98948646283711"><ele>119.0</ele><time>2026-04-27T08:30:41.001Z</time></trkpt><trkpt lat="46.08165651981874" lon="12.989775552386826"><ele>119.0</ele><time>2026-04-27T08:30:42.001Z</time></trkpt><trkpt lat="46.08163327374598" lon="12.990109385696433"><ele>119.0</ele><time>2026-04-27T08:30:43.001Z</time></trkpt><trkpt lat="46.081591019531125" lon="12.990464211236668"><ele>119.0</ele><time>2026-04-27T08:30:44.001Z</time></trkpt><trkpt lat="46.08154290900066" lon="12.990789281178179"><ele>119.33333333333333</ele><time>2026-04-27T08:30:45.001Z</time></trkpt><trkpt lat="46.08150018800992" lon="12.991105593920343"><ele>119.66666666666666</ele><time>2026-04-27T08:30:46.001Z</time></trkpt><trkpt lat="46.08147281927237" lon="12.991403117718445"><ele>120.0</ele><time>2026-04-27T08:30:47.001Z</time></trkpt><trkpt lat="46.081455049531264" lon="12.9917232092667"><ele>119.0</ele><time>2026-04-27T08:30:48.002Z</time></trkpt><trkpt lat="46.08144696903074" lon="12.99206175705372"><ele>118.0</ele><time>2026-04-27T08:30:49.002Z</time></trkpt><trkpt lat="46.08144944037776" lon="12.992453950022885"><ele>118.5</ele><time>2026-04-27T08:30:50.002Z</time></trkpt><trkpt lat="46.08146491595578" lon="12.992880704344861"><ele>119.0</ele><time>2026-04-27T08:30:51.002Z</time></trkpt><trkpt lat="46.08148810018937" lon="12.993314307837444"><ele>119.5</ele><time>2026-04-27T08:30:52.002Z</time></trkpt><trkpt lat="46.08152838484311" lon="12.993748498786216"><ele>120.0</ele><time>2026-04-27T08:30:53.002Z</time></trkpt><trkpt lat="46.081572522045334" lon="12.99417634695652"><ele>120.0</ele><time>2026-04-27T08:30:54.002Z</time></trkpt><trkpt lat="46.081620489696846" lon="12.994610606908207"><ele>120.0</ele><time>2026-04-27T08:30:55.002Z</time></trkpt><trkpt lat="46.0816625337874" lon="12.994994518706049"><ele>120.5</ele><time>2026-04-27T08:30:56.002Z</time></trkpt><trkpt lat="46.08170170879112" lon="12.995358267059384"><ele>121.0</ele><time>2026-04-27T08:30:57.002Z</time></trkpt><trkpt lat="46.08173980206859" lon="12.995723530762877"><ele>121.0</ele><time>2026-04-27T08:30:58.002Z</time></trkpt><trkpt lat="46.08177787162614" lon="12.996087354049438"><ele>121.0</ele><time>2026-04-27T08:30:59.002Z</time></trkpt><trkpt lat="46.081818134556684" lon="12.99645948447003"><ele>120.5</ele><time>2026-04-27T08:31:00.002Z</time></trkpt><trkpt lat="46.08186203581838" lon="12.996843553415568"><ele>120.0</ele><time>2026-04-27T08:31:01.002Z</time></trkpt><trkpt lat="46.08190517634861" lon="12.997235784690467"><ele>119.5</ele><time>2026-04-27T08:31:02.002Z</time></trkpt><trkpt lat="46.081949700278344" lon="12.997643339331107"><ele>119.0</ele><time>2026-04-27T08:31:03.002Z</time></trkpt><trkpt lat="46.08199629213347" lon="12.99807508855474"><ele>119.5</ele><time>2026-04-27T08:31:04.002Z</time></trkpt><trkpt lat="46.08204232898011" lon="12.998515931978794"><ele>120.0</ele><time>2026-04-27T08:31:05.002Z</time></trkpt><trkpt lat="46.08208993975678" lon="12.998968122959102"><ele>120.5</ele><time>2026-04-27T08:31:06.002Z</time></trkpt><trkpt lat="46.08213808698866" lon="12.999408649010906"><ele>121.0</ele><time>2026-04-27T08:31:07.002Z</time></trkpt><trkpt lat="46.082187986984415" lon="12.999845076967066"><ele>121.0</ele><time>2026-04-27T08:31:08.002Z</time></trkpt><trkpt lat="46.082238299464564" lon="13.00029166308665"><ele>121.0</ele><time>2026-04-27T08:31:09.002Z</time></trkpt><trkpt lat="46.08228075223824" lon="13.000709774606664"><ele>121.0</ele><time>2026-04-27T08:31:10.002Z</time></trkpt><trkpt lat="46.082323359155154" lon="13.001099540307605"><ele>121.0</ele><time>2026-04-27T08:31:11.002Z</time></trkpt><trkpt lat="46.08236283453622" lon="13.00148035398228"><ele>120.5</ele><time>2026-04-27T08:31:12.002Z</time></trkpt><trkpt lat="46.08240679812249" lon="13.001866821170912"><ele>120.0</ele><time>2026-04-27T08:31:13.002Z</time></trkpt><trkpt lat="46.0824503670962" lon="13.00225762453922"><ele>121.0</ele><time>2026-04-27T08:31:14.002Z</time></trkpt><trkpt lat="46.0824935456393" lon="13.002656853805703"><ele>122.0</ele><time>2026-04-27T08:31:15.002Z</time></trkpt><trkpt lat="46.0825393075085" lon="13.003059002779647"><ele>122.0</ele><time>2026-04-27T08:31:16.002Z</time></trkpt><trkpt lat="46.08258253700135" lon="13.003469381952398"><ele>122.0</ele><time>2026-04-27T08:31:17.002Z</time></trkpt><trkpt lat="46.08262561950999" lon="13.003875625550869"><ele>121.0</ele><time>2026-04-27T08:31:18.002Z</time></trkpt><trkpt lat="46.08266932711778" lon="13.004292235997907"><ele>120.0</ele><time>2026-04-27T08:31:19.002Z</time></trkpt><trkpt lat="46.082715070561115" lon="13.004710296228469"><ele>120.0</ele><time>2026-04-27T08:31:20.002Z</time></trkpt><trkpt lat="46.08275999382234" lon="13.005133573413781"><ele>120.0</ele><time>2026-04-27T08:31:21.002Z</time></trkpt><trkpt lat="46.08280634581123" lon="13.005557115040375"><ele>120.0</ele><time>2026-04-27T08:31:22.002Z</time></trkpt><trkpt lat="46.08285410214731" lon="13.00598294783254"><ele>120.0</ele><time>2026-04-27T08:31:23.002Z</time></trkpt><trkpt lat="46.08289929934807" lon="13.006390448321937"><ele>120.5</ele><time>2026-04-27T08:31:24.002Z</time></trkpt><trkpt lat="46.082939978126454" lon="13.006768831386816"><ele>121.0</ele><time>2026-04-27T08:31:25.002Z</time></trkpt><trkpt lat="46.08297828915829" lon="13.007132948000413"><ele>120.5</ele><time>2026-04-27T08:31:26.002Z</time></trkpt><trkpt lat="46.08301690093252" lon="13.007495121351079"><ele>120.0</ele><time>2026-04-27T08:31:27.002Z</time></trkpt><trkpt lat="46.08305512883301" lon="13.00785201309227"><ele>120.0</ele><time>2026-04-27T08:31:28.002Z</time></trkpt><trkpt lat="46.083092553989516" lon="13.008200740941138"><ele>120.0</ele><time>2026-04-27T08:31:29.002Z</time></trkpt><trkpt lat="46.083130652377186" lon="13.008546784632797"><ele>120.5</ele><time>2026-04-27T08:31:30.002Z</time></trkpt><trkpt lat="46.083168708839324" lon="13.00889393202164"><ele>121.0</ele><time>2026-04-27T08:31:31.001Z</time></trkpt><trkpt lat="46.08320257308406" lon="13.009227804648267"><ele>121.0</ele><time>2026-04-27T08:31:32.001Z</time></trkpt><trkpt lat="46.0832419127124" lon="13.009581849165455"><ele>121.0</ele><time>2026-04-27T08:31:33.001Z</time></trkpt><trkpt lat="46.08328041213106" lon="13.009942842016796"><ele>121.5</ele><time>2026-04-27T08:31:34.001Z</time></trkpt><trkpt lat="46.08332259636297" lon="13.010320239704557"><ele>122.0</ele><time>2026-04-27T08:31:35.001Z</time></trkpt><trkpt lat="46.08336419874326" lon="13.010702538086496"><ele>122.5</ele><time>2026-04-27T08:31:36.001Z</time></trkpt><trkpt lat="46.083409086319676" lon="13.011095088950324"><ele>123.0</ele><time>2026-04-27T08:31:37.001Z</time></trkpt><trkpt lat="46.083452096555106" lon="13.011486077256475"><ele>123.0</ele><time>2026-04-27T08:31:38.001Z</time></trkpt><trkpt lat="46.08349448557868" lon="13.011877209289278"><ele>123.0</ele><time>2026-04-27T08:31:39.001Z</time></trkpt><trkpt lat="46.08353834506944" lon="13.01226551529568"><ele>123.0</ele><time>2026-04-27T08:31:40.001Z</time></trkpt><trkpt lat="46.083579135048105" lon="13.012640505102127"><ele>123.0</ele><time>2026-04-27T08:31:41.001Z</time></trkpt><trkpt lat="46.08361721611101" lon="13.013006677089887"><ele>123.0</ele><time>2026-04-27T08:31:42.001Z</time></trkpt><trkpt lat="46.083654316320505" lon="13.013360775164603"><ele>123.0</ele><time>2026-04-27T08:31:43.001Z</time></trkpt><trkpt lat="46.08369056646087" lon="13.013713921342214"><ele>123.0</ele><time>2026-04-27T08:31:44Z</time></trkpt><trkpt lat="46.08372517686877" lon="13.014066144779148"><ele>123.0</ele><time>2026-04-27T08:31:45Z</time></trkpt><trkpt lat="46.08376229306752" lon="13.014400378163668"><ele>123.0</ele><time>2026-04-27T08:31:46Z</time></trkpt><trkpt lat="46.08379697109452" lon="13.014726405628592"><ele>123.0</ele><time>2026-04-27T08:31:47Z</time></trkpt><trkpt lat="46.08383274850431" lon="13.015048838102787"><ele>123.0</ele><time>2026-04-27T08:31:48Z</time></trkpt><trkpt lat="46.08386785257362" lon="13.01538366852765"><ele>123.0</ele><time>2026-04-27T08:31:49Z</time></trkpt><trkpt lat="46.08389975729385" lon="13.015697149029036"><ele>122.0</ele><time>2026-04-27T08:31:50Z</time></trkpt><trkpt lat="46.08393094369764" lon="13.015998631966054"><ele>121.0</ele><time>2026-04-27T08:31:51Z</time></trkpt><trkpt lat="46.083966766478135" lon="13.016313466798817"><ele>120.0</ele><time>2026-04-27T08:31:52Z</time></trkpt><trkpt lat="46.084003811699326" lon="13.01663617275121"><ele>120.0</ele><time>2026-04-27T08:31:53Z</time></trkpt><trkpt lat="46.08404048950367" lon="13.016967537345394"><ele>120.0</ele><time>2026-04-27T08:31:54.001Z</time></trkpt><trkpt lat="46.084078404205705" lon="13.01731170252258"><ele>119.0</ele><time>2026-04-27T08:31:55.001Z</time></trkpt><trkpt lat="46.08411974580448" lon="13.017672554079232"><ele>118.0</ele><time>2026-04-27T08:31:56.001Z</time></trkpt><trkpt lat="46.084162826674" lon="13.018068363490682"><ele>116.0</ele><time>2026-04-27T08:31:57.001Z</time></trkpt><trkpt lat="46.084206176443395" lon="13.018472547314929"><ele>114.0</ele><time>2026-04-27T08:31:58.001Z</time></trkpt><trkpt lat="46.08424830091057" lon="13.018868149913827"><ele>112.5</ele><time>2026-04-27T08:31:59.001Z</time></trkpt><trkpt lat="46.084293433775976" lon="13.019254479068968"><ele>111.0</ele><time>2026-04-27T08:32:00.001Z</time></trkpt><trkpt lat="46.084338913707015" lon="13.019657563429769"><ele>110.5</ele><time>2026-04-27T08:32:01.001Z</time></trkpt><trkpt lat="46.08438336501491" lon="13.020092163491068"><ele>110.0</ele><time>2026-04-27T08:32:02.001Z</time></trkpt><trkpt lat="46.08443095716761" lon="13.020537165861336"><ele>108.5</ele><time>2026-04-27T08:32:03.001Z</time></trkpt><trkpt lat="46.08447971360596" lon="13.020969637919714"><ele>107.0</ele><time>2026-04-27T08:32:04.001Z</time></trkpt><trkpt lat="46.08452288310754" lon="13.02135875797413"><ele>107.5</ele><time>2026-04-27T08:32:05.001Z</time></trkpt><trkpt lat="46.08456175189096" lon="13.0217155002335"><ele>108.0</ele><time>2026-04-27T08:32:06.001Z</time></trkpt><trkpt lat="46.08459740904755" lon="13.022032524346013"><ele>108.0</ele><time>2026-04-27T08:32:07.001Z</time></trkpt><trkpt lat="46.08463083074801" lon="13.022328954823717"><ele>108.0</ele><time>2026-04-27T08:32:08.001Z</time></trkpt><trkpt lat="46.08465897962629" lon="13.022600730571448"><ele>108.0</ele><time>2026-04-27T08:32:09.001Z</time></trkpt><trkpt lat="46.08468469363725" lon="13.022856390778003"><ele>108.25</ele><time>2026-04-27T08:32:10.001Z</time></trkpt><trkpt lat="46.084707357664044" lon="13.02308393884789"><ele>108.5</ele><time>2026-04-27T08:32:11.001Z</time></trkpt><trkpt lat="46.084729618949275" lon="13.023285355679768"><ele>108.75</ele><time>2026-04-27T08:32:12.001Z</time></trkpt><trkpt lat="46.0847513710421" lon="13.02347503843045"><ele>109.0</ele><time>2026-04-27T08:32:13.001Z</time></trkpt><trkpt lat="46.08477209693682" lon="13.023652923609378"><ele>109.00000000000001</ele><time>2026-04-27T08:32:14.001Z</time></trkpt><trkpt lat="46.084787648781514" lon="13.023813096338017"><ele>109.0</ele><time>2026-04-27T08:32:15.001Z</time></trkpt><trkpt lat="46.084799177781626" lon="13.023959920890311"><ele>109.0</ele><time>2026-04-27T08:32:16.001Z</time></trkpt><trkpt lat="46.08480470491169" lon="13.024083753183216"><ele>109.0</ele><time>2026-04-27T08:32:17.001Z</time></trkpt><trkpt lat="46.08481000703544" lon="13.024196949915122"><ele>109.00000000000001</ele><time>2026-04-27T08:32:18.001Z</time></trkpt><trkpt lat="46.08481007209187" lon="13.024297521712803"><ele>109.0</ele><time>2026-04-27T08:32:19.001Z</time></trkpt><trkpt lat="46.08478922745625" lon="13.02445526961668"><ele>109.0</ele><time>2026-04-27T08:32:21.001Z</time></trkpt><trkpt lat="46.08473471078538" lon="13.024552001184846"><ele>109.0</ele><time>2026-04-27T08:32:23.001Z</time></trkpt><trkpt lat="46.08467749180981" lon="13.024724698255454"><ele>109.0</ele><time>2026-04-27T08:32:25.001Z</time></trkpt><trkpt lat="46.08468537693978" lon="13.024831523400659"><ele>109.0</ele><time>2026-04-27T08:32:26.001Z</time></trkpt><trkpt lat="46.0847131284889" lon="13.024943063844125"><ele>109.0</ele><time>2026-04-27T08:32:27.001Z</time></trkpt><trkpt lat="46.08476921510676" lon="13.025040755721232"><ele>109.0</ele><time>2026-04-27T08:32:28.001Z</time></trkpt><trkpt lat="46.08484870349419" lon="13.025111895313326"><ele>109.0</ele><time>2026-04-27T08:32:29.001Z</time></trkpt><trkpt lat="46.084899264731604" lon="13.025246667369704"><ele>109.0</ele><time>2026-04-27T08:32:30.001Z</time></trkpt><trkpt lat="46.084940487094464" lon="13.02536702974035"><ele>109.0</ele><time>2026-04-27T08:32:31.001Z</time></trkpt><trkpt lat="46.08496587243869" lon="13.02551149327553"><ele>109.0</ele><time>2026-04-27T08:32:32.001Z</time></trkpt><trkpt lat="46.084983096573154" lon="13.02565660087837"><ele>109.5</ele><time>2026-04-27T08:32:33.001Z</time></trkpt><trkpt lat="46.085001348735375" lon="13.025827636928241"><ele>110.0</ele><time>2026-04-27T08:32:34.001Z</time></trkpt><trkpt lat="46.08501946710399" lon="13.02599028842659"><ele>110.5</ele><time>2026-04-27T08:32:35.001Z</time></trkpt><trkpt lat="46.08503888821093" lon="13.026155793067536"><ele>111.0</ele><time>2026-04-27T08:32:36.001Z</time></trkpt><trkpt lat="46.085058813166896" lon="13.026300784067718"><ele>111.0</ele><time>2026-04-27T08:32:37.001Z</time></trkpt><trkpt lat="46.08507195784798" lon="13.026461008099597"><ele>111.0</ele><time>2026-04-27T08:32:38.001Z</time></trkpt><trkpt lat="46.0850930052953" lon="13.026623805207283"><ele>111.0</ele><time>2026-04-27T08:32:39.001Z</time></trkpt><trkpt lat="46.08511225876278" lon="13.026788600356815"><ele>111.0</ele><time>2026-04-27T08:32:40.001Z</time></trkpt><trkpt lat="46.08512858954013" lon="13.026950740563548"><ele>110.75</ele><time>2026-04-27T08:32:41.001Z</time></trkpt><trkpt lat="46.08514394108591" lon="13.027124789866567"><ele>110.5</ele><time>2026-04-27T08:32:42.001Z</time></trkpt><trkpt lat="46.0851690812034" lon="13.027321990288627"><ele>110.25</ele><time>2026-04-27T08:32:43.001Z</time></trkpt><trkpt lat="46.085203556282046" lon="13.027563951721946"><ele>110.0</ele><time>2026-04-27T08:32:44.001Z</time></trkpt><trkpt lat="46.08523236013904" lon="13.02781293217507"><ele>110.0</ele><time>2026-04-27T08:32:45.001Z</time></trkpt><trkpt lat="46.08525417012231" lon="13.028085932692145"><ele>110.0</ele><time>2026-04-27T08:32:46.001Z</time></trkpt><trkpt lat="46.085280537524866" lon="13.028409797549648"><ele>110.0</ele><time>2026-04-27T08:32:47.001Z</time></trkpt><trkpt lat="46.08531454090734" lon="13.028761959544676"><ele>110.0</ele><time>2026-04-27T08:32:48.001Z</time></trkpt><trkpt lat="46.085355628779766" lon="13.029138004551688"><ele>110.0</ele><time>2026-04-27T08:32:49.001Z</time></trkpt><trkpt lat="46.08539535413338" lon="13.029514159207556"><ele>110.0</ele><time>2026-04-27T08:32:50.001Z</time></trkpt><trkpt lat="46.08544038814159" lon="13.029911970316569"><ele>110.0</ele><time>2026-04-27T08:32:51.001Z</time></trkpt><trkpt lat="46.08548754156849" lon="13.030324194182926"><ele>110.5</ele><time>2026-04-27T08:32:52.001Z</time></trkpt><trkpt lat="46.08553433141615" lon="13.030751862280399"><ele>111.0</ele><time>2026-04-27T08:32:53.001Z</time></trkpt><trkpt lat="46.0855816744376" lon="13.03118319793195"><ele>111.0</ele><time>2026-04-27T08:32:54.001Z</time></trkpt><trkpt lat="46.08562537190998" lon="13.031595634673996"><ele>111.0</ele><time>2026-04-27T08:32:55.001Z</time></trkpt><trkpt lat="46.08567029384652" lon="13.031998841249132"><ele>111.0</ele><time>2026-04-27T08:32:56.001Z</time></trkpt><trkpt lat="46.08571245082717" lon="13.03239060309181"><ele>111.0</ele><time>2026-04-27T08:32:57.001Z</time></trkpt><trkpt lat="46.0857522396004" lon="13.032778412177974"><ele>111.5</ele><time>2026-04-27T08:32:58.001Z</time></trkpt><trkpt lat="46.0857928760194" lon="13.03316374695318"><ele>112.0</ele><time>2026-04-27T08:32:59.001Z</time></trkpt><trkpt lat="46.08583489443376" lon="13.033545221517757"><ele>112.0</ele><time>2026-04-27T08:33:00.001Z</time></trkpt><trkpt lat="46.085874876784864" lon="13.03392360992243"><ele>112.0</ele><time>2026-04-27T08:33:01.001Z</time></trkpt><trkpt lat="46.08591575716312" lon="13.034294919735991"><ele>113.0</ele><time>2026-04-27T08:33:02.001Z</time></trkpt><trkpt lat="46.0859510497765" lon="13.034631263458747"><ele>114.0</ele><time>2026-04-27T08:33:03.002Z</time></trkpt><trkpt lat="46.08598637680283" lon="13.03496245580491"><ele>116.0</ele><time>2026-04-27T08:33:04.002Z</time></trkpt><trkpt lat="46.08602727583954" lon="13.03530981691931"><ele>118.0</ele><time>2026-04-27T08:33:05.002Z</time></trkpt><trkpt lat="46.08606621879995" lon="13.035679183623968"><ele>120.0</ele><time>2026-04-27T08:33:06.002Z</time></trkpt><trkpt lat="46.08610448013751" lon="13.036058107520665"><ele>122.0</ele><time>2026-04-27T08:33:07.002Z</time></trkpt><trkpt lat="46.086145887639795" lon="13.036443753071657"><ele>123.0</ele><time>2026-04-27T08:33:08.002Z</time></trkpt><trkpt lat="46.086187128951465" lon="13.036842072412131"><ele>124.0</ele><time>2026-04-27T08:33:09.002Z</time></trkpt><trkpt lat="46.08623029244616" lon="13.037247256757688"><ele>124.0</ele><time>2026-04-27T08:33:10.002Z</time></trkpt><trkpt lat="46.0862748523775" lon="13.037651865015903"><ele>124.0</ele><time>2026-04-27T08:33:11.002Z</time></trkpt><trkpt lat="46.0863220007491" lon="13.038053407752926"><ele>124.0</ele><time>2026-04-27T08:33:12.002Z</time></trkpt><trkpt lat="46.0863697027543" lon="13.03845266337185"><ele>124.0</ele><time>2026-04-27T08:33:13.002Z</time></trkpt><trkpt lat="46.08641633519519" lon="13.038857028849389"><ele>123.5</ele><time>2026-04-27T08:33:14.002Z</time></trkpt><trkpt lat="46.086462355302515" lon="13.039259677871867"><ele>123.0</ele><time>2026-04-27T08:33:15.002Z</time></trkpt><trkpt lat="46.086505766506946" lon="13.039659331999514"><ele>123.0</ele><time>2026-04-27T08:33:16.002Z</time></trkpt><trkpt lat="46.0865461729257" lon="13.040036993273985"><ele>123.0</ele><time>2026-04-27T08:33:17.002Z</time></trkpt><trkpt lat="46.086585976021915" lon="13.04038746978852"><ele>123.5</ele><time>2026-04-27T08:33:18.002Z</time></trkpt><trkpt lat="46.08662191076757" lon="13.040713725413598"><ele>124.0</ele><time>2026-04-27T08:33:19.002Z</time></trkpt><trkpt lat="46.086657515242685" lon="13.041045997305936"><ele>124.0</ele><time>2026-04-27T08:33:20.002Z</time></trkpt><trkpt lat="46.086687057373766" lon="13.041350572943331"><ele>124.0</ele><time>2026-04-27T08:33:21.002Z</time></trkpt><trkpt lat="46.08671529935585" lon="13.041649402321553"><ele>124.0</ele><time>2026-04-27T08:33:22.002Z</time></trkpt><trkpt lat="46.086744900201786" lon="13.041929879932024"><ele>124.33333333333334</ele><time>2026-04-27T08:33:23.002Z</time></trkpt><trkpt lat="46.08678013231821" lon="13.042187407922532"><ele>124.66666666666666</ele><time>2026-04-27T08:33:24.002Z</time></trkpt><trkpt lat="46.08682461809529" lon="13.042442625897795"><ele>125.0</ele><time>2026-04-27T08:33:25.002Z</time></trkpt><trkpt lat="46.086878443960785" lon="13.042704481771075"><ele>125.0</ele><time>2026-04-27T08:33:26.002Z</time></trkpt><trkpt lat="46.086940999544574" lon="13.042993343181974"><ele>125.0</ele><time>2026-04-27T08:33:27.002Z</time></trkpt><trkpt lat="46.0870127877909" lon="13.043267464683503"><ele>125.0</ele><time>2026-04-27T08:33:28.002Z</time></trkpt><trkpt lat="46.087078440037125" lon="13.043516090373199"><ele>125.0</ele><time>2026-04-27T08:33:29.002Z</time></trkpt><trkpt lat="46.08714163063891" lon="13.043753973337509"><ele>125.0</ele><time>2026-04-27T08:33:30.002Z</time></trkpt><trkpt lat="46.087205049645505" lon="13.04398275913837"><ele>125.0</ele><time>2026-04-27T08:33:31.002Z</time></trkpt><trkpt lat="46.08726997085606" lon="13.044193729578769"><ele>125.0</ele><time>2026-04-27T08:33:32.002Z</time></trkpt><trkpt lat="46.08733310454943" lon="13.044388863460165"><ele>125.0</ele><time>2026-04-27T08:33:33.002Z</time></trkpt><trkpt lat="46.08739015714003" lon="13.044563025467525"><ele>125.0</ele><time>2026-04-27T08:33:34.002Z</time></trkpt><trkpt lat="46.08744406730256" lon="13.044727891644037"><ele>125.0</ele><time>2026-04-27T08:33:35.002Z</time></trkpt><trkpt lat="46.08749830254719" lon="13.044881336564128"><ele>124.75</ele><time>2026-04-27T08:33:36.002Z</time></trkpt><trkpt lat="46.08755729790728" lon="13.045036226443642"><ele>124.5</ele><time>2026-04-27T08:33:37Z</time></trkpt><trkpt lat="46.087617065093774" lon="13.04519609815565"><ele>124.25</ele><time>2026-04-27T08:33:38Z</time></trkpt><trkpt lat="46.087675156927105" lon="13.045358933952667"><ele>124.0</ele><time>2026-04-27T08:33:39Z</time></trkpt><trkpt lat="46.08773406046133" lon="13.045525385115903"><ele>124.0</ele><time>2026-04-27T08:33:40Z</time></trkpt><trkpt lat="46.0877850913465" lon="13.045675395028583"><ele>124.0</ele><time>2026-04-27T08:33:41.001Z</time></trkpt><trkpt lat="46.08783139089303" lon="13.045818338111346"><ele>124.0</ele><time>2026-04-27T08:33:42Z</time></trkpt><trkpt lat="46.08787479731004" lon="13.045952728816024"><ele>124.0</ele><time>2026-04-27T08:33:43Z</time></trkpt><trkpt lat="46.08791848112725" lon="13.046083090338774"><ele>124.0</ele><time>2026-04-27T08:33:44Z</time></trkpt><trkpt lat="46.08796373335007" lon="13.046221009099952"><ele>124.25</ele><time>2026-04-27T08:33:45Z</time></trkpt><trkpt lat="46.088006434242835" lon="13.046369096522167"><ele>124.5</ele><time>2026-04-27T08:33:46Z</time></trkpt><trkpt lat="46.08805142540688" lon="13.046523418230006"><ele>124.75</ele><time>2026-04-27T08:33:47Z</time></trkpt><trkpt lat="46.08809496548252" lon="13.046671942726313"><ele>125.0</ele><time>2026-04-27T08:33:48Z</time></trkpt><trkpt lat="46.08814422238615" lon="13.046843399678957"><ele>125.5</ele><time>2026-04-27T08:33:49Z</time></trkpt><trkpt lat="46.088200164214136" lon="13.047036794153273"><ele>126.0</ele><time>2026-04-27T08:33:50Z</time></trkpt><trkpt lat="46.08824900920653" lon="13.047224295374155"><ele>126.5</ele><time>2026-04-27T08:33:51Z</time></trkpt><trkpt lat="46.08828942259893" lon="13.047419926115074"><ele>127.0</ele><time>2026-04-27T08:33:52Z</time></trkpt><trkpt lat="46.088326200208584" lon="13.04761997581066"><ele>127.0</ele><time>2026-04-27T08:33:53Z</time></trkpt><trkpt lat="46.08835951662115" lon="13.047819208844174"><ele>127.0</ele><time>2026-04-27T08:33:54Z</time></trkpt><trkpt lat="46.08838853070547" lon="13.048025891133177"><ele>127.0</ele><time>2026-04-27T08:33:55Z</time></trkpt><trkpt lat="46.08841475085577" lon="13.048227627024403"><ele>127.0</ele><time>2026-04-27T08:33:56Z</time></trkpt><trkpt lat="46.08843180287759" lon="13.048417233261334"><ele>127.0</ele><time>2026-04-27T08:33:57Z</time></trkpt><trkpt lat="46.0884454531502" lon="13.048613412059062"><ele>127.0</ele><time>2026-04-27T08:33:58Z</time></trkpt><trkpt lat="46.08845692753334" lon="13.048817345225858"><ele>127.0</ele><time>2026-04-27T08:33:59Z</time></trkpt><trkpt lat="46.08846563189472" lon="13.049017527793914"><ele>127.0</ele><time>2026-04-27T08:34:00Z</time></trkpt><trkpt lat="46.08847278365456" lon="13.049225861409694"><ele>127.33333333333334</ele><time>2026-04-27T08:34:01Z</time></trkpt><trkpt lat="46.08847206818712" lon="13.049468003064604"><ele>127.66666666666666</ele><time>2026-04-27T08:34:02Z</time></trkpt><trkpt lat="46.088458321829066" lon="13.04972656253504"><ele>128.0</ele><time>2026-04-27T08:34:03Z</time></trkpt><trkpt lat="46.0884343514762" lon="13.05002721177546"><ele>128.0</ele><time>2026-04-27T08:34:04Z</time></trkpt><trkpt lat="46.088397514036835" lon="13.050365601745593"><ele>128.0</ele><time>2026-04-27T08:34:05Z</time></trkpt><trkpt lat="46.0883550411728" lon="13.050738399197396"><ele>127.5</ele><time>2026-04-27T08:34:06Z</time></trkpt><trkpt lat="46.08831516480052" lon="13.0511261162585"><ele>127.0</ele><time>2026-04-27T08:34:07Z</time></trkpt><trkpt lat="46.088275300337266" lon="13.051508859579943"><ele>127.5</ele><time>2026-04-27T08:34:08Z</time></trkpt><trkpt lat="46.088238386051195" lon="13.05188588599408"><ele>128.0</ele><time>2026-04-27T08:34:09Z</time></trkpt><trkpt lat="46.08820224652664" lon="13.052256756614137"><ele>127.5</ele><time>2026-04-27T08:34:10.001Z</time></trkpt><trkpt lat="46.08816525473882" lon="13.052609184163531"><ele>127.0</ele><time>2026-04-27T08:34:11.001Z</time></trkpt><trkpt lat="46.08813270879644" lon="13.052948330423169"><ele>127.0</ele><time>2026-04-27T08:34:12.001Z</time></trkpt><trkpt lat="46.088098951589004" lon="13.05327414925394"><ele>127.0</ele><time>2026-04-27T08:34:13.001Z</time></trkpt><trkpt lat="46.08806594900099" lon="13.053596747631431"><ele>126.66666666666667</ele><time>2026-04-27T08:34:14.001Z</time></trkpt><trkpt lat="46.08803945087698" lon="13.05390779456272"><ele>126.33333333333334</ele><time>2026-04-27T08:34:15.001Z</time></trkpt><trkpt lat="46.08801196768922" lon="13.054210276859413"><ele>126.0</ele><time>2026-04-27T08:34:16.001Z</time></trkpt><trkpt lat="46.08798827344521" lon="13.054485188802477"><ele>126.0</ele><time>2026-04-27T08:34:17.001Z</time></trkpt><trkpt lat="46.08797389597279" lon="13.05474926108497"><ele>126.0</ele><time>2026-04-27T08:34:18.001Z</time></trkpt><trkpt lat="46.08797041840262" lon="13.055015533609646"><ele>126.0</ele><time>2026-04-27T08:34:19.001Z</time></trkpt><trkpt lat="46.0879792381583" lon="13.055290834540422"><ele>126.0</ele><time>2026-04-27T08:34:20.001Z</time></trkpt><trkpt lat="46.088001308766444" lon="13.055568212845875"><ele>126.0</ele><time>2026-04-27T08:34:21.001Z</time></trkpt><trkpt lat="46.088020998416184" lon="13.05587373801379"><ele>126.0</ele><time>2026-04-27T08:34:22.001Z</time></trkpt><trkpt lat="46.08805559165034" lon="13.056194249180674"><ele>126.5</ele><time>2026-04-27T08:34:23.001Z</time></trkpt><trkpt lat="46.08810783525532" lon="13.056532970891089"><ele>127.0</ele><time>2026-04-27T08:34:24.001Z</time></trkpt><trkpt lat="46.08818217742417" lon="13.056903331579447"><ele>127.0</ele><time>2026-04-27T08:34:25.001Z</time></trkpt><trkpt lat="46.08826661736538" lon="13.057288912313693"><ele>127.0</ele><time>2026-04-27T08:34:26.001Z</time></trkpt><trkpt lat="46.08836084223616" lon="13.057690527248734"><ele>127.0</ele><time>2026-04-27T08:34:27.001Z</time></trkpt><trkpt lat="46.0884472638808" lon="13.058057590791579"><ele>127.0</ele><time>2026-04-27T08:34:28.001Z</time></trkpt><trkpt lat="46.088518580659105" lon="13.058387142717462"><ele>126.0</ele><time>2026-04-27T08:34:29.001Z</time></trkpt><trkpt lat="46.08858854603007" lon="13.058712279932177"><ele>125.0</ele><time>2026-04-27T08:34:30.001Z</time></trkpt><trkpt lat="46.08865937932112" lon="13.05903252002141"><ele>125.5</ele><time>2026-04-27T08:34:31.001Z</time></trkpt><trkpt lat="46.08873016973428" lon="13.059344277793627"><ele>126.0</ele><time>2026-04-27T08:34:32.001Z</time></trkpt><trkpt lat="46.08880061682753" lon="13.059649878804745"><ele>126.0</ele><time>2026-04-27T08:34:33.001Z</time></trkpt><trkpt lat="46.08886746933813" lon="13.059951807111831"><ele>126.0</ele><time>2026-04-27T08:34:34.001Z</time></trkpt><trkpt lat="46.08893147340195" lon="13.060246624676644"><ele>126.0</ele><time>2026-04-27T08:34:35.001Z</time></trkpt><trkpt lat="46.08899312028703" lon="13.060534855892033"><ele>126.0</ele><time>2026-04-27T08:34:36.001Z</time></trkpt><trkpt lat="46.08905666257027" lon="13.060815813244824"><ele>126.0</ele><time>2026-04-27T08:34:37.001Z</time></trkpt><trkpt lat="46.08912028590057" lon="13.061092419440914"><ele>126.0</ele><time>2026-04-27T08:34:38.001Z</time></trkpt><trkpt lat="46.089182118720096" lon="13.061369416211022"><ele>127.0</ele><time>2026-04-27T08:34:39.001Z</time></trkpt><trkpt lat="46.08924389612889" lon="13.061640585537674"><ele>128.0</ele><time>2026-04-27T08:34:40.001Z</time></trkpt><trkpt lat="46.08930462913015" lon="13.061912261958748"><ele>129.0</ele><time>2026-04-27T08:34:41.001Z</time></trkpt><trkpt lat="46.089363500051974" lon="13.062182075165627"><ele>129.33333333333334</ele><time>2026-04-27T08:34:42.001Z</time></trkpt><trkpt lat="46.08942439637161" lon="13.062452793684303"><ele>129.66666666666669</ele><time>2026-04-27T08:34:43.001Z</time></trkpt><trkpt lat="46.089487591759564" lon="13.0627198384839"><ele>130.0</ele><time>2026-04-27T08:34:44.001Z</time></trkpt><trkpt lat="46.08954991492524" lon="13.062986821370927"><ele>130.0</ele><time>2026-04-27T08:34:45.001Z</time></trkpt><trkpt lat="46.089603701657026" lon="13.06324487721837"><ele>130.0</ele><time>2026-04-27T08:34:46.001Z</time></trkpt><trkpt lat="46.08965344273846" lon="13.063482859342338"><ele>130.0</ele><time>2026-04-27T08:34:47.001Z</time></trkpt><trkpt lat="46.089700467820336" lon="13.06370797685021"><ele>130.0</ele><time>2026-04-27T08:34:48.001Z</time></trkpt><trkpt lat="46.089745014123295" lon="13.063933641647763"><ele>130.0</ele><time>2026-04-27T08:34:49.001Z</time></trkpt><trkpt lat="46.08979270605564" lon="13.064160968477694"><ele>130.0</ele><time>2026-04-27T08:34:50.001Z</time></trkpt><trkpt lat="46.08984441214696" lon="13.064404400312755"><ele>130.0</ele><time>2026-04-27T08:34:51.001Z</time></trkpt><trkpt lat="46.0898929326817" lon="13.06463558034066"><ele>130.0</ele><time>2026-04-27T08:34:52.001Z</time></trkpt><trkpt lat="46.08993958075917" lon="13.064837510357181"><ele>130.0</ele><time>2026-04-27T08:34:53.001Z</time></trkpt><trkpt lat="46.08997681012961" lon="13.065032646807186"><ele>130.0</ele><time>2026-04-27T08:34:54.001Z</time></trkpt><trkpt lat="46.090011473153545" lon="13.065215127627644"><ele>130.0</ele><time>2026-04-27T08:34:55.001Z</time></trkpt><trkpt lat="46.090054367050556" lon="13.06539123920997"><ele>130.0</ele><time>2026-04-27T08:34:56.001Z</time></trkpt><trkpt lat="46.09009965624879" lon="13.065583012673999"><ele>130.0</ele><time>2026-04-27T08:34:57.001Z</time></trkpt><trkpt lat="46.09014616267616" lon="13.065792456481933"><ele>129.75</ele><time>2026-04-27T08:34:58.001Z</time></trkpt><trkpt lat="46.09019271943492" lon="13.065999943087379"><ele>129.5</ele><time>2026-04-27T08:34:59.001Z</time></trkpt><trkpt lat="46.09023332298185" lon="13.06618498790622"><ele>129.25</ele><time>2026-04-27T08:35:00.001Z</time></trkpt><trkpt lat="46.09029629623538" lon="13.066350099061966"><ele>129.0</ele><time>2026-04-27T08:35:01.001Z</time></trkpt><trkpt lat="46.09038086934929" lon="13.066518205369917"><ele>129.33333333333334</ele><time>2026-04-27T08:35:02.001Z</time></trkpt><trkpt lat="46.09048690496886" lon="13.06667381131771"><ele>129.66666666666669</ele><time>2026-04-27T08:35:03.001Z</time></trkpt><trkpt lat="46.090611253947394" lon="13.066825514314331"><ele>130.0</ele><time>2026-04-27T08:35:04.001Z</time></trkpt><trkpt lat="46.09074847179004" lon="13.066967049130275"><ele>130.25</ele><time>2026-04-27T08:35:05.001Z</time></trkpt><trkpt lat="46.090869985739275" lon="13.067087505944174"><ele>130.5</ele><time>2026-04-27T08:35:06.001Z</time></trkpt><trkpt lat="46.090978130745164" lon="13.067195233556154"><ele>130.75</ele><time>2026-04-27T08:35:07.001Z</time></trkpt><trkpt lat="46.091074709372684" lon="13.067300178049456"><ele>131.0</ele><time>2026-04-27T08:35:08.001Z</time></trkpt><trkpt lat="46.09116383591806" lon="13.067395019242849"><ele>131.25</ele><time>2026-04-27T08:35:09.001Z</time></trkpt><trkpt lat="46.091256348048056" lon="13.06749155858355"><ele>131.5</ele><time>2026-04-27T08:35:10.001Z</time></trkpt><trkpt lat="46.091337824182986" lon="13.067617446440677"><ele>131.75</ele><time>2026-04-27T08:35:11.001Z</time></trkpt><trkpt lat="46.09141449812259" lon="13.06775550064475"><ele>132.0</ele><time>2026-04-27T08:35:12.001Z</time></trkpt><trkpt lat="46.09148691378506" lon="13.067923139150095"><ele>132.0</ele><time>2026-04-27T08:35:13.001Z</time></trkpt><trkpt lat="46.09157639755542" lon="13.06813421283832"><ele>132.0</ele><time>2026-04-27T08:35:14.001Z</time></trkpt><trkpt lat="46.09166849528215" lon="13.06838686673292"><ele>132.0</ele><time>2026-04-27T08:35:15.001Z</time></trkpt><trkpt lat="46.09176136676537" lon="13.06866070440682"><ele>132.33333333333334</ele><time>2026-04-27T08:35:16.001Z</time></trkpt><trkpt lat="46.091837317024115" lon="13.06892899945531"><ele>132.66666666666669</ele><time>2026-04-27T08:35:17.001Z</time></trkpt><trkpt lat="46.09189972167892" lon="13.06918436299903"><ele>133.0</ele><time>2026-04-27T08:35:18.001Z</time></trkpt><trkpt lat="46.09195783189035" lon="13.069438736095815"><ele>133.0</ele><time>2026-04-27T08:35:19.001Z</time></trkpt><trkpt lat="46.0920120580371" lon="13.069723650305106"><ele>133.0</ele><time>2026-04-27T08:35:20.002Z</time></trkpt><trkpt lat="46.09207850902421" lon="13.07005131200679"><ele>133.0</ele><time>2026-04-27T08:35:21.002Z</time></trkpt><trkpt lat="46.092146506149554" lon="13.07036667773535"><ele>133.0</ele><time>2026-04-27T08:35:22.002Z</time></trkpt><trkpt lat="46.0922160468046" lon="13.070669019221292"><ele>133.0</ele><time>2026-04-27T08:35:23.002Z</time></trkpt><trkpt lat="46.092286820692394" lon="13.070965355439917"><ele>133.0</ele><time>2026-04-27T08:35:24.002Z</time></trkpt><trkpt lat="46.09235245974577" lon="13.071261055055107"><ele>133.33333333333334</ele><time>2026-04-27T08:35:25.002Z</time></trkpt><trkpt lat="46.092415837164516" lon="13.0715548250508"><ele>133.66666666666666</ele><time>2026-04-27T08:35:26.002Z</time></trkpt><trkpt lat="46.09247736755644" lon="13.071850414519966"><ele>134.0</ele><time>2026-04-27T08:35:27.002Z</time></trkpt><trkpt lat="46.09254135882035" lon="13.072142551269957"><ele>134.0</ele><time>2026-04-27T08:35:28.002Z</time></trkpt><trkpt lat="46.09260152113359" lon="13.072438204652704"><ele>134.0</ele><time>2026-04-27T08:35:29.002Z</time></trkpt><trkpt lat="46.092664106908465" lon="13.07273631167804"><ele>134.0</ele><time>2026-04-27T08:35:30.002Z</time></trkpt><trkpt lat="46.09273193723618" lon="13.073030110216429"><ele>133.5</ele><time>2026-04-27T08:35:31.002Z</time></trkpt><trkpt lat="46.092796823341835" lon="13.073333734350545"><ele>133.0</ele><time>2026-04-27T08:35:32.002Z</time></trkpt><trkpt lat="46.09286648455932" lon="13.073655188914062"><ele>133.0</ele><time>2026-04-27T08:35:33.002Z</time></trkpt><trkpt lat="46.09293338709557" lon="13.073965429333679"><ele>133.0</ele><time>2026-04-27T08:35:34.002Z</time></trkpt><trkpt lat="46.092996727623095" lon="13.074244293543984"><ele>133.0</ele><time>2026-04-27T08:35:35.002Z</time></trkpt><trkpt lat="46.09305438254681" lon="13.074504579674375"><ele>133.0</ele><time>2026-04-27T08:35:36.002Z</time></trkpt><trkpt lat="46.09310596672266" lon="13.07474591214577"><ele>133.0</ele><time>2026-04-27T08:35:37.002Z</time></trkpt><trkpt lat="46.09315530380097" lon="13.074975731699153"><ele>133.0</ele><time>2026-04-27T08:35:38.002Z</time></trkpt><trkpt lat="46.09320372432638" lon="13.075200657708695"><ele>132.33333333333334</ele><time>2026-04-27T08:35:39.002Z</time></trkpt><trkpt lat="46.093255562759516" lon="13.0754335201464"><ele>131.66666666666666</ele><time>2026-04-27T08:35:40.002Z</time></trkpt><trkpt lat="46.09331173811346" lon="13.075669944066446"><ele>131.0</ele><time>2026-04-27T08:35:41.002Z</time></trkpt><trkpt lat="46.09336790749938" lon="13.075910953372011"><ele>130.66666666666666</ele><time>2026-04-27T08:35:42.002Z</time></trkpt><trkpt lat="46.093421835145286" lon="13.076162040506018"><ele>130.33333333333334</ele><time>2026-04-27T08:35:43Z</time></trkpt><trkpt lat="46.093472564373556" lon="13.076390849700992"><ele>130.0</ele><time>2026-04-27T08:35:44Z</time></trkpt><trkpt lat="46.09352080415253" lon="13.07660224427138"><ele>130.66666666666669</ele><time>2026-04-27T08:35:45Z</time></trkpt><trkpt lat="46.09356923668664" lon="13.076819593834186"><ele>131.33333333333334</ele><time>2026-04-27T08:35:46Z</time></trkpt><trkpt lat="46.09362142823437" lon="13.077051825683919"><ele>132.0</ele><time>2026-04-27T08:35:47Z</time></trkpt><trkpt lat="46.09367149796544" lon="13.077289684154145"><ele>132.0</ele><time>2026-04-27T08:35:48Z</time></trkpt><trkpt lat="46.09372170448639" lon="13.077531866509352"><ele>132.0</ele><time>2026-04-27T08:35:49Z</time></trkpt><trkpt lat="46.09377505297011" lon="13.077778965281714"><ele>132.0</ele><time>2026-04-27T08:35:50Z</time></trkpt><trkpt lat="46.093832635550925" lon="13.078038553513194"><ele>131.66666666666666</ele><time>2026-04-27T08:35:51Z</time></trkpt><trkpt lat="46.09389148646412" lon="13.078297952107734"><ele>131.33333333333331</ele><time>2026-04-27T08:35:52Z</time></trkpt><trkpt lat="46.093950964964975" lon="13.078567709379705"><ele>131.0</ele><time>2026-04-27T08:35:53Z</time></trkpt><trkpt lat="46.09401648981273" lon="13.07884510039354"><ele>131.66666666666666</ele><time>2026-04-27T08:35:54Z</time></trkpt><trkpt lat="46.094080674665136" lon="13.079125763076865"><ele>132.33333333333334</ele><time>2026-04-27T08:35:55Z</time></trkpt><trkpt lat="46.09414759784585" lon="13.079404630964037"><ele>133.0</ele><time>2026-04-27T08:35:56Z</time></trkpt><trkpt lat="46.09422249548994" lon="13.079682354199377"><ele>133.66666666666669</ele><time>2026-04-27T08:35:57Z</time></trkpt><trkpt lat="46.09430005642426" lon="13.079965152595866"><ele>134.33333333333334</ele><time>2026-04-27T08:35:58Z</time></trkpt><trkpt lat="46.09437951720108" lon="13.080253199319117"><ele>135.0</ele><time>2026-04-27T08:35:59Z</time></trkpt><trkpt lat="46.09446401931301" lon="13.080545172689842"><ele>135.0</ele><time>2026-04-27T08:36:00Z</time></trkpt><trkpt lat="46.09455065607471" lon="13.080842974916724"><ele>135.0</ele><time>2026-04-27T08:36:01Z</time></trkpt><trkpt lat="46.094643273868876" lon="13.081151754398283"><ele>135.0</ele><time>2026-04-27T08:36:02Z</time></trkpt><trkpt lat="46.09473856479425" lon="13.081464718488354"><ele>135.0</ele><time>2026-04-27T08:36:03Z</time></trkpt><trkpt lat="46.094826345612844" lon="13.081750796042856"><ele>135.0</ele><time>2026-04-27T08:36:04Z</time></trkpt><trkpt lat="46.094908421383025" lon="13.082017376892939"><ele>135.0</ele><time>2026-04-27T08:36:05Z</time></trkpt><trkpt lat="46.09498606180845" lon="13.082275672759112"><ele>135.0</ele><time>2026-04-27T08:36:06Z</time></trkpt><trkpt lat="46.095061130271084" lon="13.082516466728363"><ele>135.0</ele><time>2026-04-27T08:36:07Z</time></trkpt><trkpt lat="46.09513550452491" lon="13.082755469692811"><ele>135.0</ele><time>2026-04-27T08:36:08Z</time></trkpt><trkpt lat="46.095206785727896" lon="13.082987912881869"><ele>135.0</ele><time>2026-04-27T08:36:09Z</time></trkpt><trkpt lat="46.09527737209453" lon="13.083216840363693"><ele>135.0</ele><time>2026-04-27T08:36:10Z</time></trkpt><trkpt lat="46.0953503672422" lon="13.083441028050892"><ele>135.0</ele><time>2026-04-27T08:36:11Z</time></trkpt><trkpt lat="46.09542239237217" lon="13.083661385789512"><ele>135.0</ele><time>2026-04-27T08:36:12Z</time></trkpt><trkpt lat="46.095491350913164" lon="13.083884639689758"><ele>134.33333333333334</ele><time>2026-04-27T08:36:13Z</time></trkpt><trkpt lat="46.0955560504676" lon="13.084109344510006"><ele>133.66666666666669</ele><time>2026-04-27T08:36:14Z</time></trkpt><trkpt lat="46.09561964865941" lon="13.08433306602496"><ele>133.0</ele><time>2026-04-27T08:36:15Z</time></trkpt><trkpt lat="46.095684119216585" lon="13.084559338073317"><ele>133.0</ele><time>2026-04-27T08:36:16Z</time></trkpt><trkpt lat="46.09575346026725" lon="13.084795426984325"><ele>133.0</ele><time>2026-04-27T08:36:17Z</time></trkpt><trkpt lat="46.09583063233169" lon="13.085049044807894"><ele>133.0</ele><time>2026-04-27T08:36:18Z</time></trkpt><trkpt lat="46.095905388167495" lon="13.085297477192487"><ele>133.66666666666669</ele><time>2026-04-27T08:36:19Z</time></trkpt><trkpt lat="46.095976626178334" lon="13.085526449021735"><ele>134.33333333333334</ele><time>2026-04-27T08:36:20Z</time></trkpt><trkpt lat="46.096049164665885" lon="13.085758648039409"><ele>135.0</ele><time>2026-04-27T08:36:21Z</time></trkpt><trkpt lat="46.09612970034903" lon="13.085999508195998"><ele>135.33333333333334</ele><time>2026-04-27T08:36:22Z</time></trkpt><trkpt lat="46.09621997536189" lon="13.086261894603236"><ele>135.66666666666669</ele><time>2026-04-27T08:36:23Z</time></trkpt><trkpt lat="46.0963149255554" lon="13.086549921075708"><ele>136.0</ele><time>2026-04-27T08:36:24Z</time></trkpt><trkpt lat="46.096406164493914" lon="13.086845054491807"><ele>136.33333333333334</ele><time>2026-04-27T08:36:25.001Z</time></trkpt><trkpt lat="46.09649017655556" lon="13.087123369887639"><ele>136.66666666666666</ele><time>2026-04-27T08:36:26.001Z</time></trkpt><trkpt lat="46.096564452681115" lon="13.087376894744528"><ele>137.0</ele><time>2026-04-27T08:36:27.001Z</time></trkpt><trkpt lat="46.096637678773575" lon="13.087634963012695"><ele>137.0</ele><time>2026-04-27T08:36:28.001Z</time></trkpt><trkpt lat="46.096710994736604" lon="13.08790638897187"><ele>137.0</ele><time>2026-04-27T08:36:29.001Z</time></trkpt><trkpt lat="46.096783524204" lon="13.08817151530747"><ele>137.0</ele><time>2026-04-27T08:36:30.001Z</time></trkpt><trkpt lat="46.09685227059784" lon="13.088437153078942"><ele>137.0</ele><time>2026-04-27T08:36:31.001Z</time></trkpt><trkpt lat="46.09691822466117" lon="13.088699054165676"><ele>137.0</ele><time>2026-04-27T08:36:32.001Z</time></trkpt><trkpt lat="46.0969841960591" lon="13.088964766425732"><ele>137.0</ele><time>2026-04-27T08:36:33.001Z</time></trkpt><trkpt lat="46.09704411556407" lon="13.089231043724958"><ele>137.0</ele><time>2026-04-27T08:36:34.001Z</time></trkpt><trkpt lat="46.09710521413301" lon="13.089504728589425"><ele>137.0</ele><time>2026-04-27T08:36:35.001Z</time></trkpt><trkpt lat="46.097163266590364" lon="13.089785193513094"><ele>137.0</ele><time>2026-04-27T08:36:36.001Z</time></trkpt><trkpt lat="46.09721687694755" lon="13.090048737270598"><ele>137.0</ele><time>2026-04-27T08:36:37.001Z</time></trkpt><trkpt lat="46.09726756065128" lon="13.090294391804036"><ele>137.0</ele><time>2026-04-27T08:36:38.001Z</time></trkpt><trkpt lat="46.097320649117556" lon="13.090536891354652"><ele>137.0</ele><time>2026-04-27T08:36:39.001Z</time></trkpt><trkpt lat="46.09737050129084" lon="13.090766747341945"><ele>138.33333333333331</ele><time>2026-04-27T08:36:40.001Z</time></trkpt><trkpt lat="46.09741911634795" lon="13.090996766473305"><ele>139.66666666666666</ele><time>2026-04-27T08:36:41.001Z</time></trkpt><trkpt lat="46.09746580103271" lon="13.091235350955525"><ele>141.0</ele><time>2026-04-27T08:36:42.001Z</time></trkpt><trkpt lat="46.097511130831876" lon="13.091470925196326"><ele>140.33333333333334</ele><time>2026-04-27T08:36:43.001Z</time></trkpt><trkpt lat="46.097559954943925" lon="13.091708909262143"><ele>139.66666666666669</ele><time>2026-04-27T08:36:44.001Z</time></trkpt><trkpt lat="46.09761034772874" lon="13.091953494787166"><ele>139.0</ele><time>2026-04-27T08:36:45.001Z</time></trkpt><trkpt lat="46.09765883241342" lon="13.092210456870752"><ele>138.66666666666669</ele><time>2026-04-27T08:36:46.001Z</time></trkpt><trkpt lat="46.09771229236447" lon="13.092460553911053"><ele>138.33333333333334</ele><time>2026-04-27T08:36:47.001Z</time></trkpt><trkpt lat="46.09775933810355" lon="13.092704133379918"><ele>138.0</ele><time>2026-04-27T08:36:48.001Z</time></trkpt><trkpt lat="46.09781301538827" lon="13.09296927642654"><ele>138.0</ele><time>2026-04-27T08:36:49.001Z</time></trkpt><trkpt lat="46.097870259949886" lon="13.093254110724475"><ele>138.0</ele><time>2026-04-27T08:36:50.001Z</time></trkpt><trkpt lat="46.097925669230754" lon="13.093559211009905"><ele>138.0</ele><time>2026-04-27T08:36:51.001Z</time></trkpt><trkpt lat="46.09797658125473" lon="13.093881557076854"><ele>138.0</ele><time>2026-04-27T08:36:52.001Z</time></trkpt><trkpt lat="46.09802182780481" lon="13.094246776554707"><ele>138.0</ele><time>2026-04-27T08:36:53.001Z</time></trkpt><trkpt lat="46.09806400442695" lon="13.094602504789668"><ele>138.0</ele><time>2026-04-27T08:36:54.001Z</time></trkpt><trkpt lat="46.09808809646134" lon="13.09492005672456"><ele>138.0</ele><time>2026-04-27T08:36:55.001Z</time></trkpt><trkpt lat="46.09811275505054" lon="13.095211924550544"><ele>138.0</ele><time>2026-04-27T08:36:56.001Z</time></trkpt><trkpt lat="46.09812838496922" lon="13.095476046500252"><ele>137.66666666666666</ele><time>2026-04-27T08:36:57.001Z</time></trkpt><trkpt lat="46.09814794614102" lon="13.095711920228775"><ele>137.33333333333331</ele><time>2026-04-27T08:36:58.001Z</time></trkpt><trkpt lat="46.09817250750116" lon="13.095931000803764"><ele>137.0</ele><time>2026-04-27T08:36:59.001Z</time></trkpt><trkpt lat="46.09820729610883" lon="13.096136924803147"><ele>137.0</ele><time>2026-04-27T08:37:00.001Z</time></trkpt><trkpt lat="46.09824540095231" lon="13.096326290156963"><ele>137.0</ele><time>2026-04-27T08:37:01.001Z</time></trkpt><trkpt lat="46.0982781773546" lon="13.096499558041849"><ele>137.0</ele><time>2026-04-27T08:37:02.001Z</time></trkpt><trkpt lat="46.09829372274345" lon="13.096664485843373"><ele>137.0</ele><time>2026-04-27T08:37:03.001Z</time></trkpt><trkpt lat="46.09829698705428" lon="13.096849112867194"><ele>137.25</ele><time>2026-04-27T08:37:04.001Z</time></trkpt><trkpt lat="46.09830013197667" lon="13.09706522159933"><ele>137.5</ele><time>2026-04-27T08:37:05.001Z</time></trkpt><trkpt lat="46.09832047961586" lon="13.097283599145937"><ele>137.75</ele><time>2026-04-27T08:37:06.001Z</time></trkpt><trkpt lat="46.09834714624467" lon="13.097486263637412"><ele>138.0</ele><time>2026-04-27T08:37:07.001Z</time></trkpt><trkpt lat="46.09835816422789" lon="13.097694949042126"><ele>138.0</ele><time>2026-04-27T08:37:08.001Z</time></trkpt><trkpt lat="46.098349037407964" lon="13.09794263836217"><ele>138.0</ele><time>2026-04-27T08:37:09.001Z</time></trkpt><trkpt lat="46.098341999228786" lon="13.098192778419085"><ele>138.0</ele><time>2026-04-27T08:37:10.001Z</time></trkpt><trkpt lat="46.0983558211306" lon="13.098395403255983"><ele>138.0</ele><time>2026-04-27T08:37:11.001Z</time></trkpt><trkpt lat="46.09836945406135" lon="13.098557249261027"><ele>138.0</ele><time>2026-04-27T08:37:12.001Z</time></trkpt><trkpt lat="46.09838555153147" lon="13.098716786875423"><ele>138.0</ele><time>2026-04-27T08:37:13.001Z</time></trkpt><trkpt lat="46.098401053694495" lon="13.098868763079066"><ele>138.0</ele><time>2026-04-27T08:37:14.001Z</time></trkpt><trkpt lat="46.09841471712363" lon="13.099012759390048"><ele>138.0</ele><time>2026-04-27T08:37:15.001Z</time></trkpt><trkpt lat="46.09842768865279" lon="13.09916804696983"><ele>137.33333333333334</ele><time>2026-04-27T08:37:16.001Z</time></trkpt><trkpt lat="46.098440830818845" lon="13.099364311294364"><ele>136.66666666666669</ele><time>2026-04-27T08:37:17.001Z</time></trkpt><trkpt lat="46.0984629828424" lon="13.099629519795954"><ele>136.0</ele><time>2026-04-27T08:37:18.001Z</time></trkpt><trkpt lat="46.098491901996724" lon="13.099847797390304"><ele>136.33333333333334</ele><time>2026-04-27T08:37:19.001Z</time></trkpt><trkpt lat="46.098506643006424" lon="13.100069655444758"><ele>136.66666666666666</ele><time>2026-04-27T08:37:20.001Z</time></trkpt><trkpt lat="46.0985218890792" lon="13.100286147799928"><ele>137.0</ele><time>2026-04-27T08:37:21.001Z</time></trkpt><trkpt lat="46.098541899343935" lon="13.100516108821282"><ele>136.66666666666666</ele><time>2026-04-27T08:37:22.001Z</time></trkpt><trkpt lat="46.09856133736217" lon="13.100765954269097"><ele>136.33333333333334</ele><time>2026-04-27T08:37:23.001Z</time></trkpt><trkpt lat="46.09857776773945" lon="13.100992912783678"><ele>136.0</ele><time>2026-04-27T08:37:24.001Z</time></trkpt><trkpt lat="46.09859524588317" lon="13.101209114390898"><ele>136.0</ele><time>2026-04-27T08:37:25.001Z</time></trkpt><trkpt lat="46.0986114350258" lon="13.101413957981135"><ele>136.0</ele><time>2026-04-27T08:37:26.001Z</time></trkpt><trkpt lat="46.09862598037369" lon="13.101601543118376"><ele>136.0</ele><time>2026-04-27T08:37:27.001Z</time></trkpt><trkpt lat="46.098637717351714" lon="13.10176794444743"><ele>136.0</ele><time>2026-04-27T08:37:28.001Z</time></trkpt><trkpt lat="46.09864827572128" lon="13.101920405122875"><ele>136.0</ele><time>2026-04-27T08:37:29.001Z</time></trkpt><trkpt lat="46.09865971270713" lon="13.102070517780358"><ele>136.0</ele><time>2026-04-27T08:37:30.001Z</time></trkpt><trkpt lat="46.09867128142912" lon="13.102229996096115"><ele>136.0</ele><time>2026-04-27T08:37:31.001Z</time></trkpt><trkpt lat="46.09868766782802" lon="13.102396605458786"><ele>136.0</ele><time>2026-04-27T08:37:32.001Z</time></trkpt><trkpt lat="46.09870221028885" lon="13.102575833730063"><ele>136.0</ele><time>2026-04-27T08:37:33.001Z</time></trkpt><trkpt lat="46.09871523905051" lon="13.10275957359571"><ele>136.0</ele><time>2026-04-27T08:37:34.001Z</time></trkpt><trkpt lat="46.098732578053344" lon="13.102928750817048"><ele>136.0</ele><time>2026-04-27T08:37:35.001Z</time></trkpt><trkpt lat="46.098745913593355" lon="13.103092089001963"><ele>136.0</ele><time>2026-04-27T08:37:36.001Z</time></trkpt><trkpt lat="46.0987586052664" lon="13.10325463562972"><ele>136.2</ele><time>2026-04-27T08:37:37.001Z</time></trkpt><trkpt lat="46.098772383448015" lon="13.103414927839005"><ele>136.39999999999998</ele><time>2026-04-27T08:37:38.001Z</time></trkpt><trkpt lat="46.09878613774501" lon="13.103575364833803"><ele>136.6</ele><time>2026-04-27T08:37:39.002Z</time></trkpt><trkpt lat="46.098798886151485" lon="13.103730422973163"><ele>136.79999999999998</ele><time>2026-04-27T08:37:40.002Z</time></trkpt><trkpt lat="46.09880880329483" lon="13.103876596701888"><ele>137.0</ele><time>2026-04-27T08:37:41.002Z</time></trkpt><trkpt lat="46.09881848943631" lon="13.104031462791879"><ele>137.25</ele><time>2026-04-27T08:37:42.002Z</time></trkpt><trkpt lat="46.09883250404322" lon="13.10420821144099"><ele>137.5</ele><time>2026-04-27T08:37:43.002Z</time></trkpt><trkpt lat="46.09884978140893" lon="13.104400124746375"><ele>137.75</ele><time>2026-04-27T08:37:44.002Z</time></trkpt><trkpt lat="46.098868522100176" lon="13.10460601618588"><ele>138.0</ele><time>2026-04-27T08:37:45.002Z</time></trkpt><trkpt lat="46.09888486563912" lon="13.104810096584881"><ele>138.0</ele><time>2026-04-27T08:37:46.002Z</time></trkpt><trkpt lat="46.09889684857942" lon="13.105010103800954"><ele>138.0</ele><time>2026-04-27T08:37:47.002Z</time></trkpt><trkpt lat="46.09891314609871" lon="13.105206482300204"><ele>138.0</ele><time>2026-04-27T08:37:48.002Z</time></trkpt><trkpt lat="46.09892644741477" lon="13.105402844191632"><ele>138.0</ele><time>2026-04-27T08:37:49Z</time></trkpt><trkpt lat="46.09893705709883" lon="13.105599895002781"><ele>138.25</ele><time>2026-04-27T08:37:50Z</time></trkpt><trkpt lat="46.098941645800714" lon="13.105789155089012"><ele>138.5</ele><time>2026-04-27T08:37:51Z</time></trkpt><trkpt lat="46.09894283392703" lon="13.105963026991526"><ele>138.75</ele><time>2026-04-27T08:37:52Z</time></trkpt><trkpt lat="46.09894174886392" lon="13.106128677450492"><ele>139.0</ele><time>2026-04-27T08:37:53Z</time></trkpt><trkpt lat="46.09893581309216" lon="13.106304081374764"><ele>139.0</ele><time>2026-04-27T08:37:54Z</time></trkpt><trkpt lat="46.098925168005756" lon="13.106484695792851"><ele>139.0</ele><time>2026-04-27T08:37:55Z</time></trkpt><trkpt lat="46.09890534949914" lon="13.106677226632575"><ele>139.0</ele><time>2026-04-27T08:37:56Z</time></trkpt><trkpt lat="46.098883159976765" lon="13.106860053920435"><ele>139.0</ele><time>2026-04-27T08:37:57Z</time></trkpt><trkpt lat="46.0988542956737" lon="13.107038627431777"><ele>139.25</ele><time>2026-04-27T08:37:58Z</time></trkpt><trkpt lat="46.098824508098" lon="13.107215994523477"><ele>139.5</ele><time>2026-04-27T08:37:59Z</time></trkpt><trkpt lat="46.098792515959076" lon="13.107392429272615"><ele>139.75</ele><time>2026-04-27T08:38:00Z</time></trkpt><trkpt lat="46.098759705361026" lon="13.107571152022793"><ele>140.0</ele><time>2026-04-27T08:38:01Z</time></trkpt><trkpt lat="46.09872630612049" lon="13.107752046048338"><ele>140.5</ele><time>2026-04-27T08:38:02Z</time></trkpt><trkpt lat="46.09869118891183" lon="13.10793596043116"><ele>141.0</ele><time>2026-04-27T08:38:03Z</time></trkpt><trkpt lat="46.0986542234356" lon="13.108122650885623"><ele>141.5</ele><time>2026-04-27T08:38:04Z</time></trkpt><trkpt lat="46.09861810480024" lon="13.108310034365728"><ele>142.0</ele><time>2026-04-27T08:38:05Z</time></trkpt><trkpt lat="46.098581969008904" lon="13.10849594442527"><ele>142.25</ele><time>2026-04-27T08:38:06Z</time></trkpt><trkpt lat="46.098545774403505" lon="13.108685513047883"><ele>142.5</ele><time>2026-04-27T08:38:07Z</time></trkpt><trkpt lat="46.09850921926356" lon="13.108877499976337"><ele>142.75</ele><time>2026-04-27T08:38:08Z</time></trkpt><trkpt lat="46.09847200809822" lon="13.10907288328877"><ele>143.0</ele><time>2026-04-27T08:38:09Z</time></trkpt><trkpt lat="46.098434270780245" lon="13.109266650439082"><ele>143.0</ele><time>2026-04-27T08:38:10Z</time></trkpt><trkpt lat="46.098394628295964" lon="13.109461401570575"><ele>143.0</ele><time>2026-04-27T08:38:11Z</time></trkpt><trkpt lat="46.09835821036167" lon="13.109657783180202"><ele>143.0</ele><time>2026-04-27T08:38:12Z</time></trkpt><trkpt lat="46.09832037347753" lon="13.109855386275752"><ele>143.0</ele><time>2026-04-27T08:38:13Z</time></trkpt><trkpt lat="46.09828301368478" lon="13.110055787544622"><ele>143.0</ele><time>2026-04-27T08:38:14Z</time></trkpt><trkpt lat="46.098247209320526" lon="13.110251463176573"><ele>143.0</ele><time>2026-04-27T08:38:15Z</time></trkpt><trkpt lat="46.098209450391316" lon="13.110435902061177"><ele>143.0</ele><time>2026-04-27T08:38:16Z</time></trkpt><trkpt lat="46.09817270487113" lon="13.110620113246178"><ele>143.0</ele><time>2026-04-27T08:38:17Z</time></trkpt><trkpt lat="46.09813871257448" lon="13.110807598474388"><ele>143.25</ele><time>2026-04-27T08:38:18Z</time></trkpt><trkpt lat="46.09810595110603" lon="13.110999119551932"><ele>143.5</ele><time>2026-04-27T08:38:19Z</time></trkpt><trkpt lat="46.09806717039248" lon="13.111192109577486"><ele>143.75</ele><time>2026-04-27T08:38:20Z</time></trkpt><trkpt lat="46.09802891356851" lon="13.111382520312544"><ele>144.0</ele><time>2026-04-27T08:38:21Z</time></trkpt><trkpt lat="46.09798863396991" lon="13.111575445084302"><ele>144.25</ele><time>2026-04-27T08:38:22Z</time></trkpt><trkpt lat="46.097946310885895" lon="13.111770670381576"><ele>144.5</ele><time>2026-04-27T08:38:23Z</time></trkpt><trkpt lat="46.097900953947224" lon="13.111969423052086"><ele>144.75</ele><time>2026-04-27T08:38:24Z</time></trkpt><trkpt lat="46.09785557697761" lon="13.11216718650903"><ele>145.0</ele><time>2026-04-27T08:38:25Z</time></trkpt><trkpt lat="46.097808545084796" lon="13.112360990822715"><ele>144.75</ele><time>2026-04-27T08:38:26Z</time></trkpt><trkpt lat="46.09776466479391" lon="13.112541818189293"><ele>144.5</ele><time>2026-04-27T08:38:27Z</time></trkpt><trkpt lat="46.09772347750099" lon="13.112714860296885"><ele>144.25</ele><time>2026-04-27T08:38:28Z</time></trkpt><trkpt lat="46.097678001822885" lon="13.112885321804658"><ele>144.0</ele><time>2026-04-27T08:38:29Z</time></trkpt><trkpt lat="46.097632944344326" lon="13.113060354473513"><ele>144.0</ele><time>2026-04-27T08:38:30Z</time></trkpt><trkpt lat="46.09758391863939" lon="13.113236910862009"><ele>144.0</ele><time>2026-04-27T08:38:31Z</time></trkpt><trkpt lat="46.097535305951766" lon="13.113415925826867"><ele>144.0</ele><time>2026-04-27T08:38:32Z</time></trkpt><trkpt lat="46.097487906795266" lon="13.113598213214155"><ele>144.0</ele><time>2026-04-27T08:38:33Z</time></trkpt><trkpt lat="46.097438361828786" lon="13.113782219942054"><ele>143.75</ele><time>2026-04-27T08:38:34Z</time></trkpt><trkpt lat="46.09738677818909" lon="13.11396452048222"><ele>143.5</ele><time>2026-04-27T08:38:35Z</time></trkpt><trkpt lat="46.09733591100824" lon="13.114132093658"><ele>143.25</ele><time>2026-04-27T08:38:36Z</time></trkpt><trkpt lat="46.09728081311174" lon="13.114304791260064"><ele>143.0</ele><time>2026-04-27T08:38:37.001Z</time></trkpt><trkpt lat="46.09722143067489" lon="13.114485286016645"><ele>143.5</ele><time>2026-04-27T08:38:38.001Z</time></trkpt><trkpt lat="46.09715839368694" lon="13.114667722956636"><ele>144.0</ele><time>2026-04-27T08:38:39.001Z</time></trkpt><trkpt lat="46.09709332321356" lon="13.114859055782457"><ele>144.5</ele><time>2026-04-27T08:38:40.001Z</time></trkpt><trkpt lat="46.09702715292374" lon="13.115051937115862"><ele>145.0</ele><time>2026-04-27T08:38:41.001Z</time></trkpt><trkpt lat="46.09695139439997" lon="13.115259621153914"><ele>145.0</ele><time>2026-04-27T08:38:42.001Z</time></trkpt><trkpt lat="46.09687327241702" lon="13.115470697708938"><ele>145.0</ele><time>2026-04-27T08:38:43.001Z</time></trkpt><trkpt lat="46.096799304393656" lon="13.11568071478675"><ele>145.0</ele><time>2026-04-27T08:38:44.001Z</time></trkpt><trkpt lat="46.096725922316026" lon="13.115887187322633"><ele>145.0</ele><time>2026-04-27T08:38:45.001Z</time></trkpt><trkpt lat="46.096651748995264" lon="13.116088700082239"><ele>145.0</ele><time>2026-04-27T08:38:46.001Z</time></trkpt><trkpt lat="46.0965782019165" lon="13.116289072631696"><ele>145.0</ele><time>2026-04-27T08:38:47.001Z</time></trkpt><trkpt lat="46.096497941877" lon="13.116509679159625"><ele>144.33333333333334</ele><time>2026-04-27T08:38:48.001Z</time></trkpt><trkpt lat="46.09640782124962" lon="13.116762299856243"><ele>143.66666666666666</ele><time>2026-04-27T08:38:49.001Z</time></trkpt><trkpt lat="46.09631574520417" lon="13.117024742965755"><ele>143.0</ele><time>2026-04-27T08:38:50.001Z</time></trkpt><trkpt lat="46.09622376667178" lon="13.117281506109524"><ele>142.66666666666666</ele><time>2026-04-27T08:38:51.001Z</time></trkpt><trkpt lat="46.09613457415453" lon="13.117529799529787"><ele>142.33333333333334</ele><time>2026-04-27T08:38:52.001Z</time></trkpt><trkpt lat="46.09604449661911" lon="13.117786356323117"><ele>142.0</ele><time>2026-04-27T08:38:53.001Z</time></trkpt><trkpt lat="46.095959423786944" lon="13.118035350266005"><ele>141.66666666666669</ele><time>2026-04-27T08:38:54.001Z</time></trkpt><trkpt lat="46.09587687658844" lon="13.118268855184526"><ele>141.33333333333334</ele><time>2026-04-27T08:38:55.001Z</time></trkpt><trkpt lat="46.0957965968696" lon="13.118490550838832"><ele>141.0</ele><time>2026-04-27T08:38:56.001Z</time></trkpt><trkpt lat="46.095721800869526" lon="13.11869947443895"><ele>141.0</ele><time>2026-04-27T08:38:57.001Z</time></trkpt><trkpt lat="46.09564831000673" lon="13.118909244491583"><ele>141.0</ele><time>2026-04-27T08:38:58.001Z</time></trkpt><trkpt lat="46.09557318025447" lon="13.119121824480017"><ele>141.0</ele><time>2026-04-27T08:38:59.001Z</time></trkpt><trkpt lat="46.09549797052033" lon="13.119337037059033"><ele>140.66666666666666</ele><time>2026-04-27T08:39:00.001Z</time></trkpt><trkpt lat="46.0954218121986" lon="13.119557844894851"><ele>140.33333333333331</ele><time>2026-04-27T08:39:01.001Z</time></trkpt><trkpt lat="46.095340334054534" lon="13.119791381550188"><ele>140.0</ele><time>2026-04-27T08:39:02.001Z</time></trkpt><trkpt lat="46.09525927393006" lon="13.120044349640878"><ele>140.0</ele><time>2026-04-27T08:39:03.001Z</time></trkpt><trkpt lat="46.09518044608518" lon="13.12030031858008"><ele>140.0</ele><time>2026-04-27T08:39:04.001Z</time></trkpt><trkpt lat="46.09510543169191" lon="13.120567406066082"><ele>140.0</ele><time>2026-04-27T08:39:05.001Z</time></trkpt><trkpt lat="46.09501996817094" lon="13.12086296636956"><ele>139.5</ele><time>2026-04-27T08:39:06.001Z</time></trkpt><trkpt lat="46.09491921238817" lon="13.12117582297483"><ele>139.0</ele><time>2026-04-27T08:39:07.001Z</time></trkpt><trkpt lat="46.09481059225425" lon="13.121507823091813"><ele>138.0</ele><time>2026-04-27T08:39:08.001Z</time></trkpt><trkpt lat="46.09470532837024" lon="13.12187074866736"><ele>137.0</ele><time>2026-04-27T08:39:09.001Z</time></trkpt><trkpt lat="46.09460440038215" lon="13.122235109390674"><ele>137.0</ele><time>2026-04-27T08:39:10.001Z</time></trkpt><trkpt lat="46.0945161426997" lon="13.122565773089866"><ele>137.0</ele><time>2026-04-27T08:39:11.001Z</time></trkpt><trkpt lat="46.09443330365949" lon="13.122874219956335"><ele>137.0</ele><time>2026-04-27T08:39:12.001Z</time></trkpt><trkpt lat="46.09435487414149" lon="13.123170944151068"><ele>137.0</ele><time>2026-04-27T08:39:13.001Z</time></trkpt><trkpt lat="46.09428223770967" lon="13.123449222609924"><ele>137.0</ele><time>2026-04-27T08:39:14.001Z</time></trkpt><trkpt lat="46.09421470626204" lon="13.123711158208195"><ele>137.33333333333331</ele><time>2026-04-27T08:39:15.001Z</time></trkpt><trkpt lat="46.09414866456812" lon="13.123957928744517"><ele>137.66666666666666</ele><time>2026-04-27T08:39:16.001Z</time></trkpt><trkpt lat="46.09408599359556" lon="13.124191793158305"><ele>138.0</ele><time>2026-04-27T08:39:17.001Z</time></trkpt><trkpt lat="46.09402547480839" lon="13.12440346030043"><ele>138.0</ele><time>2026-04-27T08:39:18.001Z</time></trkpt><trkpt lat="46.09396761109802" lon="13.12460283008091"><ele>138.0</ele><time>2026-04-27T08:39:19.001Z</time></trkpt><trkpt lat="46.09391312386965" lon="13.124790857945928"><ele>138.0</ele><time>2026-04-27T08:39:20.001Z</time></trkpt><trkpt lat="46.09385403676649" lon="13.124989028355433"><ele>138.0</ele><time>2026-04-27T08:39:21.001Z</time></trkpt><trkpt lat="46.093794834231964" lon="13.125183088934648"><ele>138.0</ele><time>2026-04-27T08:39:22.001Z</time></trkpt><trkpt lat="46.093740070062" lon="13.12536904953819"><ele>138.0</ele><time>2026-04-27T08:39:23.001Z</time></trkpt><trkpt lat="46.09368274353127" lon="13.125557180463112"><ele>138.0</ele><time>2026-04-27T08:39:24.001Z</time></trkpt><trkpt lat="46.09361998264909" lon="13.125772329710335"><ele>138.0</ele><time>2026-04-27T08:39:25.001Z</time></trkpt><trkpt lat="46.09356102168529" lon="13.12597082905316"><ele>138.0</ele><time>2026-04-27T08:39:26.001Z</time></trkpt><trkpt lat="46.093504549038535" lon="13.12615654385249"><ele>138.0</ele><time>2026-04-27T08:39:27.001Z</time></trkpt><trkpt lat="46.09344591203908" lon="13.126347865716868"><ele>138.0</ele><time>2026-04-27T08:39:28.001Z</time></trkpt><trkpt lat="46.0933864164861" lon="13.126525033043954"><ele>138.0</ele><time>2026-04-27T08:39:29.001Z</time></trkpt><trkpt lat="46.09332782559935" lon="13.126692448430504"><ele>137.75</ele><time>2026-04-27T08:39:30.001Z</time></trkpt><trkpt lat="46.09327938210603" lon="13.126855134414217"><ele>137.5</ele><time>2026-04-27T08:39:31.001Z</time></trkpt><trkpt lat="46.093225049760264" lon="13.12701866746346"><ele>137.25</ele><time>2026-04-27T08:39:32.001Z</time></trkpt><trkpt lat="46.093163209677066" lon="13.127199122596888"><ele>137.0</ele><time>2026-04-27T08:39:33.001Z</time></trkpt><trkpt lat="46.09309996833686" lon="13.127371659450265"><ele>136.66666666666666</ele><time>2026-04-27T08:39:34.001Z</time></trkpt><trkpt lat="46.0930461895931" lon="13.12755467180736"><ele>136.33333333333334</ele><time>2026-04-27T08:39:35.001Z</time></trkpt><trkpt lat="46.09298074941983" lon="13.127768702949968"><ele>136.0</ele><time>2026-04-27T08:39:36.001Z</time></trkpt><trkpt lat="46.092914807281026" lon="13.127963845948418"><ele>136.0</ele><time>2026-04-27T08:39:37.001Z</time></trkpt><trkpt lat="46.092857297834485" lon="13.128131349736664"><ele>136.0</ele><time>2026-04-27T08:39:38.001Z</time></trkpt><trkpt lat="46.0928111187797" lon="13.128267079766855"><ele>136.0</ele><time>2026-04-27T08:39:39.001Z</time></trkpt><trkpt lat="46.09277661988978" lon="13.12836422879687"><ele>136.0</ele><time>2026-04-27T08:39:40.001Z</time></trkpt><trkpt lat="46.09274264451116" lon="13.128457339720994"><ele>136.0</ele><time>2026-04-27T08:39:41.001Z</time></trkpt><trkpt lat="46.09270852486989" lon="13.12855828660438"><ele>136.0</ele><time>2026-04-27T08:39:42.001Z</time></trkpt><trkpt lat="46.092674593616564" lon="13.128666228693124"><ele>136.0</ele><time>2026-04-27T08:39:43.001Z</time></trkpt><trkpt lat="46.092631237200145" lon="13.128784760544082"><ele>136.0</ele><time>2026-04-27T08:39:44.001Z</time></trkpt><trkpt lat="46.09258177990282" lon="13.128920508591213"><ele>136.0</ele><time>2026-04-27T08:39:45.001Z</time></trkpt><trkpt lat="46.09253608422079" lon="13.129067010076374"><ele>136.0</ele><time>2026-04-27T08:39:46.002Z</time></trkpt><trkpt lat="46.0924855640165" lon="13.129222709773181"><ele>135.5</ele><time>2026-04-27T08:39:47.002Z</time></trkpt><trkpt lat="46.09242262663666" lon="13.129393234457334"><ele>135.0</ele><time>2026-04-27T08:39:48.002Z</time></trkpt><trkpt lat="46.092363022500436" lon="13.129567257090129"><ele>134.5</ele><time>2026-04-27T08:39:49.002Z</time></trkpt><trkpt lat="46.09230802570258" lon="13.129726116649081"><ele>134.0</ele><time>2026-04-27T08:39:50.002Z</time></trkpt><trkpt lat="46.092255956891684" lon="13.12987732718415"><ele>134.0</ele><time>2026-04-27T08:39:51.002Z</time></trkpt><trkpt lat="46.09220600287245" lon="13.130014644451629"><ele>134.0</ele><time>2026-04-27T08:39:52.002Z</time></trkpt><trkpt lat="46.09215022521875" lon="13.130164654928265"><ele>134.0</ele><time>2026-04-27T08:39:53.002Z</time></trkpt><trkpt lat="46.09209946449994" lon="13.130322892296414"><ele>134.0</ele><time>2026-04-27T08:39:54.002Z</time></trkpt><trkpt lat="46.092045654171926" lon="13.130497339810383"><ele>134.0</ele><time>2026-04-27T08:39:55Z</time></trkpt><trkpt lat="46.0919967955429" lon="13.13068888514632"><ele>134.0</ele><time>2026-04-27T08:39:56Z</time></trkpt><trkpt lat="46.091956539991806" lon="13.130876294507424"><ele>134.0</ele><time>2026-04-27T08:39:57Z</time></trkpt><trkpt lat="46.09191268588457" lon="13.131102127586432"><ele>134.0</ele><time>2026-04-27T08:39:58Z</time></trkpt><trkpt lat="46.09186160195578" lon="13.131328258182497"><ele>134.0</ele><time>2026-04-27T08:39:59Z</time></trkpt><trkpt lat="46.09181597513669" lon="13.131502846054794"><ele>134.0</ele><time>2026-04-27T08:40:00Z</time></trkpt><trkpt lat="46.0917860040388" lon="13.131656277924494"><ele>134.0</ele><time>2026-04-27T08:40:01Z</time></trkpt><trkpt lat="46.09176224232913" lon="13.131784924893795"><ele>134.0</ele><time>2026-04-27T08:40:02Z</time></trkpt><trkpt lat="46.091740284616726" lon="13.131899073403986"><ele>134.0</ele><time>2026-04-27T08:40:03Z</time></trkpt><trkpt lat="46.09172289405516" lon="13.132018107377865"><ele>134.0</ele><time>2026-04-27T08:40:04Z</time></trkpt><trkpt lat="46.091700980218505" lon="13.132151989844768"><ele>134.0</ele><time>2026-04-27T08:40:05Z</time></trkpt><trkpt lat="46.0916773746375" lon="13.132299455626706"><ele>134.0</ele><time>2026-04-27T08:40:06Z</time></trkpt><trkpt lat="46.09165123689026" lon="13.132443997998747"><ele>134.0</ele><time>2026-04-27T08:40:07Z</time></trkpt><trkpt lat="46.09163114556707" lon="13.132567353757471"><ele>134.0</ele><time>2026-04-27T08:40:08Z</time></trkpt><trkpt lat="46.091610394824514" lon="13.13269489000564"><ele>133.4</ele><time>2026-04-27T08:40:09Z</time></trkpt><trkpt lat="46.091584895082136" lon="13.132833729231052"><ele>132.8</ele><time>2026-04-27T08:40:10Z</time></trkpt><trkpt lat="46.091562261382755" lon="13.13297789126864"><ele>132.2</ele><time>2026-04-27T08:40:11Z</time></trkpt><trkpt lat="46.091537411348384" lon="13.13312613077244"><ele>131.6</ele><time>2026-04-27T08:40:12Z</time></trkpt><trkpt lat="46.09151184281183" lon="13.133263343509238"><ele>131.0</ele><time>2026-04-27T08:40:13Z</time></trkpt><trkpt lat="46.091487958570056" lon="13.13341326021445"><ele>130.6</ele><time>2026-04-27T08:40:14Z</time></trkpt><trkpt lat="46.09146377263461" lon="13.133571444028364"><ele>130.2</ele><time>2026-04-27T08:40:15Z</time></trkpt><trkpt lat="46.09143654741599" lon="13.133724410863032"><ele>129.8</ele><time>2026-04-27T08:40:16Z</time></trkpt><trkpt lat="46.091414528838904" lon="13.133861528457858"><ele>129.4</ele><time>2026-04-27T08:40:17Z</time></trkpt><trkpt lat="46.091393216887674" lon="13.133984593811828"><ele>129.0</ele><time>2026-04-27T08:40:18Z</time></trkpt><trkpt lat="46.0913725183963" lon="13.134111701513886"><ele>129.0</ele><time>2026-04-27T08:40:19Z</time></trkpt><trkpt lat="46.091349999926415" lon="13.134248111289548"><ele>129.0</ele><time>2026-04-27T08:40:20Z</time></trkpt><trkpt lat="46.091327050133714" lon="13.134385894653594"><ele>129.0</ele><time>2026-04-27T08:40:21Z</time></trkpt><trkpt lat="46.09130394104761" lon="13.13454187588836"><ele>129.0</ele><time>2026-04-27T08:40:22Z</time></trkpt><trkpt lat="46.09127556771668" lon="13.13470245726111"><ele>129.0</ele><time>2026-04-27T08:40:23Z</time></trkpt><trkpt lat="46.0912463606234" lon="13.134869674602482"><ele>129.25</ele><time>2026-04-27T08:40:24Z</time></trkpt><trkpt lat="46.0912193061274" lon="13.13503179694782"><ele>129.5</ele><time>2026-04-27T08:40:25Z</time></trkpt><trkpt lat="46.09118925049143" lon="13.13520331541518"><ele>129.75</ele><time>2026-04-27T08:40:26Z</time></trkpt><trkpt lat="46.09116260015626" lon="13.135381602339134"><ele>130.0</ele><time>2026-04-27T08:40:27Z</time></trkpt><trkpt lat="46.09113560244533" lon="13.13557074269992"><ele>129.66666666666669</ele><time>2026-04-27T08:40:28Z</time></trkpt><trkpt lat="46.091106241257805" lon="13.135783239484569"><ele>129.33333333333334</ele><time>2026-04-27T08:40:29Z</time></trkpt><trkpt lat="46.09107034083047" lon="13.13600786223603"><ele>129.0</ele><time>2026-04-27T08:40:30Z</time></trkpt><trkpt lat="46.091031515007984" lon="13.136217258441055"><ele>129.0</ele><time>2026-04-27T08:40:31Z</time></trkpt><trkpt lat="46.09099424648697" lon="13.136402236891723"><ele>129.0</ele><time>2026-04-27T08:40:32Z</time></trkpt><trkpt lat="46.09096370993992" lon="13.136579202768552"><ele>129.0</ele><time>2026-04-27T08:40:33Z</time></trkpt><trkpt lat="46.09093828306904" lon="13.136740934183372"><ele>129.0</ele><time>2026-04-27T08:40:34Z</time></trkpt><trkpt lat="46.09091435819428" lon="13.136898815250813"><ele>128.75</ele><time>2026-04-27T08:40:35Z</time></trkpt><trkpt lat="46.090887353770846" lon="13.137075846674087"><ele>128.5</ele><time>2026-04-27T08:40:36Z</time></trkpt><trkpt lat="46.09085715320426" lon="13.1372517094421"><ele>128.25</ele><time>2026-04-27T08:40:37Z</time></trkpt><trkpt lat="46.09082559727483" lon="13.137423173332092"><ele>128.0</ele><time>2026-04-27T08:40:38Z</time></trkpt><trkpt lat="46.09079597676808" lon="13.137592228308627"><ele>127.75</ele><time>2026-04-27T08:40:39Z</time></trkpt><trkpt lat="46.09076525358084" lon="13.137765446310251"><ele>127.5</ele><time>2026-04-27T08:40:40Z</time></trkpt><trkpt lat="46.0907332083427" lon="13.137942653781597"><ele>127.25</ele><time>2026-04-27T08:40:41.001Z</time></trkpt><trkpt lat="46.09070296854326" lon="13.138113602497969"><ele>127.0</ele><time>2026-04-27T08:40:42.001Z</time></trkpt><trkpt lat="46.090677468693514" lon="13.138288187778121"><ele>127.0</ele><time>2026-04-27T08:40:43.001Z</time></trkpt><trkpt lat="46.090650392644875" lon="13.138456389385297"><ele>127.0</ele><time>2026-04-27T08:40:44.001Z</time></trkpt><trkpt lat="46.090624305535904" lon="13.13861073906096"><ele>127.0</ele><time>2026-04-27T08:40:45.001Z</time></trkpt><trkpt lat="46.0905970732567" lon="13.138770820870153"><ele>127.0</ele><time>2026-04-27T08:40:46.001Z</time></trkpt><trkpt lat="46.09056896723441" lon="13.138944232346027"><ele>127.0</ele><time>2026-04-27T08:40:47.001Z</time></trkpt><trkpt lat="46.09054424121758" lon="13.13911067071738"><ele>126.99999999999999</ele><time>2026-04-27T08:40:48.001Z</time></trkpt><trkpt lat="46.090521015649315" lon="13.139260850409606"><ele>126.99999999999999</ele><time>2026-04-27T08:40:49.001Z</time></trkpt><trkpt lat="46.09049784570289" lon="13.139403354925115"><ele>127.0</ele><time>2026-04-27T08:40:50.001Z</time></trkpt><trkpt lat="46.090469857380256" lon="13.139554541100575"><ele>127.0</ele><time>2026-04-27T08:40:51.001Z</time></trkpt><trkpt lat="46.09044300101379" lon="13.139707131601622"><ele>127.0</ele><time>2026-04-27T08:40:52.001Z</time></trkpt><trkpt lat="46.09041725797386" lon="13.139858418105012"><ele>127.0</ele><time>2026-04-27T08:40:53.001Z</time></trkpt><trkpt lat="46.09039188396932" lon="13.140021530622988"><ele>127.0</ele><time>2026-04-27T08:40:54.001Z</time></trkpt><trkpt lat="46.090365876531" lon="13.140221192744695"><ele>127.0</ele><time>2026-04-27T08:40:55.001Z</time></trkpt><trkpt lat="46.09033299773049" lon="13.140456283217343"><ele>127.33333333333334</ele><time>2026-04-27T08:40:56.001Z</time></trkpt><trkpt lat="46.090293311994024" lon="13.140674951750384"><ele>127.66666666666666</ele><time>2026-04-27T08:40:57.001Z</time></trkpt><trkpt lat="46.09024886691139" lon="13.14089722556664"><ele>128.0</ele><time>2026-04-27T08:40:58.001Z</time></trkpt><trkpt lat="46.09021039159137" lon="13.141106845817681"><ele>128.0</ele><time>2026-04-27T08:40:59.001Z</time></trkpt><trkpt lat="46.0901763992259" lon="13.141296762396879"><ele>128.0</ele><time>2026-04-27T08:41:00.001Z</time></trkpt><trkpt lat="46.090146018677835" lon="13.141472709511724"><ele>128.0</ele><time>2026-04-27T08:41:01.001Z</time></trkpt><trkpt lat="46.090121152594605" lon="13.14164103821056"><ele>128.0</ele><time>2026-04-27T08:41:02.001Z</time></trkpt><trkpt lat="46.0900967417894" lon="13.141797507114253"><ele>127.80000000000001</ele><time>2026-04-27T08:41:03.001Z</time></trkpt><trkpt lat="46.09007227985162" lon="13.141941868291534"><ele>127.60000000000001</ele><time>2026-04-27T08:41:04.001Z</time></trkpt><trkpt lat="46.090048194732205" lon="13.142077878870813"><ele>127.39999999999999</ele><time>2026-04-27T08:41:05.001Z</time></trkpt><trkpt lat="46.090023857359874" lon="13.142201649310076"><ele>127.19999999999999</ele><time>2026-04-27T08:41:06.001Z</time></trkpt><trkpt lat="46.09000119130021" lon="13.14232005722288"><ele>127.0</ele><time>2026-04-27T08:41:07.001Z</time></trkpt><trkpt lat="46.08998002523414" lon="13.142428950212702"><ele>127.0</ele><time>2026-04-27T08:41:08.001Z</time></trkpt><trkpt lat="46.08995095808701" lon="13.142538919824776"><ele>126.99999999999999</ele><time>2026-04-27T08:41:09.001Z</time></trkpt><trkpt lat="46.08991173947086" lon="13.142645394384251"><ele>126.99999999999999</ele><time>2026-04-27T08:41:10.001Z</time></trkpt><trkpt lat="46.08985951744554" lon="13.142750989454072"><ele>127.0</ele><time>2026-04-27T08:41:11.001Z</time></trkpt><trkpt lat="46.089786588062765" lon="13.14285063851781"><ele>127.0</ele><time>2026-04-27T08:41:12.001Z</time></trkpt><trkpt lat="46.08972130037057" lon="13.142961494659781"><ele>127.0</ele><time>2026-04-27T08:41:13.001Z</time></trkpt><trkpt lat="46.089672573085316" lon="13.14310561308691"><ele>126.99999999999999</ele><time>2026-04-27T08:41:14.001Z</time></trkpt><trkpt lat="46.0896460898358" lon="13.14326452688147"><ele>126.99999999999999</ele><time>2026-04-27T08:41:15.001Z</time></trkpt><trkpt lat="46.08963636537968" lon="13.14341955307037"><ele>127.0</ele><time>2026-04-27T08:41:16.001Z</time></trkpt><trkpt lat="46.08964712328217" lon="13.143560468341141"><ele>127.0</ele><time>2026-04-27T08:41:17.001Z</time></trkpt><trkpt lat="46.08967501742396" lon="13.143713717400571"><ele>127.0</ele><time>2026-04-27T08:41:18.001Z</time></trkpt><trkpt lat="46.089742952256195" lon="13.143841224918074"><ele>127.0</ele><time>2026-04-27T08:41:19.001Z</time></trkpt><trkpt lat="46.08971523582537" lon="13.144019096066279"><ele>127.0</ele><time>2026-04-27T08:41:20.001Z</time></trkpt><trkpt lat="46.08970210006448" lon="13.144180540557922"><ele>127.0</ele><time>2026-04-27T08:41:21.001Z</time></trkpt><trkpt lat="46.08968017053294" lon="13.144330675045177"><ele>126.83333333333334</ele><time>2026-04-27T08:41:22.001Z</time></trkpt><trkpt lat="46.089648581358624" lon="13.144466722440312"><ele>126.66666666666667</ele><time>2026-04-27T08:41:23.001Z</time></trkpt><trkpt lat="46.08961520321137" lon="13.144595424361905"><ele>126.5</ele><time>2026-04-27T08:41:24.001Z</time></trkpt><trkpt lat="46.0895858110608" lon="13.144700973076244"><ele>126.33333333333334</ele><time>2026-04-27T08:41:25.001Z</time></trkpt><trkpt lat="46.089566874959054" lon="13.144797198592773"><ele>126.16666666666667</ele><time>2026-04-27T08:41:26.001Z</time></trkpt><trkpt lat="46.08955048688762" lon="13.144893870122933"><ele>126.0</ele><time>2026-04-27T08:41:27.001Z</time></trkpt><trkpt lat="46.08952733552208" lon="13.145024001821772"><ele>126.0</ele><time>2026-04-27T08:41:28.001Z</time></trkpt><trkpt lat="46.08951121046712" lon="13.145165064506234"><ele>126.0</ele><time>2026-04-27T08:41:29.001Z</time></trkpt><trkpt lat="46.089493985630796" lon="13.14534632469221"><ele>126.0</ele><time>2026-04-27T08:41:30.001Z</time></trkpt><trkpt lat="46.08946474482222" lon="13.145573245501003"><ele>126.0</ele><time>2026-04-27T08:41:31.001Z</time></trkpt><trkpt lat="46.089413947506756" lon="13.145856458830613"><ele>125.66666666666666</ele><time>2026-04-27T08:41:32.001Z</time></trkpt><trkpt lat="46.08936314225577" lon="13.146103044469555"><ele>125.33333333333333</ele><time>2026-04-27T08:41:33.001Z</time></trkpt><trkpt lat="46.08931342396978" lon="13.146329442909613"><ele>125.0</ele><time>2026-04-27T08:41:34.001Z</time></trkpt><trkpt lat="46.08926322569551" lon="13.146602289750856"><ele>125.0</ele><time>2026-04-27T08:41:35.001Z</time></trkpt><trkpt lat="46.08921748994907" lon="13.146927130311921"><ele>125.0</ele><time>2026-04-27T08:41:36.001Z</time></trkpt><trkpt lat="46.08917277379323" lon="13.147267065997822"><ele>125.33333333333333</ele><time>2026-04-27T08:41:37.001Z</time></trkpt><trkpt lat="46.0891267245495" lon="13.147581481418687"><ele>125.66666666666666</ele><time>2026-04-27T08:41:38.001Z</time></trkpt><trkpt lat="46.08907909858715" lon="13.147859488678929"><ele>126.0</ele><time>2026-04-27T08:41:39.001Z</time></trkpt><trkpt lat="46.08903616314423" lon="13.14811230508561"><ele>126.33333333333334</ele><time>2026-04-27T08:41:40.001Z</time></trkpt><trkpt lat="46.088997922782845" lon="13.148351483329328"><ele>126.66666666666667</ele><time>2026-04-27T08:41:41.001Z</time></trkpt><trkpt lat="46.088959483375305" lon="13.148580592699435"><ele>127.0</ele><time>2026-04-27T08:41:42.001Z</time></trkpt><trkpt lat="46.08892301109446" lon="13.148794589870732"><ele>127.0</ele><time>2026-04-27T08:41:43.001Z</time></trkpt><trkpt lat="46.088883120921494" lon="13.148995864763295"><ele>127.0</ele><time>2026-04-27T08:41:44.001Z</time></trkpt><trkpt lat="46.088837267808" lon="13.149200342461556"><ele>127.0</ele><time>2026-04-27T08:41:45.001Z</time></trkpt><trkpt lat="46.088788701095595" lon="13.14940977285674"><ele>127.0</ele><time>2026-04-27T08:41:46.001Z</time></trkpt><trkpt lat="46.08874488173071" lon="13.149608382279586"><ele>127.33333333333334</ele><time>2026-04-27T08:41:47.001Z</time></trkpt><trkpt lat="46.08869672181545" lon="13.149817527306075"><ele>127.66666666666666</ele><time>2026-04-27T08:41:48.001Z</time></trkpt><trkpt lat="46.088642522270646" lon="13.150047884622682"><ele>128.0</ele><time>2026-04-27T08:41:49.001Z</time></trkpt><trkpt lat="46.08857974847251" lon="13.15029171257916"><ele>128.0</ele><time>2026-04-27T08:41:50.001Z</time></trkpt><trkpt lat="46.08851495677039" lon="13.150520226255592"><ele>128.0</ele><time>2026-04-27T08:41:51.001Z</time></trkpt><trkpt lat="46.08845519738537" lon="13.150745393477173"><ele>128.0</ele><time>2026-04-27T08:41:52.001Z</time></trkpt><trkpt lat="46.088399397499835" lon="13.150983588158558"><ele>127.33333333333333</ele><time>2026-04-27T08:41:53.001Z</time></trkpt><trkpt lat="46.08833178334524" lon="13.151223885329475"><ele>126.66666666666666</ele><time>2026-04-27T08:41:54.001Z</time></trkpt><trkpt lat="46.088253814819126" lon="13.151475220257911"><ele>126.0</ele><time>2026-04-27T08:41:55.002Z</time></trkpt><trkpt lat="46.088172252318756" lon="13.151738992979695"><ele>126.0</ele><time>2026-04-27T08:41:56.002Z</time></trkpt><trkpt lat="46.0880957827561" lon="13.152006887801534"><ele>126.0</ele><time>2026-04-27T08:41:57.002Z</time></trkpt><trkpt lat="46.08802555331052" lon="13.15227463750668"><ele>126.0</ele><time>2026-04-27T08:41:58.002Z</time></trkpt><trkpt lat="46.08795879997821" lon="13.15251712120685"><ele>126.0</ele><time>2026-04-27T08:41:59.002Z</time></trkpt><trkpt lat="46.08789375697103" lon="13.152753235126966"><ele>126.0</ele><time>2026-04-27T08:42:00.002Z</time></trkpt><trkpt lat="46.087833728772885" lon="13.1529882812452"><ele>126.0</ele><time>2026-04-27T08:42:01Z</time></trkpt><trkpt lat="46.08776796203254" lon="13.153229696995473"><ele>126.0</ele><time>2026-04-27T08:42:02Z</time></trkpt><trkpt lat="46.087701053747296" lon="13.153473738946843"><ele>126.0</ele><time>2026-04-27T08:42:03Z</time></trkpt><trkpt lat="46.08763283739298" lon="13.15372871604388"><ele>126.0</ele><time>2026-04-27T08:42:04Z</time></trkpt><trkpt lat="46.087562725322094" lon="13.153998438546942"><ele>126.33333333333334</ele><time>2026-04-27T08:42:05Z</time></trkpt><trkpt lat="46.08748942392374" lon="13.154288278283648"><ele>126.66666666666667</ele><time>2026-04-27T08:42:06Z</time></trkpt><trkpt lat="46.08741505655792" lon="13.154592676957414"><ele>127.0</ele><time>2026-04-27T08:42:07Z</time></trkpt><trkpt lat="46.08733457408808" lon="13.154929417348237"><ele>126.0</ele><time>2026-04-27T08:42:08Z</time></trkpt><trkpt lat="46.08725332182382" lon="13.155281461993287"><ele>125.0</ele><time>2026-04-27T08:42:09Z</time></trkpt><trkpt lat="46.08717511655718" lon="13.155655493414697"><ele>125.0</ele><time>2026-04-27T08:42:10Z</time></trkpt><trkpt lat="46.087095848320516" lon="13.156022985880789"><ele>125.0</ele><time>2026-04-27T08:42:11Z</time></trkpt><trkpt lat="46.08702563981861" lon="13.156352100638891"><ele>124.5</ele><time>2026-04-27T08:42:12Z</time></trkpt><trkpt lat="46.086959108835394" lon="13.156662864382376"><ele>124.0</ele><time>2026-04-27T08:42:13Z</time></trkpt><trkpt lat="46.08689007966324" lon="13.156972995171472"><ele>124.0</ele><time>2026-04-27T08:42:14Z</time></trkpt><trkpt lat="46.08682600119932" lon="13.157274472453715"><ele>124.0</ele><time>2026-04-27T08:42:15Z</time></trkpt><trkpt lat="46.08676422075072" lon="13.157565527968577"><ele>124.0</ele><time>2026-04-27T08:42:16Z</time></trkpt><trkpt lat="46.08670610099227" lon="13.157845880323462"><ele>124.0</ele><time>2026-04-27T08:42:17Z</time></trkpt><trkpt lat="46.08665046477111" lon="13.158122025680077"><ele>124.0</ele><time>2026-04-27T08:42:18Z</time></trkpt><trkpt lat="46.08659900023415" lon="13.158387633133993"><ele>124.0</ele><time>2026-04-27T08:42:19Z</time></trkpt><trkpt lat="46.08654969090946" lon="13.15863342210052"><ele>123.66666666666667</ele><time>2026-04-27T08:42:20Z</time></trkpt><trkpt lat="46.08650165196011" lon="13.158890540805583"><ele>123.33333333333334</ele><time>2026-04-27T08:42:21Z</time></trkpt><trkpt lat="46.08645503780491" lon="13.159166524125254"><ele>123.0</ele><time>2026-04-27T08:42:22Z</time></trkpt><trkpt lat="46.08640873886056" lon="13.15947714603446"><ele>122.5</ele><time>2026-04-27T08:42:23Z</time></trkpt><trkpt lat="46.08636396882901" lon="13.159811847959546"><ele>122.0</ele><time>2026-04-27T08:42:24Z</time></trkpt><trkpt lat="46.08632023235748" lon="13.160147628354437"><ele>122.0</ele><time>2026-04-27T08:42:25Z</time></trkpt><trkpt lat="46.08627568686613" lon="13.16050039711463"><ele>122.0</ele><time>2026-04-27T08:42:26Z</time></trkpt><trkpt lat="46.08623275196017" lon="13.160840530693628"><ele>122.0</ele><time>2026-04-27T08:42:27Z</time></trkpt><trkpt lat="46.08619316297831" lon="13.161139872172257"><ele>122.0</ele><time>2026-04-27T08:42:28Z</time></trkpt><trkpt lat="46.08615758214588" lon="13.161418844551728"><ele>122.0</ele><time>2026-04-27T08:42:29Z</time></trkpt><trkpt lat="46.086124748569006" lon="13.161676973356943"><ele>121.66666666666666</ele><time>2026-04-27T08:42:30Z</time></trkpt><trkpt lat="46.08609375013223" lon="13.16191788048277"><ele>121.33333333333334</ele><time>2026-04-27T08:42:31Z</time></trkpt><trkpt lat="46.08606085808668" lon="13.162144089091969"><ele>121.0</ele><time>2026-04-27T08:42:32Z</time></trkpt><trkpt lat="46.08602756010447" lon="13.162349894886349"><ele>120.75</ele><time>2026-04-27T08:42:33Z</time></trkpt><trkpt lat="46.08598815318638" lon="13.162544904602603"><ele>120.5</ele><time>2026-04-27T08:42:34Z</time></trkpt><trkpt lat="46.08594037996259" lon="13.162742775675094"><ele>120.25</ele><time>2026-04-27T08:42:35Z</time></trkpt><trkpt lat="46.08588902666612" lon="13.162923765495044"><ele>120.0</ele><time>2026-04-27T08:42:36Z</time></trkpt><trkpt lat="46.08583124362624" lon="13.163070127055722"><ele>120.0</ele><time>2026-04-27T08:42:37Z</time></trkpt><trkpt lat="46.08576454044156" lon="13.16318427054989"><ele>120.0</ele><time>2026-04-27T08:42:38Z</time></trkpt><trkpt lat="46.08571113547562" lon="13.163306159099447"><ele>120.0</ele><time>2026-04-27T08:42:39Z</time></trkpt><trkpt lat="46.085602217668736" lon="13.16338672502901"><ele>120.0</ele><time>2026-04-27T08:42:40Z</time></trkpt><trkpt lat="46.085518081636316" lon="13.16350440245877"><ele>120.0</ele><time>2026-04-27T08:42:41Z</time></trkpt><trkpt lat="46.08546808198076" lon="13.163643928177649"><ele>120.25</ele><time>2026-04-27T08:42:42Z</time></trkpt><trkpt lat="46.08544147704479" lon="13.163804098197676"><ele>120.5</ele><time>2026-04-27T08:42:43Z</time></trkpt><trkpt lat="46.08544025455119" lon="13.163967488779848"><ele>120.75</ele><time>2026-04-27T08:42:44Z</time></trkpt><trkpt lat="46.08544057261981" lon="13.164125356018383"><ele>121.0</ele><time>2026-04-27T08:42:45Z</time></trkpt><trkpt lat="46.085528821170136" lon="13.16427380587548"><ele>121.0</ele><time>2026-04-27T08:42:46Z</time></trkpt><trkpt lat="46.08562038139602" lon="13.164389253194178"><ele>121.0</ele><time>2026-04-27T08:42:47Z</time></trkpt><trkpt lat="46.08573969272665" lon="13.164474618483645"><ele>121.0</ele><time>2026-04-27T08:42:48Z</time></trkpt><trkpt lat="46.085855809924816" lon="13.164530312122157"><ele>121.0</ele><time>2026-04-27T08:42:49Z</time></trkpt><trkpt lat="46.08597568902553" lon="13.164535839501102"><ele>121.0</ele><time>2026-04-27T08:42:50.001Z</time></trkpt><trkpt lat="46.086106112125954" lon="13.164498522639084"><ele>121.0</ele><time>2026-04-27T08:42:51.001Z</time></trkpt><trkpt lat="46.08623855502131" lon="13.164445407828502"><ele>121.0</ele><time>2026-04-27T08:42:52.001Z</time></trkpt><trkpt lat="46.08634961264709" lon="13.164430784370746"><ele>121.0</ele><time>2026-04-27T08:42:53.001Z</time></trkpt><trkpt lat="46.08646215121836" lon="13.164461240424416"><ele>121.0</ele><time>2026-04-27T08:42:54.001Z</time></trkpt><trkpt lat="46.08657369045775" lon="13.16450998179858"><ele>121.0</ele><time>2026-04-27T08:42:55.001Z</time></trkpt><trkpt lat="46.08666434897658" lon="13.164619694702175"><ele>121.0</ele><time>2026-04-27T08:42:56.001Z</time></trkpt><trkpt lat="46.08672228652008" lon="13.164786464559695"><ele>121.0</ele><time>2026-04-27T08:42:57.001Z</time></trkpt><trkpt lat="46.086775660828856" lon="13.164977829651262"><ele>121.0</ele><time>2026-04-27T08:42:58.001Z</time></trkpt><trkpt lat="46.08680840148663" lon="13.165230335950888"><ele>121.0</ele><time>2026-04-27T08:42:59.001Z</time></trkpt><trkpt lat="46.086819372858315" lon="13.165471494964164"><ele>121.0</ele><time>2026-04-27T08:43:00.001Z</time></trkpt><trkpt lat="46.086803817906954" lon="13.165706638228476"><ele>121.33333333333334</ele><time>2026-04-27T08:43:01.001Z</time></trkpt><trkpt lat="46.08676332243828" lon="13.165961413136683"><ele>121.66666666666666</ele><time>2026-04-27T08:43:02.001Z</time></trkpt><trkpt lat="46.08670089355782" lon="13.166225486023052"><ele>122.0</ele><time>2026-04-27T08:43:03.001Z</time></trkpt><trkpt lat="46.086606575208826" lon="13.166500800870097"><ele>122.66666666666666</ele><time>2026-04-27T08:43:04.001Z</time></trkpt><trkpt lat="46.08650485732756" lon="13.16676543375856"><ele>123.33333333333334</ele><time>2026-04-27T08:43:05.001Z</time></trkpt><trkpt lat="46.0864145821638" lon="13.167000065294037"><ele>124.0</ele><time>2026-04-27T08:43:06.001Z</time></trkpt><trkpt lat="46.0863439306044" lon="13.167222301033894"><ele>124.0</ele><time>2026-04-27T08:43:07.001Z</time></trkpt><trkpt lat="46.08627778551983" lon="13.167434327302969"><ele>124.0</ele><time>2026-04-27T08:43:08.001Z</time></trkpt><trkpt lat="46.086211350022" lon="13.167646476758117"><ele>124.0</ele><time>2026-04-27T08:43:09.001Z</time></trkpt><trkpt lat="46.08614353925752" lon="13.167868881863226"><ele>124.0</ele><time>2026-04-27T08:43:10.001Z</time></trkpt><trkpt lat="46.0860906203877" lon="13.168109952912966"><ele>124.0</ele><time>2026-04-27T08:43:11.001Z</time></trkpt><trkpt lat="46.08605138874473" lon="13.168379964741932"><ele>124.0</ele><time>2026-04-27T08:43:12.001Z</time></trkpt><trkpt lat="46.08602826424009" lon="13.168617963157637"><ele>123.66666666666667</ele><time>2026-04-27T08:43:13.001Z</time></trkpt><trkpt lat="46.086012477494464" lon="13.168844301408894"><ele>123.33333333333334</ele><time>2026-04-27T08:43:14.001Z</time></trkpt><trkpt lat="46.08600682061016" lon="13.1690583287634"><ele>123.0</ele><time>2026-04-27T08:43:15.001Z</time></trkpt><trkpt lat="46.08600839042568" lon="13.169269631792396"><ele>122.66666666666666</ele><time>2026-04-27T08:43:16.001Z</time></trkpt><trkpt lat="46.08601279184229" lon="13.169487036609096"><ele>122.33333333333333</ele><time>2026-04-27T08:43:17.001Z</time></trkpt><trkpt lat="46.08600945503405" lon="13.169706987138008"><ele>122.0</ele><time>2026-04-27T08:43:18.001Z</time></trkpt><trkpt lat="46.08600299901865" lon="13.169926046169762"><ele>122.66666666666666</ele><time>2026-04-27T08:43:19.001Z</time></trkpt><trkpt lat="46.08599017681224" lon="13.170156569504801"><ele>123.33333333333334</ele><time>2026-04-27T08:43:20.001Z</time></trkpt><trkpt lat="46.0859728090862" lon="13.17039558874288"><ele>124.0</ele><time>2026-04-27T08:43:21.001Z</time></trkpt><trkpt lat="46.085947430703484" lon="13.17064221645043"><ele>123.33333333333334</ele><time>2026-04-27T08:43:22.001Z</time></trkpt><trkpt lat="46.085904904513114" lon="13.170893567047695"><ele>122.66666666666666</ele><time>2026-04-27T08:43:23.001Z</time></trkpt><trkpt lat="46.08585567336513" lon="13.171143673865549"><ele>122.0</ele><time>2026-04-27T08:43:24.001Z</time></trkpt><trkpt lat="46.085791015551834" lon="13.17141630567386"><ele>122.5</ele><time>2026-04-27T08:43:25.001Z</time></trkpt><trkpt lat="46.08570456497124" lon="13.171720396723742"><ele>123.0</ele><time>2026-04-27T08:43:26.001Z</time></trkpt><trkpt lat="46.085608842894125" lon="13.172046680207831"><ele>123.0</ele><time>2026-04-27T08:43:27.001Z</time></trkpt><trkpt lat="46.08552351381998" lon="13.172332283872342"><ele>123.0</ele><time>2026-04-27T08:43:28.001Z</time></trkpt><trkpt lat="46.08543850052908" lon="13.172614363034263"><ele>123.0</ele><time>2026-04-27T08:43:29.001Z</time></trkpt><trkpt lat="46.085353205862745" lon="13.17291303340463"><ele>123.5</ele><time>2026-04-27T08:43:30.001Z</time></trkpt><trkpt lat="46.08526219020389" lon="13.173240071284559"><ele>124.0</ele><time>2026-04-27T08:43:31.001Z</time></trkpt><trkpt lat="46.085166056794684" lon="13.173571498420099"><ele>124.0</ele><time>2026-04-27T08:43:32.001Z</time></trkpt><trkpt lat="46.08507977885035" lon="13.173864623848733"><ele>124.0</ele><time>2026-04-27T08:43:33.001Z</time></trkpt><trkpt lat="46.0849997277261" lon="13.174142516261435"><ele>124.0</ele><time>2026-04-27T08:43:34.001Z</time></trkpt><trkpt lat="46.084920939193125" lon="13.174406247132504"><ele>122.66666666666667</ele><time>2026-04-27T08:43:35.001Z</time></trkpt><trkpt lat="46.084838759098396" lon="13.174678290129705"><ele>121.33333333333334</ele><time>2026-04-27T08:43:36.001Z</time></trkpt><trkpt lat="46.08475475381145" lon="13.174963862130458"><ele>120.0</ele><time>2026-04-27T08:43:37.001Z</time></trkpt><trkpt lat="46.08467863905077" lon="13.175224601803338"><ele>120.0</ele><time>2026-04-27T08:43:38.001Z</time></trkpt><trkpt lat="46.08460413912478" lon="13.175470964887424"><ele>120.0</ele><time>2026-04-27T08:43:39.001Z</time></trkpt><trkpt lat="46.0845316419231" lon="13.175708100214596"><ele>120.0</ele><time>2026-04-27T08:43:40.001Z</time></trkpt><trkpt lat="46.08445968338807" lon="13.175945814489435"><ele>120.0</ele><time>2026-04-27T08:43:41.001Z</time></trkpt><trkpt lat="46.08438687917166" lon="13.17618244951017"><ele>120.0</ele><time>2026-04-27T08:43:42.001Z</time></trkpt><trkpt lat="46.08431882482685" lon="13.17641374898423"><ele>120.0</ele><time>2026-04-27T08:43:43.001Z</time></trkpt><trkpt lat="46.08425641091891" lon="13.176624774240127"><ele>120.25</ele><time>2026-04-27T08:43:44.001Z</time></trkpt><trkpt lat="46.08419247344165" lon="13.176824323351765"><ele>120.5</ele><time>2026-04-27T08:43:45.001Z</time></trkpt><trkpt lat="46.08412768747182" lon="13.177004855357625"><ele>120.75</ele><time>2026-04-27T08:43:46.001Z</time></trkpt><trkpt lat="46.084064874632666" lon="13.17716620475073"><ele>121.0</ele><time>2026-04-27T08:43:47.001Z</time></trkpt><trkpt lat="46.08402085803121" lon="13.177281733287021"><ele>121.33333333333334</ele><time>2026-04-27T08:43:48.001Z</time></trkpt><trkpt lat="46.08397617177879" lon="13.17737950759222"><ele>121.66666666666667</ele><time>2026-04-27T08:43:49.001Z</time></trkpt><trkpt lat="46.083933664611614" lon="13.177450554873479"><ele>122.0</ele><time>2026-04-27T08:43:50.001Z</time></trkpt><trkpt lat="46.08387318733814" lon="13.177554652811548"><ele>122.33333333333334</ele><time>2026-04-27T08:43:52.001Z</time></trkpt><trkpt lat="46.083817062608944" lon="13.177644596855233"><ele>122.66666666666667</ele><time>2026-04-27T08:43:53.001Z</time></trkpt><trkpt lat="46.08370325882321" lon="13.17770537225658"><ele>123.0</ele><time>2026-04-27T08:43:54.001Z</time></trkpt><trkpt lat="46.083636168092845" lon="13.17778762568324"><ele>123.0</ele><time>2026-04-27T08:43:55.001Z</time></trkpt><trkpt lat="46.08359542567466" lon="13.177890557781565"><ele>123.00000000000001</ele><time>2026-04-27T08:43:56.001Z</time></trkpt><trkpt lat="46.08357402440962" lon="13.178010022094268"><ele>123.00000000000001</ele><time>2026-04-27T08:43:57.001Z</time></trkpt><trkpt lat="46.08357985754119" lon="13.178139262652198"><ele>123.0</ele><time>2026-04-27T08:43:58.001Z</time></trkpt><trkpt lat="46.083607786854884" lon="13.178276434425257"><ele>123.0</ele><time>2026-04-27T08:43:59.001Z</time></trkpt><trkpt lat="46.08363449222551" lon="13.178426350532316"><ele>122.0</ele><time>2026-04-27T08:44:00.002Z</time></trkpt><trkpt lat="46.08363953562613" lon="13.178590116085974"><ele>121.0</ele><time>2026-04-27T08:44:01.002Z</time></trkpt><trkpt lat="46.08361772628237" lon="13.178802507031607"><ele>120.0</ele><time>2026-04-27T08:44:02.002Z</time></trkpt><trkpt lat="46.083568633309916" lon="13.17907665246664"><ele>120.0</ele><time>2026-04-27T08:44:03.002Z</time></trkpt><trkpt lat="46.08350579779092" lon="13.179360335061801"><ele>120.0</ele><time>2026-04-27T08:44:04.002Z</time></trkpt><trkpt lat="46.08346168447601" lon="13.179621297612897"><ele>120.0</ele><time>2026-04-27T08:44:05.002Z</time></trkpt><trkpt lat="46.083434713762884" lon="13.17986567783082"><ele>120.0</ele><time>2026-04-27T08:44:06.002Z</time></trkpt><trkpt lat="46.083422703043745" lon="13.18009192104791"><ele>120.0</ele><time>2026-04-27T08:44:07Z</time></trkpt><trkpt lat="46.08342052870586" lon="13.180301801549184"><ele>120.0</ele><time>2026-04-27T08:44:08Z</time></trkpt><trkpt lat="46.08341841322962" lon="13.180495819468723"><ele>120.0</ele><time>2026-04-27T08:44:09Z</time></trkpt><trkpt lat="46.08342163015663" lon="13.180682910379998"><ele>120.25</ele><time>2026-04-27T08:44:10Z</time></trkpt><trkpt lat="46.08343430893513" lon="13.180881115728015"><ele>120.5</ele><time>2026-04-27T08:44:11Z</time></trkpt><trkpt lat="46.0834541960845" lon="13.181085887350717"><ele>120.75</ele><time>2026-04-27T08:44:12Z</time></trkpt><trkpt lat="46.08348118897731" lon="13.1812941479505"><ele>121.0</ele><time>2026-04-27T08:44:13Z</time></trkpt><trkpt lat="46.083513775741096" lon="13.18148763142029"><ele>120.5</ele><time>2026-04-27T08:44:14Z</time></trkpt><trkpt lat="46.08355176520799" lon="13.181675381833282"><ele>120.0</ele><time>2026-04-27T08:44:15Z</time></trkpt><trkpt lat="46.083595206530205" lon="13.18187273961949"><ele>119.5</ele><time>2026-04-27T08:44:16Z</time></trkpt><trkpt lat="46.083651681861866" lon="13.182095038260979"><ele>119.0</ele><time>2026-04-27T08:44:17Z</time></trkpt><trkpt lat="46.08371469544001" lon="13.182301226411212"><ele>119.0</ele><time>2026-04-27T08:44:18Z</time></trkpt><trkpt lat="46.08377737241061" lon="13.182484828519009"><ele>119.0</ele><time>2026-04-27T08:44:19Z</time></trkpt><trkpt lat="46.08383954466439" lon="13.18264623777734"><ele>119.0</ele><time>2026-04-27T08:44:20Z</time></trkpt><trkpt lat="46.08390323855781" lon="13.18280203835335"><ele>119.0</ele><time>2026-04-27T08:44:21Z</time></trkpt><trkpt lat="46.08396297962728" lon="13.1829516218262"><ele>119.0</ele><time>2026-04-27T08:44:22Z</time></trkpt><trkpt lat="46.084018755245765" lon="13.183107694183539"><ele>119.0</ele><time>2026-04-27T08:44:23Z</time></trkpt><trkpt lat="46.08407602637152" lon="13.183259177177305"><ele>119.0</ele><time>2026-04-27T08:44:24Z</time></trkpt><trkpt lat="46.08413132008802" lon="13.183402484640531"><ele>119.0</ele><time>2026-04-27T08:44:25Z</time></trkpt><trkpt lat="46.08418589203165" lon="13.183546001212617"><ele>119.5</ele><time>2026-04-27T08:44:26Z</time></trkpt><trkpt lat="46.08424578603695" lon="13.183686864166365"><ele>120.0</ele><time>2026-04-27T08:44:27Z</time></trkpt><trkpt lat="46.08431259972152" lon="13.183827390853939"><ele>120.5</ele><time>2026-04-27T08:44:28Z</time></trkpt><trkpt lat="46.08439123099615" lon="13.183963238917725"><ele>121.0</ele><time>2026-04-27T08:44:29Z</time></trkpt><trkpt lat="46.0844795112691" lon="13.184097312588303"><ele>121.0</ele><time>2026-04-27T08:44:30Z</time></trkpt><trkpt lat="46.084576667933874" lon="13.184229504326828"><ele>121.0</ele><time>2026-04-27T08:44:31Z</time></trkpt><trkpt lat="46.08467555000295" lon="13.184364408129353"><ele>121.0</ele><time>2026-04-27T08:44:32Z</time></trkpt><trkpt lat="46.084781735943125" lon="13.184498084755834"><ele>121.0</ele><time>2026-04-27T08:44:33Z</time></trkpt><trkpt lat="46.08489776079585" lon="13.184628821084592"><ele>121.33333333333334</ele><time>2026-04-27T08:44:34Z</time></trkpt><trkpt lat="46.08502341500862" lon="13.184760861814256"><ele>121.66666666666666</ele><time>2026-04-27T08:44:35Z</time></trkpt><trkpt lat="46.08515196752244" lon="13.184896687885598"><ele>122.0</ele><time>2026-04-27T08:44:36Z</time></trkpt><trkpt lat="46.08528216106958" lon="13.185042602067568"><ele>120.66666666666666</ele><time>2026-04-27T08:44:37Z</time></trkpt><trkpt lat="46.085415202306365" lon="13.185190490801407"><ele>119.33333333333334</ele><time>2026-04-27T08:44:38Z</time></trkpt><trkpt lat="46.085548200173854" lon="13.185337088174622"><ele>118.0</ele><time>2026-04-27T08:44:39Z</time></trkpt><trkpt lat="46.08566975747001" lon="13.18547991127684"><ele>118.75</ele><time>2026-04-27T08:44:40Z</time></trkpt><trkpt lat="46.08577793750335" lon="13.18562129883034"><ele>119.5</ele><time>2026-04-27T08:44:41Z</time></trkpt><trkpt lat="46.08587935698601" lon="13.185775430277841"><ele>120.25</ele><time>2026-04-27T08:44:42Z</time></trkpt><trkpt lat="46.085968846344855" lon="13.185945504291077"><ele>121.0</ele><time>2026-04-27T08:44:43Z</time></trkpt><trkpt lat="46.086048427164506" lon="13.186119932489026"><ele>119.5</ele><time>2026-04-27T08:44:44Z</time></trkpt><trkpt lat="46.086114236441674" lon="13.18630630971531"><ele>118.0</ele><time>2026-04-27T08:44:45Z</time></trkpt><trkpt lat="46.0861797407407" lon="13.18649361368738"><ele>116.5</ele><time>2026-04-27T08:44:46Z</time></trkpt><trkpt lat="46.086201461685526" lon="13.18670445748823"><ele>115.0</ele><time>2026-04-27T08:44:47Z</time></trkpt><trkpt lat="46.08622472614219" lon="13.186912604344627"><ele>114.5</ele><time>2026-04-27T08:44:48Z</time></trkpt><trkpt lat="46.08623467863006" lon="13.187118865542159"><ele>114.0</ele><time>2026-04-27T08:44:49Z</time></trkpt><trkpt lat="46.086226356500575" lon="13.187317454352394"><ele>113.5</ele><time>2026-04-27T08:44:50Z</time></trkpt><trkpt lat="46.08621048515138" lon="13.187515860508174"><ele>113.0</ele><time>2026-04-27T08:44:51Z</time></trkpt><trkpt lat="46.086183767629" lon="13.18771194899525"><ele>113.0</ele><time>2026-04-27T08:44:52Z</time></trkpt><trkpt lat="46.08614949748492" lon="13.187905293993342"><ele>113.0</ele><time>2026-04-27T08:44:53Z</time></trkpt><trkpt lat="46.08610648173965" lon="13.188093199896958"><ele>113.0</ele><time>2026-04-27T08:44:54Z</time></trkpt><trkpt lat="46.086062779992055" lon="13.188277113854584"><ele>113.0</ele><time>2026-04-27T08:44:55Z</time></trkpt><trkpt lat="46.08601920788862" lon="13.188459984771328"><ele>113.25</ele><time>2026-04-27T08:44:56Z</time></trkpt><trkpt lat="46.08597678260233" lon="13.188635228221985"><ele>113.5</ele><time>2026-04-27T08:44:57Z</time></trkpt><trkpt lat="46.08593642626822" lon="13.188805316684727"><ele>113.75</ele><time>2026-04-27T08:44:58.001Z</time></trkpt><trkpt lat="46.08590202189368" lon="13.188963502312262"><ele>114.0</ele><time>2026-04-27T08:44:59.001Z</time></trkpt><trkpt lat="46.08586535757253" lon="13.189118347124358"><ele>114.0</ele><time>2026-04-27T08:45:00.001Z</time></trkpt><trkpt lat="46.08582943158605" lon="13.189256986526134"><ele>114.0</ele><time>2026-04-27T08:45:01.001Z</time></trkpt><trkpt lat="46.08579475379493" lon="13.189403887300172"><ele>114.0</ele><time>2026-04-27T08:45:02.001Z</time></trkpt><trkpt lat="46.08576508860885" lon="13.189523531526635"><ele>114.0</ele><time>2026-04-27T08:45:03.001Z</time></trkpt><trkpt lat="46.085721982080436" lon="13.189670682428543"><ele>114.0</ele><time>2026-04-27T08:45:04.001Z</time></trkpt><trkpt lat="46.085668921504805" lon="13.189828926118935"><ele>114.6</ele><time>2026-04-27T08:45:05.001Z</time></trkpt><trkpt lat="46.085607804438915" lon="13.189962096168303"><ele>115.2</ele><time>2026-04-27T08:45:06.001Z</time></trkpt><trkpt lat="46.0855543324277" lon="13.19007843316882"><ele>115.79999999999998</ele><time>2026-04-27T08:45:07.001Z</time></trkpt><trkpt lat="46.08550635769666" lon="13.190167842459886"><ele>116.39999999999999</ele><time>2026-04-27T08:45:08.001Z</time></trkpt><trkpt lat="46.0854477233802" lon="13.190245045855422"><ele>117.0</ele><time>2026-04-27T08:45:09.001Z</time></trkpt><trkpt lat="46.08536790189194" lon="13.190321378675547"><ele>117.0</ele><time>2026-04-27T08:45:10.001Z</time></trkpt><trkpt lat="46.085288418326655" lon="13.190416406134865"><ele>116.99999999999999</ele><time>2026-04-27T08:45:11.001Z</time></trkpt><trkpt lat="46.08523146580272" lon="13.190536446074237"><ele>116.99999999999999</ele><time>2026-04-27T08:45:12.001Z</time></trkpt><trkpt lat="46.085203432182794" lon="13.190680673906696"><ele>117.0</ele><time>2026-04-27T08:45:13.001Z</time></trkpt><trkpt lat="46.08517082118674" lon="13.19083346825907"><ele>117.0</ele><time>2026-04-27T08:45:14.001Z</time></trkpt><trkpt lat="46.08520354211412" lon="13.191050447808026"><ele>117.25</ele><time>2026-04-27T08:45:15.001Z</time></trkpt><trkpt lat="46.08521011583728" lon="13.191259202986629"><ele>117.5</ele><time>2026-04-27T08:45:16.001Z</time></trkpt><trkpt lat="46.085208679930794" lon="13.191471916222868"><ele>117.75</ele><time>2026-04-27T08:45:17.001Z</time></trkpt><trkpt lat="46.08520385666071" lon="13.191689975707298"><ele>118.0</ele><time>2026-04-27T08:45:18.001Z</time></trkpt><trkpt lat="46.085191943894564" lon="13.19190793266526"><ele>117.5</ele><time>2026-04-27T08:45:19.001Z</time></trkpt><trkpt lat="46.08515620547354" lon="13.192108542041915"><ele>117.0</ele><time>2026-04-27T08:45:20.001Z</time></trkpt><trkpt lat="46.08510609902762" lon="13.192309698772965"><ele>116.5</ele><time>2026-04-27T08:45:21.001Z</time></trkpt><trkpt lat="46.085071430294995" lon="13.192504761927662"><ele>116.0</ele><time>2026-04-27T08:45:22.001Z</time></trkpt><trkpt lat="46.08502782247799" lon="13.192687035525362"><ele>116.0</ele><time>2026-04-27T08:45:23.001Z</time></trkpt><trkpt lat="46.084966487036084" lon="13.192856023130132"><ele>116.0</ele><time>2026-04-27T08:45:24.001Z</time></trkpt><trkpt lat="46.08492282416329" lon="13.193012906252893"><ele>116.0</ele><time>2026-04-27T08:45:25.001Z</time></trkpt><trkpt lat="46.08482877798681" lon="13.193186555591758"><ele>116.0</ele><time>2026-04-27T08:45:26.001Z</time></trkpt><trkpt lat="46.08473511098403" lon="13.193397731587345"><ele>115.75</ele><time>2026-04-27T08:45:27.001Z</time></trkpt><trkpt lat="46.08463421609998" lon="13.193606755500081"><ele>115.5</ele><time>2026-04-27T08:45:28.001Z</time></trkpt><trkpt lat="46.08454893957201" lon="13.19376984666198"><ele>115.25</ele><time>2026-04-27T08:45:29.001Z</time></trkpt><trkpt lat="46.084481734195705" lon="13.193912218626307"><ele>115.0</ele><time>2026-04-27T08:45:30.001Z</time></trkpt><trkpt lat="46.08442234227969" lon="13.194027288416937"><ele>114.8</ele><time>2026-04-27T08:45:31.001Z</time></trkpt><trkpt lat="46.084436026420335" lon="13.194179378762362"><ele>114.6</ele><time>2026-04-27T08:45:32.001Z</time></trkpt><trkpt lat="46.08446339554333" lon="13.19429746560326"><ele>114.4</ele><time>2026-04-27T08:45:33.001Z</time></trkpt><trkpt lat="46.08451690204412" lon="13.194416753791709"><ele>114.2</ele><time>2026-04-27T08:45:34.001Z</time></trkpt><trkpt lat="46.08459520311537" lon="13.194494033228892"><ele>114.0</ele><time>2026-04-27T08:45:35.001Z</time></trkpt><trkpt lat="46.084687053681876" lon="13.194542964286663"><ele>114.0</ele><time>2026-04-27T08:45:36.001Z</time></trkpt><trkpt lat="46.08477303262308" lon="13.194552431930829"><ele>114.0</ele><time>2026-04-27T08:45:37.001Z</time></trkpt><trkpt lat="46.084835460782934" lon="13.194519967343123"><ele>114.0</ele><time>2026-04-27T08:45:38.001Z</time></trkpt><trkpt lat="46.08494259720116" lon="13.194434893468141"><ele>114.0</ele><time>2026-04-27T08:45:40.001Z</time></trkpt><trkpt lat="46.08500071567296" lon="13.194350003341906"><ele>114.0</ele><time>2026-04-27T08:45:42.001Z</time></trkpt><trkpt lat="46.085022510639725" lon="13.194229866590325"><ele>114.0</ele><time>2026-04-27T08:45:44.001Z</time></trkpt><trkpt lat="46.08507668809557" lon="13.194082772034454"><ele>114.25</ele><time>2026-04-27T08:45:45.001Z</time></trkpt><trkpt lat="46.08514112810237" lon="13.193888942940065"><ele>114.5</ele><time>2026-04-27T08:45:46.001Z</time></trkpt><trkpt lat="46.08519312608427" lon="13.193743015955464"><ele>114.75</ele><time>2026-04-27T08:45:47.001Z</time></trkpt><trkpt lat="46.08525934664202" lon="13.193629301105886"><ele>115.0</ele><time>2026-04-27T08:45:48.001Z</time></trkpt><trkpt lat="46.085353360504584" lon="13.193524679426817"><ele>115.0</ele><time>2026-04-27T08:45:49.001Z</time></trkpt><trkpt lat="46.08547304170919" lon="13.193433477419248"><ele>115.0</ele><time>2026-04-27T08:45:50.001Z</time></trkpt><trkpt lat="46.08560583491287" lon="13.193380152582757"><ele>115.0</ele><time>2026-04-27T08:45:51.001Z</time></trkpt><trkpt lat="46.085745761883686" lon="13.193375409654116"><ele>115.0</ele><time>2026-04-27T08:45:52.001Z</time></trkpt><trkpt lat="46.08591585410674" lon="13.193398212769267"><ele>116.0</ele><time>2026-04-27T08:45:53.001Z</time></trkpt><trkpt lat="46.08613091487707" lon="13.193451573362795"><ele>117.0</ele><time>2026-04-27T08:45:54.001Z</time></trkpt><trkpt lat="46.086368868822206" lon="13.193518921289852"><ele>117.0</ele><time>2026-04-27T08:45:55.001Z</time></trkpt><trkpt lat="46.08661506451166" lon="13.19358159076839"><ele>117.0</ele><time>2026-04-27T08:45:56.001Z</time></trkpt><trkpt lat="46.08683748265747" lon="13.19364056831243"><ele>117.0</ele><time>2026-04-27T08:45:57.001Z</time></trkpt><trkpt lat="46.08703429227293" lon="13.193703117379998"><ele>117.0</ele><time>2026-04-27T08:45:58.001Z</time></trkpt><trkpt lat="46.08721608602343" lon="13.19377137063193"><ele>117.0</ele><time>2026-04-27T08:45:59.001Z</time></trkpt><trkpt lat="46.08738746759982" lon="13.193841278624868"><ele>117.33333333333334</ele><time>2026-04-27T08:46:00.001Z</time></trkpt><trkpt lat="46.08755162276241" lon="13.193918085633303"><ele>117.66666666666667</ele><time>2026-04-27T08:46:01.001Z</time></trkpt><trkpt lat="46.087727734856294" lon="13.19399224790153"><ele>118.0</ele><time>2026-04-27T08:46:02.001Z</time></trkpt><trkpt lat="46.08790415412697" lon="13.194063325008132"><ele>118.33333333333334</ele><time>2026-04-27T08:46:03.001Z</time></trkpt><trkpt lat="46.088087029131536" lon="13.194141041502077"><ele>118.66666666666666</ele><time>2026-04-27T08:46:04.001Z</time></trkpt><trkpt lat="46.088273650648304" lon="13.194222621638753"><ele>119.0</ele><time>2026-04-27T08:46:05.001Z</time></trkpt><trkpt lat="46.08846550934501" lon="13.194312629485152"><ele>119.0</ele><time>2026-04-27T08:46:06.001Z</time></trkpt><trkpt lat="46.08865936577418" lon="13.19440239363624"><ele>119.0</ele><time>2026-04-27T08:46:07.001Z</time></trkpt><trkpt lat="46.0888578956127" lon="13.19449322673874"><ele>119.0</ele><time>2026-04-27T08:46:08.001Z</time></trkpt><trkpt lat="46.08905802552797" lon="13.194589413872226"><ele>119.0</ele><time>2026-04-27T08:46:09.002Z</time></trkpt><trkpt lat="46.089260511830695" lon="13.194685104969917"><ele>119.0</ele><time>2026-04-27T08:46:10.002Z</time></trkpt><trkpt lat="46.089460182747715" lon="13.194779696677434"><ele>119.0</ele><time>2026-04-27T08:46:11.002Z</time></trkpt><trkpt lat="46.08966305585357" lon="13.194874380517106"><ele>119.33333333333333</ele><time>2026-04-27T08:46:12.002Z</time></trkpt><trkpt lat="46.089865978364465" lon="13.194971548724194"><ele>119.66666666666666</ele><time>2026-04-27T08:46:13Z</time></trkpt><trkpt lat="46.090067765537874" lon="13.195070380537642"><ele>120.0</ele><time>2026-04-27T08:46:14Z</time></trkpt><trkpt lat="46.090271817075696" lon="13.195171134350499"><ele>120.0</ele><time>2026-04-27T08:46:15Z</time></trkpt><trkpt lat="46.0904750905246" lon="13.195267532241388"><ele>120.0</ele><time>2026-04-27T08:46:16Z</time></trkpt><trkpt lat="46.09067785101234" lon="13.19536344741131"><ele>120.0</ele><time>2026-04-27T08:46:17Z</time></trkpt><trkpt lat="46.09087979869287" lon="13.195457142813243"><ele>119.66666666666666</ele><time>2026-04-27T08:46:18Z</time></trkpt><trkpt lat="46.09108049398595" lon="13.19555461346653"><ele>119.33333333333333</ele><time>2026-04-27T08:46:19Z</time></trkpt><trkpt lat="46.091280269866125" lon="13.19564882549853"><ele>119.0</ele><time>2026-04-27T08:46:20Z</time></trkpt><trkpt lat="46.091485650443815" lon="13.195747062258626"><ele>120.0</ele><time>2026-04-27T08:46:21Z</time></trkpt><trkpt lat="46.09167964896398" lon="13.19584027101712"><ele>121.0</ele><time>2026-04-27T08:46:22Z</time></trkpt><trkpt lat="46.091877631930046" lon="13.195936804712623"><ele>122.0</ele><time>2026-04-27T08:46:23Z</time></trkpt><trkpt lat="46.09207496924974" lon="13.196031066613791"><ele>122.0</ele><time>2026-04-27T08:46:24Z</time></trkpt><trkpt lat="46.09227659329318" lon="13.196127203922428"><ele>122.0</ele><time>2026-04-27T08:46:25Z</time></trkpt><trkpt lat="46.09248766046332" lon="13.196225866514391"><ele>122.0</ele><time>2026-04-27T08:46:26Z</time></trkpt><trkpt lat="46.09271954751937" lon="13.196337303831104"><ele>121.5</ele><time>2026-04-27T08:46:27Z</time></trkpt><trkpt lat="46.09296904747347" lon="13.19645594893716"><ele>121.0</ele><time>2026-04-27T08:46:28Z</time></trkpt><trkpt lat="46.09320994742569" lon="13.19657231283503"><ele>120.5</ele><time>2026-04-27T08:46:29Z</time></trkpt><trkpt lat="46.09342898150418" lon="13.196676198491812"><ele>120.0</ele><time>2026-04-27T08:46:30Z</time></trkpt><trkpt lat="46.09364330921616" lon="13.196779484487806"><ele>120.0</ele><time>2026-04-27T08:46:31Z</time></trkpt><trkpt lat="46.09384549639448" lon="13.196875112604632"><ele>120.0</ele><time>2026-04-27T08:46:32Z</time></trkpt><trkpt lat="46.094043362626394" lon="13.196971418695318"><ele>120.0</ele><time>2026-04-27T08:46:33Z</time></trkpt><trkpt lat="46.09423237711998" lon="13.197062877021166"><ele>120.33333333333334</ele><time>2026-04-27T08:46:34Z</time></trkpt><trkpt lat="46.094421620360784" lon="13.197151780134272"><ele>120.66666666666667</ele><time>2026-04-27T08:46:35Z</time></trkpt><trkpt lat="46.09461833994751" lon="13.197246639774384"><ele>121.0</ele><time>2026-04-27T08:46:36Z</time></trkpt><trkpt lat="46.09481956582955" lon="13.197343707308004"><ele>120.66666666666667</ele><time>2026-04-27T08:46:37Z</time></trkpt><trkpt lat="46.09502792833738" lon="13.197439623329647"><ele>120.33333333333334</ele><time>2026-04-27T08:46:38Z</time></trkpt><trkpt lat="46.095241088862856" lon="13.197545739229751"><ele>120.0</ele><time>2026-04-27T08:46:39Z</time></trkpt><trkpt lat="46.095461151338114" lon="13.197653331730072"><ele>120.0</ele><time>2026-04-27T08:46:40Z</time></trkpt><trkpt lat="46.09568587041485" lon="13.197764440247894"><ele>120.0</ele><time>2026-04-27T08:46:41Z</time></trkpt><trkpt lat="46.09591488180832" lon="13.197873913894849"><ele>121.0</ele><time>2026-04-27T08:46:42Z</time></trkpt><trkpt lat="46.09614916478308" lon="13.197982748717093"><ele>122.0</ele><time>2026-04-27T08:46:43Z</time></trkpt><trkpt lat="46.09638467426911" lon="13.198083079848454"><ele>121.5</ele><time>2026-04-27T08:46:44Z</time></trkpt><trkpt lat="46.09662125501202" lon="13.198187229085725"><ele>121.0</ele><time>2026-04-27T08:46:45Z</time></trkpt><trkpt lat="46.09684913902489" lon="13.198293662382769"><ele>121.0</ele><time>2026-04-27T08:46:46Z</time></trkpt><trkpt lat="46.09707489462261" lon="13.198406367562425"><ele>121.0</ele><time>2026-04-27T08:46:47Z</time></trkpt><trkpt lat="46.09729677026529" lon="13.198518239166763"><ele>122.5</ele><time>2026-04-27T08:46:48Z</time></trkpt><trkpt lat="46.09751857746965" lon="13.19862978139589"><ele>124.0</ele><time>2026-04-27T08:46:49Z</time></trkpt><trkpt lat="46.09773945643996" lon="13.198737754675234"><ele>124.0</ele><time>2026-04-27T08:46:50Z</time></trkpt><trkpt lat="46.09795752740302" lon="13.198840386292407"><ele>124.0</ele><time>2026-04-27T08:46:51Z</time></trkpt><trkpt lat="46.09817524158875" lon="13.198945183267233"><ele>123.5</ele><time>2026-04-27T08:46:52Z</time></trkpt><trkpt lat="46.098390613821024" lon="13.199048429054356"><ele>123.0</ele><time>2026-04-27T08:46:53Z</time></trkpt><trkpt lat="46.09861159372238" lon="13.199146076786077"><ele>123.0</ele><time>2026-04-27T08:46:54Z</time></trkpt><trkpt lat="46.09884947852647" lon="13.19924727366954"><ele>123.0</ele><time>2026-04-27T08:46:55Z</time></trkpt><trkpt lat="46.099109929856574" lon="13.199356564881302"><ele>122.0</ele><time>2026-04-27T08:46:56Z</time></trkpt><trkpt lat="46.09937729785865" lon="13.199475743509362"><ele>121.0</ele><time>2026-04-27T08:46:57Z</time></trkpt><trkpt lat="46.099651630236494" lon="13.199611439911214"><ele>122.0</ele><time>2026-04-27T08:46:58Z</time></trkpt><trkpt lat="46.09993280161584" lon="13.199747158522099"><ele>123.0</ele><time>2026-04-27T08:46:59Z</time></trkpt><trkpt lat="46.10021800007131" lon="13.19988560420015"><ele>123.0</ele><time>2026-04-27T08:47:00Z</time></trkpt><trkpt lat="46.10049257425317" lon="13.200022498159761"><ele>123.0</ele><time>2026-04-27T08:47:01Z</time></trkpt><trkpt lat="46.100739077338154" lon="13.200148647367875"><ele>124.0</ele><time>2026-04-27T08:47:02Z</time></trkpt><trkpt lat="46.10098037915393" lon="13.2002618887716"><ele>125.0</ele><time>2026-04-27T08:47:03.001Z</time></trkpt><trkpt lat="46.10121960609836" lon="13.200383078748283"><ele>125.0</ele><time>2026-04-27T08:47:04.001Z</time></trkpt><trkpt lat="46.10145016422223" lon="13.200504975739157"><ele>125.0</ele><time>2026-04-27T08:47:05.001Z</time></trkpt><trkpt lat="46.101671901587586" lon="13.200610944707112"><ele>124.33333333333333</ele><time>2026-04-27T08:47:06.001Z</time></trkpt><trkpt lat="46.10188877092051" lon="13.200712325518708"><ele>123.66666666666666</ele><time>2026-04-27T08:47:07.001Z</time></trkpt><trkpt lat="46.10209533949428" lon="13.20081412426347"><ele>123.0</ele><time>2026-04-27T08:47:08.001Z</time></trkpt><trkpt lat="46.10229758771033" lon="13.200914444400293"><ele>123.33333333333334</ele><time>2026-04-27T08:47:09.001Z</time></trkpt><trkpt lat="46.10250456867472" lon="13.201009083142369"><ele>123.66666666666667</ele><time>2026-04-27T08:47:10.001Z</time></trkpt><trkpt lat="46.10271477313832" lon="13.201105097827046"><ele>124.0</ele><time>2026-04-27T08:47:11.001Z</time></trkpt><trkpt lat="46.10292636615872" lon="13.201211443990772"><ele>124.0</ele><time>2026-04-27T08:47:12.001Z</time></trkpt><trkpt lat="46.103136636968394" lon="13.201313558027355"><ele>124.0</ele><time>2026-04-27T08:47:13.001Z</time></trkpt><trkpt lat="46.10334968129088" lon="13.201415078833257"><ele>124.0</ele><time>2026-04-27T08:47:14.001Z</time></trkpt><trkpt lat="46.10356438805878" lon="13.201514930807383"><ele>125.0</ele><time>2026-04-27T08:47:15.001Z</time></trkpt><trkpt lat="46.10377931686792" lon="13.201615737427588"><ele>126.0</ele><time>2026-04-27T08:47:16.001Z</time></trkpt><trkpt lat="46.10399326258252" lon="13.201721205045748"><ele>126.5</ele><time>2026-04-27T08:47:17.001Z</time></trkpt><trkpt lat="46.10420371421512" lon="13.201821559805655"><ele>127.0</ele><time>2026-04-27T08:47:18.001Z</time></trkpt><trkpt lat="46.10442133950705" lon="13.201924158604548"><ele>127.0</ele><time>2026-04-27T08:47:19.001Z</time></trkpt><trkpt lat="46.1046382763186" lon="13.202032643545822"><ele>127.0</ele><time>2026-04-27T08:47:20.001Z</time></trkpt><trkpt lat="46.10485672979236" lon="13.20213656468699"><ele>127.0</ele><time>2026-04-27T08:47:21.001Z</time></trkpt><trkpt lat="46.10507467705346" lon="13.202243143688877"><ele>127.0</ele><time>2026-04-27T08:47:22.001Z</time></trkpt><trkpt lat="46.105293217221266" lon="13.202349124617939"><ele>127.0</ele><time>2026-04-27T08:47:23.001Z</time></trkpt><trkpt lat="46.1055050442603" lon="13.202450944247795"><ele>127.0</ele><time>2026-04-27T08:47:24.001Z</time></trkpt><trkpt lat="46.1057198450489" lon="13.202552240630373"><ele>127.0</ele><time>2026-04-27T08:47:25.001Z</time></trkpt><trkpt lat="46.105927648826835" lon="13.20265283559587"><ele>126.66666666666667</ele><time>2026-04-27T08:47:26.001Z</time></trkpt><trkpt lat="46.10613366426349" lon="13.202749838520461"><ele>126.33333333333334</ele><time>2026-04-27T08:47:27.001Z</time></trkpt><trkpt lat="46.106336852995824" lon="13.202848289100524"><ele>126.0</ele><time>2026-04-27T08:47:28.001Z</time></trkpt><trkpt lat="46.10653597041715" lon="13.202948294150996"><ele>126.33333333333334</ele><time>2026-04-27T08:47:29.001Z</time></trkpt><trkpt lat="46.10672583403114" lon="13.203051910553278"><ele>126.66666666666667</ele><time>2026-04-27T08:47:30.001Z</time></trkpt><trkpt lat="46.106912068527755" lon="13.203164010802631"><ele>127.0</ele><time>2026-04-27T08:47:31.001Z</time></trkpt><trkpt lat="46.10709347293936" lon="13.20328648599789"><ele>127.0</ele><time>2026-04-27T08:47:32.001Z</time></trkpt><trkpt lat="46.107270774042156" lon="13.203417968981945"><ele>127.0</ele><time>2026-04-27T08:47:33.001Z</time></trkpt><trkpt lat="46.10744517703839" lon="13.203556327021577"><ele>127.0</ele><time>2026-04-27T08:47:34.001Z</time></trkpt><trkpt lat="46.107617806428" lon="13.20370536513944"><ele>127.0</ele><time>2026-04-27T08:47:35.001Z</time></trkpt><trkpt lat="46.107788273722825" lon="13.203857220398046"><ele>127.0</ele><time>2026-04-27T08:47:36.001Z</time></trkpt><trkpt lat="46.10795657407087" lon="13.204014053995554"><ele>127.0</ele><time>2026-04-27T08:47:37.001Z</time></trkpt><trkpt lat="46.108121727382574" lon="13.204178532751254"><ele>127.66666666666667</ele><time>2026-04-27T08:47:38.001Z</time></trkpt><trkpt lat="46.10828241629686" lon="13.20435308077048"><ele>128.33333333333334</ele><time>2026-04-27T08:47:39.001Z</time></trkpt><trkpt lat="46.10843382850459" lon="13.204536820636111"><ele>129.0</ele><time>2026-04-27T08:47:40.001Z</time></trkpt><trkpt lat="46.10857845349345" lon="13.204737972641805"><ele>129.33333333333334</ele><time>2026-04-27T08:47:41.001Z</time></trkpt><trkpt lat="46.10872311897784" lon="13.204951162863146"><ele>129.66666666666669</ele><time>2026-04-27T08:47:42.001Z</time></trkpt><trkpt lat="46.10886455130089" lon="13.205174646076019"><ele>130.0</ele><time>2026-04-27T08:47:43.001Z</time></trkpt><trkpt lat="46.109005174026315" lon="13.20540011010329"><ele>130.0</ele><time>2026-04-27T08:47:44.001Z</time></trkpt><trkpt lat="46.10914093798635" lon="13.20562615579851"><ele>130.0</ele><time>2026-04-27T08:47:45.001Z</time></trkpt><trkpt lat="46.109266503541356" lon="13.20585046898788"><ele>130.0</ele><time>2026-04-27T08:47:46.001Z</time></trkpt><trkpt lat="46.109384341527836" lon="13.206067620548822"><ele>130.33333333333334</ele><time>2026-04-27T08:47:47.001Z</time></trkpt><trkpt lat="46.10949683876723" lon="13.206285038086454"><ele>130.66666666666666</ele><time>2026-04-27T08:47:48.001Z</time></trkpt><trkpt lat="46.10960641146302" lon="13.206512225135166"><ele>131.0</ele><time>2026-04-27T08:47:49.001Z</time></trkpt><trkpt lat="46.1097149090574" lon="13.206750316414224"><ele>131.0</ele><time>2026-04-27T08:47:50.001Z</time></trkpt><trkpt lat="46.10982207187221" lon="13.207000320559997"><ele>131.0</ele><time>2026-04-27T08:47:51.001Z</time></trkpt><trkpt lat="46.10993191760149" lon="13.207261208219238"><ele>131.0</ele><time>2026-04-27T08:47:52.001Z</time></trkpt><trkpt lat="46.11004192491593" lon="13.207529805963247"><ele>131.0</ele><time>2026-04-27T08:47:53.001Z</time></trkpt><trkpt lat="46.11015173377258" lon="13.207797249870321"><ele>131.0</ele><time>2026-04-27T08:47:54.001Z</time></trkpt><trkpt lat="46.110269151458226" lon="13.20807478591208"><ele>131.0</ele><time>2026-04-27T08:47:55.001Z</time></trkpt><trkpt lat="46.11039704823752" lon="13.208375103521941"><ele>130.5</ele><time>2026-04-27T08:47:56.001Z</time></trkpt><trkpt lat="46.11052224987697" lon="13.208677680804463"><ele>130.0</ele><time>2026-04-27T08:47:57.001Z</time></trkpt><trkpt lat="46.11063239376597" lon="13.208949747371083"><ele>130.0</ele><time>2026-04-27T08:47:58.001Z</time></trkpt><trkpt lat="46.11073673102163" lon="13.20920047810691"><ele>130.0</ele><time>2026-04-27T08:47:59.001Z</time></trkpt><trkpt lat="46.11083574172054" lon="13.209451899641737"><ele>130.0</ele><time>2026-04-27T08:48:00.001Z</time></trkpt><trkpt lat="46.110941993786156" lon="13.209705951406514"><ele>131.33333333333334</ele><time>2026-04-27T08:48:01.001Z</time></trkpt><trkpt lat="46.11105091677034" lon="13.20996253650315"><ele>132.66666666666666</ele><time>2026-04-27T08:48:02.001Z</time></trkpt><trkpt lat="46.11116134211757" lon="13.210222244264845"><ele>134.0</ele><time>2026-04-27T08:48:03.001Z</time></trkpt><trkpt lat="46.111275178703046" lon="13.210481974444114"><ele>133.66666666666666</ele><time>2026-04-27T08:48:04.001Z</time></trkpt><trkpt lat="46.111393850629526" lon="13.210752413769447"><ele>133.33333333333334</ele><time>2026-04-27T08:48:05.001Z</time></trkpt><trkpt lat="46.11150489772674" lon="13.211018627265881"><ele>133.0</ele><time>2026-04-27T08:48:06.001Z</time></trkpt><trkpt lat="46.11161611536423" lon="13.211294823392091"><ele>135.0</ele><time>2026-04-27T08:48:07.001Z</time></trkpt><trkpt lat="46.11173294567952" lon="13.211575189441914"><ele>137.0</ele><time>2026-04-27T08:48:08.001Z</time></trkpt><trkpt lat="46.111850666388186" lon="13.211856216159209"><ele>137.0</ele><time>2026-04-27T08:48:09.001Z</time></trkpt><trkpt lat="46.111965676101796" lon="13.21213464123059"><ele>137.0</ele><time>2026-04-27T08:48:10.001Z</time></trkpt><trkpt lat="46.11207945271079" lon="13.212408128066002"><ele>137.0</ele><time>2026-04-27T08:48:11.001Z</time></trkpt><trkpt lat="46.11219009404355" lon="13.212668956030123"><ele>137.0</ele><time>2026-04-27T08:48:12.001Z</time></trkpt><trkpt lat="46.112294269036674" lon="13.212931776001792"><ele>137.0</ele><time>2026-04-27T08:48:13.001Z</time></trkpt><trkpt lat="46.112400176723675" lon="13.213164401546596"><ele>137.0</ele><time>2026-04-27T08:48:14.001Z</time></trkpt><trkpt lat="46.112496245778814" lon="13.213394050279579"><ele>137.0</ele><time>2026-04-27T08:48:15.002Z</time></trkpt><trkpt lat="46.11258715545891" lon="13.213614618715592"><ele>137.0</ele><time>2026-04-27T08:48:16.002Z</time></trkpt><trkpt lat="46.11267644631722" lon="13.213839687467138"><ele>137.0</ele><time>2026-04-27T08:48:17.002Z</time></trkpt><trkpt lat="46.11277086761936" lon="13.214058988368286"><ele>137.0</ele><time>2026-04-27T08:48:18.002Z</time></trkpt><trkpt lat="46.11286666701336" lon="13.214279757640846"><ele>137.0</ele><time>2026-04-27T08:48:19Z</time></trkpt><trkpt lat="46.11296444875347" lon="13.214500530189417"><ele>137.0</ele><time>2026-04-27T08:48:20Z</time></trkpt><trkpt lat="46.11306628086443" lon="13.214722634053942"><ele>136.33333333333331</ele><time>2026-04-27T08:48:21Z</time></trkpt><trkpt lat="46.11317583385907" lon="13.214945879165315"><ele>135.66666666666666</ele><time>2026-04-27T08:48:22Z</time></trkpt><trkpt lat="46.113287423565964" lon="13.215172225286919"><ele>135.0</ele><time>2026-04-27T08:48:23Z</time></trkpt><trkpt lat="46.11340415011277" lon="13.21539530379921"><ele>136.33333333333334</ele><time>2026-04-27T08:48:24Z</time></trkpt><trkpt lat="46.113528706483116" lon="13.215622202934172"><ele>137.66666666666669</ele><time>2026-04-27T08:48:25Z</time></trkpt><trkpt lat="46.11365791644292" lon="13.21585146414451"><ele>139.0</ele><time>2026-04-27T08:48:26Z</time></trkpt><trkpt lat="46.113790648108456" lon="13.216081998829441"><ele>139.0</ele><time>2026-04-27T08:48:27Z</time></trkpt><trkpt lat="46.11392739889598" lon="13.216311999252849"><ele>139.0</ele><time>2026-04-27T08:48:28Z</time></trkpt><trkpt lat="46.11407081850555" lon="13.216540230684048"><ele>139.0</ele><time>2026-04-27T08:48:29Z</time></trkpt><trkpt lat="46.11422075332605" lon="13.216769031153062"><ele>139.5</ele><time>2026-04-27T08:48:30Z</time></trkpt><trkpt lat="46.11437591050855" lon="13.216996831993416"><ele>140.0</ele><time>2026-04-27T08:48:31Z</time></trkpt><trkpt lat="46.11454248888696" lon="13.217224847405497"><ele>140.0</ele><time>2026-04-27T08:48:32Z</time></trkpt><trkpt lat="46.11471364608774" lon="13.21745057891653"><ele>140.0</ele><time>2026-04-27T08:48:33Z</time></trkpt><trkpt lat="46.114884251543295" lon="13.217664117898961"><ele>139.66666666666666</ele><time>2026-04-27T08:48:34Z</time></trkpt><trkpt lat="46.11504225919908" lon="13.217859282418368"><ele>139.33333333333334</ele><time>2026-04-27T08:48:35Z</time></trkpt><trkpt lat="46.11520507216351" lon="13.218052199465998"><ele>139.0</ele><time>2026-04-27T08:48:36Z</time></trkpt><trkpt lat="46.115365198228844" lon="13.218233812772613"><ele>139.0</ele><time>2026-04-27T08:48:37Z</time></trkpt><trkpt lat="46.11552619265406" lon="13.218410595647619"><ele>139.0</ele><time>2026-04-27T08:48:38Z</time></trkpt><trkpt lat="46.11568819136607" lon="13.218585804860934"><ele>139.0</ele><time>2026-04-27T08:48:39Z</time></trkpt><trkpt lat="46.115851109872565" lon="13.218759657227588"><ele>139.33333333333334</ele><time>2026-04-27T08:48:40Z</time></trkpt><trkpt lat="46.116023307208" lon="13.218933761605566"><ele>139.66666666666666</ele><time>2026-04-27T08:48:41Z</time></trkpt><trkpt lat="46.116204294363556" lon="13.219116562616312"><ele>140.0</ele><time>2026-04-27T08:48:42Z</time></trkpt><trkpt lat="46.11639590152874" lon="13.219306100586923"><ele>140.0</ele><time>2026-04-27T08:48:43Z</time></trkpt><trkpt lat="46.11659532408475" lon="13.219498985737516"><ele>140.0</ele><time>2026-04-27T08:48:44Z</time></trkpt><trkpt lat="46.11678026063445" lon="13.219686613725726"><ele>140.0</ele><time>2026-04-27T08:48:45Z</time></trkpt><trkpt lat="46.11695935676787" lon="13.21986773218625"><ele>140.0</ele><time>2026-04-27T08:48:46Z</time></trkpt><trkpt lat="46.117135678735394" lon="13.220042813517097"><ele>140.0</ele><time>2026-04-27T08:48:47Z</time></trkpt><trkpt lat="46.11730901071602" lon="13.220219729400975"><ele>140.33333333333331</ele><time>2026-04-27T08:48:48Z</time></trkpt><trkpt lat="46.11748526320799" lon="13.22039587497695"><ele>140.66666666666666</ele><time>2026-04-27T08:48:49Z</time></trkpt><trkpt lat="46.11766396547513" lon="13.220573283721917"><ele>141.0</ele><time>2026-04-27T08:48:50Z</time></trkpt><trkpt lat="46.11784201276118" lon="13.220755047160152"><ele>142.0</ele><time>2026-04-27T08:48:51Z</time></trkpt><trkpt lat="46.1180237320467" lon="13.2209418249298"><ele>143.0</ele><time>2026-04-27T08:48:52Z</time></trkpt><trkpt lat="46.11820987349718" lon="13.221131454802459"><ele>142.5</ele><time>2026-04-27T08:48:53Z</time></trkpt><trkpt lat="46.11839859372267" lon="13.221321221805123"><ele>142.0</ele><time>2026-04-27T08:48:54Z</time></trkpt><trkpt lat="46.118587478577595" lon="13.221511560763902"><ele>142.0</ele><time>2026-04-27T08:48:55Z</time></trkpt><trkpt lat="46.11877513521163" lon="13.221697129238295"><ele>142.0</ele><time>2026-04-27T08:48:56Z</time></trkpt><trkpt lat="46.11896226067012" lon="13.221882867772425"><ele>141.66666666666669</ele><time>2026-04-27T08:48:57Z</time></trkpt><trkpt lat="46.11914654638643" lon="13.222066230338756"><ele>141.33333333333334</ele><time>2026-04-27T08:48:58Z</time></trkpt><trkpt lat="46.11932846251228" lon="13.222246006863026"><ele>141.0</ele><time>2026-04-27T08:48:59Z</time></trkpt><trkpt lat="46.11950925366149" lon="13.222425213166254"><ele>142.0</ele><time>2026-04-27T08:49:00Z</time></trkpt><trkpt lat="46.119690254522034" lon="13.22259646194354"><ele>143.0</ele><time>2026-04-27T08:49:01Z</time></trkpt><trkpt lat="46.11988891115639" lon="13.222774267635435"><ele>143.0</ele><time>2026-04-27T08:49:02Z</time></trkpt><trkpt lat="46.120094791952575" lon="13.222958479777787"><ele>143.0</ele><time>2026-04-27T08:49:03Z</time></trkpt><trkpt lat="46.120260910673615" lon="13.22314944546725"><ele>143.0</ele><time>2026-04-27T08:49:04Z</time></trkpt><trkpt lat="46.12045702908587" lon="13.2233450494869"><ele>143.0</ele><time>2026-04-27T08:49:05Z</time></trkpt><trkpt lat="46.12066026752152" lon="13.223546525863657"><ele>142.0</ele><time>2026-04-27T08:49:06Z</time></trkpt><trkpt lat="46.12086503561244" lon="13.223752481363162"><ele>141.0</ele><time>2026-04-27T08:49:07Z</time></trkpt><trkpt lat="46.12106970345759" lon="13.223954258375787"><ele>140.5</ele><time>2026-04-27T08:49:08Z</time></trkpt><trkpt lat="46.12127790395883" lon="13.22415471514459"><ele>140.0</ele><time>2026-04-27T08:49:09Z</time></trkpt><trkpt lat="46.12147408073005" lon="13.22434488462"><ele>140.66666666666666</ele><time>2026-04-27T08:49:10Z</time></trkpt><trkpt lat="46.12165014037274" lon="13.224517344708998"><ele>141.33333333333334</ele><time>2026-04-27T08:49:11Z</time></trkpt><trkpt lat="46.12181071645447" lon="13.224687301166227"><ele>142.0</ele><time>2026-04-27T08:49:12Z</time></trkpt><trkpt lat="46.121956942992156" lon="13.224849903999017"><ele>143.33333333333334</ele><time>2026-04-27T08:49:13Z</time></trkpt><trkpt lat="46.12209022902422" lon="13.225010226429237"><ele>144.66666666666666</ele><time>2026-04-27T08:49:14Z</time></trkpt><trkpt lat="46.122231846518204" lon="13.225171737829232"><ele>146.0</ele><time>2026-04-27T08:49:15Z</time></trkpt><trkpt lat="46.122377061616454" lon="13.225319564070325"><ele>145.66666666666666</ele><time>2026-04-27T08:49:16Z</time></trkpt><trkpt lat="46.122507678088475" lon="13.225459862343712"><ele>145.33333333333334</ele><time>2026-04-27T08:49:17.001Z</time></trkpt><trkpt lat="46.122631492842004" lon="13.225579918152402"><ele>145.0</ele><time>2026-04-27T08:49:18.001Z</time></trkpt><trkpt lat="46.122744622560674" lon="13.225705099399134"><ele>144.75</ele><time>2026-04-27T08:49:19.001Z</time></trkpt><trkpt lat="46.122851364312865" lon="13.22582742800033"><ele>144.5</ele><time>2026-04-27T08:49:20.001Z</time></trkpt><trkpt lat="46.122948208417746" lon="13.22594868220929"><ele>144.25</ele><time>2026-04-27T08:49:21.001Z</time></trkpt><trkpt lat="46.123040031854394" lon="13.22606906091564"><ele>144.0</ele><time>2026-04-27T08:49:22.001Z</time></trkpt><trkpt lat="46.12312117418879" lon="13.226204797199234"><ele>144.0</ele><time>2026-04-27T08:49:23.001Z</time></trkpt><trkpt lat="46.12319443781034" lon="13.226346408237077"><ele>144.0</ele><time>2026-04-27T08:49:24.001Z</time></trkpt><trkpt lat="46.12326532196525" lon="13.22649651739139"><ele>144.0</ele><time>2026-04-27T08:49:25.001Z</time></trkpt><trkpt lat="46.12333104964969" lon="13.226657763723505"><ele>144.0</ele><time>2026-04-27T08:49:26.001Z</time></trkpt><trkpt lat="46.123385877642136" lon="13.226814122735545"><ele>144.25</ele><time>2026-04-27T08:49:27.001Z</time></trkpt><trkpt lat="46.12343804780037" lon="13.226967021245338"><ele>144.5</ele><time>2026-04-27T08:49:28.001Z</time></trkpt><trkpt lat="46.12349868051832" lon="13.227120172344712"><ele>144.75</ele><time>2026-04-27T08:49:29.001Z</time></trkpt><trkpt lat="46.12356540391297" lon="13.227279041699568"><ele>145.0</ele><time>2026-04-27T08:49:30.001Z</time></trkpt><trkpt lat="46.12364206472993" lon="13.227430640052706"><ele>145.0</ele><time>2026-04-27T08:49:31.001Z</time></trkpt><trkpt lat="46.1237274423867" lon="13.227563573763849"><ele>145.0</ele><time>2026-04-27T08:49:32.001Z</time></trkpt><trkpt lat="46.12382532107448" lon="13.227679005721429"><ele>145.0</ele><time>2026-04-27T08:49:33.001Z</time></trkpt><trkpt lat="46.1239329426355" lon="13.227763721890293"><ele>145.0</ele><time>2026-04-27T08:49:34.001Z</time></trkpt><trkpt lat="46.12405042900114" lon="13.227824842091279"><ele>144.75</ele><time>2026-04-27T08:49:35.001Z</time></trkpt><trkpt lat="46.12418908281558" lon="13.227855576080207"><ele>144.5</ele><time>2026-04-27T08:49:36.001Z</time></trkpt><trkpt lat="46.12433812999816" lon="13.227869721709023"><ele>144.25</ele><time>2026-04-27T08:49:37.001Z</time></trkpt><trkpt lat="46.124489319917345" lon="13.227862337247918"><ele>144.0</ele><time>2026-04-27T08:49:38.001Z</time></trkpt><trkpt lat="46.124642998867856" lon="13.22783525239315"><ele>144.0</ele><time>2026-04-27T08:49:39.001Z</time></trkpt><trkpt lat="46.1248146297485" lon="13.227740777255965"><ele>144.0</ele><time>2026-04-27T08:49:40.001Z</time></trkpt><trkpt lat="46.124949860041006" lon="13.22763073386582"><ele>144.0</ele><time>2026-04-27T08:49:41.001Z</time></trkpt><trkpt lat="46.12508980624314" lon="13.227496392523644"><ele>144.66666666666666</ele><time>2026-04-27T08:49:42.001Z</time></trkpt><trkpt lat="46.12521913481067" lon="13.227330408038336"><ele>145.33333333333331</ele><time>2026-04-27T08:49:43.001Z</time></trkpt><trkpt lat="46.125333151952276" lon="13.227152239368973"><ele>146.0</ele><time>2026-04-27T08:49:44.001Z</time></trkpt><trkpt lat="46.125428536268025" lon="13.226968580847512"><ele>146.25</ele><time>2026-04-27T08:49:45.001Z</time></trkpt><trkpt lat="46.12549937902942" lon="13.226788891376415"><ele>146.5</ele><time>2026-04-27T08:49:46.001Z</time></trkpt><trkpt lat="46.12556784875158" lon="13.2266174841301"><ele>146.75</ele><time>2026-04-27T08:49:47.001Z</time></trkpt><trkpt lat="46.125637877445484" lon="13.226458180170747"><ele>147.0</ele><time>2026-04-27T08:49:48.001Z</time></trkpt><trkpt lat="46.12571239085581" lon="13.226312227855036"><ele>146.79999999999998</ele><time>2026-04-27T08:49:49.001Z</time></trkpt><trkpt lat="46.12579917506978" lon="13.226195417851768"><ele>146.6</ele><time>2026-04-27T08:49:50.001Z</time></trkpt><trkpt lat="46.12589295623437" lon="13.226125439031684"><ele>146.39999999999998</ele><time>2026-04-27T08:49:51.001Z</time></trkpt><trkpt lat="46.12599266333382" lon="13.226121637828077"><ele>146.2</ele><time>2026-04-27T08:49:52.001Z</time></trkpt><trkpt lat="46.126104110790884" lon="13.22615558120463"><ele>146.0</ele><time>2026-04-27T08:49:53.001Z</time></trkpt><trkpt lat="46.12624115886294" lon="13.226235369662895"><ele>146.0</ele><time>2026-04-27T08:49:54.001Z</time></trkpt><trkpt lat="46.126410650560196" lon="13.226315632325987"><ele>146.0</ele><time>2026-04-27T08:49:55.001Z</time></trkpt><trkpt lat="46.12662871990537" lon="13.226405651214776"><ele>146.0</ele><time>2026-04-27T08:49:56.001Z</time></trkpt><trkpt lat="46.126872440769525" lon="13.226514382664389"><ele>147.5</ele><time>2026-04-27T08:49:57.001Z</time></trkpt><trkpt lat="46.12713834965391" lon="13.226641756460191"><ele>149.0</ele><time>2026-04-27T08:49:58.001Z</time></trkpt><trkpt lat="46.12739477529075" lon="13.22677362681227"><ele>149.0</ele><time>2026-04-27T08:49:59.001Z</time></trkpt><trkpt lat="46.12761991710001" lon="13.22688951506348"><ele>149.0</ele><time>2026-04-27T08:50:00.001Z</time></trkpt><trkpt lat="46.12781006029371" lon="13.22698571111412"><ele>149.0</ele><time>2026-04-27T08:50:01.001Z</time></trkpt><trkpt lat="46.127981383627876" lon="13.227059793226283"><ele>149.0</ele><time>2026-04-27T08:50:02.001Z</time></trkpt><trkpt lat="46.128155186001905" lon="13.227102584092272"><ele>149.0</ele><time>2026-04-27T08:50:03.001Z</time></trkpt><trkpt lat="46.12835522087679" lon="13.22710994812203"><ele>149.0</ele><time>2026-04-27T08:50:04.001Z</time></trkpt><trkpt lat="46.12858950276458" lon="13.227084897643413"><ele>149.0</ele><time>2026-04-27T08:50:05.001Z</time></trkpt><trkpt lat="46.12883244144254" lon="13.227043103482362"><ele>149.0</ele><time>2026-04-27T08:50:06.001Z</time></trkpt><trkpt lat="46.129038383749" lon="13.22699670465401"><ele>149.5</ele><time>2026-04-27T08:50:07.001Z</time></trkpt><trkpt lat="46.12921197299318" lon="13.226963285539577"><ele>150.0</ele><time>2026-04-27T08:50:08.001Z</time></trkpt><trkpt lat="46.129354656170115" lon="13.226945215117397"><ele>150.5</ele><time>2026-04-27T08:50:09.001Z</time></trkpt><trkpt lat="46.129472669143574" lon="13.226934659362923"><ele>151.0</ele><time>2026-04-27T08:50:10.001Z</time></trkpt><trkpt lat="46.12956154499192" lon="13.226946831436459"><ele>151.0</ele><time>2026-04-27T08:50:11.001Z</time></trkpt><trkpt lat="46.12964280612296" lon="13.226986189198419"><ele>151.0</ele><time>2026-04-27T08:50:12.001Z</time></trkpt><trkpt lat="46.12972143471002" lon="13.227069764735196"><ele>151.0</ele><time>2026-04-27T08:50:13.001Z</time></trkpt><trkpt lat="46.12979632755822" lon="13.22719757544816"><ele>151.0</ele><time>2026-04-27T08:50:14.001Z</time></trkpt><trkpt lat="46.12987503854887" lon="13.227389657666322"><ele>152.66666666666669</ele><time>2026-04-27T08:50:15.001Z</time></trkpt><trkpt lat="46.12997644334354" lon="13.227628827703473"><ele>154.33333333333334</ele><time>2026-04-27T08:50:16.001Z</time></trkpt><trkpt lat="46.1301039783694" lon="13.227859474068284"><ele>156.0</ele><time>2026-04-27T08:50:17.001Z</time></trkpt><trkpt lat="46.13024893062309" lon="13.228043877723112"><ele>155.33333333333334</ele><time>2026-04-27T08:50:18.001Z</time></trkpt><trkpt lat="46.13042168621727" lon="13.228214642649753"><ele>154.66666666666669</ele><time>2026-04-27T08:50:19.001Z</time></trkpt><trkpt lat="46.13062907124452" lon="13.228372055589414"><ele>154.0</ele><time>2026-04-27T08:50:20.001Z</time></trkpt><trkpt lat="46.13086479720437" lon="13.22852837506364"><ele>153.0</ele><time>2026-04-27T08:50:21.001Z</time></trkpt><trkpt lat="46.131085371738486" lon="13.228668794115823"><ele>152.0</ele><time>2026-04-27T08:50:22.001Z</time></trkpt><trkpt lat="46.13126299777474" lon="13.228793441946852"><ele>151.0</ele><time>2026-04-27T08:50:23.001Z</time></trkpt><trkpt lat="46.13141688405412" lon="13.228925676560365"><ele>151.66666666666669</ele><time>2026-04-27T08:50:24.001Z</time></trkpt><trkpt lat="46.13156182259088" lon="13.229075255602101"><ele>152.33333333333334</ele><time>2026-04-27T08:50:25Z</time></trkpt><trkpt lat="46.13169153309166" lon="13.229248186800984"><ele>153.0</ele><time>2026-04-27T08:50:26Z</time></trkpt><trkpt lat="46.131800526676145" lon="13.229420776587917"><ele>153.0</ele><time>2026-04-27T08:50:27Z</time></trkpt><trkpt lat="46.13189400108583" lon="13.229601678152363"><ele>153.0</ele><time>2026-04-27T08:50:28Z</time></trkpt><trkpt lat="46.13198313001199" lon="13.229805365258047"><ele>153.0</ele><time>2026-04-27T08:50:29Z</time></trkpt><trkpt lat="46.132068544547494" lon="13.230036173647798"><ele>153.33333333333334</ele><time>2026-04-27T08:50:30Z</time></trkpt><trkpt lat="46.13215333246828" lon="13.23030788682649"><ele>153.66666666666669</ele><time>2026-04-27T08:50:31Z</time></trkpt><trkpt lat="46.13225010139549" lon="13.230618935333155"><ele>154.0</ele><time>2026-04-27T08:50:32Z</time></trkpt><trkpt lat="46.132361396644036" lon="13.230967213128336"><ele>154.0</ele><time>2026-04-27T08:50:33Z</time></trkpt><trkpt lat="46.13248437660832" lon="13.231339518569564"><ele>154.0</ele><time>2026-04-27T08:50:34Z</time></trkpt><trkpt lat="46.132593969469625" lon="13.23167963356978"><ele>154.0</ele><time>2026-04-27T08:50:35Z</time></trkpt><trkpt lat="46.13269112570402" lon="13.231973442877443"><ele>154.0</ele><time>2026-04-27T08:50:36Z</time></trkpt><trkpt lat="46.13277995023443" lon="13.232245265404062"><ele>154.0</ele><time>2026-04-27T08:50:37Z</time></trkpt><trkpt lat="46.132862019188664" lon="13.23250158631597"><ele>153.66666666666669</ele><time>2026-04-27T08:50:38Z</time></trkpt><trkpt lat="46.132937319673474" lon="13.232737020440526"><ele>153.33333333333334</ele><time>2026-04-27T08:50:39Z</time></trkpt><trkpt lat="46.13300688134584" lon="13.232954747991755"><ele>153.0</ele><time>2026-04-27T08:50:40Z</time></trkpt><trkpt lat="46.1330728659224" lon="13.233157721228642"><ele>153.0</ele><time>2026-04-27T08:50:41Z</time></trkpt><trkpt lat="46.13313931072213" lon="13.233342199920456"><ele>153.0</ele><time>2026-04-27T08:50:42Z</time></trkpt><trkpt lat="46.13321917059868" lon="13.23349419111699"><ele>153.0</ele><time>2026-04-27T08:50:43Z</time></trkpt><trkpt lat="46.133315337819624" lon="13.233643006519731"><ele>153.0</ele><time>2026-04-27T08:50:44Z</time></trkpt><trkpt lat="46.133426515393644" lon="13.23378712622479"><ele>153.0</ele><time>2026-04-27T08:50:45Z</time></trkpt><trkpt lat="46.13355366815198" lon="13.233912057286782"><ele>153.0</ele><time>2026-04-27T08:50:46Z</time></trkpt><trkpt lat="46.13370672409189" lon="13.23401921921102"><ele>153.0</ele><time>2026-04-27T08:50:47Z</time></trkpt><trkpt lat="46.13389666184824" lon="13.234119765608122"><ele>153.66666666666666</ele><time>2026-04-27T08:50:48Z</time></trkpt><trkpt lat="46.13409596084464" lon="13.234220609061135"><ele>154.33333333333331</ele><time>2026-04-27T08:50:49Z</time></trkpt><trkpt lat="46.134298295616674" lon="13.23431783146538"><ele>155.0</ele><time>2026-04-27T08:50:50Z</time></trkpt><trkpt lat="46.13447290552846" lon="13.2344223032302"><ele>155.0</ele><time>2026-04-27T08:50:51Z</time></trkpt><trkpt lat="46.13462357739683" lon="13.2345411267845"><ele>155.0</ele><time>2026-04-27T08:50:52Z</time></trkpt><trkpt lat="46.134776199991094" lon="13.234681647786875"><ele>155.0</ele><time>2026-04-27T08:50:53Z</time></trkpt><trkpt lat="46.134941494513356" lon="13.234845489583316"><ele>154.66666666666666</ele><time>2026-04-27T08:50:54Z</time></trkpt><trkpt lat="46.135088809652835" lon="13.2350114307704"><ele>154.33333333333334</ele><time>2026-04-27T08:50:55Z</time></trkpt><trkpt lat="46.135214789019" lon="13.23517267456891"><ele>154.0</ele><time>2026-04-27T08:50:56Z</time></trkpt><trkpt lat="46.1353175629627" lon="13.23533377021716"><ele>154.0</ele><time>2026-04-27T08:50:57Z</time></trkpt><trkpt lat="46.13540941620321" lon="13.235495249009716"><ele>154.0</ele><time>2026-04-27T08:50:58Z</time></trkpt><trkpt lat="46.13549247469253" lon="13.235649944268081"><ele>154.0</ele><time>2026-04-27T08:50:59Z</time></trkpt><trkpt lat="46.13557128292323" lon="13.235794745066865"><ele>154.0</ele><time>2026-04-27T08:51:00Z</time></trkpt><trkpt lat="46.13565254552882" lon="13.23594080291144"><ele>154.66666666666669</ele><time>2026-04-27T08:51:01Z</time></trkpt><trkpt lat="46.13574374074921" lon="13.236106999094893"><ele>155.33333333333334</ele><time>2026-04-27T08:51:02Z</time></trkpt><trkpt lat="46.13584637547069" lon="13.236280633487427"><ele>156.0</ele><time>2026-04-27T08:51:03Z</time></trkpt><trkpt lat="46.135943115146084" lon="13.236455940131302"><ele>156.33333333333334</ele><time>2026-04-27T08:51:04Z</time></trkpt><trkpt lat="46.136041502570805" lon="13.236636988468547"><ele>156.66666666666669</ele><time>2026-04-27T08:51:05Z</time></trkpt><trkpt lat="46.13613498278939" lon="13.236811996453646"><ele>157.0</ele><time>2026-04-27T08:51:06Z</time></trkpt><trkpt lat="46.136226584879424" lon="13.236989633579695"><ele>157.0</ele><time>2026-04-27T08:51:07Z</time></trkpt><trkpt lat="46.13630422701812" lon="13.237162648775024"><ele>157.0</ele><time>2026-04-27T08:51:08Z</time></trkpt><trkpt lat="46.13637519091091" lon="13.237354586081578"><ele>157.0</ele><time>2026-04-27T08:51:09Z</time></trkpt><trkpt lat="46.136429681923374" lon="13.237559423988934"><ele>157.0</ele><time>2026-04-27T08:51:10Z</time></trkpt><trkpt lat="46.13647245602147" lon="13.237767117504882"><ele>156.33333333333334</ele><time>2026-04-27T08:51:11Z</time></trkpt><trkpt lat="46.136502450427294" lon="13.237981064157678"><ele>155.66666666666666</ele><time>2026-04-27T08:51:12Z</time></trkpt><trkpt lat="46.136519443223875" lon="13.23819848119247"><ele>155.0</ele><time>2026-04-27T08:51:13Z</time></trkpt><trkpt lat="46.13652434451309" lon="13.238417133542402"><ele>154.66666666666666</ele><time>2026-04-27T08:51:14Z</time></trkpt><trkpt lat="46.13651879863249" lon="13.238645263349694"><ele>154.33333333333334</ele><time>2026-04-27T08:51:15Z</time></trkpt><trkpt lat="46.136521287957315" lon="13.238886247992832"><ele>154.0</ele><time>2026-04-27T08:51:16Z</time></trkpt><trkpt lat="46.13653936777467" lon="13.23911722723676"><ele>153.75</ele><time>2026-04-27T08:51:17Z</time></trkpt><trkpt lat="46.13654994523959" lon="13.23931936008676"><ele>153.5</ele><time>2026-04-27T08:51:18Z</time></trkpt><trkpt lat="46.136562048908026" lon="13.239525952177816"><ele>153.25</ele><time>2026-04-27T08:51:19Z</time></trkpt><trkpt lat="46.13657289461323" lon="13.239737038997209"><ele>153.0</ele><time>2026-04-27T08:51:20Z</time></trkpt><trkpt lat="46.1365852635566" lon="13.239933784888475"><ele>153.5</ele><time>2026-04-27T08:51:21Z</time></trkpt><trkpt lat="46.1365907060421" lon="13.240112408278543"><ele>154.0</ele><time>2026-04-27T08:51:22.001Z</time></trkpt><trkpt lat="46.13659522873533" lon="13.24028816869236"><ele>154.5</ele><time>2026-04-27T08:51:23.001Z</time></trkpt><trkpt lat="46.13660261750621" lon="13.240469223521883"><ele>155.0</ele><time>2026-04-27T08:51:24.001Z</time></trkpt><trkpt lat="46.136607573667625" lon="13.240640637826397"><ele>155.2</ele><time>2026-04-27T08:51:25.001Z</time></trkpt><trkpt lat="46.13661117124979" lon="13.24079676015893"><ele>155.4</ele><time>2026-04-27T08:51:26.001Z</time></trkpt><trkpt lat="46.13660613987978" lon="13.240947076727036"><ele>155.6</ele><time>2026-04-27T08:51:27.001Z</time></trkpt><trkpt lat="46.136591598931915" lon="13.241081586586102"><ele>155.8</ele><time>2026-04-27T08:51:28.001Z</time></trkpt><trkpt lat="46.13657000577376" lon="13.241210365898317"><ele>156.0</ele><time>2026-04-27T08:51:29.001Z</time></trkpt><trkpt lat="46.13654973096719" lon="13.24131777396039"><ele>156.25</ele><time>2026-04-27T08:51:30.001Z</time></trkpt><trkpt lat="46.13653252284998" lon="13.241410593074743"><ele>156.5</ele><time>2026-04-27T08:51:32.001Z</time></trkpt><trkpt lat="46.13654101959361" lon="13.241678171345859"><ele>156.75</ele><time>2026-04-27T08:51:43.001Z</time></trkpt><trkpt lat="46.13654870331641" lon="13.241889645965973"><ele>157.0</ele><time>2026-04-27T08:51:44.001Z</time></trkpt><trkpt lat="46.136548464160875" lon="13.242086569812395"><ele>156.5</ele><time>2026-04-27T08:51:45.001Z</time></trkpt><trkpt lat="46.13652848682414" lon="13.242263197793106"><ele>156.0</ele><time>2026-04-27T08:51:46.001Z</time></trkpt><trkpt lat="46.13653127810004" lon="13.24242775732081"><ele>155.5</ele><time>2026-04-27T08:51:47.001Z</time></trkpt><trkpt lat="46.136514894935125" lon="13.242598669521987"><ele>155.0</ele><time>2026-04-27T08:51:48.001Z</time></trkpt><trkpt lat="46.136497728603125" lon="13.24277875153694"><ele>153.75</ele><time>2026-04-27T08:51:49.001Z</time></trkpt><trkpt lat="46.1364837719567" lon="13.24297343616176"><ele>152.5</ele><time>2026-04-27T08:51:50.001Z</time></trkpt><trkpt lat="46.13647877553237" lon="13.243151429808913"><ele>151.25</ele><time>2026-04-27T08:51:51.001Z</time></trkpt><trkpt lat="46.136493336432785" lon="13.243330262741463"><ele>150.0</ele><time>2026-04-27T08:51:52.001Z</time></trkpt><trkpt lat="46.13649410994516" lon="13.24353552134901"><ele>150.0</ele><time>2026-04-27T08:51:53.001Z</time></trkpt><trkpt lat="46.13650130638673" lon="13.243740767808985"><ele>150.0</ele><time>2026-04-27T08:51:54.001Z</time></trkpt><trkpt lat="46.13648069344037" lon="13.243965372646276"><ele>150.0</ele><time>2026-04-27T08:51:55.001Z</time></trkpt><trkpt lat="46.136492995676484" lon="13.244164873899367"><ele>150.0</ele><time>2026-04-27T08:51:56.001Z</time></trkpt><trkpt lat="46.1364903556181" lon="13.244398723380094"><ele>149.66666666666666</ele><time>2026-04-27T08:51:57.001Z</time></trkpt><trkpt lat="46.1364827878393" lon="13.244687643505545"><ele>149.33333333333331</ele><time>2026-04-27T08:51:58.001Z</time></trkpt><trkpt lat="46.136470882320715" lon="13.244958079429647"><ele>149.0</ele><time>2026-04-27T08:51:59.001Z</time></trkpt><trkpt lat="46.13646341608218" lon="13.245208352058272"><ele>148.66666666666666</ele><time>2026-04-27T08:52:00.001Z</time></trkpt><trkpt lat="46.13645974863016" lon="13.245438161100356"><ele>148.33333333333334</ele><time>2026-04-27T08:52:01.001Z</time></trkpt><trkpt lat="46.136454207706315" lon="13.245682832459387"><ele>148.0</ele><time>2026-04-27T08:52:02.001Z</time></trkpt><trkpt lat="46.13644880630972" lon="13.245924910673569"><ele>147.5</ele><time>2026-04-27T08:52:03.001Z</time></trkpt><trkpt lat="46.13644065849234" lon="13.246135438932123"><ele>147.0</ele><time>2026-04-27T08:52:04.001Z</time></trkpt><trkpt lat="46.13643581382774" lon="13.246332793123408"><ele>146.5</ele><time>2026-04-27T08:52:05.001Z</time></trkpt><trkpt lat="46.13643357502891" lon="13.246533297143998"><ele>146.0</ele><time>2026-04-27T08:52:06.001Z</time></trkpt><trkpt lat="46.1364329777304" lon="13.246741428982343"><ele>146.0</ele><time>2026-04-27T08:52:07.001Z</time></trkpt><trkpt lat="46.13642845599102" lon="13.24692950674746"><ele>146.0</ele><time>2026-04-27T08:52:08.001Z</time></trkpt><trkpt lat="46.136421726706025" lon="13.247102182334602"><ele>146.0</ele><time>2026-04-27T08:52:09.001Z</time></trkpt><trkpt lat="46.136413872193934" lon="13.24725658273659"><ele>146.0</ele><time>2026-04-27T08:52:10.001Z</time></trkpt><trkpt lat="46.13640447016921" lon="13.247400651228745"><ele>146.25</ele><time>2026-04-27T08:52:11.001Z</time></trkpt><trkpt lat="46.1363991964816" lon="13.247537160075767"><ele>146.5</ele><time>2026-04-27T08:52:12.001Z</time></trkpt><trkpt lat="46.136403825503805" lon="13.24769143443021"><ele>146.75</ele><time>2026-04-27T08:52:13.001Z</time></trkpt><trkpt lat="46.13640296577635" lon="13.247865858359686"><ele>147.0</ele><time>2026-04-27T08:52:14.001Z</time></trkpt><trkpt lat="46.136401281174564" lon="13.248050263405254"><ele>147.2</ele><time>2026-04-27T08:52:15.001Z</time></trkpt><trkpt lat="46.13640237049826" lon="13.248216649356294"><ele>147.39999999999998</ele><time>2026-04-27T08:52:16.001Z</time></trkpt><trkpt lat="46.136405814865405" lon="13.248365066545096"><ele>147.60000000000002</ele><time>2026-04-27T08:52:17.001Z</time></trkpt><trkpt lat="46.13641087410229" lon="13.248494626481857"><ele>147.8</ele><time>2026-04-27T08:52:18.001Z</time></trkpt><trkpt lat="46.13640197086794" lon="13.248605263029507"><ele>148.0</ele><time>2026-04-27T08:52:19.001Z</time></trkpt><trkpt lat="46.13640018336797" lon="13.248701160018179"><ele>148.0</ele><time>2026-04-27T08:52:20.001Z</time></trkpt><trkpt lat="46.13652472368391" lon="13.248829655717008"><ele>148.0</ele><time>2026-04-27T08:52:22.001Z</time></trkpt><trkpt lat="46.13663879068601" lon="13.248903785089936"><ele>148.0</ele><time>2026-04-27T08:52:24.001Z</time></trkpt><trkpt lat="46.13671013499718" lon="13.24896668957773"><ele>148.0</ele><time>2026-04-27T08:52:25.002Z</time></trkpt><trkpt lat="46.136793534688955" lon="13.248989169320112"><ele>148.0</ele><time>2026-04-27T08:52:26.002Z</time></trkpt><trkpt lat="46.13687299923598" lon="13.248995113373097"><ele>148.0</ele><time>2026-04-27T08:52:27.002Z</time></trkpt><trkpt lat="46.13697461450873" lon="13.248995696031388"><ele>148.0</ele><time>2026-04-27T08:52:28.002Z</time></trkpt><trkpt lat="46.137053910160375" lon="13.248992662049204"><ele>148.0</ele><time>2026-04-27T08:52:29.002Z</time></trkpt><trkpt lat="46.13714321968297" lon="13.248987290738901"><ele>148.0</ele><time>2026-04-27T08:52:30.002Z</time></trkpt><trkpt lat="46.13723920876135" lon="13.248980354887735"><ele>148.0</ele><time>2026-04-27T08:52:31Z</time></trkpt><trkpt lat="46.13731671818744" lon="13.248951615027417"><ele>148.0</ele><time>2026-04-27T08:52:32Z</time></trkpt><trkpt lat="46.13738433723247" lon="13.24894728691305"><ele>148.33333333333334</ele><time>2026-04-27T08:52:33Z</time></trkpt><trkpt lat="46.13749237615435" lon="13.248941232126157"><ele>148.66666666666669</ele><time>2026-04-27T08:52:35Z</time></trkpt><trkpt lat="46.13755915641615" lon="13.248936679183316"><ele>149.0</ele><time>2026-04-27T08:52:36Z</time></trkpt><trkpt lat="46.137629950470114" lon="13.248936748466791"><ele>149.33333333333334</ele><time>2026-04-27T08:52:37Z</time></trkpt><trkpt lat="46.13769543297466" lon="13.248938896526969"><ele>149.66666666666666</ele><time>2026-04-27T08:52:38Z</time></trkpt><trkpt lat="46.13775902055157" lon="13.248935121424912"><ele>150.0</ele><time>2026-04-27T08:52:39Z</time></trkpt><trkpt lat="46.1378578201511" lon="13.248933509614853"><ele>150.25</ele><time>2026-04-27T08:52:41Z</time></trkpt><trkpt lat="46.13791655811469" lon="13.248972463992525"><ele>150.5</ele><time>2026-04-27T08:52:57Z</time></trkpt><trkpt lat="46.13805735318324" lon="13.249161002892198"><ele>150.75</ele><time>2026-04-27T08:53:00Z</time></trkpt><trkpt lat="46.13805925277912" lon="13.24928149886614"><ele>151.0</ele><time>2026-04-27T08:53:02Z</time></trkpt><trkpt lat="46.13791608624819" lon="13.249315920803413"><ele>151.0</ele><time>2026-04-27T08:55:59.001Z</time></trkpt><trkpt lat="46.13798372156174" lon="13.249262456234872"><ele>151.0</ele><time>2026-04-27T09:46:16Z</time></trkpt><trkpt lat="46.137970146303445" lon="13.249146953859011"><ele>151.0</ele><time>2026-04-27T09:46:19Z</time></trkpt><trkpt lat="46.13793176070724" lon="13.249058697201017"><ele>151.0</ele><time>2026-04-27T09:46:22Z</time></trkpt><trkpt lat="46.13790644443567" lon="13.248960264987863"><ele>151.0</ele><time>2026-04-27T09:46:27Z</time></trkpt><trkpt lat="46.137815666069" lon="13.248890064489105"><ele>151.0</ele><time>2026-04-27T09:46:39Z</time></trkpt><trkpt lat="46.1376998948972" lon="13.248904926395927"><ele>150.66666666666669</ele><time>2026-04-27T09:46:40Z</time></trkpt><trkpt lat="46.137528381485346" lon="13.248910435409806"><ele>150.33333333333334</ele><time>2026-04-27T09:46:41Z</time></trkpt><trkpt lat="46.137374758049205" lon="13.248928766971995"><ele>150.0</ele><time>2026-04-27T09:46:42Z</time></trkpt><trkpt lat="46.13724353816138" lon="13.248941308110615"><ele>149.6</ele><time>2026-04-27T09:46:43Z</time></trkpt><trkpt lat="46.13712663600768" lon="13.248951531242453"><ele>149.2</ele><time>2026-04-27T09:46:44Z</time></trkpt><trkpt lat="46.13701726670336" lon="13.248950573845066"><ele>148.8</ele><time>2026-04-27T09:46:45Z</time></trkpt><trkpt lat="46.136908744692" lon="13.248946341198806"><ele>148.4</ele><time>2026-04-27T09:46:46Z</time></trkpt><trkpt lat="46.13681982347953" lon="13.248944608798038"><ele>148.0</ele><time>2026-04-27T09:46:47Z</time></trkpt><trkpt lat="46.13673957072514" lon="13.248933052792626"><ele>148.0</ele><time>2026-04-27T09:46:48Z</time></trkpt><trkpt lat="46.136636173851294" lon="13.24885643408364"><ele>148.0</ele><time>2026-04-27T09:46:50Z</time></trkpt><trkpt lat="46.136584472714446" lon="13.248787084462352"><ele>148.0</ele><time>2026-04-27T09:46:51Z</time></trkpt><trkpt lat="46.13652657716531" lon="13.248736894295229"><ele>148.0</ele><time>2026-04-27T09:46:52Z</time></trkpt><trkpt lat="46.136444666601655" lon="13.248663833907457"><ele>148.0</ele><time>2026-04-27T09:46:54Z</time></trkpt><trkpt lat="46.13645453127349" lon="13.248520430909966"><ele>148.0</ele><time>2026-04-27T09:46:55Z</time></trkpt><trkpt lat="46.136442435802316" lon="13.248404620827843"><ele>148.0</ele><time>2026-04-27T09:46:56Z</time></trkpt><trkpt lat="46.13644136070883" lon="13.248257450031083"><ele>148.0</ele><time>2026-04-27T09:46:57Z</time></trkpt><trkpt lat="46.13643830291754" lon="13.248041040004324"><ele>148.0</ele><time>2026-04-27T09:46:58Z</time></trkpt><trkpt lat="46.136443129438355" lon="13.247787564197013"><ele>147.66666666666669</ele><time>2026-04-27T09:46:59Z</time></trkpt><trkpt lat="46.13644455299252" lon="13.24752106436626"><ele>147.33333333333334</ele><time>2026-04-27T09:47:00Z</time></trkpt><trkpt lat="46.13645285629046" lon="13.247278973118387"><ele>147.0</ele><time>2026-04-27T09:47:01Z</time></trkpt><trkpt lat="46.13645385684831" lon="13.247061862818635"><ele>146.66666666666666</ele><time>2026-04-27T09:47:02Z</time></trkpt><trkpt lat="46.136462183655915" lon="13.246848929396094"><ele>146.33333333333331</ele><time>2026-04-27T09:47:03Z</time></trkpt><trkpt lat="46.13647078674369" lon="13.246632378267012"><ele>146.0</ele><time>2026-04-27T09:47:04Z</time></trkpt><trkpt lat="46.136475608237696" lon="13.246403474393244"><ele>145.66666666666666</ele><time>2026-04-27T09:47:05Z</time></trkpt><trkpt lat="46.13647994304835" lon="13.246174994467344"><ele>145.33333333333334</ele><time>2026-04-27T09:47:06Z</time></trkpt><trkpt lat="46.13648559789368" lon="13.245946926141164"><ele>145.0</ele><time>2026-04-27T09:47:06.999Z</time></trkpt><trkpt lat="46.136487556255275" lon="13.245723032403992"><ele>146.0</ele><time>2026-04-27T09:47:07.999Z</time></trkpt><trkpt lat="46.136492589328334" lon="13.245502867516567"><ele>147.0</ele><time>2026-04-27T09:47:08.999Z</time></trkpt><trkpt lat="46.13649654737584" lon="13.245276162830079"><ele>148.0</ele><time>2026-04-27T09:47:09.999Z</time></trkpt><trkpt lat="46.136499916402606" lon="13.245053559763187"><ele>148.0</ele><time>2026-04-27T09:47:10.999Z</time></trkpt><trkpt lat="46.13650923881943" lon="13.244829735767304"><ele>148.0</ele><time>2026-04-27T09:47:11.999Z</time></trkpt><trkpt lat="46.1365117519082" lon="13.244605865245653"><ele>148.0</ele><time>2026-04-27T09:47:12.999Z</time></trkpt><trkpt lat="46.136515915613096" lon="13.244390242685354"><ele>148.25</ele><time>2026-04-27T09:47:13.999Z</time></trkpt><trkpt lat="46.13652116978994" lon="13.244195627890134"><ele>148.5</ele><time>2026-04-27T09:47:14.999Z</time></trkpt><trkpt lat="46.136520152817134" lon="13.244012718345198"><ele>148.75</ele><time>2026-04-27T09:47:15.999Z</time></trkpt><trkpt lat="46.136520116922775" lon="13.243832452526918"><ele>149.0</ele><time>2026-04-27T09:47:16.999Z</time></trkpt><trkpt lat="46.136517700263965" lon="13.243643996258042"><ele>149.25</ele><time>2026-04-27T09:47:17.999Z</time></trkpt><trkpt lat="46.13651430786701" lon="13.24344668876579"><ele>149.5</ele><time>2026-04-27T09:47:18.999Z</time></trkpt><trkpt lat="46.13651629931798" lon="13.243255493490986"><ele>149.75</ele><time>2026-04-27T09:47:19.999Z</time></trkpt><trkpt lat="46.13651853399855" lon="13.243105989374525"><ele>150.0</ele><time>2026-04-27T09:47:20.999Z</time></trkpt><trkpt lat="46.136530323853314" lon="13.242948235627827"><ele>150.0</ele><time>2026-04-27T09:47:21.999Z</time></trkpt><trkpt lat="46.13652307687364" lon="13.24279391935011"><ele>150.0</ele><time>2026-04-27T09:47:22.999Z</time></trkpt><trkpt lat="46.13653556723381" lon="13.242631211727222"><ele>150.0</ele><time>2026-04-27T09:47:23.999Z</time></trkpt><trkpt lat="46.136554879262064" lon="13.242451279916045"><ele>150.0</ele><time>2026-04-27T09:47:24.999Z</time></trkpt><trkpt lat="46.13656376849975" lon="13.242276677721078"><ele>151.2</ele><time>2026-04-27T09:47:25.999Z</time></trkpt><trkpt lat="46.136563345931656" lon="13.242091410836903"><ele>152.4</ele><time>2026-04-27T09:47:26.999Z</time></trkpt><trkpt lat="46.13655974233812" lon="13.241926969787649"><ele>153.6</ele><time>2026-04-27T09:47:27.999Z</time></trkpt><trkpt lat="46.13656147150792" lon="13.241788803581175"><ele>154.8</ele><time>2026-04-27T09:47:28.999Z</time></trkpt><trkpt lat="46.136555857487735" lon="13.241686243274968"><ele>156.0</ele><time>2026-04-27T09:47:29.999Z</time></trkpt><trkpt lat="46.136576006498835" lon="13.241594729118079"><ele>156.0</ele><time>2026-04-27T09:47:31.999Z</time></trkpt><trkpt lat="46.136594275242494" lon="13.241473488633435"><ele>156.0</ele><time>2026-04-27T09:47:38.999Z</time></trkpt><trkpt lat="46.136598043519655" lon="13.241326627127236"><ele>156.0</ele><time>2026-04-27T09:47:39.999Z</time></trkpt><trkpt lat="46.13661134130393" lon="13.241139435015754"><ele>156.0</ele><time>2026-04-27T09:47:40.999Z</time></trkpt><trkpt lat="46.136628364555875" lon="13.240926031952698"><ele>156.0</ele><time>2026-04-27T09:47:41.999Z</time></trkpt><trkpt lat="46.13663851475136" lon="13.24069850089236"><ele>156.0</ele><time>2026-04-27T09:47:42.999Z</time></trkpt><trkpt lat="46.136636923845565" lon="13.240481315183612"><ele>156.0</ele><time>2026-04-27T09:47:43.999Z</time></trkpt><trkpt lat="46.136622422829674" lon="13.2402935698774"><ele>156.0</ele><time>2026-04-27T09:47:44.999Z</time></trkpt><trkpt lat="46.13661450551045" lon="13.240106026137594"><ele>155.75</ele><time>2026-04-27T09:47:45.999Z</time></trkpt><trkpt lat="46.13660620898477" lon="13.239908448707732"><ele>155.5</ele><time>2026-04-27T09:47:46.999Z</time></trkpt><trkpt lat="46.13659919775093" lon="13.239711561784906"><ele>155.25</ele><time>2026-04-27T09:47:47.999Z</time></trkpt><trkpt lat="46.13659342109895" lon="13.239514499586535"><ele>155.0</ele><time>2026-04-27T09:47:48.999Z</time></trkpt><trkpt lat="46.136585564470785" lon="13.239321697571773"><ele>155.0</ele><time>2026-04-27T09:47:49.999Z</time></trkpt><trkpt lat="46.13657533366065" lon="13.239132921919529"><ele>155.0</ele><time>2026-04-27T09:47:50.999Z</time></trkpt><trkpt lat="46.136566093573755" lon="13.238947421290174"><ele>155.0</ele><time>2026-04-27T09:47:51.999Z</time></trkpt><trkpt lat="46.13655900987052" lon="13.23876052744644"><ele>155.0</ele><time>2026-04-27T09:47:52.999Z</time></trkpt><trkpt lat="46.13655738539614" lon="13.238575988211032"><ele>155.0</ele><time>2026-04-27T09:47:53.999Z</time></trkpt><trkpt lat="46.13655370612176" lon="13.238392403068548"><ele>155.0</ele><time>2026-04-27T09:47:54.999Z</time></trkpt><trkpt lat="46.136548465029996" lon="13.23820837276628"><ele>155.0</ele><time>2026-04-27T09:47:55.999Z</time></trkpt><trkpt lat="46.136539940689445" lon="13.238028932808184"><ele>155.0</ele><time>2026-04-27T09:47:56.999Z</time></trkpt><trkpt lat="46.13652373779295" lon="13.23784833923142"><ele>155.0</ele><time>2026-04-27T09:47:57.999Z</time></trkpt><trkpt lat="46.136498448063996" lon="13.237672319931832"><ele>155.0</ele><time>2026-04-27T09:47:59Z</time></trkpt><trkpt lat="46.136456917040235" lon="13.237491543880433"><ele>155.0</ele><time>2026-04-27T09:48:00Z</time></trkpt><trkpt lat="46.13639231775956" lon="13.23729166105039"><ele>155.0</ele><time>2026-04-27T09:48:01Z</time></trkpt><trkpt lat="46.13631016701277" lon="13.237076855297001"><ele>155.33333333333331</ele><time>2026-04-27T09:48:02Z</time></trkpt><trkpt lat="46.136219831804425" lon="13.236869302265417"><ele>155.66666666666666</ele><time>2026-04-27T09:48:03Z</time></trkpt><trkpt lat="46.13611074617336" lon="13.236658973703697"><ele>156.0</ele><time>2026-04-27T09:48:04Z</time></trkpt><trkpt lat="46.135969262629516" lon="13.236422309598325"><ele>156.0</ele><time>2026-04-27T09:48:05Z</time></trkpt><trkpt lat="46.13582401120444" lon="13.236166183126482"><ele>156.0</ele><time>2026-04-27T09:48:06Z</time></trkpt><trkpt lat="46.13569369431614" lon="13.235930145279513"><ele>156.0</ele><time>2026-04-27T09:48:07Z</time></trkpt><trkpt lat="46.13557686760608" lon="13.235717884470278"><ele>155.33333333333334</ele><time>2026-04-27T09:48:08Z</time></trkpt><trkpt lat="46.13546322515222" lon="13.235512407225999"><ele>154.66666666666669</ele><time>2026-04-27T09:48:09Z</time></trkpt><trkpt lat="46.13533987966141" lon="13.23531168743518"><ele>154.0</ele><time>2026-04-27T09:48:10Z</time></trkpt><trkpt lat="46.13521279886848" lon="13.23512058591893"><ele>154.0</ele><time>2026-04-27T09:48:11Z</time></trkpt><trkpt lat="46.13508579998619" lon="13.23495262672517"><ele>154.0</ele><time>2026-04-27T09:48:12Z</time></trkpt><trkpt lat="46.13496008437603" lon="13.234804934634075"><ele>154.0</ele><time>2026-04-27T09:48:13Z</time></trkpt><trkpt lat="46.13482845301376" lon="13.234667327609326"><ele>154.33333333333334</ele><time>2026-04-27T09:48:14Z</time></trkpt><trkpt lat="46.13468505643117" lon="13.234538966447385"><ele>154.66666666666666</ele><time>2026-04-27T09:48:15Z</time></trkpt><trkpt lat="46.13453138782739" lon="13.234421656959938"><ele>155.0</ele><time>2026-04-27T09:48:16Z</time></trkpt><trkpt lat="46.13437118764139" lon="13.234313332545783"><ele>155.0</ele><time>2026-04-27T09:48:17Z</time></trkpt><trkpt lat="46.13420201403667" lon="13.234221239182043"><ele>155.0</ele><time>2026-04-27T09:48:18Z</time></trkpt><trkpt lat="46.13403831501671" lon="13.234140030892302"><ele>155.0</ele><time>2026-04-27T09:48:19Z</time></trkpt><trkpt lat="46.13388469606749" lon="13.23407274641599"><ele>154.33333333333331</ele><time>2026-04-27T09:48:20Z</time></trkpt><trkpt lat="46.13374117726583" lon="13.234006331686041"><ele>153.66666666666666</ele><time>2026-04-27T09:48:21Z</time></trkpt><trkpt lat="46.133602348950085" lon="13.233917263160196"><ele>153.0</ele><time>2026-04-27T09:48:22Z</time></trkpt><trkpt lat="46.133470231199226" lon="13.233797503089237"><ele>153.0</ele><time>2026-04-27T09:48:23Z</time></trkpt><trkpt lat="46.133353347886825" lon="13.233659375456684"><ele>153.0</ele><time>2026-04-27T09:48:24Z</time></trkpt><trkpt lat="46.133253648800924" lon="13.233494492235423"><ele>153.0</ele><time>2026-04-27T09:48:25Z</time></trkpt><trkpt lat="46.133161811343236" lon="13.233310067334951"><ele>152.66666666666666</ele><time>2026-04-27T09:48:26Z</time></trkpt><trkpt lat="46.133081631446764" lon="13.233093255032758"><ele>152.33333333333331</ele><time>2026-04-27T09:48:26.999Z</time></trkpt><trkpt lat="46.13300344432542" lon="13.23285394999437"><ele>152.0</ele><time>2026-04-27T09:48:27.999Z</time></trkpt><trkpt lat="46.13292259846199" lon="13.23257957435707"><ele>152.66666666666666</ele><time>2026-04-27T09:48:28.999Z</time></trkpt><trkpt lat="46.13283713284706" lon="13.23229676042469"><ele>153.33333333333334</ele><time>2026-04-27T09:48:29.999Z</time></trkpt><trkpt lat="46.13274774087486" lon="13.232019270154966"><ele>154.0</ele><time>2026-04-27T09:48:30.999Z</time></trkpt><trkpt lat="46.13265920081738" lon="13.231749755871002"><ele>154.0</ele><time>2026-04-27T09:48:31.999Z</time></trkpt><trkpt lat="46.13257515173533" lon="13.231490163931026"><ele>154.0</ele><time>2026-04-27T09:48:32.999Z</time></trkpt><trkpt lat="46.132497700181304" lon="13.23125656345188"><ele>154.0</ele><time>2026-04-27T09:48:33.999Z</time></trkpt><trkpt lat="46.132417626748435" lon="13.231017896214977"><ele>154.0</ele><time>2026-04-27T09:48:34.999Z</time></trkpt><trkpt lat="46.132339358910656" lon="13.230780009748669"><ele>154.0</ele><time>2026-04-27T09:48:35.999Z</time></trkpt><trkpt lat="46.13226894685576" lon="13.230557931209434"><ele>154.0</ele><time>2026-04-27T09:48:36.999Z</time></trkpt><trkpt lat="46.1321993038754" lon="13.230339695934434"><ele>154.0</ele><time>2026-04-27T09:48:37.999Z</time></trkpt><trkpt lat="46.13212960890563" lon="13.230120929529837"><ele>154.0</ele><time>2026-04-27T09:48:38.999Z</time></trkpt><trkpt lat="46.13205910841694" lon="13.229911426596125"><ele>154.0</ele><time>2026-04-27T09:48:39.999Z</time></trkpt><trkpt lat="46.13198534273951" lon="13.229721235232292"><ele>153.75</ele><time>2026-04-27T09:48:40.999Z</time></trkpt><trkpt lat="46.13190619476893" lon="13.229558399643654"><ele>153.5</ele><time>2026-04-27T09:48:41.999Z</time></trkpt><trkpt lat="46.13182363290863" lon="13.229414779667598"><ele>153.25</ele><time>2026-04-27T09:48:42.999Z</time></trkpt><trkpt lat="46.131737438698266" lon="13.229267399266273"><ele>153.0</ele><time>2026-04-27T09:48:43.999Z</time></trkpt><trkpt lat="46.13164384253681" lon="13.229120220312687"><ele>152.5</ele><time>2026-04-27T09:48:44.999Z</time></trkpt><trkpt lat="46.131534645075526" lon="13.228989812075318"><ele>152.0</ele><time>2026-04-27T09:48:45.999Z</time></trkpt><trkpt lat="46.13141322429324" lon="13.228868964927498"><ele>151.5</ele><time>2026-04-27T09:48:46.999Z</time></trkpt><trkpt lat="46.13127982030824" lon="13.22875902836446"><ele>151.0</ele><time>2026-04-27T09:48:47.999Z</time></trkpt><trkpt lat="46.13113925099604" lon="13.228659707146427"><ele>151.0</ele><time>2026-04-27T09:48:48.999Z</time></trkpt><trkpt lat="46.130996068433646" lon="13.228563187449875"><ele>151.0</ele><time>2026-04-27T09:48:49.999Z</time></trkpt><trkpt lat="46.13084814399442" lon="13.22846338361264"><ele>151.0</ele><time>2026-04-27T09:48:50.999Z</time></trkpt><trkpt lat="46.13070189887131" lon="13.22836108202384"><ele>151.75</ele><time>2026-04-27T09:48:51.999Z</time></trkpt><trkpt lat="46.13055986419955" lon="13.228260698237657"><ele>152.5</ele><time>2026-04-27T09:48:52.999Z</time></trkpt><trkpt lat="46.13043196093549" lon="13.228160212319485"><ele>153.25</ele><time>2026-04-27T09:48:53.999Z</time></trkpt><trkpt lat="46.130316380923205" lon="13.228051960708823"><ele>154.0</ele><time>2026-04-27T09:48:54.999Z</time></trkpt><trkpt lat="46.13020807555587" lon="13.227932216979477"><ele>154.5</ele><time>2026-04-27T09:48:55.999Z</time></trkpt><trkpt lat="46.13010844555349" lon="13.22778577561713"><ele>155.0</ele><time>2026-04-27T09:48:56.999Z</time></trkpt><trkpt lat="46.13002939048241" lon="13.227631358110592"><ele>155.5</ele><time>2026-04-27T09:48:57.999Z</time></trkpt><trkpt lat="46.129977027669106" lon="13.227470560214757"><ele>156.0</ele><time>2026-04-27T09:48:58.999Z</time></trkpt><trkpt lat="46.129937717932236" lon="13.227321022315078"><ele>155.6</ele><time>2026-04-27T09:48:59.999Z</time></trkpt><trkpt lat="46.129912923294285" lon="13.227176393904726"><ele>155.2</ele><time>2026-04-27T09:49:00.999Z</time></trkpt><trkpt lat="46.129915084150284" lon="13.227043439539852"><ele>154.8</ele><time>2026-04-27T09:49:01.999Z</time></trkpt><trkpt lat="46.12992954214613" lon="13.226910367053895"><ele>154.4</ele><time>2026-04-27T09:49:02.999Z</time></trkpt><trkpt lat="46.129927196708806" lon="13.226781059932929"><ele>154.0</ele><time>2026-04-27T09:49:03.999Z</time></trkpt><trkpt lat="46.12991133191824" lon="13.22667736302821"><ele>153.4</ele><time>2026-04-27T09:49:04.999Z</time></trkpt><trkpt lat="46.12983133582076" lon="13.226615351699165"><ele>152.8</ele><time>2026-04-27T09:49:05.999Z</time></trkpt><trkpt lat="46.12975693664477" lon="13.22660546558694"><ele>152.2</ele><time>2026-04-27T09:49:06.999Z</time></trkpt><trkpt lat="46.1296735051614" lon="13.226644891126504"><ele>151.6</ele><time>2026-04-27T09:49:07.999Z</time></trkpt><trkpt lat="46.12957336290387" lon="13.226729165069134"><ele>151.0</ele><time>2026-04-27T09:49:08.999Z</time></trkpt><trkpt lat="46.12943103083839" lon="13.22682937816871"><ele>151.0</ele><time>2026-04-27T09:49:09.999Z</time></trkpt><trkpt lat="46.129250158278985" lon="13.226887866679306"><ele>151.0</ele><time>2026-04-27T09:49:10.999Z</time></trkpt><trkpt lat="46.12904774416612" lon="13.226934274647816"><ele>151.0</ele><time>2026-04-27T09:49:11.999Z</time></trkpt><trkpt lat="46.128854626124905" lon="13.226964246093564"><ele>150.33333333333334</ele><time>2026-04-27T09:49:12.999Z</time></trkpt><trkpt lat="46.12866410052759" lon="13.226983622314588"><ele>149.66666666666666</ele><time>2026-04-27T09:49:13.999Z</time></trkpt><trkpt lat="46.12848029597836" lon="13.226990144487356"><ele>149.0</ele><time>2026-04-27T09:49:14.999Z</time></trkpt><trkpt lat="46.12830064876128" lon="13.226969707238991"><ele>149.0</ele><time>2026-04-27T09:49:15.999Z</time></trkpt><trkpt lat="46.128125189081196" lon="13.22692165239774"><ele>149.0</ele><time>2026-04-27T09:49:16.999Z</time></trkpt><trkpt lat="46.127950563509465" lon="13.226842215634775"><ele>149.0</ele><time>2026-04-27T09:49:17.999Z</time></trkpt><trkpt lat="46.12777398017389" lon="13.226739834016094"><ele>149.0</ele><time>2026-04-27T09:49:18.999Z</time></trkpt><trkpt lat="46.127583002202435" lon="13.22662349307939"><ele>149.0</ele><time>2026-04-27T09:49:19.999Z</time></trkpt><trkpt lat="46.12736860285105" lon="13.226509731696517"><ele>149.0</ele><time>2026-04-27T09:49:20.999Z</time></trkpt><trkpt lat="46.12715798644156" lon="13.226392229586358"><ele>148.5</ele><time>2026-04-27T09:49:21.999Z</time></trkpt><trkpt lat="46.126936214277336" lon="13.226272412256469"><ele>148.0</ele><time>2026-04-27T09:49:22.999Z</time></trkpt><trkpt lat="46.12670972508062" lon="13.226150751215291"><ele>147.33333333333334</ele><time>2026-04-27T09:49:23.999Z</time></trkpt><trkpt lat="46.12651356603182" lon="13.226037950605829"><ele>146.66666666666666</ele><time>2026-04-27T09:49:24.999Z</time></trkpt><trkpt lat="46.12633120669623" lon="13.225940546140869"><ele>146.0</ele><time>2026-04-27T09:49:25.999Z</time></trkpt><trkpt lat="46.12616273646687" lon="13.225860150895597"><ele>146.0</ele><time>2026-04-27T09:49:26.999Z</time></trkpt><trkpt lat="46.126010161844604" lon="13.225802431978215"><ele>146.0</ele><time>2026-04-27T09:49:27.999Z</time></trkpt><trkpt lat="46.12586360147095" lon="13.225763708221182"><ele>146.0</ele><time>2026-04-27T09:49:28.999Z</time></trkpt><trkpt lat="46.12572288083224" lon="13.22573562056672"><ele>146.0</ele><time>2026-04-27T09:49:29.999Z</time></trkpt><trkpt lat="46.12559043029762" lon="13.225710028516309"><ele>146.25</ele><time>2026-04-27T09:49:30.999Z</time></trkpt><trkpt lat="46.125449224329145" lon="13.225697163063048"><ele>146.5</ele><time>2026-04-27T09:49:31.999Z</time></trkpt><trkpt lat="46.12532841080978" lon="13.225703680518404"><ele>146.75</ele><time>2026-04-27T09:49:32.999Z</time></trkpt><trkpt lat="46.12521553873932" lon="13.22573296120273"><ele>147.0</ele><time>2026-04-27T09:49:33.999Z</time></trkpt><trkpt lat="46.1251110628671" lon="13.225776386409288"><ele>147.0</ele><time>2026-04-27T09:49:34.999Z</time></trkpt><trkpt lat="46.12501432268388" lon="13.22583674399861"><ele>147.0</ele><time>2026-04-27T09:49:35.999Z</time></trkpt><trkpt lat="46.12491957264237" lon="13.225910975149404"><ele>147.0</ele><time>2026-04-27T09:49:36.999Z</time></trkpt><trkpt lat="46.124833732243204" lon="13.225991221322944"><ele>147.0</ele><time>2026-04-27T09:49:37.999Z</time></trkpt><trkpt lat="46.12474630280938" lon="13.226075497641906"><ele>147.0</ele><time>2026-04-27T09:49:38.999Z</time></trkpt><trkpt lat="46.12466445862362" lon="13.226151747685437"><ele>147.0</ele><time>2026-04-27T09:49:39.999Z</time></trkpt><trkpt lat="46.12457526146012" lon="13.226225687939191"><ele>147.0</ele><time>2026-04-27T09:49:40.999Z</time></trkpt><trkpt lat="46.12447395578013" lon="13.226290474714986"><ele>147.0</ele><time>2026-04-27T09:49:41.999Z</time></trkpt><trkpt lat="46.124365026193196" lon="13.226340612482346"><ele>147.0</ele><time>2026-04-27T09:49:42.999Z</time></trkpt><trkpt lat="46.12425396666854" lon="13.226388189979348"><ele>147.0</ele><time>2026-04-27T09:49:43.999Z</time></trkpt><trkpt lat="46.124149231080075" lon="13.226427065304522"><ele>146.83333333333334</ele><time>2026-04-27T09:49:44.999Z</time></trkpt><trkpt lat="46.124058045769125" lon="13.226453388270919"><ele>146.66666666666666</ele><time>2026-04-27T09:49:45.999Z</time></trkpt><trkpt lat="46.12397266314543" lon="13.226462566169914"><ele>146.5</ele><time>2026-04-27T09:49:46.999Z</time></trkpt><trkpt lat="46.12389174370324" lon="13.226462874966149"><ele>146.33333333333331</ele><time>2026-04-27T09:49:47.999Z</time></trkpt><trkpt lat="46.12381546957039" lon="13.226444867148018"><ele>146.16666666666666</ele><time>2026-04-27T09:49:48.999Z</time></trkpt><trkpt lat="46.1237434860008" lon="13.226414718884294"><ele>146.0</ele><time>2026-04-27T09:49:49.999Z</time></trkpt><trkpt lat="46.12367558856542" lon="13.226374018809087"><ele>146.0</ele><time>2026-04-27T09:49:50.999Z</time></trkpt><trkpt lat="46.12360706651164" lon="13.22635463813337"><ele>146.0</ele><time>2026-04-27T09:49:51.999Z</time></trkpt><trkpt lat="46.123538344992724" lon="13.22632276729386"><ele>146.0</ele><time>2026-04-27T09:49:53.999Z</time></trkpt><trkpt lat="46.12344247108556" lon="13.226278304083353"><ele>146.0</ele><time>2026-04-27T09:50:51Z</time></trkpt><trkpt lat="46.12337841863136" lon="13.226129465352805"><ele>146.0</ele><time>2026-04-27T09:50:52Z</time></trkpt><trkpt lat="46.12325268200361" lon="13.226023962660358"><ele>145.33333333333331</ele><time>2026-04-27T09:50:53Z</time></trkpt><trkpt lat="46.12311863761724" lon="13.225910469141096"><ele>144.66666666666666</ele><time>2026-04-27T09:50:54Z</time></trkpt><trkpt lat="46.1229684529516" lon="13.225784155288915"><ele>144.0</ele><time>2026-04-27T09:50:55Z</time></trkpt><trkpt lat="46.12281897724005" lon="13.225648314269558"><ele>144.33333333333334</ele><time>2026-04-27T09:50:56Z</time></trkpt><trkpt lat="46.1226647769047" lon="13.225494894102546"><ele>144.66666666666669</ele><time>2026-04-27T09:50:57Z</time></trkpt><trkpt lat="46.12250914934064" lon="13.225335202540048"><ele>145.0</ele><time>2026-04-27T09:50:58Z</time></trkpt><trkpt lat="46.12235350617129" lon="13.225176190406401"><ele>145.33333333333334</ele><time>2026-04-27T09:50:59Z</time></trkpt><trkpt lat="46.122200669932134" lon="13.225022043368396"><ele>145.66666666666666</ele><time>2026-04-27T09:51:00Z</time></trkpt><trkpt lat="46.12204882593611" lon="13.224867312780884"><ele>146.0</ele><time>2026-04-27T09:51:01Z</time></trkpt><trkpt lat="46.12190711530754" lon="13.224723303888496"><ele>144.66666666666666</ele><time>2026-04-27T09:51:02Z</time></trkpt><trkpt lat="46.12177005564459" lon="13.224585473980166"><ele>143.33333333333334</ele><time>2026-04-27T09:51:03Z</time></trkpt><trkpt lat="46.12163471248526" lon="13.224446922559904"><ele>142.0</ele><time>2026-04-27T09:51:04Z</time></trkpt><trkpt lat="46.121497950957384" lon="13.224308485300687"><ele>141.66666666666669</ele><time>2026-04-27T09:51:05Z</time></trkpt><trkpt lat="46.121360306682526" lon="13.22416569358557"><ele>141.33333333333334</ele><time>2026-04-27T09:51:06Z</time></trkpt><trkpt lat="46.12122330147944" lon="13.22402540795117"><ele>141.0</ele><time>2026-04-27T09:51:07Z</time></trkpt><trkpt lat="46.12108493533631" lon="13.223884123741378"><ele>141.0</ele><time>2026-04-27T09:51:08Z</time></trkpt><trkpt lat="46.1209461641962" lon="13.223745394610654"><ele>141.0</ele><time>2026-04-27T09:51:09Z</time></trkpt><trkpt lat="46.12080266098297" lon="13.223602244527735"><ele>141.0</ele><time>2026-04-27T09:51:10Z</time></trkpt><trkpt lat="46.12066432516186" lon="13.223463988373057"><ele>141.33333333333334</ele><time>2026-04-27T09:51:11Z</time></trkpt><trkpt lat="46.12052182792921" lon="13.223322360399525"><ele>141.66666666666669</ele><time>2026-04-27T09:51:12Z</time></trkpt><trkpt lat="46.12038172083314" lon="13.223180150748334"><ele>142.0</ele><time>2026-04-27T09:51:13Z</time></trkpt><trkpt lat="46.120238106951255" lon="13.22303529179975"><ele>142.0</ele><time>2026-04-27T09:51:14Z</time></trkpt><trkpt lat="46.12009383013877" lon="13.22289013784345"><ele>142.0</ele><time>2026-04-27T09:51:15Z</time></trkpt><trkpt lat="46.119949378933704" lon="13.222746518737257"><ele>142.0</ele><time>2026-04-27T09:51:16Z</time></trkpt><trkpt lat="46.119801505484084" lon="13.22259703380216"><ele>142.33333333333334</ele><time>2026-04-27T09:51:17Z</time></trkpt><trkpt lat="46.119653295798955" lon="13.222447127963381"><ele>142.66666666666666</ele><time>2026-04-27T09:51:18Z</time></trkpt><trkpt lat="46.11950160095967" lon="13.222292257430611"><ele>143.0</ele><time>2026-04-27T09:51:18.999Z</time></trkpt><trkpt lat="46.119350095123515" lon="13.222138367332164"><ele>142.66666666666666</ele><time>2026-04-27T09:51:19.999Z</time></trkpt><trkpt lat="46.11919613094509" lon="13.2219853973729"><ele>142.33333333333334</ele><time>2026-04-27T09:51:20.999Z</time></trkpt><trkpt lat="46.11904031760914" lon="13.22182745893153"><ele>142.0</ele><time>2026-04-27T09:51:21.999Z</time></trkpt><trkpt lat="46.118883370000155" lon="13.221670049666985"><ele>142.0</ele><time>2026-04-27T09:51:22.999Z</time></trkpt><trkpt lat="46.1187256642091" lon="13.22150997095712"><ele>142.0</ele><time>2026-04-27T09:51:23.999Z</time></trkpt><trkpt lat="46.11856532759808" lon="13.221346220982564"><ele>142.0</ele><time>2026-04-27T09:51:24.999Z</time></trkpt><trkpt lat="46.118404505049526" lon="13.22118351432524"><ele>141.66666666666669</ele><time>2026-04-27T09:51:25.999Z</time></trkpt><trkpt lat="46.118240722642454" lon="13.22101397194137"><ele>141.33333333333334</ele><time>2026-04-27T09:51:26.999Z</time></trkpt><trkpt lat="46.11807844510326" lon="13.220836090821903"><ele>141.0</ele><time>2026-04-27T09:51:27.999Z</time></trkpt><trkpt lat="46.117909814563696" lon="13.220657742844963"><ele>141.0</ele><time>2026-04-27T09:51:28.999Z</time></trkpt><trkpt lat="46.117742388120526" lon="13.220478857628043"><ele>141.0</ele><time>2026-04-27T09:51:29.999Z</time></trkpt><trkpt lat="46.11757519989434" lon="13.220307348247214"><ele>141.0</ele><time>2026-04-27T09:51:30.999Z</time></trkpt><trkpt lat="46.117406366843255" lon="13.22013747491936"><ele>140.66666666666666</ele><time>2026-04-27T09:51:31.999Z</time></trkpt><trkpt lat="46.11723708248139" lon="13.219968871631515"><ele>140.33333333333331</ele><time>2026-04-27T09:51:32.999Z</time></trkpt><trkpt lat="46.117072140018195" lon="13.219802606734566"><ele>140.0</ele><time>2026-04-27T09:51:33.999Z</time></trkpt><trkpt lat="46.116902696995524" lon="13.219637933217177"><ele>140.0</ele><time>2026-04-27T09:51:34.999Z</time></trkpt><trkpt lat="46.116735856927974" lon="13.219471739467167"><ele>140.0</ele><time>2026-04-27T09:51:35.999Z</time></trkpt><trkpt lat="46.116568026886426" lon="13.219306085942048"><ele>140.0</ele><time>2026-04-27T09:51:36.999Z</time></trkpt><trkpt lat="46.11640038877318" lon="13.21913817862004"><ele>140.33333333333331</ele><time>2026-04-27T09:51:37.999Z</time></trkpt><trkpt lat="46.11623346690375" lon="13.218967237081452"><ele>140.66666666666666</ele><time>2026-04-27T09:51:38.999Z</time></trkpt><trkpt lat="46.11606481864837" lon="13.218794679731804"><ele>141.0</ele><time>2026-04-27T09:51:39.999Z</time></trkpt><trkpt lat="46.11590047278278" lon="13.21862637479243"><ele>140.33333333333334</ele><time>2026-04-27T09:51:40.999Z</time></trkpt><trkpt lat="46.115733863978114" lon="13.218458713928221"><ele>139.66666666666669</ele><time>2026-04-27T09:51:41.999Z</time></trkpt><trkpt lat="46.11556839937841" lon="13.218289222362158"><ele>139.0</ele><time>2026-04-27T09:51:42.999Z</time></trkpt><trkpt lat="46.11540560685612" lon="13.218113513729357"><ele>139.0</ele><time>2026-04-27T09:51:43.999Z</time></trkpt><trkpt lat="46.11524442369714" lon="13.217931686691859"><ele>139.0</ele><time>2026-04-27T09:51:44.999Z</time></trkpt><trkpt lat="46.11508888513113" lon="13.217743804575253"><ele>139.0</ele><time>2026-04-27T09:51:45.999Z</time></trkpt><trkpt lat="46.11493341507918" lon="13.217552185852616"><ele>139.33333333333334</ele><time>2026-04-27T09:51:46.999Z</time></trkpt><trkpt lat="46.11478152637043" lon="13.21735883678815"><ele>139.66666666666666</ele><time>2026-04-27T09:51:47.999Z</time></trkpt><trkpt lat="46.114630305353515" lon="13.217162650192982"><ele>140.0</ele><time>2026-04-27T09:51:48.999Z</time></trkpt><trkpt lat="46.114484954858135" lon="13.216957437175095"><ele>140.0</ele><time>2026-04-27T09:51:49.999Z</time></trkpt><trkpt lat="46.114342059003626" lon="13.216751708391442"><ele>140.0</ele><time>2026-04-27T09:51:50.999Z</time></trkpt><trkpt lat="46.11419983574422" lon="13.216537061648536"><ele>140.0</ele><time>2026-04-27T09:51:51.999Z</time></trkpt><trkpt lat="46.1140612395112" lon="13.216324907045271"><ele>139.66666666666666</ele><time>2026-04-27T09:51:52.999Z</time></trkpt><trkpt lat="46.11392502704701" lon="13.216098421013543"><ele>139.33333333333334</ele><time>2026-04-27T09:51:53.999Z</time></trkpt><trkpt lat="46.11379066635543" lon="13.215867056879668"><ele>139.0</ele><time>2026-04-27T09:51:55Z</time></trkpt><trkpt lat="46.113656625837706" lon="13.215631230863464"><ele>139.0</ele><time>2026-04-27T09:51:56Z</time></trkpt><trkpt lat="46.113526525693935" lon="13.215391941743613"><ele>139.0</ele><time>2026-04-27T09:51:57Z</time></trkpt><trkpt lat="46.113399250727575" lon="13.215151383483388"><ele>139.0</ele><time>2026-04-27T09:51:58Z</time></trkpt><trkpt lat="46.113275740083566" lon="13.214906840511242"><ele>138.33333333333334</ele><time>2026-04-27T09:51:59Z</time></trkpt><trkpt lat="46.113157518202726" lon="13.214660460731507"><ele>137.66666666666666</ele><time>2026-04-27T09:52:00Z</time></trkpt><trkpt lat="46.113038541157046" lon="13.21441352023926"><ele>137.0</ele><time>2026-04-27T09:52:01Z</time></trkpt><trkpt lat="46.11292446093399" lon="13.214156740249884"><ele>137.0</ele><time>2026-04-27T09:52:02Z</time></trkpt><trkpt lat="46.112814058287405" lon="13.213901265319311"><ele>137.0</ele><time>2026-04-27T09:52:03Z</time></trkpt><trkpt lat="46.11270226247715" lon="13.213643851265818"><ele>137.0</ele><time>2026-04-27T09:52:04Z</time></trkpt><trkpt lat="46.11259152024587" lon="13.213385435246913"><ele>137.33333333333331</ele><time>2026-04-27T09:52:05Z</time></trkpt><trkpt lat="46.11247935555284" lon="13.213121654926818"><ele>137.66666666666666</ele><time>2026-04-27T09:52:06Z</time></trkpt><trkpt lat="46.11237129713391" lon="13.212856208525771"><ele>138.0</ele><time>2026-04-27T09:52:07Z</time></trkpt><trkpt lat="46.11225960304688" lon="13.21259010875968"><ele>137.66666666666666</ele><time>2026-04-27T09:52:08Z</time></trkpt><trkpt lat="46.112148383316416" lon="13.21232193183047"><ele>137.33333333333331</ele><time>2026-04-27T09:52:09Z</time></trkpt><trkpt lat="46.1120382457906" lon="13.212054856595769"><ele>137.0</ele><time>2026-04-27T09:52:10Z</time></trkpt><trkpt lat="46.111932408594996" lon="13.211790363690874"><ele>137.0</ele><time>2026-04-27T09:52:11Z</time></trkpt><trkpt lat="46.11182955575255" lon="13.211543383866651"><ele>137.0</ele><time>2026-04-27T09:52:12Z</time></trkpt><trkpt lat="46.11172740004371" lon="13.21129874738167"><ele>137.0</ele><time>2026-04-27T09:52:13Z</time></trkpt><trkpt lat="46.11162436799446" lon="13.211051066619087"><ele>136.0</ele><time>2026-04-27T09:52:14Z</time></trkpt><trkpt lat="46.1115214027469" lon="13.210800379928715"><ele>135.0</ele><time>2026-04-27T09:52:15Z</time></trkpt><trkpt lat="46.111417991870695" lon="13.210551371463792"><ele>134.0</ele><time>2026-04-27T09:52:16Z</time></trkpt><trkpt lat="46.11131318534762" lon="13.210305390525166"><ele>134.0</ele><time>2026-04-27T09:52:17Z</time></trkpt><trkpt lat="46.1112220439587" lon="13.210047120204631"><ele>134.0</ele><time>2026-04-27T09:52:18Z</time></trkpt><trkpt lat="46.111112902148854" lon="13.20979731578865"><ele>134.0</ele><time>2026-04-27T09:52:19Z</time></trkpt><trkpt lat="46.11100940175911" lon="13.209556487894"><ele>133.0</ele><time>2026-04-27T09:52:20Z</time></trkpt><trkpt lat="46.11090591451042" lon="13.209309474577624"><ele>132.0</ele><time>2026-04-27T09:52:21Z</time></trkpt><trkpt lat="46.11080399807223" lon="13.209060705154148"><ele>131.0</ele><time>2026-04-27T09:52:22Z</time></trkpt><trkpt lat="46.110700942707155" lon="13.208815068137275"><ele>131.0</ele><time>2026-04-27T09:52:23Z</time></trkpt><trkpt lat="46.11059611843374" lon="13.20857312212241"><ele>131.0</ele><time>2026-04-27T09:52:24Z</time></trkpt><trkpt lat="46.11049509251525" lon="13.208327493560395"><ele>131.0</ele><time>2026-04-27T09:52:25Z</time></trkpt><trkpt lat="46.110389870129225" lon="13.20808216715313"><ele>131.0</ele><time>2026-04-27T09:52:26Z</time></trkpt><trkpt lat="46.110290096796724" lon="13.207838189324086"><ele>131.0</ele><time>2026-04-27T09:52:27Z</time></trkpt><trkpt lat="46.11019645741511" lon="13.207588093543585"><ele>131.0</ele><time>2026-04-27T09:52:28Z</time></trkpt><trkpt lat="46.11010527506463" lon="13.207332489917448"><ele>131.33333333333331</ele><time>2026-04-27T09:52:29Z</time></trkpt><trkpt lat="46.11001755503031" lon="13.207075306947196"><ele>131.66666666666666</ele><time>2026-04-27T09:52:30Z</time></trkpt><trkpt lat="46.10992897966247" lon="13.20681155054146"><ele>132.0</ele><time>2026-04-27T09:52:31Z</time></trkpt><trkpt lat="46.10984100726843" lon="13.206547605873222"><ele>131.66666666666666</ele><time>2026-04-27T09:52:32Z</time></trkpt><trkpt lat="46.10975323056285" lon="13.206282861761563"><ele>131.33333333333331</ele><time>2026-04-27T09:52:33Z</time></trkpt><trkpt lat="46.109667410458464" lon="13.206017169119775"><ele>131.0</ele><time>2026-04-27T09:52:34Z</time></trkpt><trkpt lat="46.109579644517055" lon="13.205754884787815"><ele>130.66666666666666</ele><time>2026-04-27T09:52:35Z</time></trkpt><trkpt lat="46.10949095004391" lon="13.205493393281701"><ele>130.33333333333334</ele><time>2026-04-27T09:52:36Z</time></trkpt><trkpt lat="46.109402707952206" lon="13.20523327954241"><ele>130.0</ele><time>2026-04-27T09:52:37Z</time></trkpt><trkpt lat="46.1093147378387" lon="13.204972339064572"><ele>129.66666666666669</ele><time>2026-04-27T09:52:38Z</time></trkpt><trkpt lat="46.10922981552464" lon="13.204717821441168"><ele>129.33333333333334</ele><time>2026-04-27T09:52:39Z</time></trkpt><trkpt lat="46.10914295252725" lon="13.204465527346176"><ele>129.0</ele><time>2026-04-27T09:52:40Z</time></trkpt><trkpt lat="46.10904728626307" lon="13.204217365422593"><ele>129.0</ele><time>2026-04-27T09:52:41Z</time></trkpt><trkpt lat="46.10894715372285" lon="13.203970885663994"><ele>129.0</ele><time>2026-04-27T09:52:42Z</time></trkpt><trkpt lat="46.10884721080504" lon="13.20373595793984"><ele>129.0</ele><time>2026-04-27T09:52:43Z</time></trkpt><trkpt lat="46.10875401889758" lon="13.203518234205953"><ele>129.0</ele><time>2026-04-27T09:52:44Z</time></trkpt><trkpt lat="46.10866144039188" lon="13.203303245805824"><ele>129.0</ele><time>2026-04-27T09:52:45Z</time></trkpt><trkpt lat="46.10857504644975" lon="13.203099281805137"><ele>129.0</ele><time>2026-04-27T09:52:46Z</time></trkpt><trkpt lat="46.10849389825" lon="13.202905620519614"><ele>129.0</ele><time>2026-04-27T09:52:47Z</time></trkpt><trkpt lat="46.10841805569328" lon="13.20272631930969"><ele>129.0</ele><time>2026-04-27T09:52:48Z</time></trkpt><trkpt lat="46.1083442973256" lon="13.202563411881721"><ele>129.0</ele><time>2026-04-27T09:52:49Z</time></trkpt><trkpt lat="46.1082660983615" lon="13.202416182881661"><ele>129.0</ele><time>2026-04-27T09:52:50Z</time></trkpt><trkpt lat="46.10818111930287" lon="13.202285036731542"><ele>129.0</ele><time>2026-04-27T09:52:51Z</time></trkpt><trkpt lat="46.10809205541392" lon="13.202165963376885"><ele>129.0</ele><time>2026-04-27T09:52:52Z</time></trkpt><trkpt lat="46.10799018836827" lon="13.202048799043787"><ele>129.0</ele><time>2026-04-27T09:52:53Z</time></trkpt><trkpt lat="46.10788663845015" lon="13.201940139312109"><ele>129.0</ele><time>2026-04-27T09:52:54Z</time></trkpt><trkpt lat="46.107778072196034" lon="13.201844452900454"><ele>129.0</ele><time>2026-04-27T09:52:55Z</time></trkpt><trkpt lat="46.1076692514615" lon="13.201762577524617"><ele>129.0</ele><time>2026-04-27T09:52:56Z</time></trkpt><trkpt lat="46.10754843222358" lon="13.20168957340738"><ele>129.0</ele><time>2026-04-27T09:52:57Z</time></trkpt><trkpt lat="46.10741315067352" lon="13.201632702106686"><ele>129.0</ele><time>2026-04-27T09:52:58Z</time></trkpt><trkpt lat="46.107269393014164" lon="13.20158731534116"><ele>128.66666666666666</ele><time>2026-04-27T09:52:59Z</time></trkpt><trkpt lat="46.10712246304893" lon="13.201551102105869"><ele>128.33333333333331</ele><time>2026-04-27T09:53:00Z</time></trkpt><trkpt lat="46.106972814300036" lon="13.20153563676243"><ele>128.0</ele><time>2026-04-27T09:53:01Z</time></trkpt><trkpt lat="46.10681317357328" lon="13.201537393248014"><ele>128.0</ele><time>2026-04-27T09:53:02Z</time></trkpt><trkpt lat="46.106655922761135" lon="13.201556929569795"><ele>128.0</ele><time>2026-04-27T09:53:03Z</time></trkpt><trkpt lat="46.10650584246552" lon="13.201582536261297"><ele>128.0</ele><time>2026-04-27T09:53:04Z</time></trkpt><trkpt lat="46.10635196248266" lon="13.201609069506425"><ele>127.66666666666666</ele><time>2026-04-27T09:53:05Z</time></trkpt><trkpt lat="46.10619869800624" lon="13.20163423226119"><ele>127.33333333333334</ele><time>2026-04-27T09:53:06Z</time></trkpt><trkpt lat="46.10604311204741" lon="13.2016498866598"><ele>127.0</ele><time>2026-04-27T09:53:07Z</time></trkpt><trkpt lat="46.10588412013762" lon="13.201657977688814"><ele>127.33333333333334</ele><time>2026-04-27T09:53:08Z</time></trkpt><trkpt lat="46.10572438214546" lon="13.201656277029985"><ele>127.66666666666666</ele><time>2026-04-27T09:53:09Z</time></trkpt><trkpt lat="46.10556190554922" lon="13.201647224108356"><ele>128.0</ele><time>2026-04-27T09:53:10Z</time></trkpt><trkpt lat="46.105398468342706" lon="13.201628446041747"><ele>128.0</ele><time>2026-04-27T09:53:11Z</time></trkpt><trkpt lat="46.10524007966989" lon="13.201602944238617"><ele>128.0</ele><time>2026-04-27T09:53:12Z</time></trkpt><trkpt lat="46.10509003126582" lon="13.201565016182437"><ele>128.0</ele><time>2026-04-27T09:53:13Z</time></trkpt><trkpt lat="46.10493581533346" lon="13.201518942558414"><ele>127.66666666666666</ele><time>2026-04-27T09:53:14Z</time></trkpt><trkpt lat="46.1047812996246" lon="13.201463434159466"><ele>127.33333333333334</ele><time>2026-04-27T09:53:15Z</time></trkpt><trkpt lat="46.104621393235426" lon="13.20140040793786"><ele>127.0</ele><time>2026-04-27T09:53:16Z</time></trkpt><trkpt lat="46.10445688571516" lon="13.2013285265463"><ele>127.0</ele><time>2026-04-27T09:53:17Z</time></trkpt><trkpt lat="46.10429076740285" lon="13.201251529587877"><ele>127.0</ele><time>2026-04-27T09:53:18Z</time></trkpt><trkpt lat="46.10411704000084" lon="13.20116801542291"><ele>127.0</ele><time>2026-04-27T09:53:19Z</time></trkpt><trkpt lat="46.103943857183005" lon="13.201082133506496"><ele>126.66666666666667</ele><time>2026-04-27T09:53:20Z</time></trkpt><trkpt lat="46.10377946047639" lon="13.20099748446531"><ele>126.33333333333334</ele><time>2026-04-27T09:53:21Z</time></trkpt><trkpt lat="46.10361451180707" lon="13.200916947213017"><ele>126.0</ele><time>2026-04-27T09:53:22Z</time></trkpt><trkpt lat="46.103448859872536" lon="13.200839116045904"><ele>126.0</ele><time>2026-04-27T09:53:23Z</time></trkpt><trkpt lat="46.103282894231185" lon="13.200760257348582"><ele>126.0</ele><time>2026-04-27T09:53:24Z</time></trkpt><trkpt lat="46.10311653787604" lon="13.200681555718615"><ele>126.0</ele><time>2026-04-27T09:53:24.999Z</time></trkpt><trkpt lat="46.102954252671246" lon="13.200603504587837"><ele>125.0</ele><time>2026-04-27T09:53:25.999Z</time></trkpt><trkpt lat="46.10280349673668" lon="13.200527831557718"><ele>124.0</ele><time>2026-04-27T09:53:26.999Z</time></trkpt><trkpt lat="46.102655026891966" lon="13.200455895994937"><ele>123.0</ele><time>2026-04-27T09:53:27.999Z</time></trkpt><trkpt lat="46.10250341487429" lon="13.200385775900893"><ele>123.0</ele><time>2026-04-27T09:53:28.999Z</time></trkpt><trkpt lat="46.102350393333225" lon="13.200315940056083"><ele>123.0</ele><time>2026-04-27T09:53:29.999Z</time></trkpt><trkpt lat="46.1021937025152" lon="13.200243812708553"><ele>123.0</ele><time>2026-04-27T09:53:30.999Z</time></trkpt><trkpt lat="46.10203237349118" lon="13.200176683766877"><ele>123.0</ele><time>2026-04-27T09:53:31.999Z</time></trkpt><trkpt lat="46.10185118418871" lon="13.200104929846265"><ele>123.0</ele><time>2026-04-27T09:53:32.999Z</time></trkpt><trkpt lat="46.101656618509956" lon="13.200022312384634"><ele>123.0</ele><time>2026-04-27T09:53:33.999Z</time></trkpt><trkpt lat="46.101449325810194" lon="13.199934773825987"><ele>124.0</ele><time>2026-04-27T09:53:34.999Z</time></trkpt><trkpt lat="46.10122945165083" lon="13.19983925769032"><ele>125.0</ele><time>2026-04-27T09:53:35.999Z</time></trkpt><trkpt lat="46.10100362727094" lon="13.199733299753152"><ele>125.0</ele><time>2026-04-27T09:53:36.999Z</time></trkpt><trkpt lat="46.100776738951915" lon="13.19962087468412"><ele>125.0</ele><time>2026-04-27T09:53:37.999Z</time></trkpt><trkpt lat="46.10052611282865" lon="13.199501686888098"><ele>124.0</ele><time>2026-04-27T09:53:38.999Z</time></trkpt><trkpt lat="46.1002764445186" lon="13.199382337459625"><ele>123.0</ele><time>2026-04-27T09:53:39.999Z</time></trkpt><trkpt lat="46.10004684648308" lon="13.19926243181727"><ele>122.0</ele><time>2026-04-27T09:53:40.999Z</time></trkpt><trkpt lat="46.09983053998997" lon="13.19914067850833"><ele>121.0</ele><time>2026-04-27T09:53:41.999Z</time></trkpt><trkpt lat="46.099621798490645" lon="13.199025588589208"><ele>121.33333333333334</ele><time>2026-04-27T09:53:42.999Z</time></trkpt><trkpt lat="46.099425151256234" lon="13.198927467459026"><ele>121.66666666666666</ele><time>2026-04-27T09:53:43.999Z</time></trkpt><trkpt lat="46.099230898370095" lon="13.198836600707155"><ele>122.0</ele><time>2026-04-27T09:53:44.999Z</time></trkpt><trkpt lat="46.09903926030344" lon="13.198746781639295"><ele>122.33333333333333</ele><time>2026-04-27T09:53:45.999Z</time></trkpt><trkpt lat="46.09884809559692" lon="13.19865383673205"><ele>122.66666666666666</ele><time>2026-04-27T09:53:46.999Z</time></trkpt><trkpt lat="46.098659498638476" lon="13.198556975052341"><ele>123.0</ele><time>2026-04-27T09:53:47.999Z</time></trkpt><trkpt lat="46.09846695996257" lon="13.198465561976775"><ele>123.0</ele><time>2026-04-27T09:53:48.999Z</time></trkpt><trkpt lat="46.098272127570375" lon="13.19837435232406"><ele>123.0</ele><time>2026-04-27T09:53:49.999Z</time></trkpt><trkpt lat="46.09807652892867" lon="13.198282326414677"><ele>123.0</ele><time>2026-04-27T09:53:50.999Z</time></trkpt><trkpt lat="46.09788061748303" lon="13.198188695144252"><ele>123.0</ele><time>2026-04-27T09:53:51.999Z</time></trkpt><trkpt lat="46.097684252646864" lon="13.198096216351667"><ele>123.0</ele><time>2026-04-27T09:53:52.999Z</time></trkpt><trkpt lat="46.09748535346949" lon="13.198000417284243"><ele>123.0</ele><time>2026-04-27T09:53:53.999Z</time></trkpt><trkpt lat="46.0972832005217" lon="13.197903218459768"><ele>122.0</ele><time>2026-04-27T09:53:54.999Z</time></trkpt><trkpt lat="46.09707917399175" lon="13.197804018426579"><ele>121.0</ele><time>2026-04-27T09:53:55.999Z</time></trkpt><trkpt lat="46.0968717976083" lon="13.197701653775319"><ele>120.0</ele><time>2026-04-27T09:53:57Z</time></trkpt><trkpt lat="46.09666308783351" lon="13.197599381470182"><ele>120.66666666666666</ele><time>2026-04-27T09:53:58Z</time></trkpt><trkpt lat="46.09645716188055" lon="13.197497427120135"><ele>121.33333333333333</ele><time>2026-04-27T09:53:59Z</time></trkpt><trkpt lat="46.09625581201031" lon="13.197395897617467"><ele>122.0</ele><time>2026-04-27T09:54:00Z</time></trkpt><trkpt lat="46.09601196263642" lon="13.197298641111317"><ele>122.0</ele><time>2026-04-27T09:54:01Z</time></trkpt><trkpt lat="46.095791998477644" lon="13.197195979979716"><ele>122.0</ele><time>2026-04-27T09:54:02Z</time></trkpt><trkpt lat="46.09557903761702" lon="13.197094903125004"><ele>121.66666666666666</ele><time>2026-04-27T09:54:03Z</time></trkpt><trkpt lat="46.09537359231194" lon="13.197002054019308"><ele>121.33333333333334</ele><time>2026-04-27T09:54:04Z</time></trkpt><trkpt lat="46.0951737404726" lon="13.196910045415967"><ele>121.0</ele><time>2026-04-27T09:54:05Z</time></trkpt><trkpt lat="46.094978914868285" lon="13.196812565072415"><ele>121.0</ele><time>2026-04-27T09:54:06Z</time></trkpt><trkpt lat="46.094785274441655" lon="13.196718056407825"><ele>121.0</ele><time>2026-04-27T09:54:07Z</time></trkpt><trkpt lat="46.094594262156974" lon="13.19662890225761"><ele>121.0</ele><time>2026-04-27T09:54:08Z</time></trkpt><trkpt lat="46.094402616877474" lon="13.196539833290199"><ele>121.66666666666667</ele><time>2026-04-27T09:54:09Z</time></trkpt><trkpt lat="46.094211700425554" lon="13.196444597798184"><ele>122.33333333333334</ele><time>2026-04-27T09:54:10Z</time></trkpt><trkpt lat="46.094021040457015" lon="13.196347708265279"><ele>123.0</ele><time>2026-04-27T09:54:11Z</time></trkpt><trkpt lat="46.09383054968558" lon="13.1962525608866"><ele>121.66666666666666</ele><time>2026-04-27T09:54:12Z</time></trkpt><trkpt lat="46.09364000111935" lon="13.196159612729438"><ele>120.33333333333333</ele><time>2026-04-27T09:54:13Z</time></trkpt><trkpt lat="46.09344846962952" lon="13.196066900363812"><ele>119.0</ele><time>2026-04-27T09:54:14Z</time></trkpt><trkpt lat="46.09325838477906" lon="13.195972379266681"><ele>119.66666666666666</ele><time>2026-04-27T09:54:15Z</time></trkpt><trkpt lat="46.09306641081654" lon="13.195884596465977"><ele>120.33333333333334</ele><time>2026-04-27T09:54:16Z</time></trkpt><trkpt lat="46.09287780391942" lon="13.195797364508497"><ele>121.0</ele><time>2026-04-27T09:54:17Z</time></trkpt><trkpt lat="46.09268345910149" lon="13.195706722133867"><ele>120.33333333333334</ele><time>2026-04-27T09:54:18Z</time></trkpt><trkpt lat="46.09249333261853" lon="13.195616269885209"><ele>119.66666666666666</ele><time>2026-04-27T09:54:19Z</time></trkpt><trkpt lat="46.09230391751389" lon="13.195528974939982"><ele>119.0</ele><time>2026-04-27T09:54:20Z</time></trkpt><trkpt lat="46.09211300102788" lon="13.19543678827407"><ele>119.0</ele><time>2026-04-27T09:54:21Z</time></trkpt><trkpt lat="46.09192265472615" lon="13.195350625015529"><ele>119.0</ele><time>2026-04-27T09:54:22Z</time></trkpt><trkpt lat="46.09173702573616" lon="13.195258556422807"><ele>119.0</ele><time>2026-04-27T09:54:23Z</time></trkpt><trkpt lat="46.09154578530979" lon="13.195164875733925"><ele>119.0</ele><time>2026-04-27T09:54:24Z</time></trkpt><trkpt lat="46.09135702897263" lon="13.195071495966932"><ele>119.0</ele><time>2026-04-27T09:54:25Z</time></trkpt><trkpt lat="46.091167330832114" lon="13.19498259203183"><ele>119.0</ele><time>2026-04-27T09:54:26Z</time></trkpt><trkpt lat="46.090975253142" lon="13.194896403698806"><ele>119.33333333333333</ele><time>2026-04-27T09:54:27Z</time></trkpt><trkpt lat="46.090786106598344" lon="13.194807982440754"><ele>119.66666666666666</ele><time>2026-04-27T09:54:28Z</time></trkpt><trkpt lat="46.09059930008799" lon="13.19471814702107"><ele>120.0</ele><time>2026-04-27T09:54:29Z</time></trkpt><trkpt lat="46.09041002020504" lon="13.194621119331272"><ele>120.0</ele><time>2026-04-27T09:54:30Z</time></trkpt><trkpt lat="46.09021930067828" lon="13.194525932382065"><ele>120.0</ele><time>2026-04-27T09:54:31Z</time></trkpt><trkpt lat="46.09002641372202" lon="13.194436412564592"><ele>120.0</ele><time>2026-04-27T09:54:32Z</time></trkpt><trkpt lat="46.08983672657589" lon="13.194351770401594"><ele>119.66666666666666</ele><time>2026-04-27T09:54:33Z</time></trkpt><trkpt lat="46.0896448066159" lon="13.194262076664817"><ele>119.33333333333333</ele><time>2026-04-27T09:54:34Z</time></trkpt><trkpt lat="46.08945439655713" lon="13.194173152934038"><ele>119.0</ele><time>2026-04-27T09:54:35Z</time></trkpt><trkpt lat="46.089263866773095" lon="13.194074984734467"><ele>118.66666666666666</ele><time>2026-04-27T09:54:36Z</time></trkpt><trkpt lat="46.089076423175726" lon="13.193977948863843"><ele>118.33333333333334</ele><time>2026-04-27T09:54:37Z</time></trkpt><trkpt lat="46.08888614263631" lon="13.19388455505354"><ele>118.0</ele><time>2026-04-27T09:54:38Z</time></trkpt><trkpt lat="46.08869537896704" lon="13.193795434342993"><ele>118.0</ele><time>2026-04-27T09:54:39Z</time></trkpt><trkpt lat="46.0885019982987" lon="13.193704139780772"><ele>118.0</ele><time>2026-04-27T09:54:40Z</time></trkpt><trkpt lat="46.088311070624655" lon="13.193613298412501"><ele>118.0</ele><time>2026-04-27T09:54:41Z</time></trkpt><trkpt lat="46.08812177050791" lon="13.193520137559801"><ele>118.0</ele><time>2026-04-27T09:54:42Z</time></trkpt><trkpt lat="46.08793057219137" lon="13.193427461902111"><ele>118.0</ele><time>2026-04-27T09:54:43Z</time></trkpt><trkpt lat="46.08774042448755" lon="13.193338028857319"><ele>118.0</ele><time>2026-04-27T09:54:44Z</time></trkpt><trkpt lat="46.08755012237611" lon="13.193249607728916"><ele>117.33333333333334</ele><time>2026-04-27T09:54:45Z</time></trkpt><trkpt lat="46.08735592033108" lon="13.19315623185695"><ele>116.66666666666666</ele><time>2026-04-27T09:54:46Z</time></trkpt><trkpt lat="46.08715772482352" lon="13.193058501725861"><ele>116.0</ele><time>2026-04-27T09:54:47Z</time></trkpt><trkpt lat="46.0869587893481" lon="13.19296369607413"><ele>116.0</ele><time>2026-04-27T09:54:48Z</time></trkpt><trkpt lat="46.086754948406885" lon="13.19286851848491"><ele>116.0</ele><time>2026-04-27T09:54:49Z</time></trkpt><trkpt lat="46.08655477212254" lon="13.192772162832268"><ele>116.0</ele><time>2026-04-27T09:54:50Z</time></trkpt><trkpt lat="46.086350769223785" lon="13.192678397751138"><ele>115.33333333333333</ele><time>2026-04-27T09:54:51Z</time></trkpt><trkpt lat="46.08614447962827" lon="13.192577704148125"><ele>114.66666666666666</ele><time>2026-04-27T09:54:52Z</time></trkpt><trkpt lat="46.085938582799635" lon="13.192473786654855"><ele>114.0</ele><time>2026-04-27T09:54:53Z</time></trkpt><trkpt lat="46.08573275089041" lon="13.192376576839116"><ele>114.66666666666666</ele><time>2026-04-27T09:54:54Z</time></trkpt><trkpt lat="46.08552120573725" lon="13.192280554993433"><ele>115.33333333333333</ele><time>2026-04-27T09:54:55Z</time></trkpt><trkpt lat="46.08531203224072" lon="13.192182269727088"><ele>116.0</ele><time>2026-04-27T09:54:56Z</time></trkpt><trkpt lat="46.08510255652188" lon="13.192081207989288"><ele>116.33333333333333</ele><time>2026-04-27T09:54:57Z</time></trkpt><trkpt lat="46.08489186431036" lon="13.191979890179024"><ele>116.66666666666666</ele><time>2026-04-27T09:54:58Z</time></trkpt><trkpt lat="46.084678834427045" lon="13.191877432475337"><ele>117.0</ele><time>2026-04-27T09:54:59Z</time></trkpt><trkpt lat="46.08447198889261" lon="13.19177773412337"><ele>117.0</ele><time>2026-04-27T09:55:00Z</time></trkpt><trkpt lat="46.084264926737546" lon="13.191680534118104"><ele>117.0</ele><time>2026-04-27T09:55:01Z</time></trkpt><trkpt lat="46.08406117305754" lon="13.191599191785322"><ele>117.0</ele><time>2026-04-27T09:55:02Z</time></trkpt><trkpt lat="46.08385803883756" lon="13.19152738239811"><ele>117.0</ele><time>2026-04-27T09:55:03Z</time></trkpt><trkpt lat="46.08365240710152" lon="13.191448436591138"><ele>117.0</ele><time>2026-04-27T09:55:04Z</time></trkpt><trkpt lat="46.08344275756115" lon="13.19136493819814"><ele>117.0</ele><time>2026-04-27T09:55:05Z</time></trkpt><trkpt lat="46.08322382038398" lon="13.191298515380801"><ele>116.66666666666666</ele><time>2026-04-27T09:55:06Z</time></trkpt><trkpt lat="46.08301280589368" lon="13.191252886111881"><ele>116.33333333333333</ele><time>2026-04-27T09:55:07Z</time></trkpt><trkpt lat="46.08279674775151" lon="13.191209939702622"><ele>116.0</ele><time>2026-04-27T09:55:08Z</time></trkpt><trkpt lat="46.08257994868158" lon="13.191171155085636"><ele>115.0</ele><time>2026-04-27T09:55:09Z</time></trkpt><trkpt lat="46.08235683071161" lon="13.191141731331252"><ele>114.0</ele><time>2026-04-27T09:55:10Z</time></trkpt><trkpt lat="46.082122254477966" lon="13.191117807780895"><ele>114.0</ele><time>2026-04-27T09:55:11Z</time></trkpt><trkpt lat="46.081856322131614" lon="13.19111302675741"><ele>114.0</ele><time>2026-04-27T09:55:12Z</time></trkpt><trkpt lat="46.08160128700364" lon="13.191124300930952"><ele>113.0</ele><time>2026-04-27T09:55:13Z</time></trkpt><trkpt lat="46.08137308396215" lon="13.191087888627075"><ele>112.0</ele><time>2026-04-27T09:55:14Z</time></trkpt><trkpt lat="46.081159002985835" lon="13.19103113026821"><ele>111.0</ele><time>2026-04-27T09:55:15Z</time></trkpt><trkpt lat="46.08092796988224" lon="13.191036426096398"><ele>108.0</ele><time>2026-04-27T09:55:16Z</time></trkpt><trkpt lat="46.080679153715415" lon="13.191066248519714"><ele>105.0</ele><time>2026-04-27T09:55:17Z</time></trkpt><trkpt lat="46.0804448666116" lon="13.19111111067937"><ele>105.0</ele><time>2026-04-27T09:55:18Z</time></trkpt><trkpt lat="46.08022019395298" lon="13.191170685059353"><ele>105.0</ele><time>2026-04-27T09:55:19Z</time></trkpt><trkpt lat="46.08000114394858" lon="13.191252981144217"><ele>105.33333333333334</ele><time>2026-04-27T09:55:20Z</time></trkpt><trkpt lat="46.07978646321833" lon="13.191346955369907"><ele>105.66666666666667</ele><time>2026-04-27T09:55:21Z</time></trkpt><trkpt lat="46.07957550044367" lon="13.191444811123283"><ele>106.0</ele><time>2026-04-27T09:55:22Z</time></trkpt><trkpt lat="46.07937019014638" lon="13.191546480701067"><ele>106.0</ele><time>2026-04-27T09:55:23Z</time></trkpt><trkpt lat="46.079168073301695" lon="13.191658749609731"><ele>106.0</ele><time>2026-04-27T09:55:24Z</time></trkpt><trkpt lat="46.078966531707934" lon="13.191787983839355"><ele>106.0</ele><time>2026-04-27T09:55:25Z</time></trkpt><trkpt lat="46.078772491588985" lon="13.191928544104185"><ele>107.0</ele><time>2026-04-27T09:55:26Z</time></trkpt><trkpt lat="46.078580169432286" lon="13.192082491150767"><ele>108.0</ele><time>2026-04-27T09:55:27Z</time></trkpt><trkpt lat="46.07839846508457" lon="13.192231225077299"><ele>109.0</ele><time>2026-04-27T09:55:28Z</time></trkpt><trkpt lat="46.07821357506146" lon="13.192399746508029"><ele>109.0</ele><time>2026-04-27T09:55:29Z</time></trkpt><trkpt lat="46.07802993582362" lon="13.192574490171568"><ele>109.0</ele><time>2026-04-27T09:55:30Z</time></trkpt><trkpt lat="46.07784979742872" lon="13.192753198717325"><ele>109.0</ele><time>2026-04-27T09:55:30.999Z</time></trkpt><trkpt lat="46.07766696085233" lon="13.1929351481375"><ele>109.0</ele><time>2026-04-27T09:55:31.999Z</time></trkpt><trkpt lat="46.07748404277283" lon="13.193118037658692"><ele>109.0</ele><time>2026-04-27T09:55:32.999Z</time></trkpt><trkpt lat="46.0772989653281" lon="13.193299605867345"><ele>109.0</ele><time>2026-04-27T09:55:33.999Z</time></trkpt><trkpt lat="46.07711352498927" lon="13.193483536771314"><ele>109.66666666666667</ele><time>2026-04-27T09:55:34.999Z</time></trkpt><trkpt lat="46.07693254440312" lon="13.193662458166951"><ele>110.33333333333334</ele><time>2026-04-27T09:55:35.999Z</time></trkpt><trkpt lat="46.076749426518795" lon="13.193839871591964"><ele>111.0</ele><time>2026-04-27T09:55:36.999Z</time></trkpt><trkpt lat="46.07656614186796" lon="13.19401675073129"><ele>112.0</ele><time>2026-04-27T09:55:37.999Z</time></trkpt><trkpt lat="46.07638626156481" lon="13.194195745725407"><ele>113.0</ele><time>2026-04-27T09:55:38.999Z</time></trkpt><trkpt lat="46.07620646890748" lon="13.194368585441056"><ele>114.0</ele><time>2026-04-27T09:55:39.999Z</time></trkpt><trkpt lat="46.076023258917196" lon="13.194542883171009"><ele>114.0</ele><time>2026-04-27T09:55:40.999Z</time></trkpt><trkpt lat="46.075846312536136" lon="13.19472141913574"><ele>114.0</ele><time>2026-04-27T09:55:41.999Z</time></trkpt><trkpt lat="46.075662537016655" lon="13.194897341151485"><ele>114.0</ele><time>2026-04-27T09:55:42.999Z</time></trkpt><trkpt lat="46.075483632566396" lon="13.19506383415312"><ele>113.33333333333334</ele><time>2026-04-27T09:55:43.999Z</time></trkpt><trkpt lat="46.07530664263023" lon="13.19523568234611"><ele>112.66666666666667</ele><time>2026-04-27T09:55:44.999Z</time></trkpt><trkpt lat="46.07513335263947" lon="13.195395229404124"><ele>112.0</ele><time>2026-04-27T09:55:45.999Z</time></trkpt><trkpt lat="46.074948476838635" lon="13.195540207865605"><ele>111.33333333333334</ele><time>2026-04-27T09:55:46.999Z</time></trkpt><trkpt lat="46.074764463849775" lon="13.195670672628756"><ele>110.66666666666666</ele><time>2026-04-27T09:55:47.999Z</time></trkpt><trkpt lat="46.07457942422339" lon="13.195790903961397"><ele>110.0</ele><time>2026-04-27T09:55:48.999Z</time></trkpt><trkpt lat="46.07439124253497" lon="13.195912372950918"><ele>110.0</ele><time>2026-04-27T09:55:49.999Z</time></trkpt><trkpt lat="46.07419710973287" lon="13.196011558620224"><ele>110.0</ele><time>2026-04-27T09:55:50.999Z</time></trkpt><trkpt lat="46.07401000699436" lon="13.196103715502913"><ele>110.0</ele><time>2026-04-27T09:55:51.999Z</time></trkpt><trkpt lat="46.07381761306213" lon="13.196194212305347"><ele>110.33333333333333</ele><time>2026-04-27T09:55:52.999Z</time></trkpt><trkpt lat="46.07362259543752" lon="13.196279607068758"><ele>110.66666666666666</ele><time>2026-04-27T09:55:53.999Z</time></trkpt><trkpt lat="46.0734267555722" lon="13.196359088543115"><ele>111.0</ele><time>2026-04-27T09:55:54.999Z</time></trkpt><trkpt lat="46.07323099190241" lon="13.196426969392743"><ele>111.33333333333334</ele><time>2026-04-27T09:55:56Z</time></trkpt><trkpt lat="46.073040950646885" lon="13.196491046348571"><ele>111.66666666666667</ele><time>2026-04-27T09:55:57Z</time></trkpt><trkpt lat="46.072841196570906" lon="13.196542002667897"><ele>112.0</ele><time>2026-04-27T09:55:58Z</time></trkpt><trkpt lat="46.07264564381238" lon="13.196580603863366"><ele>112.0</ele><time>2026-04-27T09:55:59Z</time></trkpt><trkpt lat="46.07245150401772" lon="13.196623812969348"><ele>112.0</ele><time>2026-04-27T09:56:00Z</time></trkpt><trkpt lat="46.07225871114122" lon="13.196654970847083"><ele>112.0</ele><time>2026-04-27T09:56:01Z</time></trkpt><trkpt lat="46.072060701915284" lon="13.196681478464175"><ele>111.0</ele><time>2026-04-27T09:56:02Z</time></trkpt><trkpt lat="46.071864513763025" lon="13.196707740675217"><ele>110.0</ele><time>2026-04-27T09:56:03Z</time></trkpt><trkpt lat="46.07166746087673" lon="13.196732686808929"><ele>109.0</ele><time>2026-04-27T09:56:04Z</time></trkpt><trkpt lat="46.07147143566197" lon="13.196761518047946"><ele>108.33333333333334</ele><time>2026-04-27T09:56:05Z</time></trkpt><trkpt lat="46.07127721142471" lon="13.19678251064924"><ele>107.66666666666666</ele><time>2026-04-27T09:56:06Z</time></trkpt><trkpt lat="46.07108185371279" lon="13.196805183874721"><ele>107.0</ele><time>2026-04-27T09:56:07Z</time></trkpt><trkpt lat="46.07088763928191" lon="13.19683164547595"><ele>107.0</ele><time>2026-04-27T09:56:08Z</time></trkpt><trkpt lat="46.070686651517256" lon="13.196864777383274"><ele>107.0</ele><time>2026-04-27T09:56:09Z</time></trkpt><trkpt lat="46.0704878428112" lon="13.196894463871061"><ele>107.0</ele><time>2026-04-27T09:56:10Z</time></trkpt><trkpt lat="46.07028663881349" lon="13.196920473140407"><ele>107.0</ele><time>2026-04-27T09:56:11Z</time></trkpt><trkpt lat="46.07008314585007" lon="13.196942159982296"><ele>107.0</ele><time>2026-04-27T09:56:12Z</time></trkpt><trkpt lat="46.06987788815531" lon="13.1969706261451"><ele>107.0</ele><time>2026-04-27T09:56:13Z</time></trkpt><trkpt lat="46.06967212945787" lon="13.19699998865263"><ele>107.33333333333333</ele><time>2026-04-27T09:56:14Z</time></trkpt><trkpt lat="46.069471156213154" lon="13.197028218279371"><ele>107.66666666666666</ele><time>2026-04-27T09:56:15Z</time></trkpt><trkpt lat="46.06926655887238" lon="13.197053008534853"><ele>108.0</ele><time>2026-04-27T09:56:16Z</time></trkpt><trkpt lat="46.06905712567976" lon="13.197080999554915"><ele>108.0</ele><time>2026-04-27T09:56:17Z</time></trkpt><trkpt lat="46.068847520233014" lon="13.197111456737748"><ele>108.0</ele><time>2026-04-27T09:56:18Z</time></trkpt><trkpt lat="46.06863824050178" lon="13.197141333360477"><ele>108.0</ele><time>2026-04-27T09:56:19Z</time></trkpt><trkpt lat="46.06843063319294" lon="13.197167422415307"><ele>108.0</ele><time>2026-04-27T09:56:20Z</time></trkpt><trkpt lat="46.068221004428985" lon="13.197193474719416"><ele>108.0</ele><time>2026-04-27T09:56:21Z</time></trkpt><trkpt lat="46.06801125105123" lon="13.197227747076631"><ele>108.0</ele><time>2026-04-27T09:56:22Z</time></trkpt><trkpt lat="46.06780023545395" lon="13.197254077817618"><ele>108.0</ele><time>2026-04-27T09:56:23Z</time></trkpt><trkpt lat="46.06759166044573" lon="13.19727896607866"><ele>108.0</ele><time>2026-04-27T09:56:24Z</time></trkpt><trkpt lat="46.06738516888541" lon="13.197303724086595"><ele>108.0</ele><time>2026-04-27T09:56:25Z</time></trkpt><trkpt lat="46.06717638767152" lon="13.197330206128091"><ele>107.66666666666666</ele><time>2026-04-27T09:56:26Z</time></trkpt><trkpt lat="46.06696624398061" lon="13.197354008896598"><ele>107.33333333333333</ele><time>2026-04-27T09:56:27Z</time></trkpt><trkpt lat="46.06676063432801" lon="13.197380904989501"><ele>107.0</ele><time>2026-04-27T09:56:28Z</time></trkpt><trkpt lat="46.0665519696922" lon="13.197406922445346"><ele>106.33333333333333</ele><time>2026-04-27T09:56:29Z</time></trkpt><trkpt lat="46.06634237208597" lon="13.197438426641273"><ele>105.66666666666666</ele><time>2026-04-27T09:56:30Z</time></trkpt><trkpt lat="46.06613561057012" lon="13.197461501873759"><ele>105.0</ele><time>2026-04-27T09:56:31Z</time></trkpt><trkpt lat="46.065940961057386" lon="13.197485666458997"><ele>105.33333333333334</ele><time>2026-04-27T09:56:32Z</time></trkpt><trkpt lat="46.065744083598524" lon="13.19751112310487"><ele>105.66666666666667</ele><time>2026-04-27T09:56:33Z</time></trkpt><trkpt lat="46.06553358439522" lon="13.197534112202275"><ele>106.0</ele><time>2026-04-27T09:56:34Z</time></trkpt><trkpt lat="46.06532512881247" lon="13.19754693147526"><ele>106.0</ele><time>2026-04-27T09:56:35Z</time></trkpt><trkpt lat="46.065129698457355" lon="13.19755536376865"><ele>106.0</ele><time>2026-04-27T09:56:36Z</time></trkpt><trkpt lat="46.064934971673175" lon="13.197565235974327"><ele>106.0</ele><time>2026-04-27T09:56:37Z</time></trkpt><trkpt lat="46.06473139126442" lon="13.19757442493337"><ele>105.33333333333334</ele><time>2026-04-27T09:56:38Z</time></trkpt><trkpt lat="46.06452357993626" lon="13.197575842034892"><ele>104.66666666666666</ele><time>2026-04-27T09:56:39Z</time></trkpt><trkpt lat="46.0643320473445" lon="13.197573728112205"><ele>104.0</ele><time>2026-04-27T09:56:40Z</time></trkpt><trkpt lat="46.06415165498418" lon="13.197569724863945"><ele>104.33333333333333</ele><time>2026-04-27T09:56:41Z</time></trkpt><trkpt lat="46.06395722412446" lon="13.19756648194663"><ele>104.66666666666666</ele><time>2026-04-27T09:56:42Z</time></trkpt><trkpt lat="46.06373781947111" lon="13.19756247451362"><ele>105.0</ele><time>2026-04-27T09:56:43Z</time></trkpt><trkpt lat="46.063517673975404" lon="13.197557589629447"><ele>105.0</ele><time>2026-04-27T09:56:44Z</time></trkpt><trkpt lat="46.063312097549876" lon="13.197554817587962"><ele>105.0</ele><time>2026-04-27T09:56:45Z</time></trkpt><trkpt lat="46.06311712723841" lon="13.197550008096659"><ele>105.0</ele><time>2026-04-27T09:56:46Z</time></trkpt><trkpt lat="46.06294732696326" lon="13.197531680157628"><ele>104.6</ele><time>2026-04-27T09:56:47Z</time></trkpt><trkpt lat="46.06280585062735" lon="13.197487722812998"><ele>104.2</ele><time>2026-04-27T09:56:48Z</time></trkpt><trkpt lat="46.0627011789894" lon="13.197428046254894"><ele>103.80000000000001</ele><time>2026-04-27T09:56:49Z</time></trkpt><trkpt lat="46.06262561298375" lon="13.197366354675184"><ele>103.4</ele><time>2026-04-27T09:56:50Z</time></trkpt><trkpt lat="46.06255059138026" lon="13.197326503430183"><ele>103.0</ele><time>2026-04-27T09:57:40.999Z</time></trkpt><trkpt lat="46.06248889876905" lon="13.197296126389832"><ele>102.5</ele><time>2026-04-27T09:57:41.999Z</time></trkpt><trkpt lat="46.06237306581405" lon="13.197229682384407"><ele>102.0</ele><time>2026-04-27T09:57:42.999Z</time></trkpt><trkpt lat="46.06224006646965" lon="13.197156678696334"><ele>101.5</ele><time>2026-04-27T09:57:43.999Z</time></trkpt><trkpt lat="46.06210984017421" lon="13.197071652706791"><ele>101.0</ele><time>2026-04-27T09:57:45Z</time></trkpt><trkpt lat="46.06199432741462" lon="13.196987571829636"><ele>101.0</ele><time>2026-04-27T09:57:46Z</time></trkpt><trkpt lat="46.06189636488904" lon="13.196895321923154"><ele>101.0</ele><time>2026-04-27T09:57:47Z</time></trkpt><trkpt lat="46.06181126253597" lon="13.196793611336105"><ele>101.0</ele><time>2026-04-27T09:57:48Z</time></trkpt><trkpt lat="46.061743779037236" lon="13.196671519432906"><ele>101.0</ele><time>2026-04-27T09:57:49Z</time></trkpt><trkpt lat="46.06169028020138" lon="13.196521550609463"><ele>103.0</ele><time>2026-04-27T09:57:50Z</time></trkpt><trkpt lat="46.06164627481833" lon="13.196340141071312"><ele>105.0</ele><time>2026-04-27T09:57:51Z</time></trkpt><trkpt lat="46.061612917841465" lon="13.196082866976154"><ele>107.0</ele><time>2026-04-27T09:57:52Z</time></trkpt><trkpt lat="46.06158659007324" lon="13.19580717870092"><ele>107.0</ele><time>2026-04-27T09:57:53Z</time></trkpt><trkpt lat="46.06156942648738" lon="13.195502088699163"><ele>107.0</ele><time>2026-04-27T09:57:54Z</time></trkpt><trkpt lat="46.06155625624802" lon="13.195188044507766"><ele>107.0</ele><time>2026-04-27T09:57:55Z</time></trkpt><trkpt lat="46.06153472124795" lon="13.194871203464599"><ele>106.66666666666666</ele><time>2026-04-27T09:57:56Z</time></trkpt><trkpt lat="46.06151588963807" lon="13.194574995918245"><ele>106.33333333333334</ele><time>2026-04-27T09:57:57Z</time></trkpt><trkpt lat="46.0614999097266" lon="13.194281848436182"><ele>106.0</ele><time>2026-04-27T09:57:58Z</time></trkpt><trkpt lat="46.061479470565466" lon="13.193997308482714"><ele>106.0</ele><time>2026-04-27T09:57:59Z</time></trkpt><trkpt lat="46.06146049933172" lon="13.193714850576079"><ele>106.0</ele><time>2026-04-27T09:58:00Z</time></trkpt><trkpt lat="46.06143595539027" lon="13.19343628174033"><ele>106.0</ele><time>2026-04-27T09:58:01Z</time></trkpt><trkpt lat="46.06141347578994" lon="13.193180895802445"><ele>105.33333333333334</ele><time>2026-04-27T09:58:02Z</time></trkpt><trkpt lat="46.061396677222575" lon="13.192942893581977"><ele>104.66666666666666</ele><time>2026-04-27T09:58:03Z</time></trkpt><trkpt lat="46.06138311716613" lon="13.192707671210137"><ele>104.0</ele><time>2026-04-27T09:58:04Z</time></trkpt><trkpt lat="46.061372094348094" lon="13.192485715069848"><ele>105.0</ele><time>2026-04-27T09:58:05Z</time></trkpt><trkpt lat="46.06136192643965" lon="13.192263473454615"><ele>106.0</ele><time>2026-04-27T09:58:06Z</time></trkpt><trkpt lat="46.06135151637908" lon="13.192042721694945"><ele>107.0</ele><time>2026-04-27T09:58:07Z</time></trkpt><trkpt lat="46.06133808709741" lon="13.19182226037057"><ele>107.0</ele><time>2026-04-27T09:58:08Z</time></trkpt><trkpt lat="46.061324482165965" lon="13.19159720768973"><ele>107.0</ele><time>2026-04-27T09:58:09Z</time></trkpt><trkpt lat="46.0613080937998" lon="13.191368486032564"><ele>107.0</ele><time>2026-04-27T09:58:10Z</time></trkpt><trkpt lat="46.061289350370366" lon="13.191136574248283"><ele>107.0</ele><time>2026-04-27T09:58:11Z</time></trkpt><trkpt lat="46.061272025212126" lon="13.19090295543674"><ele>107.0</ele><time>2026-04-27T09:58:12Z</time></trkpt><trkpt lat="46.061257501877265" lon="13.190669589238734"><ele>107.0</ele><time>2026-04-27T09:58:13Z</time></trkpt><trkpt lat="46.061245347225075" lon="13.190433077149928"><ele>107.0</ele><time>2026-04-27T09:58:14Z</time></trkpt><trkpt lat="46.06122917435411" lon="13.190201941268063"><ele>107.0</ele><time>2026-04-27T09:58:15Z</time></trkpt><trkpt lat="46.06121427987633" lon="13.189966487216154"><ele>107.0</ele><time>2026-04-27T09:58:16Z</time></trkpt><trkpt lat="46.0612005113183" lon="13.189733400211805"><ele>106.33333333333333</ele><time>2026-04-27T09:58:17Z</time></trkpt><trkpt lat="46.06118687892607" lon="13.189496477325418"><ele>105.66666666666666</ele><time>2026-04-27T09:58:18Z</time></trkpt><trkpt lat="46.06116963850523" lon="13.189261963565052"><ele>105.0</ele><time>2026-04-27T09:58:19Z</time></trkpt><trkpt lat="46.06115126071933" lon="13.189024648247056"><ele>104.66666666666666</ele><time>2026-04-27T09:58:20Z</time></trkpt><trkpt lat="46.06113365035082" lon="13.188777076650458"><ele>104.33333333333333</ele><time>2026-04-27T09:58:21Z</time></trkpt><trkpt lat="46.061120730216345" lon="13.188523029832206"><ele>104.0</ele><time>2026-04-27T09:58:22Z</time></trkpt><trkpt lat="46.06110644426903" lon="13.188268196706952"><ele>104.66666666666666</ele><time>2026-04-27T09:58:23Z</time></trkpt><trkpt lat="46.06108812008387" lon="13.188008327975899"><ele>105.33333333333334</ele><time>2026-04-27T09:58:24Z</time></trkpt><trkpt lat="46.06106998811938" lon="13.187739978716813"><ele>106.0</ele><time>2026-04-27T09:58:25Z</time></trkpt><trkpt lat="46.061051225243496" lon="13.18746741757383"><ele>106.33333333333334</ele><time>2026-04-27T09:58:26Z</time></trkpt><trkpt lat="46.061034452067794" lon="13.187193833768845"><ele>106.66666666666666</ele><time>2026-04-27T09:58:27Z</time></trkpt><trkpt lat="46.06101919524308" lon="13.186914093492497"><ele>107.0</ele><time>2026-04-27T09:58:28Z</time></trkpt><trkpt lat="46.06100304696178" lon="13.186627444133899"><ele>107.66666666666666</ele><time>2026-04-27T09:58:29Z</time></trkpt><trkpt lat="46.06098626478153" lon="13.186336287000785"><ele>108.33333333333334</ele><time>2026-04-27T09:58:30Z</time></trkpt><trkpt lat="46.060966510839556" lon="13.186045960526322"><ele>109.0</ele><time>2026-04-27T09:58:31Z</time></trkpt><trkpt lat="46.060948806682994" lon="13.185749883932521"><ele>109.0</ele><time>2026-04-27T09:58:32Z</time></trkpt><trkpt lat="46.060928563411075" lon="13.185455594113542"><ele>109.0</ele><time>2026-04-27T09:58:33Z</time></trkpt><trkpt lat="46.06090165696262" lon="13.185161612778549"><ele>109.0</ele><time>2026-04-27T09:58:34Z</time></trkpt><trkpt lat="46.06086838182942" lon="13.184869404520255"><ele>108.66666666666667</ele><time>2026-04-27T09:58:35Z</time></trkpt><trkpt lat="46.06083166320685" lon="13.184583680182799"><ele>108.33333333333334</ele><time>2026-04-27T09:58:36Z</time></trkpt><trkpt lat="46.060786063161764" lon="13.184300774533455"><ele>108.0</ele><time>2026-04-27T09:58:37Z</time></trkpt><trkpt lat="46.060736205188164" lon="13.184020875854905"><ele>108.0</ele><time>2026-04-27T09:58:38Z</time></trkpt><trkpt lat="46.06068305028718" lon="13.183749789465168"><ele>108.0</ele><time>2026-04-27T09:58:39Z</time></trkpt><trkpt lat="46.0606316729245" lon="13.18348124768917"><ele>108.0</ele><time>2026-04-27T09:58:40Z</time></trkpt><trkpt lat="46.060580356933734" lon="13.183227084998514"><ele>108.0</ele><time>2026-04-27T09:58:41Z</time></trkpt><trkpt lat="46.0605270264711" lon="13.18297023270076"><ele>108.0</ele><time>2026-04-27T09:58:42Z</time></trkpt><trkpt lat="46.060477391466904" lon="13.182721947738383"><ele>108.0</ele><time>2026-04-27T09:58:43Z</time></trkpt><trkpt lat="46.060430352301765" lon="13.18246880813259"><ele>107.0</ele><time>2026-04-27T09:58:44Z</time></trkpt><trkpt lat="46.060384391028656" lon="13.182223266684407"><ele>106.0</ele><time>2026-04-27T09:58:45Z</time></trkpt><trkpt lat="46.06033936795733" lon="13.181975357696084"><ele>105.0</ele><time>2026-04-27T09:58:46.001Z</time></trkpt><trkpt lat="46.06029722070649" lon="13.181729296973332"><ele>106.0</ele><time>2026-04-27T09:58:47.001Z</time></trkpt><trkpt lat="46.06025924037679" lon="13.18148149484649"><ele>107.0</ele><time>2026-04-27T09:58:48.001Z</time></trkpt><trkpt lat="46.06022644238077" lon="13.181229607327447"><ele>108.0</ele><time>2026-04-27T09:58:49.001Z</time></trkpt><trkpt lat="46.06019743873802" lon="13.180978696184132"><ele>108.0</ele><time>2026-04-27T09:58:50.001Z</time></trkpt><trkpt lat="46.06017123976546" lon="13.180724416790685"><ele>108.0</ele><time>2026-04-27T09:58:51.001Z</time></trkpt><trkpt lat="46.0601471206659" lon="13.180471763899618"><ele>108.0</ele><time>2026-04-27T09:58:52.001Z</time></trkpt><trkpt lat="46.060124606969005" lon="13.180217171740486"><ele>108.33333333333334</ele><time>2026-04-27T09:58:53.001Z</time></trkpt><trkpt lat="46.060102810695064" lon="13.17996570019493"><ele>108.66666666666667</ele><time>2026-04-27T09:58:54.001Z</time></trkpt><trkpt lat="46.06008458880783" lon="13.179725189874839"><ele>109.0</ele><time>2026-04-27T09:58:55.001Z</time></trkpt><trkpt lat="46.06007196418991" lon="13.179492130863254"><ele>108.66666666666667</ele><time>2026-04-27T09:58:56.001Z</time></trkpt><trkpt lat="46.06005973973512" lon="13.179267151512292"><ele>108.33333333333334</ele><time>2026-04-27T09:58:57.001Z</time></trkpt><trkpt lat="46.0600469502029" lon="13.179045950124946"><ele>108.0</ele><time>2026-04-27T09:58:58.001Z</time></trkpt><trkpt lat="46.06002812702942" lon="13.178817118176209"><ele>108.0</ele><time>2026-04-27T09:58:59.001Z</time></trkpt><trkpt lat="46.060007399270326" lon="13.17857039665586"><ele>108.0</ele><time>2026-04-27T09:59:00.001Z</time></trkpt><trkpt lat="46.059988385208065" lon="13.178315294207145"><ele>108.0</ele><time>2026-04-27T09:59:01.001Z</time></trkpt><trkpt lat="46.05997039712078" lon="13.178046163595255"><ele>108.0</ele><time>2026-04-27T09:59:02.001Z</time></trkpt><trkpt lat="46.05995175977337" lon="13.17776511845138"><ele>108.0</ele><time>2026-04-27T09:59:03.001Z</time></trkpt><trkpt lat="46.05993328383307" lon="13.177474945217542"><ele>108.0</ele><time>2026-04-27T09:59:04.001Z</time></trkpt><trkpt lat="46.059913365866215" lon="13.177184781374988"><ele>108.0</ele><time>2026-04-27T09:59:05.001Z</time></trkpt><trkpt lat="46.05989348685662" lon="13.176900234882924"><ele>108.0</ele><time>2026-04-27T09:59:06.001Z</time></trkpt><trkpt lat="46.059873163893585" lon="13.17661969797717"><ele>108.0</ele><time>2026-04-27T09:59:07.001Z</time></trkpt><trkpt lat="46.05985360522603" lon="13.176344418465282"><ele>108.0</ele><time>2026-04-27T09:59:08.001Z</time></trkpt><trkpt lat="46.05983508430135" lon="13.17608052675053"><ele>108.0</ele><time>2026-04-27T09:59:09.001Z</time></trkpt><trkpt lat="46.059816809930616" lon="13.175828053359108"><ele>108.0</ele><time>2026-04-27T09:59:10.001Z</time></trkpt><trkpt lat="46.05979716986606" lon="13.175590744307875"><ele>108.33333333333334</ele><time>2026-04-27T09:59:11.001Z</time></trkpt><trkpt lat="46.059772317812936" lon="13.17535914808902"><ele>108.66666666666667</ele><time>2026-04-27T09:59:12.001Z</time></trkpt><trkpt lat="46.059742459608685" lon="13.17512655465756"><ele>109.0</ele><time>2026-04-27T09:59:13.001Z</time></trkpt><trkpt lat="46.05970933649857" lon="13.174889304545347"><ele>108.66666666666667</ele><time>2026-04-27T09:59:14.001Z</time></trkpt><trkpt lat="46.05967050895889" lon="13.174650215770733"><ele>108.33333333333334</ele><time>2026-04-27T09:59:15.001Z</time></trkpt><trkpt lat="46.059621654707264" lon="13.174401622640973"><ele>108.0</ele><time>2026-04-27T09:59:16.001Z</time></trkpt><trkpt lat="46.05956361728575" lon="13.17414194471441"><ele>108.33333333333334</ele><time>2026-04-27T09:59:17.001Z</time></trkpt><trkpt lat="46.05948505379394" lon="13.173859659407638"><ele>108.66666666666667</ele><time>2026-04-27T09:59:18.001Z</time></trkpt><trkpt lat="46.059397767780744" lon="13.17356634285837"><ele>109.0</ele><time>2026-04-27T09:59:19.001Z</time></trkpt><trkpt lat="46.05930055800305" lon="13.173254682590109"><ele>109.0</ele><time>2026-04-27T09:59:20.001Z</time></trkpt><trkpt lat="46.05919574437209" lon="13.172928579497391"><ele>109.0</ele><time>2026-04-27T09:59:21.001Z</time></trkpt><trkpt lat="46.05909034306097" lon="13.172598538034261"><ele>108.5</ele><time>2026-04-27T09:59:22.001Z</time></trkpt><trkpt lat="46.05899000640766" lon="13.172273997438094"><ele>108.0</ele><time>2026-04-27T09:59:23.001Z</time></trkpt><trkpt lat="46.05889444709231" lon="13.171957392098387"><ele>108.0</ele><time>2026-04-27T09:59:24.001Z</time></trkpt><trkpt lat="46.058803429437816" lon="13.171640932636379"><ele>108.0</ele><time>2026-04-27T09:59:25.001Z</time></trkpt><trkpt lat="46.058718618989275" lon="13.171341857210047"><ele>108.0</ele><time>2026-04-27T09:59:26.001Z</time></trkpt><trkpt lat="46.05865244706717" lon="13.171055851741501"><ele>108.0</ele><time>2026-04-27T09:59:27.001Z</time></trkpt><trkpt lat="46.05859360273153" lon="13.170758100466912"><ele>108.0</ele><time>2026-04-27T09:59:28.001Z</time></trkpt><trkpt lat="46.058541563839256" lon="13.17045403255363"><ele>108.0</ele><time>2026-04-27T09:59:29.001Z</time></trkpt><trkpt lat="46.05849703762231" lon="13.170140688905008"><ele>108.0</ele><time>2026-04-27T09:59:30.001Z</time></trkpt><trkpt lat="46.0584645111733" lon="13.169824169713884"><ele>108.0</ele><time>2026-04-27T09:59:31.001Z</time></trkpt><trkpt lat="46.05844485262274" lon="13.169511040236587"><ele>108.0</ele><time>2026-04-27T09:59:32.001Z</time></trkpt><trkpt lat="46.05843631880518" lon="13.169190881706731"><ele>108.0</ele><time>2026-04-27T09:59:33.001Z</time></trkpt><trkpt lat="46.05844195208639" lon="13.168858664148642"><ele>108.0</ele><time>2026-04-27T09:59:34.001Z</time></trkpt><trkpt lat="46.0584561336682" lon="13.168512119583452"><ele>108.0</ele><time>2026-04-27T09:59:35.001Z</time></trkpt><trkpt lat="46.05848124668478" lon="13.168152379210625"><ele>108.0</ele><time>2026-04-27T09:59:36.001Z</time></trkpt><trkpt lat="46.05851977094368" lon="13.167774450712637"><ele>108.0</ele><time>2026-04-27T09:59:37.001Z</time></trkpt><trkpt lat="46.05857048176089" lon="13.167376298168119"><ele>107.0</ele><time>2026-04-27T09:59:38.001Z</time></trkpt><trkpt lat="46.058626872952644" lon="13.166954440600628"><ele>106.0</ele><time>2026-04-27T09:59:39.001Z</time></trkpt><trkpt lat="46.058678834946626" lon="13.166537884423477"><ele>105.5</ele><time>2026-04-27T09:59:40.001Z</time></trkpt><trkpt lat="46.058723278750584" lon="13.166159526712558"><ele>105.0</ele><time>2026-04-27T09:59:41.001Z</time></trkpt><trkpt lat="46.05876283843419" lon="13.165811759719475"><ele>105.0</ele><time>2026-04-27T09:59:42.001Z</time></trkpt><trkpt lat="46.05880001370338" lon="13.165480659140046"><ele>105.0</ele><time>2026-04-27T09:59:43Z</time></trkpt><trkpt lat="46.05883582498405" lon="13.165153528686046"><ele>104.0</ele><time>2026-04-27T09:59:44Z</time></trkpt><trkpt lat="46.058861342579405" lon="13.164832958461188"><ele>103.0</ele><time>2026-04-27T09:59:45Z</time></trkpt><trkpt lat="46.058872231125676" lon="13.164527836215854"><ele>102.0</ele><time>2026-04-27T09:59:46Z</time></trkpt><trkpt lat="46.0588740321386" lon="13.16422170046734"><ele>101.66666666666666</ele><time>2026-04-27T09:59:47Z</time></trkpt><trkpt lat="46.05886589657491" lon="13.16391567536548"><ele>101.33333333333333</ele><time>2026-04-27T09:59:48Z</time></trkpt><trkpt lat="46.05884944915793" lon="13.16360996131303"><ele>101.0</ele><time>2026-04-27T09:59:49Z</time></trkpt><trkpt lat="46.058826160755096" lon="13.163304943714893"><ele>101.0</ele><time>2026-04-27T09:59:50Z</time></trkpt><trkpt lat="46.05879309729938" lon="13.163009959823992"><ele>101.0</ele><time>2026-04-27T09:59:51Z</time></trkpt><trkpt lat="46.05875457066845" lon="13.162719556619454"><ele>101.0</ele><time>2026-04-27T09:59:52Z</time></trkpt><trkpt lat="46.05870841695959" lon="13.162438324677181"><ele>101.66666666666666</ele><time>2026-04-27T09:59:53Z</time></trkpt><trkpt lat="46.05867176227155" lon="13.162155177956118"><ele>102.33333333333334</ele><time>2026-04-27T09:59:54Z</time></trkpt><trkpt lat="46.058578376645364" lon="13.161889649675372"><ele>103.0</ele><time>2026-04-27T09:59:55Z</time></trkpt><trkpt lat="46.05849040732017" lon="13.161614548371642"><ele>103.0</ele><time>2026-04-27T09:59:56Z</time></trkpt><trkpt lat="46.05838687505914" lon="13.161335874337906"><ele>103.0</ele><time>2026-04-27T09:59:57Z</time></trkpt><trkpt lat="46.058276132387114" lon="13.161055640972176"><ele>103.0</ele><time>2026-04-27T09:59:58Z</time></trkpt><trkpt lat="46.058156477435055" lon="13.16076803250924"><ele>101.5</ele><time>2026-04-27T09:59:59Z</time></trkpt><trkpt lat="46.05804014345027" lon="13.16047270474999"><ele>100.0</ele><time>2026-04-27T10:00:00Z</time></trkpt><trkpt lat="46.057932914795664" lon="13.160173101002108"><ele>99.5</ele><time>2026-04-27T10:00:01Z</time></trkpt><trkpt lat="46.05783309593854" lon="13.159863149980296"><ele>99.0</ele><time>2026-04-27T10:00:02Z</time></trkpt><trkpt lat="46.05774471172916" lon="13.159538429007181"><ele>99.0</ele><time>2026-04-27T10:00:03Z</time></trkpt><trkpt lat="46.057661194693864" lon="13.15920718224224"><ele>99.0</ele><time>2026-04-27T10:00:04Z</time></trkpt><trkpt lat="46.05758643774557" lon="13.158866326576852"><ele>99.0</ele><time>2026-04-27T10:00:05Z</time></trkpt><trkpt lat="46.05751555248238" lon="13.158523697623057"><ele>99.0</ele><time>2026-04-27T10:00:06Z</time></trkpt><trkpt lat="46.05744031410962" lon="13.158178346096502"><ele>99.5</ele><time>2026-04-27T10:00:07Z</time></trkpt><trkpt lat="46.05736216930905" lon="13.157833621014497"><ele>100.0</ele><time>2026-04-27T10:00:08Z</time></trkpt><trkpt lat="46.057283721475144" lon="13.157493248250617"><ele>100.0</ele><time>2026-04-27T10:00:09Z</time></trkpt><trkpt lat="46.057205054159965" lon="13.15715159305815"><ele>100.0</ele><time>2026-04-27T10:00:10Z</time></trkpt><trkpt lat="46.05713044642617" lon="13.1568048908091"><ele>100.5</ele><time>2026-04-27T10:00:11Z</time></trkpt><trkpt lat="46.05705403774036" lon="13.156465142460855"><ele>101.0</ele><time>2026-04-27T10:00:12Z</time></trkpt><trkpt lat="46.056977092894755" lon="13.15612921562857"><ele>101.0</ele><time>2026-04-27T10:00:13Z</time></trkpt><trkpt lat="46.05690120130742" lon="13.155802673385278"><ele>101.0</ele><time>2026-04-27T10:00:14Z</time></trkpt><trkpt lat="46.05682977006193" lon="13.155484221294055"><ele>101.0</ele><time>2026-04-27T10:00:15Z</time></trkpt><trkpt lat="46.05675997037004" lon="13.155173237520513"><ele>101.0</ele><time>2026-04-27T10:00:16Z</time></trkpt><trkpt lat="46.05669181145455" lon="13.154864635020001"><ele>100.33333333333333</ele><time>2026-04-27T10:00:17Z</time></trkpt><trkpt lat="46.056623243795435" lon="13.15455878706738"><ele>99.66666666666666</ele><time>2026-04-27T10:00:18Z</time></trkpt><trkpt lat="46.05655579553922" lon="13.154254043385446"><ele>99.0</ele><time>2026-04-27T10:00:19Z</time></trkpt><trkpt lat="46.05648751085046" lon="13.153947899006523"><ele>98.33333333333334</ele><time>2026-04-27T10:00:20Z</time></trkpt><trkpt lat="46.0564201111123" lon="13.153639771649795"><ele>97.66666666666667</ele><time>2026-04-27T10:00:21Z</time></trkpt><trkpt lat="46.05636173776406" lon="13.153330767167532"><ele>97.0</ele><time>2026-04-27T10:00:22Z</time></trkpt><trkpt lat="46.05631235279265" lon="13.15302012380665"><ele>97.0</ele><time>2026-04-27T10:00:23Z</time></trkpt><trkpt lat="46.056272066804645" lon="13.152696212510099"><ele>97.0</ele><time>2026-04-27T10:00:24Z</time></trkpt><trkpt lat="46.056244650069935" lon="13.152375590354927"><ele>98.0</ele><time>2026-04-27T10:00:25Z</time></trkpt><trkpt lat="46.05622846063196" lon="13.152049928130413"><ele>99.0</ele><time>2026-04-27T10:00:26Z</time></trkpt><trkpt lat="46.05622124059791" lon="13.151721746641734"><ele>99.0</ele><time>2026-04-27T10:00:27Z</time></trkpt><trkpt lat="46.056225784924756" lon="13.15139726157605"><ele>99.0</ele><time>2026-04-27T10:00:28Z</time></trkpt><trkpt lat="46.05624278120599" lon="13.151074068668695"><ele>99.0</ele><time>2026-04-27T10:00:29Z</time></trkpt><trkpt lat="46.056275439384734" lon="13.15075544181185"><ele>99.0</ele><time>2026-04-27T10:00:30Z</time></trkpt><trkpt lat="46.05631883760963" lon="13.150437080228171"><ele>99.0</ele><time>2026-04-27T10:00:31Z</time></trkpt><trkpt lat="46.05636910457702" lon="13.150116844753823"><ele>98.0</ele><time>2026-04-27T10:00:32Z</time></trkpt><trkpt lat="46.056427761314914" lon="13.149801368115028"><ele>97.0</ele><time>2026-04-27T10:00:33Z</time></trkpt><trkpt lat="46.0564980552988" lon="13.149489858529915"><ele>97.0</ele><time>2026-04-27T10:00:34Z</time></trkpt><trkpt lat="46.05658022335554" lon="13.149182008406983"><ele>97.0</ele><time>2026-04-27T10:00:35Z</time></trkpt><trkpt lat="46.05667018078112" lon="13.148876453769459"><ele>97.5</ele><time>2026-04-27T10:00:36Z</time></trkpt><trkpt lat="46.056766477629495" lon="13.148562531944084"><ele>98.0</ele><time>2026-04-27T10:00:37Z</time></trkpt><trkpt lat="46.05686486084732" lon="13.148233685325827"><ele>98.5</ele><time>2026-04-27T10:00:38Z</time></trkpt><trkpt lat="46.05696225697441" lon="13.147899093433738"><ele>99.0</ele><time>2026-04-27T10:00:39Z</time></trkpt><trkpt lat="46.05705622338219" lon="13.147562963251625"><ele>99.0</ele><time>2026-04-27T10:00:40Z</time></trkpt><trkpt lat="46.0571424380429" lon="13.147230788518513"><ele>99.0</ele><time>2026-04-27T10:00:41Z</time></trkpt><trkpt lat="46.057216074361406" lon="13.146913495637913"><ele>99.0</ele><time>2026-04-27T10:00:42Z</time></trkpt><trkpt lat="46.05728105933015" lon="13.146593560377655"><ele>99.0</ele><time>2026-04-27T10:00:43Z</time></trkpt><trkpt lat="46.05733591841803" lon="13.14627736949368"><ele>99.0</ele><time>2026-04-27T10:00:44Z</time></trkpt><trkpt lat="46.057384762518254" lon="13.145962430136866"><ele>99.0</ele><time>2026-04-27T10:00:45Z</time></trkpt><trkpt lat="46.057413581735695" lon="13.14564336098396"><ele>99.0</ele><time>2026-04-27T10:00:46.001Z</time></trkpt><trkpt lat="46.0574278098312" lon="13.14531791609573"><ele>99.0</ele><time>2026-04-27T10:00:47.001Z</time></trkpt><trkpt lat="46.05743052230774" lon="13.144992981835493"><ele>99.0</ele><time>2026-04-27T10:00:48.001Z</time></trkpt><trkpt lat="46.057427074731926" lon="13.144664498798619"><ele>99.0</ele><time>2026-04-27T10:00:49.001Z</time></trkpt><trkpt lat="46.05741547343423" lon="13.144335637266554"><ele>99.0</ele><time>2026-04-27T10:00:50.001Z</time></trkpt><trkpt lat="46.05739867127845" lon="13.14400471507903"><ele>99.0</ele><time>2026-04-27T10:00:51.001Z</time></trkpt><trkpt lat="46.05737977807357" lon="13.143675077841928"><ele>99.0</ele><time>2026-04-27T10:00:52.001Z</time></trkpt><trkpt lat="46.057362198976854" lon="13.143340732180313"><ele>99.0</ele><time>2026-04-27T10:00:53.001Z</time></trkpt><trkpt lat="46.05734622597472" lon="13.143004829350762"><ele>99.0</ele><time>2026-04-27T10:00:54.001Z</time></trkpt><trkpt lat="46.057331484346214" lon="13.142672636895693"><ele>99.66666666666666</ele><time>2026-04-27T10:00:55.001Z</time></trkpt><trkpt lat="46.057315298874386" lon="13.142343072163426"><ele>100.33333333333333</ele><time>2026-04-27T10:00:56.001Z</time></trkpt><trkpt lat="46.057300030327966" lon="13.142030378497385"><ele>101.0</ele><time>2026-04-27T10:00:57.001Z</time></trkpt><trkpt lat="46.05728608847321" lon="13.14173802485047"><ele>101.33333333333333</ele><time>2026-04-27T10:00:58.001Z</time></trkpt><trkpt lat="46.05726912144879" lon="13.141449302304123"><ele>101.66666666666666</ele><time>2026-04-27T10:00:59.001Z</time></trkpt><trkpt lat="46.05725459961152" lon="13.141177102363086"><ele>102.0</ele><time>2026-04-27T10:01:00.001Z</time></trkpt><trkpt lat="46.057247979383696" lon="13.140920438402818"><ele>101.5</ele><time>2026-04-27T10:01:01.001Z</time></trkpt><trkpt lat="46.05725061616515" lon="13.14067545678436"><ele>101.0</ele><time>2026-04-27T10:01:02.001Z</time></trkpt><trkpt lat="46.05726339313985" lon="13.14046599725834"><ele>100.5</ele><time>2026-04-27T10:01:03.001Z</time></trkpt><trkpt lat="46.05728303958599" lon="13.140287415552827"><ele>100.0</ele><time>2026-04-27T10:01:04.001Z</time></trkpt><trkpt lat="46.05731693015201" lon="13.140123131655953"><ele>100.0</ele><time>2026-04-27T10:01:05.001Z</time></trkpt><trkpt lat="46.05736191203965" lon="13.139970801977917"><ele>100.0</ele><time>2026-04-27T10:01:06.001Z</time></trkpt><trkpt lat="46.0573989743349" lon="13.139817861762255"><ele>100.0</ele><time>2026-04-27T10:01:07.001Z</time></trkpt><trkpt lat="46.0574233814808" lon="13.1396538942802"><ele>100.0</ele><time>2026-04-27T10:01:08.001Z</time></trkpt><trkpt lat="46.057426492857715" lon="13.139483480641083"><ele>100.0</ele><time>2026-04-27T10:01:09.001Z</time></trkpt><trkpt lat="46.05739837414755" lon="13.139323575651469"><ele>100.0</ele><time>2026-04-27T10:01:10.001Z</time></trkpt><trkpt lat="46.057362719005965" lon="13.139155416095473"><ele>100.0</ele><time>2026-04-27T10:01:11.001Z</time></trkpt><trkpt lat="46.05735180579646" lon="13.138979215450206"><ele>100.0</ele><time>2026-04-27T10:01:12.001Z</time></trkpt><trkpt lat="46.05736037927458" lon="13.138791896978598"><ele>99.66666666666667</ele><time>2026-04-27T10:01:13.001Z</time></trkpt><trkpt lat="46.057384713975864" lon="13.138592162745272"><ele>99.33333333333334</ele><time>2026-04-27T10:01:14.001Z</time></trkpt><trkpt lat="46.05743232108039" lon="13.138363364898712"><ele>99.0</ele><time>2026-04-27T10:01:15.001Z</time></trkpt><trkpt lat="46.05749148242269" lon="13.138116737735732"><ele>99.0</ele><time>2026-04-27T10:01:16.001Z</time></trkpt><trkpt lat="46.05756258936583" lon="13.13784543484974"><ele>99.0</ele><time>2026-04-27T10:01:17.001Z</time></trkpt><trkpt lat="46.057635629904205" lon="13.137549372315938"><ele>99.0</ele><time>2026-04-27T10:01:18.001Z</time></trkpt><trkpt lat="46.05770750677397" lon="13.13722642559498"><ele>98.5</ele><time>2026-04-27T10:01:19.001Z</time></trkpt><trkpt lat="46.05777615181755" lon="13.136908344240554"><ele>98.0</ele><time>2026-04-27T10:01:20.001Z</time></trkpt><trkpt lat="46.05783935009247" lon="13.136602948134604"><ele>98.66666666666666</ele><time>2026-04-27T10:01:21.001Z</time></trkpt><trkpt lat="46.05789541981858" lon="13.136317243630574"><ele>99.33333333333334</ele><time>2026-04-27T10:01:22.001Z</time></trkpt><trkpt lat="46.057947265834486" lon="13.13603300570859"><ele>100.0</ele><time>2026-04-27T10:01:23.001Z</time></trkpt><trkpt lat="46.05799105467422" lon="13.135740245146678"><ele>100.0</ele><time>2026-04-27T10:01:24.001Z</time></trkpt><trkpt lat="46.05801698664153" lon="13.135436342009884"><ele>100.0</ele><time>2026-04-27T10:01:25.001Z</time></trkpt><trkpt lat="46.058029513553834" lon="13.135121363656912"><ele>100.0</ele><time>2026-04-27T10:01:26.001Z</time></trkpt><trkpt lat="46.058030258748545" lon="13.134801428846595"><ele>100.5</ele><time>2026-04-27T10:01:27.001Z</time></trkpt><trkpt lat="46.05802354931038" lon="13.134478521270767"><ele>101.0</ele><time>2026-04-27T10:01:28.001Z</time></trkpt><trkpt lat="46.05800151649233" lon="13.1341479640685"><ele>101.5</ele><time>2026-04-27T10:01:29.001Z</time></trkpt><trkpt lat="46.057959496314695" lon="13.133813699505723"><ele>102.0</ele><time>2026-04-27T10:01:30.001Z</time></trkpt><trkpt lat="46.05790090704433" lon="13.133467662435036"><ele>101.5</ele><time>2026-04-27T10:01:31.001Z</time></trkpt><trkpt lat="46.057818936183665" lon="13.133095807057467"><ele>101.0</ele><time>2026-04-27T10:01:32.001Z</time></trkpt><trkpt lat="46.05772297006827" lon="13.132709344019938"><ele>101.0</ele><time>2026-04-27T10:01:33.001Z</time></trkpt><trkpt lat="46.05763224190342" lon="13.132341124978721"><ele>101.0</ele><time>2026-04-27T10:01:34.001Z</time></trkpt><trkpt lat="46.057552049605334" lon="13.13201096552775"><ele>101.0</ele><time>2026-04-27T10:01:35.001Z</time></trkpt><trkpt lat="46.05747900786319" lon="13.131695853170893"><ele>101.0</ele><time>2026-04-27T10:01:36.001Z</time></trkpt><trkpt lat="46.05741125171245" lon="13.131385965810724"><ele>100.5</ele><time>2026-04-27T10:01:37.001Z</time></trkpt><trkpt lat="46.05735469222332" lon="13.131070742328692"><ele>100.0</ele><time>2026-04-27T10:01:38.001Z</time></trkpt><trkpt lat="46.05731512011239" lon="13.130751558474627"><ele>99.5</ele><time>2026-04-27T10:01:39.001Z</time></trkpt><trkpt lat="46.057285490916556" lon="13.130431556474862"><ele>99.0</ele><time>2026-04-27T10:01:40.001Z</time></trkpt><trkpt lat="46.05726511854168" lon="13.130101826474586"><ele>99.0</ele><time>2026-04-27T10:01:41.001Z</time></trkpt><trkpt lat="46.0572535315545" lon="13.129767309673168"><ele>99.0</ele><time>2026-04-27T10:01:42.001Z</time></trkpt><trkpt lat="46.05725804091411" lon="13.12942914971626"><ele>99.0</ele><time>2026-04-27T10:01:43.001Z</time></trkpt><trkpt lat="46.057276637917305" lon="13.129081265053625"><ele>99.0</ele><time>2026-04-27T10:01:44.001Z</time></trkpt><trkpt lat="46.05730868422316" lon="13.128712629096352"><ele>99.5</ele><time>2026-04-27T10:01:45.001Z</time></trkpt><trkpt lat="46.05734970707347" lon="13.128319503880409"><ele>100.0</ele><time>2026-04-27T10:01:46.001Z</time></trkpt><trkpt lat="46.057395281913344" lon="13.12790539893129"><ele>100.0</ele><time>2026-04-27T10:01:47.001Z</time></trkpt><trkpt lat="46.057446087720116" lon="13.127471767236509"><ele>100.0</ele><time>2026-04-27T10:01:48.001Z</time></trkpt><trkpt lat="46.05750060704016" lon="13.127021031928612"><ele>101.0</ele><time>2026-04-27T10:01:48.999Z</time></trkpt><trkpt lat="46.057555021323196" lon="13.126556335934142"><ele>102.0</ele><time>2026-04-27T10:01:49.999Z</time></trkpt><trkpt lat="46.05760923140618" lon="13.126100635609461"><ele>101.5</ele><time>2026-04-27T10:01:50.999Z</time></trkpt><trkpt lat="46.05766537136363" lon="13.125640759579248"><ele>101.0</ele><time>2026-04-27T10:01:51.999Z</time></trkpt><trkpt lat="46.05772351664245" lon="13.125175594699071"><ele>101.0</ele><time>2026-04-27T10:01:52.999Z</time></trkpt><trkpt lat="46.05777714089197" lon="13.12472026410447"><ele>101.0</ele><time>2026-04-27T10:01:53.999Z</time></trkpt><trkpt lat="46.057827772805" lon="13.124278474852229"><ele>100.5</ele><time>2026-04-27T10:01:54.999Z</time></trkpt><trkpt lat="46.057878771600826" lon="13.123843086976983"><ele>100.0</ele><time>2026-04-27T10:01:55.999Z</time></trkpt><trkpt lat="46.057917599770505" lon="13.12341026063745"><ele>99.5</ele><time>2026-04-27T10:01:56.999Z</time></trkpt><trkpt lat="46.05794591654284" lon="13.122984473034778"><ele>99.0</ele><time>2026-04-27T10:01:57.999Z</time></trkpt><trkpt lat="46.057967626224006" lon="13.122557120414687"><ele>99.5</ele><time>2026-04-27T10:01:58.999Z</time></trkpt><trkpt lat="46.0579760278181" lon="13.122119529817782"><ele>100.0</ele><time>2026-04-27T10:01:59.999Z</time></trkpt><trkpt lat="46.05797319997011" lon="13.121667365911074"><ele>100.5</ele><time>2026-04-27T10:02:00.999Z</time></trkpt><trkpt lat="46.057958150793105" lon="13.121194713073434"><ele>101.0</ele><time>2026-04-27T10:02:01.999Z</time></trkpt><trkpt lat="46.057939216766734" lon="13.120718112445632"><ele>101.0</ele><time>2026-04-27T10:02:03Z</time></trkpt><trkpt lat="46.057927327606905" lon="13.120288853473038"><ele>101.0</ele><time>2026-04-27T10:02:04Z</time></trkpt><trkpt lat="46.05791514733293" lon="13.119895924626418"><ele>101.5</ele><time>2026-04-27T10:02:05Z</time></trkpt><trkpt lat="46.05790371101279" lon="13.11952349852559"><ele>102.0</ele><time>2026-04-27T10:02:06Z</time></trkpt><trkpt lat="46.057894177687864" lon="13.119161099247458"><ele>102.0</ele><time>2026-04-27T10:02:07Z</time></trkpt><trkpt lat="46.057887149984175" lon="13.118796256677744"><ele>102.0</ele><time>2026-04-27T10:02:08Z</time></trkpt><trkpt lat="46.05787753445095" lon="13.118429955091692"><ele>101.5</ele><time>2026-04-27T10:02:09Z</time></trkpt><trkpt lat="46.05787075422318" lon="13.118093760879361"><ele>101.0</ele><time>2026-04-27T10:02:10Z</time></trkpt><trkpt lat="46.05786407906912" lon="13.117777757323616"><ele>101.0</ele><time>2026-04-27T10:02:11Z</time></trkpt><trkpt lat="46.0578640614055" lon="13.117479494157106"><ele>101.0</ele><time>2026-04-27T10:02:12Z</time></trkpt><trkpt lat="46.05786910551877" lon="13.117216339837563"><ele>101.0</ele><time>2026-04-27T10:02:13Z</time></trkpt><trkpt lat="46.05787828690814" lon="13.11699054922669"><ele>100.8</ele><time>2026-04-27T10:02:14Z</time></trkpt><trkpt lat="46.057898855869915" lon="13.116812792382602"><ele>100.6</ele><time>2026-04-27T10:02:15Z</time></trkpt><trkpt lat="46.05793276969182" lon="13.116671165870596"><ele>100.4</ele><time>2026-04-27T10:02:16Z</time></trkpt><trkpt lat="46.05798507263329" lon="13.116533903684088"><ele>100.2</ele><time>2026-04-27T10:02:17Z</time></trkpt><trkpt lat="46.05804316233128" lon="13.116410687341677"><ele>100.0</ele><time>2026-04-27T10:02:18Z</time></trkpt><trkpt lat="46.05808780877856" lon="13.116287399564158"><ele>100.0</ele><time>2026-04-27T10:02:19Z</time></trkpt><trkpt lat="46.058093191164254" lon="13.116152621022119"><ele>100.0</ele><time>2026-04-27T10:02:20Z</time></trkpt><trkpt lat="46.0580679856378" lon="13.116000268752076"><ele>100.0</ele><time>2026-04-27T10:02:21Z</time></trkpt><trkpt lat="46.058008594427534" lon="13.115849865442229"><ele>100.0</ele><time>2026-04-27T10:02:22Z</time></trkpt><trkpt lat="46.05790976380204" lon="13.115695108260978"><ele>99.66666666666667</ele><time>2026-04-27T10:02:23Z</time></trkpt><trkpt lat="46.057812931206776" lon="13.115525836342368"><ele>99.33333333333334</ele><time>2026-04-27T10:02:24Z</time></trkpt><trkpt lat="46.05776364245548" lon="13.115327485281728"><ele>99.0</ele><time>2026-04-27T10:02:25Z</time></trkpt><trkpt lat="46.05773171746182" lon="13.115104361921505"><ele>99.0</ele><time>2026-04-27T10:02:26Z</time></trkpt><trkpt lat="46.057712681569775" lon="13.114848920595657"><ele>99.0</ele><time>2026-04-27T10:02:27Z</time></trkpt><trkpt lat="46.057695756943104" lon="13.114552304246544"><ele>99.0</ele><time>2026-04-27T10:02:28Z</time></trkpt><trkpt lat="46.05767029213397" lon="13.114206039659082"><ele>99.5</ele><time>2026-04-27T10:02:29Z</time></trkpt><trkpt lat="46.05762476857748" lon="13.113842808492228"><ele>100.0</ele><time>2026-04-27T10:02:30Z</time></trkpt><trkpt lat="46.057574990868886" lon="13.113460901566427"><ele>100.5</ele><time>2026-04-27T10:02:31Z</time></trkpt><trkpt lat="46.05752605921921" lon="13.113084770387614"><ele>101.0</ele><time>2026-04-27T10:02:32Z</time></trkpt><trkpt lat="46.05747966491737" lon="13.112740440853578"><ele>101.5</ele><time>2026-04-27T10:02:33Z</time></trkpt><trkpt lat="46.05743516074181" lon="13.112397217290873"><ele>102.0</ele><time>2026-04-27T10:02:34Z</time></trkpt><trkpt lat="46.057389996396545" lon="13.11203379916454"><ele>102.0</ele><time>2026-04-27T10:02:35Z</time></trkpt><trkpt lat="46.05734584923185" lon="13.111663991508081"><ele>102.0</ele><time>2026-04-27T10:02:36Z</time></trkpt><trkpt lat="46.057299604071815" lon="13.111310532210082"><ele>102.0</ele><time>2026-04-27T10:02:37Z</time></trkpt><trkpt lat="46.057262728213864" lon="13.11097853571411"><ele>102.0</ele><time>2026-04-27T10:02:38Z</time></trkpt><trkpt lat="46.0572248443244" lon="13.110683571065659"><ele>102.0</ele><time>2026-04-27T10:02:39Z</time></trkpt><trkpt lat="46.0571879811217" lon="13.110383485668052"><ele>101.5</ele><time>2026-04-27T10:02:40Z</time></trkpt><trkpt lat="46.057140047305964" lon="13.110064236822199"><ele>101.0</ele><time>2026-04-27T10:02:41Z</time></trkpt><trkpt lat="46.05708560871859" lon="13.109720412261359"><ele>101.0</ele><time>2026-04-27T10:02:42Z</time></trkpt><trkpt lat="46.05704255008603" lon="13.109354567886458"><ele>101.0</ele><time>2026-04-27T10:02:43Z</time></trkpt><trkpt lat="46.057008651489205" lon="13.108969607116764"><ele>100.5</ele><time>2026-04-27T10:02:44Z</time></trkpt><trkpt lat="46.056973319979264" lon="13.108606248535143"><ele>100.0</ele><time>2026-04-27T10:02:45Z</time></trkpt><trkpt lat="46.05693904955748" lon="13.108257836924356"><ele>99.5</ele><time>2026-04-27T10:02:46Z</time></trkpt><trkpt lat="46.05690832105148" lon="13.107915070975224"><ele>99.0</ele><time>2026-04-27T10:02:47Z</time></trkpt><trkpt lat="46.056888488855044" lon="13.10756926790169"><ele>98.0</ele><time>2026-04-27T10:02:48Z</time></trkpt><trkpt lat="46.05687936454087" lon="13.107221500903348"><ele>97.0</ele><time>2026-04-27T10:02:49.001Z</time></trkpt><trkpt lat="46.05687936167602" lon="13.106864550281678"><ele>97.5</ele><time>2026-04-27T10:02:50.001Z</time></trkpt><trkpt lat="46.056890113777854" lon="13.106492881010908"><ele>98.0</ele><time>2026-04-27T10:02:51.001Z</time></trkpt><trkpt lat="46.05691155494246" lon="13.106097556357575"><ele>98.5</ele><time>2026-04-27T10:02:52.001Z</time></trkpt><trkpt lat="46.056931824803385" lon="13.105683965185062"><ele>99.0</ele><time>2026-04-27T10:02:53.001Z</time></trkpt><trkpt lat="46.05695266428913" lon="13.105250869402823"><ele>98.5</ele><time>2026-04-27T10:02:54.001Z</time></trkpt><trkpt lat="46.05697292996792" lon="13.104796549809853"><ele>98.0</ele><time>2026-04-27T10:02:55.001Z</time></trkpt><trkpt lat="46.056997465363914" lon="13.104333528403593"><ele>98.0</ele><time>2026-04-27T10:02:56.001Z</time></trkpt><trkpt lat="46.057016595032415" lon="13.103907837418312"><ele>98.0</ele><time>2026-04-27T10:02:57.001Z</time></trkpt><trkpt lat="46.05703834477806" lon="13.103504009340238"><ele>97.5</ele><time>2026-04-27T10:02:58.001Z</time></trkpt><trkpt lat="46.05705738180705" lon="13.103120773655098"><ele>97.0</ele><time>2026-04-27T10:02:59.001Z</time></trkpt><trkpt lat="46.05707747999503" lon="13.10277024825752"><ele>97.0</ele><time>2026-04-27T10:03:00.001Z</time></trkpt><trkpt lat="46.057095854738044" lon="13.102445581883785"><ele>97.0</ele><time>2026-04-27T10:03:01.001Z</time></trkpt><trkpt lat="46.05711112088102" lon="13.102121418610427"><ele>96.5</ele><time>2026-04-27T10:03:02.001Z</time></trkpt><trkpt lat="46.05712417424917" lon="13.101781911405563"><ele>96.0</ele><time>2026-04-27T10:03:03.001Z</time></trkpt><trkpt lat="46.057138302170245" lon="13.101431733572502"><ele>96.0</ele><time>2026-04-27T10:03:04.001Z</time></trkpt><trkpt lat="46.05715451207021" lon="13.101079371657866"><ele>96.0</ele><time>2026-04-27T10:03:05.001Z</time></trkpt><trkpt lat="46.0571760691839" lon="13.100738315913176"><ele>95.5</ele><time>2026-04-27T10:03:06.001Z</time></trkpt><trkpt lat="46.057196472236" lon="13.100409874704093"><ele>95.0</ele><time>2026-04-27T10:03:07.001Z</time></trkpt><trkpt lat="46.057216593858826" lon="13.10009110810606"><ele>95.5</ele><time>2026-04-27T10:03:08.001Z</time></trkpt><trkpt lat="46.057233351862365" lon="13.099768555550712"><ele>96.0</ele><time>2026-04-27T10:03:09.001Z</time></trkpt><trkpt lat="46.05724762487677" lon="13.099421884658634"><ele>96.5</ele><time>2026-04-27T10:03:10.001Z</time></trkpt><trkpt lat="46.05726455753669" lon="13.099045682349212"><ele>97.0</ele><time>2026-04-27T10:03:11.001Z</time></trkpt><trkpt lat="46.057279330894" lon="13.098656055077978"><ele>97.0</ele><time>2026-04-27T10:03:12.001Z</time></trkpt><trkpt lat="46.057296999582796" lon="13.098249521089814"><ele>97.0</ele><time>2026-04-27T10:03:13.001Z</time></trkpt><trkpt lat="46.05731708280129" lon="13.097841796202399"><ele>97.0</ele><time>2026-04-27T10:03:14.001Z</time></trkpt><trkpt lat="46.05733766505244" lon="13.097425607949452"><ele>97.0</ele><time>2026-04-27T10:03:15.001Z</time></trkpt><trkpt lat="46.05735794184022" lon="13.097006366769468"><ele>97.0</ele><time>2026-04-27T10:03:16.001Z</time></trkpt><trkpt lat="46.0573770894284" lon="13.096585981201192"><ele>97.0</ele><time>2026-04-27T10:03:17.001Z</time></trkpt><trkpt lat="46.05739558513901" lon="13.09616499347533"><ele>97.0</ele><time>2026-04-27T10:03:18.001Z</time></trkpt><trkpt lat="46.057417770778855" lon="13.095754081946337"><ele>97.0</ele><time>2026-04-27T10:03:19.001Z</time></trkpt><trkpt lat="46.057440672916385" lon="13.095361587637912"><ele>97.5</ele><time>2026-04-27T10:03:20.001Z</time></trkpt><trkpt lat="46.05745913619677" lon="13.094997255538729"><ele>98.0</ele><time>2026-04-27T10:03:21.001Z</time></trkpt><trkpt lat="46.05747420957823" lon="13.094655639073412"><ele>98.0</ele><time>2026-04-27T10:03:22.001Z</time></trkpt><trkpt lat="46.05749126017312" lon="13.094358359110744"><ele>98.0</ele><time>2026-04-27T10:03:23.001Z</time></trkpt><trkpt lat="46.05750477193467" lon="13.094067446728713"><ele>98.0</ele><time>2026-04-27T10:03:24.001Z</time></trkpt><trkpt lat="46.05751882045138" lon="13.093791627160794"><ele>98.0</ele><time>2026-04-27T10:03:25.001Z</time></trkpt><trkpt lat="46.05753072674702" lon="13.093532713149536"><ele>98.0</ele><time>2026-04-27T10:03:26.001Z</time></trkpt><trkpt lat="46.05754051447618" lon="13.093294797022297"><ele>98.0</ele><time>2026-04-27T10:03:27.001Z</time></trkpt><trkpt lat="46.0575446122254" lon="13.093056743464722"><ele>97.66666666666666</ele><time>2026-04-27T10:03:28.001Z</time></trkpt><trkpt lat="46.057538407338505" lon="13.092803576541732"><ele>97.33333333333334</ele><time>2026-04-27T10:03:29.001Z</time></trkpt><trkpt lat="46.057514186481356" lon="13.092521702635619"><ele>97.0</ele><time>2026-04-27T10:03:30.001Z</time></trkpt><trkpt lat="46.05748897718105" lon="13.09223634136146"><ele>97.66666666666667</ele><time>2026-04-27T10:03:31.001Z</time></trkpt><trkpt lat="46.05745585924155" lon="13.091927140002472"><ele>98.33333333333334</ele><time>2026-04-27T10:03:32.001Z</time></trkpt><trkpt lat="46.057417304175985" lon="13.091617031240622"><ele>99.0</ele><time>2026-04-27T10:03:33.001Z</time></trkpt><trkpt lat="46.05738551671552" lon="13.091329647849177"><ele>99.0</ele><time>2026-04-27T10:03:34.001Z</time></trkpt><trkpt lat="46.05735236564367" lon="13.091047359617834"><ele>99.0</ele><time>2026-04-27T10:03:35.001Z</time></trkpt><trkpt lat="46.05732395083097" lon="13.090761500185991"><ele>99.0</ele><time>2026-04-27T10:03:36.001Z</time></trkpt><trkpt lat="46.057295299271416" lon="13.090473980873021"><ele>99.0</ele><time>2026-04-27T10:03:37.001Z</time></trkpt><trkpt lat="46.05727276829694" lon="13.090195826487642"><ele>99.0</ele><time>2026-04-27T10:03:38.001Z</time></trkpt><trkpt lat="46.057247912919394" lon="13.089938396661626"><ele>99.0</ele><time>2026-04-27T10:03:39.001Z</time></trkpt><trkpt lat="46.057225661110934" lon="13.089698832313648"><ele>99.0</ele><time>2026-04-27T10:03:40.001Z</time></trkpt><trkpt lat="46.05720491762326" lon="13.08947509756019"><ele>99.0</ele><time>2026-04-27T10:03:41.001Z</time></trkpt><trkpt lat="46.05718313770015" lon="13.089253609694612"><ele>99.0</ele><time>2026-04-27T10:03:42.001Z</time></trkpt><trkpt lat="46.05716504419511" lon="13.089050578275534"><ele>98.75</ele><time>2026-04-27T10:03:43.001Z</time></trkpt><trkpt lat="46.05714509060173" lon="13.08884875954586"><ele>98.5</ele><time>2026-04-27T10:03:44.001Z</time></trkpt><trkpt lat="46.057118691086885" lon="13.088654721433565"><ele>98.25</ele><time>2026-04-27T10:03:45.001Z</time></trkpt><trkpt lat="46.05709623243996" lon="13.088435044711334"><ele>98.0</ele><time>2026-04-27T10:03:46.001Z</time></trkpt><trkpt lat="46.05707657144596" lon="13.088208543984319"><ele>98.0</ele><time>2026-04-27T10:03:47.001Z</time></trkpt><trkpt lat="46.05705589249526" lon="13.087986335763254"><ele>98.0</ele><time>2026-04-27T10:03:48.001Z</time></trkpt><trkpt lat="46.0570341206342" lon="13.087765228168031"><ele>98.0</ele><time>2026-04-27T10:03:49.001Z</time></trkpt><trkpt lat="46.05701520558472" lon="13.087547533539263"><ele>98.0</ele><time>2026-04-27T10:03:50.001Z</time></trkpt><trkpt lat="46.05699742869404" lon="13.087336944416842"><ele>98.0</ele><time>2026-04-27T10:03:51.001Z</time></trkpt><trkpt lat="46.05697795408393" lon="13.08712363795456"><ele>98.0</ele><time>2026-04-27T10:03:52.001Z</time></trkpt><trkpt lat="46.05695982146549" lon="13.086907883966163"><ele>98.0</ele><time>2026-04-27T10:03:53.001Z</time></trkpt><trkpt lat="46.05695260396381" lon="13.086683680269926"><ele>98.0</ele><time>2026-04-27T10:03:54.001Z</time></trkpt><trkpt lat="46.056948506749" lon="13.086463629064985"><ele>98.0</ele><time>2026-04-27T10:03:54.999Z</time></trkpt><trkpt lat="46.05695205298712" lon="13.086260664326907"><ele>98.0</ele><time>2026-04-27T10:03:55.999Z</time></trkpt><trkpt lat="46.0569605872332" lon="13.086069378402456"><ele>98.0</ele><time>2026-04-27T10:03:56.999Z</time></trkpt><trkpt lat="46.05697245889007" lon="13.08592974698566"><ele>98.0</ele><time>2026-04-27T10:03:57.999Z</time></trkpt><trkpt lat="46.056970160509266" lon="13.08582220750062"><ele>98.0</ele><time>2026-04-27T10:03:59.999Z</time></trkpt><trkpt lat="46.05695428547915" lon="13.08562179682426"><ele>98.0</ele><time>2026-04-27T10:04:29Z</time></trkpt><trkpt lat="46.05696117699169" lon="13.085499863610831"><ele>98.0</ele><time>2026-04-27T10:04:30Z</time></trkpt><trkpt lat="46.056966889297854" lon="13.08535072502686"><ele>98.0</ele><time>2026-04-27T10:04:31Z</time></trkpt><trkpt lat="46.05695763898018" lon="13.08519623426672"><ele>98.2</ele><time>2026-04-27T10:04:32Z</time></trkpt><trkpt lat="46.056934538315836" lon="13.085048743855763"><ele>98.4</ele><time>2026-04-27T10:04:33Z</time></trkpt><trkpt lat="46.05689492920499" lon="13.0849067216796"><ele>98.60000000000001</ele><time>2026-04-27T10:04:34Z</time></trkpt><trkpt lat="46.056851056541234" lon="13.084756389642118"><ele>98.80000000000001</ele><time>2026-04-27T10:04:35Z</time></trkpt><trkpt lat="46.05680615056228" lon="13.084601762483446"><ele>99.0</ele><time>2026-04-27T10:04:36Z</time></trkpt><trkpt lat="46.056760810912856" lon="13.08443958781629"><ele>99.0</ele><time>2026-04-27T10:04:37Z</time></trkpt><trkpt lat="46.056713820456196" lon="13.084275549672347"><ele>99.0</ele><time>2026-04-27T10:04:38Z</time></trkpt><trkpt lat="46.056667618378974" lon="13.084117624619468"><ele>99.0</ele><time>2026-04-27T10:04:39Z</time></trkpt><trkpt lat="46.056620569053685" lon="13.08395668719922"><ele>99.0</ele><time>2026-04-27T10:04:40Z</time></trkpt><trkpt lat="46.056569888582445" lon="13.08378871661728"><ele>98.5</ele><time>2026-04-27T10:04:41Z</time></trkpt><trkpt lat="46.05651945741003" lon="13.08362401524908"><ele>98.0</ele><time>2026-04-27T10:04:42Z</time></trkpt><trkpt lat="46.05646893091327" lon="13.083452855811307"><ele>97.5</ele><time>2026-04-27T10:04:43Z</time></trkpt><trkpt lat="46.05641998287055" lon="13.08328162684133"><ele>97.0</ele><time>2026-04-27T10:04:44Z</time></trkpt><trkpt lat="46.05637399806933" lon="13.083118875490888"><ele>97.0</ele><time>2026-04-27T10:04:45Z</time></trkpt><trkpt lat="46.05632496780159" lon="13.082954390743987"><ele>97.0</ele><time>2026-04-27T10:04:46Z</time></trkpt><trkpt lat="46.056276338690694" lon="13.08278596274579"><ele>97.0</ele><time>2026-04-27T10:04:47Z</time></trkpt><trkpt lat="46.05622987328804" lon="13.082616121367472"><ele>97.0</ele><time>2026-04-27T10:04:48Z</time></trkpt><trkpt lat="46.05618250257673" lon="13.082446100092156"><ele>97.0</ele><time>2026-04-27T10:04:49Z</time></trkpt><trkpt lat="46.056135631363574" lon="13.082276101712447"><ele>97.0</ele><time>2026-04-27T10:04:50Z</time></trkpt><trkpt lat="46.05608920402064" lon="13.082104776475127"><ele>97.0</ele><time>2026-04-27T10:04:51Z</time></trkpt><trkpt lat="46.05604592717151" lon="13.081928888892632"><ele>97.0</ele><time>2026-04-27T10:04:52Z</time></trkpt><trkpt lat="46.056008168645455" lon="13.081751997571658"><ele>97.25</ele><time>2026-04-27T10:04:53Z</time></trkpt><trkpt lat="46.05597703042959" lon="13.081574290575134"><ele>97.5</ele><time>2026-04-27T10:04:54Z</time></trkpt><trkpt lat="46.055955853472696" lon="13.081399143663754"><ele>97.75</ele><time>2026-04-27T10:04:55Z</time></trkpt><trkpt lat="46.05594303766385" lon="13.08123614812406"><ele>98.0</ele><time>2026-04-27T10:04:56Z</time></trkpt><trkpt lat="46.05593400656868" lon="13.081069447719953"><ele>98.0</ele><time>2026-04-27T10:04:57Z</time></trkpt><trkpt lat="46.05592949421715" lon="13.080896575073577"><ele>98.0</ele><time>2026-04-27T10:04:58Z</time></trkpt><trkpt lat="46.05592308619659" lon="13.080713608176154"><ele>98.0</ele><time>2026-04-27T10:04:59.001Z</time></trkpt><trkpt lat="46.05591501078847" lon="13.080517615982313"><ele>98.0</ele><time>2026-04-27T10:05:00.001Z</time></trkpt><trkpt lat="46.05590387353658" lon="13.080310499187927"><ele>98.0</ele><time>2026-04-27T10:05:01.001Z</time></trkpt><trkpt lat="46.05589324897334" lon="13.080096285046098"><ele>98.0</ele><time>2026-04-27T10:05:02.001Z</time></trkpt><trkpt lat="46.05588360330606" lon="13.07987240583406"><ele>98.0</ele><time>2026-04-27T10:05:03.001Z</time></trkpt><trkpt lat="46.055872684162225" lon="13.079638205779357"><ele>98.0</ele><time>2026-04-27T10:05:04.001Z</time></trkpt><trkpt lat="46.05586143364552" lon="13.079395159441805"><ele>98.0</ele><time>2026-04-27T10:05:05.001Z</time></trkpt><trkpt lat="46.0558527303648" lon="13.079151903398248"><ele>98.0</ele><time>2026-04-27T10:05:06.001Z</time></trkpt><trkpt lat="46.0558422563804" lon="13.07889961438005"><ele>97.66666666666666</ele><time>2026-04-27T10:05:07.001Z</time></trkpt><trkpt lat="46.05583187166273" lon="13.078642928874308"><ele>97.33333333333334</ele><time>2026-04-27T10:05:08.001Z</time></trkpt><trkpt lat="46.05581418596413" lon="13.078366421799261"><ele>97.0</ele><time>2026-04-27T10:05:09.001Z</time></trkpt><trkpt lat="46.05580024365501" lon="13.078082968317776"><ele>97.0</ele><time>2026-04-27T10:05:10.001Z</time></trkpt><trkpt lat="46.05578571302698" lon="13.077781749491526"><ele>97.0</ele><time>2026-04-27T10:05:11.001Z</time></trkpt><trkpt lat="46.05577127981749" lon="13.077475578939453"><ele>97.0</ele><time>2026-04-27T10:05:12.001Z</time></trkpt><trkpt lat="46.05575813123576" lon="13.077154178031012"><ele>96.5</ele><time>2026-04-27T10:05:13.001Z</time></trkpt><trkpt lat="46.05574452789801" lon="13.076821807341592"><ele>96.0</ele><time>2026-04-27T10:05:14.001Z</time></trkpt><trkpt lat="46.05573246780907" lon="13.076496502004098"><ele>96.66666666666666</ele><time>2026-04-27T10:05:15.001Z</time></trkpt><trkpt lat="46.055718158107425" lon="13.076172093140968"><ele>97.33333333333333</ele><time>2026-04-27T10:05:16.001Z</time></trkpt><trkpt lat="46.05570487286403" lon="13.075850901113473"><ele>98.0</ele><time>2026-04-27T10:05:17.001Z</time></trkpt><trkpt lat="46.05568890410785" lon="13.075533410632485"><ele>98.0</ele><time>2026-04-27T10:05:18.001Z</time></trkpt><trkpt lat="46.05567585036478" lon="13.07522170663614"><ele>98.0</ele><time>2026-04-27T10:05:19.001Z</time></trkpt><trkpt lat="46.0556581853656" lon="13.074904158825793"><ele>98.0</ele><time>2026-04-27T10:05:20.001Z</time></trkpt><trkpt lat="46.05564407867095" lon="13.074585918464408"><ele>98.0</ele><time>2026-04-27T10:05:21.001Z</time></trkpt><trkpt lat="46.05562996851787" lon="13.074259861856275"><ele>98.0</ele><time>2026-04-27T10:05:22.001Z</time></trkpt><trkpt lat="46.05561375594769" lon="13.07391305967423"><ele>97.0</ele><time>2026-04-27T10:05:23.001Z</time></trkpt><trkpt lat="46.05559651638174" lon="13.073554715279077"><ele>96.0</ele><time>2026-04-27T10:05:24.001Z</time></trkpt><trkpt lat="46.05558131587702" lon="13.073194089575285"><ele>96.0</ele><time>2026-04-27T10:05:25.001Z</time></trkpt><trkpt lat="46.05556372431949" lon="13.07283076181955"><ele>96.0</ele><time>2026-04-27T10:05:26.001Z</time></trkpt><trkpt lat="46.0555468314519" lon="13.072467898617512"><ele>96.5</ele><time>2026-04-27T10:05:27.001Z</time></trkpt><trkpt lat="46.05552806636322" lon="13.072106151045052"><ele>97.0</ele><time>2026-04-27T10:05:28.001Z</time></trkpt><trkpt lat="46.05550942940445" lon="13.071746899861637"><ele>96.5</ele><time>2026-04-27T10:05:29.001Z</time></trkpt><trkpt lat="46.05549207166302" lon="13.071383458953948"><ele>96.0</ele><time>2026-04-27T10:05:30.001Z</time></trkpt><trkpt lat="46.05547602979215" lon="13.071020581820571"><ele>96.5</ele><time>2026-04-27T10:05:31.001Z</time></trkpt><trkpt lat="46.05545827891885" lon="13.070659198996111"><ele>97.0</ele><time>2026-04-27T10:05:32.001Z</time></trkpt><trkpt lat="46.055441088044816" lon="13.070294785753482"><ele>97.5</ele><time>2026-04-27T10:05:33.001Z</time></trkpt><trkpt lat="46.05542417392503" lon="13.069933111831578"><ele>98.0</ele><time>2026-04-27T10:05:34.001Z</time></trkpt><trkpt lat="46.055408829285746" lon="13.069598619171625"><ele>98.0</ele><time>2026-04-27T10:05:35.001Z</time></trkpt><trkpt lat="46.05539543799791" lon="13.069279037463867"><ele>98.0</ele><time>2026-04-27T10:05:36.001Z</time></trkpt><trkpt lat="46.05538161153344" lon="13.068976436070333"><ele>98.0</ele><time>2026-04-27T10:05:37.001Z</time></trkpt><trkpt lat="46.0553695766535" lon="13.068690077873736"><ele>98.0</ele><time>2026-04-27T10:05:38.001Z</time></trkpt><trkpt lat="46.05535687268219" lon="13.068403703220682"><ele>98.0</ele><time>2026-04-27T10:05:39.001Z</time></trkpt><trkpt lat="46.055333702059144" lon="13.068120753255158"><ele>98.0</ele><time>2026-04-27T10:05:40.001Z</time></trkpt><trkpt lat="46.05529941115302" lon="13.067834403512402"><ele>98.0</ele><time>2026-04-27T10:05:41.001Z</time></trkpt><trkpt lat="46.055254791416154" lon="13.067547083009996"><ele>98.0</ele><time>2026-04-27T10:05:42.001Z</time></trkpt><trkpt lat="46.0551997620961" lon="13.06723844937412"><ele>98.0</ele><time>2026-04-27T10:05:43.001Z</time></trkpt><trkpt lat="46.05514229092647" lon="13.066898922353328"><ele>97.5</ele><time>2026-04-27T10:05:44.001Z</time></trkpt><trkpt lat="46.05508296812309" lon="13.0665457326778"><ele>97.0</ele><time>2026-04-27T10:05:45.001Z</time></trkpt><trkpt lat="46.05503256156997" lon="13.066225259469698"><ele>97.0</ele><time>2026-04-27T10:05:46.001Z</time></trkpt><trkpt lat="46.054986409454834" lon="13.065927377115381"><ele>97.0</ele><time>2026-04-27T10:05:47.001Z</time></trkpt><trkpt lat="46.054941991664755" lon="13.065651064020452"><ele>97.0</ele><time>2026-04-27T10:05:48.001Z</time></trkpt><trkpt lat="46.0548986947282" lon="13.065380007492568"><ele>97.0</ele><time>2026-04-27T10:05:49.001Z</time></trkpt><trkpt lat="46.05485761049454" lon="13.065109449711446"><ele>97.0</ele><time>2026-04-27T10:05:50.001Z</time></trkpt><trkpt lat="46.05481697438699" lon="13.064850509057903"><ele>97.0</ele><time>2026-04-27T10:05:51.001Z</time></trkpt><trkpt lat="46.05477721718944" lon="13.064606770132302"><ele>97.33333333333334</ele><time>2026-04-27T10:05:52.001Z</time></trkpt><trkpt lat="46.05473786727395" lon="13.064343312555534"><ele>97.66666666666666</ele><time>2026-04-27T10:05:53.002Z</time></trkpt><trkpt lat="46.054699114271415" lon="13.064075890434323"><ele>98.0</ele><time>2026-04-27T10:05:54.002Z</time></trkpt><trkpt lat="46.05465595814837" lon="13.063797888086702"><ele>98.0</ele><time>2026-04-27T10:05:55.002Z</time></trkpt><trkpt lat="46.05460743868279" lon="13.063508573215884"><ele>98.0</ele><time>2026-04-27T10:05:56.002Z</time></trkpt><trkpt lat="46.05455903801117" lon="13.063209592771903"><ele>98.0</ele><time>2026-04-27T10:05:57.002Z</time></trkpt><trkpt lat="46.054511372522455" lon="13.06290155429442"><ele>98.0</ele><time>2026-04-27T10:05:58.002Z</time></trkpt><trkpt lat="46.05446178761688" lon="13.06259720930962"><ele>98.0</ele><time>2026-04-27T10:05:59.002Z</time></trkpt><trkpt lat="46.05441484048232" lon="13.062290713082604"><ele>98.0</ele><time>2026-04-27T10:06:00.002Z</time></trkpt><trkpt lat="46.05436851448875" lon="13.061998822263895"><ele>98.0</ele><time>2026-04-27T10:06:00.999Z</time></trkpt><trkpt lat="46.05432308546747" lon="13.061719431444429"><ele>98.0</ele><time>2026-04-27T10:06:01.999Z</time></trkpt><trkpt lat="46.05427701801863" lon="13.061436826837214"><ele>98.0</ele><time>2026-04-27T10:06:02.999Z</time></trkpt><trkpt lat="46.05423169820936" lon="13.061153253583615"><ele>98.0</ele><time>2026-04-27T10:06:03.999Z</time></trkpt><trkpt lat="46.05418764345059" lon="13.06087162879221"><ele>98.0</ele><time>2026-04-27T10:06:04.999Z</time></trkpt><trkpt lat="46.0541420394556" lon="13.060589693743479"><ele>98.0</ele><time>2026-04-27T10:06:05.999Z</time></trkpt><trkpt lat="46.05409703743067" lon="13.060310681223559"><ele>98.33333333333333</ele><time>2026-04-27T10:06:06.999Z</time></trkpt><trkpt lat="46.05405167963534" lon="13.060029365481242"><ele>98.66666666666666</ele><time>2026-04-27T10:06:07.999Z</time></trkpt><trkpt lat="46.0540028751412" lon="13.059751457343296"><ele>99.0</ele><time>2026-04-27T10:06:08.999Z</time></trkpt><trkpt lat="46.05395600555839" lon="13.059467034200008"><ele>99.0</ele><time>2026-04-27T10:06:09.999Z</time></trkpt><trkpt lat="46.053910680839564" lon="13.059168236661277"><ele>99.0</ele><time>2026-04-27T10:06:10.999Z</time></trkpt><trkpt lat="46.05386598414851" lon="13.058864114197123"><ele>99.0</ele><time>2026-04-27T10:06:11.999Z</time></trkpt><trkpt lat="46.053823184848184" lon="13.05857969264281"><ele>99.0</ele><time>2026-04-27T10:06:12.999Z</time></trkpt><trkpt lat="46.05378031496376" lon="13.058307543147533"><ele>99.0</ele><time>2026-04-27T10:06:13.999Z</time></trkpt><trkpt lat="46.05373556910831" lon="13.058024406756061"><ele>99.0</ele><time>2026-04-27T10:06:14.999Z</time></trkpt><trkpt lat="46.05369224351188" lon="13.05774705522789"><ele>98.66666666666666</ele><time>2026-04-27T10:06:15.999Z</time></trkpt><trkpt lat="46.05365211945096" lon="13.05748863615618"><ele>98.33333333333333</ele><time>2026-04-27T10:06:16.999Z</time></trkpt><trkpt lat="46.05361378357729" lon="13.057240896903432"><ele>98.0</ele><time>2026-04-27T10:06:17.999Z</time></trkpt><trkpt lat="46.05357807063111" lon="13.057007739271322"><ele>97.66666666666666</ele><time>2026-04-27T10:06:18.999Z</time></trkpt><trkpt lat="46.053542256346674" lon="13.056785248427557"><ele>97.33333333333334</ele><time>2026-04-27T10:06:20Z</time></trkpt><trkpt lat="46.05350678632856" lon="13.056570893513301"><ele>97.0</ele><time>2026-04-27T10:06:21Z</time></trkpt><trkpt lat="46.0534787626542" lon="13.056368097837955"><ele>97.0</ele><time>2026-04-27T10:06:22Z</time></trkpt><trkpt lat="46.05346210366431" lon="13.056179043357606"><ele>97.0</ele><time>2026-04-27T10:06:23Z</time></trkpt><trkpt lat="46.053455215838035" lon="13.056001734082622"><ele>97.0</ele><time>2026-04-27T10:06:24Z</time></trkpt><trkpt lat="46.05345865424789" lon="13.055837569241634"><ele>97.0</ele><time>2026-04-27T10:06:25Z</time></trkpt><trkpt lat="46.05347116162751" lon="13.05568323565572"><ele>97.00000000000001</ele><time>2026-04-27T10:06:26Z</time></trkpt><trkpt lat="46.053491090566865" lon="13.055539745384813"><ele>97.0</ele><time>2026-04-27T10:06:27Z</time></trkpt><trkpt lat="46.05352302527873" lon="13.05541079404683"><ele>97.0</ele><time>2026-04-27T10:06:28Z</time></trkpt><trkpt lat="46.05356397953971" lon="13.055291786595832"><ele>97.0</ele><time>2026-04-27T10:06:29Z</time></trkpt><trkpt lat="46.05358738468393" lon="13.055178938723953"><ele>97.00000000000001</ele><time>2026-04-27T10:06:30Z</time></trkpt><trkpt lat="46.05356873493686" lon="13.055075521100248"><ele>97.0</ele><time>2026-04-27T10:06:31Z</time></trkpt><trkpt lat="46.053514223850215" lon="13.054980404888159"><ele>97.25</ele><time>2026-04-27T10:06:32Z</time></trkpt><trkpt lat="46.053426894245256" lon="13.054892395904716"><ele>97.5</ele><time>2026-04-27T10:06:33Z</time></trkpt><trkpt lat="46.053345899421366" lon="13.054771752930932"><ele>97.75</ele><time>2026-04-27T10:06:34Z</time></trkpt><trkpt lat="46.053257063263985" lon="13.054602058973405"><ele>98.0</ele><time>2026-04-27T10:06:35Z</time></trkpt><trkpt lat="46.053168740734556" lon="13.054398393777868"><ele>98.0</ele><time>2026-04-27T10:06:36Z</time></trkpt><trkpt lat="46.05309771233832" lon="13.05416901856782"><ele>98.0</ele><time>2026-04-27T10:06:37Z</time></trkpt><trkpt lat="46.05303333404065" lon="13.053932768369823"><ele>98.0</ele><time>2026-04-27T10:06:38Z</time></trkpt><trkpt lat="46.05295528772891" lon="13.053663685907813"><ele>98.0</ele><time>2026-04-27T10:06:39Z</time></trkpt><trkpt lat="46.052855501311505" lon="13.053346575064033"><ele>98.0</ele><time>2026-04-27T10:06:40Z</time></trkpt><trkpt lat="46.05275177310162" lon="13.053001334066671"><ele>98.5</ele><time>2026-04-27T10:06:41Z</time></trkpt><trkpt lat="46.05265127375386" lon="13.05265710525929"><ele>99.0</ele><time>2026-04-27T10:06:42Z</time></trkpt><trkpt lat="46.05256321797664" lon="13.052341993799034"><ele>99.0</ele><time>2026-04-27T10:06:43Z</time></trkpt><trkpt lat="46.05248031037503" lon="13.052050489920815"><ele>99.0</ele><time>2026-04-27T10:06:44Z</time></trkpt><trkpt lat="46.052394773745156" lon="13.051779267679976"><ele>99.0</ele><time>2026-04-27T10:06:45Z</time></trkpt><trkpt lat="46.0523053609494" lon="13.051511776899732"><ele>98.66666666666666</ele><time>2026-04-27T10:06:46Z</time></trkpt><trkpt lat="46.05222196933136" lon="13.051260278634313"><ele>98.33333333333333</ele><time>2026-04-27T10:06:47Z</time></trkpt><trkpt lat="46.052144805680214" lon="13.051015628646466"><ele>98.0</ele><time>2026-04-27T10:06:48Z</time></trkpt><trkpt lat="46.05207005554444" lon="13.050773934637803"><ele>98.0</ele><time>2026-04-27T10:06:49Z</time></trkpt><trkpt lat="46.051991083715635" lon="13.050527828531749"><ele>98.0</ele><time>2026-04-27T10:06:50Z</time></trkpt><trkpt lat="46.05191216027582" lon="13.05027992354197"><ele>98.0</ele><time>2026-04-27T10:06:51Z</time></trkpt><trkpt lat="46.05183319178362" lon="13.050034230142431"><ele>98.33333333333333</ele><time>2026-04-27T10:06:52Z</time></trkpt><trkpt lat="46.05175785226887" lon="13.04979943021354"><ele>98.66666666666666</ele><time>2026-04-27T10:06:53Z</time></trkpt><trkpt lat="46.051681841825015" lon="13.049566027053928"><ele>99.0</ele><time>2026-04-27T10:06:54Z</time></trkpt><trkpt lat="46.05160710128228" lon="13.049337234928204"><ele>98.33333333333334</ele><time>2026-04-27T10:06:55Z</time></trkpt><trkpt lat="46.05153333691531" lon="13.049111134377311"><ele>97.66666666666667</ele><time>2026-04-27T10:06:56Z</time></trkpt><trkpt lat="46.051463017161005" lon="13.04887888109217"><ele>97.0</ele><time>2026-04-27T10:06:57Z</time></trkpt><trkpt lat="46.05138894169251" lon="13.048650601325852"><ele>97.0</ele><time>2026-04-27T10:06:58.001Z</time></trkpt><trkpt lat="46.05131174350753" lon="13.04841942836539"><ele>97.0</ele><time>2026-04-27T10:06:59.001Z</time></trkpt><trkpt lat="46.051233369072364" lon="13.048192005630879"><ele>97.0</ele><time>2026-04-27T10:07:00.001Z</time></trkpt><trkpt lat="46.05115726569509" lon="13.047954880752"><ele>97.33333333333334</ele><time>2026-04-27T10:07:01.001Z</time></trkpt><trkpt lat="46.051082104271394" lon="13.047720199847811"><ele>97.66666666666666</ele><time>2026-04-27T10:07:02.001Z</time></trkpt><trkpt lat="46.05100513999919" lon="13.047479157123774"><ele>98.0</ele><time>2026-04-27T10:07:03.001Z</time></trkpt><trkpt lat="46.0509265826495" lon="13.0472363703837"><ele>98.33333333333333</ele><time>2026-04-27T10:07:04.001Z</time></trkpt><trkpt lat="46.050850330490846" lon="13.046992441789907"><ele>98.66666666666666</ele><time>2026-04-27T10:07:05.001Z</time></trkpt><trkpt lat="46.05077366953122" lon="13.04675259563338"><ele>99.0</ele><time>2026-04-27T10:07:06.001Z</time></trkpt><trkpt lat="46.05069913028395" lon="13.046508478749088"><ele>98.33333333333334</ele><time>2026-04-27T10:07:07.001Z</time></trkpt><trkpt lat="46.05062204873981" lon="13.046273537685023"><ele>97.66666666666667</ele><time>2026-04-27T10:07:08.001Z</time></trkpt><trkpt lat="46.05054934050664" lon="13.046030507792187"><ele>97.0</ele><time>2026-04-27T10:07:09.001Z</time></trkpt><trkpt lat="46.050500164069966" lon="13.045775176378388"><ele>96.66666666666667</ele><time>2026-04-27T10:07:10.001Z</time></trkpt><trkpt lat="46.05044563804909" lon="13.045528109477576"><ele>96.33333333333334</ele><time>2026-04-27T10:07:11.001Z</time></trkpt><trkpt lat="46.050381406860986" lon="13.045269070671566"><ele>96.0</ele><time>2026-04-27T10:07:12.001Z</time></trkpt><trkpt lat="46.05033945427869" lon="13.045007818313069"><ele>96.0</ele><time>2026-04-27T10:07:13.001Z</time></trkpt><trkpt lat="46.05030053574227" lon="13.04474111615429"><ele>96.0</ele><time>2026-04-27T10:07:14.001Z</time></trkpt><trkpt lat="46.0502632645501" lon="13.044480631183244"><ele>96.0</ele><time>2026-04-27T10:07:15.001Z</time></trkpt><trkpt lat="46.050229647243455" lon="13.044232269205938"><ele>96.33333333333334</ele><time>2026-04-27T10:07:16.001Z</time></trkpt><trkpt lat="46.05019679971198" lon="13.043992760247244"><ele>96.66666666666667</ele><time>2026-04-27T10:07:17.001Z</time></trkpt><trkpt lat="46.05016687951141" lon="13.043764412731544"><ele>97.0</ele><time>2026-04-27T10:07:18.001Z</time></trkpt><trkpt lat="46.050132276700886" lon="13.043540151675813"><ele>97.0</ele><time>2026-04-27T10:07:19.001Z</time></trkpt><trkpt lat="46.050105845393226" lon="13.043325149597313"><ele>97.0</ele><time>2026-04-27T10:07:20.001Z</time></trkpt><trkpt lat="46.05008208352355" lon="13.043091011445785"><ele>97.0</ele><time>2026-04-27T10:07:21.001Z</time></trkpt><trkpt lat="46.05005049124682" lon="13.042843809814915"><ele>97.0</ele><time>2026-04-27T10:07:22.001Z</time></trkpt><trkpt lat="46.05002167421886" lon="13.04260970411697"><ele>97.0</ele><time>2026-04-27T10:07:23.001Z</time></trkpt><trkpt lat="46.05000366354097" lon="13.04236795953511"><ele>97.0</ele><time>2026-04-27T10:07:24.001Z</time></trkpt><trkpt lat="46.04998032645535" lon="13.042147137415064"><ele>97.0</ele><time>2026-04-27T10:07:25.001Z</time></trkpt><trkpt lat="46.0499551722613" lon="13.041965047169159"><ele>97.0</ele><time>2026-04-27T10:07:26.001Z</time></trkpt><trkpt lat="46.04991316341585" lon="13.041817851123692"><ele>97.0</ele><time>2026-04-27T10:07:27.001Z</time></trkpt><trkpt lat="46.04987876264908" lon="13.041696425112768"><ele>97.0</ele><time>2026-04-27T10:07:28.001Z</time></trkpt><trkpt lat="46.04984960649421" lon="13.041563993054186"><ele>97.0</ele><time>2026-04-27T10:07:30.001Z</time></trkpt><trkpt lat="46.04984427999079" lon="13.04144537822395"><ele>96.66666666666667</ele><time>2026-04-27T10:07:32.001Z</time></trkpt><trkpt lat="46.04985506935191" lon="13.041326881850352"><ele>96.33333333333334</ele><time>2026-04-27T10:07:34.001Z</time></trkpt><trkpt lat="46.04985471140344" lon="13.041211178811803"><ele>96.0</ele><time>2026-04-27T10:07:36.001Z</time></trkpt><trkpt lat="46.04987391394593" lon="13.041111818486524"><ele>95.66666666666667</ele><time>2026-04-27T10:07:38.001Z</time></trkpt><trkpt lat="46.049873296563135" lon="13.040988745810468"><ele>95.33333333333334</ele><time>2026-04-27T10:07:40.001Z</time></trkpt><trkpt lat="46.04990456154509" lon="13.040893916314069"><ele>95.0</ele><time>2026-04-27T10:07:42.001Z</time></trkpt><trkpt lat="46.049815163498266" lon="13.040706194179036"><ele>94.8</ele><time>2026-04-27T10:07:44.001Z</time></trkpt><trkpt lat="46.049742180752666" lon="13.04063720732222"><ele>94.6</ele><time>2026-04-27T10:07:45.001Z</time></trkpt><trkpt lat="46.049682781064945" lon="13.040587753303022"><ele>94.4</ele><time>2026-04-27T10:07:46.002Z</time></trkpt><trkpt lat="46.04958596966304" lon="13.040522128953656"><ele>94.2</ele><time>2026-04-27T10:07:47.002Z</time></trkpt><trkpt lat="46.04949052230347" lon="13.040408257627469"><ele>94.0</ele><time>2026-04-27T10:07:48.002Z</time></trkpt><trkpt lat="46.04941425327359" lon="13.040316402832639"><ele>94.0</ele><time>2026-04-27T10:07:49.002Z</time></trkpt><trkpt lat="46.049357229658874" lon="13.040224152964718"><ele>94.0</ele><time>2026-04-27T10:07:50.002Z</time></trkpt><trkpt lat="46.04930109181685" lon="13.040105125334534"><ele>94.0</ele><time>2026-04-27T10:07:51.002Z</time></trkpt><trkpt lat="46.04925484702527" lon="13.039972647916533"><ele>94.0</ele><time>2026-04-27T10:07:52.002Z</time></trkpt><trkpt lat="46.049230643418994" lon="13.039817014376393"><ele>94.0</ele><time>2026-04-27T10:07:53.002Z</time></trkpt><trkpt lat="46.04921270635881" lon="13.039630741564972"><ele>93.75</ele><time>2026-04-27T10:07:54.002Z</time></trkpt><trkpt lat="46.0491766228626" lon="13.03941040594264"><ele>93.5</ele><time>2026-04-27T10:07:55.002Z</time></trkpt><trkpt lat="46.04916229324782" lon="13.039196330733427"><ele>93.25</ele><time>2026-04-27T10:07:56.002Z</time></trkpt><trkpt lat="46.049138700410644" lon="13.039014977059159"><ele>93.0</ele><time>2026-04-27T10:07:57.002Z</time></trkpt><trkpt lat="46.04909820309376" lon="13.038858992056719"><ele>92.25</ele><time>2026-04-27T10:07:58.002Z</time></trkpt><trkpt lat="46.04903768384045" lon="13.038724749532864"><ele>91.5</ele><time>2026-04-27T10:07:59.002Z</time></trkpt><trkpt lat="46.048964621558596" lon="13.03859771196331"><ele>90.75</ele><time>2026-04-27T10:08:00.002Z</time></trkpt><trkpt lat="46.04886262853169" lon="13.038473180126221"><ele>90.0</ele><time>2026-04-27T10:08:01.002Z</time></trkpt><trkpt lat="46.04875250746106" lon="13.038316988668063"><ele>90.0</ele><time>2026-04-27T10:08:02.002Z</time></trkpt><trkpt lat="46.04862248039466" lon="13.038165751082241"><ele>90.0</ele><time>2026-04-27T10:08:03.002Z</time></trkpt><trkpt lat="46.04847368797507" lon="13.03798993774392"><ele>90.0</ele><time>2026-04-27T10:08:04.002Z</time></trkpt><trkpt lat="46.04829690965898" lon="13.037804319084376"><ele>89.66666666666667</ele><time>2026-04-27T10:08:05.002Z</time></trkpt><trkpt lat="46.048119905472106" lon="13.037591170488586"><ele>89.33333333333334</ele><time>2026-04-27T10:08:06.002Z</time></trkpt><trkpt lat="46.047954967291524" lon="13.037396298235421"><ele>89.0</ele><time>2026-04-27T10:08:06.999Z</time></trkpt><trkpt lat="46.047794721045626" lon="13.037207533528159"><ele>89.0</ele><time>2026-04-27T10:08:07.999Z</time></trkpt><trkpt lat="46.047643823701065" lon="13.037025622694339"><ele>89.0</ele><time>2026-04-27T10:08:08.999Z</time></trkpt><trkpt lat="46.04750612064043" lon="13.036846194049676"><ele>89.0</ele><time>2026-04-27T10:08:09.999Z</time></trkpt><trkpt lat="46.04738014957551" lon="13.036668342484678"><ele>88.66666666666667</ele><time>2026-04-27T10:08:10.999Z</time></trkpt><trkpt lat="46.047268818747554" lon="13.036476522193272"><ele>88.33333333333333</ele><time>2026-04-27T10:08:11.999Z</time></trkpt><trkpt lat="46.047169982479794" lon="13.036264815053897"><ele>88.0</ele><time>2026-04-27T10:08:12.999Z</time></trkpt><trkpt lat="46.047099565764846" lon="13.036028249951002"><ele>88.33333333333333</ele><time>2026-04-27T10:08:13.999Z</time></trkpt><trkpt lat="46.04702009307388" lon="13.035794809979372"><ele>88.66666666666667</ele><time>2026-04-27T10:08:14.999Z</time></trkpt><trkpt lat="46.04692594916088" lon="13.035560791162563"><ele>89.0</ele><time>2026-04-27T10:08:15.999Z</time></trkpt><trkpt lat="46.046846671029314" lon="13.035309798712015"><ele>89.0</ele><time>2026-04-27T10:08:16.999Z</time></trkpt><trkpt lat="46.04676086996762" lon="13.035055770215715"><ele>89.0</ele><time>2026-04-27T10:08:17.999Z</time></trkpt><trkpt lat="46.0466746569621" lon="13.034800611784066"><ele>89.0</ele><time>2026-04-27T10:08:18.999Z</time></trkpt><trkpt lat="46.046587554249335" lon="13.034546395894251"><ele>89.0</ele><time>2026-04-27T10:08:19.999Z</time></trkpt><trkpt lat="46.04649776138026" lon="13.034291693925981"><ele>89.0</ele><time>2026-04-27T10:08:20.999Z</time></trkpt><trkpt lat="46.04641001075674" lon="13.034032791917177"><ele>89.0</ele><time>2026-04-27T10:08:22Z</time></trkpt><trkpt lat="46.04632202111147" lon="13.033767809629945"><ele>89.0</ele><time>2026-04-27T10:08:23Z</time></trkpt><trkpt lat="46.046235159675874" lon="13.033496572965547"><ele>89.0</ele><time>2026-04-27T10:08:24Z</time></trkpt><trkpt lat="46.046151638218845" lon="13.033220135745237"><ele>89.0</ele><time>2026-04-27T10:08:25Z</time></trkpt><trkpt lat="46.04607210791145" lon="13.032937597206718"><ele>88.5</ele><time>2026-04-27T10:08:26Z</time></trkpt><trkpt lat="46.04599106903975" lon="13.032642498398651"><ele>88.0</ele><time>2026-04-27T10:08:27Z</time></trkpt><trkpt lat="46.045900802285864" lon="13.032331140165791"><ele>88.0</ele><time>2026-04-27T10:08:28Z</time></trkpt><trkpt lat="46.04580328009947" lon="13.032020264154884"><ele>88.0</ele><time>2026-04-27T10:08:29Z</time></trkpt><trkpt lat="46.045704077965404" lon="13.031714312706228"><ele>88.33333333333333</ele><time>2026-04-27T10:08:30Z</time></trkpt><trkpt lat="46.04560835882782" lon="13.03143148839755"><ele>88.66666666666667</ele><time>2026-04-27T10:08:31Z</time></trkpt><trkpt lat="46.04551583264622" lon="13.03117083995648"><ele>89.0</ele><time>2026-04-27T10:08:32Z</time></trkpt><trkpt lat="46.04542485495984" lon="13.030918303150878"><ele>88.66666666666667</ele><time>2026-04-27T10:08:33Z</time></trkpt><trkpt lat="46.04533881555283" lon="13.0306696232143"><ele>88.33333333333333</ele><time>2026-04-27T10:08:34Z</time></trkpt><trkpt lat="46.045259278661575" lon="13.030423676970969"><ele>88.0</ele><time>2026-04-27T10:08:35Z</time></trkpt><trkpt lat="46.04518299726058" lon="13.030177020429576"><ele>87.66666666666666</ele><time>2026-04-27T10:08:36Z</time></trkpt><trkpt lat="46.04510704644707" lon="13.02992288319147"><ele>87.33333333333333</ele><time>2026-04-27T10:08:37Z</time></trkpt><trkpt lat="46.0450378488791" lon="13.029662891984133"><ele>87.0</ele><time>2026-04-27T10:08:38Z</time></trkpt><trkpt lat="46.0449754663635" lon="13.02938917094509"><ele>87.0</ele><time>2026-04-27T10:08:39Z</time></trkpt><trkpt lat="46.044913937208236" lon="13.029107535184895"><ele>87.0</ele><time>2026-04-27T10:08:40Z</time></trkpt><trkpt lat="46.04485041288511" lon="13.028811668361143"><ele>87.0</ele><time>2026-04-27T10:08:41Z</time></trkpt><trkpt lat="46.04478612798713" lon="13.028508464060021"><ele>87.5</ele><time>2026-04-27T10:08:42Z</time></trkpt><trkpt lat="46.04472322720506" lon="13.028198333913787"><ele>88.0</ele><time>2026-04-27T10:08:43Z</time></trkpt><trkpt lat="46.04466236843217" lon="13.027875570207534"><ele>88.0</ele><time>2026-04-27T10:08:44Z</time></trkpt><trkpt lat="46.044610513935005" lon="13.027544643806557"><ele>88.0</ele><time>2026-04-27T10:08:45Z</time></trkpt><trkpt lat="46.044568318546304" lon="13.027202241226602"><ele>88.0</ele><time>2026-04-27T10:08:46Z</time></trkpt><trkpt lat="46.044533252973366" lon="13.026843178752785"><ele>88.0</ele><time>2026-04-27T10:08:47Z</time></trkpt><trkpt lat="46.04449356855899" lon="13.02649378168262"><ele>87.5</ele><time>2026-04-27T10:08:48Z</time></trkpt><trkpt lat="46.044451965788745" lon="13.026141646150537"><ele>87.0</ele><time>2026-04-27T10:08:49Z</time></trkpt><trkpt lat="46.04440941881797" lon="13.02579340733658"><ele>87.0</ele><time>2026-04-27T10:08:50Z</time></trkpt><trkpt lat="46.044362944061916" lon="13.025444112380614"><ele>87.0</ele><time>2026-04-27T10:08:51Z</time></trkpt><trkpt lat="46.04431899832367" lon="13.025113861210569"><ele>87.0</ele><time>2026-04-27T10:08:52Z</time></trkpt><trkpt lat="46.04427976925369" lon="13.024806166951302"><ele>87.0</ele><time>2026-04-27T10:08:53Z</time></trkpt><trkpt lat="46.044243495959925" lon="13.02451245713153"><ele>87.0</ele><time>2026-04-27T10:08:54Z</time></trkpt><trkpt lat="46.04420846400531" lon="13.024223619360594"><ele>87.33333333333333</ele><time>2026-04-27T10:08:55Z</time></trkpt><trkpt lat="46.04417479869234" lon="13.023936760407794"><ele>87.66666666666666</ele><time>2026-04-27T10:08:56Z</time></trkpt><trkpt lat="46.04414096766554" lon="13.023647184724998"><ele>88.0</ele><time>2026-04-27T10:08:57Z</time></trkpt><trkpt lat="46.04410704025753" lon="13.023358018347064"><ele>87.66666666666666</ele><time>2026-04-27T10:08:58Z</time></trkpt><trkpt lat="46.044073198284465" lon="13.023067323129046"><ele>87.33333333333333</ele><time>2026-04-27T10:08:59Z</time></trkpt><trkpt lat="46.044038255622" lon="13.022776362343173"><ele>87.0</ele><time>2026-04-27T10:09:00.001Z</time></trkpt><trkpt lat="46.04400151725449" lon="13.022477961061556"><ele>87.0</ele><time>2026-04-27T10:09:01.001Z</time></trkpt><trkpt lat="46.04396359107312" lon="13.022174308402871"><ele>87.0</ele><time>2026-04-27T10:09:02.001Z</time></trkpt><trkpt lat="46.04392357787391" lon="13.021861151738694"><ele>87.0</ele><time>2026-04-27T10:09:03.001Z</time></trkpt><trkpt lat="46.04388469414391" lon="13.021548241827354"><ele>87.0</ele><time>2026-04-27T10:09:04.001Z</time></trkpt><trkpt lat="46.043845172637454" lon="13.021230562303254"><ele>87.0</ele><time>2026-04-27T10:09:05.001Z</time></trkpt><trkpt lat="46.0438057754339" lon="13.020909005347017"><ele>86.5</ele><time>2026-04-27T10:09:06.001Z</time></trkpt><trkpt lat="46.04376632663231" lon="13.020584320862877"><ele>86.0</ele><time>2026-04-27T10:09:07.001Z</time></trkpt><trkpt lat="46.04372600585638" lon="13.020263574245615"><ele>86.33333333333334</ele><time>2026-04-27T10:09:08.001Z</time></trkpt><trkpt lat="46.04368899996478" lon="13.01997120528011"><ele>86.66666666666667</ele><time>2026-04-27T10:09:09.001Z</time></trkpt><trkpt lat="46.04365182978079" lon="13.019690302846472"><ele>87.0</ele><time>2026-04-27T10:09:10.001Z</time></trkpt><trkpt lat="46.04362506067948" lon="13.019424640802551"><ele>87.0</ele><time>2026-04-27T10:09:11.001Z</time></trkpt><trkpt lat="46.04361027171987" lon="13.01915667189229"><ele>87.0</ele><time>2026-04-27T10:09:12.001Z</time></trkpt><trkpt lat="46.04360964279712" lon="13.018883958971564"><ele>87.0</ele><time>2026-04-27T10:09:13.001Z</time></trkpt><trkpt lat="46.04362728467458" lon="13.018624639288033"><ele>87.33333333333333</ele><time>2026-04-27T10:09:14.001Z</time></trkpt><trkpt lat="46.04366256621357" lon="13.018367387905787"><ele>87.66666666666666</ele><time>2026-04-27T10:09:15.001Z</time></trkpt><trkpt lat="46.043688210989274" lon="13.018123896335581"><ele>88.0</ele><time>2026-04-27T10:09:16.001Z</time></trkpt><trkpt lat="46.04370102408221" lon="13.017881396640332"><ele>88.66666666666666</ele><time>2026-04-27T10:09:17.001Z</time></trkpt><trkpt lat="46.043808819593245" lon="13.0176300343366"><ele>89.33333333333333</ele><time>2026-04-27T10:09:18.001Z</time></trkpt><trkpt lat="46.04384560890644" lon="13.017331782599033"><ele>90.0</ele><time>2026-04-27T10:09:19.001Z</time></trkpt><trkpt lat="46.04388878949678" lon="13.01700367020604"><ele>90.0</ele><time>2026-04-27T10:09:20.001Z</time></trkpt><trkpt lat="46.043938512775455" lon="13.016645813696444"><ele>90.0</ele><time>2026-04-27T10:09:21.001Z</time></trkpt><trkpt lat="46.043988767246276" lon="13.016280441354112"><ele>90.0</ele><time>2026-04-27T10:09:22.001Z</time></trkpt><trkpt lat="46.04403746038918" lon="13.015938637121897"><ele>90.0</ele><time>2026-04-27T10:09:23.001Z</time></trkpt><trkpt lat="46.04408189731326" lon="13.015624202493216"><ele>90.0</ele><time>2026-04-27T10:09:24.001Z</time></trkpt><trkpt lat="46.04412243640143" lon="13.015325299695352"><ele>90.0</ele><time>2026-04-27T10:09:25.001Z</time></trkpt><trkpt lat="46.044154272351655" lon="13.015041866337254"><ele>90.0</ele><time>2026-04-27T10:09:26.001Z</time></trkpt><trkpt lat="46.04417149410196" lon="13.014758783200659"><ele>90.33333333333333</ele><time>2026-04-27T10:09:27.001Z</time></trkpt><trkpt lat="46.04417365445777" lon="13.014469263889922"><ele>90.66666666666666</ele><time>2026-04-27T10:09:28.001Z</time></trkpt><trkpt lat="46.044157316340076" lon="13.014163040868603"><ele>91.0</ele><time>2026-04-27T10:09:29.001Z</time></trkpt><trkpt lat="46.04413518174854" lon="13.013838428409638"><ele>92.0</ele><time>2026-04-27T10:09:30.001Z</time></trkpt><trkpt lat="46.04411230222709" lon="13.013499098680342"><ele>93.0</ele><time>2026-04-27T10:09:31.001Z</time></trkpt><trkpt lat="46.04408448791379" lon="13.01314232511554"><ele>93.0</ele><time>2026-04-27T10:09:32.001Z</time></trkpt><trkpt lat="46.04405143358195" lon="13.012762934842"><ele>93.0</ele><time>2026-04-27T10:09:33.001Z</time></trkpt><trkpt lat="46.044017192146185" lon="13.012370462689356"><ele>92.5</ele><time>2026-04-27T10:09:34.001Z</time></trkpt><trkpt lat="46.043987754161314" lon="13.012000514714604"><ele>92.0</ele><time>2026-04-27T10:09:35.001Z</time></trkpt><trkpt lat="46.04396159513477" lon="13.011665077337744"><ele>92.0</ele><time>2026-04-27T10:09:36.001Z</time></trkpt><trkpt lat="46.04393774536712" lon="13.01135278141969"><ele>92.0</ele><time>2026-04-27T10:09:37.001Z</time></trkpt><trkpt lat="46.043914542772455" lon="13.01105510147471"><ele>92.0</ele><time>2026-04-27T10:09:38.001Z</time></trkpt><trkpt lat="46.04389157651842" lon="13.010771398582685"><ele>92.0</ele><time>2026-04-27T10:09:39.001Z</time></trkpt><trkpt lat="46.04386990743258" lon="13.010501311558079"><ele>92.0</ele><time>2026-04-27T10:09:40.001Z</time></trkpt><trkpt lat="46.04384910724621" lon="13.010243248479874"><ele>92.0</ele><time>2026-04-27T10:09:41.001Z</time></trkpt><trkpt lat="46.04382566463616" lon="13.01000124435492"><ele>92.33333333333334</ele><time>2026-04-27T10:09:42.001Z</time></trkpt><trkpt lat="46.04377759412893" lon="13.00977670830332"><ele>92.66666666666667</ele><time>2026-04-27T10:09:43.001Z</time></trkpt><trkpt lat="46.04370924894362" lon="13.009547230847962"><ele>93.0</ele><time>2026-04-27T10:09:44.002Z</time></trkpt><trkpt lat="46.04361505407524" lon="13.00932621878689"><ele>93.33333333333333</ele><time>2026-04-27T10:09:45.002Z</time></trkpt><trkpt lat="46.043497872715854" lon="13.0091213548344"><ele>93.66666666666666</ele><time>2026-04-27T10:09:46.002Z</time></trkpt><trkpt lat="46.043358501730964" lon="13.008923239789528"><ele>94.0</ele><time>2026-04-27T10:09:47.002Z</time></trkpt><trkpt lat="46.043200196036004" lon="13.008737218106472"><ele>94.0</ele><time>2026-04-27T10:09:48.002Z</time></trkpt><trkpt lat="46.04301779650517" lon="13.008551418571273"><ele>94.0</ele><time>2026-04-27T10:09:49.002Z</time></trkpt><trkpt lat="46.042818120665" lon="13.008359007758058"><ele>95.0</ele><time>2026-04-27T10:09:50.002Z</time></trkpt><trkpt lat="46.04260424899156" lon="13.008143930968192"><ele>96.0</ele><time>2026-04-27T10:09:51.002Z</time></trkpt><trkpt lat="46.04238072197539" lon="13.007909569845221"><ele>94.0</ele><time>2026-04-27T10:09:52.002Z</time></trkpt><trkpt lat="46.0421509917383" lon="13.007661965458894"><ele>92.0</ele><time>2026-04-27T10:09:53.002Z</time></trkpt><trkpt lat="46.04190754516869" lon="13.007405194655206"><ele>91.5</ele><time>2026-04-27T10:09:54.002Z</time></trkpt><trkpt lat="46.04165563049206" lon="13.007141353719842"><ele>91.0</ele><time>2026-04-27T10:09:55.002Z</time></trkpt><trkpt lat="46.04140751911143" lon="13.006880104102496"><ele>90.5</ele><time>2026-04-27T10:09:56.002Z</time></trkpt><trkpt lat="46.04118372809307" lon="13.006643863226122"><ele>90.0</ele><time>2026-04-27T10:09:57.002Z</time></trkpt><trkpt lat="46.04097284392418" lon="13.006418225492045"><ele>90.0</ele><time>2026-04-27T10:09:58.002Z</time></trkpt><trkpt lat="46.040772704990644" lon="13.006206126431225"><ele>90.0</ele><time>2026-04-27T10:09:59.002Z</time></trkpt><trkpt lat="46.04057598598941" lon="13.005998734941704"><ele>89.5</ele><time>2026-04-27T10:10:00.002Z</time></trkpt><trkpt lat="46.04038853597807" lon="13.005797995269873"><ele>89.0</ele><time>2026-04-27T10:10:01.002Z</time></trkpt><trkpt lat="46.04020161047456" lon="13.005601443274264"><ele>89.0</ele><time>2026-04-27T10:10:02.002Z</time></trkpt><trkpt lat="46.040017402937515" lon="13.005408727213798"><ele>89.0</ele><time>2026-04-27T10:10:03.002Z</time></trkpt><trkpt lat="46.03983043129592" lon="13.005223934247262"><ele>88.5</ele><time>2026-04-27T10:10:04.002Z</time></trkpt><trkpt lat="46.03963732046924" lon="13.005031152158324"><ele>88.0</ele><time>2026-04-27T10:10:05.002Z</time></trkpt><trkpt lat="46.03944478890313" lon="13.00483145816019"><ele>88.0</ele><time>2026-04-27T10:10:06.002Z</time></trkpt><trkpt lat="46.03925150812054" lon="13.0046260415254"><ele>88.0</ele><time>2026-04-27T10:10:07.002Z</time></trkpt><trkpt lat="46.03905514904742" lon="13.004417108867457"><ele>88.5</ele><time>2026-04-27T10:10:08.002Z</time></trkpt><trkpt lat="46.038856578121916" lon="13.00420893742386"><ele>89.0</ele><time>2026-04-27T10:10:09.002Z</time></trkpt><trkpt lat="46.038656071301865" lon="13.004001154131862"><ele>89.0</ele><time>2026-04-27T10:10:10.002Z</time></trkpt><trkpt lat="46.03845974509856" lon="13.003793243460672"><ele>89.0</ele><time>2026-04-27T10:10:11.002Z</time></trkpt><trkpt lat="46.038258627916896" lon="13.003582996446886"><ele>89.0</ele><time>2026-04-27T10:10:12.002Z</time></trkpt><trkpt lat="46.038053005458856" lon="13.00336537047499"><ele>89.0</ele><time>2026-04-27T10:10:13Z</time></trkpt><trkpt lat="46.03784231713903" lon="13.003144918154227"><ele>88.5</ele><time>2026-04-27T10:10:14Z</time></trkpt><trkpt lat="46.037652823006134" lon="13.002938638790845"><ele>88.0</ele><time>2026-04-27T10:10:15Z</time></trkpt><trkpt lat="46.037475855179075" lon="13.002754031819455"><ele>87.66666666666666</ele><time>2026-04-27T10:10:16Z</time></trkpt><trkpt lat="46.037308313816396" lon="13.002572468557684"><ele>87.33333333333333</ele><time>2026-04-27T10:10:17Z</time></trkpt><trkpt lat="46.03715115590695" lon="13.002384419292442"><ele>87.0</ele><time>2026-04-27T10:10:18Z</time></trkpt><trkpt lat="46.037011364975484" lon="13.002179665625382"><ele>87.0</ele><time>2026-04-27T10:10:19Z</time></trkpt><trkpt lat="46.036880715124276" lon="13.00193617793429"><ele>87.0</ele><time>2026-04-27T10:10:20Z</time></trkpt><trkpt lat="46.03675361062866" lon="13.00164439099391"><ele>86.5</ele><time>2026-04-27T10:10:21Z</time></trkpt><trkpt lat="46.0366253725031" lon="13.001322401139163"><ele>86.0</ele><time>2026-04-27T10:10:22Z</time></trkpt><trkpt lat="46.03648647899722" lon="13.000983733134508"><ele>86.5</ele><time>2026-04-27T10:10:23Z</time></trkpt><trkpt lat="46.036356226541876" lon="13.000674285670069"><ele>87.0</ele><time>2026-04-27T10:10:24Z</time></trkpt><trkpt lat="46.0362373037273" lon="13.000395475829277"><ele>87.0</ele><time>2026-04-27T10:10:25Z</time></trkpt><trkpt lat="46.03612047123" lon="13.000138878166512"><ele>87.0</ele><time>2026-04-27T10:10:26Z</time></trkpt><trkpt lat="46.035993456485244" lon="12.999901444290872"><ele>87.0</ele><time>2026-04-27T10:10:27Z</time></trkpt><trkpt lat="46.035844959977446" lon="12.999675946099622"><ele>86.0</ele><time>2026-04-27T10:10:28Z</time></trkpt><trkpt lat="46.03567194386577" lon="12.99944840227529"><ele>85.0</ele><time>2026-04-27T10:10:29Z</time></trkpt><trkpt lat="46.035482207638736" lon="12.999203800195962"><ele>85.5</ele><time>2026-04-27T10:10:30Z</time></trkpt><trkpt lat="46.03529936630786" lon="12.99892149966013"><ele>86.0</ele><time>2026-04-27T10:10:31Z</time></trkpt><trkpt lat="46.035109735320326" lon="12.998662016456839"><ele>85.5</ele><time>2026-04-27T10:10:32Z</time></trkpt><trkpt lat="46.03492901280034" lon="12.99844241364115"><ele>85.0</ele><time>2026-04-27T10:10:33Z</time></trkpt><trkpt lat="46.034783017093865" lon="12.99821130019707"><ele>85.0</ele><time>2026-04-27T10:10:34Z</time></trkpt><trkpt lat="46.03463294718453" lon="12.998006535482675"><ele>85.0</ele><time>2026-04-27T10:10:35Z</time></trkpt><trkpt lat="46.03449210158016" lon="12.997818082098544"><ele>85.0</ele><time>2026-04-27T10:10:36Z</time></trkpt><trkpt lat="46.03435809559232" lon="12.997639085068553"><ele>85.33333333333333</ele><time>2026-04-27T10:10:37Z</time></trkpt><trkpt lat="46.03421967535902" lon="12.997484206016313"><ele>85.66666666666667</ele><time>2026-04-27T10:10:38Z</time></trkpt><trkpt lat="46.03410164523853" lon="12.997319135832145"><ele>86.0</ele><time>2026-04-27T10:10:39Z</time></trkpt><trkpt lat="46.033990473390276" lon="12.997162030119856"><ele>86.0</ele><time>2026-04-27T10:10:40Z</time></trkpt><trkpt lat="46.033881042814784" lon="12.997011548970193"><ele>86.0</ele><time>2026-04-27T10:10:41Z</time></trkpt><trkpt lat="46.03376917367291" lon="12.996858071931362"><ele>86.0</ele><time>2026-04-27T10:10:42Z</time></trkpt><trkpt lat="46.033654133283626" lon="12.996700397207917"><ele>85.66666666666667</ele><time>2026-04-27T10:10:43Z</time></trkpt><trkpt lat="46.033536416846026" lon="12.99653757541899"><ele>85.33333333333333</ele><time>2026-04-27T10:10:44Z</time></trkpt><trkpt lat="46.03340932468932" lon="12.996383995949623"><ele>85.0</ele><time>2026-04-27T10:10:45Z</time></trkpt><trkpt lat="46.03328997695948" lon="12.996210022685336"><ele>85.0</ele><time>2026-04-27T10:10:46Z</time></trkpt><trkpt lat="46.03316834637127" lon="12.996067594470885"><ele>85.0</ele><time>2026-04-27T10:10:47Z</time></trkpt><trkpt lat="46.03304158294565" lon="12.995955775276924"><ele>85.0</ele><time>2026-04-27T10:10:48Z</time></trkpt><trkpt lat="46.03292975632855" lon="12.995829046550638"><ele>85.0</ele><time>2026-04-27T10:10:49Z</time></trkpt><trkpt lat="46.032813658011264" lon="12.995702576149293"><ele>85.0</ele><time>2026-04-27T10:10:50Z</time></trkpt><trkpt lat="46.03270315957669" lon="12.995556588936267"><ele>85.0</ele><time>2026-04-27T10:10:51Z</time></trkpt><trkpt lat="46.032579208194676" lon="12.995424115142942"><ele>85.0</ele><time>2026-04-27T10:10:52Z</time></trkpt><trkpt lat="46.03243372705729" lon="12.995297385344857"><ele>85.0</ele><time>2026-04-27T10:10:53Z</time></trkpt><trkpt lat="46.0323041674358" lon="12.99515308112302"><ele>85.0</ele><time>2026-04-27T10:10:54Z</time></trkpt><trkpt lat="46.03218170143598" lon="12.995019786459316"><ele>85.0</ele><time>2026-04-27T10:10:55.001Z</time></trkpt><trkpt lat="46.032067919907185" lon="12.99489323149702"><ele>85.0</ele><time>2026-04-27T10:10:56.001Z</time></trkpt><trkpt lat="46.03195455244802" lon="12.99477339590818"><ele>85.0</ele><time>2026-04-27T10:10:57.001Z</time></trkpt><trkpt lat="46.03184833653562" lon="12.994655379579221"><ele>85.0</ele><time>2026-04-27T10:10:58.001Z</time></trkpt><trkpt lat="46.031740699256055" lon="12.994534306241988"><ele>85.0</ele><time>2026-04-27T10:10:59.001Z</time></trkpt><trkpt lat="46.03163187980881" lon="12.994405961899854"><ele>84.33333333333333</ele><time>2026-04-27T10:11:00.001Z</time></trkpt><trkpt lat="46.03151089106929" lon="12.99425642659801"><ele>83.66666666666667</ele><time>2026-04-27T10:11:01.001Z</time></trkpt><trkpt lat="46.03138360260283" lon="12.99412173281707"><ele>83.0</ele><time>2026-04-27T10:11:02.001Z</time></trkpt><trkpt lat="46.03125564787505" lon="12.99398905629245"><ele>83.0</ele><time>2026-04-27T10:11:03.001Z</time></trkpt><trkpt lat="46.031120978706156" lon="12.993861152351094"><ele>83.0</ele><time>2026-04-27T10:11:04.001Z</time></trkpt><trkpt lat="46.03097916146823" lon="12.993740742360371"><ele>83.0</ele><time>2026-04-27T10:11:05.001Z</time></trkpt><trkpt lat="46.03083799633599" lon="12.993626822446858"><ele>83.0</ele><time>2026-04-27T10:11:06.001Z</time></trkpt><trkpt lat="46.030699459405945" lon="12.993496966751907"><ele>83.0</ele><time>2026-04-27T10:11:07.001Z</time></trkpt><trkpt lat="46.03057309545015" lon="12.993365675207855"><ele>83.0</ele><time>2026-04-27T10:11:08.001Z</time></trkpt><trkpt lat="46.0304506985964" lon="12.993224772457713"><ele>83.0</ele><time>2026-04-27T10:11:09.001Z</time></trkpt><trkpt lat="46.030324811643666" lon="12.993075966156988"><ele>83.0</ele><time>2026-04-27T10:11:10.001Z</time></trkpt><trkpt lat="46.03020915865428" lon="12.992924303091359"><ele>83.0</ele><time>2026-04-27T10:11:11.001Z</time></trkpt><trkpt lat="46.03010503534695" lon="12.992779178702623"><ele>83.0</ele><time>2026-04-27T10:11:12.001Z</time></trkpt><trkpt lat="46.0300037396122" lon="12.992646639780645"><ele>83.0</ele><time>2026-04-27T10:11:13.001Z</time></trkpt><trkpt lat="46.02992520030159" lon="12.992495743080331"><ele>83.0</ele><time>2026-04-27T10:11:14.001Z</time></trkpt><trkpt lat="46.029860368530514" lon="12.992339548613465"><ele>83.0</ele><time>2026-04-27T10:11:15.001Z</time></trkpt><trkpt lat="46.02981150519718" lon="12.992189708282032"><ele>83.0</ele><time>2026-04-27T10:11:16.001Z</time></trkpt><trkpt lat="46.0297793554892" lon="12.99203606832666"><ele>83.0</ele><time>2026-04-27T10:11:17.001Z</time></trkpt><trkpt lat="46.02975030967309" lon="12.991886000148977"><ele>83.0</ele><time>2026-04-27T10:11:18.001Z</time></trkpt><trkpt lat="46.02972167422379" lon="12.991735771880288"><ele>83.0</ele><time>2026-04-27T10:11:19.001Z</time></trkpt><trkpt lat="46.029691215207436" lon="12.991586536522519"><ele>83.0</ele><time>2026-04-27T10:11:20.001Z</time></trkpt><trkpt lat="46.029681719398546" lon="12.99142870527393"><ele>83.0</ele><time>2026-04-27T10:11:21.001Z</time></trkpt><trkpt lat="46.029705491024295" lon="12.991258776016709"><ele>83.0</ele><time>2026-04-27T10:11:22.001Z</time></trkpt><trkpt lat="46.02969014896988" lon="12.991091104597226"><ele>83.0</ele><time>2026-04-27T10:11:23.001Z</time></trkpt><trkpt lat="46.02968936807748" lon="12.990921512738236"><ele>83.0</ele><time>2026-04-27T10:11:24.001Z</time></trkpt><trkpt lat="46.0296723593919" lon="12.990737800936394"><ele>83.0</ele><time>2026-04-27T10:11:25.001Z</time></trkpt><trkpt lat="46.02963119969832" lon="12.99054504016228"><ele>83.0</ele><time>2026-04-27T10:11:26.001Z</time></trkpt><trkpt lat="46.02957228005137" lon="12.990347658809958"><ele>83.0</ele><time>2026-04-27T10:11:27.001Z</time></trkpt><trkpt lat="46.02951259793632" lon="12.990129263181352"><ele>83.0</ele><time>2026-04-27T10:11:28.001Z</time></trkpt><trkpt lat="46.02945848379985" lon="12.989876245955042"><ele>83.0</ele><time>2026-04-27T10:11:29.001Z</time></trkpt><trkpt lat="46.02940574035825" lon="12.989604317729857"><ele>83.0</ele><time>2026-04-27T10:11:30.001Z</time></trkpt><trkpt lat="46.02935747703444" lon="12.98936188605242"><ele>83.0</ele><time>2026-04-27T10:11:31.001Z</time></trkpt><trkpt lat="46.02931262001446" lon="12.989138564148623"><ele>83.0</ele><time>2026-04-27T10:11:32.001Z</time></trkpt><trkpt lat="46.02925779725535" lon="12.988950075896442"><ele>83.0</ele><time>2026-04-27T10:11:33.001Z</time></trkpt><trkpt lat="46.02922244526193" lon="12.988790657982632"><ele>83.0</ele><time>2026-04-27T10:11:34.001Z</time></trkpt><trkpt lat="46.029190264130655" lon="12.988665480397655"><ele>83.0</ele><time>2026-04-27T10:11:35.001Z</time></trkpt><trkpt lat="46.02916187476" lon="12.98856102294744"><ele>83.0</ele><time>2026-04-27T10:11:36.001Z</time></trkpt><trkpt lat="46.029151401786" lon="12.988471387734764"><ele>83.0</ele><time>2026-04-27T10:11:37.001Z</time></trkpt><trkpt lat="46.02911222445122" lon="12.988324130090009"><ele>83.0</ele><time>2026-04-27T10:11:39.002Z</time></trkpt><trkpt lat="46.029041734343615" lon="12.988312295655321"><ele>83.0</ele><time>2026-04-27T10:11:40.002Z</time></trkpt><trkpt lat="46.028934603020645" lon="12.988362902187443"><ele>83.0</ele><time>2026-04-27T10:11:41.002Z</time></trkpt><trkpt lat="46.02880264928874" lon="12.988424154391375"><ele>82.33333333333334</ele><time>2026-04-27T10:11:42.002Z</time></trkpt><trkpt lat="46.02866165398634" lon="12.988480367658138"><ele>81.66666666666667</ele><time>2026-04-27T10:11:43.002Z</time></trkpt><trkpt lat="46.028486324009194" lon="12.988578320530882"><ele>81.0</ele><time>2026-04-27T10:11:44.002Z</time></trkpt><trkpt lat="46.02826911715304" lon="12.988671601745818"><ele>81.0</ele><time>2026-04-27T10:11:45.002Z</time></trkpt><trkpt lat="46.028033234142555" lon="12.988797916897008"><ele>81.0</ele><time>2026-04-27T10:11:46.002Z</time></trkpt><trkpt lat="46.02781276331093" lon="12.988915978827766"><ele>81.0</ele><time>2026-04-27T10:11:47.002Z</time></trkpt><trkpt lat="46.027624615691956" lon="12.989041821320196"><ele>81.0</ele><time>2026-04-27T10:11:48.002Z</time></trkpt><trkpt lat="46.027445838089264" lon="12.9891386871272"><ele>81.0</ele><time>2026-04-27T10:11:49.002Z</time></trkpt><trkpt lat="46.02728236410092" lon="12.989220504447104"><ele>80.75</ele><time>2026-04-27T10:11:50.002Z</time></trkpt><trkpt lat="46.02713080094302" lon="12.989296877104069"><ele>80.5</ele><time>2026-04-27T10:11:51.002Z</time></trkpt><trkpt lat="46.02699512993106" lon="12.989360327181343"><ele>80.25</ele><time>2026-04-27T10:11:52.002Z</time></trkpt><trkpt lat="46.02687249398619" lon="12.989403758479567"><ele>80.0</ele><time>2026-04-27T10:11:53.002Z</time></trkpt><trkpt lat="46.026751722932" lon="12.98940297432927"><ele>79.66666666666667</ele><time>2026-04-27T10:11:54.002Z</time></trkpt><trkpt lat="46.0266210759013" lon="12.98934847001936"><ele>79.33333333333333</ele><time>2026-04-27T10:11:55.002Z</time></trkpt><trkpt lat="46.02648269117261" lon="12.98925249737867"><ele>79.0</ele><time>2026-04-27T10:11:56.002Z</time></trkpt><trkpt lat="46.02634035588554" lon="12.989077139537239"><ele>78.5</ele><time>2026-04-27T10:11:57.002Z</time></trkpt><trkpt lat="46.026165774151416" lon="12.988888603529169"><ele>78.0</ele><time>2026-04-27T10:11:58.002Z</time></trkpt><trkpt lat="46.02596185081166" lon="12.988688853390137"><ele>77.5</ele><time>2026-04-27T10:11:59.002Z</time></trkpt><trkpt lat="46.025752900229406" lon="12.98845072230785"><ele>77.0</ele><time>2026-04-27T10:12:00.002Z</time></trkpt><trkpt lat="46.025533260005396" lon="12.988214019257603"><ele>78.0</ele><time>2026-04-27T10:12:01.002Z</time></trkpt><trkpt lat="46.02532506435835" lon="12.987985788523149"><ele>79.0</ele><time>2026-04-27T10:12:02.002Z</time></trkpt><trkpt lat="46.02513457753535" lon="12.987776861677446"><ele>79.0</ele><time>2026-04-27T10:12:03.002Z</time></trkpt><trkpt lat="46.02497043370578" lon="12.987570141523825"><ele>79.0</ele><time>2026-04-27T10:12:04.002Z</time></trkpt><trkpt lat="46.02480646623448" lon="12.987389141491038"><ele>79.0</ele><time>2026-04-27T10:12:05.002Z</time></trkpt><trkpt lat="46.02463792030106" lon="12.987234459702854"><ele>79.0</ele><time>2026-04-27T10:12:06.002Z</time></trkpt><trkpt lat="46.02448525645441" lon="12.987037127945033"><ele>79.0</ele><time>2026-04-27T10:12:07.002Z</time></trkpt><trkpt lat="46.02430515704837" lon="12.98683859347317"><ele>79.0</ele><time>2026-04-27T10:12:08.002Z</time></trkpt><trkpt lat="46.024104583162156" lon="12.98661642349465"><ele>78.5</ele><time>2026-04-27T10:12:09.002Z</time></trkpt><trkpt lat="46.02388567289148" lon="12.986367491660486"><ele>78.0</ele><time>2026-04-27T10:12:10.002Z</time></trkpt><trkpt lat="46.02364773570947" lon="12.986112104140624"><ele>77.0</ele><time>2026-04-27T10:12:11.002Z</time></trkpt><trkpt lat="46.023418170426226" lon="12.98584009171496"><ele>76.0</ele><time>2026-04-27T10:12:12.002Z</time></trkpt><trkpt lat="46.02318412052679" lon="12.985561042313812"><ele>75.5</ele><time>2026-04-27T10:12:13.002Z</time></trkpt><trkpt lat="46.022953546954945" lon="12.98528365318871"><ele>75.0</ele><time>2026-04-27T10:12:14.002Z</time></trkpt><trkpt lat="46.022729138459304" lon="12.985012794462259"><ele>75.0</ele><time>2026-04-27T10:12:15.002Z</time></trkpt><trkpt lat="46.022508717039194" lon="12.984745712774112"><ele>75.0</ele><time>2026-04-27T10:12:16.002Z</time></trkpt><trkpt lat="46.022291376591696" lon="12.98448386090456"><ele>75.0</ele><time>2026-04-27T10:12:17.002Z</time></trkpt><trkpt lat="46.02208555570335" lon="12.984236120685201"><ele>75.0</ele><time>2026-04-27T10:12:18.002Z</time></trkpt><trkpt lat="46.02189224242932" lon="12.984004460837058"><ele>75.0</ele><time>2026-04-27T10:12:19Z</time></trkpt><trkpt lat="46.02170573731593" lon="12.983781682973456"><ele>75.0</ele><time>2026-04-27T10:12:20Z</time></trkpt><trkpt lat="46.021519133454596" lon="12.983562561409615"><ele>75.0</ele><time>2026-04-27T10:12:21Z</time></trkpt><trkpt lat="46.02133171057235" lon="12.983354013421067"><ele>75.0</ele><time>2026-04-27T10:12:22Z</time></trkpt><trkpt lat="46.02113743131222" lon="12.98314627781587"><ele>75.0</ele><time>2026-04-27T10:12:23Z</time></trkpt><trkpt lat="46.0209474818198" lon="12.982912599605319"><ele>75.0</ele><time>2026-04-27T10:12:24Z</time></trkpt><trkpt lat="46.02076361618457" lon="12.982716388607791"><ele>74.66666666666667</ele><time>2026-04-27T10:12:25Z</time></trkpt><trkpt lat="46.02059573438587" lon="12.982539768147719"><ele>74.33333333333334</ele><time>2026-04-27T10:12:26Z</time></trkpt><trkpt lat="46.02039573566169" lon="12.982431247450778"><ele>74.0</ele><time>2026-04-27T10:12:27Z</time></trkpt><trkpt lat="46.02021999986393" lon="12.982266064413585"><ele>74.0</ele><time>2026-04-27T10:12:28Z</time></trkpt><trkpt lat="46.0200449806777" lon="12.982099726282554"><ele>74.0</ele><time>2026-04-27T10:12:29Z</time></trkpt><trkpt lat="46.01987420843022" lon="12.981935570144156"><ele>74.0</ele><time>2026-04-27T10:12:30Z</time></trkpt><trkpt lat="46.01970372441751" lon="12.981772271944102"><ele>74.0</ele><time>2026-04-27T10:12:31Z</time></trkpt><trkpt lat="46.019533014344" lon="12.981614769714025"><ele>74.0</ele><time>2026-04-27T10:12:32Z</time></trkpt><trkpt lat="46.0193633794531" lon="12.981455780379086"><ele>74.0</ele><time>2026-04-27T10:12:33Z</time></trkpt><trkpt lat="46.01919848419228" lon="12.981299058516562"><ele>73.33333333333334</ele><time>2026-04-27T10:12:34Z</time></trkpt><trkpt lat="46.01903944137601" lon="12.981146358680363"><ele>72.66666666666667</ele><time>2026-04-27T10:12:35Z</time></trkpt><trkpt lat="46.01888695874992" lon="12.980998693320384"><ele>72.0</ele><time>2026-04-27T10:12:36Z</time></trkpt><trkpt lat="46.01874305427673" lon="12.9808600377889"><ele>72.0</ele><time>2026-04-27T10:12:37Z</time></trkpt><trkpt lat="46.018606075587286" lon="12.980729604891172"><ele>72.0</ele><time>2026-04-27T10:12:38Z</time></trkpt><trkpt lat="46.01847892291433" lon="12.980605355336552"><ele>72.0</ele><time>2026-04-27T10:12:39Z</time></trkpt><trkpt lat="46.01835462154976" lon="12.980488574657326"><ele>72.0</ele><time>2026-04-27T10:12:40Z</time></trkpt><trkpt lat="46.018234071752524" lon="12.980379124526298"><ele>72.0</ele><time>2026-04-27T10:12:41Z</time></trkpt><trkpt lat="46.018116458695076" lon="12.98027777682012"><ele>72.0</ele><time>2026-04-27T10:12:42Z</time></trkpt><trkpt lat="46.018002953192514" lon="12.980188353049405"><ele>72.0</ele><time>2026-04-27T10:12:43Z</time></trkpt><trkpt lat="46.01788219838749" lon="12.980101533349686"><ele>72.0</ele><time>2026-04-27T10:12:44Z</time></trkpt><trkpt lat="46.01775680093375" lon="12.980012772604898"><ele>72.0</ele><time>2026-04-27T10:12:45Z</time></trkpt><trkpt lat="46.017630168597265" lon="12.979920977946453"><ele>72.0</ele><time>2026-04-27T10:12:46Z</time></trkpt><trkpt lat="46.01750344193513" lon="12.979823781798926"><ele>72.0</ele><time>2026-04-27T10:12:47Z</time></trkpt><trkpt lat="46.017378310276484" lon="12.97972985020756"><ele>72.2</ele><time>2026-04-27T10:12:48Z</time></trkpt><trkpt lat="46.0172568628946" lon="12.979649362288074"><ele>72.4</ele><time>2026-04-27T10:12:49Z</time></trkpt><trkpt lat="46.01715568981128" lon="12.97957339482223"><ele>72.6</ele><time>2026-04-27T10:12:50Z</time></trkpt><trkpt lat="46.0170876579337" lon="12.979502388147745"><ele>72.8</ele><time>2026-04-27T10:12:51Z</time></trkpt><trkpt lat="46.01704190518061" lon="12.97941384556828"><ele>73.0</ele><time>2026-04-27T10:12:52.001Z</time></trkpt><trkpt lat="46.017016776662174" lon="12.979313362297448"><ele>73.0</ele><time>2026-04-27T10:12:53.001Z</time></trkpt><trkpt lat="46.016921593153704" lon="12.979251525883297"><ele>73.0</ele><time>2026-04-27T10:12:55.001Z</time></trkpt><trkpt lat="46.01681256569408" lon="12.979284144682069"><ele>73.0</ele><time>2026-04-27T10:12:56.001Z</time></trkpt><trkpt lat="46.01666375427847" lon="12.979326057039172"><ele>73.0</ele><time>2026-04-27T10:12:57.001Z</time></trkpt><trkpt lat="46.01647117001878" lon="12.979325235693912"><ele>72.66666666666666</ele><time>2026-04-27T10:12:58.001Z</time></trkpt><trkpt lat="46.01624811364762" lon="12.9793022390318"><ele>72.33333333333333</ele><time>2026-04-27T10:12:59.001Z</time></trkpt><trkpt lat="46.016041284576424" lon="12.979286103433376"><ele>72.0</ele><time>2026-04-27T10:13:00.001Z</time></trkpt><trkpt lat="46.015862310228385" lon="12.979266518895093"><ele>71.66666666666667</ele><time>2026-04-27T10:13:01.001Z</time></trkpt><trkpt lat="46.015695827402524" lon="12.979263632875556"><ele>71.33333333333334</ele><time>2026-04-27T10:13:02.001Z</time></trkpt><trkpt lat="46.015543189623" lon="12.979253897830594"><ele>71.0</ele><time>2026-04-27T10:13:03.001Z</time></trkpt><trkpt lat="46.01540832718653" lon="12.979242081212137"><ele>71.0</ele><time>2026-04-27T10:13:04.001Z</time></trkpt><trkpt lat="46.015292936089466" lon="12.97920779314051"><ele>71.0</ele><time>2026-04-27T10:13:05.001Z</time></trkpt><trkpt lat="46.01519845286704" lon="12.97915948232252"><ele>71.0</ele><time>2026-04-27T10:13:06.001Z</time></trkpt><trkpt lat="46.01512299407487" lon="12.979072271873555"><ele>71.0</ele><time>2026-04-27T10:13:07.001Z</time></trkpt><trkpt lat="46.01505168276324" lon="12.978936455058642"><ele>71.0</ele><time>2026-04-27T10:13:08.001Z</time></trkpt><trkpt lat="46.014984755716505" lon="12.978741088312654"><ele>71.0</ele><time>2026-04-27T10:13:09.001Z</time></trkpt><trkpt lat="46.014891372998335" lon="12.978521221836248"><ele>71.0</ele><time>2026-04-27T10:13:10.001Z</time></trkpt><trkpt lat="46.01480130172008" lon="12.978318638418969"><ele>71.0</ele><time>2026-04-27T10:13:11.001Z</time></trkpt><trkpt lat="46.01473064281942" lon="12.97813215420951"><ele>71.0</ele><time>2026-04-27T10:13:12.001Z</time></trkpt><trkpt lat="46.014647356198616" lon="12.97798299302971"><ele>71.0</ele><time>2026-04-27T10:13:13.001Z</time></trkpt><trkpt lat="46.01457474799634" lon="12.977827837661875"><ele>71.0</ele><time>2026-04-27T10:13:14.001Z</time></trkpt><trkpt lat="46.01450640460264" lon="12.977688400264183"><ele>71.0</ele><time>2026-04-27T10:13:15.001Z</time></trkpt><trkpt lat="46.01443804617045" lon="12.977556246691767"><ele>70.75</ele><time>2026-04-27T10:13:16.001Z</time></trkpt><trkpt lat="46.01437410573826" lon="12.97742766052596"><ele>70.5</ele><time>2026-04-27T10:13:17.001Z</time></trkpt><trkpt lat="46.01430842220381" lon="12.97729371351277"><ele>70.25</ele><time>2026-04-27T10:13:18.001Z</time></trkpt><trkpt lat="46.01424081316839" lon="12.977157984902037"><ele>70.0</ele><time>2026-04-27T10:13:19.001Z</time></trkpt><trkpt lat="46.01417139136646" lon="12.977020514345988"><ele>69.8</ele><time>2026-04-27T10:13:20.001Z</time></trkpt><trkpt lat="46.01410461599719" lon="12.976880446316805"><ele>69.6</ele><time>2026-04-27T10:13:21.001Z</time></trkpt><trkpt lat="46.01404011772645" lon="12.9767461475876"><ele>69.4</ele><time>2026-04-27T10:13:22.001Z</time></trkpt><trkpt lat="46.01397721190778" lon="12.976614142292439"><ele>69.2</ele><time>2026-04-27T10:13:23.001Z</time></trkpt><trkpt lat="46.01392101545728" lon="12.976485018236858"><ele>69.0</ele><time>2026-04-27T10:13:24.001Z</time></trkpt><trkpt lat="46.01386684657879" lon="12.97636328001602"><ele>69.0</ele><time>2026-04-27T10:13:25.001Z</time></trkpt><trkpt lat="46.01380745531009" lon="12.976240332234518"><ele>69.0</ele><time>2026-04-27T10:13:26.001Z</time></trkpt><trkpt lat="46.01374669783861" lon="12.976111175779357"><ele>69.0</ele><time>2026-04-27T10:13:27.001Z</time></trkpt><trkpt lat="46.01368114009628" lon="12.975974314333133"><ele>69.0</ele><time>2026-04-27T10:13:28.001Z</time></trkpt><trkpt lat="46.013610516457035" lon="12.975829925352052"><ele>69.0</ele><time>2026-04-27T10:13:29.001Z</time></trkpt><trkpt lat="46.01353284580348" lon="12.97568354129824"><ele>69.0</ele><time>2026-04-27T10:13:30.001Z</time></trkpt><trkpt lat="46.01344827501289" lon="12.975538808532002"><ele>69.0</ele><time>2026-04-27T10:13:31.001Z</time></trkpt><trkpt lat="46.01335713023522" lon="12.975369353752159"><ele>69.0</ele><time>2026-04-27T10:13:32.001Z</time></trkpt><trkpt lat="46.01326809076981" lon="12.975182591037804"><ele>69.0</ele><time>2026-04-27T10:13:33.001Z</time></trkpt><trkpt lat="46.013179573721665" lon="12.975025368190009"><ele>69.0</ele><time>2026-04-27T10:13:34.001Z</time></trkpt><trkpt lat="46.0130989808499" lon="12.974880142680023"><ele>69.0</ele><time>2026-04-27T10:13:35.001Z</time></trkpt><trkpt lat="46.01302307375899" lon="12.974740585946742"><ele>69.0</ele><time>2026-04-27T10:13:36.001Z</time></trkpt><trkpt lat="46.01295156410797" lon="12.974605939774737"><ele>69.0</ele><time>2026-04-27T10:13:37.001Z</time></trkpt><trkpt lat="46.01287670847812" lon="12.974458843774567"><ele>69.0</ele><time>2026-04-27T10:13:38.002Z</time></trkpt><trkpt lat="46.01279010513814" lon="12.974275479952219"><ele>69.0</ele><time>2026-04-27T10:13:39.002Z</time></trkpt><trkpt lat="46.012704550086895" lon="12.974087687627442"><ele>69.0</ele><time>2026-04-27T10:13:40.002Z</time></trkpt><trkpt lat="46.01261907677008" lon="12.973904745500985"><ele>68.66666666666667</ele><time>2026-04-27T10:13:41.002Z</time></trkpt><trkpt lat="46.01252752647726" lon="12.97372731881932"><ele>68.33333333333334</ele><time>2026-04-27T10:13:42.002Z</time></trkpt><trkpt lat="46.01244428593953" lon="12.973542304536426"><ele>68.0</ele><time>2026-04-27T10:13:43.002Z</time></trkpt><trkpt lat="46.012357314383806" lon="12.97336517241038"><ele>67.75</ele><time>2026-04-27T10:13:44.002Z</time></trkpt><trkpt lat="46.01227758371733" lon="12.973195227718442"><ele>67.5</ele><time>2026-04-27T10:13:45.002Z</time></trkpt><trkpt lat="46.0121970961033" lon="12.973045606964217"><ele>67.25</ele><time>2026-04-27T10:13:46.002Z</time></trkpt><trkpt lat="46.0121294812781" lon="12.972897968304634"><ele>67.0</ele><time>2026-04-27T10:13:47.002Z</time></trkpt><trkpt lat="46.01206677436507" lon="12.97274338315976"><ele>67.0</ele><time>2026-04-27T10:13:48.002Z</time></trkpt><trkpt lat="46.01198079101669" lon="12.972593488992068"><ele>67.0</ele><time>2026-04-27T10:13:49.002Z</time></trkpt><trkpt lat="46.01187185025292" lon="12.972449939275865"><ele>67.0</ele><time>2026-04-27T10:13:50.002Z</time></trkpt><trkpt lat="46.01173416166828" lon="12.972298199706483"><ele>67.0</ele><time>2026-04-27T10:13:51.002Z</time></trkpt><trkpt lat="46.01158021064701" lon="12.972139809073502"><ele>67.0</ele><time>2026-04-27T10:13:52.002Z</time></trkpt><trkpt lat="46.011412978541564" lon="12.971981245286155"><ele>67.0</ele><time>2026-04-27T10:13:53.002Z</time></trkpt><trkpt lat="46.01124502376393" lon="12.971817929579858"><ele>66.66666666666666</ele><time>2026-04-27T10:13:54.002Z</time></trkpt><trkpt lat="46.01107458896679" lon="12.971646421573698"><ele>66.33333333333333</ele><time>2026-04-27T10:13:55.002Z</time></trkpt><trkpt lat="46.010895256786704" lon="12.97147562662094"><ele>66.0</ele><time>2026-04-27T10:13:56.002Z</time></trkpt><trkpt lat="46.0107103605703" lon="12.971297149298659"><ele>65.66666666666667</ele><time>2026-04-27T10:13:57.002Z</time></trkpt><trkpt lat="46.010525857608805" lon="12.971115395036433"><ele>65.33333333333334</ele><time>2026-04-27T10:13:58.002Z</time></trkpt><trkpt lat="46.01035406995482" lon="12.970940204460796"><ele>65.0</ele><time>2026-04-27T10:13:59.002Z</time></trkpt><trkpt lat="46.01017718282645" lon="12.970768932625566"><ele>65.0</ele><time>2026-04-27T10:14:00.002Z</time></trkpt><trkpt lat="46.01000237700292" lon="12.97059414637511"><ele>65.0</ele><time>2026-04-27T10:14:01.002Z</time></trkpt><trkpt lat="46.009839274083085" lon="12.970423751314478"><ele>65.0</ele><time>2026-04-27T10:14:02.002Z</time></trkpt><trkpt lat="46.00968408084786" lon="12.970271388252058"><ele>65.0</ele><time>2026-04-27T10:14:03.002Z</time></trkpt><trkpt lat="46.00953886086126" lon="12.970125272149762"><ele>65.0</ele><time>2026-04-27T10:14:04.002Z</time></trkpt><trkpt lat="46.009398429314" lon="12.969990044969094"><ele>65.0</ele><time>2026-04-27T10:14:05.002Z</time></trkpt><trkpt lat="46.00926793423417" lon="12.96985688520629"><ele>64.66666666666667</ele><time>2026-04-27T10:14:06.002Z</time></trkpt><trkpt lat="46.009141404040946" lon="12.969735130264462"><ele>64.33333333333333</ele><time>2026-04-27T10:14:07.002Z</time></trkpt><trkpt lat="46.00901902087764" lon="12.969613442595364"><ele>64.0</ele><time>2026-04-27T10:14:08.002Z</time></trkpt><trkpt lat="46.008890773116015" lon="12.969490774417242"><ele>64.0</ele><time>2026-04-27T10:14:09.002Z</time></trkpt><trkpt lat="46.00876314687403" lon="12.96936490200616"><ele>64.0</ele><time>2026-04-27T10:14:10.002Z</time></trkpt><trkpt lat="46.00863350062494" lon="12.969235185747692"><ele>64.0</ele><time>2026-04-27T10:14:11.002Z</time></trkpt><trkpt lat="46.00850392744181" lon="12.969100691250423"><ele>64.0</ele><time>2026-04-27T10:14:12.002Z</time></trkpt><trkpt lat="46.00836782986032" lon="12.968965084141242"><ele>64.0</ele><time>2026-04-27T10:14:13.002Z</time></trkpt><trkpt lat="46.008224985690724" lon="12.968826921667262"><ele>64.0</ele><time>2026-04-27T10:14:14.002Z</time></trkpt><trkpt lat="46.008083232046765" lon="12.968688269673573"><ele>64.0</ele><time>2026-04-27T10:14:15.002Z</time></trkpt><trkpt lat="46.00794286646724" lon="12.968545732219619"><ele>64.0</ele><time>2026-04-27T10:14:16.002Z</time></trkpt><trkpt lat="46.00780170681668" lon="12.968403125321426"><ele>64.0</ele><time>2026-04-27T10:14:17.002Z</time></trkpt><trkpt lat="46.007657135720066" lon="12.968265902360738"><ele>64.0</ele><time>2026-04-27T10:14:18.003Z</time></trkpt><trkpt lat="46.00751493376912" lon="12.96812689017616"><ele>64.0</ele><time>2026-04-27T10:14:19.003Z</time></trkpt><trkpt lat="46.007380731596385" lon="12.967995851652779"><ele>64.0</ele><time>2026-04-27T10:14:20.003Z</time></trkpt><trkpt lat="46.00725129805846" lon="12.967879584886933"><ele>64.33333333333333</ele><time>2026-04-27T10:14:21.003Z</time></trkpt><trkpt lat="46.007113931004135" lon="12.967784780924575"><ele>64.66666666666667</ele><time>2026-04-27T10:14:22.003Z</time></trkpt><trkpt lat="46.00696580262864" lon="12.96773875587751"><ele>65.0</ele><time>2026-04-27T10:14:23.003Z</time></trkpt><trkpt lat="46.00679442113749" lon="12.96773948264815"><ele>64.33333333333334</ele><time>2026-04-27T10:14:24.003Z</time></trkpt><trkpt lat="46.00659896570419" lon="12.96776650927172"><ele>63.66666666666667</ele><time>2026-04-27T10:14:25.001Z</time></trkpt><trkpt lat="46.006392281937565" lon="12.967800252679"><ele>63.0</ele><time>2026-04-27T10:14:26.001Z</time></trkpt><trkpt lat="46.00617299676587" lon="12.967832230077647"><ele>63.0</ele><time>2026-04-27T10:14:27.001Z</time></trkpt><trkpt lat="46.005947277922346" lon="12.967865967494095"><ele>63.0</ele><time>2026-04-27T10:14:28.001Z</time></trkpt><trkpt lat="46.00572700662375" lon="12.9678904335787"><ele>63.0</ele><time>2026-04-27T10:14:29.001Z</time></trkpt><trkpt lat="46.005519485109815" lon="12.967910451755344"><ele>63.33333333333333</ele><time>2026-04-27T10:14:30.001Z</time></trkpt><trkpt lat="46.00532378206606" lon="12.967922495401211"><ele>63.666666666666664</ele><time>2026-04-27T10:14:31.001Z</time></trkpt><trkpt lat="46.005142051098495" lon="12.967918142094513"><ele>64.0</ele><time>2026-04-27T10:14:32.001Z</time></trkpt><trkpt lat="46.004968035265755" lon="12.967888854885405"><ele>63.33333333333333</ele><time>2026-04-27T10:14:33.001Z</time></trkpt><trkpt lat="46.00478934518465" lon="12.967845361606056"><ele>62.66666666666667</ele><time>2026-04-27T10:14:34.001Z</time></trkpt><trkpt lat="46.00461183486595" lon="12.967798408071102"><ele>62.0</ele><time>2026-04-27T10:14:35.001Z</time></trkpt><trkpt lat="46.00443244113616" lon="12.96774968827048"><ele>62.0</ele><time>2026-04-27T10:14:36.001Z</time></trkpt><trkpt lat="46.00425392852654" lon="12.967695482733602"><ele>62.0</ele><time>2026-04-27T10:14:37Z</time></trkpt><trkpt lat="46.004072781737165" lon="12.967645319033709"><ele>62.0</ele><time>2026-04-27T10:14:38Z</time></trkpt><trkpt lat="46.00389001841872" lon="12.967590096752211"><ele>61.66666666666667</ele><time>2026-04-27T10:14:39Z</time></trkpt><trkpt lat="46.003704652329326" lon="12.96753562524021"><ele>61.33333333333333</ele><time>2026-04-27T10:14:40Z</time></trkpt><trkpt lat="46.003524207536856" lon="12.967484233997324"><ele>61.0</ele><time>2026-04-27T10:14:41Z</time></trkpt><trkpt lat="46.00335922327604" lon="12.96743209107256"><ele>61.5</ele><time>2026-04-27T10:14:42.001Z</time></trkpt><trkpt lat="46.00320742059666" lon="12.967384469098784"><ele>62.0</ele><time>2026-04-27T10:14:43.001Z</time></trkpt><trkpt lat="46.0030663937548" lon="12.967336635904179"><ele>62.5</ele><time>2026-04-27T10:14:44.001Z</time></trkpt><trkpt lat="46.00294706815537" lon="12.967285224324788"><ele>63.0</ele><time>2026-04-27T10:14:45.001Z</time></trkpt><trkpt lat="46.002843436911135" lon="12.967207949938645"><ele>63.0</ele><time>2026-04-27T10:14:46.001Z</time></trkpt><trkpt lat="46.002755889232" lon="12.96709647189204"><ele>63.0</ele><time>2026-04-27T10:14:47.001Z</time></trkpt><trkpt lat="46.002670689897236" lon="12.966958332451629"><ele>63.0</ele><time>2026-04-27T10:14:48.001Z</time></trkpt><trkpt lat="46.00260158820093" lon="12.96676997929635"><ele>63.0</ele><time>2026-04-27T10:14:49.001Z</time></trkpt><trkpt lat="46.00251027397401" lon="12.966558243640344"><ele>62.66666666666667</ele><time>2026-04-27T10:14:50.001Z</time></trkpt><trkpt lat="46.002392258030895" lon="12.966339732610745"><ele>62.333333333333336</ele><time>2026-04-27T10:14:51.001Z</time></trkpt><trkpt lat="46.002312012565035" lon="12.966080676380024"><ele>62.0</ele><time>2026-04-27T10:14:52.001Z</time></trkpt><trkpt lat="46.002237460242824" lon="12.965837519775945"><ele>62.0</ele><time>2026-04-27T10:14:53.001Z</time></trkpt><trkpt lat="46.00215746511672" lon="12.965622585032127"><ele>62.0</ele><time>2026-04-27T10:14:54.001Z</time></trkpt><trkpt lat="46.002098851214804" lon="12.965414270479961"><ele>62.0</ele><time>2026-04-27T10:14:55.001Z</time></trkpt><trkpt lat="46.002036593621" lon="12.965222584039878"><ele>62.0</ele><time>2026-04-27T10:14:56.001Z</time></trkpt><trkpt lat="46.00197633447471" lon="12.965039766366884"><ele>62.0</ele><time>2026-04-27T10:14:57.001Z</time></trkpt><trkpt lat="46.00192150826348" lon="12.964873671251071"><ele>62.0</ele><time>2026-04-27T10:14:58.001Z</time></trkpt><trkpt lat="46.001866670128834" lon="12.964727490207824"><ele>62.0</ele><time>2026-04-27T10:14:59.001Z</time></trkpt><trkpt lat="46.00182532631915" lon="12.964607608124522"><ele>62.0</ele><time>2026-04-27T10:15:00.001Z</time></trkpt><trkpt lat="46.00179329707724" lon="12.964528984629958"><ele>62.0</ele><time>2026-04-27T10:15:01.001Z</time></trkpt><trkpt lat="46.00172345478948" lon="12.964374532478603"><ele>62.0</ele><time>2026-04-27T10:15:03.001Z</time></trkpt><trkpt lat="46.001643246669296" lon="12.96426102910925"><ele>62.0</ele><time>2026-04-27T10:15:04.001Z</time></trkpt><trkpt lat="46.00153598888165" lon="12.964111501776783"><ele>61.75</ele><time>2026-04-27T10:15:05.001Z</time></trkpt><trkpt lat="46.001453288479716" lon="12.963981498997418"><ele>61.5</ele><time>2026-04-27T10:15:06.001Z</time></trkpt><trkpt lat="46.00140124585904" lon="12.963830620219756"><ele>61.25</ele><time>2026-04-27T10:15:07.001Z</time></trkpt><trkpt lat="46.00134080008011" lon="12.96368276502539"><ele>61.0</ele><time>2026-04-27T10:15:08.001Z</time></trkpt><trkpt lat="46.00129915908856" lon="12.963510378550547"><ele>61.33333333333333</ele><time>2026-04-27T10:15:09.001Z</time></trkpt><trkpt lat="46.001252334429424" lon="12.963276516489707"><ele>61.66666666666667</ele><time>2026-04-27T10:15:10.001Z</time></trkpt><trkpt lat="46.001191010260065" lon="12.962963979241264"><ele>62.0</ele><time>2026-04-27T10:15:11.001Z</time></trkpt><trkpt lat="46.00112707182778" lon="12.962636219245987"><ele>61.66666666666667</ele><time>2026-04-27T10:15:12.001Z</time></trkpt><trkpt lat="46.001066580780765" lon="12.962328766685781"><ele>61.33333333333333</ele><time>2026-04-27T10:15:13.001Z</time></trkpt><trkpt lat="46.000986963799164" lon="12.962030946453122"><ele>61.0</ele><time>2026-04-27T10:15:14.001Z</time></trkpt><trkpt lat="46.00092442680096" lon="12.96171291294352"><ele>60.666666666666664</ele><time>2026-04-27T10:15:15.001Z</time></trkpt><trkpt lat="46.00083231027008" lon="12.961435405841927"><ele>60.33333333333333</ele><time>2026-04-27T10:15:16.001Z</time></trkpt><trkpt lat="46.00077419204526" lon="12.961163210787287"><ele>60.0</ele><time>2026-04-27T10:15:17.001Z</time></trkpt><trkpt lat="46.00069025990505" lon="12.96090744786906"><ele>59.66666666666667</ele><time>2026-04-27T10:15:18.001Z</time></trkpt><trkpt lat="46.0006257762419" lon="12.960658622790113"><ele>59.333333333333336</ele><time>2026-04-27T10:15:19.001Z</time></trkpt><trkpt lat="46.00056428148002" lon="12.960419960959067"><ele>59.0</ele><time>2026-04-27T10:15:20.001Z</time></trkpt><trkpt lat="46.00049993858911" lon="12.960180455708405"><ele>59.0</ele><time>2026-04-27T10:15:21.001Z</time></trkpt><trkpt lat="46.000441301743294" lon="12.95995735101071"><ele>59.0</ele><time>2026-04-27T10:15:22.001Z</time></trkpt><trkpt lat="46.00038117867839" lon="12.959750319246247"><ele>59.0</ele><time>2026-04-27T10:15:23.001Z</time></trkpt><trkpt lat="46.00032691015424" lon="12.95955236074289"><ele>59.0</ele><time>2026-04-27T10:15:24.001Z</time></trkpt><trkpt lat="46.000276976468065" lon="12.95936076945926"><ele>59.0</ele><time>2026-04-27T10:15:25.001Z</time></trkpt><trkpt lat="46.00023163981917" lon="12.959181112208633"><ele>59.0</ele><time>2026-04-27T10:15:26.001Z</time></trkpt><trkpt lat="46.000197440444396" lon="12.959025530252012"><ele>59.0</ele><time>2026-04-27T10:15:27.001Z</time></trkpt><trkpt lat="46.000186096000874" lon="12.958891021655937"><ele>59.0</ele><time>2026-04-27T10:15:28.001Z</time></trkpt><trkpt lat="46.00019440991081" lon="12.958760374808021"><ele>59.00000000000001</ele><time>2026-04-27T10:15:29.001Z</time></trkpt><trkpt lat="46.00018066175556" lon="12.958646311002013"><ele>59.00000000000001</ele><time>2026-04-27T10:15:30.001Z</time></trkpt><trkpt lat="46.00012186768599" lon="12.958520673944593"><ele>59.0</ele><time>2026-04-27T10:15:31.001Z</time></trkpt><trkpt lat="46.00003687057072" lon="12.958363539929932"><ele>59.0</ele><time>2026-04-27T10:15:32.001Z</time></trkpt><trkpt lat="45.99994258074837" lon="12.95815212013179"><ele>59.333333333333336</ele><time>2026-04-27T10:15:33.001Z</time></trkpt><trkpt lat="45.99988219529509" lon="12.957882910834378"><ele>59.66666666666667</ele><time>2026-04-27T10:15:34.001Z</time></trkpt><trkpt lat="45.99980061300963" lon="12.957588930311669"><ele>60.0</ele><time>2026-04-27T10:15:35.001Z</time></trkpt><trkpt lat="45.99970815190299" lon="12.957266292285752"><ele>60.0</ele><time>2026-04-27T10:15:36.001Z</time></trkpt><trkpt lat="45.999596871144604" lon="12.956942257875141"><ele>60.0</ele><time>2026-04-27T10:15:37.001Z</time></trkpt><trkpt lat="45.9994983699977" lon="12.9565962281791"><ele>59.5</ele><time>2026-04-27T10:15:38.001Z</time></trkpt><trkpt lat="45.99939446193148" lon="12.95624583605891"><ele>59.0</ele><time>2026-04-27T10:15:39.002Z</time></trkpt><trkpt lat="45.99930034487955" lon="12.95592229389029"><ele>59.0</ele><time>2026-04-27T10:15:40.002Z</time></trkpt><trkpt lat="45.99921490438598" lon="12.955622842829504"><ele>59.0</ele><time>2026-04-27T10:15:41.002Z</time></trkpt><trkpt lat="45.99913141004114" lon="12.955328981854576"><ele>59.0</ele><time>2026-04-27T10:15:42.002Z</time></trkpt><trkpt lat="45.99904758345891" lon="12.955035393483127"><ele>59.0</ele><time>2026-04-27T10:15:43.002Z</time></trkpt><trkpt lat="45.998966052798195" lon="12.954740172073532"><ele>59.0</ele><time>2026-04-27T10:15:44.002Z</time></trkpt><trkpt lat="45.998881349567554" lon="12.954444062806889"><ele>59.0</ele><time>2026-04-27T10:15:45.002Z</time></trkpt><trkpt lat="45.998796525093475" lon="12.954149651056476"><ele>59.0</ele><time>2026-04-27T10:15:46.002Z</time></trkpt><trkpt lat="45.99871079447403" lon="12.95385953964301"><ele>59.0</ele><time>2026-04-27T10:15:47.002Z</time></trkpt><trkpt lat="45.998626551583264" lon="12.953569098325321"><ele>59.0</ele><time>2026-04-27T10:15:48.002Z</time></trkpt><trkpt lat="45.99854160627611" lon="12.953274725776687"><ele>59.0</ele><time>2026-04-27T10:15:49.002Z</time></trkpt><trkpt lat="45.99845369917004" lon="12.952979083162276"><ele>59.0</ele><time>2026-04-27T10:15:50.002Z</time></trkpt><trkpt lat="45.99837272622106" lon="12.952674553724892"><ele>58.5</ele><time>2026-04-27T10:15:51.002Z</time></trkpt><trkpt lat="45.998283450697706" lon="12.952362256243484"><ele>58.0</ele><time>2026-04-27T10:15:52.002Z</time></trkpt><trkpt lat="45.99819668648193" lon="12.9520531558175"><ele>58.0</ele><time>2026-04-27T10:15:53.002Z</time></trkpt><trkpt lat="45.99810706978518" lon="12.951740522109393"><ele>58.0</ele><time>2026-04-27T10:15:54.002Z</time></trkpt><trkpt lat="45.9980091669047" lon="12.95143337969137"><ele>58.0</ele><time>2026-04-27T10:15:55.002Z</time></trkpt><trkpt lat="45.997921567771236" lon="12.951125034149069"><ele>58.0</ele><time>2026-04-27T10:15:56.002Z</time></trkpt><trkpt lat="45.99783233824283" lon="12.950829373342735"><ele>58.0</ele><time>2026-04-27T10:15:57.002Z</time></trkpt><trkpt lat="45.997746533566904" lon="12.950544177100294"><ele>58.0</ele><time>2026-04-27T10:15:58.002Z</time></trkpt><trkpt lat="45.99765805085386" lon="12.950261618376643"><ele>58.0</ele><time>2026-04-27T10:15:59.002Z</time></trkpt><trkpt lat="45.997570718434424" lon="12.949978863338975"><ele>58.33333333333333</ele><time>2026-04-27T10:16:00.002Z</time></trkpt><trkpt lat="45.99747695821214" lon="12.94970156683266"><ele>58.66666666666667</ele><time>2026-04-27T10:16:01.002Z</time></trkpt><trkpt lat="45.99737461883394" lon="12.949418527152297"><ele>59.0</ele><time>2026-04-27T10:16:02.002Z</time></trkpt><trkpt lat="45.99726496748123" lon="12.94912732974325"><ele>59.0</ele><time>2026-04-27T10:16:03.002Z</time></trkpt><trkpt lat="45.99716232891118" lon="12.948851751394242"><ele>59.0</ele><time>2026-04-27T10:16:04.002Z</time></trkpt><trkpt lat="45.99708293420565" lon="12.948599298801437"><ele>59.0</ele><time>2026-04-27T10:16:05.002Z</time></trkpt><trkpt lat="45.99699675559972" lon="12.94836711251521"><ele>59.66666666666667</ele><time>2026-04-27T10:16:06.002Z</time></trkpt><trkpt lat="45.99691875247225" lon="12.948158631415984"><ele>60.33333333333333</ele><time>2026-04-27T10:16:07.002Z</time></trkpt><trkpt lat="45.99684157117173" lon="12.947953171473"><ele>61.0</ele><time>2026-04-27T10:16:08.002Z</time></trkpt><trkpt lat="45.99674504004803" lon="12.947743685893263"><ele>60.33333333333333</ele><time>2026-04-27T10:16:09.002Z</time></trkpt><trkpt lat="45.99666005887671" lon="12.947516225002662"><ele>59.66666666666667</ele><time>2026-04-27T10:16:10.002Z</time></trkpt><trkpt lat="45.99656363219413" lon="12.947279966929665"><ele>59.0</ele><time>2026-04-27T10:16:11.002Z</time></trkpt><trkpt lat="45.99644944189836" lon="12.947053313231827"><ele>59.0</ele><time>2026-04-27T10:16:12.002Z</time></trkpt><trkpt lat="45.99633319007888" lon="12.946844485563785"><ele>59.0</ele><time>2026-04-27T10:16:13.002Z</time></trkpt><trkpt lat="45.99621979319439" lon="12.946650047430085"><ele>59.0</ele><time>2026-04-27T10:16:14.002Z</time></trkpt><trkpt lat="45.99611285198711" lon="12.946470066765023"><ele>59.0</ele><time>2026-04-27T10:16:15.002Z</time></trkpt><trkpt lat="45.99601367304413" lon="12.946298447707047"><ele>59.0</ele><time>2026-04-27T10:16:16.002Z</time></trkpt><trkpt lat="45.9959193056759" lon="12.946126885598256"><ele>59.0</ele><time>2026-04-27T10:16:17.002Z</time></trkpt><trkpt lat="45.99582776019011" lon="12.945951582495862"><ele>59.0</ele><time>2026-04-27T10:16:18.002Z</time></trkpt><trkpt lat="45.9957372868469" lon="12.94576767718665"><ele>59.0</ele><time>2026-04-27T10:16:19.002Z</time></trkpt><trkpt lat="45.995655428321946" lon="12.945577604425315"><ele>59.0</ele><time>2026-04-27T10:16:20.002Z</time></trkpt><trkpt lat="45.99559807243852" lon="12.94537280694627"><ele>59.0</ele><time>2026-04-27T10:16:21.002Z</time></trkpt><trkpt lat="45.995540471298895" lon="12.945168223939021"><ele>59.0</ele><time>2026-04-27T10:16:22.002Z</time></trkpt><trkpt lat="45.99549633887506" lon="12.94493795859529"><ele>59.0</ele><time>2026-04-27T10:16:23.003Z</time></trkpt><trkpt lat="45.99546225175217" lon="12.944690340825185"><ele>58.0</ele><time>2026-04-27T10:16:24.003Z</time></trkpt><trkpt lat="45.99542871503398" lon="12.944433367394337"><ele>57.0</ele><time>2026-04-27T10:16:25.003Z</time></trkpt><trkpt lat="45.99539759685079" lon="12.944200460506442"><ele>56.0</ele><time>2026-04-27T10:16:26.003Z</time></trkpt><trkpt lat="45.99536603332379" lon="12.94396801024884"><ele>56.0</ele><time>2026-04-27T10:16:27.003Z</time></trkpt><trkpt lat="45.995333281060034" lon="12.943726801816787"><ele>56.0</ele><time>2026-04-27T10:16:28.003Z</time></trkpt><trkpt lat="45.99530027183578" lon="12.943483700959904"><ele>56.0</ele><time>2026-04-27T10:16:29.003Z</time></trkpt><trkpt lat="45.995199947458026" lon="12.943253201551395"><ele>56.0</ele><time>2026-04-27T10:16:30.003Z</time></trkpt><trkpt lat="45.995117426981416" lon="12.943024691224979"><ele>56.0</ele><time>2026-04-27T10:16:31.001Z</time></trkpt><trkpt lat="45.99501646628988" lon="12.942798922693111"><ele>56.0</ele><time>2026-04-27T10:16:32.001Z</time></trkpt><trkpt lat="45.99491266900539" lon="12.942566318822596"><ele>55.66666666666667</ele><time>2026-04-27T10:16:33.001Z</time></trkpt><trkpt lat="45.99481507086938" lon="12.942326945989322"><ele>55.33333333333333</ele><time>2026-04-27T10:16:34.001Z</time></trkpt><trkpt lat="45.994714564213226" lon="12.94208761658527"><ele>55.0</ele><time>2026-04-27T10:16:35.001Z</time></trkpt><trkpt lat="45.99461666538187" lon="12.941831213950197"><ele>54.666666666666664</ele><time>2026-04-27T10:16:36.001Z</time></trkpt><trkpt lat="45.99451913970684" lon="12.941590036733677"><ele>54.33333333333333</ele><time>2026-04-27T10:16:37.001Z</time></trkpt><trkpt lat="45.99441815499388" lon="12.941342549767313"><ele>54.0</ele><time>2026-04-27T10:16:38.001Z</time></trkpt><trkpt lat="45.99431780113941" lon="12.941092531798692"><ele>54.0</ele><time>2026-04-27T10:16:39.001Z</time></trkpt><trkpt lat="45.99421964909535" lon="12.940843810581823"><ele>54.0</ele><time>2026-04-27T10:16:40.001Z</time></trkpt><trkpt lat="45.99411969671162" lon="12.940598495791956"><ele>54.0</ele><time>2026-04-27T10:16:41.001Z</time></trkpt><trkpt lat="45.99401608116434" lon="12.940352981749994"><ele>54.0</ele><time>2026-04-27T10:16:42.001Z</time></trkpt><trkpt lat="45.9939161361979" lon="12.940108815227783"><ele>54.0</ele><time>2026-04-27T10:16:43.001Z</time></trkpt><trkpt lat="45.99381764966272" lon="12.939867127480257"><ele>54.0</ele><time>2026-04-27T10:16:44.001Z</time></trkpt><trkpt lat="45.9937181313102" lon="12.939627613643317"><ele>54.0</ele><time>2026-04-27T10:16:45.001Z</time></trkpt><trkpt lat="45.993620027060395" lon="12.939386915985038"><ele>54.0</ele><time>2026-04-27T10:16:46.001Z</time></trkpt><trkpt lat="45.99352153466697" lon="12.939145460221006"><ele>54.0</ele><time>2026-04-27T10:16:47.001Z</time></trkpt><trkpt lat="45.99342443767406" lon="12.938906882626283"><ele>54.0</ele><time>2026-04-27T10:16:48.001Z</time></trkpt><trkpt lat="45.99332712798561" lon="12.938674846729864"><ele>54.0</ele><time>2026-04-27T10:16:49.001Z</time></trkpt><trkpt lat="45.993227532580335" lon="12.938434522207388"><ele>54.0</ele><time>2026-04-27T10:16:50.001Z</time></trkpt><trkpt lat="45.993126791090845" lon="12.93819173599931"><ele>54.0</ele><time>2026-04-27T10:16:51.001Z</time></trkpt><trkpt lat="45.99302691755545" lon="12.937955318394135"><ele>54.0</ele><time>2026-04-27T10:16:52.001Z</time></trkpt><trkpt lat="45.9929266760243" lon="12.937715990161669"><ele>54.0</ele><time>2026-04-27T10:16:53.001Z</time></trkpt><trkpt lat="45.99282922829445" lon="12.937476654344087"><ele>54.0</ele><time>2026-04-27T10:16:54.001Z</time></trkpt><trkpt lat="45.99273685838621" lon="12.937235927339026"><ele>54.0</ele><time>2026-04-27T10:16:55.001Z</time></trkpt><trkpt lat="45.992643401688035" lon="12.937003107266184"><ele>54.0</ele><time>2026-04-27T10:16:56.001Z</time></trkpt><trkpt lat="45.99254598625441" lon="12.93677710417522"><ele>53.66666666666667</ele><time>2026-04-27T10:16:57.001Z</time></trkpt><trkpt lat="45.99245109199468" lon="12.936556052324443"><ele>53.333333333333336</ele><time>2026-04-27T10:16:58.001Z</time></trkpt><trkpt lat="45.99235850583056" lon="12.936332711135169"><ele>53.0</ele><time>2026-04-27T10:16:59.001Z</time></trkpt><trkpt lat="45.992265519269765" lon="12.936108275574806"><ele>53.333333333333336</ele><time>2026-04-27T10:17:00.001Z</time></trkpt><trkpt lat="45.99217567275411" lon="12.935881077450365"><ele>53.66666666666667</ele><time>2026-04-27T10:17:01.001Z</time></trkpt><trkpt lat="45.99208464248588" lon="12.9356503293485"><ele>54.0</ele><time>2026-04-27T10:17:02.001Z</time></trkpt><trkpt lat="45.99199692445886" lon="12.935421295177344"><ele>54.0</ele><time>2026-04-27T10:17:03.001Z</time></trkpt><trkpt lat="45.99191538994834" lon="12.935182343361605"><ele>54.0</ele><time>2026-04-27T10:17:04.001Z</time></trkpt><trkpt lat="45.99184719996461" lon="12.934932670471161"><ele>54.0</ele><time>2026-04-27T10:17:05.001Z</time></trkpt><trkpt lat="45.991791778380566" lon="12.934673688891143"><ele>54.0</ele><time>2026-04-27T10:17:06.001Z</time></trkpt><trkpt lat="45.99174025595561" lon="12.934405008488161"><ele>54.0</ele><time>2026-04-27T10:17:07.001Z</time></trkpt><trkpt lat="45.99168536374729" lon="12.934135742159794"><ele>54.0</ele><time>2026-04-27T10:17:08.001Z</time></trkpt><trkpt lat="45.99162639535218" lon="12.933862827737965"><ele>54.0</ele><time>2026-04-27T10:17:09.001Z</time></trkpt><trkpt lat="45.99157176799166" lon="12.933607552019913"><ele>54.0</ele><time>2026-04-27T10:17:10.001Z</time></trkpt><trkpt lat="45.99152251925109" lon="12.933368747085344"><ele>54.0</ele><time>2026-04-27T10:17:11.001Z</time></trkpt><trkpt lat="45.9914805110326" lon="12.93314208775708"><ele>54.25</ele><time>2026-04-27T10:17:12.001Z</time></trkpt><trkpt lat="45.991437873023614" lon="12.93292590549713"><ele>54.5</ele><time>2026-04-27T10:17:13.001Z</time></trkpt><trkpt lat="45.99139793346105" lon="12.932718423917239"><ele>54.75</ele><time>2026-04-27T10:17:14.001Z</time></trkpt><trkpt lat="45.991359413379804" lon="12.932526468779846"><ele>55.0</ele><time>2026-04-27T10:17:15.001Z</time></trkpt><trkpt lat="45.991320550578585" lon="12.932353211255892"><ele>55.2</ele><time>2026-04-27T10:17:16.001Z</time></trkpt><trkpt lat="45.9912864209037" lon="12.932204954296461"><ele>55.4</ele><time>2026-04-27T10:17:17.001Z</time></trkpt><trkpt lat="45.991267343013455" lon="12.932085065467769"><ele>55.599999999999994</ele><time>2026-04-27T10:17:18.001Z</time></trkpt><trkpt lat="45.99125423285921" lon="12.93197797913973"><ele>55.8</ele><time>2026-04-27T10:17:20.001Z</time></trkpt><trkpt lat="45.99119764339206" lon="12.931912143563135"><ele>56.0</ele><time>2026-04-27T10:17:27.001Z</time></trkpt><trkpt lat="45.99110287149515" lon="12.931831301203554"><ele>56.0</ele><time>2026-04-27T10:17:28.001Z</time></trkpt><trkpt lat="45.99096883765748" lon="12.931731138867232"><ele>56.0</ele><time>2026-04-27T10:17:29.001Z</time></trkpt><trkpt lat="45.99083527489395" lon="12.931645775120383"><ele>56.0</ele><time>2026-04-27T10:17:30.001Z</time></trkpt><trkpt lat="45.99066258947453" lon="12.931564319453487"><ele>55.333333333333336</ele><time>2026-04-27T10:17:31.001Z</time></trkpt><trkpt lat="45.99047422954701" lon="12.931461077139923"><ele>54.66666666666667</ele><time>2026-04-27T10:17:32.001Z</time></trkpt><trkpt lat="45.99025349058883" lon="12.931338709908896"><ele>54.0</ele><time>2026-04-27T10:17:33.001Z</time></trkpt><trkpt lat="45.990018935649" lon="12.931201318148714"><ele>54.0</ele><time>2026-04-27T10:17:34.001Z</time></trkpt><trkpt lat="45.98976331906069" lon="12.93105418945685"><ele>54.0</ele><time>2026-04-27T10:17:35.001Z</time></trkpt><trkpt lat="45.98949711906425" lon="12.930901796481479"><ele>54.0</ele><time>2026-04-27T10:17:36.001Z</time></trkpt><trkpt lat="45.98923526362337" lon="12.930749299801915"><ele>54.0</ele><time>2026-04-27T10:17:37.001Z</time></trkpt><trkpt lat="45.98897812141623" lon="12.930603100220477"><ele>55.0</ele><time>2026-04-27T10:17:38.001Z</time></trkpt><trkpt lat="45.98873281004975" lon="12.9304649294477"><ele>56.0</ele><time>2026-04-27T10:17:39.001Z</time></trkpt><trkpt lat="45.98850037129901" lon="12.930334410676176"><ele>54.5</ele><time>2026-04-27T10:17:40.001Z</time></trkpt><trkpt lat="45.988281954979044" lon="12.930208153497794"><ele>53.0</ele><time>2026-04-27T10:17:41.001Z</time></trkpt><trkpt lat="45.98806942759729" lon="12.930084660495192"><ele>53.0</ele><time>2026-04-27T10:17:42.001Z</time></trkpt><trkpt lat="45.98785766866458" lon="12.929959513654328"><ele>53.0</ele><time>2026-04-27T10:17:43.001Z</time></trkpt><trkpt lat="45.98764812569465" lon="12.929840336696556"><ele>52.66666666666667</ele><time>2026-04-27T10:17:44.001Z</time></trkpt><trkpt lat="45.987437948958174" lon="12.929720945025938"><ele>52.33333333333333</ele><time>2026-04-27T10:17:45.001Z</time></trkpt><trkpt lat="45.98723211259461" lon="12.929603440223103"><ele>52.0</ele><time>2026-04-27T10:17:46.001Z</time></trkpt><trkpt lat="45.98702661497651" lon="12.929485111577264"><ele>52.0</ele><time>2026-04-27T10:17:47.001Z</time></trkpt><trkpt lat="45.98682670467844" lon="12.929368716035361"><ele>52.0</ele><time>2026-04-27T10:17:48.002Z</time></trkpt><trkpt lat="45.986622891641886" lon="12.929247254606263"><ele>52.0</ele><time>2026-04-27T10:17:49.002Z</time></trkpt><trkpt lat="45.98641809783711" lon="12.929134650452594"><ele>52.33333333333333</ele><time>2026-04-27T10:17:50.002Z</time></trkpt><trkpt lat="45.98621676669262" lon="12.929019959818115"><ele>52.66666666666667</ele><time>2026-04-27T10:17:51.002Z</time></trkpt><trkpt lat="45.98601430043286" lon="12.928901248773222"><ele>53.0</ele><time>2026-04-27T10:17:52.002Z</time></trkpt><trkpt lat="45.98581132481329" lon="12.928788634551662"><ele>53.0</ele><time>2026-04-27T10:17:53.002Z</time></trkpt><trkpt lat="45.985613942576705" lon="12.928651644064193"><ele>53.0</ele><time>2026-04-27T10:17:54.002Z</time></trkpt><trkpt lat="45.985417452167354" lon="12.928540493101087"><ele>53.0</ele><time>2026-04-27T10:17:55.002Z</time></trkpt><trkpt lat="45.985233154045616" lon="12.928434549270017"><ele>52.66666666666667</ele><time>2026-04-27T10:17:56.002Z</time></trkpt><trkpt lat="45.98506032131467" lon="12.9283351963137"><ele>52.33333333333333</ele><time>2026-04-27T10:17:57.002Z</time></trkpt><trkpt lat="45.98489066595837" lon="12.928262157080226"><ele>52.0</ele><time>2026-04-27T10:17:58.002Z</time></trkpt><trkpt lat="45.98473807729086" lon="12.928175359575258"><ele>51.666666666666664</ele><time>2026-04-27T10:17:59.002Z</time></trkpt><trkpt lat="45.984587720563255" lon="12.9281063852003"><ele>51.33333333333333</ele><time>2026-04-27T10:18:00.002Z</time></trkpt><trkpt lat="45.98442544567255" lon="12.9280589216099"><ele>51.0</ele><time>2026-04-27T10:18:01.002Z</time></trkpt><trkpt lat="45.98424778268742" lon="12.92804290393205"><ele>51.66666666666667</ele><time>2026-04-27T10:18:02.002Z</time></trkpt><trkpt lat="45.98405398010265" lon="12.928056744863586"><ele>52.333333333333336</ele><time>2026-04-27T10:18:03.002Z</time></trkpt><trkpt lat="45.98385142182517" lon="12.928077594753038"><ele>53.0</ele><time>2026-04-27T10:18:04.002Z</time></trkpt><trkpt lat="45.983627693043644" lon="12.92811039505989"><ele>53.0</ele><time>2026-04-27T10:18:05.002Z</time></trkpt><trkpt lat="45.983390786004236" lon="12.928141338448176"><ele>53.0</ele><time>2026-04-27T10:18:06.002Z</time></trkpt><trkpt lat="45.98315296234464" lon="12.92816580025974"><ele>51.0</ele><time>2026-04-27T10:18:07.002Z</time></trkpt><trkpt lat="45.98291568777223" lon="12.928198141740664"><ele>49.0</ele><time>2026-04-27T10:18:08.002Z</time></trkpt><trkpt lat="45.982674597461894" lon="12.928231270749654"><ele>50.0</ele><time>2026-04-27T10:18:09.002Z</time></trkpt><trkpt lat="45.982427303058266" lon="12.928262053029398"><ele>51.0</ele><time>2026-04-27T10:18:10.002Z</time></trkpt><trkpt lat="45.98217746433321" lon="12.928300211035294"><ele>51.0</ele><time>2026-04-27T10:18:11.002Z</time></trkpt><trkpt lat="45.981919301753415" lon="12.928333488954664"><ele>51.0</ele><time>2026-04-27T10:18:12.002Z</time></trkpt><trkpt lat="45.98164125921533" lon="12.928366816392657"><ele>50.5</ele><time>2026-04-27T10:18:13.002Z</time></trkpt><trkpt lat="45.981389855907004" lon="12.92839511375288"><ele>50.0</ele><time>2026-04-27T10:18:14.002Z</time></trkpt><trkpt lat="45.98112627190638" lon="12.928423563364744"><ele>50.0</ele><time>2026-04-27T10:18:15.002Z</time></trkpt><trkpt lat="45.980852374951624" lon="12.928459886242841"><ele>50.0</ele><time>2026-04-27T10:18:16.002Z</time></trkpt><trkpt lat="45.98057361392004" lon="12.92849309099461"><ele>50.0</ele><time>2026-04-27T10:18:17.002Z</time></trkpt><trkpt lat="45.98029586088941" lon="12.92852493903555"><ele>50.0</ele><time>2026-04-27T10:18:18.002Z</time></trkpt><trkpt lat="45.980015151256325" lon="12.92856150104097"><ele>50.0</ele><time>2026-04-27T10:18:19.002Z</time></trkpt><trkpt lat="45.97975595601387" lon="12.928593248825848"><ele>50.0</ele><time>2026-04-27T10:18:20.002Z</time></trkpt><trkpt lat="45.979517832940324" lon="12.928621647617444"><ele>50.0</ele><time>2026-04-27T10:18:21.002Z</time></trkpt><trkpt lat="45.97929416382367" lon="12.92864607923931"><ele>50.0</ele><time>2026-04-27T10:18:22.002Z</time></trkpt><trkpt lat="45.979081445671696" lon="12.928671125774182"><ele>50.0</ele><time>2026-04-27T10:18:23.002Z</time></trkpt><trkpt lat="45.97886337685628" lon="12.928700032717206"><ele>50.0</ele><time>2026-04-27T10:18:24.002Z</time></trkpt><trkpt lat="45.978647389038144" lon="12.928724688912592"><ele>50.0</ele><time>2026-04-27T10:18:25.002Z</time></trkpt><trkpt lat="45.97842235761992" lon="12.928749110994938"><ele>50.0</ele><time>2026-04-27T10:18:26.002Z</time></trkpt><trkpt lat="45.97819934611821" lon="12.928775476343493"><ele>50.0</ele><time>2026-04-27T10:18:27.002Z</time></trkpt><trkpt lat="45.97798502947805" lon="12.928798730626465"><ele>50.0</ele><time>2026-04-27T10:18:28.002Z</time></trkpt><trkpt lat="45.97777559632282" lon="12.928833992613326"><ele>50.0</ele><time>2026-04-27T10:18:29.002Z</time></trkpt><trkpt lat="45.977556892793345" lon="12.92885808482742"><ele>49.0</ele><time>2026-04-27T10:18:30.002Z</time></trkpt><trkpt lat="45.97732277239775" lon="12.928889861608454"><ele>48.0</ele><time>2026-04-27T10:18:31.002Z</time></trkpt><trkpt lat="45.97707578911402" lon="12.928917307290817"><ele>48.0</ele><time>2026-04-27T10:18:32.002Z</time></trkpt><trkpt lat="45.97682443887208" lon="12.928948656861039"><ele>48.0</ele><time>2026-04-27T10:18:33.002Z</time></trkpt><trkpt lat="45.976574029142476" lon="12.928981310007162"><ele>49.5</ele><time>2026-04-27T10:18:34.002Z</time></trkpt><trkpt lat="45.976330364538185" lon="12.92901020356719"><ele>51.0</ele><time>2026-04-27T10:18:35.002Z</time></trkpt><trkpt lat="45.97609126716848" lon="12.929039700274778"><ele>51.0</ele><time>2026-04-27T10:18:36.002Z</time></trkpt><trkpt lat="45.97585521095231" lon="12.929066953415354"><ele>51.0</ele><time>2026-04-27T10:18:37Z</time></trkpt><trkpt lat="45.975628350196814" lon="12.929096142610254"><ele>51.66666666666667</ele><time>2026-04-27T10:18:38Z</time></trkpt><trkpt lat="45.975417588110595" lon="12.92912080201195"><ele>52.333333333333336</ele><time>2026-04-27T10:18:39Z</time></trkpt><trkpt lat="45.97521565356453" lon="12.929144908201598"><ele>53.0</ele><time>2026-04-27T10:18:40Z</time></trkpt><trkpt lat="45.975015269048036" lon="12.929168178024842"><ele>52.0</ele><time>2026-04-27T10:18:41Z</time></trkpt><trkpt lat="45.974816936813" lon="12.929191656640725"><ele>51.0</ele><time>2026-04-27T10:18:42Z</time></trkpt><trkpt lat="45.974620365203094" lon="12.92921261014751"><ele>50.0</ele><time>2026-04-27T10:18:43Z</time></trkpt><trkpt lat="45.97443803809177" lon="12.929232358938576"><ele>50.0</ele><time>2026-04-27T10:18:44Z</time></trkpt><trkpt lat="45.97425853807028" lon="12.92924610318596"><ele>50.0</ele><time>2026-04-27T10:18:45Z</time></trkpt><trkpt lat="45.97407556384589" lon="12.929243905371948"><ele>50.0</ele><time>2026-04-27T10:18:46Z</time></trkpt><trkpt lat="45.97389360041163" lon="12.929206855189108"><ele>49.333333333333336</ele><time>2026-04-27T10:18:47Z</time></trkpt><trkpt lat="45.97370024838461" lon="12.92914169703749"><ele>48.66666666666667</ele><time>2026-04-27T10:18:48Z</time></trkpt><trkpt lat="45.973500583869" lon="12.929055172642986"><ele>48.0</ele><time>2026-04-27T10:18:49Z</time></trkpt><trkpt lat="45.97328265694779" lon="12.928961723218439"><ele>47.5</ele><time>2026-04-27T10:18:50Z</time></trkpt><trkpt lat="45.97304707461772" lon="12.928865215596085"><ele>47.0</ele><time>2026-04-27T10:18:51Z</time></trkpt><trkpt lat="45.972790363048055" lon="12.928760895207791"><ele>47.0</ele><time>2026-04-27T10:18:52Z</time></trkpt><trkpt lat="45.97252311418723" lon="12.928652330228333"><ele>47.0</ele><time>2026-04-27T10:18:53Z</time></trkpt><trkpt lat="45.97224118933586" lon="12.928536220014676"><ele>46.0</ele><time>2026-04-27T10:18:54Z</time></trkpt><trkpt lat="45.97196333904502" lon="12.92842599422331"><ele>45.0</ele><time>2026-04-27T10:18:55Z</time></trkpt><trkpt lat="45.97171591373416" lon="12.928322066300465"><ele>45.5</ele><time>2026-04-27T10:18:56Z</time></trkpt><trkpt lat="45.971490153858184" lon="12.928229334497559"><ele>46.0</ele><time>2026-04-27T10:18:57Z</time></trkpt><trkpt lat="45.97127691952202" lon="12.928142444525124"><ele>46.0</ele><time>2026-04-27T10:18:58Z</time></trkpt><trkpt lat="45.971076747688045" lon="12.92805773115425"><ele>46.0</ele><time>2026-04-27T10:18:59Z</time></trkpt><trkpt lat="45.97087686109245" lon="12.927969223575127"><ele>46.0</ele><time>2026-04-27T10:19:00Z</time></trkpt><trkpt lat="45.970677767834154" lon="12.927887135896421"><ele>46.333333333333336</ele><time>2026-04-27T10:19:01Z</time></trkpt><trkpt lat="45.970492956082744" lon="12.927810298088822"><ele>46.666666666666664</ele><time>2026-04-27T10:19:02Z</time></trkpt><trkpt lat="45.97031998348081" lon="12.927741307915037"><ele>47.0</ele><time>2026-04-27T10:19:03Z</time></trkpt><trkpt lat="45.97016182065313" lon="12.927673232751127"><ele>47.0</ele><time>2026-04-27T10:19:04.001Z</time></trkpt><trkpt lat="45.970013528042266" lon="12.927611665746333"><ele>47.0</ele><time>2026-04-27T10:19:05.001Z</time></trkpt><trkpt lat="45.96987715444186" lon="12.92755841920608"><ele>47.0</ele><time>2026-04-27T10:19:06.001Z</time></trkpt><trkpt lat="45.969748805612404" lon="12.927502887795564"><ele>47.0</ele><time>2026-04-27T10:19:07.001Z</time></trkpt><trkpt lat="45.96962818213259" lon="12.927453973797986"><ele>47.0</ele><time>2026-04-27T10:19:08.001Z</time></trkpt><trkpt lat="45.96951664663087" lon="12.927403726931542"><ele>47.0</ele><time>2026-04-27T10:19:09.001Z</time></trkpt><trkpt lat="45.96941418188192" lon="12.927353336545826"><ele>47.0</ele><time>2026-04-27T10:19:10.001Z</time></trkpt><trkpt lat="45.969318258705464" lon="12.927300325090396"><ele>47.0</ele><time>2026-04-27T10:19:11.001Z</time></trkpt><trkpt lat="45.96922281455576" lon="12.927253791031482"><ele>47.0</ele><time>2026-04-27T10:19:12.001Z</time></trkpt><trkpt lat="45.96913132205939" lon="12.92719554453265"><ele>47.2</ele><time>2026-04-27T10:19:13.001Z</time></trkpt><trkpt lat="45.96905387181576" lon="12.927123609382434"><ele>47.400000000000006</ele><time>2026-04-27T10:19:14.001Z</time></trkpt><trkpt lat="45.96898425192188" lon="12.927020918086559"><ele>47.599999999999994</ele><time>2026-04-27T10:19:15.001Z</time></trkpt><trkpt lat="45.96890689052829" lon="12.92688733449616"><ele>47.8</ele><time>2026-04-27T10:19:16.001Z</time></trkpt><trkpt lat="45.96882644546785" lon="12.92674973997505"><ele>48.0</ele><time>2026-04-27T10:19:17.001Z</time></trkpt><trkpt lat="45.968751633628884" lon="12.926611826097142"><ele>48.0</ele><time>2026-04-27T10:19:18.001Z</time></trkpt><trkpt lat="45.96868370994093" lon="12.92644584203012"><ele>48.0</ele><time>2026-04-27T10:19:19.001Z</time></trkpt><trkpt lat="45.96862305783156" lon="12.92623517851802"><ele>48.0</ele><time>2026-04-27T10:19:20.001Z</time></trkpt><trkpt lat="45.968574780423175" lon="12.926007851413221"><ele>47.666666666666664</ele><time>2026-04-27T10:19:21.001Z</time></trkpt><trkpt lat="45.96853838866223" lon="12.92579038802141"><ele>47.33333333333333</ele><time>2026-04-27T10:19:22.001Z</time></trkpt><trkpt lat="45.96849135988671" lon="12.925549867451888"><ele>47.0</ele><time>2026-04-27T10:19:23.001Z</time></trkpt><trkpt lat="45.96844233511146" lon="12.925325647240031"><ele>47.0</ele><time>2026-04-27T10:19:24.001Z</time></trkpt><trkpt lat="45.968409362685854" lon="12.925114866176862"><ele>47.0</ele><time>2026-04-27T10:19:25.001Z</time></trkpt><trkpt lat="45.96837877522741" lon="12.924921811242415"><ele>47.0</ele><time>2026-04-27T10:19:26.001Z</time></trkpt><trkpt lat="45.968341234843585" lon="12.924738062863659"><ele>47.0</ele><time>2026-04-27T10:19:27.001Z</time></trkpt><trkpt lat="45.968300216853315" lon="12.9245675974244"><ele>47.0</ele><time>2026-04-27T10:19:28.001Z</time></trkpt><trkpt lat="45.96825952243956" lon="12.924403361940092"><ele>47.0</ele><time>2026-04-27T10:19:29.001Z</time></trkpt><trkpt lat="45.96821832912315" lon="12.92424905663803"><ele>47.0</ele><time>2026-04-27T10:19:30.001Z</time></trkpt><trkpt lat="45.968175387897475" lon="12.924097563012582"><ele>47.0</ele><time>2026-04-27T10:19:31.001Z</time></trkpt><trkpt lat="45.9681299221624" lon="12.92393662430579"><ele>46.75</ele><time>2026-04-27T10:19:32.001Z</time></trkpt><trkpt lat="45.96808068869733" lon="12.92376519029342"><ele>46.5</ele><time>2026-04-27T10:19:33.001Z</time></trkpt><trkpt lat="45.96802962006588" lon="12.92358831784187"><ele>46.25</ele><time>2026-04-27T10:19:34.001Z</time></trkpt><trkpt lat="45.96797387350834" lon="12.923406376562948"><ele>46.0</ele><time>2026-04-27T10:19:35.001Z</time></trkpt><trkpt lat="45.96791656986091" lon="12.923226931345093"><ele>45.75</ele><time>2026-04-27T10:19:36.001Z</time></trkpt><trkpt lat="45.96786054646444" lon="12.923029245463985"><ele>45.5</ele><time>2026-04-27T10:19:37.001Z</time></trkpt><trkpt lat="45.967805367657164" lon="12.922832912381283"><ele>45.25</ele><time>2026-04-27T10:19:38.001Z</time></trkpt><trkpt lat="45.96774938273976" lon="12.922628758702187"><ele>45.0</ele><time>2026-04-27T10:19:39.001Z</time></trkpt><trkpt lat="45.9676929193079" lon="12.922425807187215"><ele>44.5</ele><time>2026-04-27T10:19:40.001Z</time></trkpt><trkpt lat="45.967636530242586" lon="12.922232673968644"><ele>44.0</ele><time>2026-04-27T10:19:41.001Z</time></trkpt><trkpt lat="45.96758160820967" lon="12.922043938021629"><ele>43.5</ele><time>2026-04-27T10:19:42.001Z</time></trkpt><trkpt lat="45.96753233306713" lon="12.92185048058398"><ele>43.0</ele><time>2026-04-27T10:19:43.001Z</time></trkpt><trkpt lat="45.96747487674086" lon="12.921650630332776"><ele>44.0</ele><time>2026-04-27T10:19:44.001Z</time></trkpt><trkpt lat="45.967415868445514" lon="12.921446037231034"><ele>45.0</ele><time>2026-04-27T10:19:45.001Z</time></trkpt><trkpt lat="45.96736619387276" lon="12.921266796334415"><ele>46.0</ele><time>2026-04-27T10:19:46.001Z</time></trkpt><trkpt lat="45.967316021880464" lon="12.921086134660303"><ele>47.0</ele><time>2026-04-27T10:19:47.001Z</time></trkpt><trkpt lat="45.96726351369955" lon="12.92090318024594"><ele>46.75</ele><time>2026-04-27T10:19:48.001Z</time></trkpt><trkpt lat="45.96720850576973" lon="12.920717093275687"><ele>46.5</ele><time>2026-04-27T10:19:49.001Z</time></trkpt><trkpt lat="45.96715156686642" lon="12.920526525241016"><ele>46.25</ele><time>2026-04-27T10:19:50.001Z</time></trkpt><trkpt lat="45.96709319162206" lon="12.9203315485386"><ele>46.0</ele><time>2026-04-27T10:19:51.001Z</time></trkpt><trkpt lat="45.967035726975624" lon="12.92013154498339"><ele>46.25</ele><time>2026-04-27T10:19:52.001Z</time></trkpt><trkpt lat="45.96698336095523" lon="12.91993993959869"><ele>46.5</ele><time>2026-04-27T10:19:53.001Z</time></trkpt><trkpt lat="45.96692506257387" lon="12.919752584780364"><ele>46.75</ele><time>2026-04-27T10:19:54.001Z</time></trkpt><trkpt lat="45.96686080897083" lon="12.919553881504175"><ele>47.0</ele><time>2026-04-27T10:19:55.001Z</time></trkpt><trkpt lat="45.96680667902937" lon="12.919358076332674"><ele>47.33333333333333</ele><time>2026-04-27T10:19:56.001Z</time></trkpt><trkpt lat="45.96675050676364" lon="12.91916539332187"><ele>47.666666666666664</ele><time>2026-04-27T10:19:57.001Z</time></trkpt><trkpt lat="45.96669253588639" lon="12.918955539500748"><ele>48.0</ele><time>2026-04-27T10:19:58.001Z</time></trkpt><trkpt lat="45.96662872405214" lon="12.918737825935155"><ele>47.333333333333336</ele><time>2026-04-27T10:19:59.001Z</time></trkpt><trkpt lat="45.96656712189479" lon="12.918522395316744"><ele>46.66666666666667</ele><time>2026-04-27T10:20:00.001Z</time></trkpt><trkpt lat="45.96651832790423" lon="12.918291761283834"><ele>46.0</ele><time>2026-04-27T10:20:01.001Z</time></trkpt><trkpt lat="45.96645419989565" lon="12.918066481086576"><ele>45.66666666666667</ele><time>2026-04-27T10:20:02.002Z</time></trkpt><trkpt lat="45.96639220003559" lon="12.917849224178163"><ele>45.333333333333336</ele><time>2026-04-27T10:20:03.002Z</time></trkpt><trkpt lat="45.96633488225348" lon="12.917648525532593"><ele>45.0</ele><time>2026-04-27T10:20:04.002Z</time></trkpt><trkpt lat="45.96627767095018" lon="12.917448199707865"><ele>45.0</ele><time>2026-04-27T10:20:05.002Z</time></trkpt><trkpt lat="45.966216933709326" lon="12.917235527810677"><ele>45.0</ele><time>2026-04-27T10:20:06.002Z</time></trkpt><trkpt lat="45.96614426281231" lon="12.917022224899814"><ele>45.0</ele><time>2026-04-27T10:20:07.002Z</time></trkpt><trkpt lat="45.96608540616343" lon="12.916797392652159"><ele>45.0</ele><time>2026-04-27T10:20:08.002Z</time></trkpt><trkpt lat="45.9660247731001" lon="12.916583105016267"><ele>45.0</ele><time>2026-04-27T10:20:09.002Z</time></trkpt><trkpt lat="45.965963115321436" lon="12.91637250123744"><ele>45.0</ele><time>2026-04-27T10:20:10.002Z</time></trkpt><trkpt lat="45.965900210580514" lon="12.916168771731364"><ele>44.75</ele><time>2026-04-27T10:20:11.002Z</time></trkpt><trkpt lat="45.96584083906289" lon="12.915968554099898"><ele>44.5</ele><time>2026-04-27T10:20:12.002Z</time></trkpt><trkpt lat="45.96578673251371" lon="12.915769905791358"><ele>44.25</ele><time>2026-04-27T10:20:13.002Z</time></trkpt><trkpt lat="45.96572675968305" lon="12.915580438065467"><ele>44.0</ele><time>2026-04-27T10:20:14.002Z</time></trkpt><trkpt lat="45.96568168384834" lon="12.915378553116584"><ele>44.25</ele><time>2026-04-27T10:20:15.002Z</time></trkpt><trkpt lat="45.96560341907709" lon="12.915195239651904"><ele>44.5</ele><time>2026-04-27T10:20:16.002Z</time></trkpt><trkpt lat="45.96553836607833" lon="12.915004589886486"><ele>44.75</ele><time>2026-04-27T10:20:17.002Z</time></trkpt><trkpt lat="45.96547333164224" lon="12.914820357549198"><ele>45.0</ele><time>2026-04-27T10:20:18.002Z</time></trkpt><trkpt lat="45.96540451459062" lon="12.914637458770272"><ele>45.0</ele><time>2026-04-27T10:20:19.002Z</time></trkpt><trkpt lat="45.965334620790415" lon="12.914453439608518"><ele>45.0</ele><time>2026-04-27T10:20:20.002Z</time></trkpt><trkpt lat="45.96527100951265" lon="12.91428028558093"><ele>45.0</ele><time>2026-04-27T10:20:21.002Z</time></trkpt><trkpt lat="45.96520700575662" lon="12.914108465084848"><ele>45.0</ele><time>2026-04-27T10:20:22.002Z</time></trkpt><trkpt lat="45.96513967599332" lon="12.913930217505387"><ele>45.0</ele><time>2026-04-27T10:20:23.002Z</time></trkpt><trkpt lat="45.96507662408027" lon="12.913744950030873"><ele>45.0</ele><time>2026-04-27T10:20:24.002Z</time></trkpt><trkpt lat="45.9650188517276" lon="12.913549948497197"><ele>45.0</ele><time>2026-04-27T10:20:25.002Z</time></trkpt><trkpt lat="45.96496155528394" lon="12.91335045135023"><ele>45.0</ele><time>2026-04-27T10:20:26.002Z</time></trkpt><trkpt lat="45.96490489028967" lon="12.91314175822728"><ele>45.0</ele><time>2026-04-27T10:20:27.002Z</time></trkpt><trkpt lat="45.9648495784684" lon="12.912925915717521"><ele>45.0</ele><time>2026-04-27T10:20:28.002Z</time></trkpt><trkpt lat="45.964798475215474" lon="12.912703346633016"><ele>45.0</ele><time>2026-04-27T10:20:29.002Z</time></trkpt><trkpt lat="45.96475330168011" lon="12.912473353541094"><ele>45.333333333333336</ele><time>2026-04-27T10:20:30.002Z</time></trkpt><trkpt lat="45.96471549157462" lon="12.912233912715726"><ele>45.66666666666667</ele><time>2026-04-27T10:20:31.002Z</time></trkpt><trkpt lat="45.96468429583188" lon="12.9119916622851"><ele>46.0</ele><time>2026-04-27T10:20:32.002Z</time></trkpt><trkpt lat="45.96466024124139" lon="12.911755326830857"><ele>46.66666666666667</ele><time>2026-04-27T10:20:33.002Z</time></trkpt><trkpt lat="45.96463823504315" lon="12.911510216935838"><ele>47.333333333333336</ele><time>2026-04-27T10:20:34.002Z</time></trkpt><trkpt lat="45.96462098505218" lon="12.911266237988485"><ele>48.0</ele><time>2026-04-27T10:20:35.002Z</time></trkpt><trkpt lat="45.96463173478903" lon="12.911030623550802"><ele>48.0</ele><time>2026-04-27T10:20:36.002Z</time></trkpt><trkpt lat="45.96461594716266" lon="12.910789510147252"><ele>48.0</ele><time>2026-04-27T10:20:37.002Z</time></trkpt><trkpt lat="45.96462088931788" lon="12.910539445123302"><ele>48.0</ele><time>2026-04-27T10:20:38.002Z</time></trkpt><trkpt lat="45.9646297643444" lon="12.910285106883519"><ele>47.666666666666664</ele><time>2026-04-27T10:20:39.002Z</time></trkpt><trkpt lat="45.964639913057596" lon="12.910047045699963"><ele>47.33333333333333</ele><time>2026-04-27T10:20:40.002Z</time></trkpt><trkpt lat="45.964665708093385" lon="12.909812753192291"><ele>47.0</ele><time>2026-04-27T10:20:41.002Z</time></trkpt><trkpt lat="45.96467636972436" lon="12.909568195507877"><ele>47.0</ele><time>2026-04-27T10:20:42.002Z</time></trkpt><trkpt lat="45.96467235583335" lon="12.909335612083193"><ele>47.0</ele><time>2026-04-27T10:20:43Z</time></trkpt><trkpt lat="45.964686751491044" lon="12.909120154331422"><ele>47.0</ele><time>2026-04-27T10:20:44Z</time></trkpt><trkpt lat="45.96469357563915" lon="12.908914009731557"><ele>46.0</ele><time>2026-04-27T10:20:45Z</time></trkpt><trkpt lat="45.96469872905902" lon="12.90869782867884"><ele>45.0</ele><time>2026-04-27T10:20:46Z</time></trkpt><trkpt lat="45.96470799914388" lon="12.908460313472773"><ele>44.0</ele><time>2026-04-27T10:20:47Z</time></trkpt><trkpt lat="45.96472213104113" lon="12.908215872139436"><ele>44.0</ele><time>2026-04-27T10:20:48Z</time></trkpt><trkpt lat="45.96473402506532" lon="12.907986697581082"><ele>44.0</ele><time>2026-04-27T10:20:49Z</time></trkpt><trkpt lat="45.96474294808081" lon="12.907747609840868"><ele>44.0</ele><time>2026-04-27T10:20:50Z</time></trkpt><trkpt lat="45.96475340567576" lon="12.907511731903222"><ele>43.666666666666664</ele><time>2026-04-27T10:20:51Z</time></trkpt><trkpt lat="45.96476132655644" lon="12.907277961272785"><ele>43.333333333333336</ele><time>2026-04-27T10:20:52Z</time></trkpt><trkpt lat="45.96477073553492" lon="12.907039036682454"><ele>43.0</ele><time>2026-04-27T10:20:53Z</time></trkpt><trkpt lat="45.964781067898514" lon="12.906789286561262"><ele>42.66666666666667</ele><time>2026-04-27T10:20:54Z</time></trkpt><trkpt lat="45.96480838113266" lon="12.906514425274429"><ele>42.333333333333336</ele><time>2026-04-27T10:20:55Z</time></trkpt><trkpt lat="45.96482092443121" lon="12.906225217510316"><ele>42.0</ele><time>2026-04-27T10:20:56Z</time></trkpt><trkpt lat="45.964833648237345" lon="12.905931847993298"><ele>43.333333333333336</ele><time>2026-04-27T10:20:57Z</time></trkpt><trkpt lat="45.96484583744745" lon="12.905650804444992"><ele>44.66666666666667</ele><time>2026-04-27T10:20:58Z</time></trkpt><trkpt lat="45.9648573223008" lon="12.905388522205927"><ele>46.0</ele><time>2026-04-27T10:20:59Z</time></trkpt><trkpt lat="45.964868395094335" lon="12.905136154831702"><ele>46.333333333333336</ele><time>2026-04-27T10:21:00Z</time></trkpt><trkpt lat="45.9648791726168" lon="12.904890517106434"><ele>46.666666666666664</ele><time>2026-04-27T10:21:01Z</time></trkpt><trkpt lat="45.96488925832975" lon="12.904654988880578"><ele>47.0</ele><time>2026-04-27T10:21:02Z</time></trkpt><trkpt lat="45.96489951259529" lon="12.904413882624368"><ele>46.33333333333333</ele><time>2026-04-27T10:21:03Z</time></trkpt><trkpt lat="45.96491034587196" lon="12.904159162092007"><ele>45.666666666666664</ele><time>2026-04-27T10:21:04Z</time></trkpt><trkpt lat="45.964921542745984" lon="12.903895892582813"><ele>45.0</ele><time>2026-04-27T10:21:05Z</time></trkpt><trkpt lat="45.96493200862627" lon="12.903649810674615"><ele>44.666666666666664</ele><time>2026-04-27T10:21:06Z</time></trkpt><trkpt lat="45.96494259788059" lon="12.90340428955571"><ele>44.33333333333333</ele><time>2026-04-27T10:21:07Z</time></trkpt><trkpt lat="45.96495382395565" lon="12.903155960584801"><ele>44.0</ele><time>2026-04-27T10:21:08Z</time></trkpt><trkpt lat="45.96496563355256" lon="12.902894723697914"><ele>44.0</ele><time>2026-04-27T10:21:09Z</time></trkpt><trkpt lat="45.96497778561021" lon="12.902625911262133"><ele>44.0</ele><time>2026-04-27T10:21:10Z</time></trkpt><trkpt lat="45.96498986480706" lon="12.902355395752114"><ele>44.0</ele><time>2026-04-27T10:21:11Z</time></trkpt><trkpt lat="45.96498732233787" lon="12.902082586842218"><ele>43.666666666666664</ele><time>2026-04-27T10:21:12Z</time></trkpt><trkpt lat="45.96499882797933" lon="12.901807990725247"><ele>43.333333333333336</ele><time>2026-04-27T10:21:13Z</time></trkpt><trkpt lat="45.965011393561454" lon="12.901530607287606"><ele>43.0</ele><time>2026-04-27T10:21:14Z</time></trkpt><trkpt lat="45.96502516402735" lon="12.90124992138445"><ele>42.66666666666667</ele><time>2026-04-27T10:21:15Z</time></trkpt><trkpt lat="45.965036441837405" lon="12.900969793359241"><ele>42.333333333333336</ele><time>2026-04-27T10:21:16Z</time></trkpt><trkpt lat="45.96504786133022" lon="12.900690413794273"><ele>42.0</ele><time>2026-04-27T10:21:17Z</time></trkpt><trkpt lat="45.96506152486956" lon="12.900416357642603"><ele>42.666666666666664</ele><time>2026-04-27T10:21:18Z</time></trkpt><trkpt lat="45.96507241566104" lon="12.900157617241707"><ele>43.33333333333333</ele><time>2026-04-27T10:21:19Z</time></trkpt><trkpt lat="45.965083202245594" lon="12.899910986409353"><ele>44.0</ele><time>2026-04-27T10:21:20Z</time></trkpt><trkpt lat="45.965090716272016" lon="12.89965917293277"><ele>44.0</ele><time>2026-04-27T10:21:21.001Z</time></trkpt><trkpt lat="45.96510278770586" lon="12.899402375039738"><ele>44.0</ele><time>2026-04-27T10:21:22.001Z</time></trkpt><trkpt lat="45.96511572133007" lon="12.899139829411991"><ele>44.0</ele><time>2026-04-27T10:21:23.001Z</time></trkpt><trkpt lat="45.965130576486395" lon="12.898874806041226"><ele>44.33333333333333</ele><time>2026-04-27T10:21:24.001Z</time></trkpt><trkpt lat="45.965144755431474" lon="12.898599176157585"><ele>44.666666666666664</ele><time>2026-04-27T10:21:25.001Z</time></trkpt><trkpt lat="45.965158376343766" lon="12.898323779723748"><ele>45.0</ele><time>2026-04-27T10:21:26.001Z</time></trkpt><trkpt lat="45.96516984108031" lon="12.898065758860826"><ele>45.666666666666664</ele><time>2026-04-27T10:21:27.001Z</time></trkpt><trkpt lat="45.96517753695501" lon="12.897812754818913"><ele>46.33333333333333</ele><time>2026-04-27T10:21:28.001Z</time></trkpt><trkpt lat="45.965185543159606" lon="12.897560441601996"><ele>47.0</ele><time>2026-04-27T10:21:29.001Z</time></trkpt><trkpt lat="45.96519440229808" lon="12.897309090849287"><ele>47.0</ele><time>2026-04-27T10:21:30.001Z</time></trkpt><trkpt lat="45.965203324632384" lon="12.897072497676678"><ele>47.0</ele><time>2026-04-27T10:21:31.001Z</time></trkpt><trkpt lat="45.965212021421145" lon="12.896847055823208"><ele>47.0</ele><time>2026-04-27T10:21:32.001Z</time></trkpt><trkpt lat="45.965221575412926" lon="12.896620226445743"><ele>46.666666666666664</ele><time>2026-04-27T10:21:33.001Z</time></trkpt><trkpt lat="45.9652305745569" lon="12.896388568245007"><ele>46.333333333333336</ele><time>2026-04-27T10:21:34.001Z</time></trkpt><trkpt lat="45.96523259285629" lon="12.896150989199796"><ele>46.0</ele><time>2026-04-27T10:21:35.001Z</time></trkpt><trkpt lat="45.965233303520776" lon="12.895910316344166"><ele>45.333333333333336</ele><time>2026-04-27T10:21:36.001Z</time></trkpt><trkpt lat="45.96522945228996" lon="12.895665770180674"><ele>44.666666666666664</ele><time>2026-04-27T10:21:37.001Z</time></trkpt><trkpt lat="45.9652223156215" lon="12.895427538917652"><ele>44.0</ele><time>2026-04-27T10:21:38.001Z</time></trkpt><trkpt lat="45.96520819289219" lon="12.89519995794106"><ele>44.25</ele><time>2026-04-27T10:21:39.001Z</time></trkpt><trkpt lat="45.965188482377535" lon="12.894979323480602"><ele>44.5</ele><time>2026-04-27T10:21:40.001Z</time></trkpt><trkpt lat="45.965185170826516" lon="12.894762659133495"><ele>44.75</ele><time>2026-04-27T10:21:41.001Z</time></trkpt><trkpt lat="45.96516658698937" lon="12.89455848981344"><ele>45.0</ele><time>2026-04-27T10:21:42.001Z</time></trkpt><trkpt lat="45.96514516924159" lon="12.89434687194243"><ele>45.666666666666664</ele><time>2026-04-27T10:21:43.001Z</time></trkpt><trkpt lat="45.96510468860078" lon="12.894126081018102"><ele>46.33333333333333</ele><time>2026-04-27T10:21:44.001Z</time></trkpt><trkpt lat="45.96507524534866" lon="12.893893709044889"><ele>47.0</ele><time>2026-04-27T10:21:45.001Z</time></trkpt><trkpt lat="45.96503558597158" lon="12.89365052887687"><ele>47.33333333333333</ele><time>2026-04-27T10:21:46.001Z</time></trkpt><trkpt lat="45.96498568924221" lon="12.893407972318952"><ele>47.666666666666664</ele><time>2026-04-27T10:21:47.001Z</time></trkpt><trkpt lat="45.96495410067746" lon="12.89317255250129"><ele>48.0</ele><time>2026-04-27T10:21:48.001Z</time></trkpt><trkpt lat="45.964906547858305" lon="12.89295144480476"><ele>48.0</ele><time>2026-04-27T10:21:49.001Z</time></trkpt><trkpt lat="45.96484569793204" lon="12.892749587497324"><ele>48.0</ele><time>2026-04-27T10:21:50.001Z</time></trkpt><trkpt lat="45.96480174309403" lon="12.892550111101098"><ele>48.0</ele><time>2026-04-27T10:21:51.001Z</time></trkpt><trkpt lat="45.96474414437218" lon="12.892348427904796"><ele>47.333333333333336</ele><time>2026-04-27T10:21:52.001Z</time></trkpt><trkpt lat="45.964691162595166" lon="12.892126908651019"><ele>46.66666666666667</ele><time>2026-04-27T10:21:53.001Z</time></trkpt><trkpt lat="45.96462187143017" lon="12.891903771926602"><ele>46.0</ele><time>2026-04-27T10:21:54.001Z</time></trkpt><trkpt lat="45.96453916275501" lon="12.89168888283279"><ele>46.0</ele><time>2026-04-27T10:21:55.001Z</time></trkpt><trkpt lat="45.96447263853173" lon="12.891458005457215"><ele>46.0</ele><time>2026-04-27T10:21:56.001Z</time></trkpt><trkpt lat="45.964398154277355" lon="12.891231499486532"><ele>46.0</ele><time>2026-04-27T10:21:57.001Z</time></trkpt><trkpt lat="45.96432586775933" lon="12.891012999369694"><ele>45.66666666666667</ele><time>2026-04-27T10:21:58.001Z</time></trkpt><trkpt lat="45.9642748147198" lon="12.890785100494544"><ele>45.333333333333336</ele><time>2026-04-27T10:21:59.001Z</time></trkpt><trkpt lat="45.96421348499278" lon="12.89056973009291"><ele>45.0</ele><time>2026-04-27T10:22:00.001Z</time></trkpt><trkpt lat="45.964159982317895" lon="12.890365069488736"><ele>45.0</ele><time>2026-04-27T10:22:01.001Z</time></trkpt><trkpt lat="45.96411312942513" lon="12.89015881279296"><ele>45.0</ele><time>2026-04-27T10:22:02.001Z</time></trkpt><trkpt lat="45.9640696984228" lon="12.889950583202173"><ele>45.0</ele><time>2026-04-27T10:22:03.001Z</time></trkpt><trkpt lat="45.96402673102698" lon="12.889740900026002"><ele>45.0</ele><time>2026-04-27T10:22:04.001Z</time></trkpt><trkpt lat="45.96398386325249" lon="12.889527424174688"><ele>45.0</ele><time>2026-04-27T10:22:05.001Z</time></trkpt><trkpt lat="45.96393836426731" lon="12.889300845317438"><ele>45.0</ele><time>2026-04-27T10:22:06.001Z</time></trkpt><trkpt lat="45.96388662543002" lon="12.889043192680056"><ele>45.0</ele><time>2026-04-27T10:22:07.001Z</time></trkpt><trkpt lat="45.96382842971426" lon="12.888753385732286"><ele>45.0</ele><time>2026-04-27T10:22:08.001Z</time></trkpt><trkpt lat="45.96376077100844" lon="12.888416454242646"><ele>45.0</ele><time>2026-04-27T10:22:09.001Z</time></trkpt><trkpt lat="45.96369328624228" lon="12.888077352134728"><ele>45.0</ele><time>2026-04-27T10:22:10.001Z</time></trkpt><trkpt lat="45.963625068912" lon="12.88773316587696"><ele>45.0</ele><time>2026-04-27T10:22:11.001Z</time></trkpt><trkpt lat="45.96355626495582" lon="12.88738601981124"><ele>45.0</ele><time>2026-04-27T10:22:12.001Z</time></trkpt><trkpt lat="45.96347465737622" lon="12.887053287353618"><ele>45.0</ele><time>2026-04-27T10:22:13.001Z</time></trkpt><trkpt lat="45.963418536810494" lon="12.88672684228293"><ele>45.0</ele><time>2026-04-27T10:22:14.001Z</time></trkpt><trkpt lat="45.963359726667285" lon="12.886426389667616"><ele>45.0</ele><time>2026-04-27T10:22:15.002Z</time></trkpt><trkpt lat="45.96330237873814" lon="12.886140632105699"><ele>45.0</ele><time>2026-04-27T10:22:16.002Z</time></trkpt><trkpt lat="45.96324661877234" lon="12.885865894099622"><ele>45.0</ele><time>2026-04-27T10:22:17.002Z</time></trkpt><trkpt lat="45.96319127276952" lon="12.885598623089088"><ele>45.0</ele><time>2026-04-27T10:22:18.002Z</time></trkpt><trkpt lat="45.96313898806545" lon="12.885322267244517"><ele>45.0</ele><time>2026-04-27T10:22:19.002Z</time></trkpt><trkpt lat="45.96309816446373" lon="12.885032837516112"><ele>45.0</ele><time>2026-04-27T10:22:20.002Z</time></trkpt><trkpt lat="45.96305306925074" lon="12.884717927328577"><ele>45.0</ele><time>2026-04-27T10:22:21.002Z</time></trkpt><trkpt lat="45.963018355683666" lon="12.884389038379966"><ele>45.0</ele><time>2026-04-27T10:22:22.002Z</time></trkpt><trkpt lat="45.96299000217746" lon="12.884067540712348"><ele>45.0</ele><time>2026-04-27T10:22:23.002Z</time></trkpt><trkpt lat="45.96297219962602" lon="12.88376854646207"><ele>45.0</ele><time>2026-04-27T10:22:24.002Z</time></trkpt><trkpt lat="45.962955317400116" lon="12.883483129613918"><ele>45.0</ele><time>2026-04-27T10:22:25.002Z</time></trkpt><trkpt lat="45.9629302181676" lon="12.883202708296064"><ele>45.0</ele><time>2026-04-27T10:22:26.002Z</time></trkpt><trkpt lat="45.962897521765086" lon="12.882930234998664"><ele>45.0</ele><time>2026-04-27T10:22:27.002Z</time></trkpt><trkpt lat="45.96285771063134" lon="12.882672926421739"><ele>45.0</ele><time>2026-04-27T10:22:28.002Z</time></trkpt><trkpt lat="45.962816655832434" lon="12.88242998054536"><ele>44.666666666666664</ele><time>2026-04-27T10:22:29.002Z</time></trkpt><trkpt lat="45.962771343138726" lon="12.882192356916468"><ele>44.33333333333333</ele><time>2026-04-27T10:22:30.002Z</time></trkpt><trkpt lat="45.96272604330409" lon="12.881956340415897"><ele>44.0</ele><time>2026-04-27T10:22:31.002Z</time></trkpt><trkpt lat="45.96268213825287" lon="12.881718732515246"><ele>43.666666666666664</ele><time>2026-04-27T10:22:32.002Z</time></trkpt><trkpt lat="45.96263459951775" lon="12.88147200651649"><ele>43.333333333333336</ele><time>2026-04-27T10:22:33.002Z</time></trkpt><trkpt lat="45.96257755954149" lon="12.881210224969761"><ele>43.0</ele><time>2026-04-27T10:22:34.002Z</time></trkpt><trkpt lat="45.96251574469176" lon="12.880921984116666"><ele>43.0</ele><time>2026-04-27T10:22:35.002Z</time></trkpt><trkpt lat="45.962457933477765" lon="12.880632409507362"><ele>43.0</ele><time>2026-04-27T10:22:36.002Z</time></trkpt><trkpt lat="45.96240378851123" lon="12.8803565551461"><ele>43.0</ele><time>2026-04-27T10:22:37.002Z</time></trkpt><trkpt lat="45.96235320941514" lon="12.880088544242582"><ele>43.0</ele><time>2026-04-27T10:22:38.002Z</time></trkpt><trkpt lat="45.962298413725414" lon="12.879815877157855"><ele>43.0</ele><time>2026-04-27T10:22:39.002Z</time></trkpt><trkpt lat="45.962240262287246" lon="12.879536430462085"><ele>43.0</ele><time>2026-04-27T10:22:40.002Z</time></trkpt><trkpt lat="45.96217662448921" lon="12.879245291838252"><ele>43.0</ele><time>2026-04-27T10:22:41.002Z</time></trkpt><trkpt lat="45.96210630831418" lon="12.878936673697417"><ele>43.0</ele><time>2026-04-27T10:22:42.002Z</time></trkpt><trkpt lat="45.962068551714786" lon="12.878619637527287"><ele>43.0</ele><time>2026-04-27T10:22:43.002Z</time></trkpt><trkpt lat="45.96200952748713" lon="12.878321258070358"><ele>43.333333333333336</ele><time>2026-04-27T10:22:44.002Z</time></trkpt><trkpt lat="45.96195055807597" lon="12.878023393358946"><ele>43.666666666666664</ele><time>2026-04-27T10:22:45.002Z</time></trkpt><trkpt lat="45.9618807234082" lon="12.877738934617188"><ele>44.0</ele><time>2026-04-27T10:22:46.002Z</time></trkpt><trkpt lat="45.9618272558864" lon="12.877461129910847"><ele>44.0</ele><time>2026-04-27T10:22:47.002Z</time></trkpt><trkpt lat="45.96177723442325" lon="12.877195377604666"><ele>44.0</ele><time>2026-04-27T10:22:48.002Z</time></trkpt><trkpt lat="45.961725313948826" lon="12.876930958048986"><ele>44.0</ele><time>2026-04-27T10:22:49Z</time></trkpt><trkpt lat="45.96166701014612" lon="12.876652318599204"><ele>44.0</ele><time>2026-04-27T10:22:50Z</time></trkpt><trkpt lat="45.9616089884345" lon="12.876373528278114"><ele>44.0</ele><time>2026-04-27T10:22:51Z</time></trkpt><trkpt lat="45.96155731460613" lon="12.876103506627784"><ele>44.0</ele><time>2026-04-27T10:22:52Z</time></trkpt><trkpt lat="45.96150449505863" lon="12.875841287796657"><ele>44.0</ele><time>2026-04-27T10:22:53Z</time></trkpt><trkpt lat="45.96145354950898" lon="12.875588282997118"><ele>44.0</ele><time>2026-04-27T10:22:54Z</time></trkpt><trkpt lat="45.96140301539815" lon="12.87533738789326"><ele>44.0</ele><time>2026-04-27T10:22:55Z</time></trkpt><trkpt lat="45.96135229696861" lon="12.875076116608623"><ele>44.0</ele><time>2026-04-27T10:22:56Z</time></trkpt><trkpt lat="45.961306301480946" lon="12.874823743072728"><ele>44.0</ele><time>2026-04-27T10:22:57Z</time></trkpt><trkpt lat="45.96126158631726" lon="12.874586939047868"><ele>44.0</ele><time>2026-04-27T10:22:58Z</time></trkpt><trkpt lat="45.96122078384655" lon="12.87436287142908"><ele>44.0</ele><time>2026-04-27T10:22:59Z</time></trkpt><trkpt lat="45.96118117222154" lon="12.874147706007887"><ele>44.0</ele><time>2026-04-27T10:23:00Z</time></trkpt><trkpt lat="45.961137875133865" lon="12.87393807402688"><ele>44.0</ele><time>2026-04-27T10:23:01Z</time></trkpt><trkpt lat="45.96109475273574" lon="12.87372357086598"><ele>44.0</ele><time>2026-04-27T10:23:02Z</time></trkpt><trkpt lat="45.96105267759449" lon="12.873505753589393"><ele>44.0</ele><time>2026-04-27T10:23:03Z</time></trkpt><trkpt lat="45.96100697060228" lon="12.873293153336972"><ele>44.0</ele><time>2026-04-27T10:23:04Z</time></trkpt><trkpt lat="45.96096275712037" lon="12.873075840564608"><ele>44.0</ele><time>2026-04-27T10:23:05Z</time></trkpt><trkpt lat="45.96091916108074" lon="12.872861531062938"><ele>44.0</ele><time>2026-04-27T10:23:06Z</time></trkpt><trkpt lat="45.96087764353823" lon="12.872644207415176"><ele>44.0</ele><time>2026-04-27T10:23:07Z</time></trkpt><trkpt lat="45.960833253842644" lon="12.872441851367237"><ele>44.0</ele><time>2026-04-27T10:23:08Z</time></trkpt><trkpt lat="45.96079218879136" lon="12.872249551543424"><ele>44.0</ele><time>2026-04-27T10:23:09Z</time></trkpt><trkpt lat="45.96075353907442" lon="12.872068137426377"><ele>44.0</ele><time>2026-04-27T10:23:10Z</time></trkpt><trkpt lat="45.96071639713241" lon="12.871886459223743"><ele>44.0</ele><time>2026-04-27T10:23:11Z</time></trkpt><trkpt lat="45.96068047453849" lon="12.8717027279246"><ele>44.0</ele><time>2026-04-27T10:23:12Z</time></trkpt><trkpt lat="45.96064758656366" lon="12.871532138010384"><ele>44.0</ele><time>2026-04-27T10:23:13Z</time></trkpt><trkpt lat="45.960613507882314" lon="12.871376354393659"><ele>44.0</ele><time>2026-04-27T10:23:14Z</time></trkpt><trkpt lat="45.96058502353123" lon="12.871240382208121"><ele>44.0</ele><time>2026-04-27T10:23:15Z</time></trkpt><trkpt lat="45.960562241262814" lon="12.871112359398543"><ele>44.0</ele><time>2026-04-27T10:23:16Z</time></trkpt><trkpt lat="45.96054070740977" lon="12.870995811994067"><ele>44.0</ele><time>2026-04-27T10:23:17Z</time></trkpt><trkpt lat="45.96052023304913" lon="12.870888018393677"><ele>44.0</ele><time>2026-04-27T10:23:18Z</time></trkpt><trkpt lat="45.960505406065764" lon="12.87079538619577"><ele>44.0</ele><time>2026-04-27T10:23:19Z</time></trkpt><trkpt lat="45.960488759384766" lon="12.870633573503122"><ele>44.0</ele><time>2026-04-27T10:23:21Z</time></trkpt><trkpt lat="45.96050671017448" lon="12.870465692492592"><ele>44.0</ele><time>2026-04-27T10:23:23Z</time></trkpt><trkpt lat="45.96054465643139" lon="12.870312665488802"><ele>44.0</ele><time>2026-04-27T10:23:25Z</time></trkpt><trkpt lat="45.96054719163044" lon="12.870143864499372"><ele>44.0</ele><time>2026-04-27T10:23:27Z</time></trkpt><trkpt lat="45.96051567422719" lon="12.870064909244267"><ele>44.0</ele><time>2026-04-27T10:23:28Z</time></trkpt><trkpt lat="45.960477085407405" lon="12.869992755437403"><ele>44.0</ele><time>2026-04-27T10:23:29Z</time></trkpt><trkpt lat="45.96038340397891" lon="12.869876324489763"><ele>44.0</ele><time>2026-04-27T10:23:31Z</time></trkpt><trkpt lat="45.96033530152941" lon="12.869815284002893"><ele>44.0</ele><time>2026-04-27T10:23:32Z</time></trkpt><trkpt lat="45.96029224492606" lon="12.869725249161792"><ele>44.0</ele><time>2026-04-27T10:23:33Z</time></trkpt><trkpt lat="45.96026227296388" lon="12.869629965307068"><ele>44.0</ele><time>2026-04-27T10:23:34Z</time></trkpt><trkpt lat="45.96023602334521" lon="12.869511693370399"><ele>44.0</ele><time>2026-04-27T10:23:35Z</time></trkpt><trkpt lat="45.96019973422923" lon="12.869361022392582"><ele>44.0</ele><time>2026-04-27T10:23:36Z</time></trkpt><trkpt lat="45.96014524910282" lon="12.86913067437873"><ele>44.0</ele><time>2026-04-27T10:23:37Z</time></trkpt><trkpt lat="45.96009444349939" lon="12.868849756371082"><ele>44.0</ele><time>2026-04-27T10:23:38Z</time></trkpt><trkpt lat="45.9600383775493" lon="12.868513680258292"><ele>44.0</ele><time>2026-04-27T10:23:39Z</time></trkpt><trkpt lat="45.95998007766893" lon="12.868173439093882"><ele>44.0</ele><time>2026-04-27T10:23:40.001Z</time></trkpt><trkpt lat="45.959922041021024" lon="12.86787674292405"><ele>44.0</ele><time>2026-04-27T10:23:41.001Z</time></trkpt><trkpt lat="45.95986923472729" lon="12.867593441456258"><ele>44.0</ele><time>2026-04-27T10:23:42.001Z</time></trkpt><trkpt lat="45.959817275555636" lon="12.867322952048005"><ele>43.0</ele><time>2026-04-27T10:23:43.001Z</time></trkpt><trkpt lat="45.95976785385912" lon="12.867071815825767"><ele>42.0</ele><time>2026-04-27T10:23:44.001Z</time></trkpt><trkpt lat="45.95972126382398" lon="12.86684452248915"><ele>41.0</ele><time>2026-04-27T10:23:45.001Z</time></trkpt><trkpt lat="45.95968553614222" lon="12.866643224127552"><ele>41.0</ele><time>2026-04-27T10:23:46.001Z</time></trkpt><trkpt lat="45.959663314466056" lon="12.866449877087618"><ele>41.0</ele><time>2026-04-27T10:23:47.001Z</time></trkpt><trkpt lat="45.95964938884536" lon="12.866263446961621"><ele>41.0</ele><time>2026-04-27T10:23:48.001Z</time></trkpt><trkpt lat="45.959642727138544" lon="12.866087103694012"><ele>41.0</ele><time>2026-04-27T10:23:49.001Z</time></trkpt><trkpt lat="45.9596421472836" lon="12.865924823100038"><ele>41.0</ele><time>2026-04-27T10:23:50.001Z</time></trkpt><trkpt lat="45.9596508807167" lon="12.865773291288468"><ele>41.0</ele><time>2026-04-27T10:23:51.001Z</time></trkpt><trkpt lat="45.95966851474745" lon="12.865631776585634"><ele>41.0</ele><time>2026-04-27T10:23:52.001Z</time></trkpt><trkpt lat="45.95966491691919" lon="12.865501062403215"><ele>41.0</ele><time>2026-04-27T10:23:53.001Z</time></trkpt><trkpt lat="45.95961995894293" lon="12.865376932580096"><ele>41.0</ele><time>2026-04-27T10:23:54.001Z</time></trkpt><trkpt lat="45.95953479607614" lon="12.865240546521061"><ele>41.666666666666664</ele><time>2026-04-27T10:23:55.001Z</time></trkpt><trkpt lat="45.95943193374654" lon="12.865066313070997"><ele>42.333333333333336</ele><time>2026-04-27T10:23:56.001Z</time></trkpt><trkpt lat="45.95934493984745" lon="12.864844374668825"><ele>43.0</ele><time>2026-04-27T10:23:57.001Z</time></trkpt><trkpt lat="45.95929652287468" lon="12.86459608527448"><ele>43.0</ele><time>2026-04-27T10:23:58.001Z</time></trkpt><trkpt lat="45.959248335482094" lon="12.864377395762473"><ele>43.0</ele><time>2026-04-27T10:23:59.001Z</time></trkpt><trkpt lat="45.95920013186723" lon="12.864156032139222"><ele>43.0</ele><time>2026-04-27T10:24:00.001Z</time></trkpt><trkpt lat="45.95915219559779" lon="12.863926708775718"><ele>43.0</ele><time>2026-04-27T10:24:01.001Z</time></trkpt><trkpt lat="45.95910141624123" lon="12.863677720775188"><ele>43.0</ele><time>2026-04-27T10:24:02.001Z</time></trkpt><trkpt lat="45.95904531239883" lon="12.863394614284209"><ele>43.0</ele><time>2026-04-27T10:24:03.001Z</time></trkpt><trkpt lat="45.958981506842136" lon="12.863069164625736"><ele>42.0</ele><time>2026-04-27T10:24:04.001Z</time></trkpt><trkpt lat="45.95890811684698" lon="12.862694250710234"><ele>41.0</ele><time>2026-04-27T10:24:05.001Z</time></trkpt><trkpt lat="45.958833198695906" lon="12.862311530039724"><ele>41.0</ele><time>2026-04-27T10:24:06.001Z</time></trkpt><trkpt lat="45.9587469023296" lon="12.861939480829696"><ele>41.0</ele><time>2026-04-27T10:24:07.001Z</time></trkpt><trkpt lat="45.95868444489506" lon="12.861587000975724"><ele>40.5</ele><time>2026-04-27T10:24:08.001Z</time></trkpt><trkpt lat="45.95862320883927" lon="12.861261801079609"><ele>40.0</ele><time>2026-04-27T10:24:09.001Z</time></trkpt><trkpt lat="45.95856523850094" lon="12.860961124164405"><ele>40.333333333333336</ele><time>2026-04-27T10:24:10.001Z</time></trkpt><trkpt lat="45.958509250378384" lon="12.860676246423235"><ele>40.666666666666664</ele><time>2026-04-27T10:24:11.001Z</time></trkpt><trkpt lat="45.95845740680428" lon="12.860394927989043"><ele>41.0</ele><time>2026-04-27T10:24:12.001Z</time></trkpt><trkpt lat="45.958402739307466" lon="12.86011751089403"><ele>41.33333333333333</ele><time>2026-04-27T10:24:13.001Z</time></trkpt><trkpt lat="45.95834848958595" lon="12.859845547267854"><ele>41.666666666666664</ele><time>2026-04-27T10:24:14.001Z</time></trkpt><trkpt lat="45.95829474042335" lon="12.859587285292022"><ele>42.0</ele><time>2026-04-27T10:24:15.001Z</time></trkpt><trkpt lat="45.95824211520608" lon="12.85933816395665"><ele>41.666666666666664</ele><time>2026-04-27T10:24:16.001Z</time></trkpt><trkpt lat="45.958192509089244" lon="12.859090224786105"><ele>41.33333333333333</ele><time>2026-04-27T10:24:17.001Z</time></trkpt><trkpt lat="45.95814224328417" lon="12.858859152500402"><ele>41.0</ele><time>2026-04-27T10:24:18.001Z</time></trkpt><trkpt lat="45.95809748017044" lon="12.858626162332802"><ele>40.666666666666664</ele><time>2026-04-27T10:24:19.001Z</time></trkpt><trkpt lat="45.95804961580618" lon="12.858382819880942"><ele>40.333333333333336</ele><time>2026-04-27T10:24:20.001Z</time></trkpt><trkpt lat="45.958003180671646" lon="12.85813565891978"><ele>40.0</ele><time>2026-04-27T10:24:21.001Z</time></trkpt><trkpt lat="45.95795603612205" lon="12.857885556171947"><ele>40.0</ele><time>2026-04-27T10:24:22.001Z</time></trkpt><trkpt lat="45.957904942930455" lon="12.857633745229952"><ele>40.0</ele><time>2026-04-27T10:24:23.001Z</time></trkpt><trkpt lat="45.95785164608773" lon="12.857379036419946"><ele>40.0</ele><time>2026-04-27T10:24:24.001Z</time></trkpt><trkpt lat="45.95779887390807" lon="12.8571190829437"><ele>40.0</ele><time>2026-04-27T10:24:25.001Z</time></trkpt><trkpt lat="45.95774363868578" lon="12.856851791473186"><ele>40.0</ele><time>2026-04-27T10:24:26.001Z</time></trkpt><trkpt lat="45.95769102478169" lon="12.85658405199465"><ele>40.0</ele><time>2026-04-27T10:24:27.001Z</time></trkpt><trkpt lat="45.957639999744636" lon="12.856312834047804"><ele>40.333333333333336</ele><time>2026-04-27T10:24:28.001Z</time></trkpt><trkpt lat="45.957587006697295" lon="12.856036499528983"><ele>40.666666666666664</ele><time>2026-04-27T10:24:29.002Z</time></trkpt><trkpt lat="45.95753125881623" lon="12.855762445952312"><ele>41.0</ele><time>2026-04-27T10:24:30.002Z</time></trkpt><trkpt lat="45.95747176268549" lon="12.855484241317072"><ele>41.0</ele><time>2026-04-27T10:24:31.002Z</time></trkpt><trkpt lat="45.9574160352855" lon="12.855203310526955"><ele>41.0</ele><time>2026-04-27T10:24:32.002Z</time></trkpt><trkpt lat="45.95736194683663" lon="12.854919407178949"><ele>41.0</ele><time>2026-04-27T10:24:33.002Z</time></trkpt><trkpt lat="45.95730976361828" lon="12.854633567532757"><ele>41.0</ele><time>2026-04-27T10:24:34.002Z</time></trkpt><trkpt lat="45.95725198920882" lon="12.85434641789033"><ele>41.0</ele><time>2026-04-27T10:24:35.002Z</time></trkpt><trkpt lat="45.957195021862525" lon="12.854068173925697"><ele>41.0</ele><time>2026-04-27T10:24:36.002Z</time></trkpt><trkpt lat="45.95713916987383" lon="12.85378782414679"><ele>40.666666666666664</ele><time>2026-04-27T10:24:37.002Z</time></trkpt><trkpt lat="45.95708487444404" lon="12.853509286553866"><ele>40.333333333333336</ele><time>2026-04-27T10:24:38.002Z</time></trkpt><trkpt lat="45.95703093549314" lon="12.85323483367539"><ele>40.0</ele><time>2026-04-27T10:24:39.002Z</time></trkpt><trkpt lat="45.95697614259175" lon="12.852963713525988"><ele>40.0</ele><time>2026-04-27T10:24:40.002Z</time></trkpt><trkpt lat="45.956922510150875" lon="12.852695032990075"><ele>40.0</ele><time>2026-04-27T10:24:41.002Z</time></trkpt><trkpt lat="45.956868950956405" lon="12.8524236821324"><ele>40.0</ele><time>2026-04-27T10:24:42.002Z</time></trkpt><trkpt lat="45.95681329624024" lon="12.852152637629137"><ele>39.66666666666667</ele><time>2026-04-27T10:24:43.002Z</time></trkpt><trkpt lat="45.95676218722347" lon="12.851884977535954"><ele>39.333333333333336</ele><time>2026-04-27T10:24:44.002Z</time></trkpt><trkpt lat="45.956705539323046" lon="12.851618515347791"><ele>39.0</ele><time>2026-04-27T10:24:45.002Z</time></trkpt><trkpt lat="45.95665041856216" lon="12.851352087817073"><ele>39.333333333333336</ele><time>2026-04-27T10:24:46.002Z</time></trkpt><trkpt lat="45.95659956767138" lon="12.851104606314047"><ele>39.66666666666667</ele><time>2026-04-27T10:24:47.002Z</time></trkpt><trkpt lat="45.956551939475005" lon="12.850871923389985"><ele>40.0</ele><time>2026-04-27T10:24:48.002Z</time></trkpt><trkpt lat="45.95650888146591" lon="12.850650706136584"><ele>40.0</ele><time>2026-04-27T10:24:49.002Z</time></trkpt><trkpt lat="45.95646817055007" lon="12.850441683781687"><ele>40.0</ele><time>2026-04-27T10:24:50.002Z</time></trkpt><trkpt lat="45.956429345817085" lon="12.850230526013119"><ele>40.0</ele><time>2026-04-27T10:24:51.002Z</time></trkpt><trkpt lat="45.95639267264158" lon="12.85001669502201"><ele>40.25</ele><time>2026-04-27T10:24:52.002Z</time></trkpt><trkpt lat="45.95635706320109" lon="12.849818025624048"><ele>40.5</ele><time>2026-04-27T10:24:53.002Z</time></trkpt><trkpt lat="45.956324210647274" lon="12.849640104243257"><ele>40.75</ele><time>2026-04-27T10:24:54.002Z</time></trkpt><trkpt lat="45.956292144401516" lon="12.84947124093785"><ele>41.0</ele><time>2026-04-27T10:24:55Z</time></trkpt><trkpt lat="45.95625739890582" lon="12.849305125311323"><ele>41.0</ele><time>2026-04-27T10:24:56Z</time></trkpt><trkpt lat="45.95621934333423" lon="12.849127147979583"><ele>41.0</ele><time>2026-04-27T10:24:57Z</time></trkpt><trkpt lat="45.95618335749542" lon="12.84894702888686"><ele>41.0</ele><time>2026-04-27T10:24:58Z</time></trkpt><trkpt lat="45.95614518648163" lon="12.848762865413804"><ele>41.0</ele><time>2026-04-27T10:24:59Z</time></trkpt><trkpt lat="45.956106937351294" lon="12.848573699476278"><ele>40.5</ele><time>2026-04-27T10:25:00Z</time></trkpt><trkpt lat="45.956068281458634" lon="12.848388165165938"><ele>40.0</ele><time>2026-04-27T10:25:01Z</time></trkpt><trkpt lat="45.95603123156673" lon="12.848210774285477"><ele>39.5</ele><time>2026-04-27T10:25:02Z</time></trkpt><trkpt lat="45.95599576931899" lon="12.848028854471139"><ele>39.0</ele><time>2026-04-27T10:25:03Z</time></trkpt><trkpt lat="45.95595658364248" lon="12.847840528360555"><ele>39.0</ele><time>2026-04-27T10:25:04Z</time></trkpt><trkpt lat="45.955919551942756" lon="12.847646529488406"><ele>39.0</ele><time>2026-04-27T10:25:05Z</time></trkpt><trkpt lat="45.955879688870496" lon="12.847454915591202"><ele>39.0</ele><time>2026-04-27T10:25:06Z</time></trkpt><trkpt lat="45.955843618340516" lon="12.847270112348877"><ele>39.0</ele><time>2026-04-27T10:25:07Z</time></trkpt><trkpt lat="45.95581550232783" lon="12.847094025126896"><ele>39.25</ele><time>2026-04-27T10:25:08Z</time></trkpt><trkpt lat="45.955778013320284" lon="12.846911433778098"><ele>39.5</ele><time>2026-04-27T10:25:09Z</time></trkpt><trkpt lat="45.95573836287279" lon="12.846708537594322"><ele>39.75</ele><time>2026-04-27T10:25:10Z</time></trkpt><trkpt lat="45.95569907556359" lon="12.846493874813339"><ele>40.0</ele><time>2026-04-27T10:25:11Z</time></trkpt><trkpt lat="45.955650415701925" lon="12.846270862382406"><ele>40.0</ele><time>2026-04-27T10:25:12Z</time></trkpt><trkpt lat="45.9556088409024" lon="12.84605825706404"><ele>40.0</ele><time>2026-04-27T10:25:13Z</time></trkpt><trkpt lat="45.955568201472026" lon="12.84585995550191"><ele>40.0</ele><time>2026-04-27T10:25:14Z</time></trkpt><trkpt lat="45.95553021821862" lon="12.845670121646899"><ele>40.0</ele><time>2026-04-27T10:25:15Z</time></trkpt><trkpt lat="45.955494435153945" lon="12.845492191522442"><ele>40.0</ele><time>2026-04-27T10:25:16Z</time></trkpt><trkpt lat="45.955459069568114" lon="12.845321921211886"><ele>40.0</ele><time>2026-04-27T10:25:17Z</time></trkpt><trkpt lat="45.95542675474844" lon="12.845155084064665"><ele>40.0</ele><time>2026-04-27T10:25:18Z</time></trkpt><trkpt lat="45.95539124282136" lon="12.844983142306361"><ele>40.0</ele><time>2026-04-27T10:25:19Z</time></trkpt><trkpt lat="45.95535833617504" lon="12.844821473023861"><ele>40.0</ele><time>2026-04-27T10:25:20Z</time></trkpt><trkpt lat="45.955332732893424" lon="12.844664798359506"><ele>40.0</ele><time>2026-04-27T10:25:21Z</time></trkpt><trkpt lat="45.95530510968898" lon="12.844522245764072"><ele>40.0</ele><time>2026-04-27T10:25:22Z</time></trkpt><trkpt lat="45.95527140278063" lon="12.84438504133854"><ele>40.0</ele><time>2026-04-27T10:25:23Z</time></trkpt><trkpt lat="45.955243404066344" lon="12.844251429848507"><ele>40.0</ele><time>2026-04-27T10:25:24Z</time></trkpt><trkpt lat="45.95521701570455" lon="12.84412122807069"><ele>40.16666666666667</ele><time>2026-04-27T10:25:25Z</time></trkpt><trkpt lat="45.95518912497342" lon="12.84399316162501"><ele>40.333333333333336</ele><time>2026-04-27T10:25:26Z</time></trkpt><trkpt lat="45.955164551254875" lon="12.843871649949541"><ele>40.5</ele><time>2026-04-27T10:25:27Z</time></trkpt><trkpt lat="45.95514379201281" lon="12.843758934490195"><ele>40.666666666666664</ele><time>2026-04-27T10:25:28Z</time></trkpt><trkpt lat="45.955123064124344" lon="12.843655898296957"><ele>40.83333333333333</ele><time>2026-04-27T10:25:29Z</time></trkpt><trkpt lat="45.95510421334817" lon="12.843555711138887"><ele>41.0</ele><time>2026-04-27T10:25:30Z</time></trkpt><trkpt lat="45.95507939531841" lon="12.843463729404087"><ele>41.0</ele><time>2026-04-27T10:25:31Z</time></trkpt><trkpt lat="45.955054118848935" lon="12.843378172374342"><ele>41.0</ele><time>2026-04-27T10:25:32Z</time></trkpt><trkpt lat="45.95500636979828" lon="12.84318886228587"><ele>41.0</ele><time>2026-04-27T10:25:34Z</time></trkpt><trkpt lat="45.95500160898316" lon="12.843015186668147"><ele>41.0</ele><time>2026-04-27T10:25:35Z</time></trkpt><trkpt lat="45.954982552877986" lon="12.842866776641038"><ele>41.0</ele><time>2026-04-27T10:25:36Z</time></trkpt><trkpt lat="45.95496669964097" lon="12.842729361041966"><ele>40.599999999999994</ele><time>2026-04-27T10:25:37Z</time></trkpt><trkpt lat="45.95495460231083" lon="12.84260452781949"><ele>40.199999999999996</ele><time>2026-04-27T10:25:38Z</time></trkpt><trkpt lat="45.95492971125179" lon="12.842487891031453"><ele>39.8</ele><time>2026-04-27T10:25:39Z</time></trkpt><trkpt lat="45.95492796826058" lon="12.842379021374441"><ele>39.4</ele><time>2026-04-27T10:25:40Z</time></trkpt><trkpt lat="45.95493138225534" lon="12.84222070989639"><ele>39.0</ele><time>2026-04-27T10:25:42Z</time></trkpt><trkpt lat="45.95493895336923" lon="12.842057689941043"><ele>39.0</ele><time>2026-04-27T10:26:28.001Z</time></trkpt><trkpt lat="45.95495050240489" lon="12.841917779287282"><ele>39.0</ele><time>2026-04-27T10:26:29.001Z</time></trkpt><trkpt lat="45.954963008675826" lon="12.841737724339268"><ele>39.0</ele><time>2026-04-27T10:26:30.001Z</time></trkpt><trkpt lat="45.954976591289295" lon="12.841511838731295"><ele>39.0</ele><time>2026-04-27T10:26:31.001Z</time></trkpt><trkpt lat="45.954991439523056" lon="12.841267588703436"><ele>38.666666666666664</ele><time>2026-04-27T10:26:32.001Z</time></trkpt><trkpt lat="45.955006569014216" lon="12.841028412569722"><ele>38.33333333333333</ele><time>2026-04-27T10:26:33.001Z</time></trkpt><trkpt lat="45.955024446026684" lon="12.840801774420713"><ele>38.0</ele><time>2026-04-27T10:26:34.001Z</time></trkpt><trkpt lat="45.95504616579645" lon="12.840566747075822"><ele>38.0</ele><time>2026-04-27T10:26:35.002Z</time></trkpt><trkpt lat="45.95507712510124" lon="12.840332565531721"><ele>38.0</ele><time>2026-04-27T10:26:36.002Z</time></trkpt><trkpt lat="45.95511475760038" lon="12.84011936824127"><ele>38.0</ele><time>2026-04-27T10:26:37.002Z</time></trkpt><trkpt lat="45.9551583867195" lon="12.839916578358443"><ele>38.0</ele><time>2026-04-27T10:26:38.002Z</time></trkpt><trkpt lat="45.95521485244717" lon="12.839710475087337"><ele>38.0</ele><time>2026-04-27T10:26:39.002Z</time></trkpt><trkpt lat="45.955283172308874" lon="12.83950751207871"><ele>38.0</ele><time>2026-04-27T10:26:40.002Z</time></trkpt><trkpt lat="45.955359931760874" lon="12.839309376627194"><ele>38.0</ele><time>2026-04-27T10:26:41.002Z</time></trkpt><trkpt lat="45.95543705511876" lon="12.839119363213072"><ele>38.0</ele><time>2026-04-27T10:26:42.002Z</time></trkpt><trkpt lat="45.95550923201155" lon="12.838947720630244"><ele>38.0</ele><time>2026-04-27T10:26:43.002Z</time></trkpt><trkpt lat="45.95557834272767" lon="12.838788187193092"><ele>38.0</ele><time>2026-04-27T10:26:44.002Z</time></trkpt><trkpt lat="45.955648070915736" lon="12.838635842289364"><ele>38.0</ele><time>2026-04-27T10:26:45.002Z</time></trkpt><trkpt lat="45.955710911724985" lon="12.838491835533866"><ele>38.0</ele><time>2026-04-27T10:26:46.002Z</time></trkpt><trkpt lat="45.95576477790054" lon="12.838343434327047"><ele>38.0</ele><time>2026-04-27T10:26:47.002Z</time></trkpt><trkpt lat="45.95582504287564" lon="12.838198021484265"><ele>38.0</ele><time>2026-04-27T10:26:48.002Z</time></trkpt><trkpt lat="45.9558946136537" lon="12.838044181161031"><ele>38.25</ele><time>2026-04-27T10:26:49.002Z</time></trkpt><trkpt lat="45.95596558992209" lon="12.83787724788815"><ele>38.5</ele><time>2026-04-27T10:26:50.002Z</time></trkpt><trkpt lat="45.956036269878624" lon="12.837696076453176"><ele>38.75</ele><time>2026-04-27T10:26:51.002Z</time></trkpt><trkpt lat="45.95611018732315" lon="12.837511523526606"><ele>39.0</ele><time>2026-04-27T10:26:52.002Z</time></trkpt><trkpt lat="45.956192791187675" lon="12.837312886232446"><ele>39.333333333333336</ele><time>2026-04-27T10:26:53.002Z</time></trkpt><trkpt lat="45.95627992044547" lon="12.83711305759351"><ele>39.66666666666667</ele><time>2026-04-27T10:26:54.002Z</time></trkpt><trkpt lat="45.956361236821266" lon="12.836911893101268"><ele>40.0</ele><time>2026-04-27T10:26:55.002Z</time></trkpt><trkpt lat="45.956437675113726" lon="12.836722367817595"><ele>40.0</ele><time>2026-04-27T10:26:56.002Z</time></trkpt><trkpt lat="45.956507437781404" lon="12.836546972768023"><ele>40.0</ele><time>2026-04-27T10:26:57.002Z</time></trkpt><trkpt lat="45.95657792489786" lon="12.836370053651246"><ele>40.0</ele><time>2026-04-27T10:26:58.002Z</time></trkpt><trkpt lat="45.95665265530778" lon="12.83619059085395"><ele>40.0</ele><time>2026-04-27T10:26:59.002Z</time></trkpt><trkpt lat="45.95672948214795" lon="12.836003731524952"><ele>39.333333333333336</ele><time>2026-04-27T10:27:00.002Z</time></trkpt><trkpt lat="45.95680943919419" lon="12.83582079973276"><ele>38.666666666666664</ele><time>2026-04-27T10:27:00.999Z</time></trkpt><trkpt lat="45.95688961094973" lon="12.835629176997122"><ele>38.0</ele><time>2026-04-27T10:27:01.999Z</time></trkpt><trkpt lat="45.95696910313114" lon="12.835430992359019"><ele>38.0</ele><time>2026-04-27T10:27:02.999Z</time></trkpt><trkpt lat="45.95705199979847" lon="12.835235821109608"><ele>38.0</ele><time>2026-04-27T10:27:03.999Z</time></trkpt><trkpt lat="45.95713153682233" lon="12.835037069564741"><ele>38.0</ele><time>2026-04-27T10:27:04.999Z</time></trkpt><trkpt lat="45.95721535441147" lon="12.834835760722644"><ele>38.0</ele><time>2026-04-27T10:27:05.999Z</time></trkpt><trkpt lat="45.95729356382892" lon="12.834633456594688"><ele>38.0</ele><time>2026-04-27T10:27:06.999Z</time></trkpt><trkpt lat="45.957374622226396" lon="12.834422163142872"><ele>38.0</ele><time>2026-04-27T10:27:07.999Z</time></trkpt><trkpt lat="45.95745219733734" lon="12.83420749948562"><ele>38.0</ele><time>2026-04-27T10:27:08.999Z</time></trkpt><trkpt lat="45.95751942406475" lon="12.833990911167449"><ele>38.0</ele><time>2026-04-27T10:27:09.999Z</time></trkpt><trkpt lat="45.95758120502349" lon="12.833761294287967"><ele>38.0</ele><time>2026-04-27T10:27:10.999Z</time></trkpt><trkpt lat="45.957630187541305" lon="12.833536965901045"><ele>38.33333333333333</ele><time>2026-04-27T10:27:12Z</time></trkpt><trkpt lat="45.95767015361008" lon="12.833327787519359"><ele>38.666666666666664</ele><time>2026-04-27T10:27:13Z</time></trkpt><trkpt lat="45.957698488313014" lon="12.833102539520171"><ele>39.0</ele><time>2026-04-27T10:27:14Z</time></trkpt><trkpt lat="45.957719672736715" lon="12.83289510547976"><ele>39.0</ele><time>2026-04-27T10:27:15Z</time></trkpt><trkpt lat="45.957732160499994" lon="12.832695344110203"><ele>39.0</ele><time>2026-04-27T10:27:16Z</time></trkpt><trkpt lat="45.957735330582494" lon="12.832503003781051"><ele>39.0</ele><time>2026-04-27T10:27:17Z</time></trkpt><trkpt lat="45.95773695802273" lon="12.832324097548236"><ele>39.0</ele><time>2026-04-27T10:27:18Z</time></trkpt><trkpt lat="45.957743364935745" lon="12.832173477548203"><ele>38.8</ele><time>2026-04-27T10:27:19Z</time></trkpt><trkpt lat="45.95776664806254" lon="12.832036347372746"><ele>38.599999999999994</ele><time>2026-04-27T10:27:20Z</time></trkpt><trkpt lat="45.957802634905015" lon="12.831885770268185"><ele>38.4</ele><time>2026-04-27T10:27:21Z</time></trkpt><trkpt lat="45.9578241383251" lon="12.831728347961745"><ele>38.199999999999996</ele><time>2026-04-27T10:27:22Z</time></trkpt><trkpt lat="45.957813688328855" lon="12.83156982762288"><ele>38.0</ele><time>2026-04-27T10:27:23Z</time></trkpt><trkpt lat="45.957771668888" lon="12.831395676743403"><ele>37.666666666666664</ele><time>2026-04-27T10:27:24Z</time></trkpt><trkpt lat="45.95770220991188" lon="12.831159372538332"><ele>37.333333333333336</ele><time>2026-04-27T10:27:25Z</time></trkpt><trkpt lat="45.95763538731367" lon="12.830850368680686"><ele>37.0</ele><time>2026-04-27T10:27:26Z</time></trkpt><trkpt lat="45.9575898999109" lon="12.830502191774222"><ele>37.0</ele><time>2026-04-27T10:27:27Z</time></trkpt><trkpt lat="45.95755341632598" lon="12.830118416111281"><ele>37.0</ele><time>2026-04-27T10:27:28Z</time></trkpt><trkpt lat="45.95750837040949" lon="12.829707151005165"><ele>37.0</ele><time>2026-04-27T10:27:29Z</time></trkpt><trkpt lat="45.95744965873065" lon="12.829293129814813"><ele>37.0</ele><time>2026-04-27T10:27:30Z</time></trkpt><trkpt lat="45.957400344170615" lon="12.828921309837867"><ele>37.0</ele><time>2026-04-27T10:27:31Z</time></trkpt><trkpt lat="45.95735861781888" lon="12.828585576303883"><ele>37.0</ele><time>2026-04-27T10:27:32Z</time></trkpt><trkpt lat="45.95732138490948" lon="12.828268367770942"><ele>37.0</ele><time>2026-04-27T10:27:33Z</time></trkpt><trkpt lat="45.957287858580045" lon="12.827971786420461"><ele>37.0</ele><time>2026-04-27T10:27:34Z</time></trkpt><trkpt lat="45.95725918923986" lon="12.827692754605902"><ele>37.0</ele><time>2026-04-27T10:27:35Z</time></trkpt><trkpt lat="45.95723646647413" lon="12.82745012026109"><ele>37.0</ele><time>2026-04-27T10:27:36Z</time></trkpt><trkpt lat="45.957220618974986" lon="12.827235565106221"><ele>37.0</ele><time>2026-04-27T10:27:37Z</time></trkpt><trkpt lat="45.95721491473305" lon="12.827042552738249"><ele>37.0</ele><time>2026-04-27T10:27:38Z</time></trkpt><trkpt lat="45.95722871968101" lon="12.826863364954507"><ele>37.0</ele><time>2026-04-27T10:27:39Z</time></trkpt><trkpt lat="45.957253634507325" lon="12.826695895194819"><ele>37.0</ele><time>2026-04-27T10:27:40Z</time></trkpt><trkpt lat="45.957280106255446" lon="12.826546856642224"><ele>37.0</ele><time>2026-04-27T10:27:41Z</time></trkpt><trkpt lat="45.957274097924156" lon="12.826410530024997"><ele>37.0</ele><time>2026-04-27T10:27:42Z</time></trkpt><trkpt lat="45.95723610706" lon="12.826278105066393"><ele>37.0</ele><time>2026-04-27T10:27:43Z</time></trkpt><trkpt lat="45.95716523349779" lon="12.826133190087106"><ele>37.0</ele><time>2026-04-27T10:27:44Z</time></trkpt><trkpt lat="45.95707380214365" lon="12.825948682342329"><ele>36.66666666666667</ele><time>2026-04-27T10:27:45Z</time></trkpt><trkpt lat="45.95700652155389" lon="12.825714333665289"><ele>36.333333333333336</ele><time>2026-04-27T10:27:46Z</time></trkpt><trkpt lat="45.95696102456346" lon="12.825420027526352"><ele>36.0</ele><time>2026-04-27T10:27:47Z</time></trkpt><trkpt lat="45.95692255160857" lon="12.825083846664452"><ele>36.0</ele><time>2026-04-27T10:27:48Z</time></trkpt><trkpt lat="45.956886060903805" lon="12.824711231340792"><ele>36.0</ele><time>2026-04-27T10:27:49Z</time></trkpt><trkpt lat="45.956840986451475" lon="12.82431785813473"><ele>36.0</ele><time>2026-04-27T10:27:50.001Z</time></trkpt><trkpt lat="45.95678472590904" lon="12.823899412036328"><ele>36.0</ele><time>2026-04-27T10:27:51.001Z</time></trkpt><trkpt lat="45.956734354103546" lon="12.8235038548599"><ele>35.5</ele><time>2026-04-27T10:27:52.001Z</time></trkpt><trkpt lat="45.956690953516066" lon="12.82314808536248"><ele>35.0</ele><time>2026-04-27T10:27:53.001Z</time></trkpt><trkpt lat="45.95665249185425" lon="12.822809355904981"><ele>34.5</ele><time>2026-04-27T10:27:54.001Z</time></trkpt><trkpt lat="45.95661500428163" lon="12.822477637566164"><ele>34.0</ele><time>2026-04-27T10:27:55.001Z</time></trkpt><trkpt lat="45.9565781347553" lon="12.822169618929927"><ele>34.0</ele><time>2026-04-27T10:27:56.001Z</time></trkpt><trkpt lat="45.956541578897074" lon="12.821876912726275"><ele>34.0</ele><time>2026-04-27T10:27:57.001Z</time></trkpt><trkpt lat="45.95650698159811" lon="12.82159055579012"><ele>34.0</ele><time>2026-04-27T10:27:58.001Z</time></trkpt><trkpt lat="45.956469720434725" lon="12.821315800614826"><ele>34.333333333333336</ele><time>2026-04-27T10:27:59.001Z</time></trkpt><trkpt lat="45.95644074307415" lon="12.82105981585093"><ele>34.666666666666664</ele><time>2026-04-27T10:28:00.001Z</time></trkpt><trkpt lat="45.95640996754108" lon="12.820818547970035"><ele>35.0</ele><time>2026-04-27T10:28:01.001Z</time></trkpt><trkpt lat="45.95637778420014" lon="12.82057553115061"><ele>35.0</ele><time>2026-04-27T10:28:02.001Z</time></trkpt><trkpt lat="45.956345343598386" lon="12.82032771072895"><ele>35.0</ele><time>2026-04-27T10:28:03.001Z</time></trkpt><trkpt lat="45.956313935946916" lon="12.82008025143203"><ele>35.0</ele><time>2026-04-27T10:28:04.001Z</time></trkpt><trkpt lat="45.956283325371565" lon="12.81984907025776"><ele>35.0</ele><time>2026-04-27T10:28:05.001Z</time></trkpt><trkpt lat="45.95625574128548" lon="12.81962195914706"><ele>35.0</ele><time>2026-04-27T10:28:06.001Z</time></trkpt><trkpt lat="45.95622633795527" lon="12.81936581921728"><ele>35.0</ele><time>2026-04-27T10:28:07.001Z</time></trkpt><trkpt lat="45.95619002375513" lon="12.819099469546883"><ele>35.0</ele><time>2026-04-27T10:28:08.001Z</time></trkpt><trkpt lat="45.956153120391996" lon="12.818837198298649"><ele>35.0</ele><time>2026-04-27T10:28:09.001Z</time></trkpt><trkpt lat="45.95612372662329" lon="12.818584750816166"><ele>35.0</ele><time>2026-04-27T10:28:10.001Z</time></trkpt><trkpt lat="45.95609541143107" lon="12.818341955388346"><ele>35.33333333333333</ele><time>2026-04-27T10:28:11.001Z</time></trkpt><trkpt lat="45.956068742271974" lon="12.818114873286508"><ele>35.666666666666664</ele><time>2026-04-27T10:28:12.001Z</time></trkpt><trkpt lat="45.95604244185491" lon="12.817904247324755"><ele>36.0</ele><time>2026-04-27T10:28:13.001Z</time></trkpt><trkpt lat="45.95601582305517" lon="12.817703558541954"><ele>35.75</ele><time>2026-04-27T10:28:14.001Z</time></trkpt><trkpt lat="45.95599172702697" lon="12.817510888199466"><ele>35.5</ele><time>2026-04-27T10:28:15.001Z</time></trkpt><trkpt lat="45.955968635547016" lon="12.817310986194006"><ele>35.25</ele><time>2026-04-27T10:28:16.001Z</time></trkpt><trkpt lat="45.95594470896281" lon="12.81710859219863"><ele>35.0</ele><time>2026-04-27T10:28:17.001Z</time></trkpt><trkpt lat="45.955919170425744" lon="12.816900900322793"><ele>35.0</ele><time>2026-04-27T10:28:18.001Z</time></trkpt><trkpt lat="45.955896193724755" lon="12.816690602687284"><ele>35.0</ele><time>2026-04-27T10:28:19.001Z</time></trkpt><trkpt lat="45.95586827448914" lon="12.81647603086864"><ele>35.0</ele><time>2026-04-27T10:28:20.001Z</time></trkpt><trkpt lat="45.955840002503066" lon="12.816258600676123"><ele>35.0</ele><time>2026-04-27T10:28:21.001Z</time></trkpt><trkpt lat="45.95580992605657" lon="12.816036606252363"><ele>35.0</ele><time>2026-04-27T10:28:22.001Z</time></trkpt><trkpt lat="45.95578026400728" lon="12.815808513399427"><ele>35.0</ele><time>2026-04-27T10:28:23.001Z</time></trkpt><trkpt lat="45.955749929899824" lon="12.815577753203652"><ele>35.0</ele><time>2026-04-27T10:28:24.001Z</time></trkpt><trkpt lat="45.95572160619792" lon="12.815343613720376"><ele>35.0</ele><time>2026-04-27T10:28:25.001Z</time></trkpt><trkpt lat="45.955692420378824" lon="12.815104844002668"><ele>35.0</ele><time>2026-04-27T10:28:26.001Z</time></trkpt><trkpt lat="45.95566403119697" lon="12.814872539974116"><ele>35.0</ele><time>2026-04-27T10:28:27.001Z</time></trkpt><trkpt lat="45.95563390062762" lon="12.814638047474888"><ele>35.0</ele><time>2026-04-27T10:28:28.001Z</time></trkpt><trkpt lat="45.95560491813774" lon="12.814402722417736"><ele>35.0</ele><time>2026-04-27T10:28:29.001Z</time></trkpt><trkpt lat="45.95557963305629" lon="12.81417272200659"><ele>35.33333333333333</ele><time>2026-04-27T10:28:30.001Z</time></trkpt><trkpt lat="45.95555448210344" lon="12.813946886744882"><ele>35.666666666666664</ele><time>2026-04-27T10:28:31.001Z</time></trkpt><trkpt lat="45.95552774218633" lon="12.813717350647195"><ele>36.0</ele><time>2026-04-27T10:28:32.001Z</time></trkpt><trkpt lat="45.95549964399226" lon="12.8134837922298"><ele>36.0</ele><time>2026-04-27T10:28:33.001Z</time></trkpt><trkpt lat="45.955471513860566" lon="12.813246651182281"><ele>36.0</ele><time>2026-04-27T10:28:34.001Z</time></trkpt><trkpt lat="45.9554406268747" lon="12.813012031840344"><ele>36.0</ele><time>2026-04-27T10:28:35.002Z</time></trkpt><trkpt lat="45.95540973882207" lon="12.812776052171067"><ele>35.666666666666664</ele><time>2026-04-27T10:28:36.002Z</time></trkpt><trkpt lat="45.95538001174745" lon="12.812534901496958"><ele>35.33333333333333</ele><time>2026-04-27T10:28:37.002Z</time></trkpt><trkpt lat="45.955350663322484" lon="12.81229074876442"><ele>35.0</ele><time>2026-04-27T10:28:38.002Z</time></trkpt><trkpt lat="45.9553208088115" lon="12.81204522866973"><ele>34.0</ele><time>2026-04-27T10:28:39.002Z</time></trkpt><trkpt lat="45.95529162545172" lon="12.811804083537998"><ele>33.0</ele><time>2026-04-27T10:28:40.002Z</time></trkpt><trkpt lat="45.955258368559534" lon="12.81156086475812"><ele>32.0</ele><time>2026-04-27T10:28:41.002Z</time></trkpt><trkpt lat="45.95522408328019" lon="12.811314382998297"><ele>32.0</ele><time>2026-04-27T10:28:42.002Z</time></trkpt><trkpt lat="45.95519195988224" lon="12.81106072623426"><ele>32.0</ele><time>2026-04-27T10:28:43.002Z</time></trkpt><trkpt lat="45.955163432460424" lon="12.810805775482658"><ele>32.0</ele><time>2026-04-27T10:28:44.002Z</time></trkpt><trkpt lat="45.9551354491174" lon="12.810548539354757"><ele>32.0</ele><time>2026-04-27T10:28:45.002Z</time></trkpt><trkpt lat="45.95510108084437" lon="12.81028698768763"><ele>32.0</ele><time>2026-04-27T10:28:46.002Z</time></trkpt><trkpt lat="45.95506550061495" lon="12.810033861607234"><ele>32.0</ele><time>2026-04-27T10:28:47.002Z</time></trkpt><trkpt lat="45.95503460964476" lon="12.80980398799639"><ele>32.666666666666664</ele><time>2026-04-27T10:28:48.002Z</time></trkpt><trkpt lat="45.95501149787144" lon="12.809578896577998"><ele>33.333333333333336</ele><time>2026-04-27T10:28:49.002Z</time></trkpt><trkpt lat="45.95498932827278" lon="12.809358495993742"><ele>34.0</ele><time>2026-04-27T10:28:50.002Z</time></trkpt><trkpt lat="45.954955704656776" lon="12.80911420180227"><ele>34.0</ele><time>2026-04-27T10:28:51.002Z</time></trkpt><trkpt lat="45.95490980672187" lon="12.808836070299233"><ele>34.0</ele><time>2026-04-27T10:28:52.002Z</time></trkpt><trkpt lat="45.95486965371728" lon="12.808537388820664"><ele>34.0</ele><time>2026-04-27T10:28:53.002Z</time></trkpt><trkpt lat="45.95483403448174" lon="12.808244379465698"><ele>33.333333333333336</ele><time>2026-04-27T10:28:54.002Z</time></trkpt><trkpt lat="45.95479762753711" lon="12.807962800340256"><ele>32.666666666666664</ele><time>2026-04-27T10:28:55.002Z</time></trkpt><trkpt lat="45.95476391132047" lon="12.807704084697182"><ele>32.0</ele><time>2026-04-27T10:28:56.002Z</time></trkpt><trkpt lat="45.954733825434886" lon="12.80745935880803"><ele>32.0</ele><time>2026-04-27T10:28:57.002Z</time></trkpt><trkpt lat="45.95470560451284" lon="12.807223459819333"><ele>32.0</ele><time>2026-04-27T10:28:58.002Z</time></trkpt><trkpt lat="45.95467951532758" lon="12.807004904656319"><ele>32.0</ele><time>2026-04-27T10:28:59.002Z</time></trkpt><trkpt lat="45.9546540984382" lon="12.806788267701771"><ele>32.0</ele><time>2026-04-27T10:29:00.002Z</time></trkpt><trkpt lat="45.9546324130293" lon="12.806584850522801"><ele>32.0</ele><time>2026-04-27T10:29:01.002Z</time></trkpt><trkpt lat="45.954610081700906" lon="12.806386587996007"><ele>32.0</ele><time>2026-04-27T10:29:02.002Z</time></trkpt><trkpt lat="45.95457838071403" lon="12.806170482400738"><ele>32.0</ele><time>2026-04-27T10:29:03.002Z</time></trkpt><trkpt lat="45.954544247688204" lon="12.805941176771608"><ele>32.0</ele><time>2026-04-27T10:29:04.002Z</time></trkpt><trkpt lat="45.954512369439186" lon="12.805702788218445"><ele>32.0</ele><time>2026-04-27T10:29:05.002Z</time></trkpt><trkpt lat="45.95448287654368" lon="12.80544775982932"><ele>32.0</ele><time>2026-04-27T10:29:06.002Z</time></trkpt><trkpt lat="45.95445876303642" lon="12.805148741601734"><ele>32.0</ele><time>2026-04-27T10:29:06.999Z</time></trkpt><trkpt lat="45.95441949580811" lon="12.804833998290109"><ele>32.0</ele><time>2026-04-27T10:29:07.999Z</time></trkpt><trkpt lat="45.95437743674866" lon="12.80449687117077"><ele>32.33333333333333</ele><time>2026-04-27T10:29:08.999Z</time></trkpt><trkpt lat="45.95433794836777" lon="12.804180348757075"><ele>32.666666666666664</ele><time>2026-04-27T10:29:09.999Z</time></trkpt><trkpt lat="45.95429989563392" lon="12.803879310467613"><ele>33.0</ele><time>2026-04-27T10:29:10.999Z</time></trkpt><trkpt lat="45.9542630790363" lon="12.803588296236795"><ele>32.333333333333336</ele><time>2026-04-27T10:29:12Z</time></trkpt><trkpt lat="45.954229595206634" lon="12.803323624459152"><ele>31.666666666666668</ele><time>2026-04-27T10:29:13Z</time></trkpt><trkpt lat="45.95419665963288" lon="12.803063288651385"><ele>31.0</ele><time>2026-04-27T10:29:13.999Z</time></trkpt><trkpt lat="45.95415121514397" lon="12.802824400396602"><ele>31.0</ele><time>2026-04-27T10:29:15Z</time></trkpt><trkpt lat="45.9541238305269" lon="12.80259748987691"><ele>31.0</ele><time>2026-04-27T10:29:16Z</time></trkpt><trkpt lat="45.95409824717249" lon="12.802370284167672"><ele>31.0</ele><time>2026-04-27T10:29:17Z</time></trkpt><trkpt lat="45.95406773284113" lon="12.802140051785948"><ele>31.0</ele><time>2026-04-27T10:29:18Z</time></trkpt><trkpt lat="45.954035906962126" lon="12.801893879163705"><ele>31.0</ele><time>2026-04-27T10:29:19Z</time></trkpt><trkpt lat="45.954020200676425" lon="12.80164202644289"><ele>31.0</ele><time>2026-04-27T10:29:20Z</time></trkpt><trkpt lat="45.9539895188299" lon="12.80139495374312"><ele>31.0</ele><time>2026-04-27T10:29:21Z</time></trkpt><trkpt lat="45.95395795546625" lon="12.80114078262168"><ele>31.0</ele><time>2026-04-27T10:29:22Z</time></trkpt><trkpt lat="45.9539242429757" lon="12.800869304999614"><ele>31.0</ele><time>2026-04-27T10:29:23Z</time></trkpt><trkpt lat="45.9538887534514" lon="12.800585706279238"><ele>31.0</ele><time>2026-04-27T10:29:24Z</time></trkpt><trkpt lat="45.95385352414455" lon="12.800301426755905"><ele>31.0</ele><time>2026-04-27T10:29:25Z</time></trkpt><trkpt lat="45.95381870501042" lon="12.800020457247761"><ele>31.0</ele><time>2026-04-27T10:29:26Z</time></trkpt><trkpt lat="45.953770571751775" lon="12.799751112916573"><ele>30.333333333333336</ele><time>2026-04-27T10:29:27Z</time></trkpt><trkpt lat="45.95374027588663" lon="12.79949637481678"><ele>29.666666666666664</ele><time>2026-04-27T10:29:28Z</time></trkpt><trkpt lat="45.95371018161738" lon="12.799256727577324"><ele>29.0</ele><time>2026-04-27T10:29:29Z</time></trkpt><trkpt lat="45.95368062903035" lon="12.799028435050007"><ele>28.666666666666664</ele><time>2026-04-27T10:29:30Z</time></trkpt><trkpt lat="45.953652702105316" lon="12.79880067974591"><ele>28.333333333333336</ele><time>2026-04-27T10:29:31Z</time></trkpt><trkpt lat="45.95362244990446" lon="12.798557018075774"><ele>28.0</ele><time>2026-04-27T10:29:32Z</time></trkpt><trkpt lat="45.95359077121666" lon="12.798314891492637"><ele>28.666666666666668</ele><time>2026-04-27T10:29:33Z</time></trkpt><trkpt lat="45.95356482520585" lon="12.798095726177623"><ele>29.333333333333336</ele><time>2026-04-27T10:29:34Z</time></trkpt><trkpt lat="45.953540796486344" lon="12.797882117503946"><ele>30.0</ele><time>2026-04-27T10:29:35Z</time></trkpt><trkpt lat="45.95351212623042" lon="12.797663631498345"><ele>30.0</ele><time>2026-04-27T10:29:36Z</time></trkpt><trkpt lat="45.95350111073277" lon="12.797454733082336"><ele>30.0</ele><time>2026-04-27T10:29:37Z</time></trkpt><trkpt lat="45.95347669440462" lon="12.79725704148851"><ele>30.0</ele><time>2026-04-27T10:29:38Z</time></trkpt><trkpt lat="45.95344913384802" lon="12.797033891970575"><ele>30.0</ele><time>2026-04-27T10:29:39Z</time></trkpt><trkpt lat="45.953416296021" lon="12.796770582326587"><ele>29.666666666666664</ele><time>2026-04-27T10:29:40Z</time></trkpt><trkpt lat="45.95338072629687" lon="12.796485651433144"><ele>29.333333333333332</ele><time>2026-04-27T10:29:41Z</time></trkpt><trkpt lat="45.95334449555335" lon="12.796195425675833"><ele>29.0</ele><time>2026-04-27T10:29:42Z</time></trkpt><trkpt lat="45.953310823940875" lon="12.795925699718667"><ele>29.0</ele><time>2026-04-27T10:29:43Z</time></trkpt><trkpt lat="45.95328002464449" lon="12.795678982212625"><ele>29.0</ele><time>2026-04-27T10:29:44Z</time></trkpt><trkpt lat="45.95325267038672" lon="12.795459861422202"><ele>29.0</ele><time>2026-04-27T10:29:45Z</time></trkpt><trkpt lat="45.953215075395136" lon="12.795265170647477"><ele>29.25</ele><time>2026-04-27T10:29:46Z</time></trkpt><trkpt lat="45.95319356976988" lon="12.795079030570914"><ele>29.5</ele><time>2026-04-27T10:29:47Z</time></trkpt><trkpt lat="45.95316626582592" lon="12.794878860132995"><ele>29.75</ele><time>2026-04-27T10:29:48Z</time></trkpt><trkpt lat="45.95313733584663" lon="12.794658441980756"><ele>30.0</ele><time>2026-04-27T10:29:49Z</time></trkpt><trkpt lat="45.95310910981631" lon="12.794427230111332"><ele>30.0</ele><time>2026-04-27T10:29:50Z</time></trkpt><trkpt lat="45.95307510880414" lon="12.794183193078284"><ele>30.0</ele><time>2026-04-27T10:29:51Z</time></trkpt><trkpt lat="45.953058838031055" lon="12.79390244948314"><ele>30.0</ele><time>2026-04-27T10:29:52Z</time></trkpt><trkpt lat="45.95302107823496" lon="12.793597461696276"><ele>30.333333333333336</ele><time>2026-04-27T10:29:53.001Z</time></trkpt><trkpt lat="45.95298270785311" lon="12.793288519696297"><ele>30.666666666666668</ele><time>2026-04-27T10:29:54.001Z</time></trkpt><trkpt lat="45.9529310012004" lon="12.792991969978083"><ele>31.0</ele><time>2026-04-27T10:29:55.001Z</time></trkpt><trkpt lat="45.952905561173715" lon="12.792695471802142"><ele>31.0</ele><time>2026-04-27T10:29:56.001Z</time></trkpt><trkpt lat="45.95287548312037" lon="12.792408372322605"><ele>31.0</ele><time>2026-04-27T10:29:57.001Z</time></trkpt><trkpt lat="45.95284483855372" lon="12.792144141886444"><ele>31.0</ele><time>2026-04-27T10:29:58.001Z</time></trkpt><trkpt lat="45.952815593003336" lon="12.791891675119473"><ele>30.333333333333336</ele><time>2026-04-27T10:29:59.001Z</time></trkpt><trkpt lat="45.95278923647292" lon="12.791654559116619"><ele>29.666666666666664</ele><time>2026-04-27T10:30:00.001Z</time></trkpt><trkpt lat="45.95276345860362" lon="12.791427938089459"><ele>29.0</ele><time>2026-04-27T10:30:01.001Z</time></trkpt><trkpt lat="45.9527367880389" lon="12.791216448855094"><ele>29.0</ele><time>2026-04-27T10:30:02.001Z</time></trkpt><trkpt lat="45.95271059693605" lon="12.791011899637494"><ele>29.0</ele><time>2026-04-27T10:30:03.001Z</time></trkpt><trkpt lat="45.952692035923995" lon="12.790813566720521"><ele>29.0</ele><time>2026-04-27T10:30:04.001Z</time></trkpt><trkpt lat="45.95268624928145" lon="12.790619785492014"><ele>29.0</ele><time>2026-04-27T10:30:05.001Z</time></trkpt><trkpt lat="45.952693735559784" lon="12.790414606060843"><ele>29.0</ele><time>2026-04-27T10:30:06.001Z</time></trkpt><trkpt lat="45.952714948256215" lon="12.790204831297745"><ele>29.0</ele><time>2026-04-27T10:30:07.001Z</time></trkpt><trkpt lat="45.95275360443463" lon="12.78999627598941"><ele>29.0</ele><time>2026-04-27T10:30:08.001Z</time></trkpt><trkpt lat="45.952814958526154" lon="12.789796538035832"><ele>29.0</ele><time>2026-04-27T10:30:09.001Z</time></trkpt><trkpt lat="45.95289531703721" lon="12.789602772482148"><ele>29.5</ele><time>2026-04-27T10:30:10.001Z</time></trkpt><trkpt lat="45.95296783812116" lon="12.789405784921229"><ele>30.0</ele><time>2026-04-27T10:30:11.001Z</time></trkpt><trkpt lat="45.953031215411954" lon="12.789211362338591"><ele>30.5</ele><time>2026-04-27T10:30:12.001Z</time></trkpt><trkpt lat="45.95308437559057" lon="12.789025883648266"><ele>31.0</ele><time>2026-04-27T10:30:13.001Z</time></trkpt><trkpt lat="45.95311764704952" lon="12.788839687696006"><ele>31.25</ele><time>2026-04-27T10:30:14.001Z</time></trkpt><trkpt lat="45.95313080290143" lon="12.788644954836954"><ele>31.5</ele><time>2026-04-27T10:30:15.001Z</time></trkpt><trkpt lat="45.95313059068279" lon="12.788439285602738"><ele>31.75</ele><time>2026-04-27T10:30:16.001Z</time></trkpt><trkpt lat="45.953110752268536" lon="12.788216464448034"><ele>32.0</ele><time>2026-04-27T10:30:17.001Z</time></trkpt><trkpt lat="45.95307238815341" lon="12.787972979925216"><ele>31.333333333333332</ele><time>2026-04-27T10:30:18.001Z</time></trkpt><trkpt lat="45.95301402673278" lon="12.787700187244694"><ele>30.666666666666664</ele><time>2026-04-27T10:30:19.001Z</time></trkpt><trkpt lat="45.95293738272786" lon="12.787388285485898"><ele>30.0</ele><time>2026-04-27T10:30:20.001Z</time></trkpt><trkpt lat="45.95288601306135" lon="12.787098130485816"><ele>29.666666666666664</ele><time>2026-04-27T10:30:21.001Z</time></trkpt><trkpt lat="45.95282421229727" lon="12.78684257155531"><ele>29.333333333333332</ele><time>2026-04-27T10:30:22.001Z</time></trkpt><trkpt lat="45.952772954143455" lon="12.786593841274575"><ele>29.0</ele><time>2026-04-27T10:30:23.001Z</time></trkpt><trkpt lat="45.95272976688182" lon="12.786355023966845"><ele>29.0</ele><time>2026-04-27T10:30:24.001Z</time></trkpt><trkpt lat="45.952683340262894" lon="12.786145538254221"><ele>29.0</ele><time>2026-04-27T10:30:25.001Z</time></trkpt><trkpt lat="45.952640472606" lon="12.785946545967112"><ele>29.0</ele><time>2026-04-27T10:30:26.001Z</time></trkpt><trkpt lat="45.952604583208334" lon="12.785744750239111"><ele>29.0</ele><time>2026-04-27T10:30:27.001Z</time></trkpt><trkpt lat="45.952571106699324" lon="12.785528665428346"><ele>29.0</ele><time>2026-04-27T10:30:28.001Z</time></trkpt><trkpt lat="45.95253796135387" lon="12.785293009327573"><ele>29.0</ele><time>2026-04-27T10:30:29.001Z</time></trkpt><trkpt lat="45.95251050868645" lon="12.785030006335944"><ele>29.0</ele><time>2026-04-27T10:30:30.001Z</time></trkpt><trkpt lat="45.95248769573161" lon="12.784741971785941"><ele>28.666666666666664</ele><time>2026-04-27T10:30:31.001Z</time></trkpt><trkpt lat="45.95245950870126" lon="12.784439986371503"><ele>28.333333333333336</ele><time>2026-04-27T10:30:32.001Z</time></trkpt><trkpt lat="45.952426067141175" lon="12.784110366927589"><ele>28.0</ele><time>2026-04-27T10:30:33.001Z</time></trkpt><trkpt lat="45.95238764586464" lon="12.78376010030514"><ele>31.5</ele><time>2026-04-27T10:30:34.002Z</time></trkpt><trkpt lat="45.952351073953174" lon="12.783398250651508"><ele>35.0</ele><time>2026-04-27T10:30:35.002Z</time></trkpt><trkpt lat="45.95231281962607" lon="12.783024304532915"><ele>34.0</ele><time>2026-04-27T10:30:36.002Z</time></trkpt><trkpt lat="45.952280596928134" lon="12.782658962731492"><ele>33.0</ele><time>2026-04-27T10:30:37.002Z</time></trkpt><trkpt lat="45.95224729033473" lon="12.782324547121977"><ele>33.0</ele><time>2026-04-27T10:30:38.002Z</time></trkpt><trkpt lat="45.952214753106404" lon="12.782010315636589"><ele>33.0</ele><time>2026-04-27T10:30:39.002Z</time></trkpt><trkpt lat="45.95218239334" lon="12.781713282735618"><ele>33.0</ele><time>2026-04-27T10:30:40.002Z</time></trkpt><trkpt lat="45.952153285823165" lon="12.78143231450755"><ele>31.666666666666664</ele><time>2026-04-27T10:30:41.002Z</time></trkpt><trkpt lat="45.9521283262906" lon="12.781166702905844"><ele>30.333333333333332</ele><time>2026-04-27T10:30:42.002Z</time></trkpt><trkpt lat="45.952107892542486" lon="12.780923068098485"><ele>29.0</ele><time>2026-04-27T10:30:43.002Z</time></trkpt><trkpt lat="45.952088490998214" lon="12.780697062466404"><ele>29.0</ele><time>2026-04-27T10:30:44.002Z</time></trkpt><trkpt lat="45.95206693056515" lon="12.78047430091867"><ele>29.0</ele><time>2026-04-27T10:30:45.002Z</time></trkpt><trkpt lat="45.95203956111093" lon="12.780241859620114"><ele>29.0</ele><time>2026-04-27T10:30:46.002Z</time></trkpt><trkpt lat="45.95201689654975" lon="12.780002307379537"><ele>29.0</ele><time>2026-04-27T10:30:47.002Z</time></trkpt><trkpt lat="45.95199376623063" lon="12.779759552258193"><ele>29.0</ele><time>2026-04-27T10:30:48.002Z</time></trkpt><trkpt lat="45.95196999855914" lon="12.779531207085123"><ele>29.0</ele><time>2026-04-27T10:30:49.002Z</time></trkpt><trkpt lat="45.95194741536142" lon="12.779310003356269"><ele>29.0</ele><time>2026-04-27T10:30:50.002Z</time></trkpt><trkpt lat="45.95192770753726" lon="12.779082405720889"><ele>29.0</ele><time>2026-04-27T10:30:51.002Z</time></trkpt><trkpt lat="45.951910734563135" lon="12.778852312513823"><ele>29.0</ele><time>2026-04-27T10:30:52.002Z</time></trkpt><trkpt lat="45.951893934318335" lon="12.778640822422027"><ele>28.666666666666664</ele><time>2026-04-27T10:30:53.002Z</time></trkpt><trkpt lat="45.95187285531569" lon="12.778429024205382"><ele>28.333333333333336</ele><time>2026-04-27T10:30:54.002Z</time></trkpt><trkpt lat="45.95184892712891" lon="12.778217491019305"><ele>28.0</ele><time>2026-04-27T10:30:55.002Z</time></trkpt><trkpt lat="45.95182132436153" lon="12.778002705946136"><ele>28.0</ele><time>2026-04-27T10:30:56.002Z</time></trkpt><trkpt lat="45.95179876659952" lon="12.77778014453556"><ele>28.0</ele><time>2026-04-27T10:30:57.002Z</time></trkpt><trkpt lat="45.95177993659257" lon="12.77756135866275"><ele>28.0</ele><time>2026-04-27T10:30:58.002Z</time></trkpt><trkpt lat="45.95175974018174" lon="12.777348592412004"><ele>27.75</ele><time>2026-04-27T10:30:59.002Z</time></trkpt><trkpt lat="45.951741804687316" lon="12.777153108045995"><ele>27.5</ele><time>2026-04-27T10:31:00.002Z</time></trkpt><trkpt lat="45.95172336831332" lon="12.776948241877623"><ele>27.25</ele><time>2026-04-27T10:31:01.002Z</time></trkpt><trkpt lat="45.95170388358518" lon="12.776743293337384"><ele>27.0</ele><time>2026-04-27T10:31:02.002Z</time></trkpt><trkpt lat="45.95168382525268" lon="12.776543187895573"><ele>27.25</ele><time>2026-04-27T10:31:03.002Z</time></trkpt><trkpt lat="45.951666501293886" lon="12.776359289869045"><ele>27.5</ele><time>2026-04-27T10:31:04.002Z</time></trkpt><trkpt lat="45.95164769292608" lon="12.776168954251554"><ele>27.75</ele><time>2026-04-27T10:31:05.002Z</time></trkpt><trkpt lat="45.951627033439415" lon="12.775973188153127"><ele>28.0</ele><time>2026-04-27T10:31:06.002Z</time></trkpt><trkpt lat="45.95160526012485" lon="12.775778820467822"><ele>28.0</ele><time>2026-04-27T10:31:07.002Z</time></trkpt><trkpt lat="45.95158408836171" lon="12.775584483734308"><ele>28.0</ele><time>2026-04-27T10:31:08.002Z</time></trkpt><trkpt lat="45.95157654545223" lon="12.775355714249253"><ele>28.0</ele><time>2026-04-27T10:31:09.002Z</time></trkpt><trkpt lat="45.951550715223284" lon="12.775095575790917"><ele>28.0</ele><time>2026-04-27T10:31:10.002Z</time></trkpt><trkpt lat="45.9515071190018" lon="12.7748087532836"><ele>28.0</ele><time>2026-04-27T10:31:11.002Z</time></trkpt><trkpt lat="45.951480454663006" lon="12.774489729353444"><ele>28.0</ele><time>2026-04-27T10:31:12.002Z</time></trkpt><trkpt lat="45.951449834865464" lon="12.77413939838654"><ele>28.0</ele><time>2026-04-27T10:31:13Z</time></trkpt><trkpt lat="45.95141942988553" lon="12.773789277595846"><ele>28.0</ele><time>2026-04-27T10:31:14Z</time></trkpt><trkpt lat="45.951388167296685" lon="12.773439534379683"><ele>28.0</ele><time>2026-04-27T10:31:15Z</time></trkpt><trkpt lat="45.95135259308699" lon="12.773074667352377"><ele>28.0</ele><time>2026-04-27T10:31:16Z</time></trkpt><trkpt lat="45.951315659137784" lon="12.772705064105555"><ele>27.0</ele><time>2026-04-27T10:31:17Z</time></trkpt><trkpt lat="45.951281015604444" lon="12.77233253494004"><ele>26.0</ele><time>2026-04-27T10:31:18Z</time></trkpt><trkpt lat="45.95124592784259" lon="12.771957539072007"><ele>26.0</ele><time>2026-04-27T10:31:19Z</time></trkpt><trkpt lat="45.95121022852658" lon="12.771585342777295"><ele>26.0</ele><time>2026-04-27T10:31:20Z</time></trkpt><trkpt lat="45.95117460136287" lon="12.77121363703682"><ele>27.0</ele><time>2026-04-27T10:31:21Z</time></trkpt><trkpt lat="45.951139212213874" lon="12.770843674715781"><ele>28.0</ele><time>2026-04-27T10:31:22Z</time></trkpt><trkpt lat="45.95110208523724" lon="12.77047253483381"><ele>27.5</ele><time>2026-04-27T10:31:23Z</time></trkpt><trkpt lat="45.95106193039179" lon="12.77009277401279"><ele>27.0</ele><time>2026-04-27T10:31:24Z</time></trkpt><trkpt lat="45.95101823217209" lon="12.769691158944823"><ele>26.5</ele><time>2026-04-27T10:31:25Z</time></trkpt><trkpt lat="45.950981998081424" lon="12.76932757298054"><ele>26.0</ele><time>2026-04-27T10:31:26Z</time></trkpt><trkpt lat="45.95094841221368" lon="12.768986157895412"><ele>26.0</ele><time>2026-04-27T10:31:27Z</time></trkpt><trkpt lat="45.95091896710397" lon="12.768663503958853"><ele>26.0</ele><time>2026-04-27T10:31:28Z</time></trkpt><trkpt lat="45.95089325628174" lon="12.768356032843194"><ele>26.0</ele><time>2026-04-27T10:31:29Z</time></trkpt><trkpt lat="45.95086637355705" lon="12.768054139941254"><ele>26.0</ele><time>2026-04-27T10:31:30Z</time></trkpt><trkpt lat="45.95083978293394" lon="12.76775383686749"><ele>26.0</ele><time>2026-04-27T10:31:31Z</time></trkpt><trkpt lat="45.95081154680186" lon="12.767455803819631"><ele>26.0</ele><time>2026-04-27T10:31:32Z</time></trkpt><trkpt lat="45.950783113066116" lon="12.767156322623046"><ele>25.666666666666664</ele><time>2026-04-27T10:31:33Z</time></trkpt><trkpt lat="45.950752827544655" lon="12.766853696108944"><ele>25.333333333333336</ele><time>2026-04-27T10:31:34Z</time></trkpt><trkpt lat="45.95071905404686" lon="12.766528674227906"><ele>25.0</ele><time>2026-04-27T10:31:35Z</time></trkpt><trkpt lat="45.95068503778899" lon="12.76618626913378"><ele>25.333333333333336</ele><time>2026-04-27T10:31:36Z</time></trkpt><trkpt lat="45.95065512064815" lon="12.765877505373085"><ele>25.666666666666664</ele><time>2026-04-27T10:31:37Z</time></trkpt><trkpt lat="45.95062302053478" lon="12.765577740596138"><ele>26.0</ele><time>2026-04-27T10:31:38Z</time></trkpt><trkpt lat="45.95059292956938" lon="12.765270562613042"><ele>26.5</ele><time>2026-04-27T10:31:39Z</time></trkpt><trkpt lat="45.9505631785622" lon="12.764937843051168"><ele>27.0</ele><time>2026-04-27T10:31:40Z</time></trkpt><trkpt lat="45.95053293419297" lon="12.764618325520486"><ele>26.333333333333336</ele><time>2026-04-27T10:31:41Z</time></trkpt><trkpt lat="45.950502855830145" lon="12.764311532890142"><ele>25.666666666666668</ele><time>2026-04-27T10:31:42Z</time></trkpt><trkpt lat="45.95047357452627" lon="12.764016020822673"><ele>25.0</ele><time>2026-04-27T10:31:43Z</time></trkpt><trkpt lat="45.95044645528058" lon="12.763729551653032"><ele>24.333333333333336</ele><time>2026-04-27T10:31:44Z</time></trkpt><trkpt lat="45.95041699136449" lon="12.76343429889949"><ele>23.666666666666668</ele><time>2026-04-27T10:31:45Z</time></trkpt><trkpt lat="45.950382760738904" lon="12.763129499903474"><ele>23.0</ele><time>2026-04-27T10:31:46Z</time></trkpt><trkpt lat="45.950349705156235" lon="12.762832688422435"><ele>23.0</ele><time>2026-04-27T10:31:47Z</time></trkpt><trkpt lat="45.95032401478549" lon="12.762562556471082"><ele>23.0</ele><time>2026-04-27T10:31:48Z</time></trkpt><trkpt lat="45.95030519088036" lon="12.762353863296442"><ele>23.0</ele><time>2026-04-27T10:31:49Z</time></trkpt><trkpt lat="45.950283573522356" lon="12.762179488406854"><ele>23.0</ele><time>2026-04-27T10:31:50Z</time></trkpt><trkpt lat="45.950265928496044" lon="12.762019048736647"><ele>23.0</ele><time>2026-04-27T10:31:51Z</time></trkpt><trkpt lat="45.95025052678247" lon="12.761875686223622"><ele>23.0</ele><time>2026-04-27T10:31:52Z</time></trkpt><trkpt lat="45.95023872956895" lon="12.761737264988577"><ele>23.0</ele><time>2026-04-27T10:31:53Z</time></trkpt><trkpt lat="45.95022599969557" lon="12.761599098023085"><ele>23.0</ele><time>2026-04-27T10:31:54.001Z</time></trkpt><trkpt lat="45.950208396807305" lon="12.761442028655496"><ele>23.0</ele><time>2026-04-27T10:31:55.001Z</time></trkpt><trkpt lat="45.95020569913301" lon="12.76126628371554"><ele>23.0</ele><time>2026-04-27T10:31:56.001Z</time></trkpt><trkpt lat="45.950190027277095" lon="12.761106503852504"><ele>23.0</ele><time>2026-04-27T10:31:57.001Z</time></trkpt><trkpt lat="45.95017496059589" lon="12.760952893874904"><ele>23.0</ele><time>2026-04-27T10:31:58.001Z</time></trkpt><trkpt lat="45.95016100558726" lon="12.7608106181739"><ele>23.0</ele><time>2026-04-27T10:31:59.001Z</time></trkpt><trkpt lat="45.95014816878091" lon="12.760679742566921"><ele>23.166666666666668</ele><time>2026-04-27T10:32:00.001Z</time></trkpt><trkpt lat="45.9501360094311" lon="12.76055577384471"><ele>23.333333333333336</ele><time>2026-04-27T10:32:01.001Z</time></trkpt><trkpt lat="45.95010854376106" lon="12.76044231774299"><ele>23.5</ele><time>2026-04-27T10:32:02.001Z</time></trkpt><trkpt lat="45.9500983994902" lon="12.760336324843001"><ele>23.666666666666668</ele><time>2026-04-27T10:32:03.001Z</time></trkpt><trkpt lat="45.95008516572763" lon="12.760212388393395"><ele>23.833333333333332</ele><time>2026-04-27T10:32:04.001Z</time></trkpt><trkpt lat="45.95007569833183" lon="12.760088357199209"><ele>24.0</ele><time>2026-04-27T10:32:05.001Z</time></trkpt><trkpt lat="45.950069780376865" lon="12.759969309284203"><ele>24.4</ele><time>2026-04-27T10:32:06.001Z</time></trkpt><trkpt lat="45.95006642800589" lon="12.759811455906812"><ele>24.799999999999997</ele><time>2026-04-27T10:32:07.001Z</time></trkpt><trkpt lat="45.95007935085334" lon="12.759639209131755"><ele>25.200000000000003</ele><time>2026-04-27T10:32:08.001Z</time></trkpt><trkpt lat="45.95010174837219" lon="12.759526421156371"><ele>25.6</ele><time>2026-04-27T10:32:09.001Z</time></trkpt><trkpt lat="45.95014605685555" lon="12.759377231884205"><ele>26.0</ele><time>2026-04-27T10:32:11.001Z</time></trkpt><trkpt lat="45.95019073437497" lon="12.75922287129199"><ele>26.0</ele><time>2026-04-27T10:32:13.001Z</time></trkpt><trkpt lat="45.95021600283554" lon="12.759060033085998"><ele>26.0</ele><time>2026-04-27T10:32:15.001Z</time></trkpt><trkpt lat="45.95016865926595" lon="12.758887558970313"><ele>26.0</ele><time>2026-04-27T10:32:17.001Z</time></trkpt><trkpt lat="45.95012306555328" lon="12.758798035266873"><ele>26.0</ele><time>2026-04-27T10:32:18.001Z</time></trkpt><trkpt lat="45.95007671279023" lon="12.758726573887264"><ele>26.0</ele><time>2026-04-27T10:32:19.001Z</time></trkpt><trkpt lat="45.95003081462042" lon="12.758649353139031"><ele>25.8</ele><time>2026-04-27T10:32:20.001Z</time></trkpt><trkpt lat="45.94998062235782" lon="12.758537298164583"><ele>25.6</ele><time>2026-04-27T10:32:21.001Z</time></trkpt><trkpt lat="45.94994210008692" lon="12.758404950450792"><ele>25.4</ele><time>2026-04-27T10:32:22.001Z</time></trkpt><trkpt lat="45.94992258495188" lon="12.758274734732737"><ele>25.2</ele><time>2026-04-27T10:32:23.001Z</time></trkpt><trkpt lat="45.94990833023458" lon="12.758152698625365"><ele>25.0</ele><time>2026-04-27T10:32:24.001Z</time></trkpt><trkpt lat="45.94989521303244" lon="12.75803636134877"><ele>25.0</ele><time>2026-04-27T10:32:25.001Z</time></trkpt><trkpt lat="45.94987806815907" lon="12.75791758369378"><ele>25.0</ele><time>2026-04-27T10:32:26.001Z</time></trkpt><trkpt lat="45.94985816030252" lon="12.757800409657946"><ele>25.0</ele><time>2026-04-27T10:32:27.001Z</time></trkpt><trkpt lat="45.94985882376832" lon="12.757665383100068"><ele>25.0</ele><time>2026-04-27T10:32:28.001Z</time></trkpt><trkpt lat="45.94982247501753" lon="12.757515937479184"><ele>25.0</ele><time>2026-04-27T10:32:29.001Z</time></trkpt><trkpt lat="45.949808680150994" lon="12.757356719526422"><ele>25.0</ele><time>2026-04-27T10:32:30.001Z</time></trkpt><trkpt lat="45.949791230333965" lon="12.757176017266426"><ele>25.0</ele><time>2026-04-27T10:32:31.001Z</time></trkpt><trkpt lat="45.949775397976424" lon="12.757007638785266"><ele>25.0</ele><time>2026-04-27T10:32:32.001Z</time></trkpt><trkpt lat="45.949751500329924" lon="12.756810245643958"><ele>25.0</ele><time>2026-04-27T10:32:33.002Z</time></trkpt><trkpt lat="45.94975490142014" lon="12.756558822907289"><ele>24.666666666666668</ele><time>2026-04-27T10:32:34.002Z</time></trkpt><trkpt lat="45.949722179288806" lon="12.756250274839173"><ele>24.333333333333336</ele><time>2026-04-27T10:32:35.002Z</time></trkpt><trkpt lat="45.94968782744661" lon="12.75592165409372"><ele>24.0</ele><time>2026-04-27T10:32:36.002Z</time></trkpt><trkpt lat="45.94965607488078" lon="12.7555932850412"><ele>24.0</ele><time>2026-04-27T10:32:37.002Z</time></trkpt><trkpt lat="45.949618024202124" lon="12.755266809918691"><ele>24.0</ele><time>2026-04-27T10:32:38.002Z</time></trkpt><trkpt lat="45.94959452626753" lon="12.754955641378267"><ele>24.0</ele><time>2026-04-27T10:32:39.002Z</time></trkpt><trkpt lat="45.94956721340283" lon="12.754657050973197"><ele>24.0</ele><time>2026-04-27T10:32:40.002Z</time></trkpt><trkpt lat="45.94953964222596" lon="12.75438092509665"><ele>24.0</ele><time>2026-04-27T10:32:41.002Z</time></trkpt><trkpt lat="45.949512499416755" lon="12.754115607233388"><ele>24.0</ele><time>2026-04-27T10:32:42.002Z</time></trkpt><trkpt lat="45.94948715072519" lon="12.753864570220504"><ele>24.0</ele><time>2026-04-27T10:32:43.002Z</time></trkpt><trkpt lat="45.94946472703997" lon="12.753627593295006"><ele>24.0</ele><time>2026-04-27T10:32:44.002Z</time></trkpt><trkpt lat="45.94944207419475" lon="12.753378507269518"><ele>24.0</ele><time>2026-04-27T10:32:45.002Z</time></trkpt><trkpt lat="45.949415725754854" lon="12.753120505899226"><ele>24.0</ele><time>2026-04-27T10:32:46.002Z</time></trkpt><trkpt lat="45.94938989160945" lon="12.752856953264075"><ele>24.0</ele><time>2026-04-27T10:32:47.002Z</time></trkpt><trkpt lat="45.94936354117837" lon="12.75259183451584"><ele>24.0</ele><time>2026-04-27T10:32:48.002Z</time></trkpt><trkpt lat="45.94933983410972" lon="12.7523227623847"><ele>24.0</ele><time>2026-04-27T10:32:49.002Z</time></trkpt><trkpt lat="45.949315135386264" lon="12.752050844320403"><ele>24.0</ele><time>2026-04-27T10:32:50.002Z</time></trkpt><trkpt lat="45.94928835085071" lon="12.75177847298019"><ele>24.0</ele><time>2026-04-27T10:32:51.002Z</time></trkpt><trkpt lat="45.94926192745483" lon="12.751504912270976"><ele>23.666666666666668</ele><time>2026-04-27T10:32:52.002Z</time></trkpt><trkpt lat="45.949236880864355" lon="12.751230451521568"><ele>23.333333333333336</ele><time>2026-04-27T10:32:53.002Z</time></trkpt><trkpt lat="45.94920957005889" lon="12.750970419364071"><ele>23.0</ele><time>2026-04-27T10:32:54.002Z</time></trkpt><trkpt lat="45.949178641684966" lon="12.75071678988991"><ele>23.0</ele><time>2026-04-27T10:32:55.002Z</time></trkpt><trkpt lat="45.9491505425118" lon="12.750458253716374"><ele>23.0</ele><time>2026-04-27T10:32:56.002Z</time></trkpt><trkpt lat="45.94912593348411" lon="12.750203650820168"><ele>23.0</ele><time>2026-04-27T10:32:57.002Z</time></trkpt><trkpt lat="45.94910144197475" lon="12.749946925162826"><ele>23.0</ele><time>2026-04-27T10:32:58.002Z</time></trkpt><trkpt lat="45.94908226836498" lon="12.749694350691893"><ele>23.0</ele><time>2026-04-27T10:32:59.002Z</time></trkpt><trkpt lat="45.94906319993323" lon="12.749449277567233"><ele>23.0</ele><time>2026-04-27T10:33:00.002Z</time></trkpt><trkpt lat="45.94903926911259" lon="12.749209693190572"><ele>23.333333333333336</ele><time>2026-04-27T10:33:01.002Z</time></trkpt><trkpt lat="45.94901673732075" lon="12.74896453744894"><ele>23.666666666666668</ele><time>2026-04-27T10:33:02.002Z</time></trkpt><trkpt lat="45.94899192789897" lon="12.748716705616008"><ele>24.0</ele><time>2026-04-27T10:33:03.002Z</time></trkpt><trkpt lat="45.94896458532848" lon="12.748467319414633"><ele>24.0</ele><time>2026-04-27T10:33:04.002Z</time></trkpt><trkpt lat="45.948936102499374" lon="12.748209922811693"><ele>24.0</ele><time>2026-04-27T10:33:05.002Z</time></trkpt><trkpt lat="45.9489091500624" lon="12.747964854284449"><ele>24.0</ele><time>2026-04-27T10:33:06.002Z</time></trkpt><trkpt lat="45.94888535078847" lon="12.747737754067796"><ele>23.75</ele><time>2026-04-27T10:33:07.002Z</time></trkpt><trkpt lat="45.94886196856258" lon="12.74752197777217"><ele>23.5</ele><time>2026-04-27T10:33:08.002Z</time></trkpt><trkpt lat="45.94885749534111" lon="12.747320817238498"><ele>23.25</ele><time>2026-04-27T10:33:09.002Z</time></trkpt><trkpt lat="45.94882272671095" lon="12.747136130747291"><ele>23.0</ele><time>2026-04-27T10:33:10.002Z</time></trkpt><trkpt lat="45.9488056343248" lon="12.746954951127437"><ele>23.25</ele><time>2026-04-27T10:33:11.002Z</time></trkpt><trkpt lat="45.9488043477957" lon="12.7467769397719"><ele>23.5</ele><time>2026-04-27T10:33:12.002Z</time></trkpt><trkpt lat="45.94878607423976" lon="12.746589279389177"><ele>23.75</ele><time>2026-04-27T10:33:13.002Z</time></trkpt><trkpt lat="45.948765578453894" lon="12.7463849515435"><ele>24.0</ele><time>2026-04-27T10:33:14.002Z</time></trkpt><trkpt lat="45.94874446907559" lon="12.746165823665864"><ele>24.0</ele><time>2026-04-27T10:33:15.003Z</time></trkpt><trkpt lat="45.94872395102024" lon="12.745957574173898"><ele>24.0</ele><time>2026-04-27T10:33:16.003Z</time></trkpt><trkpt lat="45.948703987353746" lon="12.745752536464531"><ele>24.0</ele><time>2026-04-27T10:33:17.003Z</time></trkpt><trkpt lat="45.948683954265" lon="12.745547067386894"><ele>24.0</ele><time>2026-04-27T10:33:18.003Z</time></trkpt><trkpt lat="45.94865501485015" lon="12.745343609568673"><ele>23.666666666666668</ele><time>2026-04-27T10:33:19Z</time></trkpt><trkpt lat="45.948642563439805" lon="12.745122314400325"><ele>23.333333333333336</ele><time>2026-04-27T10:33:20Z</time></trkpt><trkpt lat="45.9486233762858" lon="12.744902250940735"><ele>23.0</ele><time>2026-04-27T10:33:21Z</time></trkpt><trkpt lat="45.948606231090935" lon="12.744690419053342"><ele>23.0</ele><time>2026-04-27T10:33:22Z</time></trkpt><trkpt lat="45.94859291553622" lon="12.744496765095157"><ele>23.0</ele><time>2026-04-27T10:33:23Z</time></trkpt><trkpt lat="45.948592177240705" lon="12.744311314287948"><ele>23.0</ele><time>2026-04-27T10:33:24Z</time></trkpt><trkpt lat="45.94860119369359" lon="12.744144049410826"><ele>23.0</ele><time>2026-04-27T10:33:25Z</time></trkpt><trkpt lat="45.9486199010336" lon="12.743986195924414"><ele>23.0</ele><time>2026-04-27T10:33:26Z</time></trkpt><trkpt lat="45.94864107094142" lon="12.74383825711524"><ele>23.0</ele><time>2026-04-27T10:33:27Z</time></trkpt><trkpt lat="45.94865543124691" lon="12.743685380642575"><ele>23.0</ele><time>2026-04-27T10:33:28Z</time></trkpt><trkpt lat="45.948637589881386" lon="12.74354939640171"><ele>23.0</ele><time>2026-04-27T10:33:29Z</time></trkpt><trkpt lat="45.948593708690204" lon="12.743409355453084"><ele>23.0</ele><time>2026-04-27T10:33:30Z</time></trkpt><trkpt lat="45.948533536423795" lon="12.743269395016101"><ele>23.0</ele><time>2026-04-27T10:33:31Z</time></trkpt><trkpt lat="45.948476842058746" lon="12.743114747551198"><ele>23.0</ele><time>2026-04-27T10:33:32Z</time></trkpt><trkpt lat="45.94843349658479" lon="12.742942610807365"><ele>23.0</ele><time>2026-04-27T10:33:33Z</time></trkpt><trkpt lat="45.94840899070067" lon="12.742754321201444"><ele>23.0</ele><time>2026-04-27T10:33:34Z</time></trkpt><trkpt lat="45.948387928088174" lon="12.742547424157392"><ele>23.0</ele><time>2026-04-27T10:33:35Z</time></trkpt><trkpt lat="45.948369117221645" lon="12.742330958007916"><ele>23.0</ele><time>2026-04-27T10:33:36Z</time></trkpt><trkpt lat="45.94834796778621" lon="12.742102956533033"><ele>23.0</ele><time>2026-04-27T10:33:37Z</time></trkpt><trkpt lat="45.94832426171808" lon="12.741881831610215"><ele>22.75</ele><time>2026-04-27T10:33:38Z</time></trkpt><trkpt lat="45.9483038015012" lon="12.741679085454784"><ele>22.5</ele><time>2026-04-27T10:33:39Z</time></trkpt><trkpt lat="45.94828313778323" lon="12.741471833189909"><ele>22.25</ele><time>2026-04-27T10:33:40Z</time></trkpt><trkpt lat="45.94826011465763" lon="12.741248342663047"><ele>22.0</ele><time>2026-04-27T10:33:41Z</time></trkpt><trkpt lat="45.94823263108592" lon="12.741018069848456"><ele>22.0</ele><time>2026-04-27T10:33:42Z</time></trkpt><trkpt lat="45.94820942096108" lon="12.74077574343691"><ele>22.0</ele><time>2026-04-27T10:33:43Z</time></trkpt><trkpt lat="45.948188278383356" lon="12.740525770864867"><ele>22.0</ele><time>2026-04-27T10:33:44Z</time></trkpt><trkpt lat="45.948165541806475" lon="12.74026798454707"><ele>22.333333333333332</ele><time>2026-04-27T10:33:45Z</time></trkpt><trkpt lat="45.94814169969281" lon="12.740009118806077"><ele>22.666666666666668</ele><time>2026-04-27T10:33:46Z</time></trkpt><trkpt lat="45.94811693229722" lon="12.739755341479714"><ele>23.0</ele><time>2026-04-27T10:33:47Z</time></trkpt><trkpt lat="45.94809216984791" lon="12.739514830773594"><ele>23.666666666666668</ele><time>2026-04-27T10:33:48Z</time></trkpt><trkpt lat="45.94806484605935" lon="12.739275689908238"><ele>24.333333333333336</ele><time>2026-04-27T10:33:49Z</time></trkpt><trkpt lat="45.94803991786587" lon="12.739040348130862"><ele>25.0</ele><time>2026-04-27T10:33:50Z</time></trkpt><trkpt lat="45.94802106057568" lon="12.7388167161816"><ele>25.0</ele><time>2026-04-27T10:33:51Z</time></trkpt><trkpt lat="45.94800268969481" lon="12.738604107049072"><ele>25.0</ele><time>2026-04-27T10:33:52Z</time></trkpt><trkpt lat="45.947983021735055" lon="12.738394343500548"><ele>25.0</ele><time>2026-04-27T10:33:53.001Z</time></trkpt><trkpt lat="45.94796459374822" lon="12.738185133989319"><ele>25.0</ele><time>2026-04-27T10:33:54.001Z</time></trkpt><trkpt lat="45.94794623459609" lon="12.737974494353788"><ele>24.666666666666668</ele><time>2026-04-27T10:33:55.001Z</time></trkpt><trkpt lat="45.94792494538129" lon="12.737763594350799"><ele>24.333333333333336</ele><time>2026-04-27T10:33:56.001Z</time></trkpt><trkpt lat="45.94790374303215" lon="12.73754783664788"><ele>24.0</ele><time>2026-04-27T10:33:57.001Z</time></trkpt><trkpt lat="45.94787995352648" lon="12.737324676439634"><ele>23.666666666666668</ele><time>2026-04-27T10:33:58.001Z</time></trkpt><trkpt lat="45.94785749497454" lon="12.73709437916198"><ele>23.333333333333336</ele><time>2026-04-27T10:33:59.001Z</time></trkpt><trkpt lat="45.94783832796899" lon="12.736866481051482"><ele>23.0</ele><time>2026-04-27T10:34:00.001Z</time></trkpt><trkpt lat="45.94781579752367" lon="12.736648855369632"><ele>22.75</ele><time>2026-04-27T10:34:01.001Z</time></trkpt><trkpt lat="45.947791183290946" lon="12.736447650356993"><ele>22.5</ele><time>2026-04-27T10:34:02.001Z</time></trkpt><trkpt lat="45.94776748299105" lon="12.736252341036803"><ele>22.25</ele><time>2026-04-27T10:34:03.001Z</time></trkpt><trkpt lat="45.947747843405786" lon="12.736058561248665"><ele>22.0</ele><time>2026-04-27T10:34:04.001Z</time></trkpt><trkpt lat="45.947732033140724" lon="12.735858928737569"><ele>21.666666666666664</ele><time>2026-04-27T10:34:05.001Z</time></trkpt><trkpt lat="45.94771210335125" lon="12.735643819211298"><ele>21.333333333333332</ele><time>2026-04-27T10:34:06.001Z</time></trkpt><trkpt lat="45.9476838875784" lon="12.73540360253808"><ele>21.0</ele><time>2026-04-27T10:34:07.001Z</time></trkpt><trkpt lat="45.94765915202391" lon="12.735154313874435"><ele>21.0</ele><time>2026-04-27T10:34:08.001Z</time></trkpt><trkpt lat="45.947637353889554" lon="12.734907101565275"><ele>21.0</ele><time>2026-04-27T10:34:09.001Z</time></trkpt><trkpt lat="45.94761513029119" lon="12.734664478731242"><ele>21.0</ele><time>2026-04-27T10:34:10.001Z</time></trkpt><trkpt lat="45.94759494244544" lon="12.734419054501352"><ele>21.333333333333332</ele><time>2026-04-27T10:34:11.001Z</time></trkpt><trkpt lat="45.94757089683862" lon="12.734173824508737"><ele>21.666666666666664</ele><time>2026-04-27T10:34:12.001Z</time></trkpt><trkpt lat="45.947547660071514" lon="12.733934650042169"><ele>22.0</ele><time>2026-04-27T10:34:13.001Z</time></trkpt><trkpt lat="45.94752628900106" lon="12.733715930017468"><ele>22.333333333333332</ele><time>2026-04-27T10:34:14.001Z</time></trkpt><trkpt lat="45.94750673134078" lon="12.733499509182876"><ele>22.666666666666668</ele><time>2026-04-27T10:34:15.001Z</time></trkpt><trkpt lat="45.94748400935347" lon="12.733268644771075"><ele>23.0</ele><time>2026-04-27T10:34:16.001Z</time></trkpt><trkpt lat="45.94745567826338" lon="12.733025175172518"><ele>23.0</ele><time>2026-04-27T10:34:17.001Z</time></trkpt><trkpt lat="45.947425238688545" lon="12.732762688900127"><ele>23.0</ele><time>2026-04-27T10:34:18.001Z</time></trkpt><trkpt lat="45.94741311687233" lon="12.732486509013667"><ele>23.0</ele><time>2026-04-27T10:34:19.001Z</time></trkpt><trkpt lat="45.94738928618161" lon="12.732230889788218"><ele>23.0</ele><time>2026-04-27T10:34:20.001Z</time></trkpt><trkpt lat="45.94736748461868" lon="12.73200094193141"><ele>23.0</ele><time>2026-04-27T10:34:21.001Z</time></trkpt><trkpt lat="45.947329785390544" lon="12.731784532919356"><ele>23.0</ele><time>2026-04-27T10:34:22.001Z</time></trkpt><trkpt lat="45.947308923979264" lon="12.731570824793549"><ele>23.0</ele><time>2026-04-27T10:34:23.001Z</time></trkpt><trkpt lat="45.94730292541342" lon="12.731343506560721"><ele>23.0</ele><time>2026-04-27T10:34:24.001Z</time></trkpt><trkpt lat="45.94726588704776" lon="12.731121363010727"><ele>23.0</ele><time>2026-04-27T10:34:25.001Z</time></trkpt><trkpt lat="45.94725879518746" lon="12.730887844552717"><ele>23.0</ele><time>2026-04-27T10:34:26.001Z</time></trkpt><trkpt lat="45.94722029492158" lon="12.730654152215513"><ele>23.0</ele><time>2026-04-27T10:34:27.001Z</time></trkpt><trkpt lat="45.94720004215204" lon="12.730415667655075"><ele>23.0</ele><time>2026-04-27T10:34:28.001Z</time></trkpt><trkpt lat="45.94717703195437" lon="12.730177057734796"><ele>23.0</ele><time>2026-04-27T10:34:29.001Z</time></trkpt><trkpt lat="45.947152807912204" lon="12.729950693947922"><ele>23.0</ele><time>2026-04-27T10:34:30.001Z</time></trkpt><trkpt lat="45.94714904646234" lon="12.729738720792096"><ele>23.0</ele><time>2026-04-27T10:34:31.001Z</time></trkpt><trkpt lat="45.9471291372125" lon="12.72953305646243"><ele>23.0</ele><time>2026-04-27T10:34:32.001Z</time></trkpt><trkpt lat="45.94709297994867" lon="12.729336341887558"><ele>23.0</ele><time>2026-04-27T10:34:33.001Z</time></trkpt><trkpt lat="45.94707484695186" lon="12.729137779488635"><ele>23.0</ele><time>2026-04-27T10:34:34.002Z</time></trkpt><trkpt lat="45.947056454890635" lon="12.728931753579278"><ele>23.0</ele><time>2026-04-27T10:34:35.002Z</time></trkpt><trkpt lat="45.94703576283456" lon="12.728726239990417"><ele>22.666666666666668</ele><time>2026-04-27T10:34:36.002Z</time></trkpt><trkpt lat="45.9470166776344" lon="12.728517820973705"><ele>22.333333333333332</ele><time>2026-04-27T10:34:37.002Z</time></trkpt><trkpt lat="45.946997521455124" lon="12.728302105472274"><ele>22.0</ele><time>2026-04-27T10:34:38.002Z</time></trkpt><trkpt lat="45.946976475956816" lon="12.728079139234278"><ele>22.0</ele><time>2026-04-27T10:34:39.002Z</time></trkpt><trkpt lat="45.94695596927745" lon="12.727856861654171"><ele>22.0</ele><time>2026-04-27T10:34:40.002Z</time></trkpt><trkpt lat="45.946934209262054" lon="12.72762796631758"><ele>22.0</ele><time>2026-04-27T10:34:41.002Z</time></trkpt><trkpt lat="45.94691441626254" lon="12.72739952133869"><ele>22.0</ele><time>2026-04-27T10:34:42.002Z</time></trkpt><trkpt lat="45.94689567855991" lon="12.727177711790178"><ele>22.0</ele><time>2026-04-27T10:34:43.002Z</time></trkpt><trkpt lat="45.946875320111836" lon="12.726961525057765"><ele>22.0</ele><time>2026-04-27T10:34:44.002Z</time></trkpt><trkpt lat="45.94685214610736" lon="12.726746668577269"><ele>22.333333333333332</ele><time>2026-04-27T10:34:45.002Z</time></trkpt><trkpt lat="45.94683200082615" lon="12.726533041029422"><ele>22.666666666666668</ele><time>2026-04-27T10:34:46.002Z</time></trkpt><trkpt lat="45.94681062417533" lon="12.726318167781558"><ele>23.0</ele><time>2026-04-27T10:34:47.002Z</time></trkpt><trkpt lat="45.94679004025913" lon="12.726101869238004"><ele>23.0</ele><time>2026-04-27T10:34:48.002Z</time></trkpt><trkpt lat="45.94676853400804" lon="12.725886829346763"><ele>23.0</ele><time>2026-04-27T10:34:49.002Z</time></trkpt><trkpt lat="45.94674795384605" lon="12.725669459776938"><ele>23.0</ele><time>2026-04-27T10:34:50.002Z</time></trkpt><trkpt lat="45.94672798287239" lon="12.725448825501308"><ele>22.666666666666668</ele><time>2026-04-27T10:34:51.002Z</time></trkpt><trkpt lat="45.94670748417182" lon="12.725227356809981"><ele>22.333333333333332</ele><time>2026-04-27T10:34:52.002Z</time></trkpt><trkpt lat="45.94668445347135" lon="12.7250121757802"><ele>22.0</ele><time>2026-04-27T10:34:53.002Z</time></trkpt><trkpt lat="45.94666546609326" lon="12.724807802106625"><ele>22.0</ele><time>2026-04-27T10:34:54.002Z</time></trkpt><trkpt lat="45.94664839301286" lon="12.724615775357288"><ele>22.0</ele><time>2026-04-27T10:34:55.002Z</time></trkpt><trkpt lat="45.946627818212114" lon="12.724426119314316"><ele>22.0</ele><time>2026-04-27T10:34:56.002Z</time></trkpt><trkpt lat="45.946607418022396" lon="12.724228447060554"><ele>22.0</ele><time>2026-04-27T10:34:57.002Z</time></trkpt><trkpt lat="45.946584086577076" lon="12.72401655017724"><ele>21.75</ele><time>2026-04-27T10:34:58.002Z</time></trkpt><trkpt lat="45.94656085416429" lon="12.723804933889966"><ele>21.5</ele><time>2026-04-27T10:34:59.002Z</time></trkpt><trkpt lat="45.94654363952133" lon="12.72361104272706"><ele>21.25</ele><time>2026-04-27T10:35:00.002Z</time></trkpt><trkpt lat="45.94652760745248" lon="12.723415276968394"><ele>21.0</ele><time>2026-04-27T10:35:01.002Z</time></trkpt><trkpt lat="45.946511503207944" lon="12.723214068683863"><ele>21.666666666666668</ele><time>2026-04-27T10:35:02.002Z</time></trkpt><trkpt lat="45.94649460467575" lon="12.723009106143612"><ele>22.333333333333336</ele><time>2026-04-27T10:35:03.002Z</time></trkpt><trkpt lat="45.946471703131515" lon="12.722792538027635"><ele>23.0</ele><time>2026-04-27T10:35:04.002Z</time></trkpt><trkpt lat="45.94644644219189" lon="12.722556497911977"><ele>23.333333333333336</ele><time>2026-04-27T10:35:05.002Z</time></trkpt><trkpt lat="45.94642147762812" lon="12.72230149511811"><ele>23.666666666666668</ele><time>2026-04-27T10:35:06.002Z</time></trkpt><trkpt lat="45.94639608843466" lon="12.722041261522545"><ele>24.0</ele><time>2026-04-27T10:35:07.002Z</time></trkpt><trkpt lat="45.946370142088774" lon="12.721771883848518"><ele>24.333333333333336</ele><time>2026-04-27T10:35:08.002Z</time></trkpt><trkpt lat="45.9463429957102" lon="12.721480331953545"><ele>24.666666666666668</ele><time>2026-04-27T10:35:09.002Z</time></trkpt><trkpt lat="45.94631570936394" lon="12.72118858453164"><ele>25.0</ele><time>2026-04-27T10:35:10.002Z</time></trkpt><trkpt lat="45.94629062345438" lon="12.720910733023008"><ele>25.0</ele><time>2026-04-27T10:35:11.002Z</time></trkpt><trkpt lat="45.94626554295662" lon="12.72065017694036"><ele>25.0</ele><time>2026-04-27T10:35:12.002Z</time></trkpt><trkpt lat="45.946242255776106" lon="12.720403190008877"><ele>25.0</ele><time>2026-04-27T10:35:13.002Z</time></trkpt><trkpt lat="45.94622125534083" lon="12.7201592854907"><ele>25.333333333333336</ele><time>2026-04-27T10:35:14.002Z</time></trkpt><trkpt lat="45.9462011965948" lon="12.7199195190259"><ele>25.666666666666664</ele><time>2026-04-27T10:35:15.003Z</time></trkpt><trkpt lat="45.94618386022463" lon="12.719684680755773"><ele>26.0</ele><time>2026-04-27T10:35:16.003Z</time></trkpt><trkpt lat="45.94616991862922" lon="12.719456125180265"><ele>25.0</ele><time>2026-04-27T10:35:17.003Z</time></trkpt><trkpt lat="45.946151634201705" lon="12.719229603793062"><ele>24.0</ele><time>2026-04-27T10:35:18.003Z</time></trkpt><trkpt lat="45.94608536551569" lon="12.718796381830062"><ele>23.666666666666668</ele><time>2026-04-27T10:35:19.003Z</time></trkpt><trkpt lat="45.94605666492317" lon="12.718548380325693"><ele>23.333333333333336</ele><time>2026-04-27T10:35:20.003Z</time></trkpt><trkpt lat="45.946033899439975" lon="12.718283994516653"><ele>23.0</ele><time>2026-04-27T10:35:21.003Z</time></trkpt><trkpt lat="45.94600935178135" lon="12.717989351808134"><ele>22.0</ele><time>2026-04-27T10:35:22.003Z</time></trkpt><trkpt lat="45.94597801466776" lon="12.71766384625177"><ele>21.0</ele><time>2026-04-27T10:35:23.003Z</time></trkpt><trkpt lat="45.94594268372207" lon="12.717310450251928"><ele>21.0</ele><time>2026-04-27T10:35:24.003Z</time></trkpt><trkpt lat="45.9459059913676" lon="12.716926957883674"><ele>21.0</ele><time>2026-04-27T10:35:25Z</time></trkpt><trkpt lat="45.94586803536882" lon="12.716540884344676"><ele>21.5</ele><time>2026-04-27T10:35:26Z</time></trkpt><trkpt lat="45.945834767765874" lon="12.716193669678601"><ele>22.0</ele><time>2026-04-27T10:35:27Z</time></trkpt><trkpt lat="45.94580149585884" lon="12.715862617127353"><ele>22.0</ele><time>2026-04-27T10:35:28Z</time></trkpt><trkpt lat="45.94577052706403" lon="12.715551152619467"><ele>22.0</ele><time>2026-04-27T10:35:29Z</time></trkpt><trkpt lat="45.94574268683681" lon="12.715255049738452"><ele>22.0</ele><time>2026-04-27T10:35:30Z</time></trkpt><trkpt lat="45.94571606576439" lon="12.714970908423483"><ele>21.666666666666664</ele><time>2026-04-27T10:35:31Z</time></trkpt><trkpt lat="45.9456900168513" lon="12.71469588154374"><ele>21.333333333333332</ele><time>2026-04-27T10:35:32Z</time></trkpt><trkpt lat="45.94566448720495" lon="12.714433870673515"><ele>21.0</ele><time>2026-04-27T10:35:33Z</time></trkpt><trkpt lat="45.94563979426042" lon="12.714177584311685"><ele>21.0</ele><time>2026-04-27T10:35:34Z</time></trkpt><trkpt lat="45.94561548394107" lon="12.713934570316784"><ele>21.0</ele><time>2026-04-27T10:35:35Z</time></trkpt><trkpt lat="45.94558774060905" lon="12.713693790823001"><ele>21.0</ele><time>2026-04-27T10:35:36Z</time></trkpt><trkpt lat="45.945560161872905" lon="12.71343734369015"><ele>21.333333333333332</ele><time>2026-04-27T10:35:37Z</time></trkpt><trkpt lat="45.94553554381866" lon="12.713167698873065"><ele>21.666666666666664</ele><time>2026-04-27T10:35:38Z</time></trkpt><trkpt lat="45.94551021687466" lon="12.712885359746942"><ele>22.0</ele><time>2026-04-27T10:35:39Z</time></trkpt><trkpt lat="45.94548144330017" lon="12.712591218652111"><ele>22.0</ele><time>2026-04-27T10:35:40Z</time></trkpt><trkpt lat="45.94544931575001" lon="12.712298255907783"><ele>22.0</ele><time>2026-04-27T10:35:41Z</time></trkpt><trkpt lat="45.94542198230118" lon="12.712008919415299"><ele>22.0</ele><time>2026-04-27T10:35:42Z</time></trkpt><trkpt lat="45.94539641376317" lon="12.711724160010506"><ele>22.0</ele><time>2026-04-27T10:35:43Z</time></trkpt><trkpt lat="45.945370070067504" lon="12.71144016588864"><ele>22.0</ele><time>2026-04-27T10:35:44Z</time></trkpt><trkpt lat="45.94534204265082" lon="12.71115865395983"><ele>22.0</ele><time>2026-04-27T10:35:45Z</time></trkpt><trkpt lat="45.94531595719621" lon="12.710880570189536"><ele>21.666666666666664</ele><time>2026-04-27T10:35:46Z</time></trkpt><trkpt lat="45.94528845590108" lon="12.710602477027155"><ele>21.333333333333332</ele><time>2026-04-27T10:35:47Z</time></trkpt><trkpt lat="45.945260328255905" lon="12.710324301036906"><ele>21.0</ele><time>2026-04-27T10:35:48Z</time></trkpt><trkpt lat="45.94523120445514" lon="12.710045483677476"><ele>21.0</ele><time>2026-04-27T10:35:49Z</time></trkpt><trkpt lat="45.94520417960444" lon="12.70977296178381"><ele>21.0</ele><time>2026-04-27T10:35:50Z</time></trkpt><trkpt lat="45.94517443132602" lon="12.709501575967055"><ele>21.0</ele><time>2026-04-27T10:35:51Z</time></trkpt><trkpt lat="45.945146414887084" lon="12.709229514592922"><ele>21.666666666666668</ele><time>2026-04-27T10:35:52.001Z</time></trkpt><trkpt lat="45.94511797287582" lon="12.708960784757828"><ele>22.333333333333336</ele><time>2026-04-27T10:35:53.001Z</time></trkpt><trkpt lat="45.94508866819459" lon="12.70868937660594"><ele>23.0</ele><time>2026-04-27T10:35:54.001Z</time></trkpt><trkpt lat="45.945060603767196" lon="12.708416127114704"><ele>22.333333333333336</ele><time>2026-04-27T10:35:55.001Z</time></trkpt><trkpt lat="45.94503059623553" lon="12.708135306746907"><ele>21.666666666666668</ele><time>2026-04-27T10:35:56.001Z</time></trkpt><trkpt lat="45.945000425602956" lon="12.707851790958621"><ele>21.0</ele><time>2026-04-27T10:35:57.001Z</time></trkpt><trkpt lat="45.94497063239109" lon="12.707560692979223"><ele>21.0</ele><time>2026-04-27T10:35:58.001Z</time></trkpt><trkpt lat="45.944936256912634" lon="12.707233491527848"><ele>21.0</ele><time>2026-04-27T10:35:59.001Z</time></trkpt><trkpt lat="45.94490030632226" lon="12.706898725215414"><ele>21.0</ele><time>2026-04-27T10:36:00.001Z</time></trkpt><trkpt lat="45.9448693803448" lon="12.70658872872758"><ele>21.0</ele><time>2026-04-27T10:36:01.001Z</time></trkpt><trkpt lat="45.944840790063125" lon="12.706284962421769"><ele>21.0</ele><time>2026-04-27T10:36:02.001Z</time></trkpt><trkpt lat="45.944812224224584" lon="12.705983119900853"><ele>21.0</ele><time>2026-04-27T10:36:03.001Z</time></trkpt><trkpt lat="45.94478080146859" lon="12.705661928747046"><ele>21.0</ele><time>2026-04-27T10:36:04.001Z</time></trkpt><trkpt lat="45.94474756899424" lon="12.705314804494718"><ele>21.0</ele><time>2026-04-27T10:36:05.001Z</time></trkpt><trkpt lat="45.944719074792786" lon="12.704984536598333"><ele>21.0</ele><time>2026-04-27T10:36:06.001Z</time></trkpt><trkpt lat="45.94469477430375" lon="12.704679756407371"><ele>21.0</ele><time>2026-04-27T10:36:07.001Z</time></trkpt><trkpt lat="45.94467188635666" lon="12.704390337102977"><ele>20.333333333333332</ele><time>2026-04-27T10:36:08.001Z</time></trkpt><trkpt lat="45.94465122692402" lon="12.70411926832259"><ele>19.666666666666664</ele><time>2026-04-27T10:36:09.001Z</time></trkpt><trkpt lat="45.944635005541585" lon="12.703864931178922"><ele>19.0</ele><time>2026-04-27T10:36:10.001Z</time></trkpt><trkpt lat="45.944627339637" lon="12.703622682830716"><ele>19.0</ele><time>2026-04-27T10:36:11.001Z</time></trkpt><trkpt lat="45.94462686526762" lon="12.703388911085767"><ele>19.0</ele><time>2026-04-27T10:36:12.001Z</time></trkpt><trkpt lat="45.94464350538801" lon="12.703146093787714"><ele>19.0</ele><time>2026-04-27T10:36:13.001Z</time></trkpt><trkpt lat="45.94467141311736" lon="12.702896984487161"><ele>19.666666666666664</ele><time>2026-04-27T10:36:14.001Z</time></trkpt><trkpt lat="45.94471748441827" lon="12.702654831080482"><ele>20.333333333333332</ele><time>2026-04-27T10:36:15.001Z</time></trkpt><trkpt lat="45.944774412469336" lon="12.702415362358797"><ele>21.0</ele><time>2026-04-27T10:36:16.001Z</time></trkpt><trkpt lat="45.94483890388068" lon="12.70218913176089"><ele>21.0</ele><time>2026-04-27T10:36:17.001Z</time></trkpt><trkpt lat="45.94490454107377" lon="12.701983839334922"><ele>21.0</ele><time>2026-04-27T10:36:18.001Z</time></trkpt><trkpt lat="45.94497806855941" lon="12.701795156191091"><ele>21.0</ele><time>2026-04-27T10:36:19.001Z</time></trkpt><trkpt lat="45.94504544157631" lon="12.701616280987317"><ele>21.0</ele><time>2026-04-27T10:36:20.001Z</time></trkpt><trkpt lat="45.94511372929193" lon="12.70144414977739"><ele>20.75</ele><time>2026-04-27T10:36:21.001Z</time></trkpt><trkpt lat="45.94518608692699" lon="12.701268465171466"><ele>20.5</ele><time>2026-04-27T10:36:22.001Z</time></trkpt><trkpt lat="45.9452572481321" lon="12.701091155939642"><ele>20.25</ele><time>2026-04-27T10:36:23.001Z</time></trkpt><trkpt lat="45.94532194173906" lon="12.700915842042228"><ele>20.0</ele><time>2026-04-27T10:36:24.001Z</time></trkpt><trkpt lat="45.9453809373058" lon="12.700747630269248"><ele>19.25</ele><time>2026-04-27T10:36:25.001Z</time></trkpt><trkpt lat="45.945446276857865" lon="12.700570024455734"><ele>18.5</ele><time>2026-04-27T10:36:26.001Z</time></trkpt><trkpt lat="45.94551171804656" lon="12.700396970244554"><ele>17.75</ele><time>2026-04-27T10:36:27.001Z</time></trkpt><trkpt lat="45.945576773436564" lon="12.700223603328253"><ele>17.0</ele><time>2026-04-27T10:36:28.001Z</time></trkpt><trkpt lat="45.945644131468605" lon="12.700047198919448"><ele>17.0</ele><time>2026-04-27T10:36:29.001Z</time></trkpt><trkpt lat="45.94571207137468" lon="12.69986888627201"><ele>17.0</ele><time>2026-04-27T10:36:30.001Z</time></trkpt><trkpt lat="45.94577905305581" lon="12.699698655188008"><ele>17.0</ele><time>2026-04-27T10:36:31.001Z</time></trkpt><trkpt lat="45.94584117994455" lon="12.699532426662062"><ele>17.0</ele><time>2026-04-27T10:36:32.001Z</time></trkpt><trkpt lat="45.945903580969485" lon="12.699362538370039"><ele>17.5</ele><time>2026-04-27T10:36:33.001Z</time></trkpt><trkpt lat="45.945968341234874" lon="12.699187905697727"><ele>18.0</ele><time>2026-04-27T10:36:34.001Z</time></trkpt><trkpt lat="45.9460345479602" lon="12.699014369870174"><ele>18.5</ele><time>2026-04-27T10:36:35.002Z</time></trkpt><trkpt lat="45.946097500876874" lon="12.698836209925597"><ele>19.0</ele><time>2026-04-27T10:36:36.002Z</time></trkpt><trkpt lat="45.94616738254937" lon="12.698659862587322"><ele>19.75</ele><time>2026-04-27T10:36:37.002Z</time></trkpt><trkpt lat="45.946234728844495" lon="12.698483312911844"><ele>20.5</ele><time>2026-04-27T10:36:38.002Z</time></trkpt><trkpt lat="45.94630153654815" lon="12.698302255591184"><ele>21.25</ele><time>2026-04-27T10:36:39.002Z</time></trkpt><trkpt lat="45.946366689371224" lon="12.698117798488976"><ele>22.0</ele><time>2026-04-27T10:36:40.002Z</time></trkpt><trkpt lat="45.94643400993188" lon="12.697934441999088"><ele>22.0</ele><time>2026-04-27T10:36:41.002Z</time></trkpt><trkpt lat="45.94650230169068" lon="12.697748454243673"><ele>22.0</ele><time>2026-04-27T10:36:42.002Z</time></trkpt><trkpt lat="45.94656904571989" lon="12.697560400011763"><ele>22.0</ele><time>2026-04-27T10:36:43.002Z</time></trkpt><trkpt lat="45.946639640103406" lon="12.69737351457402"><ele>22.0</ele><time>2026-04-27T10:36:44.002Z</time></trkpt><trkpt lat="45.946713406743264" lon="12.69718831843938"><ele>21.666666666666664</ele><time>2026-04-27T10:36:45.002Z</time></trkpt><trkpt lat="45.9467888495395" lon="12.697000731404852"><ele>21.333333333333332</ele><time>2026-04-27T10:36:46.002Z</time></trkpt><trkpt lat="45.946866786304454" lon="12.69681268677638"><ele>21.0</ele><time>2026-04-27T10:36:47.002Z</time></trkpt><trkpt lat="45.94694605981924" lon="12.69662743079351"><ele>20.666666666666668</ele><time>2026-04-27T10:36:48.002Z</time></trkpt><trkpt lat="45.947028394004114" lon="12.696449894710971"><ele>20.333333333333336</ele><time>2026-04-27T10:36:49.002Z</time></trkpt><trkpt lat="45.947118793883085" lon="12.696275259647331"><ele>20.0</ele><time>2026-04-27T10:36:50.002Z</time></trkpt><trkpt lat="45.94721423438101" lon="12.696098703408204"><ele>20.666666666666668</ele><time>2026-04-27T10:36:51.002Z</time></trkpt><trkpt lat="45.94731570240307" lon="12.695919075742028"><ele>21.333333333333332</ele><time>2026-04-27T10:36:52.002Z</time></trkpt><trkpt lat="45.9474153387055" lon="12.695747911171274"><ele>22.0</ele><time>2026-04-27T10:36:53.002Z</time></trkpt><trkpt lat="45.947508257246795" lon="12.695582960317308"><ele>22.400000000000002</ele><time>2026-04-27T10:36:54.002Z</time></trkpt><trkpt lat="45.9475977949371" lon="12.695442508263037"><ele>22.8</ele><time>2026-04-27T10:36:55.002Z</time></trkpt><trkpt lat="45.94768270422651" lon="12.695334016225212"><ele>23.2</ele><time>2026-04-27T10:36:56.002Z</time></trkpt><trkpt lat="45.947761939614715" lon="12.695269341070105"><ele>23.6</ele><time>2026-04-27T10:36:57.002Z</time></trkpt><trkpt lat="45.94784798197656" lon="12.695231308202887"><ele>24.0</ele><time>2026-04-27T10:36:58.002Z</time></trkpt><trkpt lat="45.94794217832513" lon="12.695204448159544"><ele>24.25</ele><time>2026-04-27T10:36:59.002Z</time></trkpt><trkpt lat="45.9480457772343" lon="12.695149887293606"><ele>24.5</ele><time>2026-04-27T10:37:00.002Z</time></trkpt><trkpt lat="45.94815513229022" lon="12.695053390005473"><ele>24.75</ele><time>2026-04-27T10:37:01.002Z</time></trkpt><trkpt lat="45.948243010276116" lon="12.694956226804468"><ele>25.0</ele><time>2026-04-27T10:37:02.002Z</time></trkpt><trkpt lat="45.9483165238845" lon="12.694849340478315"><ele>24.5</ele><time>2026-04-27T10:37:03.002Z</time></trkpt><trkpt lat="45.94837818543859" lon="12.694716104681458"><ele>24.0</ele><time>2026-04-27T10:37:04.002Z</time></trkpt><trkpt lat="45.948418912339335" lon="12.694562279444337"><ele>23.5</ele><time>2026-04-27T10:37:05.002Z</time></trkpt><trkpt lat="45.948441194332375" lon="12.694399373011747"><ele>23.0</ele><time>2026-04-27T10:37:06.002Z</time></trkpt><trkpt lat="45.948443967620385" lon="12.694213048784187"><ele>23.0</ele><time>2026-04-27T10:37:07.002Z</time></trkpt><trkpt lat="45.94842953026777" lon="12.694007426700404"><ele>23.0</ele><time>2026-04-27T10:37:08.002Z</time></trkpt><trkpt lat="45.94841134069963" lon="12.693816650394968"><ele>23.0</ele><time>2026-04-27T10:37:09.002Z</time></trkpt><trkpt lat="45.94842386872316" lon="12.693642885176958"><ele>23.0</ele><time>2026-04-27T10:37:10.002Z</time></trkpt><trkpt lat="45.948466209461586" lon="12.693461928741982"><ele>24.0</ele><time>2026-04-27T10:37:11.002Z</time></trkpt><trkpt lat="45.948536773328016" lon="12.693263078924653"><ele>25.0</ele><time>2026-04-27T10:37:12.002Z</time></trkpt><trkpt lat="45.948621979249836" lon="12.693043721268639"><ele>26.0</ele><time>2026-04-27T10:37:13.002Z</time></trkpt><trkpt lat="45.94870806517873" lon="12.69284272105719"><ele>25.25</ele><time>2026-04-27T10:37:14.002Z</time></trkpt><trkpt lat="45.948783917632646" lon="12.69266745486054"><ele>24.5</ele><time>2026-04-27T10:37:15.002Z</time></trkpt><trkpt lat="45.94885210729654" lon="12.692501520730083"><ele>23.75</ele><time>2026-04-27T10:37:16.002Z</time></trkpt><trkpt lat="45.94891440150911" lon="12.692347372176508"><ele>23.0</ele><time>2026-04-27T10:37:17.002Z</time></trkpt><trkpt lat="45.9489766821253" lon="12.692197231344146"><ele>23.0</ele><time>2026-04-27T10:37:18.003Z</time></trkpt><trkpt lat="45.94904264783788" lon="12.692054871248136"><ele>23.0</ele><time>2026-04-27T10:37:19.003Z</time></trkpt><trkpt lat="45.94911885891858" lon="12.6919084112751"><ele>23.0</ele><time>2026-04-27T10:37:20.003Z</time></trkpt><trkpt lat="45.94919539395343" lon="12.69174715931277"><ele>23.0</ele><time>2026-04-27T10:37:21.003Z</time></trkpt><trkpt lat="45.94927531013061" lon="12.691580475955654"><ele>22.75</ele><time>2026-04-27T10:37:22.003Z</time></trkpt><trkpt lat="45.949363482629416" lon="12.691419132334557"><ele>22.5</ele><time>2026-04-27T10:37:23.003Z</time></trkpt><trkpt lat="45.949453361725574" lon="12.691262863723336"><ele>22.25</ele><time>2026-04-27T10:37:24.003Z</time></trkpt><trkpt lat="45.94954069440259" lon="12.691125794893738"><ele>22.0</ele><time>2026-04-27T10:37:25.003Z</time></trkpt><trkpt lat="45.949628712086444" lon="12.690994078560685"><ele>21.5</ele><time>2026-04-27T10:37:26.003Z</time></trkpt><trkpt lat="45.949723395512514" lon="12.69085800411655"><ele>21.0</ele><time>2026-04-27T10:37:27.003Z</time></trkpt><trkpt lat="45.94981982955422" lon="12.690705631579702"><ele>20.5</ele><time>2026-04-27T10:37:28.003Z</time></trkpt><trkpt lat="45.949922464929486" lon="12.690539830401486"><ele>20.0</ele><time>2026-04-27T10:37:29.003Z</time></trkpt><trkpt lat="45.95002076591791" lon="12.690387760765267"><ele>20.5</ele><time>2026-04-27T10:37:30.003Z</time></trkpt><trkpt lat="45.9501182975926" lon="12.6902455778659"><ele>21.0</ele><time>2026-04-27T10:37:31Z</time></trkpt><trkpt lat="45.95022374008932" lon="12.69009432426469"><ele>21.5</ele><time>2026-04-27T10:37:32Z</time></trkpt><trkpt lat="45.95033230459422" lon="12.689938974528895"><ele>22.0</ele><time>2026-04-27T10:37:33Z</time></trkpt><trkpt lat="45.950433164644664" lon="12.689796164827078"><ele>22.0</ele><time>2026-04-27T10:37:34Z</time></trkpt><trkpt lat="45.95052981570683" lon="12.689666288999943"><ele>22.0</ele><time>2026-04-27T10:37:35Z</time></trkpt><trkpt lat="45.95062301924426" lon="12.689550840817315"><ele>22.0</ele><time>2026-04-27T10:37:36Z</time></trkpt><trkpt lat="45.95071476952927" lon="12.689428384984563"><ele>22.0</ele><time>2026-04-27T10:37:37Z</time></trkpt><trkpt lat="45.95080995781171" lon="12.68929908590711"><ele>22.0</ele><time>2026-04-27T10:37:38Z</time></trkpt><trkpt lat="45.95090537149811" lon="12.689173347619294"><ele>22.0</ele><time>2026-04-27T10:37:39Z</time></trkpt><trkpt lat="45.95100527667336" lon="12.689044934622222"><ele>22.0</ele><time>2026-04-27T10:37:40Z</time></trkpt><trkpt lat="45.95110547502825" lon="12.68891868999763"><ele>22.0</ele><time>2026-04-27T10:37:41Z</time></trkpt><trkpt lat="45.951208704640884" lon="12.688793223706034"><ele>22.0</ele><time>2026-04-27T10:37:42Z</time></trkpt><trkpt lat="45.95131138619622" lon="12.688668076260711"><ele>22.0</ele><time>2026-04-27T10:37:43Z</time></trkpt><trkpt lat="45.951412333182425" lon="12.688542738437446"><ele>22.0</ele><time>2026-04-27T10:37:44Z</time></trkpt><trkpt lat="45.95151538110523" lon="12.688414681786657"><ele>22.0</ele><time>2026-04-27T10:37:45Z</time></trkpt><trkpt lat="45.9516194519012" lon="12.688287072583087"><ele>22.0</ele><time>2026-04-27T10:37:46Z</time></trkpt><trkpt lat="45.95172827975818" lon="12.688156460084372"><ele>22.0</ele><time>2026-04-27T10:37:47Z</time></trkpt><trkpt lat="45.951840712306684" lon="12.688026635990889"><ele>22.0</ele><time>2026-04-27T10:37:48Z</time></trkpt><trkpt lat="45.951954329500595" lon="12.687894671900093"><ele>22.0</ele><time>2026-04-27T10:37:49Z</time></trkpt><trkpt lat="45.952070982902505" lon="12.687758006773446"><ele>22.666666666666664</ele><time>2026-04-27T10:37:50Z</time></trkpt><trkpt lat="45.95218958869127" lon="12.687617489550593"><ele>23.333333333333332</ele><time>2026-04-27T10:37:51Z</time></trkpt><trkpt lat="45.952311428830235" lon="12.687476055324389"><ele>24.0</ele><time>2026-04-27T10:37:52Z</time></trkpt><trkpt lat="45.952426966275794" lon="12.687341416419873"><ele>24.0</ele><time>2026-04-27T10:37:53Z</time></trkpt><trkpt lat="45.95253664276934" lon="12.687210450597275"><ele>24.0</ele><time>2026-04-27T10:37:54Z</time></trkpt><trkpt lat="45.95264688638826" lon="12.687082394454025"><ele>24.0</ele><time>2026-04-27T10:37:55Z</time></trkpt><trkpt lat="45.95275188382798" lon="12.686955491417859"><ele>24.0</ele><time>2026-04-27T10:37:56.001Z</time></trkpt><trkpt lat="45.95285313046947" lon="12.68683178638737"><ele>23.5</ele><time>2026-04-27T10:37:57.001Z</time></trkpt><trkpt lat="45.95294940832295" lon="12.686716520164373"><ele>23.0</ele><time>2026-04-27T10:37:58.001Z</time></trkpt><trkpt lat="45.95304186213414" lon="12.68660821227557"><ele>22.5</ele><time>2026-04-27T10:37:59.001Z</time></trkpt><trkpt lat="45.95313108272528" lon="12.686503688250562"><ele>22.0</ele><time>2026-04-27T10:38:00.001Z</time></trkpt><trkpt lat="45.95321107654577" lon="12.686401840203208"><ele>22.0</ele><time>2026-04-27T10:38:01.001Z</time></trkpt><trkpt lat="45.953287755408155" lon="12.686304604508248"><ele>22.0</ele><time>2026-04-27T10:38:02.001Z</time></trkpt><trkpt lat="45.953351203912916" lon="12.686227714734695"><ele>22.0</ele><time>2026-04-27T10:38:03.001Z</time></trkpt><trkpt lat="45.953403270145955" lon="12.686171127501764"><ele>22.0</ele><time>2026-04-27T10:38:04.001Z</time></trkpt><trkpt lat="45.95347777502848" lon="12.68608935351859"><ele>22.0</ele><time>2026-04-27T10:38:06.001Z</time></trkpt><trkpt lat="45.953598987631175" lon="12.686055326028427"><ele>21.75</ele><time>2026-04-27T10:38:08.001Z</time></trkpt><trkpt lat="45.95369103090301" lon="12.686012474758883"><ele>21.5</ele><time>2026-04-27T10:38:09.001Z</time></trkpt><trkpt lat="45.95376954205335" lon="12.68590775595277"><ele>21.25</ele><time>2026-04-27T10:38:10.001Z</time></trkpt><trkpt lat="45.95385059529417" lon="12.685737959188009"><ele>21.0</ele><time>2026-04-27T10:38:11.001Z</time></trkpt><trkpt lat="45.95396307346806" lon="12.685530275608718"><ele>21.0</ele><time>2026-04-27T10:38:12.001Z</time></trkpt><trkpt lat="45.95408580635709" lon="12.68535647299833"><ele>21.0</ele><time>2026-04-27T10:38:13.001Z</time></trkpt><trkpt lat="45.95420183440779" lon="12.68522512803264"><ele>21.0</ele><time>2026-04-27T10:38:14.001Z</time></trkpt><trkpt lat="45.95431078008693" lon="12.685104763785606"><ele>21.25</ele><time>2026-04-27T10:38:15.001Z</time></trkpt><trkpt lat="45.95442059809441" lon="12.684964747385983"><ele>21.5</ele><time>2026-04-27T10:38:16.001Z</time></trkpt><trkpt lat="45.95453208795451" lon="12.684819204921927"><ele>21.75</ele><time>2026-04-27T10:38:17.001Z</time></trkpt><trkpt lat="45.95463768695006" lon="12.6846883452727"><ele>22.0</ele><time>2026-04-27T10:38:18.001Z</time></trkpt><trkpt lat="45.9547381077849" lon="12.684571460783078"><ele>22.0</ele><time>2026-04-27T10:38:19.001Z</time></trkpt><trkpt lat="45.954842977349564" lon="12.684447817670703"><ele>22.0</ele><time>2026-04-27T10:38:20.001Z</time></trkpt><trkpt lat="45.954949849585724" lon="12.684319005437123"><ele>22.0</ele><time>2026-04-27T10:38:21.001Z</time></trkpt><trkpt lat="45.955048155387395" lon="12.684200178262099"><ele>22.0</ele><time>2026-04-27T10:38:22.001Z</time></trkpt><trkpt lat="45.95514287612127" lon="12.68408833449182"><ele>22.0</ele><time>2026-04-27T10:38:23.001Z</time></trkpt><trkpt lat="45.95524208025141" lon="12.683970934805082"><ele>22.0</ele><time>2026-04-27T10:38:24.001Z</time></trkpt><trkpt lat="45.95534713761952" lon="12.683849651145069"><ele>22.0</ele><time>2026-04-27T10:38:25.001Z</time></trkpt><trkpt lat="45.955460253008134" lon="12.683719576035958"><ele>22.0</ele><time>2026-04-27T10:38:26.001Z</time></trkpt><trkpt lat="45.95557934776248" lon="12.683584190414113"><ele>21.75</ele><time>2026-04-27T10:38:27.001Z</time></trkpt><trkpt lat="45.95569461735509" lon="12.683456610240341"><ele>21.5</ele><time>2026-04-27T10:38:28.001Z</time></trkpt><trkpt lat="45.95581305267992" lon="12.683335349836934"><ele>21.25</ele><time>2026-04-27T10:38:29.001Z</time></trkpt><trkpt lat="45.955933098661035" lon="12.683202372753161"><ele>21.0</ele><time>2026-04-27T10:38:30.001Z</time></trkpt><trkpt lat="45.956062934813204" lon="12.683052785825744"><ele>21.333333333333332</ele><time>2026-04-27T10:38:31.001Z</time></trkpt><trkpt lat="45.95621214074555" lon="12.68287684127259"><ele>21.666666666666664</ele><time>2026-04-27T10:38:32.001Z</time></trkpt><trkpt lat="45.956373513914464" lon="12.682678358202779"><ele>22.0</ele><time>2026-04-27T10:38:33.001Z</time></trkpt><trkpt lat="45.95652843982163" lon="12.682487956946716"><ele>22.0</ele><time>2026-04-27T10:38:34.001Z</time></trkpt><trkpt lat="45.95667748012595" lon="12.682300538106771"><ele>22.0</ele><time>2026-04-27T10:38:35.001Z</time></trkpt><trkpt lat="45.95681966805324" lon="12.682132251869259"><ele>22.0</ele><time>2026-04-27T10:38:36.001Z</time></trkpt><trkpt lat="45.95696229386351" lon="12.681966003582373"><ele>20.666666666666664</ele><time>2026-04-27T10:38:37.001Z</time></trkpt><trkpt lat="45.957104393505205" lon="12.681795496561246"><ele>19.333333333333332</ele><time>2026-04-27T10:38:38.001Z</time></trkpt><trkpt lat="45.95725035306273" lon="12.681628079424701"><ele>18.0</ele><time>2026-04-27T10:38:39.001Z</time></trkpt><trkpt lat="45.95739790689581" lon="12.681459094055485"><ele>18.0</ele><time>2026-04-27T10:38:40.001Z</time></trkpt><trkpt lat="45.95754363535832" lon="12.681286951805685"><ele>18.0</ele><time>2026-04-27T10:38:41.001Z</time></trkpt><trkpt lat="45.95769059364636" lon="12.68111271308184"><ele>18.0</ele><time>2026-04-27T10:38:42.001Z</time></trkpt><trkpt lat="45.95783612421843" lon="12.680938108130155"><ele>17.0</ele><time>2026-04-27T10:38:43.002Z</time></trkpt><trkpt lat="45.95798114231355" lon="12.68076210782061"><ele>16.0</ele><time>2026-04-27T10:38:44.002Z</time></trkpt><trkpt lat="45.95812828322555" lon="12.680585165868024"><ele>15.0</ele><time>2026-04-27T10:38:45.002Z</time></trkpt><trkpt lat="45.958271386890544" lon="12.680415441668659"><ele>14.666666666666668</ele><time>2026-04-27T10:38:46.002Z</time></trkpt><trkpt lat="45.95840504322941" lon="12.680253479429958"><ele>14.333333333333334</ele><time>2026-04-27T10:38:47.002Z</time></trkpt><trkpt lat="45.958541910084946" lon="12.680085773989122"><ele>14.0</ele><time>2026-04-27T10:38:48.002Z</time></trkpt><trkpt lat="45.95868775923336" lon="12.679913026092159"><ele>14.0</ele><time>2026-04-27T10:38:49.002Z</time></trkpt><trkpt lat="45.95884120016257" lon="12.679730967365343"><ele>14.0</ele><time>2026-04-27T10:38:50.002Z</time></trkpt><trkpt lat="45.959002460071" lon="12.67953083199844"><ele>14.0</ele><time>2026-04-27T10:38:51.002Z</time></trkpt><trkpt lat="45.959180435430575" lon="12.679308613309752"><ele>15.5</ele><time>2026-04-27T10:38:52.002Z</time></trkpt><trkpt lat="45.9593732982704" lon="12.679079131211106"><ele>17.0</ele><time>2026-04-27T10:38:53.002Z</time></trkpt><trkpt lat="45.95957806779273" lon="12.67885507981731"><ele>17.0</ele><time>2026-04-27T10:38:54.002Z</time></trkpt><trkpt lat="45.95977629728255" lon="12.678637328602354"><ele>17.0</ele><time>2026-04-27T10:38:55.002Z</time></trkpt><trkpt lat="45.959957775458314" lon="12.678430644357361"><ele>18.0</ele><time>2026-04-27T10:38:56.002Z</time></trkpt><trkpt lat="45.96012855155436" lon="12.67823132336348"><ele>19.0</ele><time>2026-04-27T10:38:57.002Z</time></trkpt><trkpt lat="45.96029534370443" lon="12.678024735778322"><ele>20.0</ele><time>2026-04-27T10:38:58.002Z</time></trkpt><trkpt lat="45.96045777374988" lon="12.677819534162948"><ele>19.666666666666668</ele><time>2026-04-27T10:38:59.002Z</time></trkpt><trkpt lat="45.960614253835004" lon="12.677629048103247"><ele>19.333333333333332</ele><time>2026-04-27T10:39:00.002Z</time></trkpt><trkpt lat="45.960761451463" lon="12.677456017483424"><ele>19.0</ele><time>2026-04-27T10:39:01.002Z</time></trkpt><trkpt lat="45.96090135364067" lon="12.677295540355084"><ele>19.5</ele><time>2026-04-27T10:39:02.002Z</time></trkpt><trkpt lat="45.96102496741724" lon="12.677151979422385"><ele>20.0</ele><time>2026-04-27T10:39:03.002Z</time></trkpt><trkpt lat="45.96111942408671" lon="12.677037832160684"><ele>20.5</ele><time>2026-04-27T10:39:04.002Z</time></trkpt><trkpt lat="45.961202455044656" lon="12.676928907391117"><ele>21.0</ele><time>2026-04-27T10:39:05.002Z</time></trkpt><trkpt lat="45.96126412309084" lon="12.676852280690138"><ele>21.0</ele><time>2026-04-27T10:39:06.002Z</time></trkpt><trkpt lat="45.96135413211895" lon="12.676756463581498"><ele>21.0</ele><time>2026-04-27T10:39:08.002Z</time></trkpt><trkpt lat="45.961451634377084" lon="12.676712559338096"><ele>21.0</ele><time>2026-04-27T10:39:10.002Z</time></trkpt><trkpt lat="45.961562248068695" lon="12.676648433002145"><ele>21.0</ele><time>2026-04-27T10:39:12.002Z</time></trkpt><trkpt lat="45.961608614119086" lon="12.676570869089188"><ele>21.0</ele><time>2026-04-27T10:39:13.002Z</time></trkpt><trkpt lat="45.96165314967873" lon="12.676485905265281"><ele>21.0</ele><time>2026-04-27T10:39:14.002Z</time></trkpt><trkpt lat="45.96170448573531" lon="12.676383746900504"><ele>21.0</ele><time>2026-04-27T10:39:15.002Z</time></trkpt><trkpt lat="45.96176201968505" lon="12.676286150321692"><ele>21.0</ele><time>2026-04-27T10:39:16.002Z</time></trkpt><trkpt lat="45.96183293501686" lon="12.676205147962072"><ele>21.0</ele><time>2026-04-27T10:39:17.002Z</time></trkpt><trkpt lat="45.961923535386745" lon="12.676116722642263"><ele>21.0</ele><time>2026-04-27T10:39:18.002Z</time></trkpt><trkpt lat="45.96200416276552" lon="12.67602215824055"><ele>21.4</ele><time>2026-04-27T10:39:19.002Z</time></trkpt><trkpt lat="45.96208711261275" lon="12.67591967462138"><ele>21.8</ele><time>2026-04-27T10:39:20.002Z</time></trkpt><trkpt lat="45.96216099738465" lon="12.675828271939269"><ele>22.2</ele><time>2026-04-27T10:39:21.002Z</time></trkpt><trkpt lat="45.962238096631" lon="12.675734589329439"><ele>22.599999999999998</ele><time>2026-04-27T10:39:22.002Z</time></trkpt><trkpt lat="45.96232470424068" lon="12.675636266916408"><ele>23.0</ele><time>2026-04-27T10:39:23.002Z</time></trkpt><trkpt lat="45.96241527240861" lon="12.675528709354477"><ele>23.0</ele><time>2026-04-27T10:39:24.002Z</time></trkpt><trkpt lat="45.96249808925338" lon="12.675430899085445"><ele>23.0</ele><time>2026-04-27T10:39:25.002Z</time></trkpt><trkpt lat="45.962570748721696" lon="12.675346873910417"><ele>23.0</ele><time>2026-04-27T10:39:26.002Z</time></trkpt><trkpt lat="45.96263818550206" lon="12.67527290021786"><ele>23.0</ele><time>2026-04-27T10:39:27.002Z</time></trkpt><trkpt lat="45.96270656560113" lon="12.675200461355404"><ele>23.0</ele><time>2026-04-27T10:39:28.003Z</time></trkpt><trkpt lat="45.96277180594337" lon="12.67512281106617"><ele>22.833333333333336</ele><time>2026-04-27T10:39:29.003Z</time></trkpt><trkpt lat="45.96281681777745" lon="12.675043792166264"><ele>22.666666666666668</ele><time>2026-04-27T10:39:30.003Z</time></trkpt><trkpt lat="45.962872723946816" lon="12.67496265216773"><ele>22.5</ele><time>2026-04-27T10:39:32.003Z</time></trkpt><trkpt lat="45.962926767117295" lon="12.674850605263572"><ele>22.333333333333332</ele><time>2026-04-27T10:39:34.003Z</time></trkpt><trkpt lat="45.962972209563205" lon="12.674778504578068"><ele>22.166666666666664</ele><time>2026-04-27T10:39:35.003Z</time></trkpt><trkpt lat="45.963054894356674" lon="12.674703756386121"><ele>22.0</ele><time>2026-04-27T10:39:36.003Z</time></trkpt><trkpt lat="45.96312640083021" lon="12.674628033754733"><ele>22.0</ele><time>2026-04-27T10:39:37Z</time></trkpt><trkpt lat="45.963182450754836" lon="12.6745500554396"><ele>22.0</ele><time>2026-04-27T10:39:38Z</time></trkpt><trkpt lat="45.96324710881307" lon="12.674459184971818"><ele>22.0</ele><time>2026-04-27T10:39:39Z</time></trkpt><trkpt lat="45.963325423200786" lon="12.674377101969242"><ele>22.0</ele><time>2026-04-27T10:39:40Z</time></trkpt><trkpt lat="45.963402102001275" lon="12.674273403189057"><ele>22.0</ele><time>2026-04-27T10:39:41Z</time></trkpt><trkpt lat="45.96351031917082" lon="12.674232235055026"><ele>21.8</ele><time>2026-04-27T10:39:42Z</time></trkpt><trkpt lat="45.963595238816836" lon="12.674151721550148"><ele>21.6</ele><time>2026-04-27T10:39:43Z</time></trkpt><trkpt lat="45.96366508824208" lon="12.67406699283472"><ele>21.400000000000002</ele><time>2026-04-27T10:39:44Z</time></trkpt><trkpt lat="45.96374242442872" lon="12.673966885083647"><ele>21.200000000000003</ele><time>2026-04-27T10:39:45Z</time></trkpt><trkpt lat="45.96382501196223" lon="12.673859166552015"><ele>21.0</ele><time>2026-04-27T10:39:46Z</time></trkpt><trkpt lat="45.96391059952134" lon="12.673745294267308"><ele>21.0</ele><time>2026-04-27T10:39:47Z</time></trkpt><trkpt lat="45.96399338947192" lon="12.673640688489865"><ele>21.0</ele><time>2026-04-27T10:39:48Z</time></trkpt><trkpt lat="45.96407063721214" lon="12.67355332883676"><ele>21.0</ele><time>2026-04-27T10:39:49Z</time></trkpt><trkpt lat="45.96414505197426" lon="12.67347392855383"><ele>21.0</ele><time>2026-04-27T10:39:50Z</time></trkpt><trkpt lat="45.96422616997877" lon="12.673382087432762"><ele>21.0</ele><time>2026-04-27T10:39:51Z</time></trkpt><trkpt lat="45.964311795225406" lon="12.67327250388839"><ele>21.833333333333332</ele><time>2026-04-27T10:39:52Z</time></trkpt><trkpt lat="45.964396321964564" lon="12.67317151502876"><ele>22.666666666666664</ele><time>2026-04-27T10:39:53Z</time></trkpt><trkpt lat="45.96447065271066" lon="12.673084871141326"><ele>23.5</ele><time>2026-04-27T10:39:54Z</time></trkpt><trkpt lat="45.964538776660945" lon="12.67300404859926"><ele>24.333333333333332</ele><time>2026-04-27T10:39:55Z</time></trkpt><trkpt lat="45.964603658627446" lon="12.67293364928348"><ele>25.166666666666664</ele><time>2026-04-27T10:39:56Z</time></trkpt><trkpt lat="45.96465980715691" lon="12.672868130643042"><ele>26.0</ele><time>2026-04-27T10:39:57Z</time></trkpt><trkpt lat="45.96472512775879" lon="12.672786119891155"><ele>25.999999999999996</ele><time>2026-04-27T10:39:59Z</time></trkpt><trkpt lat="45.964785527181625" lon="12.67267625069352"><ele>26.0</ele><time>2026-04-27T10:40:03Z</time></trkpt><trkpt lat="45.96484581296334" lon="12.672637766699088"><ele>26.0</ele><time>2026-04-27T10:40:04Z</time></trkpt><trkpt lat="45.96491033567895" lon="12.672609617178537"><ele>26.0</ele><time>2026-04-27T10:40:05Z</time></trkpt><trkpt lat="45.964975672575996" lon="12.67258973963763"><ele>25.999999999999996</ele><time>2026-04-27T10:40:06Z</time></trkpt><trkpt lat="45.96505116744168" lon="12.672564220374355"><ele>26.0</ele><time>2026-04-27T10:40:07Z</time></trkpt><trkpt lat="45.96512618732697" lon="12.672515373268855"><ele>26.0</ele><time>2026-04-27T10:40:08Z</time></trkpt><trkpt lat="45.965186296114716" lon="12.672350789505277"><ele>26.0</ele><time>2026-04-27T10:40:09Z</time></trkpt><trkpt lat="45.96528771712891" lon="12.672159699596312"><ele>26.0</ele><time>2026-04-27T10:40:10Z</time></trkpt><trkpt lat="45.96538646625552" lon="12.672006009402153"><ele>26.0</ele><time>2026-04-27T10:40:11Z</time></trkpt><trkpt lat="45.9654816006111" lon="12.67187824223622"><ele>26.25</ele><time>2026-04-27T10:40:12Z</time></trkpt><trkpt lat="45.96557887858382" lon="12.671765493998361"><ele>26.5</ele><time>2026-04-27T10:40:13Z</time></trkpt><trkpt lat="45.965676583965106" lon="12.671664814672855"><ele>26.75</ele><time>2026-04-27T10:40:14Z</time></trkpt><trkpt lat="45.96577321090422" lon="12.671563233211344"><ele>27.0</ele><time>2026-04-27T10:40:15.001Z</time></trkpt><trkpt lat="45.96587326060792" lon="12.671445434322544"><ele>27.0</ele><time>2026-04-27T10:40:16.001Z</time></trkpt><trkpt lat="45.96598163680821" lon="12.671305023978848"><ele>27.0</ele><time>2026-04-27T10:40:17.001Z</time></trkpt><trkpt lat="45.96608272639178" lon="12.67118202450071"><ele>27.0</ele><time>2026-04-27T10:40:18.001Z</time></trkpt><trkpt lat="45.966179162256566" lon="12.671065152655556"><ele>27.0</ele><time>2026-04-27T10:40:19.001Z</time></trkpt><trkpt lat="45.9662766243074" lon="12.670939488650534"><ele>27.0</ele><time>2026-04-27T10:40:20.001Z</time></trkpt><trkpt lat="45.96637435712162" lon="12.670823562378617"><ele>27.0</ele><time>2026-04-27T10:40:21.001Z</time></trkpt><trkpt lat="45.966471813406564" lon="12.670714155237432"><ele>27.0</ele><time>2026-04-27T10:40:22.001Z</time></trkpt><trkpt lat="45.966568099012825" lon="12.670592192209881"><ele>27.0</ele><time>2026-04-27T10:40:23.001Z</time></trkpt><trkpt lat="45.966671246388394" lon="12.670495508940638"><ele>27.5</ele><time>2026-04-27T10:40:24.001Z</time></trkpt><trkpt lat="45.966772035858746" lon="12.670367359951625"><ele>28.0</ele><time>2026-04-27T10:40:25.001Z</time></trkpt><trkpt lat="45.96687486306118" lon="12.67023086749792"><ele>28.5</ele><time>2026-04-27T10:40:26.001Z</time></trkpt><trkpt lat="45.966979311986165" lon="12.67010122410937"><ele>29.0</ele><time>2026-04-27T10:40:27.001Z</time></trkpt><trkpt lat="45.96708897411575" lon="12.669968789303365"><ele>29.0</ele><time>2026-04-27T10:40:28.001Z</time></trkpt><trkpt lat="45.96720204374967" lon="12.669837188580848"><ele>29.0</ele><time>2026-04-27T10:40:29.001Z</time></trkpt><trkpt lat="45.96731496342037" lon="12.669706285302881"><ele>29.0</ele><time>2026-04-27T10:40:30.001Z</time></trkpt><trkpt lat="45.96742560756978" lon="12.669574840994295"><ele>29.0</ele><time>2026-04-27T10:40:31.001Z</time></trkpt><trkpt lat="45.96753920729684" lon="12.669444749123283"><ele>29.75</ele><time>2026-04-27T10:40:32.001Z</time></trkpt><trkpt lat="45.96765305080761" lon="12.669313885919362"><ele>30.5</ele><time>2026-04-27T10:40:33.001Z</time></trkpt><trkpt lat="45.96776695268545" lon="12.669179516456333"><ele>31.25</ele><time>2026-04-27T10:40:34.001Z</time></trkpt><trkpt lat="45.96787881294907" lon="12.669043521585772"><ele>32.0</ele><time>2026-04-27T10:40:35.001Z</time></trkpt><trkpt lat="45.967985070047014" lon="12.668916262911997"><ele>32.0</ele><time>2026-04-27T10:40:36.001Z</time></trkpt><trkpt lat="45.96808950667682" lon="12.668794559451605"><ele>32.0</ele><time>2026-04-27T10:40:37.001Z</time></trkpt><trkpt lat="45.968190586972995" lon="12.668675353456232"><ele>32.0</ele><time>2026-04-27T10:40:38.001Z</time></trkpt><trkpt lat="45.96829310239982" lon="12.66855337818299"><ele>32.0</ele><time>2026-04-27T10:40:39.001Z</time></trkpt><trkpt lat="45.96840087640401" lon="12.668424977028527"><ele>33.5</ele><time>2026-04-27T10:40:40.001Z</time></trkpt><trkpt lat="45.968507069715535" lon="12.668300201053675"><ele>35.0</ele><time>2026-04-27T10:40:41.001Z</time></trkpt><trkpt lat="45.96861689634666" lon="12.66817329726733"><ele>36.5</ele><time>2026-04-27T10:40:42.001Z</time></trkpt><trkpt lat="45.96872729871137" lon="12.668044424821879"><ele>38.0</ele><time>2026-04-27T10:40:43.001Z</time></trkpt><trkpt lat="45.96884577555423" lon="12.667902417040578"><ele>37.666666666666664</ele><time>2026-04-27T10:40:44.001Z</time></trkpt><trkpt lat="45.96897002891194" lon="12.66775101345872"><ele>37.333333333333336</ele><time>2026-04-27T10:40:45.001Z</time></trkpt><trkpt lat="45.96909985379913" lon="12.667593398693201"><ele>37.0</ele><time>2026-04-27T10:40:46.001Z</time></trkpt><trkpt lat="45.96922711447045" lon="12.6674406133173"><ele>37.0</ele><time>2026-04-27T10:40:47.001Z</time></trkpt><trkpt lat="45.96935818221653" lon="12.667286684100402"><ele>37.0</ele><time>2026-04-27T10:40:48.001Z</time></trkpt><trkpt lat="45.969491720691" lon="12.667128281214614"><ele>37.0</ele><time>2026-04-27T10:40:49.001Z</time></trkpt><trkpt lat="45.969626446985075" lon="12.666973329255974"><ele>35.66666666666667</ele><time>2026-04-27T10:40:50.001Z</time></trkpt><trkpt lat="45.96975679408448" lon="12.666823348919312"><ele>34.333333333333336</ele><time>2026-04-27T10:40:51.001Z</time></trkpt><trkpt lat="45.9698819225506" lon="12.666679501011506"><ele>33.0</ele><time>2026-04-27T10:40:52.001Z</time></trkpt><trkpt lat="45.969999356500125" lon="12.66654041159968"><ele>33.25</ele><time>2026-04-27T10:40:53.001Z</time></trkpt><trkpt lat="45.970110358402636" lon="12.666407259576244"><ele>33.5</ele><time>2026-04-27T10:40:54.001Z</time></trkpt><trkpt lat="45.9702205466854" lon="12.666274861934271"><ele>33.75</ele><time>2026-04-27T10:40:55.001Z</time></trkpt><trkpt lat="45.970330892242565" lon="12.666141344288407"><ele>34.0</ele><time>2026-04-27T10:40:56.001Z</time></trkpt><trkpt lat="45.9704358169765" lon="12.666012146363904"><ele>34.0</ele><time>2026-04-27T10:40:57.001Z</time></trkpt><trkpt lat="45.97053343462065" lon="12.665892353178547"><ele>34.0</ele><time>2026-04-27T10:40:58.001Z</time></trkpt><trkpt lat="45.9706247128182" lon="12.665775802267254"><ele>34.0</ele><time>2026-04-27T10:40:59.001Z</time></trkpt><trkpt lat="45.97070756883735" lon="12.66567568793367"><ele>34.0</ele><time>2026-04-27T10:41:00.002Z</time></trkpt><trkpt lat="45.970783737625815" lon="12.665583296027826"><ele>34.0</ele><time>2026-04-27T10:41:01.002Z</time></trkpt><trkpt lat="45.97084523724515" lon="12.665506606483694"><ele>34.0</ele><time>2026-04-27T10:41:02.002Z</time></trkpt><trkpt lat="45.97093104537629" lon="12.665434317923433"><ele>34.0</ele><time>2026-04-27T10:41:04.002Z</time></trkpt><trkpt lat="45.97101842217798" lon="12.66533036877734"><ele>34.0</ele><time>2026-04-27T10:41:06.002Z</time></trkpt><trkpt lat="45.97107632889463" lon="12.665261479086388"><ele>34.0</ele><time>2026-04-27T10:41:07.002Z</time></trkpt><trkpt lat="45.97113779646556" lon="12.665188353197198"><ele>34.0</ele><time>2026-04-27T10:41:08.002Z</time></trkpt><trkpt lat="45.97119901789674" lon="12.665115520116542"><ele>34.333333333333336</ele><time>2026-04-27T10:41:09.002Z</time></trkpt><trkpt lat="45.97126107477385" lon="12.665041693153556"><ele>34.66666666666667</ele><time>2026-04-27T10:41:10.002Z</time></trkpt><trkpt lat="45.97131197433551" lon="12.66495144471558"><ele>35.0</ele><time>2026-04-27T10:41:11.002Z</time></trkpt><trkpt lat="45.97137338760441" lon="12.664878053348215"><ele>35.333333333333336</ele><time>2026-04-27T10:41:12.002Z</time></trkpt><trkpt lat="45.97144606964844" lon="12.664797175566948"><ele>35.666666666666664</ele><time>2026-04-27T10:41:13.002Z</time></trkpt><trkpt lat="45.97150968304283" lon="12.664726095483694"><ele>36.0</ele><time>2026-04-27T10:41:14.002Z</time></trkpt><trkpt lat="45.97157354096435" lon="12.66465546519429"><ele>36.0</ele><time>2026-04-27T10:41:15.002Z</time></trkpt><trkpt lat="45.97165277562911" lon="12.664559135926867"><ele>36.0</ele><time>2026-04-27T10:41:16.002Z</time></trkpt><trkpt lat="45.97173875219965" lon="12.66445815794385"><ele>36.0</ele><time>2026-04-27T10:41:17.002Z</time></trkpt><trkpt lat="45.97181667394165" lon="12.664376292531832"><ele>36.0</ele><time>2026-04-27T10:41:18.002Z</time></trkpt><trkpt lat="45.97188799710885" lon="12.664302352014143"><ele>36.0</ele><time>2026-04-27T10:41:19.002Z</time></trkpt><trkpt lat="45.97196386438072" lon="12.664214637190303"><ele>35.8</ele><time>2026-04-27T10:41:20.002Z</time></trkpt><trkpt lat="45.97203845443048" lon="12.664118436553661"><ele>35.6</ele><time>2026-04-27T10:41:21.002Z</time></trkpt><trkpt lat="45.972110356107294" lon="12.66402923111563"><ele>35.4</ele><time>2026-04-27T10:41:22.002Z</time></trkpt><trkpt lat="45.97217531277364" lon="12.663956686328733"><ele>35.2</ele><time>2026-04-27T10:41:23.002Z</time></trkpt><trkpt lat="45.972243868934726" lon="12.66387836386076"><ele>35.0</ele><time>2026-04-27T10:41:24.002Z</time></trkpt><trkpt lat="45.972314541307036" lon="12.6637940181043"><ele>35.0</ele><time>2026-04-27T10:41:25.002Z</time></trkpt><trkpt lat="45.97238714568945" lon="12.663709904472796"><ele>35.0</ele><time>2026-04-27T10:41:26.002Z</time></trkpt><trkpt lat="45.97246427845821" lon="12.663619898790362"><ele>35.0</ele><time>2026-04-27T10:41:27.002Z</time></trkpt><trkpt lat="45.97255397306872" lon="12.663514723463852"><ele>35.0</ele><time>2026-04-27T10:41:28.002Z</time></trkpt><trkpt lat="45.97264894340364" lon="12.663401284834311"><ele>35.0</ele><time>2026-04-27T10:41:29.002Z</time></trkpt><trkpt lat="45.97272983467059" lon="12.663308268485075"><ele>35.5</ele><time>2026-04-27T10:41:30.002Z</time></trkpt><trkpt lat="45.97281485105496" lon="12.663212039184852"><ele>36.0</ele><time>2026-04-27T10:41:31.002Z</time></trkpt><trkpt lat="45.97290482632554" lon="12.663103512815725"><ele>36.5</ele><time>2026-04-27T10:41:32.002Z</time></trkpt><trkpt lat="45.9729986997189" lon="12.66298871696823"><ele>37.0</ele><time>2026-04-27T10:41:33.002Z</time></trkpt><trkpt lat="45.97309107291918" lon="12.662867119154637"><ele>37.25</ele><time>2026-04-27T10:41:34.002Z</time></trkpt><trkpt lat="45.97318293466717" lon="12.662752036806447"><ele>37.5</ele><time>2026-04-27T10:41:35.002Z</time></trkpt><trkpt lat="45.97328921822826" lon="12.662617648595116"><ele>37.75</ele><time>2026-04-27T10:41:36.002Z</time></trkpt><trkpt lat="45.97339574771412" lon="12.66246752114693"><ele>38.0</ele><time>2026-04-27T10:41:37.002Z</time></trkpt><trkpt lat="45.97350147650028" lon="12.662314751178059"><ele>38.0</ele><time>2026-04-27T10:41:38.002Z</time></trkpt><trkpt lat="45.97360455896475" lon="12.662154064437127"><ele>38.0</ele><time>2026-04-27T10:41:39.002Z</time></trkpt><trkpt lat="45.97371712855686" lon="12.661969446014526"><ele>38.0</ele><time>2026-04-27T10:41:40.002Z</time></trkpt><trkpt lat="45.9738296618435" lon="12.661791430607332"><ele>37.666666666666664</ele><time>2026-04-27T10:41:41.002Z</time></trkpt><trkpt lat="45.973931136752036" lon="12.661629580119127"><ele>37.333333333333336</ele><time>2026-04-27T10:41:42.002Z</time></trkpt><trkpt lat="45.97402448830771" lon="12.661467460027758"><ele>37.0</ele><time>2026-04-27T10:41:42.999Z</time></trkpt><trkpt lat="45.97411476029836" lon="12.661286278107251"><ele>38.0</ele><time>2026-04-27T10:41:43.999Z</time></trkpt><trkpt lat="45.97421001748216" lon="12.661078743012206"><ele>39.0</ele><time>2026-04-27T10:41:44.999Z</time></trkpt><trkpt lat="45.97430596637587" lon="12.660873162598401"><ele>40.0</ele><time>2026-04-27T10:41:45.999Z</time></trkpt><trkpt lat="45.97439455496577" lon="12.660671342547882"><ele>40.0</ele><time>2026-04-27T10:41:46.999Z</time></trkpt><trkpt lat="45.974478369791385" lon="12.660479480202286"><ele>40.0</ele><time>2026-04-27T10:41:47.999Z</time></trkpt><trkpt lat="45.97455260299506" lon="12.660295209214892"><ele>40.0</ele><time>2026-04-27T10:41:48.999Z</time></trkpt><trkpt lat="45.974622524027374" lon="12.660114965543253"><ele>40.0</ele><time>2026-04-27T10:41:49.999Z</time></trkpt><trkpt lat="45.97469039679856" lon="12.659928883316313"><ele>40.0</ele><time>2026-04-27T10:41:50.999Z</time></trkpt><trkpt lat="45.9747575462533" lon="12.659731896242302"><ele>40.0</ele><time>2026-04-27T10:41:51.999Z</time></trkpt><trkpt lat="45.97482327102313" lon="12.659524856860164"><ele>40.0</ele><time>2026-04-27T10:41:52.999Z</time></trkpt><trkpt lat="45.974893497205" lon="12.659288681268333"><ele>39.66666666666667</ele><time>2026-04-27T10:41:54Z</time></trkpt><trkpt lat="45.97495878467852" lon="12.65906098653199"><ele>39.333333333333336</ele><time>2026-04-27T10:41:55Z</time></trkpt><trkpt lat="45.97501969011947" lon="12.658845032336432"><ele>39.0</ele><time>2026-04-27T10:41:55.999Z</time></trkpt><trkpt lat="45.975069691443096" lon="12.658637774724847"><ele>39.25</ele><time>2026-04-27T10:41:57Z</time></trkpt><trkpt lat="45.97511572174731" lon="12.658442251489662"><ele>39.5</ele><time>2026-04-27T10:41:58Z</time></trkpt><trkpt lat="45.97515816757637" lon="12.658244215040247"><ele>39.75</ele><time>2026-04-27T10:41:59Z</time></trkpt><trkpt lat="45.975198730033085" lon="12.658049447462938"><ele>40.0</ele><time>2026-04-27T10:42:00Z</time></trkpt><trkpt lat="45.9752336319708" lon="12.657855432459083"><ele>39.75</ele><time>2026-04-27T10:42:01Z</time></trkpt><trkpt lat="45.9752609758905" lon="12.65765884162903"><ele>39.5</ele><time>2026-04-27T10:42:02Z</time></trkpt><trkpt lat="45.97528916219755" lon="12.657452474279756"><ele>39.25</ele><time>2026-04-27T10:42:03Z</time></trkpt><trkpt lat="45.97531764411534" lon="12.657230942199574"><ele>39.0</ele><time>2026-04-27T10:42:04Z</time></trkpt><trkpt lat="45.975342454681986" lon="12.657009976063827"><ele>40.0</ele><time>2026-04-27T10:42:05Z</time></trkpt><trkpt lat="45.9753626356459" lon="12.656799182779505"><ele>41.0</ele><time>2026-04-27T10:42:06Z</time></trkpt><trkpt lat="45.97537856676653" lon="12.656581745992678"><ele>42.0</ele><time>2026-04-27T10:42:07Z</time></trkpt><trkpt lat="45.975390468532325" lon="12.656366838890767"><ele>42.0</ele><time>2026-04-27T10:42:08Z</time></trkpt><trkpt lat="45.97539856997421" lon="12.656160693053602"><ele>42.0</ele><time>2026-04-27T10:42:09Z</time></trkpt><trkpt lat="45.975402825330264" lon="12.655962407747129"><ele>42.0</ele><time>2026-04-27T10:42:10Z</time></trkpt><trkpt lat="45.97540451917372" lon="12.655768039152205"><ele>42.0</ele><time>2026-04-27T10:42:11Z</time></trkpt><trkpt lat="45.97540457391524" lon="12.655579557003211"><ele>41.75</ele><time>2026-04-27T10:42:12Z</time></trkpt><trkpt lat="45.97540076305549" lon="12.655397326472166"><ele>41.5</ele><time>2026-04-27T10:42:13Z</time></trkpt><trkpt lat="45.97539514962197" lon="12.65523379821076"><ele>41.25</ele><time>2026-04-27T10:42:14Z</time></trkpt><trkpt lat="45.975389016306615" lon="12.655075990451607"><ele>41.0</ele><time>2026-04-27T10:42:15Z</time></trkpt><trkpt lat="45.97538047081368" lon="12.65491077595741"><ele>40.25</ele><time>2026-04-27T10:42:16Z</time></trkpt><trkpt lat="45.97536898537422" lon="12.65472180730507"><ele>39.5</ele><time>2026-04-27T10:42:17Z</time></trkpt><trkpt lat="45.97535344673985" lon="12.654514722335135"><ele>38.75</ele><time>2026-04-27T10:42:18Z</time></trkpt><trkpt lat="45.97533649650303" lon="12.654319691339127"><ele>38.0</ele><time>2026-04-27T10:42:19Z</time></trkpt><trkpt lat="45.97531608524628" lon="12.654139123573525"><ele>38.0</ele><time>2026-04-27T10:42:20Z</time></trkpt><trkpt lat="45.97529399056977" lon="12.65397154347139"><ele>38.0</ele><time>2026-04-27T10:42:21Z</time></trkpt><trkpt lat="45.97527304852584" lon="12.653813468520204"><ele>38.0</ele><time>2026-04-27T10:42:22Z</time></trkpt><trkpt lat="45.97525444835251" lon="12.653666724012641"><ele>38.0</ele><time>2026-04-27T10:42:23Z</time></trkpt><trkpt lat="45.97523461863081" lon="12.653527819708597"><ele>38.0</ele><time>2026-04-27T10:42:24Z</time></trkpt><trkpt lat="45.975213484067076" lon="12.653382034039275"><ele>39.0</ele><time>2026-04-27T10:42:25Z</time></trkpt><trkpt lat="45.9751887976747" lon="12.653223805901911"><ele>40.0</ele><time>2026-04-27T10:42:26Z</time></trkpt><trkpt lat="45.97515908467357" lon="12.653059278193906"><ele>41.0</ele><time>2026-04-27T10:42:27Z</time></trkpt><trkpt lat="45.97512425459733" lon="12.6528973248216"><ele>42.0</ele><time>2026-04-27T10:42:28.001Z</time></trkpt><trkpt lat="45.97508870417164" lon="12.652735296790064"><ele>42.0</ele><time>2026-04-27T10:42:29.001Z</time></trkpt><trkpt lat="45.97504720509772" lon="12.652567966993228"><ele>42.0</ele><time>2026-04-27T10:42:30.001Z</time></trkpt><trkpt lat="45.97499709843234" lon="12.652389002205533"><ele>42.0</ele><time>2026-04-27T10:42:31.001Z</time></trkpt><trkpt lat="45.974951624950776" lon="12.652158533068052"><ele>42.0</ele><time>2026-04-27T10:42:32.001Z</time></trkpt><trkpt lat="45.97487866403665" lon="12.651945281163101"><ele>42.0</ele><time>2026-04-27T10:42:33.001Z</time></trkpt><trkpt lat="45.974835978341744" lon="12.651718450615261"><ele>42.0</ele><time>2026-04-27T10:42:34.001Z</time></trkpt><trkpt lat="45.974761771369764" lon="12.65150524203616"><ele>42.0</ele><time>2026-04-27T10:42:35.001Z</time></trkpt><trkpt lat="45.97471004169143" lon="12.651259143043806"><ele>42.333333333333336</ele><time>2026-04-27T10:42:36.001Z</time></trkpt><trkpt lat="45.9746148749164" lon="12.65101374452655"><ele>42.66666666666667</ele><time>2026-04-27T10:42:37.001Z</time></trkpt><trkpt lat="45.97453892413209" lon="12.650735795712803"><ele>43.0</ele><time>2026-04-27T10:42:38.001Z</time></trkpt><trkpt lat="45.974475290929774" lon="12.650490135517101"><ele>43.333333333333336</ele><time>2026-04-27T10:42:39.001Z</time></trkpt><trkpt lat="45.974417440223974" lon="12.650250711913781"><ele>43.666666666666664</ele><time>2026-04-27T10:42:40.001Z</time></trkpt><trkpt lat="45.974364902197316" lon="12.65003054516204"><ele>44.0</ele><time>2026-04-27T10:42:41.001Z</time></trkpt><trkpt lat="45.974312580076315" lon="12.649826642581123"><ele>44.0</ele><time>2026-04-27T10:42:42.001Z</time></trkpt><trkpt lat="45.97426618684447" lon="12.649657001333601"><ele>44.0</ele><time>2026-04-27T10:42:43.001Z</time></trkpt><trkpt lat="45.97423185434648" lon="12.649525540168483"><ele>44.0</ele><time>2026-04-27T10:42:44.001Z</time></trkpt><trkpt lat="45.974203502427905" lon="12.64940461468734"><ele>44.0</ele><time>2026-04-27T10:42:45.001Z</time></trkpt><trkpt lat="45.9741792882319" lon="12.649306095523398"><ele>44.0</ele><time>2026-04-27T10:42:46.001Z</time></trkpt><trkpt lat="45.97417597571756" lon="12.649205714956551"><ele>43.800000000000004</ele><time>2026-04-27T10:42:47.001Z</time></trkpt><trkpt lat="45.9741691582301" lon="12.649093596016227"><ele>43.6</ele><time>2026-04-27T10:42:48.001Z</time></trkpt><trkpt lat="45.97413440158454" lon="12.648979456676635"><ele>43.4</ele><time>2026-04-27T10:42:49.001Z</time></trkpt><trkpt lat="45.97406754275711" lon="12.648816780037984"><ele>43.2</ele><time>2026-04-27T10:42:50.001Z</time></trkpt><trkpt lat="45.97401605549684" lon="12.64868048775144"><ele>43.0</ele><time>2026-04-27T10:42:51.001Z</time></trkpt><trkpt lat="45.973968549396844" lon="12.648545562037418"><ele>43.5</ele><time>2026-04-27T10:42:52.001Z</time></trkpt><trkpt lat="45.97392398029734" lon="12.648398295221222"><ele>44.0</ele><time>2026-04-27T10:42:53.001Z</time></trkpt><trkpt lat="45.9738782757494" lon="12.648240764026186"><ele>44.5</ele><time>2026-04-27T10:42:54.001Z</time></trkpt><trkpt lat="45.97383492115203" lon="12.64807636390292"><ele>45.0</ele><time>2026-04-27T10:42:55.001Z</time></trkpt><trkpt lat="45.97378679061849" lon="12.647904648241111"><ele>45.0</ele><time>2026-04-27T10:42:56.001Z</time></trkpt><trkpt lat="45.97373987211784" lon="12.64772726799321"><ele>45.0</ele><time>2026-04-27T10:42:57.001Z</time></trkpt><trkpt lat="45.973690250582656" lon="12.647542087391201"><ele>45.0</ele><time>2026-04-27T10:42:58.001Z</time></trkpt><trkpt lat="45.97364017240911" lon="12.647353086860353"><ele>45.0</ele><time>2026-04-27T10:42:59.001Z</time></trkpt><trkpt lat="45.973585310023246" lon="12.647162215236277"><ele>45.0</ele><time>2026-04-27T10:43:00.001Z</time></trkpt><trkpt lat="45.97352636170179" lon="12.646966635688853"><ele>45.0</ele><time>2026-04-27T10:43:01.001Z</time></trkpt><trkpt lat="45.973468462568455" lon="12.646766222756838"><ele>45.0</ele><time>2026-04-27T10:43:02.001Z</time></trkpt><trkpt lat="45.973415839157354" lon="12.646559770994212"><ele>45.0</ele><time>2026-04-27T10:43:03.001Z</time></trkpt><trkpt lat="45.97337338319536" lon="12.646359512897938"><ele>45.0</ele><time>2026-04-27T10:43:04.001Z</time></trkpt><trkpt lat="45.97332925424416" lon="12.646165743264714"><ele>45.0</ele><time>2026-04-27T10:43:05.001Z</time></trkpt><trkpt lat="45.973272232003026" lon="12.645968013904557"><ele>45.0</ele><time>2026-04-27T10:43:06.001Z</time></trkpt><trkpt lat="45.97321080308577" lon="12.645765761350999"><ele>45.0</ele><time>2026-04-27T10:43:07.001Z</time></trkpt><trkpt lat="45.973151734527164" lon="12.645557974468312"><ele>45.0</ele><time>2026-04-27T10:43:08.002Z</time></trkpt><trkpt lat="45.9730947181213" lon="12.645349581013315"><ele>45.0</ele><time>2026-04-27T10:43:09.002Z</time></trkpt><trkpt lat="45.97303932172326" lon="12.645142164481348"><ele>45.0</ele><time>2026-04-27T10:43:10.002Z</time></trkpt><trkpt lat="45.972986801308835" lon="12.644943320703698"><ele>45.0</ele><time>2026-04-27T10:43:11.002Z</time></trkpt><trkpt lat="45.972924840335814" lon="12.644723275030952"><ele>45.0</ele><time>2026-04-27T10:43:12.002Z</time></trkpt><trkpt lat="45.972857950973335" lon="12.64450606868738"><ele>45.0</ele><time>2026-04-27T10:43:13.002Z</time></trkpt><trkpt lat="45.97279412508983" lon="12.644295391012072"><ele>45.0</ele><time>2026-04-27T10:43:14.002Z</time></trkpt><trkpt lat="45.97273389979718" lon="12.644094378233659"><ele>45.0</ele><time>2026-04-27T10:43:15.002Z</time></trkpt><trkpt lat="45.97268363026512" lon="12.643904650313122"><ele>45.0</ele><time>2026-04-27T10:43:16.002Z</time></trkpt><trkpt lat="45.97263531535436" lon="12.643722058291315"><ele>45.0</ele><time>2026-04-27T10:43:17.002Z</time></trkpt><trkpt lat="45.972587683221484" lon="12.643542480348765"><ele>45.0</ele><time>2026-04-27T10:43:18.002Z</time></trkpt><trkpt lat="45.972539225289204" lon="12.643361973023836"><ele>45.0</ele><time>2026-04-27T10:43:19.002Z</time></trkpt><trkpt lat="45.972486463917335" lon="12.643176742131924"><ele>44.5</ele><time>2026-04-27T10:43:20.002Z</time></trkpt><trkpt lat="45.97243535516491" lon="12.642986404090955"><ele>44.0</ele><time>2026-04-27T10:43:21.002Z</time></trkpt><trkpt lat="45.97238320159252" lon="12.642789100920536"><ele>43.5</ele><time>2026-04-27T10:43:22.002Z</time></trkpt><trkpt lat="45.97232859356056" lon="12.642587671814125"><ele>43.0</ele><time>2026-04-27T10:43:23.002Z</time></trkpt><trkpt lat="45.972270558813314" lon="12.642380476820437"><ele>43.0</ele><time>2026-04-27T10:43:24.002Z</time></trkpt><trkpt lat="45.972214991692276" lon="12.64217202024228"><ele>43.0</ele><time>2026-04-27T10:43:25.002Z</time></trkpt><trkpt lat="45.97216050986473" lon="12.641961426861371"><ele>43.0</ele><time>2026-04-27T10:43:26.002Z</time></trkpt><trkpt lat="45.97210787715741" lon="12.641761852494303"><ele>43.0</ele><time>2026-04-27T10:43:27.002Z</time></trkpt><trkpt lat="45.9720575297849" lon="12.64157860655003"><ele>43.0</ele><time>2026-04-27T10:43:28.002Z</time></trkpt><trkpt lat="45.97200879661273" lon="12.641407138559725"><ele>43.0</ele><time>2026-04-27T10:43:29.002Z</time></trkpt><trkpt lat="45.971961872302316" lon="12.641244784842574"><ele>43.0</ele><time>2026-04-27T10:43:30.002Z</time></trkpt><trkpt lat="45.971924538811926" lon="12.641095114923884"><ele>42.8</ele><time>2026-04-27T10:43:31.002Z</time></trkpt><trkpt lat="45.971888083226716" lon="12.640946714342213"><ele>42.599999999999994</ele><time>2026-04-27T10:43:32.002Z</time></trkpt><trkpt lat="45.97185360100584" lon="12.640813842783176"><ele>42.400000000000006</ele><time>2026-04-27T10:43:33.002Z</time></trkpt><trkpt lat="45.97182037213567" lon="12.640692969862082"><ele>42.2</ele><time>2026-04-27T10:43:34.002Z</time></trkpt><trkpt lat="45.971796607784185" lon="12.640583591339103"><ele>42.0</ele><time>2026-04-27T10:43:35.002Z</time></trkpt><trkpt lat="45.97178201232588" lon="12.640460158770173"><ele>42.0</ele><time>2026-04-27T10:43:36.002Z</time></trkpt><trkpt lat="45.971766061966825" lon="12.64032236985626"><ele>42.0</ele><time>2026-04-27T10:43:37.002Z</time></trkpt><trkpt lat="45.97173171681117" lon="12.640185777403554"><ele>42.0</ele><time>2026-04-27T10:43:38.002Z</time></trkpt><trkpt lat="45.971665433333776" lon="12.64001510539187"><ele>42.0</ele><time>2026-04-27T10:43:39.002Z</time></trkpt><trkpt lat="45.97157902278875" lon="12.6397832923718"><ele>42.0</ele><time>2026-04-27T10:43:40.002Z</time></trkpt><trkpt lat="45.971504275987975" lon="12.639543612774998"><ele>42.0</ele><time>2026-04-27T10:43:41.002Z</time></trkpt><trkpt lat="45.97143061082189" lon="12.639292083641923"><ele>42.0</ele><time>2026-04-27T10:43:42.002Z</time></trkpt><trkpt lat="45.97136275428797" lon="12.639042362480854"><ele>41.666666666666664</ele><time>2026-04-27T10:43:43.002Z</time></trkpt><trkpt lat="45.97129947809954" lon="12.638796566197398"><ele>41.33333333333333</ele><time>2026-04-27T10:43:44.002Z</time></trkpt><trkpt lat="45.97123861566874" lon="12.638549851519478"><ele>41.0</ele><time>2026-04-27T10:43:45.002Z</time></trkpt><trkpt lat="45.97118027056411" lon="12.638322683240832"><ele>41.0</ele><time>2026-04-27T10:43:46.002Z</time></trkpt><trkpt lat="45.971124397502905" lon="12.638111409050886"><ele>41.0</ele><time>2026-04-27T10:43:47.002Z</time></trkpt><trkpt lat="45.97106558136797" lon="12.63789911319915"><ele>41.0</ele><time>2026-04-27T10:43:48.002Z</time></trkpt><trkpt lat="45.97100655674844" lon="12.637681834590339"><ele>41.666666666666664</ele><time>2026-04-27T10:43:48.999Z</time></trkpt><trkpt lat="45.97094354972624" lon="12.637459020494624"><ele>42.333333333333336</ele><time>2026-04-27T10:43:49.999Z</time></trkpt><trkpt lat="45.970878251915686" lon="12.637223321601473"><ele>43.0</ele><time>2026-04-27T10:43:50.999Z</time></trkpt><trkpt lat="45.970799098874494" lon="12.636946350445568"><ele>43.0</ele><time>2026-04-27T10:43:51.999Z</time></trkpt><trkpt lat="45.97071786136754" lon="12.636657380816162"><ele>43.0</ele><time>2026-04-27T10:43:52.999Z</time></trkpt><trkpt lat="45.97064770874234" lon="12.636400210134816"><ele>43.0</ele><time>2026-04-27T10:43:53.999Z</time></trkpt><trkpt lat="45.97058616772137" lon="12.636172698633418"><ele>42.5</ele><time>2026-04-27T10:43:54.999Z</time></trkpt><trkpt lat="45.970531694677454" lon="12.635970143323615"><ele>42.0</ele><time>2026-04-27T10:43:55.999Z</time></trkpt><trkpt lat="45.970479581197054" lon="12.63578012673959"><ele>41.5</ele><time>2026-04-27T10:43:56.999Z</time></trkpt><trkpt lat="45.970433464574384" lon="12.635609350380108"><ele>41.0</ele><time>2026-04-27T10:43:57.999Z</time></trkpt><trkpt lat="45.970387643194336" lon="12.635441639775092"><ele>41.0</ele><time>2026-04-27T10:43:58.999Z</time></trkpt><trkpt lat="45.97034464591721" lon="12.635275211270267"><ele>41.0</ele><time>2026-04-27T10:43:59.999Z</time></trkpt><trkpt lat="45.97030498808452" lon="12.63511632139379"><ele>41.0</ele><time>2026-04-27T10:44:00.999Z</time></trkpt><trkpt lat="45.97027382960447" lon="12.634979868783391"><ele>41.0</ele><time>2026-04-27T10:44:01.999Z</time></trkpt><trkpt lat="45.97025024852035" lon="12.634883172924425"><ele>41.0</ele><time>2026-04-27T10:44:02.999Z</time></trkpt><trkpt lat="45.97022552594008" lon="12.634785459932699"><ele>41.0</ele><time>2026-04-27T10:44:05Z</time></trkpt><trkpt lat="45.97019593120526" lon="12.63469958500722"><ele>41.0</ele><time>2026-04-27T10:44:45.001Z</time></trkpt><trkpt lat="45.970167029462466" lon="12.634583961808195"><ele>41.0</ele><time>2026-04-27T10:44:46.001Z</time></trkpt><trkpt lat="45.97013313626155" lon="12.634454979399601"><ele>41.0</ele><time>2026-04-27T10:44:47.001Z</time></trkpt><trkpt lat="45.97009890128452" lon="12.634321996959397"><ele>41.0</ele><time>2026-04-27T10:44:48.001Z</time></trkpt><trkpt lat="45.9700568726119" lon="12.634173780539161"><ele>40.25</ele><time>2026-04-27T10:44:49.001Z</time></trkpt><trkpt lat="45.97001280644824" lon="12.634019492816211"><ele>39.5</ele><time>2026-04-27T10:44:50.001Z</time></trkpt><trkpt lat="45.969965553835245" lon="12.633856421341717"><ele>38.75</ele><time>2026-04-27T10:44:51.001Z</time></trkpt><trkpt lat="45.969919758169915" lon="12.63368684979013"><ele>38.0</ele><time>2026-04-27T10:44:52.001Z</time></trkpt><trkpt lat="45.96987478035408" lon="12.633516663147091"><ele>38.0</ele><time>2026-04-27T10:44:53.001Z</time></trkpt><trkpt lat="45.969824513666175" lon="12.63333464000032"><ele>38.0</ele><time>2026-04-27T10:44:54.001Z</time></trkpt><trkpt lat="45.96977031592897" lon="12.633142858509268"><ele>38.0</ele><time>2026-04-27T10:44:55.001Z</time></trkpt><trkpt lat="45.96971401505587" lon="12.6329462747561"><ele>38.0</ele><time>2026-04-27T10:44:56.001Z</time></trkpt><trkpt lat="45.96966131101746" lon="12.632756606694269"><ele>38.25</ele><time>2026-04-27T10:44:57.001Z</time></trkpt><trkpt lat="45.96961096470563" lon="12.632566521843474"><ele>38.5</ele><time>2026-04-27T10:44:58.001Z</time></trkpt><trkpt lat="45.96956032817933" lon="12.632376035935415"><ele>38.75</ele><time>2026-04-27T10:44:59.001Z</time></trkpt><trkpt lat="45.969502598054376" lon="12.632174597216325"><ele>39.0</ele><time>2026-04-27T10:45:00.001Z</time></trkpt><trkpt lat="45.969440978943304" lon="12.631955805978052"><ele>39.0</ele><time>2026-04-27T10:45:01.001Z</time></trkpt><trkpt lat="45.969383675010675" lon="12.631761102618869"><ele>39.0</ele><time>2026-04-27T10:45:02.001Z</time></trkpt><trkpt lat="45.96933489601276" lon="12.631582069659245"><ele>39.0</ele><time>2026-04-27T10:45:03.001Z</time></trkpt><trkpt lat="45.96929350536834" lon="12.631424691157505"><ele>39.0</ele><time>2026-04-27T10:45:04.001Z</time></trkpt><trkpt lat="45.969258559586166" lon="12.631292471157929"><ele>39.0</ele><time>2026-04-27T10:45:05.001Z</time></trkpt><trkpt lat="45.96922949285726" lon="12.631194463953717"><ele>39.0</ele><time>2026-04-27T10:45:06.001Z</time></trkpt><trkpt lat="45.969177983349375" lon="12.631053387545256"><ele>39.0</ele><time>2026-04-27T10:45:08.001Z</time></trkpt><trkpt lat="45.969141134845415" lon="12.630898276642716"><ele>39.0</ele><time>2026-04-27T10:45:10.001Z</time></trkpt><trkpt lat="45.969103046723426" lon="12.630751175476533"><ele>39.0</ele><time>2026-04-27T10:45:12.002Z</time></trkpt><trkpt lat="45.96906096720412" lon="12.63059218814705"><ele>39.0</ele><time>2026-04-27T10:45:14.002Z</time></trkpt><trkpt lat="45.96902613086774" lon="12.630477090651713"><ele>39.0</ele><time>2026-04-27T10:45:15.002Z</time></trkpt><trkpt lat="45.96898666266811" lon="12.630340343278814"><ele>39.0</ele><time>2026-04-27T10:45:16.002Z</time></trkpt><trkpt lat="45.96895284686634" lon="12.630203427466743"><ele>39.0</ele><time>2026-04-27T10:45:17.002Z</time></trkpt><trkpt lat="45.968920377266755" lon="12.630074850927324"><ele>39.0</ele><time>2026-04-27T10:45:18.002Z</time></trkpt><trkpt lat="45.968883098450775" lon="12.62993801562249"><ele>38.75</ele><time>2026-04-27T10:45:19.002Z</time></trkpt><trkpt lat="45.968839967896805" lon="12.629790169741108"><ele>38.5</ele><time>2026-04-27T10:45:20.002Z</time></trkpt><trkpt lat="45.96879773162002" lon="12.629641368727087"><ele>38.25</ele><time>2026-04-27T10:45:21.002Z</time></trkpt><trkpt lat="45.96875644236614" lon="12.629486022726228"><ele>38.0</ele><time>2026-04-27T10:45:22.002Z</time></trkpt><trkpt lat="45.96871580944005" lon="12.62933496559799"><ele>38.4</ele><time>2026-04-27T10:45:23.002Z</time></trkpt><trkpt lat="45.96867686130628" lon="12.629192249584221"><ele>38.8</ele><time>2026-04-27T10:45:24.002Z</time></trkpt><trkpt lat="45.96863868925659" lon="12.629054928391016"><ele>39.2</ele><time>2026-04-27T10:45:25.002Z</time></trkpt><trkpt lat="45.968600463931494" lon="12.628919285923391"><ele>39.6</ele><time>2026-04-27T10:45:26.002Z</time></trkpt><trkpt lat="45.968564902039546" lon="12.628785878953515"><ele>40.0</ele><time>2026-04-27T10:45:27.002Z</time></trkpt><trkpt lat="45.96852680448451" lon="12.628647204163396"><ele>40.0</ele><time>2026-04-27T10:45:28.002Z</time></trkpt><trkpt lat="45.968487693108884" lon="12.628502106587783"><ele>40.0</ele><time>2026-04-27T10:45:29.002Z</time></trkpt><trkpt lat="45.96844819486239" lon="12.628356320148967"><ele>40.0</ele><time>2026-04-27T10:45:30.002Z</time></trkpt><trkpt lat="45.96841134437437" lon="12.628218944822672"><ele>40.0</ele><time>2026-04-27T10:45:31.002Z</time></trkpt><trkpt lat="45.96837390779637" lon="12.628080939597904"><ele>40.0</ele><time>2026-04-27T10:45:32.002Z</time></trkpt><trkpt lat="45.968337887660915" lon="12.627940971139758"><ele>39.8</ele><time>2026-04-27T10:45:33.002Z</time></trkpt><trkpt lat="45.96829916160216" lon="12.62779956046853"><ele>39.6</ele><time>2026-04-27T10:45:34.002Z</time></trkpt><trkpt lat="45.96825808656884" lon="12.627657320157304"><ele>39.4</ele><time>2026-04-27T10:45:35.002Z</time></trkpt><trkpt lat="45.96821726439727" lon="12.62750347599174"><ele>39.2</ele><time>2026-04-27T10:45:36.002Z</time></trkpt><trkpt lat="45.96818249610393" lon="12.627367298849737"><ele>39.0</ele><time>2026-04-27T10:45:37.002Z</time></trkpt><trkpt lat="45.96815136551664" lon="12.627239467155176"><ele>39.0</ele><time>2026-04-27T10:45:38.002Z</time></trkpt><trkpt lat="45.96812461429186" lon="12.627117156990135"><ele>39.0</ele><time>2026-04-27T10:45:39.002Z</time></trkpt><trkpt lat="45.96810165142143" lon="12.627004938017945"><ele>39.0</ele><time>2026-04-27T10:45:40.002Z</time></trkpt><trkpt lat="45.96807893994124" lon="12.626906021204144"><ele>39.0</ele><time>2026-04-27T10:45:41.002Z</time></trkpt><trkpt lat="45.96805664461605" lon="12.626816830463708"><ele>39.0</ele><time>2026-04-27T10:45:42.002Z</time></trkpt><trkpt lat="45.96802458418657" lon="12.626674645559739"><ele>39.0</ele><time>2026-04-27T10:45:44.002Z</time></trkpt><trkpt lat="45.96800374494179" lon="12.62655083965918"><ele>39.0</ele><time>2026-04-27T10:45:46.002Z</time></trkpt><trkpt lat="45.96800278041744" lon="12.626456747392563"><ele>39.0</ele><time>2026-04-27T10:45:47.002Z</time></trkpt><trkpt lat="45.967983065143855" lon="12.626356839829915"><ele>39.0</ele><time>2026-04-27T10:45:48.002Z</time></trkpt><trkpt lat="45.96794812825248" lon="12.626271612370074"><ele>39.0</ele><time>2026-04-27T10:45:49.002Z</time></trkpt><trkpt lat="45.96791028367467" lon="12.6261852395861"><ele>39.0</ele><time>2026-04-27T10:45:50.003Z</time></trkpt><trkpt lat="45.967867718901154" lon="12.626012378928955"><ele>39.0</ele><time>2026-04-27T10:45:52.003Z</time></trkpt><trkpt lat="45.967868680941564" lon="12.625917274800074"><ele>39.0</ele><time>2026-04-27T10:45:53.003Z</time></trkpt><trkpt lat="45.96787050302671" lon="12.625755397614016"><ele>39.0</ele><time>2026-04-27T10:45:55Z</time></trkpt><trkpt lat="45.967858366406965" lon="12.625582419978928"><ele>39.0</ele><time>2026-04-27T10:45:57Z</time></trkpt><trkpt lat="45.9678512027267" lon="12.625484303636172"><ele>39.0</ele><time>2026-04-27T10:45:58Z</time></trkpt><trkpt lat="45.96784971214204" lon="12.625375713731984"><ele>39.0</ele><time>2026-04-27T10:45:59Z</time></trkpt><trkpt lat="45.967853531548904" lon="12.625261578499003"><ele>39.0</ele><time>2026-04-27T10:46:00Z</time></trkpt><trkpt lat="45.967857859872595" lon="12.62515024977515"><ele>39.0</ele><time>2026-04-27T10:46:01Z</time></trkpt><trkpt lat="45.96786579568192" lon="12.625047633618008"><ele>39.0</ele><time>2026-04-27T10:46:02Z</time></trkpt><trkpt lat="45.96787326332556" lon="12.624947988566653"><ele>39.0</ele><time>2026-04-27T10:46:03Z</time></trkpt><trkpt lat="45.967884218792385" lon="12.624833718144785"><ele>39.0</ele><time>2026-04-27T10:46:04Z</time></trkpt><trkpt lat="45.96789456949605" lon="12.624680873395056"><ele>39.0</ele><time>2026-04-27T10:46:05Z</time></trkpt><trkpt lat="45.96790394151278" lon="12.624497286238062"><ele>38.75</ele><time>2026-04-27T10:46:06Z</time></trkpt><trkpt lat="45.967916845387975" lon="12.62431238902044"><ele>38.5</ele><time>2026-04-27T10:46:07Z</time></trkpt><trkpt lat="45.96792824467165" lon="12.624127792218488"><ele>38.25</ele><time>2026-04-27T10:46:08Z</time></trkpt><trkpt lat="45.967940495402246" lon="12.623959499110851"><ele>38.0</ele><time>2026-04-27T10:46:09Z</time></trkpt><trkpt lat="45.96795363186936" lon="12.623797761601107"><ele>38.0</ele><time>2026-04-27T10:46:10Z</time></trkpt><trkpt lat="45.96796457129449" lon="12.623650644858778"><ele>38.0</ele><time>2026-04-27T10:46:11Z</time></trkpt><trkpt lat="45.967974798527166" lon="12.623510701270083"><ele>38.0</ele><time>2026-04-27T10:46:12Z</time></trkpt><trkpt lat="45.967985298015954" lon="12.623378138370208"><ele>38.0</ele><time>2026-04-27T10:46:13Z</time></trkpt><trkpt lat="45.96799068949251" lon="12.623251119792833"><ele>38.0</ele><time>2026-04-27T10:46:14Z</time></trkpt><trkpt lat="45.96799603790461" lon="12.62310215785039"><ele>38.5</ele><time>2026-04-27T10:46:15Z</time></trkpt><trkpt lat="45.96800974068338" lon="12.622946856562875"><ele>39.0</ele><time>2026-04-27T10:46:16Z</time></trkpt><trkpt lat="45.96802406743261" lon="12.622774711829695"><ele>39.5</ele><time>2026-04-27T10:46:17Z</time></trkpt><trkpt lat="45.968036282846995" lon="12.62258526084903"><ele>40.0</ele><time>2026-04-27T10:46:18Z</time></trkpt><trkpt lat="45.9680486378689" lon="12.622399791335292"><ele>40.0</ele><time>2026-04-27T10:46:19Z</time></trkpt><trkpt lat="45.96805939571009" lon="12.622221344002371"><ele>40.0</ele><time>2026-04-27T10:46:20Z</time></trkpt><trkpt lat="45.96807121951722" lon="12.622038249674414"><ele>40.0</ele><time>2026-04-27T10:46:21Z</time></trkpt><trkpt lat="45.968084876172554" lon="12.62185069782801"><ele>40.0</ele><time>2026-04-27T10:46:22Z</time></trkpt><trkpt lat="45.968099775206596" lon="12.621668186181038"><ele>40.0</ele><time>2026-04-27T10:46:23Z</time></trkpt><trkpt lat="45.968113403193115" lon="12.62148317241693"><ele>40.0</ele><time>2026-04-27T10:46:24Z</time></trkpt><trkpt lat="45.96812921130161" lon="12.621294835424942"><ele>40.0</ele><time>2026-04-27T10:46:25Z</time></trkpt><trkpt lat="45.96814654110604" lon="12.621108207327435"><ele>40.0</ele><time>2026-04-27T10:46:26Z</time></trkpt><trkpt lat="45.9681605131256" lon="12.620930553449535"><ele>40.333333333333336</ele><time>2026-04-27T10:46:27Z</time></trkpt><trkpt lat="45.96816893511911" lon="12.620742427022746"><ele>40.666666666666664</ele><time>2026-04-27T10:46:28Z</time></trkpt><trkpt lat="45.96818184907023" lon="12.62051537334566"><ele>41.0</ele><time>2026-04-27T10:46:29.001Z</time></trkpt><trkpt lat="45.96819982975668" lon="12.620271758548222"><ele>41.0</ele><time>2026-04-27T10:46:30.001Z</time></trkpt><trkpt lat="45.968215299278505" lon="12.620066071059446"><ele>41.0</ele><time>2026-04-27T10:46:31.001Z</time></trkpt><trkpt lat="45.96822863944026" lon="12.619867535465387"><ele>41.0</ele><time>2026-04-27T10:46:32.001Z</time></trkpt><trkpt lat="45.96824730119872" lon="12.619682382951643"><ele>41.0</ele><time>2026-04-27T10:46:33.001Z</time></trkpt><trkpt lat="45.96826507356411" lon="12.619508765204307"><ele>40.25</ele><time>2026-04-27T10:46:34.001Z</time></trkpt><trkpt lat="45.968280356200225" lon="12.619331578193679"><ele>39.5</ele><time>2026-04-27T10:46:35.001Z</time></trkpt><trkpt lat="45.96829679263769" lon="12.619142667390374"><ele>38.75</ele><time>2026-04-27T10:46:36.001Z</time></trkpt><trkpt lat="45.96831357230475" lon="12.618949524375989"><ele>38.0</ele><time>2026-04-27T10:46:37.001Z</time></trkpt><trkpt lat="45.96832669229575" lon="12.618766734592144"><ele>38.25</ele><time>2026-04-27T10:46:38.001Z</time></trkpt><trkpt lat="45.968340285736325" lon="12.618590511603845"><ele>38.5</ele><time>2026-04-27T10:46:39.001Z</time></trkpt><trkpt lat="45.968353093082065" lon="12.618412506414272"><ele>38.75</ele><time>2026-04-27T10:46:40.001Z</time></trkpt><trkpt lat="45.96836635124932" lon="12.618230379677119"><ele>39.0</ele><time>2026-04-27T10:46:41.001Z</time></trkpt><trkpt lat="45.968380233186934" lon="12.618046786684754"><ele>39.0</ele><time>2026-04-27T10:46:42.001Z</time></trkpt><trkpt lat="45.968393211292984" lon="12.617858701996047"><ele>39.0</ele><time>2026-04-27T10:46:43.001Z</time></trkpt><trkpt lat="45.968404672575666" lon="12.617673961572155"><ele>39.0</ele><time>2026-04-27T10:46:44.001Z</time></trkpt><trkpt lat="45.96841928462781" lon="12.617494106126895"><ele>39.0</ele><time>2026-04-27T10:46:45.001Z</time></trkpt><trkpt lat="45.96843359519628" lon="12.617314049021818"><ele>39.25</ele><time>2026-04-27T10:46:46.001Z</time></trkpt><trkpt lat="45.9684480954572" lon="12.617132095746408"><ele>39.5</ele><time>2026-04-27T10:46:47.001Z</time></trkpt><trkpt lat="45.96846090642934" lon="12.6169471273818"><ele>39.75</ele><time>2026-04-27T10:46:48.001Z</time></trkpt><trkpt lat="45.96847437151334" lon="12.616773809095921"><ele>40.0</ele><time>2026-04-27T10:46:49.001Z</time></trkpt><trkpt lat="45.96848584075997" lon="12.616604169053687"><ele>40.0</ele><time>2026-04-27T10:46:50.001Z</time></trkpt><trkpt lat="45.96849659281553" lon="12.616440975794525"><ele>40.0</ele><time>2026-04-27T10:46:51.001Z</time></trkpt><trkpt lat="45.96851024995819" lon="12.616275594669716"><ele>40.0</ele><time>2026-04-27T10:46:52.001Z</time></trkpt><trkpt lat="45.96852193140567" lon="12.61610694480152"><ele>40.0</ele><time>2026-04-27T10:46:53.001Z</time></trkpt><trkpt lat="45.968534695165715" lon="12.61594012227999"><ele>40.2</ele><time>2026-04-27T10:46:54.001Z</time></trkpt><trkpt lat="45.96854588101086" lon="12.615788900154191"><ele>40.4</ele><time>2026-04-27T10:46:55.001Z</time></trkpt><trkpt lat="45.96855673824109" lon="12.615652217093494"><ele>40.599999999999994</ele><time>2026-04-27T10:46:56.001Z</time></trkpt><trkpt lat="45.968566241988185" lon="12.615524378787063"><ele>40.8</ele><time>2026-04-27T10:46:57.001Z</time></trkpt><trkpt lat="45.968574588326696" lon="12.615399563104832"><ele>41.0</ele><time>2026-04-27T10:46:58.001Z</time></trkpt><trkpt lat="45.96858273790782" lon="12.615283129680215"><ele>41.0</ele><time>2026-04-27T10:46:59.001Z</time></trkpt><trkpt lat="45.96859250647807" lon="12.615170524635769"><ele>41.0</ele><time>2026-04-27T10:47:00.001Z</time></trkpt><trkpt lat="45.96860161373137" lon="12.615065765712435"><ele>41.0</ele><time>2026-04-27T10:47:01.001Z</time></trkpt><trkpt lat="45.96861215607806" lon="12.614968413847022"><ele>41.0</ele><time>2026-04-27T10:47:02.001Z</time></trkpt><trkpt lat="45.96862771291047" lon="12.614870876583282"><ele>41.0</ele><time>2026-04-27T10:47:03.001Z</time></trkpt><trkpt lat="45.96863585686345" lon="12.614705415857049"><ele>41.0</ele><time>2026-04-27T10:47:05.001Z</time></trkpt><trkpt lat="45.968644670974456" lon="12.614599680851564"><ele>41.0</ele><time>2026-04-27T10:47:06.002Z</time></trkpt><trkpt lat="45.96865905244133" lon="12.614507915896485"><ele>41.0</ele><time>2026-04-27T10:47:07.002Z</time></trkpt><trkpt lat="45.96867353147432" lon="12.614399262925113"><ele>41.0</ele><time>2026-04-27T10:47:11.002Z</time></trkpt><trkpt lat="45.96868312204527" lon="12.614297454039772"><ele>41.0</ele><time>2026-04-27T10:47:13.002Z</time></trkpt><trkpt lat="45.96869192194516" lon="12.614195599444374"><ele>41.0</ele><time>2026-04-27T10:47:14.002Z</time></trkpt><trkpt lat="45.96870031173221" lon="12.614041404916337"><ele>41.0</ele><time>2026-04-27T10:47:16.002Z</time></trkpt><trkpt lat="45.96872266759147" lon="12.613904034614553"><ele>41.0</ele><time>2026-04-27T10:47:18.002Z</time></trkpt><trkpt lat="45.96876472191924" lon="12.613816247334114"><ele>41.0</ele><time>2026-04-27T10:47:22.002Z</time></trkpt><trkpt lat="45.968831253835646" lon="12.61374223530281"><ele>41.0</ele><time>2026-04-27T10:47:24.002Z</time></trkpt><trkpt lat="45.96890234291772" lon="12.613660063241557"><ele>41.0</ele><time>2026-04-27T10:47:26.002Z</time></trkpt><trkpt lat="45.96886131743382" lon="12.613504112490219"><ele>41.0</ele><time>2026-04-27T10:47:28.002Z</time></trkpt><trkpt lat="45.968811200129075" lon="12.613393273137028"><ele>41.0</ele><time>2026-04-27T10:47:29.002Z</time></trkpt><trkpt lat="45.968780406549385" lon="12.613271431620879"><ele>41.0</ele><time>2026-04-27T10:47:30.002Z</time></trkpt><trkpt lat="45.96876938416658" lon="12.61316652140535"><ele>41.0</ele><time>2026-04-27T10:47:31.002Z</time></trkpt><trkpt lat="45.96877031815954" lon="12.613065662222127"><ele>41.0</ele><time>2026-04-27T10:47:32.002Z</time></trkpt><trkpt lat="45.96877345702428" lon="12.612958246778609"><ele>41.0</ele><time>2026-04-27T10:47:33.002Z</time></trkpt><trkpt lat="45.96878484650544" lon="12.61283315372934"><ele>41.0</ele><time>2026-04-27T10:47:34.002Z</time></trkpt><trkpt lat="45.96879794225385" lon="12.612712746430793"><ele>41.199999999999996</ele><time>2026-04-27T10:47:35.002Z</time></trkpt><trkpt lat="45.96881057689651" lon="12.612605608052672"><ele>41.4</ele><time>2026-04-27T10:47:36.002Z</time></trkpt><trkpt lat="45.968818823822346" lon="12.612484109527076"><ele>41.6</ele><time>2026-04-27T10:47:37.002Z</time></trkpt><trkpt lat="45.96883003538295" lon="12.612337588008986"><ele>41.8</ele><time>2026-04-27T10:47:38.002Z</time></trkpt><trkpt lat="45.96884213105588" lon="12.612227919820858"><ele>42.0</ele><time>2026-04-27T10:47:39.002Z</time></trkpt><trkpt lat="45.968860580295626" lon="12.612064198602354"><ele>42.166666666666664</ele><time>2026-04-27T10:47:41.002Z</time></trkpt><trkpt lat="45.968881497832285" lon="12.611929838132623"><ele>42.333333333333336</ele><time>2026-04-27T10:47:43.003Z</time></trkpt><trkpt lat="45.96891806545117" lon="12.611794629686864"><ele>42.5</ele><time>2026-04-27T10:47:45.003Z</time></trkpt><trkpt lat="45.968956584650726" lon="12.611716352459318"><ele>42.66666666666667</ele><time>2026-04-27T10:47:46.003Z</time></trkpt><trkpt lat="45.969009097208584" lon="12.611572931941554"><ele>42.833333333333336</ele><time>2026-04-27T10:47:48.003Z</time></trkpt><trkpt lat="45.96897498383546" lon="12.611487080204355"><ele>43.0</ele><time>2026-04-27T10:47:49.003Z</time></trkpt><trkpt lat="45.96893156845335" lon="12.611391683670178"><ele>43.0</ele><time>2026-04-27T10:47:50.003Z</time></trkpt><trkpt lat="45.96888460714587" lon="12.611290939442403"><ele>43.0</ele><time>2026-04-27T10:47:51.003Z</time></trkpt><trkpt lat="45.96880816538749" lon="12.611245223029455"><ele>43.0</ele><time>2026-04-27T10:47:52.003Z</time></trkpt><trkpt lat="45.96874056164239" lon="12.611212986204581"><ele>43.0</ele><time>2026-04-27T10:47:53.003Z</time></trkpt><trkpt lat="45.96865485894045" lon="12.611200046984573"><ele>43.0</ele><time>2026-04-27T10:47:54.003Z</time></trkpt><trkpt lat="45.96856868123195" lon="12.611237466602415"><ele>43.0</ele><time>2026-04-27T10:47:55.003Z</time></trkpt><trkpt lat="45.968467538182416" lon="12.61122299851918"><ele>43.0</ele><time>2026-04-27T10:47:56.003Z</time></trkpt><trkpt lat="45.96837292133426" lon="12.611231764734034"><ele>43.0</ele><time>2026-04-27T10:47:57.003Z</time></trkpt><trkpt lat="45.96828292785427" lon="12.611235057615326"><ele>43.0</ele><time>2026-04-27T10:47:58.003Z</time></trkpt><trkpt lat="45.968194236630694" lon="12.611239106929215"><ele>43.0</ele><time>2026-04-27T10:47:59.003Z</time></trkpt><trkpt lat="45.968098393365466" lon="12.611244068664753"><ele>43.0</ele><time>2026-04-27T10:48:00.003Z</time></trkpt><trkpt lat="45.96797286290182" lon="12.611251813070714"><ele>42.75</ele><time>2026-04-27T10:48:01Z</time></trkpt><trkpt lat="45.967838655660536" lon="12.611262476677112"><ele>42.5</ele><time>2026-04-27T10:48:02Z</time></trkpt><trkpt lat="45.96769603472477" lon="12.611269206063447"><ele>42.25</ele><time>2026-04-27T10:48:03Z</time></trkpt><trkpt lat="45.96754797905169" lon="12.611278568130619"><ele>42.0</ele><time>2026-04-27T10:48:04Z</time></trkpt><trkpt lat="45.96740792233858" lon="12.611288076705335"><ele>41.5</ele><time>2026-04-27T10:48:05Z</time></trkpt><trkpt lat="45.967281240788715" lon="12.611301286588178"><ele>41.0</ele><time>2026-04-27T10:48:06Z</time></trkpt><trkpt lat="45.96716387098386" lon="12.611316190867715"><ele>40.5</ele><time>2026-04-27T10:48:07Z</time></trkpt><trkpt lat="45.96703898754752" lon="12.611322831246918"><ele>40.0</ele><time>2026-04-27T10:48:08Z</time></trkpt><trkpt lat="45.96692136764459" lon="12.611329437536595"><ele>40.0</ele><time>2026-04-27T10:48:09Z</time></trkpt><trkpt lat="45.96680911782438" lon="12.61132975039614"><ele>40.0</ele><time>2026-04-27T10:48:10Z</time></trkpt><trkpt lat="45.96668372591736" lon="12.611338015583009"><ele>40.0</ele><time>2026-04-27T10:48:11Z</time></trkpt><trkpt lat="45.96656966878542" lon="12.611331257797215"><ele>40.0</ele><time>2026-04-27T10:48:12Z</time></trkpt><trkpt lat="45.96646326072433" lon="12.611331432202727"><ele>39.8</ele><time>2026-04-27T10:48:13Z</time></trkpt><trkpt lat="45.966368077099" lon="12.61132648776514"><ele>39.6</ele><time>2026-04-27T10:48:14Z</time></trkpt><trkpt lat="45.96627548571789" lon="12.611325153725954"><ele>39.4</ele><time>2026-04-27T10:48:15Z</time></trkpt><trkpt lat="45.966173654308584" lon="12.611319533416202"><ele>39.2</ele><time>2026-04-27T10:48:16Z</time></trkpt><trkpt lat="45.966061326197185" lon="12.61132738537959"><ele>39.0</ele><time>2026-04-27T10:48:17Z</time></trkpt><trkpt lat="45.9659492964629" lon="12.611332846829248"><ele>38.8</ele><time>2026-04-27T10:48:18Z</time></trkpt><trkpt lat="45.96584583430847" lon="12.611338783048279"><ele>38.599999999999994</ele><time>2026-04-27T10:48:19Z</time></trkpt><trkpt lat="45.96574162993226" lon="12.611350834630391"><ele>38.4</ele><time>2026-04-27T10:48:20Z</time></trkpt><trkpt lat="45.96563960005848" lon="12.611355099297269"><ele>38.199999999999996</ele><time>2026-04-27T10:48:21Z</time></trkpt><trkpt lat="45.96554258933066" lon="12.611365333254946"><ele>38.0</ele><time>2026-04-27T10:48:22Z</time></trkpt><trkpt lat="45.96545603669285" lon="12.61136690910092"><ele>38.0</ele><time>2026-04-27T10:48:23Z</time></trkpt><trkpt lat="45.96538061907757" lon="12.611368085018551"><ele>38.0</ele><time>2026-04-27T10:48:24Z</time></trkpt><trkpt lat="45.96529394483172" lon="12.61137303271668"><ele>38.0</ele><time>2026-04-27T10:48:25Z</time></trkpt><trkpt lat="45.96521334435518" lon="12.611377720536339"><ele>38.0</ele><time>2026-04-27T10:48:26Z</time></trkpt><trkpt lat="45.965142203767776" lon="12.611378995003816"><ele>38.0</ele><time>2026-04-27T10:48:27Z</time></trkpt><trkpt lat="45.96499899957252" lon="12.611396482074232"><ele>37.83333333333333</ele><time>2026-04-27T10:48:29.001Z</time></trkpt><trkpt lat="45.96492782974201" lon="12.611392207095163"><ele>37.666666666666664</ele><time>2026-04-27T10:48:30.001Z</time></trkpt><trkpt lat="45.9648621878008" lon="12.611389921440173"><ele>37.5</ele><time>2026-04-27T10:48:31.001Z</time></trkpt><trkpt lat="45.96474726343286" lon="12.611373444276257"><ele>37.333333333333336</ele><time>2026-04-27T10:48:33.001Z</time></trkpt><trkpt lat="45.96466934100449" lon="12.611382312600144"><ele>37.16666666666667</ele><time>2026-04-27T10:48:34.001Z</time></trkpt><trkpt lat="45.96456842242337" lon="12.611415593437865"><ele>37.0</ele><time>2026-04-27T10:48:35.001Z</time></trkpt><trkpt lat="45.96446670299558" lon="12.611446147821027"><ele>37.0</ele><time>2026-04-27T10:48:36.001Z</time></trkpt><trkpt lat="45.96433457483927" lon="12.611456093521"><ele>37.0</ele><time>2026-04-27T10:48:37.001Z</time></trkpt><trkpt lat="45.96418555967331" lon="12.611461124828924"><ele>37.0</ele><time>2026-04-27T10:48:38.001Z</time></trkpt><trkpt lat="45.96399546098748" lon="12.611474321534809"><ele>36.333333333333336</ele><time>2026-04-27T10:48:39.001Z</time></trkpt><trkpt lat="45.96379249098683" lon="12.611505711091915"><ele>35.666666666666664</ele><time>2026-04-27T10:48:40.001Z</time></trkpt><trkpt lat="45.963620582472295" lon="12.61153812223222"><ele>35.0</ele><time>2026-04-27T10:48:41.001Z</time></trkpt><trkpt lat="45.963467124034125" lon="12.61157071160375"><ele>34.5</ele><time>2026-04-27T10:48:42.001Z</time></trkpt><trkpt lat="45.96332652858455" lon="12.611603928717209"><ele>34.0</ele><time>2026-04-27T10:48:43.001Z</time></trkpt><trkpt lat="45.963189358698685" lon="12.611656570229279"><ele>33.5</ele><time>2026-04-27T10:48:44.001Z</time></trkpt><trkpt lat="45.963056608261134" lon="12.611743532263691"><ele>33.0</ele><time>2026-04-27T10:48:45.001Z</time></trkpt><trkpt lat="45.96293493125054" lon="12.611830594364275"><ele>33.0</ele><time>2026-04-27T10:48:46.001Z</time></trkpt><trkpt lat="45.96282892406195" lon="12.611917842679283"><ele>33.0</ele><time>2026-04-27T10:48:47.001Z</time></trkpt><trkpt lat="45.96273750200166" lon="12.612010874454745"><ele>33.0</ele><time>2026-04-27T10:48:48.001Z</time></trkpt><trkpt lat="45.96263973291072" lon="12.612079726019116"><ele>33.0</ele><time>2026-04-27T10:48:49.001Z</time></trkpt><trkpt lat="45.96251922272105" lon="12.612128940893019"><ele>33.0</ele><time>2026-04-27T10:48:50.001Z</time></trkpt><trkpt lat="45.96237736416854" lon="12.612175921607305"><ele>33.0</ele><time>2026-04-27T10:48:51.001Z</time></trkpt><trkpt lat="45.96219863913701" lon="12.612258006347675"><ele>33.0</ele><time>2026-04-27T10:48:52.001Z</time></trkpt><trkpt lat="45.962009469060874" lon="12.612349950351218"><ele>33.0</ele><time>2026-04-27T10:48:53.001Z</time></trkpt><trkpt lat="45.96184505872012" lon="12.612414161992874"><ele>33.0</ele><time>2026-04-27T10:48:54.001Z</time></trkpt><trkpt lat="45.961697751054615" lon="12.612456136103502"><ele>33.0</ele><time>2026-04-27T10:48:55.001Z</time></trkpt><trkpt lat="45.96156115925961" lon="12.612488043963701"><ele>33.199999999999996</ele><time>2026-04-27T10:48:56.001Z</time></trkpt><trkpt lat="45.96143422892081" lon="12.612507946478479"><ele>33.4</ele><time>2026-04-27T10:48:57.001Z</time></trkpt><trkpt lat="45.961318387624374" lon="12.612520571168481"><ele>33.599999999999994</ele><time>2026-04-27T10:48:58.001Z</time></trkpt><trkpt lat="45.96122530672789" lon="12.612528330664288"><ele>33.8</ele><time>2026-04-27T10:48:59.001Z</time></trkpt><trkpt lat="45.96114991563385" lon="12.612526814982512"><ele>34.0</ele><time>2026-04-27T10:49:00.001Z</time></trkpt><trkpt lat="45.9610852457888" lon="12.612462723287747"><ele>34.0</ele><time>2026-04-27T10:49:02.001Z</time></trkpt><trkpt lat="45.96108423196029" lon="12.612295633754329"><ele>34.0</ele><time>2026-04-27T10:49:03.001Z</time></trkpt><trkpt lat="45.961072167562605" lon="12.61216554522672"><ele>34.0</ele><time>2026-04-27T10:49:04.001Z</time></trkpt><trkpt lat="45.961092393708086" lon="12.612066598346248"><ele>34.0</ele><time>2026-04-27T10:49:05.001Z</time></trkpt><trkpt lat="45.961133972575844" lon="12.611987054398861"><ele>34.0</ele><time>2026-04-27T10:49:06.001Z</time></trkpt><trkpt lat="45.96103518315506" lon="12.611831299687852"><ele>34.0</ele><time>2026-04-27T10:49:07.001Z</time></trkpt><trkpt lat="45.960936846875995" lon="12.611676721815138"><ele>34.0</ele><time>2026-04-27T10:49:08.001Z</time></trkpt><trkpt lat="45.96082617907003" lon="12.61144674601732"><ele>34.0</ele><time>2026-04-27T10:49:09.002Z</time></trkpt><trkpt lat="45.960739361500096" lon="12.611236042668919"><ele>34.0</ele><time>2026-04-27T10:49:10.002Z</time></trkpt><trkpt lat="45.9607082920378" lon="12.611037996606393"><ele>34.0</ele><time>2026-04-27T10:49:11.002Z</time></trkpt><trkpt lat="45.96066974341412" lon="12.610858582938791"><ele>34.0</ele><time>2026-04-27T10:49:12.002Z</time></trkpt><trkpt lat="45.96062214591601" lon="12.610684220263067"><ele>34.0</ele><time>2026-04-27T10:49:13.002Z</time></trkpt><trkpt lat="45.96058413570022" lon="12.610507465678007"><ele>33.75</ele><time>2026-04-27T10:49:14.002Z</time></trkpt><trkpt lat="45.9605486211027" lon="12.610321441311077"><ele>33.5</ele><time>2026-04-27T10:49:15.002Z</time></trkpt><trkpt lat="45.96050737400445" lon="12.610127269788125"><ele>33.25</ele><time>2026-04-27T10:49:16.002Z</time></trkpt><trkpt lat="45.96046798575473" lon="12.609921962201764"><ele>33.0</ele><time>2026-04-27T10:49:17.002Z</time></trkpt><trkpt lat="45.96042506493567" lon="12.609710912013423"><ele>32.666666666666664</ele><time>2026-04-27T10:49:18.002Z</time></trkpt><trkpt lat="45.9603652539551" lon="12.609483936994302"><ele>32.33333333333333</ele><time>2026-04-27T10:49:19.002Z</time></trkpt><trkpt lat="45.960318754961165" lon="12.609268940211448"><ele>32.0</ele><time>2026-04-27T10:49:20.002Z</time></trkpt><trkpt lat="45.96028261307018" lon="12.609044739650676"><ele>32.0</ele><time>2026-04-27T10:49:21.002Z</time></trkpt><trkpt lat="45.96022573725709" lon="12.608801403429927"><ele>32.0</ele><time>2026-04-27T10:49:22.002Z</time></trkpt><trkpt lat="45.960179168471136" lon="12.608592220123645"><ele>32.0</ele><time>2026-04-27T10:49:23.002Z</time></trkpt><trkpt lat="45.9601378346817" lon="12.608411242963685"><ele>31.75</ele><time>2026-04-27T10:49:24.002Z</time></trkpt><trkpt lat="45.9601012850382" lon="12.608242885031181"><ele>31.5</ele><time>2026-04-27T10:49:25.002Z</time></trkpt><trkpt lat="45.960068688752536" lon="12.60809213744381"><ele>31.25</ele><time>2026-04-27T10:49:26.002Z</time></trkpt><trkpt lat="45.9600340878679" lon="12.607936528525093"><ele>31.0</ele><time>2026-04-27T10:49:27.002Z</time></trkpt><trkpt lat="45.96000178139737" lon="12.607787012092725"><ele>30.666666666666668</ele><time>2026-04-27T10:49:28.002Z</time></trkpt><trkpt lat="45.95997961703264" lon="12.607672259324298"><ele>30.333333333333336</ele><time>2026-04-27T10:49:29.002Z</time></trkpt><trkpt lat="45.95996197487335" lon="12.607544432320578"><ele>30.0</ele><time>2026-04-27T10:49:31.002Z</time></trkpt><trkpt lat="45.9599518681099" lon="12.607454217371838"><ele>29.666666666666664</ele><time>2026-04-27T10:49:50.003Z</time></trkpt><trkpt lat="45.95988996084934" lon="12.607317797212874"><ele>29.333333333333332</ele><time>2026-04-27T10:49:52.003Z</time></trkpt><trkpt lat="45.95989800340049" lon="12.607178940745687"><ele>29.0</ele><time>2026-04-27T10:49:54.003Z</time></trkpt><trkpt lat="45.95999597340009" lon="12.607057962964781"><ele>29.25</ele><time>2026-04-27T10:49:59.003Z</time></trkpt><trkpt lat="45.960139885651124" lon="12.607367244130392"><ele>29.5</ele><time>2026-04-27T10:50:05.003Z</time></trkpt><trkpt lat="45.960161319157194" lon="12.607491955862335"><ele>29.75</ele><time>2026-04-27T10:50:06.003Z</time></trkpt><trkpt lat="45.96018790133104" lon="12.607620008366643"><ele>30.0</ele><time>2026-04-27T10:50:07.001Z</time></trkpt><trkpt lat="45.96020078794686" lon="12.607769685575038"><ele>30.0</ele><time>2026-04-27T10:50:09.001Z</time></trkpt><trkpt lat="45.960274933522015" lon="12.60770741429476"><ele>30.0</ele><time>2026-04-27T10:50:12.001Z</time></trkpt><trkpt lat="45.96019818685875" lon="12.607583696640873"><ele>30.0</ele><time>2026-04-27T10:50:14Z</time></trkpt><trkpt lat="45.96015838861431" lon="12.607471143577943"><ele>30.0</ele><time>2026-04-27T10:50:16Z</time></trkpt></trkseg></trk></gpx>